<?xml version="1.0" encoding="UTF-8" standalone="no" ?>
<gpx xmlns="http://www.topografix.com/GPX/1/1" xmlns:xsi="http://www.w3.org/2001/XMLSchema-instance" xsi:schemaLocation="http://www.topografix.com/GPX/1/1 http://www.topografix.com/GPX/1/1/gpx.xsd" version="1.1" creator="VisuGPX - https://www.visugpx.com">
  <metadata>
    <name>O-SO-Route de Nantes Rouans Pré Berthelot Chauvé Pont du Clion La Bernerie Arthon Chéméré St Hilaire de Chaléons St Pazane St Mars Coutais Bouaye</name>
    <desc><![CDATA[O-SO-Route de Nantes Rouans Pré Berthelot Chauvé Pont du Clion La Bernerie Arthon Chéméré St Hilaire de Chaléons St Pazane St Mars Coutais Bouaye]]></desc>
  </metadata>
  <trk>
    <name><![CDATA[2022-10-29 12:02 GMT+2]]></name>
    <trkseg>
      <trkpt lat="47.16783" lon="-1.62651">
        <ele>84</ele>
        <time>2022-10-29T10:02:35Z</time>
      </trkpt>
      <trkpt lat="47.16784" lon="-1.62665">
        <ele>83</ele>
        <time>2022-10-29T10:04:11Z</time>
      </trkpt>
      <trkpt lat="47.16779" lon="-1.62675">
        <ele>83</ele>
        <time>2022-10-29T10:04:13Z</time>
      </trkpt>
      <trkpt lat="47.16766" lon="-1.62672">
        <ele>83</ele>
        <time>2022-10-29T10:04:16Z</time>
      </trkpt>
      <trkpt lat="47.16754" lon="-1.62671">
        <ele>81</ele>
        <time>2022-10-29T10:04:18Z</time>
      </trkpt>
      <trkpt lat="47.16744" lon="-1.62679">
        <ele>81</ele>
        <time>2022-10-29T10:04:20Z</time>
      </trkpt>
      <trkpt lat="47.16734" lon="-1.62686">
        <ele>80</ele>
        <time>2022-10-29T10:04:22Z</time>
      </trkpt>
      <trkpt lat="47.16725" lon="-1.62696">
        <ele>80</ele>
        <time>2022-10-29T10:04:24Z</time>
      </trkpt>
      <trkpt lat="47.16726" lon="-1.62711">
        <ele>79</ele>
        <time>2022-10-29T10:04:26Z</time>
      </trkpt>
      <trkpt lat="47.16733" lon="-1.62723">
        <ele>79</ele>
        <time>2022-10-29T10:04:28Z</time>
      </trkpt>
      <trkpt lat="47.1674" lon="-1.62737">
        <ele>78</ele>
        <time>2022-10-29T10:04:30Z</time>
      </trkpt>
      <trkpt lat="47.16749" lon="-1.6275">
        <ele>78</ele>
        <time>2022-10-29T10:04:32Z</time>
      </trkpt>
      <trkpt lat="47.16759" lon="-1.62763">
        <ele>77</ele>
        <time>2022-10-29T10:04:34Z</time>
      </trkpt>
      <trkpt lat="47.1677" lon="-1.62774">
        <ele>77</ele>
        <time>2022-10-29T10:04:36Z</time>
      </trkpt>
      <trkpt lat="47.16781" lon="-1.62785">
        <ele>76</ele>
        <time>2022-10-29T10:04:38Z</time>
      </trkpt>
      <trkpt lat="47.16799" lon="-1.62801">
        <ele>75</ele>
        <time>2022-10-29T10:04:41Z</time>
      </trkpt>
      <trkpt lat="47.1681" lon="-1.62811">
        <ele>76</ele>
        <time>2022-10-29T10:04:43Z</time>
      </trkpt>
      <trkpt lat="47.16821" lon="-1.62821">
        <ele>76</ele>
        <time>2022-10-29T10:04:45Z</time>
      </trkpt>
      <trkpt lat="47.16832" lon="-1.62832">
        <ele>76</ele>
        <time>2022-10-29T10:04:47Z</time>
      </trkpt>
      <trkpt lat="47.16843" lon="-1.62843">
        <ele>76</ele>
        <time>2022-10-29T10:04:49Z</time>
      </trkpt>
      <trkpt lat="47.16853" lon="-1.62854">
        <ele>76</ele>
        <time>2022-10-29T10:04:51Z</time>
      </trkpt>
      <trkpt lat="47.16863" lon="-1.62864">
        <ele>76</ele>
        <time>2022-10-29T10:04:53Z</time>
      </trkpt>
      <trkpt lat="47.16873" lon="-1.62875">
        <ele>76</ele>
        <time>2022-10-29T10:04:55Z</time>
      </trkpt>
      <trkpt lat="47.16881" lon="-1.62888">
        <ele>75</ele>
        <time>2022-10-29T10:04:57Z</time>
      </trkpt>
      <trkpt lat="47.16887" lon="-1.62904">
        <ele>76</ele>
        <time>2022-10-29T10:04:59Z</time>
      </trkpt>
      <trkpt lat="47.16892" lon="-1.6293">
        <ele>76</ele>
        <time>2022-10-29T10:05:02Z</time>
      </trkpt>
      <trkpt lat="47.16894" lon="-1.62949">
        <ele>76</ele>
        <time>2022-10-29T10:05:04Z</time>
      </trkpt>
      <trkpt lat="47.16894" lon="-1.62977">
        <ele>76</ele>
        <time>2022-10-29T10:05:07Z</time>
      </trkpt>
      <trkpt lat="47.16892" lon="-1.62997">
        <ele>76</ele>
        <time>2022-10-29T10:05:09Z</time>
      </trkpt>
      <trkpt lat="47.16891" lon="-1.63016">
        <ele>76</ele>
        <time>2022-10-29T10:05:11Z</time>
      </trkpt>
      <trkpt lat="47.1689" lon="-1.63034">
        <ele>76</ele>
        <time>2022-10-29T10:05:13Z</time>
      </trkpt>
      <trkpt lat="47.1689" lon="-1.63053">
        <ele>76</ele>
        <time>2022-10-29T10:05:15Z</time>
      </trkpt>
      <trkpt lat="47.16892" lon="-1.63072">
        <ele>76</ele>
        <time>2022-10-29T10:05:17Z</time>
      </trkpt>
      <trkpt lat="47.16894" lon="-1.63091">
        <ele>76</ele>
        <time>2022-10-29T10:05:19Z</time>
      </trkpt>
      <trkpt lat="47.16898" lon="-1.63109">
        <ele>76</ele>
        <time>2022-10-29T10:05:21Z</time>
      </trkpt>
      <trkpt lat="47.16902" lon="-1.63126">
        <ele>76</ele>
        <time>2022-10-29T10:05:23Z</time>
      </trkpt>
      <trkpt lat="47.16908" lon="-1.63143">
        <ele>77</ele>
        <time>2022-10-29T10:05:25Z</time>
      </trkpt>
      <trkpt lat="47.16913" lon="-1.63159">
        <ele>77</ele>
        <time>2022-10-29T10:05:27Z</time>
      </trkpt>
      <trkpt lat="47.1692" lon="-1.63175">
        <ele>77</ele>
        <time>2022-10-29T10:05:29Z</time>
      </trkpt>
      <trkpt lat="47.16927" lon="-1.63189">
        <ele>77</ele>
        <time>2022-10-29T10:05:31Z</time>
      </trkpt>
      <trkpt lat="47.16936" lon="-1.63202">
        <ele>77</ele>
        <time>2022-10-29T10:05:33Z</time>
      </trkpt>
      <trkpt lat="47.16944" lon="-1.63215">
        <ele>77</ele>
        <time>2022-10-29T10:05:35Z</time>
      </trkpt>
      <trkpt lat="47.16953" lon="-1.63227">
        <ele>77</ele>
        <time>2022-10-29T10:05:37Z</time>
      </trkpt>
      <trkpt lat="47.16962" lon="-1.63237">
        <ele>77</ele>
        <time>2022-10-29T10:05:39Z</time>
      </trkpt>
      <trkpt lat="47.1697" lon="-1.63248">
        <ele>77</ele>
        <time>2022-10-29T10:05:42Z</time>
      </trkpt>
      <trkpt lat="47.16968" lon="-1.63266">
        <ele>77</ele>
        <time>2022-10-29T10:05:47Z</time>
      </trkpt>
      <trkpt lat="47.16961" lon="-1.63276">
        <ele>78</ele>
        <time>2022-10-29T10:05:49Z</time>
      </trkpt>
      <trkpt lat="47.16954" lon="-1.63288">
        <ele>78</ele>
        <time>2022-10-29T10:05:51Z</time>
      </trkpt>
      <trkpt lat="47.16946" lon="-1.63301">
        <ele>78</ele>
        <time>2022-10-29T10:05:53Z</time>
      </trkpt>
      <trkpt lat="47.16938" lon="-1.63313">
        <ele>78</ele>
        <time>2022-10-29T10:05:55Z</time>
      </trkpt>
      <trkpt lat="47.16929" lon="-1.63327">
        <ele>79</ele>
        <time>2022-10-29T10:05:57Z</time>
      </trkpt>
      <trkpt lat="47.16921" lon="-1.63339">
        <ele>80</ele>
        <time>2022-10-29T10:05:59Z</time>
      </trkpt>
      <trkpt lat="47.16913" lon="-1.63351">
        <ele>81</ele>
        <time>2022-10-29T10:06:01Z</time>
      </trkpt>
      <trkpt lat="47.16904" lon="-1.63363">
        <ele>81</ele>
        <time>2022-10-29T10:06:03Z</time>
      </trkpt>
      <trkpt lat="47.16896" lon="-1.63376">
        <ele>81</ele>
        <time>2022-10-29T10:06:05Z</time>
      </trkpt>
      <trkpt lat="47.16888" lon="-1.6339">
        <ele>81</ele>
        <time>2022-10-29T10:06:07Z</time>
      </trkpt>
      <trkpt lat="47.16879" lon="-1.63403">
        <ele>82</ele>
        <time>2022-10-29T10:06:09Z</time>
      </trkpt>
      <trkpt lat="47.16872" lon="-1.63417">
        <ele>82</ele>
        <time>2022-10-29T10:06:11Z</time>
      </trkpt>
      <trkpt lat="47.16864" lon="-1.6343">
        <ele>82</ele>
        <time>2022-10-29T10:06:13Z</time>
      </trkpt>
      <trkpt lat="47.16856" lon="-1.63444">
        <ele>83</ele>
        <time>2022-10-29T10:06:15Z</time>
      </trkpt>
      <trkpt lat="47.16849" lon="-1.63458">
        <ele>83</ele>
        <time>2022-10-29T10:06:17Z</time>
      </trkpt>
      <trkpt lat="47.16841" lon="-1.63471">
        <ele>83</ele>
        <time>2022-10-29T10:06:19Z</time>
      </trkpt>
      <trkpt lat="47.16832" lon="-1.63485">
        <ele>83</ele>
        <time>2022-10-29T10:06:21Z</time>
      </trkpt>
      <trkpt lat="47.16824" lon="-1.63498">
        <ele>83</ele>
        <time>2022-10-29T10:06:23Z</time>
      </trkpt>
      <trkpt lat="47.16816" lon="-1.63512">
        <ele>82</ele>
        <time>2022-10-29T10:06:25Z</time>
      </trkpt>
      <trkpt lat="47.16808" lon="-1.63526">
        <ele>82</ele>
        <time>2022-10-29T10:06:27Z</time>
      </trkpt>
      <trkpt lat="47.168" lon="-1.63539">
        <ele>82</ele>
        <time>2022-10-29T10:06:29Z</time>
      </trkpt>
      <trkpt lat="47.16792" lon="-1.63553">
        <ele>82</ele>
        <time>2022-10-29T10:06:31Z</time>
      </trkpt>
      <trkpt lat="47.16784" lon="-1.63567">
        <ele>83</ele>
        <time>2022-10-29T10:06:33Z</time>
      </trkpt>
      <trkpt lat="47.16776" lon="-1.6358">
        <ele>82</ele>
        <time>2022-10-29T10:06:35Z</time>
      </trkpt>
      <trkpt lat="47.16768" lon="-1.63593">
        <ele>82</ele>
        <time>2022-10-29T10:06:37Z</time>
      </trkpt>
      <trkpt lat="47.1676" lon="-1.63606">
        <ele>82</ele>
        <time>2022-10-29T10:06:39Z</time>
      </trkpt>
      <trkpt lat="47.16753" lon="-1.63618">
        <ele>82</ele>
        <time>2022-10-29T10:06:41Z</time>
      </trkpt>
      <trkpt lat="47.16747" lon="-1.63632">
        <ele>82</ele>
        <time>2022-10-29T10:06:43Z</time>
      </trkpt>
      <trkpt lat="47.16753" lon="-1.63644">
        <ele>82</ele>
        <time>2022-10-29T10:06:45Z</time>
      </trkpt>
      <trkpt lat="47.16764" lon="-1.63649">
        <ele>81</ele>
        <time>2022-10-29T10:06:47Z</time>
      </trkpt>
      <trkpt lat="47.16776" lon="-1.63653">
        <ele>80</ele>
        <time>2022-10-29T10:06:49Z</time>
      </trkpt>
      <trkpt lat="47.16788" lon="-1.63657">
        <ele>81</ele>
        <time>2022-10-29T10:06:51Z</time>
      </trkpt>
      <trkpt lat="47.16801" lon="-1.63661">
        <ele>81</ele>
        <time>2022-10-29T10:06:53Z</time>
      </trkpt>
      <trkpt lat="47.16813" lon="-1.63665">
        <ele>81</ele>
        <time>2022-10-29T10:06:55Z</time>
      </trkpt>
      <trkpt lat="47.16826" lon="-1.6367">
        <ele>80</ele>
        <time>2022-10-29T10:06:57Z</time>
      </trkpt>
      <trkpt lat="47.16839" lon="-1.63675">
        <ele>80</ele>
        <time>2022-10-29T10:06:59Z</time>
      </trkpt>
      <trkpt lat="47.16851" lon="-1.6368">
        <ele>80</ele>
        <time>2022-10-29T10:07:01Z</time>
      </trkpt>
      <trkpt lat="47.16864" lon="-1.63684">
        <ele>81</ele>
        <time>2022-10-29T10:07:03Z</time>
      </trkpt>
      <trkpt lat="47.16877" lon="-1.63689">
        <ele>81</ele>
        <time>2022-10-29T10:07:05Z</time>
      </trkpt>
      <trkpt lat="47.16889" lon="-1.63693">
        <ele>81</ele>
        <time>2022-10-29T10:07:07Z</time>
      </trkpt>
      <trkpt lat="47.16903" lon="-1.63698">
        <ele>81</ele>
        <time>2022-10-29T10:07:09Z</time>
      </trkpt>
      <trkpt lat="47.16915" lon="-1.63703">
        <ele>81</ele>
        <time>2022-10-29T10:07:11Z</time>
      </trkpt>
      <trkpt lat="47.16928" lon="-1.63708">
        <ele>81</ele>
        <time>2022-10-29T10:07:13Z</time>
      </trkpt>
      <trkpt lat="47.16941" lon="-1.63713">
        <ele>81</ele>
        <time>2022-10-29T10:07:15Z</time>
      </trkpt>
      <trkpt lat="47.16954" lon="-1.63718">
        <ele>82</ele>
        <time>2022-10-29T10:07:17Z</time>
      </trkpt>
      <trkpt lat="47.16967" lon="-1.63722">
        <ele>82</ele>
        <time>2022-10-29T10:07:19Z</time>
      </trkpt>
      <trkpt lat="47.1698" lon="-1.63727">
        <ele>82</ele>
        <time>2022-10-29T10:07:21Z</time>
      </trkpt>
      <trkpt lat="47.16993" lon="-1.63732">
        <ele>82</ele>
        <time>2022-10-29T10:07:23Z</time>
      </trkpt>
      <trkpt lat="47.17005" lon="-1.63736">
        <ele>82</ele>
        <time>2022-10-29T10:07:25Z</time>
      </trkpt>
      <trkpt lat="47.17018" lon="-1.6374">
        <ele>82</ele>
        <time>2022-10-29T10:07:27Z</time>
      </trkpt>
      <trkpt lat="47.17031" lon="-1.63745">
        <ele>82</ele>
        <time>2022-10-29T10:07:29Z</time>
      </trkpt>
      <trkpt lat="47.17044" lon="-1.6375">
        <ele>82</ele>
        <time>2022-10-29T10:07:31Z</time>
      </trkpt>
      <trkpt lat="47.17055" lon="-1.6376">
        <ele>82</ele>
        <time>2022-10-29T10:07:33Z</time>
      </trkpt>
      <trkpt lat="47.17064" lon="-1.63773">
        <ele>82</ele>
        <time>2022-10-29T10:07:35Z</time>
      </trkpt>
      <trkpt lat="47.1707" lon="-1.6379">
        <ele>82</ele>
        <time>2022-10-29T10:07:37Z</time>
      </trkpt>
      <trkpt lat="47.17075" lon="-1.63808">
        <ele>82</ele>
        <time>2022-10-29T10:07:39Z</time>
      </trkpt>
      <trkpt lat="47.17081" lon="-1.63826">
        <ele>81</ele>
        <time>2022-10-29T10:07:41Z</time>
      </trkpt>
      <trkpt lat="47.17087" lon="-1.63842">
        <ele>81</ele>
        <time>2022-10-29T10:07:43Z</time>
      </trkpt>
      <trkpt lat="47.17094" lon="-1.63859">
        <ele>80</ele>
        <time>2022-10-29T10:07:45Z</time>
      </trkpt>
      <trkpt lat="47.17099" lon="-1.63876">
        <ele>79</ele>
        <time>2022-10-29T10:07:47Z</time>
      </trkpt>
      <trkpt lat="47.17106" lon="-1.63893">
        <ele>80</ele>
        <time>2022-10-29T10:07:49Z</time>
      </trkpt>
      <trkpt lat="47.17112" lon="-1.63909">
        <ele>80</ele>
        <time>2022-10-29T10:07:51Z</time>
      </trkpt>
      <trkpt lat="47.17117" lon="-1.63924">
        <ele>79</ele>
        <time>2022-10-29T10:07:53Z</time>
      </trkpt>
      <trkpt lat="47.17124" lon="-1.63937">
        <ele>79</ele>
        <time>2022-10-29T10:07:55Z</time>
      </trkpt>
      <trkpt lat="47.17133" lon="-1.63942">
        <ele>79</ele>
        <time>2022-10-29T10:07:57Z</time>
      </trkpt>
      <trkpt lat="47.17141" lon="-1.63956">
        <ele>80</ele>
        <time>2022-10-29T10:08:00Z</time>
      </trkpt>
      <trkpt lat="47.17141" lon="-1.63973">
        <ele>80</ele>
        <time>2022-10-29T10:08:02Z</time>
      </trkpt>
      <trkpt lat="47.17141" lon="-1.63991">
        <ele>80</ele>
        <time>2022-10-29T10:08:04Z</time>
      </trkpt>
      <trkpt lat="47.17139" lon="-1.6401">
        <ele>79</ele>
        <time>2022-10-29T10:08:06Z</time>
      </trkpt>
      <trkpt lat="47.17137" lon="-1.64028">
        <ele>79</ele>
        <time>2022-10-29T10:08:08Z</time>
      </trkpt>
      <trkpt lat="47.17135" lon="-1.64048">
        <ele>79</ele>
        <time>2022-10-29T10:08:10Z</time>
      </trkpt>
      <trkpt lat="47.17133" lon="-1.64067">
        <ele>79</ele>
        <time>2022-10-29T10:08:12Z</time>
      </trkpt>
      <trkpt lat="47.17131" lon="-1.64086">
        <ele>79</ele>
        <time>2022-10-29T10:08:14Z</time>
      </trkpt>
      <trkpt lat="47.17128" lon="-1.64104">
        <ele>80</ele>
        <time>2022-10-29T10:08:16Z</time>
      </trkpt>
      <trkpt lat="47.17126" lon="-1.64123">
        <ele>80</ele>
        <time>2022-10-29T10:08:18Z</time>
      </trkpt>
      <trkpt lat="47.17124" lon="-1.64142">
        <ele>81</ele>
        <time>2022-10-29T10:08:20Z</time>
      </trkpt>
      <trkpt lat="47.17122" lon="-1.64161">
        <ele>80</ele>
        <time>2022-10-29T10:08:22Z</time>
      </trkpt>
      <trkpt lat="47.17121" lon="-1.6418">
        <ele>80</ele>
        <time>2022-10-29T10:08:24Z</time>
      </trkpt>
      <trkpt lat="47.17119" lon="-1.64198">
        <ele>80</ele>
        <time>2022-10-29T10:08:26Z</time>
      </trkpt>
      <trkpt lat="47.17117" lon="-1.64217">
        <ele>80</ele>
        <time>2022-10-29T10:08:28Z</time>
      </trkpt>
      <trkpt lat="47.17114" lon="-1.64236">
        <ele>79</ele>
        <time>2022-10-29T10:08:30Z</time>
      </trkpt>
      <trkpt lat="47.17112" lon="-1.64255">
        <ele>80</ele>
        <time>2022-10-29T10:08:32Z</time>
      </trkpt>
      <trkpt lat="47.17109" lon="-1.64273">
        <ele>80</ele>
        <time>2022-10-29T10:08:34Z</time>
      </trkpt>
      <trkpt lat="47.17108" lon="-1.64293">
        <ele>81</ele>
        <time>2022-10-29T10:08:36Z</time>
      </trkpt>
      <trkpt lat="47.17106" lon="-1.64311">
        <ele>81</ele>
        <time>2022-10-29T10:08:38Z</time>
      </trkpt>
      <trkpt lat="47.17104" lon="-1.6433">
        <ele>81</ele>
        <time>2022-10-29T10:08:40Z</time>
      </trkpt>
      <trkpt lat="47.17102" lon="-1.64349">
        <ele>81</ele>
        <time>2022-10-29T10:08:42Z</time>
      </trkpt>
      <trkpt lat="47.17101" lon="-1.64368">
        <ele>80</ele>
        <time>2022-10-29T10:08:44Z</time>
      </trkpt>
      <trkpt lat="47.17099" lon="-1.64387">
        <ele>81</ele>
        <time>2022-10-29T10:08:46Z</time>
      </trkpt>
      <trkpt lat="47.17097" lon="-1.64406">
        <ele>81</ele>
        <time>2022-10-29T10:08:48Z</time>
      </trkpt>
      <trkpt lat="47.17096" lon="-1.64425">
        <ele>80</ele>
        <time>2022-10-29T10:08:50Z</time>
      </trkpt>
      <trkpt lat="47.17095" lon="-1.64444">
        <ele>80</ele>
        <time>2022-10-29T10:08:52Z</time>
      </trkpt>
      <trkpt lat="47.17094" lon="-1.64463">
        <ele>80</ele>
        <time>2022-10-29T10:08:54Z</time>
      </trkpt>
      <trkpt lat="47.17093" lon="-1.64482">
        <ele>80</ele>
        <time>2022-10-29T10:08:56Z</time>
      </trkpt>
      <trkpt lat="47.17091" lon="-1.64502">
        <ele>80</ele>
        <time>2022-10-29T10:08:58Z</time>
      </trkpt>
      <trkpt lat="47.17091" lon="-1.64523">
        <ele>80</ele>
        <time>2022-10-29T10:09:00Z</time>
      </trkpt>
      <trkpt lat="47.17091" lon="-1.64543">
        <ele>79</ele>
        <time>2022-10-29T10:09:02Z</time>
      </trkpt>
      <trkpt lat="47.1709" lon="-1.64564">
        <ele>79</ele>
        <time>2022-10-29T10:09:04Z</time>
      </trkpt>
      <trkpt lat="47.1709" lon="-1.64584">
        <ele>79</ele>
        <time>2022-10-29T10:09:06Z</time>
      </trkpt>
      <trkpt lat="47.1709" lon="-1.64604">
        <ele>79</ele>
        <time>2022-10-29T10:09:08Z</time>
      </trkpt>
      <trkpt lat="47.17089" lon="-1.64624">
        <ele>79</ele>
        <time>2022-10-29T10:09:10Z</time>
      </trkpt>
      <trkpt lat="47.17088" lon="-1.64644">
        <ele>80</ele>
        <time>2022-10-29T10:09:12Z</time>
      </trkpt>
      <trkpt lat="47.17089" lon="-1.64665">
        <ele>80</ele>
        <time>2022-10-29T10:09:14Z</time>
      </trkpt>
      <trkpt lat="47.17089" lon="-1.64686">
        <ele>80</ele>
        <time>2022-10-29T10:09:16Z</time>
      </trkpt>
      <trkpt lat="47.1709" lon="-1.64706">
        <ele>80</ele>
        <time>2022-10-29T10:09:18Z</time>
      </trkpt>
      <trkpt lat="47.17091" lon="-1.64727">
        <ele>80</ele>
        <time>2022-10-29T10:09:20Z</time>
      </trkpt>
      <trkpt lat="47.17091" lon="-1.64747">
        <ele>80</ele>
        <time>2022-10-29T10:09:22Z</time>
      </trkpt>
      <trkpt lat="47.17092" lon="-1.64764">
        <ele>81</ele>
        <time>2022-10-29T10:09:24Z</time>
      </trkpt>
      <trkpt lat="47.17094" lon="-1.64783">
        <ele>82</ele>
        <time>2022-10-29T10:09:26Z</time>
      </trkpt>
      <trkpt lat="47.17097" lon="-1.64803">
        <ele>82</ele>
        <time>2022-10-29T10:09:28Z</time>
      </trkpt>
      <trkpt lat="47.17099" lon="-1.64824">
        <ele>82</ele>
        <time>2022-10-29T10:09:30Z</time>
      </trkpt>
      <trkpt lat="47.17099" lon="-1.64846">
        <ele>82</ele>
        <time>2022-10-29T10:09:32Z</time>
      </trkpt>
      <trkpt lat="47.17101" lon="-1.64868">
        <ele>82</ele>
        <time>2022-10-29T10:09:34Z</time>
      </trkpt>
      <trkpt lat="47.17102" lon="-1.6489">
        <ele>81</ele>
        <time>2022-10-29T10:09:36Z</time>
      </trkpt>
      <trkpt lat="47.17103" lon="-1.64911">
        <ele>81</ele>
        <time>2022-10-29T10:09:38Z</time>
      </trkpt>
      <trkpt lat="47.17105" lon="-1.64932">
        <ele>81</ele>
        <time>2022-10-29T10:09:40Z</time>
      </trkpt>
      <trkpt lat="47.17106" lon="-1.64953">
        <ele>80</ele>
        <time>2022-10-29T10:09:42Z</time>
      </trkpt>
      <trkpt lat="47.17108" lon="-1.64973">
        <ele>80</ele>
        <time>2022-10-29T10:09:44Z</time>
      </trkpt>
      <trkpt lat="47.1711" lon="-1.64993">
        <ele>80</ele>
        <time>2022-10-29T10:09:46Z</time>
      </trkpt>
      <trkpt lat="47.17111" lon="-1.65014">
        <ele>80</ele>
        <time>2022-10-29T10:09:48Z</time>
      </trkpt>
      <trkpt lat="47.17112" lon="-1.65034">
        <ele>80</ele>
        <time>2022-10-29T10:09:50Z</time>
      </trkpt>
      <trkpt lat="47.17113" lon="-1.65055">
        <ele>80</ele>
        <time>2022-10-29T10:09:52Z</time>
      </trkpt>
      <trkpt lat="47.17115" lon="-1.65075">
        <ele>80</ele>
        <time>2022-10-29T10:09:54Z</time>
      </trkpt>
      <trkpt lat="47.17117" lon="-1.65094">
        <ele>81</ele>
        <time>2022-10-29T10:09:56Z</time>
      </trkpt>
      <trkpt lat="47.17118" lon="-1.65113">
        <ele>81</ele>
        <time>2022-10-29T10:09:58Z</time>
      </trkpt>
      <trkpt lat="47.17119" lon="-1.65134">
        <ele>81</ele>
        <time>2022-10-29T10:10:00Z</time>
      </trkpt>
      <trkpt lat="47.1712" lon="-1.65153">
        <ele>80</ele>
        <time>2022-10-29T10:10:02Z</time>
      </trkpt>
      <trkpt lat="47.17121" lon="-1.65172">
        <ele>81</ele>
        <time>2022-10-29T10:10:04Z</time>
      </trkpt>
      <trkpt lat="47.17123" lon="-1.65192">
        <ele>81</ele>
        <time>2022-10-29T10:10:06Z</time>
      </trkpt>
      <trkpt lat="47.17124" lon="-1.65211">
        <ele>81</ele>
        <time>2022-10-29T10:10:08Z</time>
      </trkpt>
      <trkpt lat="47.17126" lon="-1.65229">
        <ele>81</ele>
        <time>2022-10-29T10:10:10Z</time>
      </trkpt>
      <trkpt lat="47.17127" lon="-1.65246">
        <ele>82</ele>
        <time>2022-10-29T10:10:12Z</time>
      </trkpt>
      <trkpt lat="47.17129" lon="-1.65263">
        <ele>82</ele>
        <time>2022-10-29T10:10:14Z</time>
      </trkpt>
      <trkpt lat="47.17135" lon="-1.65279">
        <ele>82</ele>
        <time>2022-10-29T10:10:16Z</time>
      </trkpt>
      <trkpt lat="47.1714" lon="-1.65296">
        <ele>82</ele>
        <time>2022-10-29T10:10:18Z</time>
      </trkpt>
      <trkpt lat="47.1714" lon="-1.65315">
        <ele>82</ele>
        <time>2022-10-29T10:10:20Z</time>
      </trkpt>
      <trkpt lat="47.17137" lon="-1.65333">
        <ele>84</ele>
        <time>2022-10-29T10:10:22Z</time>
      </trkpt>
      <trkpt lat="47.17129" lon="-1.65347">
        <ele>85</ele>
        <time>2022-10-29T10:10:24Z</time>
      </trkpt>
      <trkpt lat="47.17124" lon="-1.65365">
        <ele>85</ele>
        <time>2022-10-29T10:10:26Z</time>
      </trkpt>
      <trkpt lat="47.17124" lon="-1.65384">
        <ele>84</ele>
        <time>2022-10-29T10:10:28Z</time>
      </trkpt>
      <trkpt lat="47.17124" lon="-1.65401">
        <ele>84</ele>
        <time>2022-10-29T10:10:30Z</time>
      </trkpt>
      <trkpt lat="47.17124" lon="-1.65419">
        <ele>85</ele>
        <time>2022-10-29T10:10:32Z</time>
      </trkpt>
      <trkpt lat="47.17124" lon="-1.65436">
        <ele>85</ele>
        <time>2022-10-29T10:10:34Z</time>
      </trkpt>
      <trkpt lat="47.17123" lon="-1.65454">
        <ele>86</ele>
        <time>2022-10-29T10:10:36Z</time>
      </trkpt>
      <trkpt lat="47.17121" lon="-1.65472">
        <ele>86</ele>
        <time>2022-10-29T10:10:38Z</time>
      </trkpt>
      <trkpt lat="47.17118" lon="-1.65489">
        <ele>87</ele>
        <time>2022-10-29T10:10:40Z</time>
      </trkpt>
      <trkpt lat="47.17114" lon="-1.65507">
        <ele>88</ele>
        <time>2022-10-29T10:10:42Z</time>
      </trkpt>
      <trkpt lat="47.17109" lon="-1.65522">
        <ele>88</ele>
        <time>2022-10-29T10:10:44Z</time>
      </trkpt>
      <trkpt lat="47.17103" lon="-1.65537">
        <ele>88</ele>
        <time>2022-10-29T10:10:46Z</time>
      </trkpt>
      <trkpt lat="47.17096" lon="-1.65551">
        <ele>88</ele>
        <time>2022-10-29T10:10:48Z</time>
      </trkpt>
      <trkpt lat="47.17088" lon="-1.65564">
        <ele>88</ele>
        <time>2022-10-29T10:10:50Z</time>
      </trkpt>
      <trkpt lat="47.17081" lon="-1.65576">
        <ele>89</ele>
        <time>2022-10-29T10:10:52Z</time>
      </trkpt>
      <trkpt lat="47.17074" lon="-1.65589">
        <ele>89</ele>
        <time>2022-10-29T10:10:54Z</time>
      </trkpt>
      <trkpt lat="47.17066" lon="-1.65602">
        <ele>89</ele>
        <time>2022-10-29T10:10:56Z</time>
      </trkpt>
      <trkpt lat="47.17059" lon="-1.65615">
        <ele>89</ele>
        <time>2022-10-29T10:10:58Z</time>
      </trkpt>
      <trkpt lat="47.17051" lon="-1.65629">
        <ele>89</ele>
        <time>2022-10-29T10:11:00Z</time>
      </trkpt>
      <trkpt lat="47.17042" lon="-1.65644">
        <ele>88</ele>
        <time>2022-10-29T10:11:02Z</time>
      </trkpt>
      <trkpt lat="47.17034" lon="-1.65661">
        <ele>88</ele>
        <time>2022-10-29T10:11:04Z</time>
      </trkpt>
      <trkpt lat="47.17025" lon="-1.65678">
        <ele>87</ele>
        <time>2022-10-29T10:11:06Z</time>
      </trkpt>
      <trkpt lat="47.17018" lon="-1.65695">
        <ele>87</ele>
        <time>2022-10-29T10:11:08Z</time>
      </trkpt>
      <trkpt lat="47.17012" lon="-1.65713">
        <ele>87</ele>
        <time>2022-10-29T10:11:10Z</time>
      </trkpt>
      <trkpt lat="47.17008" lon="-1.65732">
        <ele>87</ele>
        <time>2022-10-29T10:11:12Z</time>
      </trkpt>
      <trkpt lat="47.17004" lon="-1.65751">
        <ele>86</ele>
        <time>2022-10-29T10:11:14Z</time>
      </trkpt>
      <trkpt lat="47.16995" lon="-1.65764">
        <ele>86</ele>
        <time>2022-10-29T10:11:16Z</time>
      </trkpt>
      <trkpt lat="47.16983" lon="-1.65772">
        <ele>86</ele>
        <time>2022-10-29T10:11:18Z</time>
      </trkpt>
      <trkpt lat="47.16971" lon="-1.6578">
        <ele>87</ele>
        <time>2022-10-29T10:11:20Z</time>
      </trkpt>
      <trkpt lat="47.1696" lon="-1.65793">
        <ele>87</ele>
        <time>2022-10-29T10:11:22Z</time>
      </trkpt>
      <trkpt lat="47.16952" lon="-1.65809">
        <ele>87</ele>
        <time>2022-10-29T10:11:24Z</time>
      </trkpt>
      <trkpt lat="47.16944" lon="-1.65827">
        <ele>87</ele>
        <time>2022-10-29T10:11:26Z</time>
      </trkpt>
      <trkpt lat="47.16936" lon="-1.65843">
        <ele>87</ele>
        <time>2022-10-29T10:11:28Z</time>
      </trkpt>
      <trkpt lat="47.16928" lon="-1.6586">
        <ele>87</ele>
        <time>2022-10-29T10:11:30Z</time>
      </trkpt>
      <trkpt lat="47.16919" lon="-1.65877">
        <ele>87</ele>
        <time>2022-10-29T10:11:32Z</time>
      </trkpt>
      <trkpt lat="47.16911" lon="-1.65894">
        <ele>86</ele>
        <time>2022-10-29T10:11:34Z</time>
      </trkpt>
      <trkpt lat="47.16903" lon="-1.65911">
        <ele>85</ele>
        <time>2022-10-29T10:11:36Z</time>
      </trkpt>
      <trkpt lat="47.16895" lon="-1.65928">
        <ele>85</ele>
        <time>2022-10-29T10:11:38Z</time>
      </trkpt>
      <trkpt lat="47.16887" lon="-1.65945">
        <ele>84</ele>
        <time>2022-10-29T10:11:40Z</time>
      </trkpt>
      <trkpt lat="47.1688" lon="-1.65963">
        <ele>84</ele>
        <time>2022-10-29T10:11:42Z</time>
      </trkpt>
      <trkpt lat="47.16873" lon="-1.65981">
        <ele>84</ele>
        <time>2022-10-29T10:11:44Z</time>
      </trkpt>
      <trkpt lat="47.16867" lon="-1.66">
        <ele>83</ele>
        <time>2022-10-29T10:11:46Z</time>
      </trkpt>
      <trkpt lat="47.16862" lon="-1.6602">
        <ele>83</ele>
        <time>2022-10-29T10:11:48Z</time>
      </trkpt>
      <trkpt lat="47.16858" lon="-1.66039">
        <ele>83</ele>
        <time>2022-10-29T10:11:50Z</time>
      </trkpt>
      <trkpt lat="47.16854" lon="-1.66059">
        <ele>82</ele>
        <time>2022-10-29T10:11:52Z</time>
      </trkpt>
      <trkpt lat="47.16852" lon="-1.66079">
        <ele>82</ele>
        <time>2022-10-29T10:11:54Z</time>
      </trkpt>
      <trkpt lat="47.1685" lon="-1.66098">
        <ele>82</ele>
        <time>2022-10-29T10:11:56Z</time>
      </trkpt>
      <trkpt lat="47.16848" lon="-1.66118">
        <ele>82</ele>
        <time>2022-10-29T10:11:58Z</time>
      </trkpt>
      <trkpt lat="47.16847" lon="-1.66139">
        <ele>82</ele>
        <time>2022-10-29T10:12:00Z</time>
      </trkpt>
      <trkpt lat="47.16848" lon="-1.6616">
        <ele>82</ele>
        <time>2022-10-29T10:12:02Z</time>
      </trkpt>
      <trkpt lat="47.16849" lon="-1.66181">
        <ele>82</ele>
        <time>2022-10-29T10:12:04Z</time>
      </trkpt>
      <trkpt lat="47.1685" lon="-1.66201">
        <ele>82</ele>
        <time>2022-10-29T10:12:06Z</time>
      </trkpt>
      <trkpt lat="47.16851" lon="-1.66221">
        <ele>82</ele>
        <time>2022-10-29T10:12:08Z</time>
      </trkpt>
      <trkpt lat="47.16853" lon="-1.66241">
        <ele>82</ele>
        <time>2022-10-29T10:12:10Z</time>
      </trkpt>
      <trkpt lat="47.16854" lon="-1.66261">
        <ele>83</ele>
        <time>2022-10-29T10:12:12Z</time>
      </trkpt>
      <trkpt lat="47.16856" lon="-1.66281">
        <ele>82</ele>
        <time>2022-10-29T10:12:14Z</time>
      </trkpt>
      <trkpt lat="47.16857" lon="-1.66301">
        <ele>82</ele>
        <time>2022-10-29T10:12:16Z</time>
      </trkpt>
      <trkpt lat="47.16859" lon="-1.66321">
        <ele>82</ele>
        <time>2022-10-29T10:12:18Z</time>
      </trkpt>
      <trkpt lat="47.16861" lon="-1.66341">
        <ele>82</ele>
        <time>2022-10-29T10:12:20Z</time>
      </trkpt>
      <trkpt lat="47.16863" lon="-1.66359">
        <ele>81</ele>
        <time>2022-10-29T10:12:22Z</time>
      </trkpt>
      <trkpt lat="47.16865" lon="-1.66379">
        <ele>81</ele>
        <time>2022-10-29T10:12:24Z</time>
      </trkpt>
      <trkpt lat="47.16867" lon="-1.66399">
        <ele>81</ele>
        <time>2022-10-29T10:12:26Z</time>
      </trkpt>
      <trkpt lat="47.16869" lon="-1.66419">
        <ele>81</ele>
        <time>2022-10-29T10:12:28Z</time>
      </trkpt>
      <trkpt lat="47.16871" lon="-1.66439">
        <ele>81</ele>
        <time>2022-10-29T10:12:30Z</time>
      </trkpt>
      <trkpt lat="47.16874" lon="-1.66459">
        <ele>81</ele>
        <time>2022-10-29T10:12:32Z</time>
      </trkpt>
      <trkpt lat="47.16877" lon="-1.66479">
        <ele>81</ele>
        <time>2022-10-29T10:12:34Z</time>
      </trkpt>
      <trkpt lat="47.16879" lon="-1.66498">
        <ele>82</ele>
        <time>2022-10-29T10:12:36Z</time>
      </trkpt>
      <trkpt lat="47.16881" lon="-1.66517">
        <ele>82</ele>
        <time>2022-10-29T10:12:38Z</time>
      </trkpt>
      <trkpt lat="47.16883" lon="-1.66536">
        <ele>83</ele>
        <time>2022-10-29T10:12:40Z</time>
      </trkpt>
      <trkpt lat="47.16885" lon="-1.66556">
        <ele>82</ele>
        <time>2022-10-29T10:12:42Z</time>
      </trkpt>
      <trkpt lat="47.16887" lon="-1.66576">
        <ele>82</ele>
        <time>2022-10-29T10:12:44Z</time>
      </trkpt>
      <trkpt lat="47.16889" lon="-1.66595">
        <ele>82</ele>
        <time>2022-10-29T10:12:46Z</time>
      </trkpt>
      <trkpt lat="47.16891" lon="-1.66615">
        <ele>83</ele>
        <time>2022-10-29T10:12:48Z</time>
      </trkpt>
      <trkpt lat="47.16893" lon="-1.66634">
        <ele>83</ele>
        <time>2022-10-29T10:12:50Z</time>
      </trkpt>
      <trkpt lat="47.16894" lon="-1.66654">
        <ele>83</ele>
        <time>2022-10-29T10:12:52Z</time>
      </trkpt>
      <trkpt lat="47.16894" lon="-1.66675">
        <ele>83</ele>
        <time>2022-10-29T10:12:54Z</time>
      </trkpt>
      <trkpt lat="47.16891" lon="-1.66695">
        <ele>83</ele>
        <time>2022-10-29T10:12:56Z</time>
      </trkpt>
      <trkpt lat="47.16887" lon="-1.66714">
        <ele>83</ele>
        <time>2022-10-29T10:12:58Z</time>
      </trkpt>
      <trkpt lat="47.16881" lon="-1.66732">
        <ele>83</ele>
        <time>2022-10-29T10:13:00Z</time>
      </trkpt>
      <trkpt lat="47.16874" lon="-1.66751">
        <ele>83</ele>
        <time>2022-10-29T10:13:02Z</time>
      </trkpt>
      <trkpt lat="47.16866" lon="-1.66768">
        <ele>82</ele>
        <time>2022-10-29T10:13:04Z</time>
      </trkpt>
      <trkpt lat="47.16858" lon="-1.66784">
        <ele>83</ele>
        <time>2022-10-29T10:13:06Z</time>
      </trkpt>
      <trkpt lat="47.16849" lon="-1.66799">
        <ele>83</ele>
        <time>2022-10-29T10:13:08Z</time>
      </trkpt>
      <trkpt lat="47.16841" lon="-1.66816">
        <ele>84</ele>
        <time>2022-10-29T10:13:10Z</time>
      </trkpt>
      <trkpt lat="47.16833" lon="-1.66831">
        <ele>83</ele>
        <time>2022-10-29T10:13:12Z</time>
      </trkpt>
      <trkpt lat="47.16824" lon="-1.66848">
        <ele>83</ele>
        <time>2022-10-29T10:13:14Z</time>
      </trkpt>
      <trkpt lat="47.16815" lon="-1.66863">
        <ele>83</ele>
        <time>2022-10-29T10:13:16Z</time>
      </trkpt>
      <trkpt lat="47.16807" lon="-1.66878">
        <ele>83</ele>
        <time>2022-10-29T10:13:18Z</time>
      </trkpt>
      <trkpt lat="47.16797" lon="-1.66891">
        <ele>83</ele>
        <time>2022-10-29T10:13:20Z</time>
      </trkpt>
      <trkpt lat="47.16786" lon="-1.66901">
        <ele>84</ele>
        <time>2022-10-29T10:13:22Z</time>
      </trkpt>
      <trkpt lat="47.16774" lon="-1.66909">
        <ele>84</ele>
        <time>2022-10-29T10:13:24Z</time>
      </trkpt>
      <trkpt lat="47.16761" lon="-1.66915">
        <ele>85</ele>
        <time>2022-10-29T10:13:26Z</time>
      </trkpt>
      <trkpt lat="47.16749" lon="-1.66918">
        <ele>86</ele>
        <time>2022-10-29T10:13:28Z</time>
      </trkpt>
      <trkpt lat="47.16736" lon="-1.66923">
        <ele>86</ele>
        <time>2022-10-29T10:13:30Z</time>
      </trkpt>
      <trkpt lat="47.16723" lon="-1.66927">
        <ele>86</ele>
        <time>2022-10-29T10:13:32Z</time>
      </trkpt>
      <trkpt lat="47.16711" lon="-1.66931">
        <ele>86</ele>
        <time>2022-10-29T10:13:34Z</time>
      </trkpt>
      <trkpt lat="47.167" lon="-1.66937">
        <ele>87</ele>
        <time>2022-10-29T10:13:36Z</time>
      </trkpt>
      <trkpt lat="47.16691" lon="-1.66946">
        <ele>87</ele>
        <time>2022-10-29T10:13:38Z</time>
      </trkpt>
      <trkpt lat="47.1668" lon="-1.66961">
        <ele>86</ele>
        <time>2022-10-29T10:13:40Z</time>
      </trkpt>
      <trkpt lat="47.1667" lon="-1.66979">
        <ele>84</ele>
        <time>2022-10-29T10:13:42Z</time>
      </trkpt>
      <trkpt lat="47.16664" lon="-1.67">
        <ele>83</ele>
        <time>2022-10-29T10:13:44Z</time>
      </trkpt>
      <trkpt lat="47.16658" lon="-1.6702">
        <ele>83</ele>
        <time>2022-10-29T10:13:46Z</time>
      </trkpt>
      <trkpt lat="47.16655" lon="-1.6704">
        <ele>82</ele>
        <time>2022-10-29T10:13:48Z</time>
      </trkpt>
      <trkpt lat="47.1665" lon="-1.67061">
        <ele>82</ele>
        <time>2022-10-29T10:13:50Z</time>
      </trkpt>
      <trkpt lat="47.16646" lon="-1.6708">
        <ele>82</ele>
        <time>2022-10-29T10:13:52Z</time>
      </trkpt>
      <trkpt lat="47.16642" lon="-1.67099">
        <ele>81</ele>
        <time>2022-10-29T10:13:54Z</time>
      </trkpt>
      <trkpt lat="47.16638" lon="-1.67119">
        <ele>80</ele>
        <time>2022-10-29T10:13:56Z</time>
      </trkpt>
      <trkpt lat="47.16634" lon="-1.67138">
        <ele>80</ele>
        <time>2022-10-29T10:13:58Z</time>
      </trkpt>
      <trkpt lat="47.16631" lon="-1.67158">
        <ele>80</ele>
        <time>2022-10-29T10:14:00Z</time>
      </trkpt>
      <trkpt lat="47.16627" lon="-1.67178">
        <ele>80</ele>
        <time>2022-10-29T10:14:02Z</time>
      </trkpt>
      <trkpt lat="47.16624" lon="-1.67196">
        <ele>80</ele>
        <time>2022-10-29T10:14:04Z</time>
      </trkpt>
      <trkpt lat="47.16621" lon="-1.67213">
        <ele>80</ele>
        <time>2022-10-29T10:14:06Z</time>
      </trkpt>
      <trkpt lat="47.16618" lon="-1.6723">
        <ele>80</ele>
        <time>2022-10-29T10:14:08Z</time>
      </trkpt>
      <trkpt lat="47.16615" lon="-1.67245">
        <ele>80</ele>
        <time>2022-10-29T10:14:10Z</time>
      </trkpt>
      <trkpt lat="47.16616" lon="-1.67262">
        <ele>81</ele>
        <time>2022-10-29T10:14:13Z</time>
      </trkpt>
      <trkpt lat="47.16626" lon="-1.67265">
        <ele>80</ele>
        <time>2022-10-29T10:14:15Z</time>
      </trkpt>
      <trkpt lat="47.16638" lon="-1.67267">
        <ele>81</ele>
        <time>2022-10-29T10:14:17Z</time>
      </trkpt>
      <trkpt lat="47.1665" lon="-1.67271">
        <ele>81</ele>
        <time>2022-10-29T10:14:19Z</time>
      </trkpt>
      <trkpt lat="47.16663" lon="-1.67275">
        <ele>81</ele>
        <time>2022-10-29T10:14:21Z</time>
      </trkpt>
      <trkpt lat="47.16676" lon="-1.6728">
        <ele>82</ele>
        <time>2022-10-29T10:14:23Z</time>
      </trkpt>
      <trkpt lat="47.16689" lon="-1.67285">
        <ele>82</ele>
        <time>2022-10-29T10:14:25Z</time>
      </trkpt>
      <trkpt lat="47.16702" lon="-1.6729">
        <ele>83</ele>
        <time>2022-10-29T10:14:27Z</time>
      </trkpt>
      <trkpt lat="47.16715" lon="-1.67297">
        <ele>83</ele>
        <time>2022-10-29T10:14:29Z</time>
      </trkpt>
      <trkpt lat="47.16728" lon="-1.67305">
        <ele>84</ele>
        <time>2022-10-29T10:14:31Z</time>
      </trkpt>
      <trkpt lat="47.1674" lon="-1.67314">
        <ele>84</ele>
        <time>2022-10-29T10:14:33Z</time>
      </trkpt>
      <trkpt lat="47.16751" lon="-1.67322">
        <ele>84</ele>
        <time>2022-10-29T10:14:35Z</time>
      </trkpt>
      <trkpt lat="47.16763" lon="-1.67332">
        <ele>84</ele>
        <time>2022-10-29T10:14:37Z</time>
      </trkpt>
      <trkpt lat="47.16774" lon="-1.67344">
        <ele>84</ele>
        <time>2022-10-29T10:14:39Z</time>
      </trkpt>
      <trkpt lat="47.16785" lon="-1.67356">
        <ele>85</ele>
        <time>2022-10-29T10:14:41Z</time>
      </trkpt>
      <trkpt lat="47.16796" lon="-1.67367">
        <ele>85</ele>
        <time>2022-10-29T10:14:43Z</time>
      </trkpt>
      <trkpt lat="47.16808" lon="-1.6738">
        <ele>85</ele>
        <time>2022-10-29T10:14:45Z</time>
      </trkpt>
      <trkpt lat="47.16819" lon="-1.67393">
        <ele>85</ele>
        <time>2022-10-29T10:14:47Z</time>
      </trkpt>
      <trkpt lat="47.16831" lon="-1.67406">
        <ele>84</ele>
        <time>2022-10-29T10:14:49Z</time>
      </trkpt>
      <trkpt lat="47.16843" lon="-1.6742">
        <ele>85</ele>
        <time>2022-10-29T10:14:51Z</time>
      </trkpt>
      <trkpt lat="47.16855" lon="-1.67436">
        <ele>85</ele>
        <time>2022-10-29T10:14:53Z</time>
      </trkpt>
      <trkpt lat="47.16867" lon="-1.6745">
        <ele>84</ele>
        <time>2022-10-29T10:14:55Z</time>
      </trkpt>
      <trkpt lat="47.16879" lon="-1.67464">
        <ele>84</ele>
        <time>2022-10-29T10:14:57Z</time>
      </trkpt>
      <trkpt lat="47.16891" lon="-1.67478">
        <ele>85</ele>
        <time>2022-10-29T10:14:59Z</time>
      </trkpt>
      <trkpt lat="47.16903" lon="-1.67493">
        <ele>85</ele>
        <time>2022-10-29T10:15:01Z</time>
      </trkpt>
      <trkpt lat="47.16914" lon="-1.67507">
        <ele>85</ele>
        <time>2022-10-29T10:15:03Z</time>
      </trkpt>
      <trkpt lat="47.16927" lon="-1.67521">
        <ele>84</ele>
        <time>2022-10-29T10:15:05Z</time>
      </trkpt>
      <trkpt lat="47.16938" lon="-1.67535">
        <ele>85</ele>
        <time>2022-10-29T10:15:07Z</time>
      </trkpt>
      <trkpt lat="47.1695" lon="-1.67547">
        <ele>85</ele>
        <time>2022-10-29T10:15:09Z</time>
      </trkpt>
      <trkpt lat="47.16962" lon="-1.67559">
        <ele>85</ele>
        <time>2022-10-29T10:15:11Z</time>
      </trkpt>
      <trkpt lat="47.16973" lon="-1.67572">
        <ele>84</ele>
        <time>2022-10-29T10:15:13Z</time>
      </trkpt>
      <trkpt lat="47.16985" lon="-1.67586">
        <ele>85</ele>
        <time>2022-10-29T10:15:15Z</time>
      </trkpt>
      <trkpt lat="47.16996" lon="-1.676">
        <ele>85</ele>
        <time>2022-10-29T10:15:17Z</time>
      </trkpt>
      <trkpt lat="47.17008" lon="-1.67615">
        <ele>86</ele>
        <time>2022-10-29T10:15:19Z</time>
      </trkpt>
      <trkpt lat="47.17027" lon="-1.67637">
        <ele>85</ele>
        <time>2022-10-29T10:15:22Z</time>
      </trkpt>
      <trkpt lat="47.17038" lon="-1.6765">
        <ele>86</ele>
        <time>2022-10-29T10:15:24Z</time>
      </trkpt>
      <trkpt lat="47.17048" lon="-1.67665">
        <ele>85</ele>
        <time>2022-10-29T10:15:26Z</time>
      </trkpt>
      <trkpt lat="47.1706" lon="-1.67677">
        <ele>85</ele>
        <time>2022-10-29T10:15:28Z</time>
      </trkpt>
      <trkpt lat="47.17072" lon="-1.67691">
        <ele>85</ele>
        <time>2022-10-29T10:15:30Z</time>
      </trkpt>
      <trkpt lat="47.17083" lon="-1.67704">
        <ele>85</ele>
        <time>2022-10-29T10:15:32Z</time>
      </trkpt>
      <trkpt lat="47.17095" lon="-1.67718">
        <ele>85</ele>
        <time>2022-10-29T10:15:34Z</time>
      </trkpt>
      <trkpt lat="47.17106" lon="-1.67731">
        <ele>85</ele>
        <time>2022-10-29T10:15:36Z</time>
      </trkpt>
      <trkpt lat="47.17117" lon="-1.67744">
        <ele>85</ele>
        <time>2022-10-29T10:15:38Z</time>
      </trkpt>
      <trkpt lat="47.17129" lon="-1.67757">
        <ele>85</ele>
        <time>2022-10-29T10:15:40Z</time>
      </trkpt>
      <trkpt lat="47.17141" lon="-1.67769">
        <ele>85</ele>
        <time>2022-10-29T10:15:42Z</time>
      </trkpt>
      <trkpt lat="47.17152" lon="-1.67783">
        <ele>86</ele>
        <time>2022-10-29T10:15:44Z</time>
      </trkpt>
      <trkpt lat="47.17163" lon="-1.67797">
        <ele>86</ele>
        <time>2022-10-29T10:15:46Z</time>
      </trkpt>
      <trkpt lat="47.17175" lon="-1.6781">
        <ele>87</ele>
        <time>2022-10-29T10:15:48Z</time>
      </trkpt>
      <trkpt lat="47.17187" lon="-1.67824">
        <ele>86</ele>
        <time>2022-10-29T10:15:50Z</time>
      </trkpt>
      <trkpt lat="47.17199" lon="-1.67837">
        <ele>86</ele>
        <time>2022-10-29T10:15:52Z</time>
      </trkpt>
      <trkpt lat="47.1721" lon="-1.67851">
        <ele>86</ele>
        <time>2022-10-29T10:15:54Z</time>
      </trkpt>
      <trkpt lat="47.17221" lon="-1.67863">
        <ele>87</ele>
        <time>2022-10-29T10:15:56Z</time>
      </trkpt>
      <trkpt lat="47.17232" lon="-1.67876">
        <ele>87</ele>
        <time>2022-10-29T10:15:58Z</time>
      </trkpt>
      <trkpt lat="47.17243" lon="-1.6789">
        <ele>86</ele>
        <time>2022-10-29T10:16:00Z</time>
      </trkpt>
      <trkpt lat="47.17254" lon="-1.67904">
        <ele>86</ele>
        <time>2022-10-29T10:16:02Z</time>
      </trkpt>
      <trkpt lat="47.17266" lon="-1.67917">
        <ele>87</ele>
        <time>2022-10-29T10:16:04Z</time>
      </trkpt>
      <trkpt lat="47.17277" lon="-1.6793">
        <ele>86</ele>
        <time>2022-10-29T10:16:06Z</time>
      </trkpt>
      <trkpt lat="47.17288" lon="-1.67943">
        <ele>86</ele>
        <time>2022-10-29T10:16:08Z</time>
      </trkpt>
      <trkpt lat="47.17299" lon="-1.67955">
        <ele>86</ele>
        <time>2022-10-29T10:16:10Z</time>
      </trkpt>
      <trkpt lat="47.1731" lon="-1.6797">
        <ele>86</ele>
        <time>2022-10-29T10:16:12Z</time>
      </trkpt>
      <trkpt lat="47.17321" lon="-1.67985">
        <ele>87</ele>
        <time>2022-10-29T10:16:14Z</time>
      </trkpt>
      <trkpt lat="47.1733" lon="-1.68003">
        <ele>86</ele>
        <time>2022-10-29T10:16:16Z</time>
      </trkpt>
      <trkpt lat="47.17338" lon="-1.68022">
        <ele>87</ele>
        <time>2022-10-29T10:16:18Z</time>
      </trkpt>
      <trkpt lat="47.17343" lon="-1.68043">
        <ele>87</ele>
        <time>2022-10-29T10:16:20Z</time>
      </trkpt>
      <trkpt lat="47.17348" lon="-1.68064">
        <ele>86</ele>
        <time>2022-10-29T10:16:22Z</time>
      </trkpt>
      <trkpt lat="47.17352" lon="-1.68085">
        <ele>86</ele>
        <time>2022-10-29T10:16:24Z</time>
      </trkpt>
      <trkpt lat="47.17356" lon="-1.68105">
        <ele>86</ele>
        <time>2022-10-29T10:16:26Z</time>
      </trkpt>
      <trkpt lat="47.1736" lon="-1.68125">
        <ele>86</ele>
        <time>2022-10-29T10:16:28Z</time>
      </trkpt>
      <trkpt lat="47.17362" lon="-1.68146">
        <ele>86</ele>
        <time>2022-10-29T10:16:30Z</time>
      </trkpt>
      <trkpt lat="47.17363" lon="-1.68167">
        <ele>86</ele>
        <time>2022-10-29T10:16:32Z</time>
      </trkpt>
      <trkpt lat="47.17361" lon="-1.68188">
        <ele>86</ele>
        <time>2022-10-29T10:16:34Z</time>
      </trkpt>
      <trkpt lat="47.17358" lon="-1.68209">
        <ele>86</ele>
        <time>2022-10-29T10:16:36Z</time>
      </trkpt>
      <trkpt lat="47.17354" lon="-1.68228">
        <ele>86</ele>
        <time>2022-10-29T10:16:38Z</time>
      </trkpt>
      <trkpt lat="47.1735" lon="-1.68246">
        <ele>86</ele>
        <time>2022-10-29T10:16:40Z</time>
      </trkpt>
      <trkpt lat="47.17347" lon="-1.68263">
        <ele>86</ele>
        <time>2022-10-29T10:16:42Z</time>
      </trkpt>
      <trkpt lat="47.17343" lon="-1.68279">
        <ele>87</ele>
        <time>2022-10-29T10:16:44Z</time>
      </trkpt>
      <trkpt lat="47.17339" lon="-1.68296">
        <ele>87</ele>
        <time>2022-10-29T10:16:46Z</time>
      </trkpt>
      <trkpt lat="47.17336" lon="-1.68311">
        <ele>88</ele>
        <time>2022-10-29T10:16:48Z</time>
      </trkpt>
      <trkpt lat="47.17333" lon="-1.68326">
        <ele>88</ele>
        <time>2022-10-29T10:16:50Z</time>
      </trkpt>
      <trkpt lat="47.1733" lon="-1.68341">
        <ele>89</ele>
        <time>2022-10-29T10:16:52Z</time>
      </trkpt>
      <trkpt lat="47.17331" lon="-1.68356">
        <ele>90</ele>
        <time>2022-10-29T10:16:54Z</time>
      </trkpt>
      <trkpt lat="47.17337" lon="-1.68367">
        <ele>90</ele>
        <time>2022-10-29T10:16:56Z</time>
      </trkpt>
      <trkpt lat="47.17347" lon="-1.68373">
        <ele>91</ele>
        <time>2022-10-29T10:16:58Z</time>
      </trkpt>
      <trkpt lat="47.17357" lon="-1.68373">
        <ele>91</ele>
        <time>2022-10-29T10:17:00Z</time>
      </trkpt>
      <trkpt lat="47.17369" lon="-1.68374">
        <ele>91</ele>
        <time>2022-10-29T10:17:02Z</time>
      </trkpt>
      <trkpt lat="47.17378" lon="-1.68383">
        <ele>92</ele>
        <time>2022-10-29T10:17:04Z</time>
      </trkpt>
      <trkpt lat="47.1738" lon="-1.68401">
        <ele>91</ele>
        <time>2022-10-29T10:17:06Z</time>
      </trkpt>
      <trkpt lat="47.17374" lon="-1.68415">
        <ele>91</ele>
        <time>2022-10-29T10:17:08Z</time>
      </trkpt>
      <trkpt lat="47.17366" lon="-1.68426">
        <ele>92</ele>
        <time>2022-10-29T10:17:10Z</time>
      </trkpt>
      <trkpt lat="47.1736" lon="-1.6844">
        <ele>91</ele>
        <time>2022-10-29T10:17:12Z</time>
      </trkpt>
      <trkpt lat="47.17362" lon="-1.68457">
        <ele>91</ele>
        <time>2022-10-29T10:17:14Z</time>
      </trkpt>
      <trkpt lat="47.17372" lon="-1.6847">
        <ele>91</ele>
        <time>2022-10-29T10:17:16Z</time>
      </trkpt>
      <trkpt lat="47.17383" lon="-1.68485">
        <ele>91</ele>
        <time>2022-10-29T10:17:18Z</time>
      </trkpt>
      <trkpt lat="47.17394" lon="-1.685">
        <ele>91</ele>
        <time>2022-10-29T10:17:20Z</time>
      </trkpt>
      <trkpt lat="47.17405" lon="-1.68516">
        <ele>91</ele>
        <time>2022-10-29T10:17:22Z</time>
      </trkpt>
      <trkpt lat="47.17415" lon="-1.68533">
        <ele>90</ele>
        <time>2022-10-29T10:17:24Z</time>
      </trkpt>
      <trkpt lat="47.17425" lon="-1.68552">
        <ele>89</ele>
        <time>2022-10-29T10:17:26Z</time>
      </trkpt>
      <trkpt lat="47.17435" lon="-1.68572">
        <ele>89</ele>
        <time>2022-10-29T10:17:28Z</time>
      </trkpt>
      <trkpt lat="47.17445" lon="-1.68593">
        <ele>88</ele>
        <time>2022-10-29T10:17:30Z</time>
      </trkpt>
      <trkpt lat="47.17452" lon="-1.68614">
        <ele>88</ele>
        <time>2022-10-29T10:17:32Z</time>
      </trkpt>
      <trkpt lat="47.17459" lon="-1.68635">
        <ele>86</ele>
        <time>2022-10-29T10:17:34Z</time>
      </trkpt>
      <trkpt lat="47.17466" lon="-1.68655">
        <ele>86</ele>
        <time>2022-10-29T10:17:36Z</time>
      </trkpt>
      <trkpt lat="47.17473" lon="-1.68676">
        <ele>85</ele>
        <time>2022-10-29T10:17:38Z</time>
      </trkpt>
      <trkpt lat="47.17478" lon="-1.68697">
        <ele>85</ele>
        <time>2022-10-29T10:17:40Z</time>
      </trkpt>
      <trkpt lat="47.17483" lon="-1.68718">
        <ele>85</ele>
        <time>2022-10-29T10:17:42Z</time>
      </trkpt>
      <trkpt lat="47.17487" lon="-1.68739">
        <ele>84</ele>
        <time>2022-10-29T10:17:44Z</time>
      </trkpt>
      <trkpt lat="47.17491" lon="-1.6876">
        <ele>84</ele>
        <time>2022-10-29T10:17:46Z</time>
      </trkpt>
      <trkpt lat="47.17495" lon="-1.68781">
        <ele>83</ele>
        <time>2022-10-29T10:17:48Z</time>
      </trkpt>
      <trkpt lat="47.17499" lon="-1.68801">
        <ele>84</ele>
        <time>2022-10-29T10:17:50Z</time>
      </trkpt>
      <trkpt lat="47.17503" lon="-1.68821">
        <ele>83</ele>
        <time>2022-10-29T10:17:52Z</time>
      </trkpt>
      <trkpt lat="47.17507" lon="-1.68841">
        <ele>83</ele>
        <time>2022-10-29T10:17:54Z</time>
      </trkpt>
      <trkpt lat="47.1751" lon="-1.68863">
        <ele>83</ele>
        <time>2022-10-29T10:17:56Z</time>
      </trkpt>
      <trkpt lat="47.1751" lon="-1.68884">
        <ele>83</ele>
        <time>2022-10-29T10:17:58Z</time>
      </trkpt>
      <trkpt lat="47.17508" lon="-1.68905">
        <ele>83</ele>
        <time>2022-10-29T10:18:00Z</time>
      </trkpt>
      <trkpt lat="47.17506" lon="-1.68927">
        <ele>82</ele>
        <time>2022-10-29T10:18:02Z</time>
      </trkpt>
      <trkpt lat="47.17505" lon="-1.68948">
        <ele>82</ele>
        <time>2022-10-29T10:18:04Z</time>
      </trkpt>
      <trkpt lat="47.17505" lon="-1.6897">
        <ele>82</ele>
        <time>2022-10-29T10:18:06Z</time>
      </trkpt>
      <trkpt lat="47.17506" lon="-1.68991">
        <ele>81</ele>
        <time>2022-10-29T10:18:08Z</time>
      </trkpt>
      <trkpt lat="47.17507" lon="-1.69012">
        <ele>82</ele>
        <time>2022-10-29T10:18:10Z</time>
      </trkpt>
      <trkpt lat="47.17508" lon="-1.69033">
        <ele>81</ele>
        <time>2022-10-29T10:18:12Z</time>
      </trkpt>
      <trkpt lat="47.17509" lon="-1.69055">
        <ele>81</ele>
        <time>2022-10-29T10:18:14Z</time>
      </trkpt>
      <trkpt lat="47.17509" lon="-1.69075">
        <ele>81</ele>
        <time>2022-10-29T10:18:16Z</time>
      </trkpt>
      <trkpt lat="47.17508" lon="-1.69095">
        <ele>81</ele>
        <time>2022-10-29T10:18:18Z</time>
      </trkpt>
      <trkpt lat="47.17508" lon="-1.69116">
        <ele>82</ele>
        <time>2022-10-29T10:18:20Z</time>
      </trkpt>
      <trkpt lat="47.17508" lon="-1.69137">
        <ele>82</ele>
        <time>2022-10-29T10:18:22Z</time>
      </trkpt>
      <trkpt lat="47.17507" lon="-1.69158">
        <ele>81</ele>
        <time>2022-10-29T10:18:24Z</time>
      </trkpt>
      <trkpt lat="47.17506" lon="-1.69179">
        <ele>82</ele>
        <time>2022-10-29T10:18:26Z</time>
      </trkpt>
      <trkpt lat="47.17504" lon="-1.69199">
        <ele>82</ele>
        <time>2022-10-29T10:18:28Z</time>
      </trkpt>
      <trkpt lat="47.17503" lon="-1.6922">
        <ele>81</ele>
        <time>2022-10-29T10:18:30Z</time>
      </trkpt>
      <trkpt lat="47.17502" lon="-1.69241">
        <ele>81</ele>
        <time>2022-10-29T10:18:32Z</time>
      </trkpt>
      <trkpt lat="47.17501" lon="-1.69261">
        <ele>81</ele>
        <time>2022-10-29T10:18:34Z</time>
      </trkpt>
      <trkpt lat="47.175" lon="-1.69282">
        <ele>82</ele>
        <time>2022-10-29T10:18:36Z</time>
      </trkpt>
      <trkpt lat="47.175" lon="-1.69303">
        <ele>81</ele>
        <time>2022-10-29T10:18:38Z</time>
      </trkpt>
      <trkpt lat="47.175" lon="-1.69323">
        <ele>81</ele>
        <time>2022-10-29T10:18:40Z</time>
      </trkpt>
      <trkpt lat="47.17499" lon="-1.69344">
        <ele>80</ele>
        <time>2022-10-29T10:18:42Z</time>
      </trkpt>
      <trkpt lat="47.17499" lon="-1.69364">
        <ele>80</ele>
        <time>2022-10-29T10:18:44Z</time>
      </trkpt>
      <trkpt lat="47.17499" lon="-1.69385">
        <ele>80</ele>
        <time>2022-10-29T10:18:46Z</time>
      </trkpt>
      <trkpt lat="47.17498" lon="-1.69406">
        <ele>80</ele>
        <time>2022-10-29T10:18:48Z</time>
      </trkpt>
      <trkpt lat="47.17499" lon="-1.69426">
        <ele>79</ele>
        <time>2022-10-29T10:18:50Z</time>
      </trkpt>
      <trkpt lat="47.17499" lon="-1.69456">
        <ele>79</ele>
        <time>2022-10-29T10:18:53Z</time>
      </trkpt>
      <trkpt lat="47.17499" lon="-1.69476">
        <ele>79</ele>
        <time>2022-10-29T10:18:55Z</time>
      </trkpt>
      <trkpt lat="47.175" lon="-1.69496">
        <ele>79</ele>
        <time>2022-10-29T10:18:57Z</time>
      </trkpt>
      <trkpt lat="47.175" lon="-1.69517">
        <ele>79</ele>
        <time>2022-10-29T10:18:59Z</time>
      </trkpt>
      <trkpt lat="47.17501" lon="-1.69538">
        <ele>79</ele>
        <time>2022-10-29T10:19:01Z</time>
      </trkpt>
      <trkpt lat="47.17502" lon="-1.69559">
        <ele>79</ele>
        <time>2022-10-29T10:19:03Z</time>
      </trkpt>
      <trkpt lat="47.17503" lon="-1.6958">
        <ele>79</ele>
        <time>2022-10-29T10:19:05Z</time>
      </trkpt>
      <trkpt lat="47.17505" lon="-1.696">
        <ele>79</ele>
        <time>2022-10-29T10:19:07Z</time>
      </trkpt>
      <trkpt lat="47.17507" lon="-1.6962">
        <ele>78</ele>
        <time>2022-10-29T10:19:09Z</time>
      </trkpt>
      <trkpt lat="47.17509" lon="-1.69651">
        <ele>78</ele>
        <time>2022-10-29T10:19:12Z</time>
      </trkpt>
      <trkpt lat="47.17511" lon="-1.69671">
        <ele>78</ele>
        <time>2022-10-29T10:19:14Z</time>
      </trkpt>
      <trkpt lat="47.17513" lon="-1.69692">
        <ele>78</ele>
        <time>2022-10-29T10:19:16Z</time>
      </trkpt>
      <trkpt lat="47.17515" lon="-1.69712">
        <ele>78</ele>
        <time>2022-10-29T10:19:18Z</time>
      </trkpt>
      <trkpt lat="47.17518" lon="-1.69743">
        <ele>78</ele>
        <time>2022-10-29T10:19:21Z</time>
      </trkpt>
      <trkpt lat="47.17521" lon="-1.69774">
        <ele>78</ele>
        <time>2022-10-29T10:19:24Z</time>
      </trkpt>
      <trkpt lat="47.17522" lon="-1.69794">
        <ele>78</ele>
        <time>2022-10-29T10:19:26Z</time>
      </trkpt>
      <trkpt lat="47.17525" lon="-1.69815">
        <ele>77</ele>
        <time>2022-10-29T10:19:28Z</time>
      </trkpt>
      <trkpt lat="47.17527" lon="-1.69836">
        <ele>77</ele>
        <time>2022-10-29T10:19:30Z</time>
      </trkpt>
      <trkpt lat="47.17531" lon="-1.69866">
        <ele>78</ele>
        <time>2022-10-29T10:19:33Z</time>
      </trkpt>
      <trkpt lat="47.17534" lon="-1.69886">
        <ele>78</ele>
        <time>2022-10-29T10:19:35Z</time>
      </trkpt>
      <trkpt lat="47.17537" lon="-1.69906">
        <ele>78</ele>
        <time>2022-10-29T10:19:37Z</time>
      </trkpt>
      <trkpt lat="47.17541" lon="-1.69926">
        <ele>78</ele>
        <time>2022-10-29T10:19:39Z</time>
      </trkpt>
      <trkpt lat="47.17545" lon="-1.69946">
        <ele>78</ele>
        <time>2022-10-29T10:19:41Z</time>
      </trkpt>
      <trkpt lat="47.17549" lon="-1.69966">
        <ele>78</ele>
        <time>2022-10-29T10:19:43Z</time>
      </trkpt>
      <trkpt lat="47.17553" lon="-1.69985">
        <ele>78</ele>
        <time>2022-10-29T10:19:45Z</time>
      </trkpt>
      <trkpt lat="47.17558" lon="-1.70005">
        <ele>79</ele>
        <time>2022-10-29T10:19:47Z</time>
      </trkpt>
      <trkpt lat="47.17562" lon="-1.70026">
        <ele>79</ele>
        <time>2022-10-29T10:19:49Z</time>
      </trkpt>
      <trkpt lat="47.17567" lon="-1.70046">
        <ele>79</ele>
        <time>2022-10-29T10:19:51Z</time>
      </trkpt>
      <trkpt lat="47.17571" lon="-1.70066">
        <ele>79</ele>
        <time>2022-10-29T10:19:53Z</time>
      </trkpt>
      <trkpt lat="47.17575" lon="-1.70086">
        <ele>79</ele>
        <time>2022-10-29T10:19:55Z</time>
      </trkpt>
      <trkpt lat="47.1758" lon="-1.70106">
        <ele>80</ele>
        <time>2022-10-29T10:19:57Z</time>
      </trkpt>
      <trkpt lat="47.17584" lon="-1.70127">
        <ele>80</ele>
        <time>2022-10-29T10:19:59Z</time>
      </trkpt>
      <trkpt lat="47.17588" lon="-1.70147">
        <ele>80</ele>
        <time>2022-10-29T10:20:01Z</time>
      </trkpt>
      <trkpt lat="47.17591" lon="-1.70166">
        <ele>80</ele>
        <time>2022-10-29T10:20:03Z</time>
      </trkpt>
      <trkpt lat="47.17596" lon="-1.70188">
        <ele>80</ele>
        <time>2022-10-29T10:20:05Z</time>
      </trkpt>
      <trkpt lat="47.17598" lon="-1.70208">
        <ele>80</ele>
        <time>2022-10-29T10:20:07Z</time>
      </trkpt>
      <trkpt lat="47.176" lon="-1.70229">
        <ele>80</ele>
        <time>2022-10-29T10:20:09Z</time>
      </trkpt>
      <trkpt lat="47.176" lon="-1.7025">
        <ele>80</ele>
        <time>2022-10-29T10:20:11Z</time>
      </trkpt>
      <trkpt lat="47.17598" lon="-1.70271">
        <ele>80</ele>
        <time>2022-10-29T10:20:13Z</time>
      </trkpt>
      <trkpt lat="47.17594" lon="-1.7029">
        <ele>80</ele>
        <time>2022-10-29T10:20:15Z</time>
      </trkpt>
      <trkpt lat="47.17589" lon="-1.70308">
        <ele>80</ele>
        <time>2022-10-29T10:20:17Z</time>
      </trkpt>
      <trkpt lat="47.17582" lon="-1.70325">
        <ele>81</ele>
        <time>2022-10-29T10:20:19Z</time>
      </trkpt>
      <trkpt lat="47.17576" lon="-1.70341">
        <ele>81</ele>
        <time>2022-10-29T10:20:21Z</time>
      </trkpt>
      <trkpt lat="47.17572" lon="-1.70358">
        <ele>81</ele>
        <time>2022-10-29T10:20:23Z</time>
      </trkpt>
      <trkpt lat="47.17574" lon="-1.70373">
        <ele>81</ele>
        <time>2022-10-29T10:20:25Z</time>
      </trkpt>
      <trkpt lat="47.17583" lon="-1.70383">
        <ele>82</ele>
        <time>2022-10-29T10:20:27Z</time>
      </trkpt>
      <trkpt lat="47.17595" lon="-1.70385">
        <ele>83</ele>
        <time>2022-10-29T10:20:29Z</time>
      </trkpt>
      <trkpt lat="47.17607" lon="-1.70385">
        <ele>82</ele>
        <time>2022-10-29T10:20:31Z</time>
      </trkpt>
      <trkpt lat="47.17618" lon="-1.70395">
        <ele>83</ele>
        <time>2022-10-29T10:20:33Z</time>
      </trkpt>
      <trkpt lat="47.17622" lon="-1.70412">
        <ele>82</ele>
        <time>2022-10-29T10:20:35Z</time>
      </trkpt>
      <trkpt lat="47.1762" lon="-1.70431">
        <ele>82</ele>
        <time>2022-10-29T10:20:37Z</time>
      </trkpt>
      <trkpt lat="47.17614" lon="-1.70449">
        <ele>81</ele>
        <time>2022-10-29T10:20:39Z</time>
      </trkpt>
      <trkpt lat="47.17617" lon="-1.70468">
        <ele>81</ele>
        <time>2022-10-29T10:20:41Z</time>
      </trkpt>
      <trkpt lat="47.17626" lon="-1.70486">
        <ele>80</ele>
        <time>2022-10-29T10:20:43Z</time>
      </trkpt>
      <trkpt lat="47.17636" lon="-1.70502">
        <ele>80</ele>
        <time>2022-10-29T10:20:45Z</time>
      </trkpt>
      <trkpt lat="47.17649" lon="-1.70516">
        <ele>79</ele>
        <time>2022-10-29T10:20:47Z</time>
      </trkpt>
      <trkpt lat="47.17663" lon="-1.70529">
        <ele>79</ele>
        <time>2022-10-29T10:20:49Z</time>
      </trkpt>
      <trkpt lat="47.17677" lon="-1.70541">
        <ele>79</ele>
        <time>2022-10-29T10:20:51Z</time>
      </trkpt>
      <trkpt lat="47.17691" lon="-1.70554">
        <ele>79</ele>
        <time>2022-10-29T10:20:53Z</time>
      </trkpt>
      <trkpt lat="47.17705" lon="-1.70568">
        <ele>79</ele>
        <time>2022-10-29T10:20:55Z</time>
      </trkpt>
      <trkpt lat="47.17717" lon="-1.70583">
        <ele>79</ele>
        <time>2022-10-29T10:20:57Z</time>
      </trkpt>
      <trkpt lat="47.17728" lon="-1.706">
        <ele>78</ele>
        <time>2022-10-29T10:20:59Z</time>
      </trkpt>
      <trkpt lat="47.17737" lon="-1.70619">
        <ele>78</ele>
        <time>2022-10-29T10:21:01Z</time>
      </trkpt>
      <trkpt lat="47.17745" lon="-1.70639">
        <ele>78</ele>
        <time>2022-10-29T10:21:03Z</time>
      </trkpt>
      <trkpt lat="47.17752" lon="-1.70661">
        <ele>78</ele>
        <time>2022-10-29T10:21:05Z</time>
      </trkpt>
      <trkpt lat="47.17759" lon="-1.70681">
        <ele>78</ele>
        <time>2022-10-29T10:21:07Z</time>
      </trkpt>
      <trkpt lat="47.17766" lon="-1.70702">
        <ele>78</ele>
        <time>2022-10-29T10:21:09Z</time>
      </trkpt>
      <trkpt lat="47.17774" lon="-1.70723">
        <ele>78</ele>
        <time>2022-10-29T10:21:11Z</time>
      </trkpt>
      <trkpt lat="47.17781" lon="-1.70743">
        <ele>78</ele>
        <time>2022-10-29T10:21:13Z</time>
      </trkpt>
      <trkpt lat="47.17787" lon="-1.70763">
        <ele>78</ele>
        <time>2022-10-29T10:21:15Z</time>
      </trkpt>
      <trkpt lat="47.17794" lon="-1.70783">
        <ele>78</ele>
        <time>2022-10-29T10:21:17Z</time>
      </trkpt>
      <trkpt lat="47.178" lon="-1.70804">
        <ele>78</ele>
        <time>2022-10-29T10:21:19Z</time>
      </trkpt>
      <trkpt lat="47.17807" lon="-1.70823">
        <ele>78</ele>
        <time>2022-10-29T10:21:21Z</time>
      </trkpt>
      <trkpt lat="47.17814" lon="-1.70843">
        <ele>78</ele>
        <time>2022-10-29T10:21:23Z</time>
      </trkpt>
      <trkpt lat="47.1782" lon="-1.70862">
        <ele>79</ele>
        <time>2022-10-29T10:21:25Z</time>
      </trkpt>
      <trkpt lat="47.17827" lon="-1.70881">
        <ele>79</ele>
        <time>2022-10-29T10:21:27Z</time>
      </trkpt>
      <trkpt lat="47.17833" lon="-1.709">
        <ele>79</ele>
        <time>2022-10-29T10:21:29Z</time>
      </trkpt>
      <trkpt lat="47.1784" lon="-1.7092">
        <ele>79</ele>
        <time>2022-10-29T10:21:31Z</time>
      </trkpt>
      <trkpt lat="47.17846" lon="-1.70938">
        <ele>79</ele>
        <time>2022-10-29T10:21:33Z</time>
      </trkpt>
      <trkpt lat="47.17853" lon="-1.70958">
        <ele>79</ele>
        <time>2022-10-29T10:21:35Z</time>
      </trkpt>
      <trkpt lat="47.17862" lon="-1.70976">
        <ele>79</ele>
        <time>2022-10-29T10:21:37Z</time>
      </trkpt>
      <trkpt lat="47.17871" lon="-1.70993">
        <ele>79</ele>
        <time>2022-10-29T10:21:39Z</time>
      </trkpt>
      <trkpt lat="47.1788" lon="-1.7101">
        <ele>79</ele>
        <time>2022-10-29T10:21:41Z</time>
      </trkpt>
      <trkpt lat="47.17887" lon="-1.71031">
        <ele>78</ele>
        <time>2022-10-29T10:21:43Z</time>
      </trkpt>
      <trkpt lat="47.17893" lon="-1.71051">
        <ele>78</ele>
        <time>2022-10-29T10:21:45Z</time>
      </trkpt>
      <trkpt lat="47.17899" lon="-1.71072">
        <ele>78</ele>
        <time>2022-10-29T10:21:47Z</time>
      </trkpt>
      <trkpt lat="47.17906" lon="-1.71093">
        <ele>78</ele>
        <time>2022-10-29T10:21:49Z</time>
      </trkpt>
      <trkpt lat="47.17912" lon="-1.71114">
        <ele>78</ele>
        <time>2022-10-29T10:21:51Z</time>
      </trkpt>
      <trkpt lat="47.17919" lon="-1.71135">
        <ele>78</ele>
        <time>2022-10-29T10:21:53Z</time>
      </trkpt>
      <trkpt lat="47.17924" lon="-1.71157">
        <ele>78</ele>
        <time>2022-10-29T10:21:55Z</time>
      </trkpt>
      <trkpt lat="47.17928" lon="-1.7118">
        <ele>78</ele>
        <time>2022-10-29T10:21:57Z</time>
      </trkpt>
      <trkpt lat="47.17932" lon="-1.71203">
        <ele>78</ele>
        <time>2022-10-29T10:21:59Z</time>
      </trkpt>
      <trkpt lat="47.17938" lon="-1.71224">
        <ele>78</ele>
        <time>2022-10-29T10:22:01Z</time>
      </trkpt>
      <trkpt lat="47.17945" lon="-1.71246">
        <ele>78</ele>
        <time>2022-10-29T10:22:03Z</time>
      </trkpt>
      <trkpt lat="47.17952" lon="-1.71267">
        <ele>78</ele>
        <time>2022-10-29T10:22:05Z</time>
      </trkpt>
      <trkpt lat="47.17959" lon="-1.71289">
        <ele>78</ele>
        <time>2022-10-29T10:22:07Z</time>
      </trkpt>
      <trkpt lat="47.17965" lon="-1.71309">
        <ele>77</ele>
        <time>2022-10-29T10:22:09Z</time>
      </trkpt>
      <trkpt lat="47.17972" lon="-1.71329">
        <ele>78</ele>
        <time>2022-10-29T10:22:11Z</time>
      </trkpt>
      <trkpt lat="47.17978" lon="-1.71349">
        <ele>78</ele>
        <time>2022-10-29T10:22:13Z</time>
      </trkpt>
      <trkpt lat="47.17985" lon="-1.7137">
        <ele>78</ele>
        <time>2022-10-29T10:22:15Z</time>
      </trkpt>
      <trkpt lat="47.17991" lon="-1.7139">
        <ele>78</ele>
        <time>2022-10-29T10:22:17Z</time>
      </trkpt>
      <trkpt lat="47.17997" lon="-1.7141">
        <ele>78</ele>
        <time>2022-10-29T10:22:19Z</time>
      </trkpt>
      <trkpt lat="47.18004" lon="-1.71429">
        <ele>78</ele>
        <time>2022-10-29T10:22:21Z</time>
      </trkpt>
      <trkpt lat="47.1801" lon="-1.71449">
        <ele>78</ele>
        <time>2022-10-29T10:22:23Z</time>
      </trkpt>
      <trkpt lat="47.18016" lon="-1.71468">
        <ele>78</ele>
        <time>2022-10-29T10:22:25Z</time>
      </trkpt>
      <trkpt lat="47.18023" lon="-1.71488">
        <ele>78</ele>
        <time>2022-10-29T10:22:27Z</time>
      </trkpt>
      <trkpt lat="47.18029" lon="-1.71508">
        <ele>78</ele>
        <time>2022-10-29T10:22:29Z</time>
      </trkpt>
      <trkpt lat="47.18036" lon="-1.71529">
        <ele>78</ele>
        <time>2022-10-29T10:22:31Z</time>
      </trkpt>
      <trkpt lat="47.18043" lon="-1.71549">
        <ele>78</ele>
        <time>2022-10-29T10:22:33Z</time>
      </trkpt>
      <trkpt lat="47.18049" lon="-1.71569">
        <ele>77</ele>
        <time>2022-10-29T10:22:35Z</time>
      </trkpt>
      <trkpt lat="47.18055" lon="-1.71589">
        <ele>77</ele>
        <time>2022-10-29T10:22:37Z</time>
      </trkpt>
      <trkpt lat="47.18062" lon="-1.71608">
        <ele>77</ele>
        <time>2022-10-29T10:22:39Z</time>
      </trkpt>
      <trkpt lat="47.18068" lon="-1.71627">
        <ele>78</ele>
        <time>2022-10-29T10:22:41Z</time>
      </trkpt>
      <trkpt lat="47.18074" lon="-1.71645">
        <ele>78</ele>
        <time>2022-10-29T10:22:43Z</time>
      </trkpt>
      <trkpt lat="47.18081" lon="-1.71665">
        <ele>78</ele>
        <time>2022-10-29T10:22:45Z</time>
      </trkpt>
      <trkpt lat="47.18087" lon="-1.71684">
        <ele>78</ele>
        <time>2022-10-29T10:22:47Z</time>
      </trkpt>
      <trkpt lat="47.18094" lon="-1.71703">
        <ele>79</ele>
        <time>2022-10-29T10:22:49Z</time>
      </trkpt>
      <trkpt lat="47.18101" lon="-1.71723">
        <ele>79</ele>
        <time>2022-10-29T10:22:51Z</time>
      </trkpt>
      <trkpt lat="47.18109" lon="-1.71743">
        <ele>79</ele>
        <time>2022-10-29T10:22:53Z</time>
      </trkpt>
      <trkpt lat="47.18117" lon="-1.71763">
        <ele>79</ele>
        <time>2022-10-29T10:22:55Z</time>
      </trkpt>
      <trkpt lat="47.18124" lon="-1.71784">
        <ele>79</ele>
        <time>2022-10-29T10:22:57Z</time>
      </trkpt>
      <trkpt lat="47.18131" lon="-1.71804">
        <ele>79</ele>
        <time>2022-10-29T10:22:59Z</time>
      </trkpt>
      <trkpt lat="47.18139" lon="-1.71826">
        <ele>79</ele>
        <time>2022-10-29T10:23:01Z</time>
      </trkpt>
      <trkpt lat="47.18146" lon="-1.71847">
        <ele>78</ele>
        <time>2022-10-29T10:23:03Z</time>
      </trkpt>
      <trkpt lat="47.18152" lon="-1.71868">
        <ele>78</ele>
        <time>2022-10-29T10:23:05Z</time>
      </trkpt>
      <trkpt lat="47.18159" lon="-1.71889">
        <ele>78</ele>
        <time>2022-10-29T10:23:07Z</time>
      </trkpt>
      <trkpt lat="47.18165" lon="-1.7191">
        <ele>78</ele>
        <time>2022-10-29T10:23:09Z</time>
      </trkpt>
      <trkpt lat="47.18172" lon="-1.71932">
        <ele>78</ele>
        <time>2022-10-29T10:23:11Z</time>
      </trkpt>
      <trkpt lat="47.18179" lon="-1.71953">
        <ele>78</ele>
        <time>2022-10-29T10:23:13Z</time>
      </trkpt>
      <trkpt lat="47.18186" lon="-1.71974">
        <ele>78</ele>
        <time>2022-10-29T10:23:15Z</time>
      </trkpt>
      <trkpt lat="47.18193" lon="-1.71995">
        <ele>78</ele>
        <time>2022-10-29T10:23:17Z</time>
      </trkpt>
      <trkpt lat="47.18199" lon="-1.72016">
        <ele>77</ele>
        <time>2022-10-29T10:23:19Z</time>
      </trkpt>
      <trkpt lat="47.18206" lon="-1.72037">
        <ele>77</ele>
        <time>2022-10-29T10:23:21Z</time>
      </trkpt>
      <trkpt lat="47.18212" lon="-1.72058">
        <ele>77</ele>
        <time>2022-10-29T10:23:23Z</time>
      </trkpt>
      <trkpt lat="47.18219" lon="-1.72079">
        <ele>77</ele>
        <time>2022-10-29T10:23:25Z</time>
      </trkpt>
      <trkpt lat="47.18226" lon="-1.721">
        <ele>77</ele>
        <time>2022-10-29T10:23:27Z</time>
      </trkpt>
      <trkpt lat="47.18233" lon="-1.72121">
        <ele>77</ele>
        <time>2022-10-29T10:23:29Z</time>
      </trkpt>
      <trkpt lat="47.1824" lon="-1.72142">
        <ele>77</ele>
        <time>2022-10-29T10:23:31Z</time>
      </trkpt>
      <trkpt lat="47.18246" lon="-1.72163">
        <ele>77</ele>
        <time>2022-10-29T10:23:33Z</time>
      </trkpt>
      <trkpt lat="47.18253" lon="-1.72184">
        <ele>77</ele>
        <time>2022-10-29T10:23:35Z</time>
      </trkpt>
      <trkpt lat="47.18258" lon="-1.72206">
        <ele>77</ele>
        <time>2022-10-29T10:23:37Z</time>
      </trkpt>
      <trkpt lat="47.18263" lon="-1.72228">
        <ele>77</ele>
        <time>2022-10-29T10:23:39Z</time>
      </trkpt>
      <trkpt lat="47.18266" lon="-1.7225">
        <ele>77</ele>
        <time>2022-10-29T10:23:41Z</time>
      </trkpt>
      <trkpt lat="47.18267" lon="-1.72272">
        <ele>76</ele>
        <time>2022-10-29T10:23:43Z</time>
      </trkpt>
      <trkpt lat="47.1827" lon="-1.72295">
        <ele>76</ele>
        <time>2022-10-29T10:23:45Z</time>
      </trkpt>
      <trkpt lat="47.18272" lon="-1.72317">
        <ele>76</ele>
        <time>2022-10-29T10:23:47Z</time>
      </trkpt>
      <trkpt lat="47.18274" lon="-1.72339">
        <ele>76</ele>
        <time>2022-10-29T10:23:49Z</time>
      </trkpt>
      <trkpt lat="47.18276" lon="-1.72361">
        <ele>76</ele>
        <time>2022-10-29T10:23:51Z</time>
      </trkpt>
      <trkpt lat="47.18278" lon="-1.72382">
        <ele>77</ele>
        <time>2022-10-29T10:23:53Z</time>
      </trkpt>
      <trkpt lat="47.18278" lon="-1.72404">
        <ele>77</ele>
        <time>2022-10-29T10:23:55Z</time>
      </trkpt>
      <trkpt lat="47.18277" lon="-1.72425">
        <ele>77</ele>
        <time>2022-10-29T10:23:57Z</time>
      </trkpt>
      <trkpt lat="47.18276" lon="-1.72445">
        <ele>78</ele>
        <time>2022-10-29T10:23:59Z</time>
      </trkpt>
      <trkpt lat="47.18272" lon="-1.72463">
        <ele>78</ele>
        <time>2022-10-29T10:24:01Z</time>
      </trkpt>
      <trkpt lat="47.18269" lon="-1.72481">
        <ele>79</ele>
        <time>2022-10-29T10:24:03Z</time>
      </trkpt>
      <trkpt lat="47.18265" lon="-1.72498">
        <ele>79</ele>
        <time>2022-10-29T10:24:05Z</time>
      </trkpt>
      <trkpt lat="47.18264" lon="-1.72515">
        <ele>80</ele>
        <time>2022-10-29T10:24:07Z</time>
      </trkpt>
      <trkpt lat="47.18266" lon="-1.72531">
        <ele>80</ele>
        <time>2022-10-29T10:24:09Z</time>
      </trkpt>
      <trkpt lat="47.18273" lon="-1.72545">
        <ele>80</ele>
        <time>2022-10-29T10:24:11Z</time>
      </trkpt>
      <trkpt lat="47.18284" lon="-1.72548">
        <ele>80</ele>
        <time>2022-10-29T10:24:13Z</time>
      </trkpt>
      <trkpt lat="47.18296" lon="-1.72546">
        <ele>80</ele>
        <time>2022-10-29T10:24:15Z</time>
      </trkpt>
      <trkpt lat="47.18307" lon="-1.72549">
        <ele>81</ele>
        <time>2022-10-29T10:24:17Z</time>
      </trkpt>
      <trkpt lat="47.18317" lon="-1.72562">
        <ele>81</ele>
        <time>2022-10-29T10:24:19Z</time>
      </trkpt>
      <trkpt lat="47.1832" lon="-1.7258">
        <ele>82</ele>
        <time>2022-10-29T10:24:21Z</time>
      </trkpt>
      <trkpt lat="47.18318" lon="-1.72599">
        <ele>81</ele>
        <time>2022-10-29T10:24:23Z</time>
      </trkpt>
      <trkpt lat="47.18315" lon="-1.72618">
        <ele>81</ele>
        <time>2022-10-29T10:24:25Z</time>
      </trkpt>
      <trkpt lat="47.1832" lon="-1.72637">
        <ele>81</ele>
        <time>2022-10-29T10:24:27Z</time>
      </trkpt>
      <trkpt lat="47.18326" lon="-1.72656">
        <ele>80</ele>
        <time>2022-10-29T10:24:29Z</time>
      </trkpt>
      <trkpt lat="47.18332" lon="-1.72676">
        <ele>80</ele>
        <time>2022-10-29T10:24:31Z</time>
      </trkpt>
      <trkpt lat="47.1834" lon="-1.72697">
        <ele>79</ele>
        <time>2022-10-29T10:24:33Z</time>
      </trkpt>
      <trkpt lat="47.18347" lon="-1.72718">
        <ele>79</ele>
        <time>2022-10-29T10:24:35Z</time>
      </trkpt>
      <trkpt lat="47.18355" lon="-1.7274">
        <ele>78</ele>
        <time>2022-10-29T10:24:37Z</time>
      </trkpt>
      <trkpt lat="47.18362" lon="-1.72761">
        <ele>78</ele>
        <time>2022-10-29T10:24:39Z</time>
      </trkpt>
      <trkpt lat="47.1837" lon="-1.72782">
        <ele>78</ele>
        <time>2022-10-29T10:24:41Z</time>
      </trkpt>
      <trkpt lat="47.18377" lon="-1.72803">
        <ele>78</ele>
        <time>2022-10-29T10:24:43Z</time>
      </trkpt>
      <trkpt lat="47.18384" lon="-1.72823">
        <ele>78</ele>
        <time>2022-10-29T10:24:45Z</time>
      </trkpt>
      <trkpt lat="47.18391" lon="-1.72843">
        <ele>78</ele>
        <time>2022-10-29T10:24:47Z</time>
      </trkpt>
      <trkpt lat="47.18397" lon="-1.72862">
        <ele>78</ele>
        <time>2022-10-29T10:24:49Z</time>
      </trkpt>
      <trkpt lat="47.18403" lon="-1.72881">
        <ele>78</ele>
        <time>2022-10-29T10:24:51Z</time>
      </trkpt>
      <trkpt lat="47.18409" lon="-1.72899">
        <ele>78</ele>
        <time>2022-10-29T10:24:53Z</time>
      </trkpt>
      <trkpt lat="47.18414" lon="-1.72918">
        <ele>78</ele>
        <time>2022-10-29T10:24:55Z</time>
      </trkpt>
      <trkpt lat="47.18418" lon="-1.72936">
        <ele>78</ele>
        <time>2022-10-29T10:24:57Z</time>
      </trkpt>
      <trkpt lat="47.18422" lon="-1.72955">
        <ele>78</ele>
        <time>2022-10-29T10:24:59Z</time>
      </trkpt>
      <trkpt lat="47.18425" lon="-1.72976">
        <ele>78</ele>
        <time>2022-10-29T10:25:01Z</time>
      </trkpt>
      <trkpt lat="47.18427" lon="-1.72995">
        <ele>78</ele>
        <time>2022-10-29T10:25:03Z</time>
      </trkpt>
      <trkpt lat="47.1843" lon="-1.73016">
        <ele>77</ele>
        <time>2022-10-29T10:25:05Z</time>
      </trkpt>
      <trkpt lat="47.18433" lon="-1.73037">
        <ele>77</ele>
        <time>2022-10-29T10:25:07Z</time>
      </trkpt>
      <trkpt lat="47.18435" lon="-1.73057">
        <ele>77</ele>
        <time>2022-10-29T10:25:09Z</time>
      </trkpt>
      <trkpt lat="47.18438" lon="-1.73077">
        <ele>77</ele>
        <time>2022-10-29T10:25:11Z</time>
      </trkpt>
      <trkpt lat="47.1844" lon="-1.73097">
        <ele>77</ele>
        <time>2022-10-29T10:25:13Z</time>
      </trkpt>
      <trkpt lat="47.18443" lon="-1.73117">
        <ele>77</ele>
        <time>2022-10-29T10:25:15Z</time>
      </trkpt>
      <trkpt lat="47.18446" lon="-1.73138">
        <ele>77</ele>
        <time>2022-10-29T10:25:17Z</time>
      </trkpt>
      <trkpt lat="47.18449" lon="-1.73158">
        <ele>77</ele>
        <time>2022-10-29T10:25:19Z</time>
      </trkpt>
      <trkpt lat="47.18452" lon="-1.73178">
        <ele>77</ele>
        <time>2022-10-29T10:25:21Z</time>
      </trkpt>
      <trkpt lat="47.18455" lon="-1.73199">
        <ele>77</ele>
        <time>2022-10-29T10:25:23Z</time>
      </trkpt>
      <trkpt lat="47.18457" lon="-1.7322">
        <ele>77</ele>
        <time>2022-10-29T10:25:25Z</time>
      </trkpt>
      <trkpt lat="47.1846" lon="-1.7324">
        <ele>77</ele>
        <time>2022-10-29T10:25:27Z</time>
      </trkpt>
      <trkpt lat="47.18462" lon="-1.73261">
        <ele>77</ele>
        <time>2022-10-29T10:25:29Z</time>
      </trkpt>
      <trkpt lat="47.18465" lon="-1.73282">
        <ele>77</ele>
        <time>2022-10-29T10:25:31Z</time>
      </trkpt>
      <trkpt lat="47.18467" lon="-1.73303">
        <ele>77</ele>
        <time>2022-10-29T10:25:33Z</time>
      </trkpt>
      <trkpt lat="47.1847" lon="-1.73324">
        <ele>77</ele>
        <time>2022-10-29T10:25:35Z</time>
      </trkpt>
      <trkpt lat="47.18472" lon="-1.73345">
        <ele>77</ele>
        <time>2022-10-29T10:25:37Z</time>
      </trkpt>
      <trkpt lat="47.18474" lon="-1.73367">
        <ele>76</ele>
        <time>2022-10-29T10:25:39Z</time>
      </trkpt>
      <trkpt lat="47.18476" lon="-1.73389">
        <ele>76</ele>
        <time>2022-10-29T10:25:41Z</time>
      </trkpt>
      <trkpt lat="47.18478" lon="-1.7341">
        <ele>76</ele>
        <time>2022-10-29T10:25:43Z</time>
      </trkpt>
      <trkpt lat="47.1848" lon="-1.73432">
        <ele>76</ele>
        <time>2022-10-29T10:25:45Z</time>
      </trkpt>
      <trkpt lat="47.18482" lon="-1.73453">
        <ele>76</ele>
        <time>2022-10-29T10:25:47Z</time>
      </trkpt>
      <trkpt lat="47.18484" lon="-1.73475">
        <ele>76</ele>
        <time>2022-10-29T10:25:49Z</time>
      </trkpt>
      <trkpt lat="47.18486" lon="-1.73496">
        <ele>76</ele>
        <time>2022-10-29T10:25:51Z</time>
      </trkpt>
      <trkpt lat="47.18488" lon="-1.73517">
        <ele>76</ele>
        <time>2022-10-29T10:25:53Z</time>
      </trkpt>
      <trkpt lat="47.1849" lon="-1.73538">
        <ele>76</ele>
        <time>2022-10-29T10:25:55Z</time>
      </trkpt>
      <trkpt lat="47.18492" lon="-1.73559">
        <ele>76</ele>
        <time>2022-10-29T10:25:57Z</time>
      </trkpt>
      <trkpt lat="47.18493" lon="-1.7358">
        <ele>76</ele>
        <time>2022-10-29T10:25:59Z</time>
      </trkpt>
      <trkpt lat="47.18496" lon="-1.73601">
        <ele>76</ele>
        <time>2022-10-29T10:26:01Z</time>
      </trkpt>
      <trkpt lat="47.18498" lon="-1.73622">
        <ele>76</ele>
        <time>2022-10-29T10:26:03Z</time>
      </trkpt>
      <trkpt lat="47.18499" lon="-1.73641">
        <ele>76</ele>
        <time>2022-10-29T10:26:05Z</time>
      </trkpt>
      <trkpt lat="47.18501" lon="-1.73661">
        <ele>76</ele>
        <time>2022-10-29T10:26:07Z</time>
      </trkpt>
      <trkpt lat="47.18504" lon="-1.73682">
        <ele>76</ele>
        <time>2022-10-29T10:26:09Z</time>
      </trkpt>
      <trkpt lat="47.18505" lon="-1.73702">
        <ele>76</ele>
        <time>2022-10-29T10:26:11Z</time>
      </trkpt>
      <trkpt lat="47.18507" lon="-1.73722">
        <ele>76</ele>
        <time>2022-10-29T10:26:13Z</time>
      </trkpt>
      <trkpt lat="47.18509" lon="-1.73742">
        <ele>76</ele>
        <time>2022-10-29T10:26:15Z</time>
      </trkpt>
      <trkpt lat="47.18511" lon="-1.73763">
        <ele>76</ele>
        <time>2022-10-29T10:26:17Z</time>
      </trkpt>
      <trkpt lat="47.18513" lon="-1.73783">
        <ele>76</ele>
        <time>2022-10-29T10:26:19Z</time>
      </trkpt>
      <trkpt lat="47.18515" lon="-1.73803">
        <ele>76</ele>
        <time>2022-10-29T10:26:21Z</time>
      </trkpt>
      <trkpt lat="47.18517" lon="-1.73822">
        <ele>76</ele>
        <time>2022-10-29T10:26:23Z</time>
      </trkpt>
      <trkpt lat="47.18519" lon="-1.73841">
        <ele>76</ele>
        <time>2022-10-29T10:26:25Z</time>
      </trkpt>
      <trkpt lat="47.18521" lon="-1.73859">
        <ele>76</ele>
        <time>2022-10-29T10:26:27Z</time>
      </trkpt>
      <trkpt lat="47.18522" lon="-1.73879">
        <ele>77</ele>
        <time>2022-10-29T10:26:29Z</time>
      </trkpt>
      <trkpt lat="47.18524" lon="-1.739">
        <ele>77</ele>
        <time>2022-10-29T10:26:31Z</time>
      </trkpt>
      <trkpt lat="47.18525" lon="-1.7392">
        <ele>76</ele>
        <time>2022-10-29T10:26:33Z</time>
      </trkpt>
      <trkpt lat="47.18526" lon="-1.73939">
        <ele>76</ele>
        <time>2022-10-29T10:26:35Z</time>
      </trkpt>
      <trkpt lat="47.18527" lon="-1.7396">
        <ele>76</ele>
        <time>2022-10-29T10:26:37Z</time>
      </trkpt>
      <trkpt lat="47.18526" lon="-1.7398">
        <ele>75</ele>
        <time>2022-10-29T10:26:39Z</time>
      </trkpt>
      <trkpt lat="47.18526" lon="-1.74">
        <ele>75</ele>
        <time>2022-10-29T10:26:41Z</time>
      </trkpt>
      <trkpt lat="47.18525" lon="-1.74021">
        <ele>75</ele>
        <time>2022-10-29T10:26:43Z</time>
      </trkpt>
      <trkpt lat="47.18524" lon="-1.74042">
        <ele>75</ele>
        <time>2022-10-29T10:26:45Z</time>
      </trkpt>
      <trkpt lat="47.18522" lon="-1.74063">
        <ele>74</ele>
        <time>2022-10-29T10:26:47Z</time>
      </trkpt>
      <trkpt lat="47.18521" lon="-1.74084">
        <ele>74</ele>
        <time>2022-10-29T10:26:49Z</time>
      </trkpt>
      <trkpt lat="47.18522" lon="-1.74105">
        <ele>74</ele>
        <time>2022-10-29T10:26:51Z</time>
      </trkpt>
      <trkpt lat="47.18524" lon="-1.74126">
        <ele>73</ele>
        <time>2022-10-29T10:26:53Z</time>
      </trkpt>
      <trkpt lat="47.18524" lon="-1.74147">
        <ele>73</ele>
        <time>2022-10-29T10:26:55Z</time>
      </trkpt>
      <trkpt lat="47.1852" lon="-1.74168">
        <ele>73</ele>
        <time>2022-10-29T10:26:57Z</time>
      </trkpt>
      <trkpt lat="47.18519" lon="-1.74188">
        <ele>73</ele>
        <time>2022-10-29T10:26:59Z</time>
      </trkpt>
      <trkpt lat="47.1852" lon="-1.74209">
        <ele>73</ele>
        <time>2022-10-29T10:27:01Z</time>
      </trkpt>
      <trkpt lat="47.18521" lon="-1.74227">
        <ele>74</ele>
        <time>2022-10-29T10:27:03Z</time>
      </trkpt>
      <trkpt lat="47.18522" lon="-1.74246">
        <ele>74</ele>
        <time>2022-10-29T10:27:05Z</time>
      </trkpt>
      <trkpt lat="47.18524" lon="-1.74265">
        <ele>74</ele>
        <time>2022-10-29T10:27:07Z</time>
      </trkpt>
      <trkpt lat="47.18525" lon="-1.74285">
        <ele>75</ele>
        <time>2022-10-29T10:27:09Z</time>
      </trkpt>
      <trkpt lat="47.18526" lon="-1.74306">
        <ele>75</ele>
        <time>2022-10-29T10:27:11Z</time>
      </trkpt>
      <trkpt lat="47.18527" lon="-1.74327">
        <ele>76</ele>
        <time>2022-10-29T10:27:13Z</time>
      </trkpt>
      <trkpt lat="47.18528" lon="-1.74347">
        <ele>75</ele>
        <time>2022-10-29T10:27:15Z</time>
      </trkpt>
      <trkpt lat="47.18528" lon="-1.74367">
        <ele>75</ele>
        <time>2022-10-29T10:27:17Z</time>
      </trkpt>
      <trkpt lat="47.18529" lon="-1.74388">
        <ele>75</ele>
        <time>2022-10-29T10:27:19Z</time>
      </trkpt>
      <trkpt lat="47.18529" lon="-1.74408">
        <ele>75</ele>
        <time>2022-10-29T10:27:21Z</time>
      </trkpt>
      <trkpt lat="47.18529" lon="-1.74428">
        <ele>75</ele>
        <time>2022-10-29T10:27:23Z</time>
      </trkpt>
      <trkpt lat="47.18528" lon="-1.74447">
        <ele>75</ele>
        <time>2022-10-29T10:27:25Z</time>
      </trkpt>
      <trkpt lat="47.18528" lon="-1.74467">
        <ele>75</ele>
        <time>2022-10-29T10:27:27Z</time>
      </trkpt>
      <trkpt lat="47.18526" lon="-1.74487">
        <ele>75</ele>
        <time>2022-10-29T10:27:29Z</time>
      </trkpt>
      <trkpt lat="47.18525" lon="-1.74506">
        <ele>76</ele>
        <time>2022-10-29T10:27:31Z</time>
      </trkpt>
      <trkpt lat="47.18523" lon="-1.74526">
        <ele>76</ele>
        <time>2022-10-29T10:27:33Z</time>
      </trkpt>
      <trkpt lat="47.18521" lon="-1.74545">
        <ele>76</ele>
        <time>2022-10-29T10:27:35Z</time>
      </trkpt>
      <trkpt lat="47.1852" lon="-1.74564">
        <ele>76</ele>
        <time>2022-10-29T10:27:37Z</time>
      </trkpt>
      <trkpt lat="47.18518" lon="-1.74582">
        <ele>76</ele>
        <time>2022-10-29T10:27:39Z</time>
      </trkpt>
      <trkpt lat="47.18516" lon="-1.74602">
        <ele>77</ele>
        <time>2022-10-29T10:27:41Z</time>
      </trkpt>
      <trkpt lat="47.18513" lon="-1.74621">
        <ele>77</ele>
        <time>2022-10-29T10:27:43Z</time>
      </trkpt>
      <trkpt lat="47.1851" lon="-1.74639">
        <ele>77</ele>
        <time>2022-10-29T10:27:45Z</time>
      </trkpt>
      <trkpt lat="47.18508" lon="-1.74658">
        <ele>77</ele>
        <time>2022-10-29T10:27:47Z</time>
      </trkpt>
      <trkpt lat="47.18506" lon="-1.74678">
        <ele>77</ele>
        <time>2022-10-29T10:27:49Z</time>
      </trkpt>
      <trkpt lat="47.18504" lon="-1.74697">
        <ele>78</ele>
        <time>2022-10-29T10:27:51Z</time>
      </trkpt>
      <trkpt lat="47.18502" lon="-1.74716">
        <ele>78</ele>
        <time>2022-10-29T10:27:53Z</time>
      </trkpt>
      <trkpt lat="47.185" lon="-1.74736">
        <ele>77</ele>
        <time>2022-10-29T10:27:55Z</time>
      </trkpt>
      <trkpt lat="47.18497" lon="-1.74757">
        <ele>77</ele>
        <time>2022-10-29T10:27:57Z</time>
      </trkpt>
      <trkpt lat="47.18495" lon="-1.74776">
        <ele>77</ele>
        <time>2022-10-29T10:27:59Z</time>
      </trkpt>
      <trkpt lat="47.18492" lon="-1.74796">
        <ele>77</ele>
        <time>2022-10-29T10:28:01Z</time>
      </trkpt>
      <trkpt lat="47.18489" lon="-1.74816">
        <ele>76</ele>
        <time>2022-10-29T10:28:03Z</time>
      </trkpt>
      <trkpt lat="47.18484" lon="-1.74835">
        <ele>76</ele>
        <time>2022-10-29T10:28:05Z</time>
      </trkpt>
      <trkpt lat="47.18481" lon="-1.74854">
        <ele>76</ele>
        <time>2022-10-29T10:28:07Z</time>
      </trkpt>
      <trkpt lat="47.18477" lon="-1.74875">
        <ele>75</ele>
        <time>2022-10-29T10:28:09Z</time>
      </trkpt>
      <trkpt lat="47.18473" lon="-1.74896">
        <ele>74</ele>
        <time>2022-10-29T10:28:11Z</time>
      </trkpt>
      <trkpt lat="47.18469" lon="-1.74917">
        <ele>74</ele>
        <time>2022-10-29T10:28:13Z</time>
      </trkpt>
      <trkpt lat="47.18465" lon="-1.74938">
        <ele>73</ele>
        <time>2022-10-29T10:28:15Z</time>
      </trkpt>
      <trkpt lat="47.18461" lon="-1.7496">
        <ele>72</ele>
        <time>2022-10-29T10:28:17Z</time>
      </trkpt>
      <trkpt lat="47.18457" lon="-1.74981">
        <ele>72</ele>
        <time>2022-10-29T10:28:19Z</time>
      </trkpt>
      <trkpt lat="47.18453" lon="-1.75003">
        <ele>71</ele>
        <time>2022-10-29T10:28:21Z</time>
      </trkpt>
      <trkpt lat="47.18449" lon="-1.75025">
        <ele>71</ele>
        <time>2022-10-29T10:28:23Z</time>
      </trkpt>
      <trkpt lat="47.18445" lon="-1.75047">
        <ele>70</ele>
        <time>2022-10-29T10:28:25Z</time>
      </trkpt>
      <trkpt lat="47.18441" lon="-1.75069">
        <ele>70</ele>
        <time>2022-10-29T10:28:27Z</time>
      </trkpt>
      <trkpt lat="47.18436" lon="-1.75091">
        <ele>70</ele>
        <time>2022-10-29T10:28:29Z</time>
      </trkpt>
      <trkpt lat="47.18432" lon="-1.75113">
        <ele>70</ele>
        <time>2022-10-29T10:28:31Z</time>
      </trkpt>
      <trkpt lat="47.18428" lon="-1.75135">
        <ele>69</ele>
        <time>2022-10-29T10:28:33Z</time>
      </trkpt>
      <trkpt lat="47.18424" lon="-1.75156">
        <ele>69</ele>
        <time>2022-10-29T10:28:35Z</time>
      </trkpt>
      <trkpt lat="47.1842" lon="-1.75178">
        <ele>69</ele>
        <time>2022-10-29T10:28:37Z</time>
      </trkpt>
      <trkpt lat="47.18417" lon="-1.75198">
        <ele>69</ele>
        <time>2022-10-29T10:28:39Z</time>
      </trkpt>
      <trkpt lat="47.18414" lon="-1.75219">
        <ele>68</ele>
        <time>2022-10-29T10:28:41Z</time>
      </trkpt>
      <trkpt lat="47.1841" lon="-1.75239">
        <ele>68</ele>
        <time>2022-10-29T10:28:43Z</time>
      </trkpt>
      <trkpt lat="47.18407" lon="-1.75259">
        <ele>68</ele>
        <time>2022-10-29T10:28:45Z</time>
      </trkpt>
      <trkpt lat="47.18405" lon="-1.7528">
        <ele>68</ele>
        <time>2022-10-29T10:28:47Z</time>
      </trkpt>
      <trkpt lat="47.18403" lon="-1.753">
        <ele>68</ele>
        <time>2022-10-29T10:28:49Z</time>
      </trkpt>
      <trkpt lat="47.18401" lon="-1.7532">
        <ele>68</ele>
        <time>2022-10-29T10:28:51Z</time>
      </trkpt>
      <trkpt lat="47.184" lon="-1.7534">
        <ele>67</ele>
        <time>2022-10-29T10:28:53Z</time>
      </trkpt>
      <trkpt lat="47.18399" lon="-1.75361">
        <ele>67</ele>
        <time>2022-10-29T10:28:55Z</time>
      </trkpt>
      <trkpt lat="47.184" lon="-1.75382">
        <ele>67</ele>
        <time>2022-10-29T10:28:57Z</time>
      </trkpt>
      <trkpt lat="47.18403" lon="-1.75403">
        <ele>67</ele>
        <time>2022-10-29T10:28:59Z</time>
      </trkpt>
      <trkpt lat="47.18404" lon="-1.75424">
        <ele>67</ele>
        <time>2022-10-29T10:29:01Z</time>
      </trkpt>
      <trkpt lat="47.18402" lon="-1.75443">
        <ele>67</ele>
        <time>2022-10-29T10:29:03Z</time>
      </trkpt>
      <trkpt lat="47.18401" lon="-1.75462">
        <ele>68</ele>
        <time>2022-10-29T10:29:05Z</time>
      </trkpt>
      <trkpt lat="47.18401" lon="-1.75481">
        <ele>69</ele>
        <time>2022-10-29T10:29:07Z</time>
      </trkpt>
      <trkpt lat="47.18402" lon="-1.755">
        <ele>69</ele>
        <time>2022-10-29T10:29:09Z</time>
      </trkpt>
      <trkpt lat="47.18402" lon="-1.75519">
        <ele>70</ele>
        <time>2022-10-29T10:29:11Z</time>
      </trkpt>
      <trkpt lat="47.18404" lon="-1.75539">
        <ele>70</ele>
        <time>2022-10-29T10:29:13Z</time>
      </trkpt>
      <trkpt lat="47.18405" lon="-1.75559">
        <ele>70</ele>
        <time>2022-10-29T10:29:15Z</time>
      </trkpt>
      <trkpt lat="47.18407" lon="-1.75578">
        <ele>71</ele>
        <time>2022-10-29T10:29:17Z</time>
      </trkpt>
      <trkpt lat="47.18409" lon="-1.75598">
        <ele>70</ele>
        <time>2022-10-29T10:29:19Z</time>
      </trkpt>
      <trkpt lat="47.1841" lon="-1.75618">
        <ele>71</ele>
        <time>2022-10-29T10:29:21Z</time>
      </trkpt>
      <trkpt lat="47.18411" lon="-1.75637">
        <ele>71</ele>
        <time>2022-10-29T10:29:23Z</time>
      </trkpt>
      <trkpt lat="47.18411" lon="-1.75657">
        <ele>71</ele>
        <time>2022-10-29T10:29:25Z</time>
      </trkpt>
      <trkpt lat="47.18412" lon="-1.75676">
        <ele>71</ele>
        <time>2022-10-29T10:29:27Z</time>
      </trkpt>
      <trkpt lat="47.18413" lon="-1.75695">
        <ele>71</ele>
        <time>2022-10-29T10:29:29Z</time>
      </trkpt>
      <trkpt lat="47.18412" lon="-1.75715">
        <ele>71</ele>
        <time>2022-10-29T10:29:31Z</time>
      </trkpt>
      <trkpt lat="47.18411" lon="-1.75734">
        <ele>71</ele>
        <time>2022-10-29T10:29:33Z</time>
      </trkpt>
      <trkpt lat="47.1841" lon="-1.75753">
        <ele>71</ele>
        <time>2022-10-29T10:29:35Z</time>
      </trkpt>
      <trkpt lat="47.18408" lon="-1.75772">
        <ele>71</ele>
        <time>2022-10-29T10:29:37Z</time>
      </trkpt>
      <trkpt lat="47.18406" lon="-1.75792">
        <ele>71</ele>
        <time>2022-10-29T10:29:39Z</time>
      </trkpt>
      <trkpt lat="47.18404" lon="-1.75812">
        <ele>71</ele>
        <time>2022-10-29T10:29:41Z</time>
      </trkpt>
      <trkpt lat="47.18401" lon="-1.75832">
        <ele>71</ele>
        <time>2022-10-29T10:29:43Z</time>
      </trkpt>
      <trkpt lat="47.18399" lon="-1.75851">
        <ele>70</ele>
        <time>2022-10-29T10:29:45Z</time>
      </trkpt>
      <trkpt lat="47.18397" lon="-1.75872">
        <ele>70</ele>
        <time>2022-10-29T10:29:47Z</time>
      </trkpt>
      <trkpt lat="47.18394" lon="-1.75892">
        <ele>70</ele>
        <time>2022-10-29T10:29:49Z</time>
      </trkpt>
      <trkpt lat="47.18392" lon="-1.75912">
        <ele>69</ele>
        <time>2022-10-29T10:29:51Z</time>
      </trkpt>
      <trkpt lat="47.1839" lon="-1.75933">
        <ele>69</ele>
        <time>2022-10-29T10:29:53Z</time>
      </trkpt>
      <trkpt lat="47.18387" lon="-1.75954">
        <ele>68</ele>
        <time>2022-10-29T10:29:55Z</time>
      </trkpt>
      <trkpt lat="47.18385" lon="-1.75975">
        <ele>68</ele>
        <time>2022-10-29T10:29:57Z</time>
      </trkpt>
      <trkpt lat="47.18383" lon="-1.75996">
        <ele>68</ele>
        <time>2022-10-29T10:29:59Z</time>
      </trkpt>
      <trkpt lat="47.1838" lon="-1.76018">
        <ele>68</ele>
        <time>2022-10-29T10:30:01Z</time>
      </trkpt>
      <trkpt lat="47.18377" lon="-1.7604">
        <ele>68</ele>
        <time>2022-10-29T10:30:03Z</time>
      </trkpt>
      <trkpt lat="47.18374" lon="-1.76062">
        <ele>68</ele>
        <time>2022-10-29T10:30:05Z</time>
      </trkpt>
      <trkpt lat="47.18371" lon="-1.76084">
        <ele>67</ele>
        <time>2022-10-29T10:30:07Z</time>
      </trkpt>
      <trkpt lat="47.18369" lon="-1.76107">
        <ele>67</ele>
        <time>2022-10-29T10:30:09Z</time>
      </trkpt>
      <trkpt lat="47.18367" lon="-1.76129">
        <ele>67</ele>
        <time>2022-10-29T10:30:11Z</time>
      </trkpt>
      <trkpt lat="47.18364" lon="-1.76152">
        <ele>66</ele>
        <time>2022-10-29T10:30:13Z</time>
      </trkpt>
      <trkpt lat="47.18361" lon="-1.76174">
        <ele>66</ele>
        <time>2022-10-29T10:30:15Z</time>
      </trkpt>
      <trkpt lat="47.18359" lon="-1.76196">
        <ele>65</ele>
        <time>2022-10-29T10:30:17Z</time>
      </trkpt>
      <trkpt lat="47.18356" lon="-1.76219">
        <ele>65</ele>
        <time>2022-10-29T10:30:19Z</time>
      </trkpt>
      <trkpt lat="47.18353" lon="-1.76241">
        <ele>64</ele>
        <time>2022-10-29T10:30:21Z</time>
      </trkpt>
      <trkpt lat="47.18351" lon="-1.76264">
        <ele>64</ele>
        <time>2022-10-29T10:30:23Z</time>
      </trkpt>
      <trkpt lat="47.18349" lon="-1.76287">
        <ele>64</ele>
        <time>2022-10-29T10:30:25Z</time>
      </trkpt>
      <trkpt lat="47.18348" lon="-1.76309">
        <ele>64</ele>
        <time>2022-10-29T10:30:27Z</time>
      </trkpt>
      <trkpt lat="47.18347" lon="-1.7633">
        <ele>64</ele>
        <time>2022-10-29T10:30:29Z</time>
      </trkpt>
      <trkpt lat="47.18346" lon="-1.7635">
        <ele>64</ele>
        <time>2022-10-29T10:30:31Z</time>
      </trkpt>
      <trkpt lat="47.18344" lon="-1.76371">
        <ele>64</ele>
        <time>2022-10-29T10:30:33Z</time>
      </trkpt>
      <trkpt lat="47.18343" lon="-1.76392">
        <ele>64</ele>
        <time>2022-10-29T10:30:35Z</time>
      </trkpt>
      <trkpt lat="47.18342" lon="-1.76412">
        <ele>64</ele>
        <time>2022-10-29T10:30:37Z</time>
      </trkpt>
      <trkpt lat="47.18341" lon="-1.76432">
        <ele>64</ele>
        <time>2022-10-29T10:30:39Z</time>
      </trkpt>
      <trkpt lat="47.1834" lon="-1.76452">
        <ele>64</ele>
        <time>2022-10-29T10:30:41Z</time>
      </trkpt>
      <trkpt lat="47.18339" lon="-1.76472">
        <ele>64</ele>
        <time>2022-10-29T10:30:43Z</time>
      </trkpt>
      <trkpt lat="47.18338" lon="-1.76491">
        <ele>64</ele>
        <time>2022-10-29T10:30:45Z</time>
      </trkpt>
      <trkpt lat="47.18338" lon="-1.7651">
        <ele>65</ele>
        <time>2022-10-29T10:30:47Z</time>
      </trkpt>
      <trkpt lat="47.18338" lon="-1.7653">
        <ele>65</ele>
        <time>2022-10-29T10:30:49Z</time>
      </trkpt>
      <trkpt lat="47.18339" lon="-1.76549">
        <ele>65</ele>
        <time>2022-10-29T10:30:51Z</time>
      </trkpt>
      <trkpt lat="47.18339" lon="-1.76568">
        <ele>66</ele>
        <time>2022-10-29T10:30:53Z</time>
      </trkpt>
      <trkpt lat="47.1834" lon="-1.76587">
        <ele>66</ele>
        <time>2022-10-29T10:30:55Z</time>
      </trkpt>
      <trkpt lat="47.18341" lon="-1.76606">
        <ele>66</ele>
        <time>2022-10-29T10:30:57Z</time>
      </trkpt>
      <trkpt lat="47.18342" lon="-1.76624">
        <ele>67</ele>
        <time>2022-10-29T10:30:59Z</time>
      </trkpt>
      <trkpt lat="47.18344" lon="-1.76641">
        <ele>67</ele>
        <time>2022-10-29T10:31:01Z</time>
      </trkpt>
      <trkpt lat="47.18346" lon="-1.76659">
        <ele>67</ele>
        <time>2022-10-29T10:31:03Z</time>
      </trkpt>
      <trkpt lat="47.18347" lon="-1.76677">
        <ele>67</ele>
        <time>2022-10-29T10:31:05Z</time>
      </trkpt>
      <trkpt lat="47.18349" lon="-1.76695">
        <ele>67</ele>
        <time>2022-10-29T10:31:07Z</time>
      </trkpt>
      <trkpt lat="47.1835" lon="-1.76713">
        <ele>68</ele>
        <time>2022-10-29T10:31:09Z</time>
      </trkpt>
      <trkpt lat="47.18352" lon="-1.76731">
        <ele>68</ele>
        <time>2022-10-29T10:31:11Z</time>
      </trkpt>
      <trkpt lat="47.18354" lon="-1.76749">
        <ele>68</ele>
        <time>2022-10-29T10:31:13Z</time>
      </trkpt>
      <trkpt lat="47.18356" lon="-1.76766">
        <ele>68</ele>
        <time>2022-10-29T10:31:15Z</time>
      </trkpt>
      <trkpt lat="47.18358" lon="-1.76783">
        <ele>68</ele>
        <time>2022-10-29T10:31:17Z</time>
      </trkpt>
      <trkpt lat="47.1836" lon="-1.768">
        <ele>68</ele>
        <time>2022-10-29T10:31:19Z</time>
      </trkpt>
      <trkpt lat="47.18362" lon="-1.76817">
        <ele>69</ele>
        <time>2022-10-29T10:31:21Z</time>
      </trkpt>
      <trkpt lat="47.18363" lon="-1.76835">
        <ele>69</ele>
        <time>2022-10-29T10:31:23Z</time>
      </trkpt>
      <trkpt lat="47.18366" lon="-1.76852">
        <ele>69</ele>
        <time>2022-10-29T10:31:25Z</time>
      </trkpt>
      <trkpt lat="47.18368" lon="-1.76869">
        <ele>70</ele>
        <time>2022-10-29T10:31:27Z</time>
      </trkpt>
      <trkpt lat="47.1837" lon="-1.76886">
        <ele>70</ele>
        <time>2022-10-29T10:31:29Z</time>
      </trkpt>
      <trkpt lat="47.18371" lon="-1.76903">
        <ele>70</ele>
        <time>2022-10-29T10:31:31Z</time>
      </trkpt>
      <trkpt lat="47.18374" lon="-1.76919">
        <ele>70</ele>
        <time>2022-10-29T10:31:33Z</time>
      </trkpt>
      <trkpt lat="47.18375" lon="-1.76936">
        <ele>71</ele>
        <time>2022-10-29T10:31:35Z</time>
      </trkpt>
      <trkpt lat="47.18376" lon="-1.76953">
        <ele>71</ele>
        <time>2022-10-29T10:31:37Z</time>
      </trkpt>
      <trkpt lat="47.18378" lon="-1.7697">
        <ele>71</ele>
        <time>2022-10-29T10:31:39Z</time>
      </trkpt>
      <trkpt lat="47.1838" lon="-1.76987">
        <ele>72</ele>
        <time>2022-10-29T10:31:41Z</time>
      </trkpt>
      <trkpt lat="47.18381" lon="-1.77003">
        <ele>72</ele>
        <time>2022-10-29T10:31:43Z</time>
      </trkpt>
      <trkpt lat="47.18381" lon="-1.7702">
        <ele>72</ele>
        <time>2022-10-29T10:31:45Z</time>
      </trkpt>
      <trkpt lat="47.1838" lon="-1.77036">
        <ele>72</ele>
        <time>2022-10-29T10:31:47Z</time>
      </trkpt>
      <trkpt lat="47.1838" lon="-1.77053">
        <ele>73</ele>
        <time>2022-10-29T10:31:49Z</time>
      </trkpt>
      <trkpt lat="47.18379" lon="-1.7707">
        <ele>73</ele>
        <time>2022-10-29T10:31:51Z</time>
      </trkpt>
      <trkpt lat="47.18378" lon="-1.77086">
        <ele>73</ele>
        <time>2022-10-29T10:31:53Z</time>
      </trkpt>
      <trkpt lat="47.18376" lon="-1.77102">
        <ele>74</ele>
        <time>2022-10-29T10:31:55Z</time>
      </trkpt>
      <trkpt lat="47.18374" lon="-1.77119">
        <ele>73</ele>
        <time>2022-10-29T10:31:57Z</time>
      </trkpt>
      <trkpt lat="47.18372" lon="-1.77136">
        <ele>74</ele>
        <time>2022-10-29T10:31:59Z</time>
      </trkpt>
      <trkpt lat="47.18371" lon="-1.77152">
        <ele>74</ele>
        <time>2022-10-29T10:32:01Z</time>
      </trkpt>
      <trkpt lat="47.18369" lon="-1.77168">
        <ele>74</ele>
        <time>2022-10-29T10:32:03Z</time>
      </trkpt>
      <trkpt lat="47.18367" lon="-1.77185">
        <ele>74</ele>
        <time>2022-10-29T10:32:05Z</time>
      </trkpt>
      <trkpt lat="47.18366" lon="-1.77202">
        <ele>74</ele>
        <time>2022-10-29T10:32:07Z</time>
      </trkpt>
      <trkpt lat="47.18366" lon="-1.7722">
        <ele>74</ele>
        <time>2022-10-29T10:32:09Z</time>
      </trkpt>
      <trkpt lat="47.18366" lon="-1.77238">
        <ele>74</ele>
        <time>2022-10-29T10:32:11Z</time>
      </trkpt>
      <trkpt lat="47.18366" lon="-1.77255">
        <ele>74</ele>
        <time>2022-10-29T10:32:13Z</time>
      </trkpt>
      <trkpt lat="47.18367" lon="-1.77272">
        <ele>74</ele>
        <time>2022-10-29T10:32:15Z</time>
      </trkpt>
      <trkpt lat="47.18368" lon="-1.7729">
        <ele>74</ele>
        <time>2022-10-29T10:32:17Z</time>
      </trkpt>
      <trkpt lat="47.18369" lon="-1.77307">
        <ele>74</ele>
        <time>2022-10-29T10:32:19Z</time>
      </trkpt>
      <trkpt lat="47.18369" lon="-1.77325">
        <ele>75</ele>
        <time>2022-10-29T10:32:21Z</time>
      </trkpt>
      <trkpt lat="47.1837" lon="-1.77343">
        <ele>75</ele>
        <time>2022-10-29T10:32:23Z</time>
      </trkpt>
      <trkpt lat="47.18371" lon="-1.7736">
        <ele>75</ele>
        <time>2022-10-29T10:32:25Z</time>
      </trkpt>
      <trkpt lat="47.18372" lon="-1.77378">
        <ele>75</ele>
        <time>2022-10-29T10:32:27Z</time>
      </trkpt>
      <trkpt lat="47.18373" lon="-1.77396">
        <ele>75</ele>
        <time>2022-10-29T10:32:29Z</time>
      </trkpt>
      <trkpt lat="47.18374" lon="-1.77414">
        <ele>74</ele>
        <time>2022-10-29T10:32:31Z</time>
      </trkpt>
      <trkpt lat="47.18375" lon="-1.77432">
        <ele>74</ele>
        <time>2022-10-29T10:32:33Z</time>
      </trkpt>
      <trkpt lat="47.18376" lon="-1.7745">
        <ele>74</ele>
        <time>2022-10-29T10:32:35Z</time>
      </trkpt>
      <trkpt lat="47.18376" lon="-1.77468">
        <ele>74</ele>
        <time>2022-10-29T10:32:37Z</time>
      </trkpt>
      <trkpt lat="47.18376" lon="-1.77486">
        <ele>74</ele>
        <time>2022-10-29T10:32:39Z</time>
      </trkpt>
      <trkpt lat="47.18376" lon="-1.77505">
        <ele>74</ele>
        <time>2022-10-29T10:32:41Z</time>
      </trkpt>
      <trkpt lat="47.18375" lon="-1.77524">
        <ele>74</ele>
        <time>2022-10-29T10:32:43Z</time>
      </trkpt>
      <trkpt lat="47.18373" lon="-1.77542">
        <ele>74</ele>
        <time>2022-10-29T10:32:45Z</time>
      </trkpt>
      <trkpt lat="47.1837" lon="-1.7756">
        <ele>74</ele>
        <time>2022-10-29T10:32:47Z</time>
      </trkpt>
      <trkpt lat="47.18366" lon="-1.77578">
        <ele>74</ele>
        <time>2022-10-29T10:32:49Z</time>
      </trkpt>
      <trkpt lat="47.18361" lon="-1.77595">
        <ele>73</ele>
        <time>2022-10-29T10:32:51Z</time>
      </trkpt>
      <trkpt lat="47.18356" lon="-1.77613">
        <ele>73</ele>
        <time>2022-10-29T10:32:53Z</time>
      </trkpt>
      <trkpt lat="47.1835" lon="-1.7763">
        <ele>73</ele>
        <time>2022-10-29T10:32:55Z</time>
      </trkpt>
      <trkpt lat="47.18345" lon="-1.77648">
        <ele>73</ele>
        <time>2022-10-29T10:32:57Z</time>
      </trkpt>
      <trkpt lat="47.18339" lon="-1.77665">
        <ele>74</ele>
        <time>2022-10-29T10:32:59Z</time>
      </trkpt>
      <trkpt lat="47.18333" lon="-1.77682">
        <ele>73</ele>
        <time>2022-10-29T10:33:01Z</time>
      </trkpt>
      <trkpt lat="47.18327" lon="-1.777">
        <ele>73</ele>
        <time>2022-10-29T10:33:03Z</time>
      </trkpt>
      <trkpt lat="47.18322" lon="-1.77717">
        <ele>74</ele>
        <time>2022-10-29T10:33:05Z</time>
      </trkpt>
      <trkpt lat="47.18316" lon="-1.77734">
        <ele>74</ele>
        <time>2022-10-29T10:33:07Z</time>
      </trkpt>
      <trkpt lat="47.18309" lon="-1.77752">
        <ele>74</ele>
        <time>2022-10-29T10:33:09Z</time>
      </trkpt>
      <trkpt lat="47.18304" lon="-1.77769">
        <ele>74</ele>
        <time>2022-10-29T10:33:11Z</time>
      </trkpt>
      <trkpt lat="47.18298" lon="-1.77787">
        <ele>73</ele>
        <time>2022-10-29T10:33:13Z</time>
      </trkpt>
      <trkpt lat="47.18292" lon="-1.77805">
        <ele>73</ele>
        <time>2022-10-29T10:33:15Z</time>
      </trkpt>
      <trkpt lat="47.18287" lon="-1.77821">
        <ele>74</ele>
        <time>2022-10-29T10:33:17Z</time>
      </trkpt>
      <trkpt lat="47.18281" lon="-1.77838">
        <ele>74</ele>
        <time>2022-10-29T10:33:19Z</time>
      </trkpt>
      <trkpt lat="47.18278" lon="-1.77854">
        <ele>75</ele>
        <time>2022-10-29T10:33:21Z</time>
      </trkpt>
      <trkpt lat="47.18282" lon="-1.77869">
        <ele>75</ele>
        <time>2022-10-29T10:33:23Z</time>
      </trkpt>
      <trkpt lat="47.1829" lon="-1.77879">
        <ele>75</ele>
        <time>2022-10-29T10:33:25Z</time>
      </trkpt>
      <trkpt lat="47.18301" lon="-1.77888">
        <ele>75</ele>
        <time>2022-10-29T10:33:27Z</time>
      </trkpt>
      <trkpt lat="47.18312" lon="-1.77896">
        <ele>75</ele>
        <time>2022-10-29T10:33:29Z</time>
      </trkpt>
      <trkpt lat="47.18324" lon="-1.77899">
        <ele>75</ele>
        <time>2022-10-29T10:33:31Z</time>
      </trkpt>
      <trkpt lat="47.18336" lon="-1.779">
        <ele>75</ele>
        <time>2022-10-29T10:33:33Z</time>
      </trkpt>
      <trkpt lat="47.18347" lon="-1.77901">
        <ele>76</ele>
        <time>2022-10-29T10:33:35Z</time>
      </trkpt>
      <trkpt lat="47.18359" lon="-1.77901">
        <ele>76</ele>
        <time>2022-10-29T10:33:37Z</time>
      </trkpt>
      <trkpt lat="47.18371" lon="-1.77901">
        <ele>76</ele>
        <time>2022-10-29T10:33:39Z</time>
      </trkpt>
      <trkpt lat="47.18383" lon="-1.779">
        <ele>78</ele>
        <time>2022-10-29T10:33:41Z</time>
      </trkpt>
      <trkpt lat="47.18396" lon="-1.77899">
        <ele>79</ele>
        <time>2022-10-29T10:33:43Z</time>
      </trkpt>
      <trkpt lat="47.18409" lon="-1.77899">
        <ele>79</ele>
        <time>2022-10-29T10:33:45Z</time>
      </trkpt>
      <trkpt lat="47.18422" lon="-1.77899">
        <ele>80</ele>
        <time>2022-10-29T10:33:47Z</time>
      </trkpt>
      <trkpt lat="47.18433" lon="-1.77898">
        <ele>80</ele>
        <time>2022-10-29T10:33:49Z</time>
      </trkpt>
      <trkpt lat="47.18451" lon="-1.77896">
        <ele>81</ele>
        <time>2022-10-29T10:33:52Z</time>
      </trkpt>
      <trkpt lat="47.18468" lon="-1.77895">
        <ele>82</ele>
        <time>2022-10-29T10:33:55Z</time>
      </trkpt>
      <trkpt lat="47.1848" lon="-1.77895">
        <ele>81</ele>
        <time>2022-10-29T10:33:57Z</time>
      </trkpt>
      <trkpt lat="47.18499" lon="-1.77892">
        <ele>81</ele>
        <time>2022-10-29T10:34:00Z</time>
      </trkpt>
      <trkpt lat="47.18512" lon="-1.77885">
        <ele>81</ele>
        <time>2022-10-29T10:34:02Z</time>
      </trkpt>
      <trkpt lat="47.18524" lon="-1.77878">
        <ele>82</ele>
        <time>2022-10-29T10:34:04Z</time>
      </trkpt>
      <trkpt lat="47.18537" lon="-1.7788">
        <ele>81</ele>
        <time>2022-10-29T10:34:06Z</time>
      </trkpt>
      <trkpt lat="47.18546" lon="-1.77895">
        <ele>81</ele>
        <time>2022-10-29T10:34:08Z</time>
      </trkpt>
      <trkpt lat="47.1855" lon="-1.77913">
        <ele>81</ele>
        <time>2022-10-29T10:34:10Z</time>
      </trkpt>
      <trkpt lat="47.18558" lon="-1.77928">
        <ele>80</ele>
        <time>2022-10-29T10:34:12Z</time>
      </trkpt>
      <trkpt lat="47.18563" lon="-1.77946">
        <ele>80</ele>
        <time>2022-10-29T10:34:14Z</time>
      </trkpt>
      <trkpt lat="47.1856" lon="-1.77966">
        <ele>79</ele>
        <time>2022-10-29T10:34:16Z</time>
      </trkpt>
      <trkpt lat="47.18552" lon="-1.77983">
        <ele>79</ele>
        <time>2022-10-29T10:34:18Z</time>
      </trkpt>
      <trkpt lat="47.18542" lon="-1.77999">
        <ele>78</ele>
        <time>2022-10-29T10:34:20Z</time>
      </trkpt>
      <trkpt lat="47.18536" lon="-1.78017">
        <ele>78</ele>
        <time>2022-10-29T10:34:22Z</time>
      </trkpt>
      <trkpt lat="47.18532" lon="-1.78037">
        <ele>77</ele>
        <time>2022-10-29T10:34:24Z</time>
      </trkpt>
      <trkpt lat="47.18529" lon="-1.78058">
        <ele>77</ele>
        <time>2022-10-29T10:34:26Z</time>
      </trkpt>
      <trkpt lat="47.18527" lon="-1.78078">
        <ele>76</ele>
        <time>2022-10-29T10:34:28Z</time>
      </trkpt>
      <trkpt lat="47.18524" lon="-1.78099">
        <ele>76</ele>
        <time>2022-10-29T10:34:30Z</time>
      </trkpt>
      <trkpt lat="47.18522" lon="-1.78121">
        <ele>76</ele>
        <time>2022-10-29T10:34:32Z</time>
      </trkpt>
      <trkpt lat="47.1852" lon="-1.78143">
        <ele>75</ele>
        <time>2022-10-29T10:34:34Z</time>
      </trkpt>
      <trkpt lat="47.18519" lon="-1.78165">
        <ele>75</ele>
        <time>2022-10-29T10:34:36Z</time>
      </trkpt>
      <trkpt lat="47.18519" lon="-1.78187">
        <ele>75</ele>
        <time>2022-10-29T10:34:38Z</time>
      </trkpt>
      <trkpt lat="47.18519" lon="-1.78208">
        <ele>75</ele>
        <time>2022-10-29T10:34:40Z</time>
      </trkpt>
      <trkpt lat="47.1852" lon="-1.7823">
        <ele>74</ele>
        <time>2022-10-29T10:34:42Z</time>
      </trkpt>
      <trkpt lat="47.18522" lon="-1.78252">
        <ele>74</ele>
        <time>2022-10-29T10:34:44Z</time>
      </trkpt>
      <trkpt lat="47.18524" lon="-1.78274">
        <ele>74</ele>
        <time>2022-10-29T10:34:46Z</time>
      </trkpt>
      <trkpt lat="47.18527" lon="-1.78296">
        <ele>74</ele>
        <time>2022-10-29T10:34:48Z</time>
      </trkpt>
      <trkpt lat="47.18529" lon="-1.78318">
        <ele>73</ele>
        <time>2022-10-29T10:34:50Z</time>
      </trkpt>
      <trkpt lat="47.18532" lon="-1.7834">
        <ele>73</ele>
        <time>2022-10-29T10:34:52Z</time>
      </trkpt>
      <trkpt lat="47.18534" lon="-1.7836">
        <ele>72</ele>
        <time>2022-10-29T10:34:54Z</time>
      </trkpt>
      <trkpt lat="47.18536" lon="-1.78383">
        <ele>72</ele>
        <time>2022-10-29T10:34:56Z</time>
      </trkpt>
      <trkpt lat="47.18539" lon="-1.78405">
        <ele>71</ele>
        <time>2022-10-29T10:34:58Z</time>
      </trkpt>
      <trkpt lat="47.18541" lon="-1.78428">
        <ele>71</ele>
        <time>2022-10-29T10:35:00Z</time>
      </trkpt>
      <trkpt lat="47.18544" lon="-1.7845">
        <ele>71</ele>
        <time>2022-10-29T10:35:02Z</time>
      </trkpt>
      <trkpt lat="47.18547" lon="-1.78473">
        <ele>71</ele>
        <time>2022-10-29T10:35:04Z</time>
      </trkpt>
      <trkpt lat="47.18549" lon="-1.78496">
        <ele>71</ele>
        <time>2022-10-29T10:35:06Z</time>
      </trkpt>
      <trkpt lat="47.18552" lon="-1.78518">
        <ele>71</ele>
        <time>2022-10-29T10:35:08Z</time>
      </trkpt>
      <trkpt lat="47.18556" lon="-1.7854">
        <ele>71</ele>
        <time>2022-10-29T10:35:10Z</time>
      </trkpt>
      <trkpt lat="47.18562" lon="-1.78559">
        <ele>71</ele>
        <time>2022-10-29T10:35:12Z</time>
      </trkpt>
      <trkpt lat="47.18568" lon="-1.78578">
        <ele>71</ele>
        <time>2022-10-29T10:35:14Z</time>
      </trkpt>
      <trkpt lat="47.18575" lon="-1.78596">
        <ele>71</ele>
        <time>2022-10-29T10:35:16Z</time>
      </trkpt>
      <trkpt lat="47.18581" lon="-1.78614">
        <ele>71</ele>
        <time>2022-10-29T10:35:18Z</time>
      </trkpt>
      <trkpt lat="47.18588" lon="-1.78631">
        <ele>72</ele>
        <time>2022-10-29T10:35:20Z</time>
      </trkpt>
      <trkpt lat="47.18593" lon="-1.78648">
        <ele>72</ele>
        <time>2022-10-29T10:35:22Z</time>
      </trkpt>
      <trkpt lat="47.18599" lon="-1.78666">
        <ele>72</ele>
        <time>2022-10-29T10:35:24Z</time>
      </trkpt>
      <trkpt lat="47.18604" lon="-1.78685">
        <ele>72</ele>
        <time>2022-10-29T10:35:26Z</time>
      </trkpt>
      <trkpt lat="47.18608" lon="-1.78704">
        <ele>72</ele>
        <time>2022-10-29T10:35:28Z</time>
      </trkpt>
      <trkpt lat="47.18613" lon="-1.78722">
        <ele>72</ele>
        <time>2022-10-29T10:35:30Z</time>
      </trkpt>
      <trkpt lat="47.18618" lon="-1.78741">
        <ele>72</ele>
        <time>2022-10-29T10:35:32Z</time>
      </trkpt>
      <trkpt lat="47.18622" lon="-1.7876">
        <ele>72</ele>
        <time>2022-10-29T10:35:34Z</time>
      </trkpt>
      <trkpt lat="47.18627" lon="-1.78778">
        <ele>72</ele>
        <time>2022-10-29T10:35:36Z</time>
      </trkpt>
      <trkpt lat="47.18631" lon="-1.78796">
        <ele>73</ele>
        <time>2022-10-29T10:35:38Z</time>
      </trkpt>
      <trkpt lat="47.18637" lon="-1.78814">
        <ele>73</ele>
        <time>2022-10-29T10:35:40Z</time>
      </trkpt>
      <trkpt lat="47.18645" lon="-1.7883">
        <ele>73</ele>
        <time>2022-10-29T10:35:42Z</time>
      </trkpt>
      <trkpt lat="47.18654" lon="-1.78844">
        <ele>72</ele>
        <time>2022-10-29T10:35:44Z</time>
      </trkpt>
      <trkpt lat="47.18665" lon="-1.78855">
        <ele>72</ele>
        <time>2022-10-29T10:35:46Z</time>
      </trkpt>
      <trkpt lat="47.18677" lon="-1.78864">
        <ele>72</ele>
        <time>2022-10-29T10:35:48Z</time>
      </trkpt>
      <trkpt lat="47.18689" lon="-1.78872">
        <ele>72</ele>
        <time>2022-10-29T10:35:50Z</time>
      </trkpt>
      <trkpt lat="47.18701" lon="-1.7888">
        <ele>72</ele>
        <time>2022-10-29T10:35:52Z</time>
      </trkpt>
      <trkpt lat="47.18713" lon="-1.78886">
        <ele>72</ele>
        <time>2022-10-29T10:35:54Z</time>
      </trkpt>
      <trkpt lat="47.18723" lon="-1.78879">
        <ele>72</ele>
        <time>2022-10-29T10:35:56Z</time>
      </trkpt>
      <trkpt lat="47.18729" lon="-1.78861">
        <ele>73</ele>
        <time>2022-10-29T10:35:58Z</time>
      </trkpt>
      <trkpt lat="47.18735" lon="-1.78843">
        <ele>74</ele>
        <time>2022-10-29T10:36:00Z</time>
      </trkpt>
      <trkpt lat="47.18741" lon="-1.78825">
        <ele>75</ele>
        <time>2022-10-29T10:36:02Z</time>
      </trkpt>
      <trkpt lat="47.18748" lon="-1.78807">
        <ele>75</ele>
        <time>2022-10-29T10:36:04Z</time>
      </trkpt>
      <trkpt lat="47.18754" lon="-1.78789">
        <ele>75</ele>
        <time>2022-10-29T10:36:06Z</time>
      </trkpt>
      <trkpt lat="47.18762" lon="-1.78772">
        <ele>76</ele>
        <time>2022-10-29T10:36:08Z</time>
      </trkpt>
      <trkpt lat="47.18769" lon="-1.78755">
        <ele>76</ele>
        <time>2022-10-29T10:36:10Z</time>
      </trkpt>
      <trkpt lat="47.18778" lon="-1.78739">
        <ele>77</ele>
        <time>2022-10-29T10:36:12Z</time>
      </trkpt>
      <trkpt lat="47.18788" lon="-1.78724">
        <ele>78</ele>
        <time>2022-10-29T10:36:14Z</time>
      </trkpt>
      <trkpt lat="47.188" lon="-1.78711">
        <ele>78</ele>
        <time>2022-10-29T10:36:16Z</time>
      </trkpt>
      <trkpt lat="47.18811" lon="-1.78698">
        <ele>78</ele>
        <time>2022-10-29T10:36:18Z</time>
      </trkpt>
      <trkpt lat="47.18823" lon="-1.78685">
        <ele>78</ele>
        <time>2022-10-29T10:36:20Z</time>
      </trkpt>
      <trkpt lat="47.18834" lon="-1.78673">
        <ele>78</ele>
        <time>2022-10-29T10:36:22Z</time>
      </trkpt>
      <trkpt lat="47.18845" lon="-1.78662">
        <ele>79</ele>
        <time>2022-10-29T10:36:24Z</time>
      </trkpt>
      <trkpt lat="47.18855" lon="-1.78655">
        <ele>81</ele>
        <time>2022-10-29T10:36:26Z</time>
      </trkpt>
      <trkpt lat="47.18865" lon="-1.78664">
        <ele>80</ele>
        <time>2022-10-29T10:36:28Z</time>
      </trkpt>
      <trkpt lat="47.18869" lon="-1.78683">
        <ele>79</ele>
        <time>2022-10-29T10:36:30Z</time>
      </trkpt>
      <trkpt lat="47.18872" lon="-1.78704">
        <ele>77</ele>
        <time>2022-10-29T10:36:32Z</time>
      </trkpt>
      <trkpt lat="47.18875" lon="-1.78727">
        <ele>75</ele>
        <time>2022-10-29T10:36:34Z</time>
      </trkpt>
      <trkpt lat="47.18878" lon="-1.7875">
        <ele>75</ele>
        <time>2022-10-29T10:36:36Z</time>
      </trkpt>
      <trkpt lat="47.1888" lon="-1.78771">
        <ele>74</ele>
        <time>2022-10-29T10:36:38Z</time>
      </trkpt>
      <trkpt lat="47.18882" lon="-1.78793">
        <ele>74</ele>
        <time>2022-10-29T10:36:40Z</time>
      </trkpt>
      <trkpt lat="47.18885" lon="-1.78816">
        <ele>74</ele>
        <time>2022-10-29T10:36:42Z</time>
      </trkpt>
      <trkpt lat="47.18886" lon="-1.78837">
        <ele>73</ele>
        <time>2022-10-29T10:36:44Z</time>
      </trkpt>
      <trkpt lat="47.18888" lon="-1.78858">
        <ele>73</ele>
        <time>2022-10-29T10:36:46Z</time>
      </trkpt>
      <trkpt lat="47.1889" lon="-1.7888">
        <ele>73</ele>
        <time>2022-10-29T10:36:48Z</time>
      </trkpt>
      <trkpt lat="47.18892" lon="-1.78903">
        <ele>72</ele>
        <time>2022-10-29T10:36:50Z</time>
      </trkpt>
      <trkpt lat="47.18894" lon="-1.78926">
        <ele>71</ele>
        <time>2022-10-29T10:36:52Z</time>
      </trkpt>
      <trkpt lat="47.18896" lon="-1.78947">
        <ele>71</ele>
        <time>2022-10-29T10:36:54Z</time>
      </trkpt>
      <trkpt lat="47.18898" lon="-1.7897">
        <ele>70</ele>
        <time>2022-10-29T10:36:56Z</time>
      </trkpt>
      <trkpt lat="47.189" lon="-1.78991">
        <ele>70</ele>
        <time>2022-10-29T10:36:58Z</time>
      </trkpt>
      <trkpt lat="47.18902" lon="-1.79011">
        <ele>70</ele>
        <time>2022-10-29T10:37:00Z</time>
      </trkpt>
      <trkpt lat="47.18904" lon="-1.79032">
        <ele>70</ele>
        <time>2022-10-29T10:37:02Z</time>
      </trkpt>
      <trkpt lat="47.18905" lon="-1.79054">
        <ele>69</ele>
        <time>2022-10-29T10:37:04Z</time>
      </trkpt>
      <trkpt lat="47.18908" lon="-1.79077">
        <ele>69</ele>
        <time>2022-10-29T10:37:06Z</time>
      </trkpt>
      <trkpt lat="47.1891" lon="-1.79099">
        <ele>69</ele>
        <time>2022-10-29T10:37:08Z</time>
      </trkpt>
      <trkpt lat="47.18912" lon="-1.79121">
        <ele>69</ele>
        <time>2022-10-29T10:37:10Z</time>
      </trkpt>
      <trkpt lat="47.18914" lon="-1.79143">
        <ele>69</ele>
        <time>2022-10-29T10:37:12Z</time>
      </trkpt>
      <trkpt lat="47.18917" lon="-1.79164">
        <ele>69</ele>
        <time>2022-10-29T10:37:14Z</time>
      </trkpt>
      <trkpt lat="47.18922" lon="-1.79186">
        <ele>69</ele>
        <time>2022-10-29T10:37:16Z</time>
      </trkpt>
      <trkpt lat="47.18927" lon="-1.79208">
        <ele>69</ele>
        <time>2022-10-29T10:37:18Z</time>
      </trkpt>
      <trkpt lat="47.18932" lon="-1.7923">
        <ele>68</ele>
        <time>2022-10-29T10:37:20Z</time>
      </trkpt>
      <trkpt lat="47.18936" lon="-1.79252">
        <ele>68</ele>
        <time>2022-10-29T10:37:22Z</time>
      </trkpt>
      <trkpt lat="47.18942" lon="-1.79273">
        <ele>68</ele>
        <time>2022-10-29T10:37:24Z</time>
      </trkpt>
      <trkpt lat="47.18946" lon="-1.79295">
        <ele>68</ele>
        <time>2022-10-29T10:37:26Z</time>
      </trkpt>
      <trkpt lat="47.1895" lon="-1.79317">
        <ele>68</ele>
        <time>2022-10-29T10:37:28Z</time>
      </trkpt>
      <trkpt lat="47.18953" lon="-1.79338">
        <ele>69</ele>
        <time>2022-10-29T10:37:30Z</time>
      </trkpt>
      <trkpt lat="47.18955" lon="-1.79357">
        <ele>69</ele>
        <time>2022-10-29T10:37:32Z</time>
      </trkpt>
      <trkpt lat="47.18958" lon="-1.79378">
        <ele>68</ele>
        <time>2022-10-29T10:37:34Z</time>
      </trkpt>
      <trkpt lat="47.18962" lon="-1.79401">
        <ele>68</ele>
        <time>2022-10-29T10:37:36Z</time>
      </trkpt>
      <trkpt lat="47.18966" lon="-1.79423">
        <ele>69</ele>
        <time>2022-10-29T10:37:38Z</time>
      </trkpt>
      <trkpt lat="47.1897" lon="-1.79443">
        <ele>68</ele>
        <time>2022-10-29T10:37:40Z</time>
      </trkpt>
      <trkpt lat="47.18973" lon="-1.79463">
        <ele>68</ele>
        <time>2022-10-29T10:37:42Z</time>
      </trkpt>
      <trkpt lat="47.18976" lon="-1.79483">
        <ele>68</ele>
        <time>2022-10-29T10:37:44Z</time>
      </trkpt>
      <trkpt lat="47.1898" lon="-1.79504">
        <ele>68</ele>
        <time>2022-10-29T10:37:46Z</time>
      </trkpt>
      <trkpt lat="47.18985" lon="-1.79524">
        <ele>69</ele>
        <time>2022-10-29T10:37:48Z</time>
      </trkpt>
      <trkpt lat="47.1899" lon="-1.79547">
        <ele>68</ele>
        <time>2022-10-29T10:37:50Z</time>
      </trkpt>
      <trkpt lat="47.18996" lon="-1.79567">
        <ele>68</ele>
        <time>2022-10-29T10:37:52Z</time>
      </trkpt>
      <trkpt lat="47.19" lon="-1.79586">
        <ele>67</ele>
        <time>2022-10-29T10:37:54Z</time>
      </trkpt>
      <trkpt lat="47.19004" lon="-1.79607">
        <ele>67</ele>
        <time>2022-10-29T10:37:56Z</time>
      </trkpt>
      <trkpt lat="47.19009" lon="-1.79627">
        <ele>68</ele>
        <time>2022-10-29T10:37:58Z</time>
      </trkpt>
      <trkpt lat="47.19014" lon="-1.79648">
        <ele>67</ele>
        <time>2022-10-29T10:38:00Z</time>
      </trkpt>
      <trkpt lat="47.19018" lon="-1.79668">
        <ele>67</ele>
        <time>2022-10-29T10:38:02Z</time>
      </trkpt>
      <trkpt lat="47.19023" lon="-1.79687">
        <ele>67</ele>
        <time>2022-10-29T10:38:04Z</time>
      </trkpt>
      <trkpt lat="47.19028" lon="-1.79707">
        <ele>67</ele>
        <time>2022-10-29T10:38:06Z</time>
      </trkpt>
      <trkpt lat="47.19034" lon="-1.79726">
        <ele>67</ele>
        <time>2022-10-29T10:38:08Z</time>
      </trkpt>
      <trkpt lat="47.19039" lon="-1.79744">
        <ele>66</ele>
        <time>2022-10-29T10:38:10Z</time>
      </trkpt>
      <trkpt lat="47.19045" lon="-1.79761">
        <ele>66</ele>
        <time>2022-10-29T10:38:12Z</time>
      </trkpt>
      <trkpt lat="47.19052" lon="-1.79775">
        <ele>67</ele>
        <time>2022-10-29T10:38:14Z</time>
      </trkpt>
      <trkpt lat="47.19059" lon="-1.79792">
        <ele>67</ele>
        <time>2022-10-29T10:38:16Z</time>
      </trkpt>
      <trkpt lat="47.19067" lon="-1.79809">
        <ele>68</ele>
        <time>2022-10-29T10:38:18Z</time>
      </trkpt>
      <trkpt lat="47.19074" lon="-1.7983">
        <ele>68</ele>
        <time>2022-10-29T10:38:20Z</time>
      </trkpt>
      <trkpt lat="47.19083" lon="-1.79848">
        <ele>68</ele>
        <time>2022-10-29T10:38:22Z</time>
      </trkpt>
      <trkpt lat="47.19091" lon="-1.79866">
        <ele>68</ele>
        <time>2022-10-29T10:38:24Z</time>
      </trkpt>
      <trkpt lat="47.191" lon="-1.79885">
        <ele>68</ele>
        <time>2022-10-29T10:38:26Z</time>
      </trkpt>
      <trkpt lat="47.19106" lon="-1.79903">
        <ele>69</ele>
        <time>2022-10-29T10:38:28Z</time>
      </trkpt>
      <trkpt lat="47.19113" lon="-1.79921">
        <ele>70</ele>
        <time>2022-10-29T10:38:30Z</time>
      </trkpt>
      <trkpt lat="47.19121" lon="-1.79938">
        <ele>70</ele>
        <time>2022-10-29T10:38:32Z</time>
      </trkpt>
      <trkpt lat="47.19128" lon="-1.79955">
        <ele>70</ele>
        <time>2022-10-29T10:38:34Z</time>
      </trkpt>
      <trkpt lat="47.19135" lon="-1.79972">
        <ele>70</ele>
        <time>2022-10-29T10:38:36Z</time>
      </trkpt>
      <trkpt lat="47.19143" lon="-1.79989">
        <ele>70</ele>
        <time>2022-10-29T10:38:38Z</time>
      </trkpt>
      <trkpt lat="47.19149" lon="-1.80004">
        <ele>69</ele>
        <time>2022-10-29T10:38:40Z</time>
      </trkpt>
      <trkpt lat="47.19156" lon="-1.80019">
        <ele>69</ele>
        <time>2022-10-29T10:38:42Z</time>
      </trkpt>
      <trkpt lat="47.19164" lon="-1.80034">
        <ele>69</ele>
        <time>2022-10-29T10:38:44Z</time>
      </trkpt>
      <trkpt lat="47.19172" lon="-1.80051">
        <ele>68</ele>
        <time>2022-10-29T10:38:46Z</time>
      </trkpt>
      <trkpt lat="47.1918" lon="-1.80068">
        <ele>68</ele>
        <time>2022-10-29T10:38:48Z</time>
      </trkpt>
      <trkpt lat="47.19188" lon="-1.80085">
        <ele>68</ele>
        <time>2022-10-29T10:38:50Z</time>
      </trkpt>
      <trkpt lat="47.19196" lon="-1.80102">
        <ele>69</ele>
        <time>2022-10-29T10:38:52Z</time>
      </trkpt>
      <trkpt lat="47.19204" lon="-1.80119">
        <ele>69</ele>
        <time>2022-10-29T10:38:54Z</time>
      </trkpt>
      <trkpt lat="47.19212" lon="-1.80135">
        <ele>69</ele>
        <time>2022-10-29T10:38:56Z</time>
      </trkpt>
      <trkpt lat="47.1922" lon="-1.80153">
        <ele>69</ele>
        <time>2022-10-29T10:38:58Z</time>
      </trkpt>
      <trkpt lat="47.19227" lon="-1.80171">
        <ele>68</ele>
        <time>2022-10-29T10:39:00Z</time>
      </trkpt>
      <trkpt lat="47.19234" lon="-1.8019">
        <ele>68</ele>
        <time>2022-10-29T10:39:02Z</time>
      </trkpt>
      <trkpt lat="47.1924" lon="-1.8021">
        <ele>68</ele>
        <time>2022-10-29T10:39:04Z</time>
      </trkpt>
      <trkpt lat="47.19246" lon="-1.80231">
        <ele>67</ele>
        <time>2022-10-29T10:39:06Z</time>
      </trkpt>
      <trkpt lat="47.19251" lon="-1.80251">
        <ele>67</ele>
        <time>2022-10-29T10:39:08Z</time>
      </trkpt>
      <trkpt lat="47.19257" lon="-1.80272">
        <ele>67</ele>
        <time>2022-10-29T10:39:10Z</time>
      </trkpt>
      <trkpt lat="47.19262" lon="-1.80292">
        <ele>66</ele>
        <time>2022-10-29T10:39:12Z</time>
      </trkpt>
      <trkpt lat="47.19268" lon="-1.80312">
        <ele>67</ele>
        <time>2022-10-29T10:39:14Z</time>
      </trkpt>
      <trkpt lat="47.19274" lon="-1.80332">
        <ele>66</ele>
        <time>2022-10-29T10:39:16Z</time>
      </trkpt>
      <trkpt lat="47.19281" lon="-1.80351">
        <ele>66</ele>
        <time>2022-10-29T10:39:18Z</time>
      </trkpt>
      <trkpt lat="47.19286" lon="-1.80372">
        <ele>66</ele>
        <time>2022-10-29T10:39:20Z</time>
      </trkpt>
      <trkpt lat="47.19293" lon="-1.80392">
        <ele>65</ele>
        <time>2022-10-29T10:39:22Z</time>
      </trkpt>
      <trkpt lat="47.193" lon="-1.80413">
        <ele>65</ele>
        <time>2022-10-29T10:39:24Z</time>
      </trkpt>
      <trkpt lat="47.19307" lon="-1.80434">
        <ele>65</ele>
        <time>2022-10-29T10:39:26Z</time>
      </trkpt>
      <trkpt lat="47.19314" lon="-1.80455">
        <ele>65</ele>
        <time>2022-10-29T10:39:28Z</time>
      </trkpt>
      <trkpt lat="47.1932" lon="-1.80476">
        <ele>65</ele>
        <time>2022-10-29T10:39:30Z</time>
      </trkpt>
      <trkpt lat="47.19328" lon="-1.80496">
        <ele>64</ele>
        <time>2022-10-29T10:39:32Z</time>
      </trkpt>
      <trkpt lat="47.19335" lon="-1.80516">
        <ele>64</ele>
        <time>2022-10-29T10:39:34Z</time>
      </trkpt>
      <trkpt lat="47.19341" lon="-1.80538">
        <ele>63</ele>
        <time>2022-10-29T10:39:36Z</time>
      </trkpt>
      <trkpt lat="47.19346" lon="-1.8056">
        <ele>63</ele>
        <time>2022-10-29T10:39:38Z</time>
      </trkpt>
      <trkpt lat="47.1935" lon="-1.80581">
        <ele>63</ele>
        <time>2022-10-29T10:39:40Z</time>
      </trkpt>
      <trkpt lat="47.19353" lon="-1.80603">
        <ele>63</ele>
        <time>2022-10-29T10:39:42Z</time>
      </trkpt>
      <trkpt lat="47.19355" lon="-1.80623">
        <ele>62</ele>
        <time>2022-10-29T10:39:44Z</time>
      </trkpt>
      <trkpt lat="47.19357" lon="-1.80644">
        <ele>61</ele>
        <time>2022-10-29T10:39:46Z</time>
      </trkpt>
      <trkpt lat="47.19357" lon="-1.80667">
        <ele>60</ele>
        <time>2022-10-29T10:39:48Z</time>
      </trkpt>
      <trkpt lat="47.19355" lon="-1.80689">
        <ele>60</ele>
        <time>2022-10-29T10:39:50Z</time>
      </trkpt>
      <trkpt lat="47.19352" lon="-1.80709">
        <ele>59</ele>
        <time>2022-10-29T10:39:52Z</time>
      </trkpt>
      <trkpt lat="47.19349" lon="-1.80728">
        <ele>60</ele>
        <time>2022-10-29T10:39:54Z</time>
      </trkpt>
      <trkpt lat="47.19349" lon="-1.80744">
        <ele>60</ele>
        <time>2022-10-29T10:39:56Z</time>
      </trkpt>
      <trkpt lat="47.19352" lon="-1.80762">
        <ele>61</ele>
        <time>2022-10-29T10:39:58Z</time>
      </trkpt>
      <trkpt lat="47.19357" lon="-1.80782">
        <ele>61</ele>
        <time>2022-10-29T10:40:00Z</time>
      </trkpt>
      <trkpt lat="47.19363" lon="-1.80804">
        <ele>61</ele>
        <time>2022-10-29T10:40:02Z</time>
      </trkpt>
      <trkpt lat="47.19368" lon="-1.80825">
        <ele>61</ele>
        <time>2022-10-29T10:40:04Z</time>
      </trkpt>
      <trkpt lat="47.19371" lon="-1.80847">
        <ele>60</ele>
        <time>2022-10-29T10:40:06Z</time>
      </trkpt>
      <trkpt lat="47.19374" lon="-1.80868">
        <ele>60</ele>
        <time>2022-10-29T10:40:08Z</time>
      </trkpt>
      <trkpt lat="47.19376" lon="-1.8089">
        <ele>60</ele>
        <time>2022-10-29T10:40:10Z</time>
      </trkpt>
      <trkpt lat="47.19379" lon="-1.80911">
        <ele>60</ele>
        <time>2022-10-29T10:40:12Z</time>
      </trkpt>
      <trkpt lat="47.19381" lon="-1.80932">
        <ele>59</ele>
        <time>2022-10-29T10:40:14Z</time>
      </trkpt>
      <trkpt lat="47.19383" lon="-1.80954">
        <ele>59</ele>
        <time>2022-10-29T10:40:16Z</time>
      </trkpt>
      <trkpt lat="47.19386" lon="-1.80975">
        <ele>59</ele>
        <time>2022-10-29T10:40:18Z</time>
      </trkpt>
      <trkpt lat="47.19388" lon="-1.80996">
        <ele>59</ele>
        <time>2022-10-29T10:40:20Z</time>
      </trkpt>
      <trkpt lat="47.19389" lon="-1.81017">
        <ele>59</ele>
        <time>2022-10-29T10:40:22Z</time>
      </trkpt>
      <trkpt lat="47.19393" lon="-1.81038">
        <ele>58</ele>
        <time>2022-10-29T10:40:24Z</time>
      </trkpt>
      <trkpt lat="47.19396" lon="-1.81058">
        <ele>59</ele>
        <time>2022-10-29T10:40:26Z</time>
      </trkpt>
      <trkpt lat="47.19398" lon="-1.81078">
        <ele>59</ele>
        <time>2022-10-29T10:40:28Z</time>
      </trkpt>
      <trkpt lat="47.19399" lon="-1.81095">
        <ele>58</ele>
        <time>2022-10-29T10:40:30Z</time>
      </trkpt>
      <trkpt lat="47.19404" lon="-1.8111">
        <ele>58</ele>
        <time>2022-10-29T10:40:32Z</time>
      </trkpt>
      <trkpt lat="47.19416" lon="-1.81118">
        <ele>58</ele>
        <time>2022-10-29T10:40:34Z</time>
      </trkpt>
      <trkpt lat="47.1943" lon="-1.81119">
        <ele>58</ele>
        <time>2022-10-29T10:40:36Z</time>
      </trkpt>
      <trkpt lat="47.19445" lon="-1.81119">
        <ele>58</ele>
        <time>2022-10-29T10:40:38Z</time>
      </trkpt>
      <trkpt lat="47.1946" lon="-1.81118">
        <ele>58</ele>
        <time>2022-10-29T10:40:40Z</time>
      </trkpt>
      <trkpt lat="47.19476" lon="-1.81119">
        <ele>58</ele>
        <time>2022-10-29T10:40:42Z</time>
      </trkpt>
      <trkpt lat="47.19491" lon="-1.81118">
        <ele>58</ele>
        <time>2022-10-29T10:40:44Z</time>
      </trkpt>
      <trkpt lat="47.19505" lon="-1.81117">
        <ele>58</ele>
        <time>2022-10-29T10:40:46Z</time>
      </trkpt>
      <trkpt lat="47.1952" lon="-1.81116">
        <ele>58</ele>
        <time>2022-10-29T10:40:48Z</time>
      </trkpt>
      <trkpt lat="47.19536" lon="-1.81116">
        <ele>57</ele>
        <time>2022-10-29T10:40:50Z</time>
      </trkpt>
      <trkpt lat="47.19551" lon="-1.81115">
        <ele>57</ele>
        <time>2022-10-29T10:40:52Z</time>
      </trkpt>
      <trkpt lat="47.19567" lon="-1.81115">
        <ele>56</ele>
        <time>2022-10-29T10:40:54Z</time>
      </trkpt>
      <trkpt lat="47.19583" lon="-1.81115">
        <ele>56</ele>
        <time>2022-10-29T10:40:56Z</time>
      </trkpt>
      <trkpt lat="47.19598" lon="-1.81116">
        <ele>56</ele>
        <time>2022-10-29T10:40:58Z</time>
      </trkpt>
      <trkpt lat="47.19614" lon="-1.81116">
        <ele>56</ele>
        <time>2022-10-29T10:41:00Z</time>
      </trkpt>
      <trkpt lat="47.19629" lon="-1.81115">
        <ele>56</ele>
        <time>2022-10-29T10:41:02Z</time>
      </trkpt>
      <trkpt lat="47.19645" lon="-1.81115">
        <ele>56</ele>
        <time>2022-10-29T10:41:04Z</time>
      </trkpt>
      <trkpt lat="47.1966" lon="-1.81115">
        <ele>56</ele>
        <time>2022-10-29T10:41:06Z</time>
      </trkpt>
      <trkpt lat="47.19675" lon="-1.81115">
        <ele>56</ele>
        <time>2022-10-29T10:41:08Z</time>
      </trkpt>
      <trkpt lat="47.19688" lon="-1.81115">
        <ele>56</ele>
        <time>2022-10-29T10:41:10Z</time>
      </trkpt>
      <trkpt lat="47.19697" lon="-1.81115">
        <ele>56</ele>
        <time>2022-10-29T10:41:12Z</time>
      </trkpt>
      <trkpt lat="47.19706" lon="-1.81129">
        <ele>55</ele>
        <time>2022-10-29T10:41:15Z</time>
      </trkpt>
      <trkpt lat="47.19709" lon="-1.81146">
        <ele>55</ele>
        <time>2022-10-29T10:41:17Z</time>
      </trkpt>
      <trkpt lat="47.19713" lon="-1.81165">
        <ele>54</ele>
        <time>2022-10-29T10:41:19Z</time>
      </trkpt>
      <trkpt lat="47.19717" lon="-1.81183">
        <ele>54</ele>
        <time>2022-10-29T10:41:21Z</time>
      </trkpt>
      <trkpt lat="47.19723" lon="-1.812">
        <ele>54</ele>
        <time>2022-10-29T10:41:23Z</time>
      </trkpt>
      <trkpt lat="47.1973" lon="-1.81216">
        <ele>54</ele>
        <time>2022-10-29T10:41:25Z</time>
      </trkpt>
      <trkpt lat="47.19739" lon="-1.81231">
        <ele>54</ele>
        <time>2022-10-29T10:41:27Z</time>
      </trkpt>
      <trkpt lat="47.19748" lon="-1.81244">
        <ele>54</ele>
        <time>2022-10-29T10:41:29Z</time>
      </trkpt>
      <trkpt lat="47.19757" lon="-1.81258">
        <ele>54</ele>
        <time>2022-10-29T10:41:31Z</time>
      </trkpt>
      <trkpt lat="47.19765" lon="-1.81273">
        <ele>54</ele>
        <time>2022-10-29T10:41:33Z</time>
      </trkpt>
      <trkpt lat="47.19772" lon="-1.8129">
        <ele>55</ele>
        <time>2022-10-29T10:41:35Z</time>
      </trkpt>
      <trkpt lat="47.19777" lon="-1.81305">
        <ele>55</ele>
        <time>2022-10-29T10:41:37Z</time>
      </trkpt>
      <trkpt lat="47.19782" lon="-1.81321">
        <ele>55</ele>
        <time>2022-10-29T10:41:39Z</time>
      </trkpt>
      <trkpt lat="47.19787" lon="-1.81337">
        <ele>55</ele>
        <time>2022-10-29T10:41:41Z</time>
      </trkpt>
      <trkpt lat="47.19792" lon="-1.81354">
        <ele>55</ele>
        <time>2022-10-29T10:41:43Z</time>
      </trkpt>
      <trkpt lat="47.19797" lon="-1.8137">
        <ele>56</ele>
        <time>2022-10-29T10:41:45Z</time>
      </trkpt>
      <trkpt lat="47.19802" lon="-1.81387">
        <ele>56</ele>
        <time>2022-10-29T10:41:47Z</time>
      </trkpt>
      <trkpt lat="47.19806" lon="-1.81403">
        <ele>57</ele>
        <time>2022-10-29T10:41:49Z</time>
      </trkpt>
      <trkpt lat="47.19811" lon="-1.81418">
        <ele>57</ele>
        <time>2022-10-29T10:41:51Z</time>
      </trkpt>
      <trkpt lat="47.19816" lon="-1.81434">
        <ele>57</ele>
        <time>2022-10-29T10:41:53Z</time>
      </trkpt>
      <trkpt lat="47.19822" lon="-1.8145">
        <ele>57</ele>
        <time>2022-10-29T10:41:55Z</time>
      </trkpt>
      <trkpt lat="47.19827" lon="-1.81465">
        <ele>58</ele>
        <time>2022-10-29T10:41:57Z</time>
      </trkpt>
      <trkpt lat="47.19832" lon="-1.81481">
        <ele>58</ele>
        <time>2022-10-29T10:41:59Z</time>
      </trkpt>
      <trkpt lat="47.19838" lon="-1.81495">
        <ele>59</ele>
        <time>2022-10-29T10:42:01Z</time>
      </trkpt>
      <trkpt lat="47.19844" lon="-1.8151">
        <ele>59</ele>
        <time>2022-10-29T10:42:03Z</time>
      </trkpt>
      <trkpt lat="47.1985" lon="-1.81526">
        <ele>60</ele>
        <time>2022-10-29T10:42:05Z</time>
      </trkpt>
      <trkpt lat="47.19856" lon="-1.81543">
        <ele>59</ele>
        <time>2022-10-29T10:42:07Z</time>
      </trkpt>
      <trkpt lat="47.19861" lon="-1.81559">
        <ele>60</ele>
        <time>2022-10-29T10:42:09Z</time>
      </trkpt>
      <trkpt lat="47.19867" lon="-1.81575">
        <ele>60</ele>
        <time>2022-10-29T10:42:11Z</time>
      </trkpt>
      <trkpt lat="47.19871" lon="-1.81592">
        <ele>60</ele>
        <time>2022-10-29T10:42:13Z</time>
      </trkpt>
      <trkpt lat="47.19874" lon="-1.81608">
        <ele>60</ele>
        <time>2022-10-29T10:42:15Z</time>
      </trkpt>
      <trkpt lat="47.19878" lon="-1.81626">
        <ele>60</ele>
        <time>2022-10-29T10:42:17Z</time>
      </trkpt>
      <trkpt lat="47.1988" lon="-1.81644">
        <ele>60</ele>
        <time>2022-10-29T10:42:19Z</time>
      </trkpt>
      <trkpt lat="47.19883" lon="-1.81661">
        <ele>60</ele>
        <time>2022-10-29T10:42:21Z</time>
      </trkpt>
      <trkpt lat="47.19885" lon="-1.81678">
        <ele>60</ele>
        <time>2022-10-29T10:42:23Z</time>
      </trkpt>
      <trkpt lat="47.19887" lon="-1.81695">
        <ele>60</ele>
        <time>2022-10-29T10:42:25Z</time>
      </trkpt>
      <trkpt lat="47.1989" lon="-1.81711">
        <ele>61</ele>
        <time>2022-10-29T10:42:27Z</time>
      </trkpt>
      <trkpt lat="47.19893" lon="-1.81728">
        <ele>61</ele>
        <time>2022-10-29T10:42:29Z</time>
      </trkpt>
      <trkpt lat="47.19896" lon="-1.81745">
        <ele>62</ele>
        <time>2022-10-29T10:42:31Z</time>
      </trkpt>
      <trkpt lat="47.19899" lon="-1.81762">
        <ele>61</ele>
        <time>2022-10-29T10:42:33Z</time>
      </trkpt>
      <trkpt lat="47.19903" lon="-1.81778">
        <ele>61</ele>
        <time>2022-10-29T10:42:35Z</time>
      </trkpt>
      <trkpt lat="47.19907" lon="-1.81794">
        <ele>62</ele>
        <time>2022-10-29T10:42:37Z</time>
      </trkpt>
      <trkpt lat="47.19911" lon="-1.81811">
        <ele>62</ele>
        <time>2022-10-29T10:42:39Z</time>
      </trkpt>
      <trkpt lat="47.19915" lon="-1.81828">
        <ele>62</ele>
        <time>2022-10-29T10:42:41Z</time>
      </trkpt>
      <trkpt lat="47.19918" lon="-1.81846">
        <ele>63</ele>
        <time>2022-10-29T10:42:43Z</time>
      </trkpt>
      <trkpt lat="47.19921" lon="-1.81863">
        <ele>63</ele>
        <time>2022-10-29T10:42:45Z</time>
      </trkpt>
      <trkpt lat="47.19924" lon="-1.81881">
        <ele>63</ele>
        <time>2022-10-29T10:42:47Z</time>
      </trkpt>
      <trkpt lat="47.19927" lon="-1.81898">
        <ele>63</ele>
        <time>2022-10-29T10:42:49Z</time>
      </trkpt>
      <trkpt lat="47.1993" lon="-1.81914">
        <ele>63</ele>
        <time>2022-10-29T10:42:51Z</time>
      </trkpt>
      <trkpt lat="47.19933" lon="-1.81932">
        <ele>64</ele>
        <time>2022-10-29T10:42:53Z</time>
      </trkpt>
      <trkpt lat="47.19936" lon="-1.81949">
        <ele>63</ele>
        <time>2022-10-29T10:42:55Z</time>
      </trkpt>
      <trkpt lat="47.19939" lon="-1.81967">
        <ele>63</ele>
        <time>2022-10-29T10:42:57Z</time>
      </trkpt>
      <trkpt lat="47.19942" lon="-1.81986">
        <ele>63</ele>
        <time>2022-10-29T10:42:59Z</time>
      </trkpt>
      <trkpt lat="47.19945" lon="-1.82003">
        <ele>63</ele>
        <time>2022-10-29T10:43:01Z</time>
      </trkpt>
      <trkpt lat="47.19947" lon="-1.82021">
        <ele>63</ele>
        <time>2022-10-29T10:43:03Z</time>
      </trkpt>
      <trkpt lat="47.19951" lon="-1.82039">
        <ele>63</ele>
        <time>2022-10-29T10:43:05Z</time>
      </trkpt>
      <trkpt lat="47.19954" lon="-1.82057">
        <ele>64</ele>
        <time>2022-10-29T10:43:07Z</time>
      </trkpt>
      <trkpt lat="47.19957" lon="-1.82074">
        <ele>64</ele>
        <time>2022-10-29T10:43:09Z</time>
      </trkpt>
      <trkpt lat="47.19959" lon="-1.82092">
        <ele>64</ele>
        <time>2022-10-29T10:43:11Z</time>
      </trkpt>
      <trkpt lat="47.19961" lon="-1.82109">
        <ele>64</ele>
        <time>2022-10-29T10:43:13Z</time>
      </trkpt>
      <trkpt lat="47.1996" lon="-1.82126">
        <ele>65</ele>
        <time>2022-10-29T10:43:15Z</time>
      </trkpt>
      <trkpt lat="47.19957" lon="-1.82143">
        <ele>65</ele>
        <time>2022-10-29T10:43:17Z</time>
      </trkpt>
      <trkpt lat="47.19952" lon="-1.82159">
        <ele>65</ele>
        <time>2022-10-29T10:43:19Z</time>
      </trkpt>
      <trkpt lat="47.19946" lon="-1.82174">
        <ele>65</ele>
        <time>2022-10-29T10:43:21Z</time>
      </trkpt>
      <trkpt lat="47.1994" lon="-1.82188">
        <ele>66</ele>
        <time>2022-10-29T10:43:23Z</time>
      </trkpt>
      <trkpt lat="47.19934" lon="-1.82203">
        <ele>65</ele>
        <time>2022-10-29T10:43:25Z</time>
      </trkpt>
      <trkpt lat="47.19927" lon="-1.82218">
        <ele>66</ele>
        <time>2022-10-29T10:43:27Z</time>
      </trkpt>
      <trkpt lat="47.19921" lon="-1.82233">
        <ele>66</ele>
        <time>2022-10-29T10:43:29Z</time>
      </trkpt>
      <trkpt lat="47.19915" lon="-1.82247">
        <ele>67</ele>
        <time>2022-10-29T10:43:31Z</time>
      </trkpt>
      <trkpt lat="47.19909" lon="-1.82262">
        <ele>67</ele>
        <time>2022-10-29T10:43:33Z</time>
      </trkpt>
      <trkpt lat="47.19903" lon="-1.82277">
        <ele>67</ele>
        <time>2022-10-29T10:43:35Z</time>
      </trkpt>
      <trkpt lat="47.19897" lon="-1.82291">
        <ele>67</ele>
        <time>2022-10-29T10:43:37Z</time>
      </trkpt>
      <trkpt lat="47.19891" lon="-1.82306">
        <ele>68</ele>
        <time>2022-10-29T10:43:39Z</time>
      </trkpt>
      <trkpt lat="47.19884" lon="-1.82322">
        <ele>67</ele>
        <time>2022-10-29T10:43:41Z</time>
      </trkpt>
      <trkpt lat="47.19878" lon="-1.82337">
        <ele>67</ele>
        <time>2022-10-29T10:43:43Z</time>
      </trkpt>
      <trkpt lat="47.19872" lon="-1.82352">
        <ele>67</ele>
        <time>2022-10-29T10:43:45Z</time>
      </trkpt>
      <trkpt lat="47.19867" lon="-1.82367">
        <ele>68</ele>
        <time>2022-10-29T10:43:47Z</time>
      </trkpt>
      <trkpt lat="47.19862" lon="-1.82383">
        <ele>68</ele>
        <time>2022-10-29T10:43:49Z</time>
      </trkpt>
      <trkpt lat="47.19857" lon="-1.82399">
        <ele>68</ele>
        <time>2022-10-29T10:43:51Z</time>
      </trkpt>
      <trkpt lat="47.19851" lon="-1.82415">
        <ele>68</ele>
        <time>2022-10-29T10:43:53Z</time>
      </trkpt>
      <trkpt lat="47.19846" lon="-1.8243">
        <ele>68</ele>
        <time>2022-10-29T10:43:55Z</time>
      </trkpt>
      <trkpt lat="47.19839" lon="-1.82444">
        <ele>68</ele>
        <time>2022-10-29T10:43:57Z</time>
      </trkpt>
      <trkpt lat="47.19833" lon="-1.82458">
        <ele>68</ele>
        <time>2022-10-29T10:43:59Z</time>
      </trkpt>
      <trkpt lat="47.19826" lon="-1.82472">
        <ele>68</ele>
        <time>2022-10-29T10:44:01Z</time>
      </trkpt>
      <trkpt lat="47.19818" lon="-1.82484">
        <ele>68</ele>
        <time>2022-10-29T10:44:03Z</time>
      </trkpt>
      <trkpt lat="47.1981" lon="-1.82498">
        <ele>68</ele>
        <time>2022-10-29T10:44:05Z</time>
      </trkpt>
      <trkpt lat="47.19802" lon="-1.8251">
        <ele>68</ele>
        <time>2022-10-29T10:44:07Z</time>
      </trkpt>
      <trkpt lat="47.19794" lon="-1.82522">
        <ele>69</ele>
        <time>2022-10-29T10:44:09Z</time>
      </trkpt>
      <trkpt lat="47.19786" lon="-1.82536">
        <ele>69</ele>
        <time>2022-10-29T10:44:11Z</time>
      </trkpt>
      <trkpt lat="47.19777" lon="-1.82549">
        <ele>69</ele>
        <time>2022-10-29T10:44:13Z</time>
      </trkpt>
      <trkpt lat="47.19768" lon="-1.82562">
        <ele>68</ele>
        <time>2022-10-29T10:44:15Z</time>
      </trkpt>
      <trkpt lat="47.1976" lon="-1.82575">
        <ele>68</ele>
        <time>2022-10-29T10:44:17Z</time>
      </trkpt>
      <trkpt lat="47.19751" lon="-1.82589">
        <ele>68</ele>
        <time>2022-10-29T10:44:19Z</time>
      </trkpt>
      <trkpt lat="47.19742" lon="-1.82602">
        <ele>68</ele>
        <time>2022-10-29T10:44:21Z</time>
      </trkpt>
      <trkpt lat="47.19735" lon="-1.82618">
        <ele>67</ele>
        <time>2022-10-29T10:44:23Z</time>
      </trkpt>
      <trkpt lat="47.19729" lon="-1.82634">
        <ele>67</ele>
        <time>2022-10-29T10:44:25Z</time>
      </trkpt>
      <trkpt lat="47.19724" lon="-1.82651">
        <ele>67</ele>
        <time>2022-10-29T10:44:27Z</time>
      </trkpt>
      <trkpt lat="47.1972" lon="-1.82668">
        <ele>67</ele>
        <time>2022-10-29T10:44:29Z</time>
      </trkpt>
      <trkpt lat="47.19716" lon="-1.82685">
        <ele>67</ele>
        <time>2022-10-29T10:44:31Z</time>
      </trkpt>
      <trkpt lat="47.19711" lon="-1.82702">
        <ele>66</ele>
        <time>2022-10-29T10:44:33Z</time>
      </trkpt>
      <trkpt lat="47.19708" lon="-1.8272">
        <ele>66</ele>
        <time>2022-10-29T10:44:35Z</time>
      </trkpt>
      <trkpt lat="47.19703" lon="-1.82739">
        <ele>66</ele>
        <time>2022-10-29T10:44:37Z</time>
      </trkpt>
      <trkpt lat="47.19699" lon="-1.82757">
        <ele>67</ele>
        <time>2022-10-29T10:44:39Z</time>
      </trkpt>
      <trkpt lat="47.19695" lon="-1.82775">
        <ele>66</ele>
        <time>2022-10-29T10:44:41Z</time>
      </trkpt>
      <trkpt lat="47.19692" lon="-1.82793">
        <ele>66</ele>
        <time>2022-10-29T10:44:43Z</time>
      </trkpt>
      <trkpt lat="47.19689" lon="-1.82811">
        <ele>66</ele>
        <time>2022-10-29T10:44:45Z</time>
      </trkpt>
      <trkpt lat="47.19685" lon="-1.82829">
        <ele>66</ele>
        <time>2022-10-29T10:44:47Z</time>
      </trkpt>
      <trkpt lat="47.19682" lon="-1.82846">
        <ele>66</ele>
        <time>2022-10-29T10:44:49Z</time>
      </trkpt>
      <trkpt lat="47.19678" lon="-1.82864">
        <ele>66</ele>
        <time>2022-10-29T10:44:51Z</time>
      </trkpt>
      <trkpt lat="47.19675" lon="-1.82882">
        <ele>67</ele>
        <time>2022-10-29T10:44:53Z</time>
      </trkpt>
      <trkpt lat="47.19671" lon="-1.829">
        <ele>67</ele>
        <time>2022-10-29T10:44:55Z</time>
      </trkpt>
      <trkpt lat="47.19667" lon="-1.82917">
        <ele>67</ele>
        <time>2022-10-29T10:44:57Z</time>
      </trkpt>
      <trkpt lat="47.19664" lon="-1.82936">
        <ele>67</ele>
        <time>2022-10-29T10:44:59Z</time>
      </trkpt>
      <trkpt lat="47.19661" lon="-1.82955">
        <ele>66</ele>
        <time>2022-10-29T10:45:01Z</time>
      </trkpt>
      <trkpt lat="47.19657" lon="-1.82973">
        <ele>66</ele>
        <time>2022-10-29T10:45:03Z</time>
      </trkpt>
      <trkpt lat="47.19654" lon="-1.82992">
        <ele>66</ele>
        <time>2022-10-29T10:45:05Z</time>
      </trkpt>
      <trkpt lat="47.1965" lon="-1.8301">
        <ele>66</ele>
        <time>2022-10-29T10:45:07Z</time>
      </trkpt>
      <trkpt lat="47.19647" lon="-1.83029">
        <ele>66</ele>
        <time>2022-10-29T10:45:09Z</time>
      </trkpt>
      <trkpt lat="47.19643" lon="-1.83048">
        <ele>66</ele>
        <time>2022-10-29T10:45:11Z</time>
      </trkpt>
      <trkpt lat="47.1964" lon="-1.83067">
        <ele>66</ele>
        <time>2022-10-29T10:45:13Z</time>
      </trkpt>
      <trkpt lat="47.19636" lon="-1.83085">
        <ele>66</ele>
        <time>2022-10-29T10:45:15Z</time>
      </trkpt>
      <trkpt lat="47.19633" lon="-1.83104">
        <ele>66</ele>
        <time>2022-10-29T10:45:17Z</time>
      </trkpt>
      <trkpt lat="47.1963" lon="-1.83122">
        <ele>66</ele>
        <time>2022-10-29T10:45:19Z</time>
      </trkpt>
      <trkpt lat="47.19627" lon="-1.83141">
        <ele>66</ele>
        <time>2022-10-29T10:45:21Z</time>
      </trkpt>
      <trkpt lat="47.19625" lon="-1.83161">
        <ele>66</ele>
        <time>2022-10-29T10:45:23Z</time>
      </trkpt>
      <trkpt lat="47.19624" lon="-1.8318">
        <ele>65</ele>
        <time>2022-10-29T10:45:25Z</time>
      </trkpt>
      <trkpt lat="47.19624" lon="-1.832">
        <ele>65</ele>
        <time>2022-10-29T10:45:27Z</time>
      </trkpt>
      <trkpt lat="47.19625" lon="-1.83219">
        <ele>66</ele>
        <time>2022-10-29T10:45:29Z</time>
      </trkpt>
      <trkpt lat="47.19626" lon="-1.83238">
        <ele>66</ele>
        <time>2022-10-29T10:45:31Z</time>
      </trkpt>
      <trkpt lat="47.19626" lon="-1.83258">
        <ele>66</ele>
        <time>2022-10-29T10:45:33Z</time>
      </trkpt>
      <trkpt lat="47.19628" lon="-1.83276">
        <ele>66</ele>
        <time>2022-10-29T10:45:35Z</time>
      </trkpt>
      <trkpt lat="47.19629" lon="-1.83296">
        <ele>66</ele>
        <time>2022-10-29T10:45:37Z</time>
      </trkpt>
      <trkpt lat="47.1963" lon="-1.83315">
        <ele>66</ele>
        <time>2022-10-29T10:45:39Z</time>
      </trkpt>
      <trkpt lat="47.1963" lon="-1.83334">
        <ele>66</ele>
        <time>2022-10-29T10:45:41Z</time>
      </trkpt>
      <trkpt lat="47.19631" lon="-1.83352">
        <ele>66</ele>
        <time>2022-10-29T10:45:43Z</time>
      </trkpt>
      <trkpt lat="47.19632" lon="-1.83371">
        <ele>65</ele>
        <time>2022-10-29T10:45:45Z</time>
      </trkpt>
      <trkpt lat="47.19633" lon="-1.8339">
        <ele>66</ele>
        <time>2022-10-29T10:45:47Z</time>
      </trkpt>
      <trkpt lat="47.19634" lon="-1.83408">
        <ele>66</ele>
        <time>2022-10-29T10:45:49Z</time>
      </trkpt>
      <trkpt lat="47.19635" lon="-1.83426">
        <ele>66</ele>
        <time>2022-10-29T10:45:51Z</time>
      </trkpt>
      <trkpt lat="47.19636" lon="-1.83445">
        <ele>66</ele>
        <time>2022-10-29T10:45:53Z</time>
      </trkpt>
      <trkpt lat="47.19637" lon="-1.83463">
        <ele>66</ele>
        <time>2022-10-29T10:45:55Z</time>
      </trkpt>
      <trkpt lat="47.19638" lon="-1.83482">
        <ele>66</ele>
        <time>2022-10-29T10:45:57Z</time>
      </trkpt>
      <trkpt lat="47.19639" lon="-1.835">
        <ele>66</ele>
        <time>2022-10-29T10:45:59Z</time>
      </trkpt>
      <trkpt lat="47.1964" lon="-1.83518">
        <ele>66</ele>
        <time>2022-10-29T10:46:01Z</time>
      </trkpt>
      <trkpt lat="47.19639" lon="-1.83536">
        <ele>66</ele>
        <time>2022-10-29T10:46:03Z</time>
      </trkpt>
      <trkpt lat="47.19638" lon="-1.83555">
        <ele>66</ele>
        <time>2022-10-29T10:46:05Z</time>
      </trkpt>
      <trkpt lat="47.19636" lon="-1.83574">
        <ele>66</ele>
        <time>2022-10-29T10:46:07Z</time>
      </trkpt>
      <trkpt lat="47.19632" lon="-1.83592">
        <ele>65</ele>
        <time>2022-10-29T10:46:09Z</time>
      </trkpt>
      <trkpt lat="47.19627" lon="-1.8361">
        <ele>65</ele>
        <time>2022-10-29T10:46:11Z</time>
      </trkpt>
      <trkpt lat="47.19623" lon="-1.83629">
        <ele>65</ele>
        <time>2022-10-29T10:46:13Z</time>
      </trkpt>
      <trkpt lat="47.19618" lon="-1.83648">
        <ele>65</ele>
        <time>2022-10-29T10:46:15Z</time>
      </trkpt>
      <trkpt lat="47.19615" lon="-1.83668">
        <ele>65</ele>
        <time>2022-10-29T10:46:17Z</time>
      </trkpt>
      <trkpt lat="47.19614" lon="-1.83688">
        <ele>64</ele>
        <time>2022-10-29T10:46:19Z</time>
      </trkpt>
      <trkpt lat="47.19614" lon="-1.83707">
        <ele>65</ele>
        <time>2022-10-29T10:46:21Z</time>
      </trkpt>
      <trkpt lat="47.19617" lon="-1.83726">
        <ele>65</ele>
        <time>2022-10-29T10:46:23Z</time>
      </trkpt>
      <trkpt lat="47.1962" lon="-1.83746">
        <ele>65</ele>
        <time>2022-10-29T10:46:25Z</time>
      </trkpt>
      <trkpt lat="47.19624" lon="-1.83765">
        <ele>64</ele>
        <time>2022-10-29T10:46:27Z</time>
      </trkpt>
      <trkpt lat="47.19627" lon="-1.83784">
        <ele>64</ele>
        <time>2022-10-29T10:46:29Z</time>
      </trkpt>
      <trkpt lat="47.19631" lon="-1.83803">
        <ele>64</ele>
        <time>2022-10-29T10:46:31Z</time>
      </trkpt>
      <trkpt lat="47.19635" lon="-1.83823">
        <ele>64</ele>
        <time>2022-10-29T10:46:33Z</time>
      </trkpt>
      <trkpt lat="47.19639" lon="-1.83842">
        <ele>64</ele>
        <time>2022-10-29T10:46:35Z</time>
      </trkpt>
      <trkpt lat="47.19642" lon="-1.83862">
        <ele>64</ele>
        <time>2022-10-29T10:46:37Z</time>
      </trkpt>
      <trkpt lat="47.19646" lon="-1.83881">
        <ele>64</ele>
        <time>2022-10-29T10:46:39Z</time>
      </trkpt>
      <trkpt lat="47.19649" lon="-1.83901">
        <ele>64</ele>
        <time>2022-10-29T10:46:41Z</time>
      </trkpt>
      <trkpt lat="47.19652" lon="-1.8392">
        <ele>64</ele>
        <time>2022-10-29T10:46:43Z</time>
      </trkpt>
      <trkpt lat="47.19656" lon="-1.83939">
        <ele>64</ele>
        <time>2022-10-29T10:46:45Z</time>
      </trkpt>
      <trkpt lat="47.19659" lon="-1.83958">
        <ele>64</ele>
        <time>2022-10-29T10:46:47Z</time>
      </trkpt>
      <trkpt lat="47.19663" lon="-1.83976">
        <ele>64</ele>
        <time>2022-10-29T10:46:49Z</time>
      </trkpt>
      <trkpt lat="47.19666" lon="-1.83994">
        <ele>64</ele>
        <time>2022-10-29T10:46:51Z</time>
      </trkpt>
      <trkpt lat="47.19668" lon="-1.84012">
        <ele>64</ele>
        <time>2022-10-29T10:46:53Z</time>
      </trkpt>
      <trkpt lat="47.19669" lon="-1.84031">
        <ele>64</ele>
        <time>2022-10-29T10:46:55Z</time>
      </trkpt>
      <trkpt lat="47.19668" lon="-1.8405">
        <ele>64</ele>
        <time>2022-10-29T10:46:57Z</time>
      </trkpt>
      <trkpt lat="47.19666" lon="-1.84069">
        <ele>64</ele>
        <time>2022-10-29T10:46:59Z</time>
      </trkpt>
      <trkpt lat="47.19661" lon="-1.84086">
        <ele>64</ele>
        <time>2022-10-29T10:47:01Z</time>
      </trkpt>
      <trkpt lat="47.19656" lon="-1.84102">
        <ele>64</ele>
        <time>2022-10-29T10:47:03Z</time>
      </trkpt>
      <trkpt lat="47.1965" lon="-1.84117">
        <ele>63</ele>
        <time>2022-10-29T10:47:05Z</time>
      </trkpt>
      <trkpt lat="47.19642" lon="-1.84132">
        <ele>64</ele>
        <time>2022-10-29T10:47:07Z</time>
      </trkpt>
      <trkpt lat="47.19634" lon="-1.84147">
        <ele>63</ele>
        <time>2022-10-29T10:47:09Z</time>
      </trkpt>
      <trkpt lat="47.19625" lon="-1.84161">
        <ele>63</ele>
        <time>2022-10-29T10:47:11Z</time>
      </trkpt>
      <trkpt lat="47.19615" lon="-1.84176">
        <ele>63</ele>
        <time>2022-10-29T10:47:13Z</time>
      </trkpt>
      <trkpt lat="47.19607" lon="-1.8419">
        <ele>63</ele>
        <time>2022-10-29T10:47:15Z</time>
      </trkpt>
      <trkpt lat="47.19599" lon="-1.84204">
        <ele>63</ele>
        <time>2022-10-29T10:47:17Z</time>
      </trkpt>
      <trkpt lat="47.19591" lon="-1.84218">
        <ele>62</ele>
        <time>2022-10-29T10:47:19Z</time>
      </trkpt>
      <trkpt lat="47.19583" lon="-1.84232">
        <ele>62</ele>
        <time>2022-10-29T10:47:21Z</time>
      </trkpt>
      <trkpt lat="47.19576" lon="-1.84246">
        <ele>62</ele>
        <time>2022-10-29T10:47:23Z</time>
      </trkpt>
      <trkpt lat="47.19568" lon="-1.8426">
        <ele>62</ele>
        <time>2022-10-29T10:47:25Z</time>
      </trkpt>
      <trkpt lat="47.1956" lon="-1.84273">
        <ele>62</ele>
        <time>2022-10-29T10:47:27Z</time>
      </trkpt>
      <trkpt lat="47.19552" lon="-1.84288">
        <ele>63</ele>
        <time>2022-10-29T10:47:29Z</time>
      </trkpt>
      <trkpt lat="47.19544" lon="-1.84302">
        <ele>62</ele>
        <time>2022-10-29T10:47:31Z</time>
      </trkpt>
      <trkpt lat="47.19536" lon="-1.84316">
        <ele>62</ele>
        <time>2022-10-29T10:47:33Z</time>
      </trkpt>
      <trkpt lat="47.19527" lon="-1.8433">
        <ele>63</ele>
        <time>2022-10-29T10:47:35Z</time>
      </trkpt>
      <trkpt lat="47.19519" lon="-1.84344">
        <ele>63</ele>
        <time>2022-10-29T10:47:37Z</time>
      </trkpt>
      <trkpt lat="47.1951" lon="-1.84359">
        <ele>62</ele>
        <time>2022-10-29T10:47:39Z</time>
      </trkpt>
      <trkpt lat="47.19502" lon="-1.84374">
        <ele>62</ele>
        <time>2022-10-29T10:47:41Z</time>
      </trkpt>
      <trkpt lat="47.19493" lon="-1.84389">
        <ele>62</ele>
        <time>2022-10-29T10:47:43Z</time>
      </trkpt>
      <trkpt lat="47.19485" lon="-1.84403">
        <ele>62</ele>
        <time>2022-10-29T10:47:45Z</time>
      </trkpt>
      <trkpt lat="47.19477" lon="-1.84418">
        <ele>62</ele>
        <time>2022-10-29T10:47:47Z</time>
      </trkpt>
      <trkpt lat="47.19468" lon="-1.84433">
        <ele>62</ele>
        <time>2022-10-29T10:47:49Z</time>
      </trkpt>
      <trkpt lat="47.19461" lon="-1.84448">
        <ele>62</ele>
        <time>2022-10-29T10:47:51Z</time>
      </trkpt>
      <trkpt lat="47.19453" lon="-1.84461">
        <ele>62</ele>
        <time>2022-10-29T10:47:53Z</time>
      </trkpt>
      <trkpt lat="47.19445" lon="-1.84476">
        <ele>62</ele>
        <time>2022-10-29T10:47:55Z</time>
      </trkpt>
      <trkpt lat="47.19437" lon="-1.8449">
        <ele>62</ele>
        <time>2022-10-29T10:47:57Z</time>
      </trkpt>
      <trkpt lat="47.19429" lon="-1.84504">
        <ele>62</ele>
        <time>2022-10-29T10:47:59Z</time>
      </trkpt>
      <trkpt lat="47.19421" lon="-1.84518">
        <ele>62</ele>
        <time>2022-10-29T10:48:01Z</time>
      </trkpt>
      <trkpt lat="47.19413" lon="-1.84531">
        <ele>62</ele>
        <time>2022-10-29T10:48:03Z</time>
      </trkpt>
      <trkpt lat="47.19404" lon="-1.84543">
        <ele>62</ele>
        <time>2022-10-29T10:48:05Z</time>
      </trkpt>
      <trkpt lat="47.19397" lon="-1.84553">
        <ele>62</ele>
        <time>2022-10-29T10:48:07Z</time>
      </trkpt>
      <trkpt lat="47.19388" lon="-1.84562">
        <ele>62</ele>
        <time>2022-10-29T10:48:10Z</time>
      </trkpt>
      <trkpt lat="47.19378" lon="-1.84571">
        <ele>62</ele>
        <time>2022-10-29T10:48:15Z</time>
      </trkpt>
      <trkpt lat="47.19369" lon="-1.84575">
        <ele>62</ele>
        <time>2022-10-29T10:48:17Z</time>
      </trkpt>
      <trkpt lat="47.19357" lon="-1.84573">
        <ele>62</ele>
        <time>2022-10-29T10:48:19Z</time>
      </trkpt>
      <trkpt lat="47.19346" lon="-1.84578">
        <ele>61</ele>
        <time>2022-10-29T10:48:21Z</time>
      </trkpt>
      <trkpt lat="47.19338" lon="-1.84592">
        <ele>61</ele>
        <time>2022-10-29T10:48:23Z</time>
      </trkpt>
      <trkpt lat="47.19335" lon="-1.84611">
        <ele>61</ele>
        <time>2022-10-29T10:48:25Z</time>
      </trkpt>
      <trkpt lat="47.19334" lon="-1.8463">
        <ele>61</ele>
        <time>2022-10-29T10:48:27Z</time>
      </trkpt>
      <trkpt lat="47.19334" lon="-1.8465">
        <ele>60</ele>
        <time>2022-10-29T10:48:29Z</time>
      </trkpt>
      <trkpt lat="47.19335" lon="-1.84669">
        <ele>60</ele>
        <time>2022-10-29T10:48:31Z</time>
      </trkpt>
      <trkpt lat="47.19335" lon="-1.84688">
        <ele>60</ele>
        <time>2022-10-29T10:48:33Z</time>
      </trkpt>
      <trkpt lat="47.19334" lon="-1.84708">
        <ele>59</ele>
        <time>2022-10-29T10:48:35Z</time>
      </trkpt>
      <trkpt lat="47.19333" lon="-1.84728">
        <ele>59</ele>
        <time>2022-10-29T10:48:37Z</time>
      </trkpt>
      <trkpt lat="47.19331" lon="-1.84747">
        <ele>60</ele>
        <time>2022-10-29T10:48:39Z</time>
      </trkpt>
      <trkpt lat="47.1933" lon="-1.84766">
        <ele>60</ele>
        <time>2022-10-29T10:48:41Z</time>
      </trkpt>
      <trkpt lat="47.19329" lon="-1.84786">
        <ele>59</ele>
        <time>2022-10-29T10:48:43Z</time>
      </trkpt>
      <trkpt lat="47.19328" lon="-1.84806">
        <ele>60</ele>
        <time>2022-10-29T10:48:45Z</time>
      </trkpt>
      <trkpt lat="47.19326" lon="-1.84826">
        <ele>59</ele>
        <time>2022-10-29T10:48:47Z</time>
      </trkpt>
      <trkpt lat="47.19322" lon="-1.84845">
        <ele>60</ele>
        <time>2022-10-29T10:48:49Z</time>
      </trkpt>
      <trkpt lat="47.19318" lon="-1.84863">
        <ele>59</ele>
        <time>2022-10-29T10:48:51Z</time>
      </trkpt>
      <trkpt lat="47.19313" lon="-1.84881">
        <ele>59</ele>
        <time>2022-10-29T10:48:53Z</time>
      </trkpt>
      <trkpt lat="47.19307" lon="-1.84899">
        <ele>59</ele>
        <time>2022-10-29T10:48:55Z</time>
      </trkpt>
      <trkpt lat="47.19301" lon="-1.84916">
        <ele>59</ele>
        <time>2022-10-29T10:48:57Z</time>
      </trkpt>
      <trkpt lat="47.19295" lon="-1.84934">
        <ele>59</ele>
        <time>2022-10-29T10:48:59Z</time>
      </trkpt>
      <trkpt lat="47.1929" lon="-1.8495">
        <ele>59</ele>
        <time>2022-10-29T10:49:01Z</time>
      </trkpt>
      <trkpt lat="47.19284" lon="-1.84967">
        <ele>59</ele>
        <time>2022-10-29T10:49:03Z</time>
      </trkpt>
      <trkpt lat="47.19277" lon="-1.84983">
        <ele>59</ele>
        <time>2022-10-29T10:49:05Z</time>
      </trkpt>
      <trkpt lat="47.19273" lon="-1.85002">
        <ele>59</ele>
        <time>2022-10-29T10:49:07Z</time>
      </trkpt>
      <trkpt lat="47.19271" lon="-1.85022">
        <ele>59</ele>
        <time>2022-10-29T10:49:09Z</time>
      </trkpt>
      <trkpt lat="47.19269" lon="-1.85041">
        <ele>59</ele>
        <time>2022-10-29T10:49:11Z</time>
      </trkpt>
      <trkpt lat="47.19267" lon="-1.8506">
        <ele>59</ele>
        <time>2022-10-29T10:49:13Z</time>
      </trkpt>
      <trkpt lat="47.19266" lon="-1.85079">
        <ele>58</ele>
        <time>2022-10-29T10:49:15Z</time>
      </trkpt>
      <trkpt lat="47.19269" lon="-1.85107">
        <ele>58</ele>
        <time>2022-10-29T10:49:18Z</time>
      </trkpt>
      <trkpt lat="47.1927" lon="-1.85126">
        <ele>57</ele>
        <time>2022-10-29T10:49:20Z</time>
      </trkpt>
      <trkpt lat="47.19272" lon="-1.85159">
        <ele>56</ele>
        <time>2022-10-29T10:49:23Z</time>
      </trkpt>
      <trkpt lat="47.19273" lon="-1.8518">
        <ele>55</ele>
        <time>2022-10-29T10:49:25Z</time>
      </trkpt>
      <trkpt lat="47.19275" lon="-1.85212">
        <ele>55</ele>
        <time>2022-10-29T10:49:28Z</time>
      </trkpt>
      <trkpt lat="47.19278" lon="-1.85228">
        <ele>54</ele>
        <time>2022-10-29T10:49:30Z</time>
      </trkpt>
      <trkpt lat="47.19281" lon="-1.85245">
        <ele>54</ele>
        <time>2022-10-29T10:49:33Z</time>
      </trkpt>
      <trkpt lat="47.19277" lon="-1.8526">
        <ele>54</ele>
        <time>2022-10-29T10:49:35Z</time>
      </trkpt>
      <trkpt lat="47.19272" lon="-1.85276">
        <ele>54</ele>
        <time>2022-10-29T10:49:37Z</time>
      </trkpt>
      <trkpt lat="47.19267" lon="-1.85293">
        <ele>54</ele>
        <time>2022-10-29T10:49:39Z</time>
      </trkpt>
      <trkpt lat="47.19262" lon="-1.8531">
        <ele>54</ele>
        <time>2022-10-29T10:49:41Z</time>
      </trkpt>
      <trkpt lat="47.19256" lon="-1.85325">
        <ele>54</ele>
        <time>2022-10-29T10:49:43Z</time>
      </trkpt>
      <trkpt lat="47.19249" lon="-1.8534">
        <ele>54</ele>
        <time>2022-10-29T10:49:45Z</time>
      </trkpt>
      <trkpt lat="47.19242" lon="-1.85354">
        <ele>54</ele>
        <time>2022-10-29T10:49:47Z</time>
      </trkpt>
      <trkpt lat="47.19235" lon="-1.85368">
        <ele>54</ele>
        <time>2022-10-29T10:49:49Z</time>
      </trkpt>
      <trkpt lat="47.19229" lon="-1.85383">
        <ele>53</ele>
        <time>2022-10-29T10:49:51Z</time>
      </trkpt>
      <trkpt lat="47.19219" lon="-1.85396">
        <ele>53</ele>
        <time>2022-10-29T10:49:53Z</time>
      </trkpt>
      <trkpt lat="47.19209" lon="-1.85408">
        <ele>53</ele>
        <time>2022-10-29T10:49:55Z</time>
      </trkpt>
      <trkpt lat="47.19199" lon="-1.8542">
        <ele>52</ele>
        <time>2022-10-29T10:49:57Z</time>
      </trkpt>
      <trkpt lat="47.19189" lon="-1.8543">
        <ele>52</ele>
        <time>2022-10-29T10:49:59Z</time>
      </trkpt>
      <trkpt lat="47.1918" lon="-1.85442">
        <ele>53</ele>
        <time>2022-10-29T10:50:01Z</time>
      </trkpt>
      <trkpt lat="47.19171" lon="-1.85454">
        <ele>53</ele>
        <time>2022-10-29T10:50:03Z</time>
      </trkpt>
      <trkpt lat="47.19163" lon="-1.85466">
        <ele>53</ele>
        <time>2022-10-29T10:50:05Z</time>
      </trkpt>
      <trkpt lat="47.19155" lon="-1.85477">
        <ele>53</ele>
        <time>2022-10-29T10:50:07Z</time>
      </trkpt>
      <trkpt lat="47.19147" lon="-1.85489">
        <ele>54</ele>
        <time>2022-10-29T10:50:09Z</time>
      </trkpt>
      <trkpt lat="47.19139" lon="-1.85501">
        <ele>54</ele>
        <time>2022-10-29T10:50:11Z</time>
      </trkpt>
      <trkpt lat="47.1913" lon="-1.85512">
        <ele>54</ele>
        <time>2022-10-29T10:50:13Z</time>
      </trkpt>
      <trkpt lat="47.19122" lon="-1.85522">
        <ele>54</ele>
        <time>2022-10-29T10:50:15Z</time>
      </trkpt>
      <trkpt lat="47.19113" lon="-1.85532">
        <ele>54</ele>
        <time>2022-10-29T10:50:17Z</time>
      </trkpt>
      <trkpt lat="47.19103" lon="-1.85541">
        <ele>54</ele>
        <time>2022-10-29T10:50:19Z</time>
      </trkpt>
      <trkpt lat="47.19094" lon="-1.8555">
        <ele>53</ele>
        <time>2022-10-29T10:50:21Z</time>
      </trkpt>
      <trkpt lat="47.19084" lon="-1.85559">
        <ele>53</ele>
        <time>2022-10-29T10:50:23Z</time>
      </trkpt>
      <trkpt lat="47.19074" lon="-1.85568">
        <ele>53</ele>
        <time>2022-10-29T10:50:25Z</time>
      </trkpt>
      <trkpt lat="47.19064" lon="-1.85577">
        <ele>52</ele>
        <time>2022-10-29T10:50:27Z</time>
      </trkpt>
      <trkpt lat="47.19054" lon="-1.85586">
        <ele>52</ele>
        <time>2022-10-29T10:50:29Z</time>
      </trkpt>
      <trkpt lat="47.19043" lon="-1.85595">
        <ele>52</ele>
        <time>2022-10-29T10:50:31Z</time>
      </trkpt>
      <trkpt lat="47.19033" lon="-1.85605">
        <ele>51</ele>
        <time>2022-10-29T10:50:33Z</time>
      </trkpt>
      <trkpt lat="47.19022" lon="-1.85614">
        <ele>51</ele>
        <time>2022-10-29T10:50:35Z</time>
      </trkpt>
      <trkpt lat="47.19012" lon="-1.85623">
        <ele>52</ele>
        <time>2022-10-29T10:50:37Z</time>
      </trkpt>
      <trkpt lat="47.19002" lon="-1.85631">
        <ele>52</ele>
        <time>2022-10-29T10:50:39Z</time>
      </trkpt>
      <trkpt lat="47.18992" lon="-1.85639">
        <ele>52</ele>
        <time>2022-10-29T10:50:41Z</time>
      </trkpt>
      <trkpt lat="47.18981" lon="-1.85646">
        <ele>52</ele>
        <time>2022-10-29T10:50:43Z</time>
      </trkpt>
      <trkpt lat="47.1897" lon="-1.85653">
        <ele>52</ele>
        <time>2022-10-29T10:50:45Z</time>
      </trkpt>
      <trkpt lat="47.1896" lon="-1.85661">
        <ele>51</ele>
        <time>2022-10-29T10:50:47Z</time>
      </trkpt>
      <trkpt lat="47.18949" lon="-1.85669">
        <ele>51</ele>
        <time>2022-10-29T10:50:49Z</time>
      </trkpt>
      <trkpt lat="47.18938" lon="-1.85677">
        <ele>51</ele>
        <time>2022-10-29T10:50:51Z</time>
      </trkpt>
      <trkpt lat="47.18927" lon="-1.85685">
        <ele>51</ele>
        <time>2022-10-29T10:50:53Z</time>
      </trkpt>
      <trkpt lat="47.18916" lon="-1.85692">
        <ele>52</ele>
        <time>2022-10-29T10:50:55Z</time>
      </trkpt>
      <trkpt lat="47.18906" lon="-1.857">
        <ele>52</ele>
        <time>2022-10-29T10:50:57Z</time>
      </trkpt>
      <trkpt lat="47.18895" lon="-1.85708">
        <ele>52</ele>
        <time>2022-10-29T10:50:59Z</time>
      </trkpt>
      <trkpt lat="47.18884" lon="-1.85716">
        <ele>52</ele>
        <time>2022-10-29T10:51:01Z</time>
      </trkpt>
      <trkpt lat="47.18873" lon="-1.85724">
        <ele>52</ele>
        <time>2022-10-29T10:51:03Z</time>
      </trkpt>
      <trkpt lat="47.18863" lon="-1.85732">
        <ele>52</ele>
        <time>2022-10-29T10:51:05Z</time>
      </trkpt>
      <trkpt lat="47.18852" lon="-1.8574">
        <ele>51</ele>
        <time>2022-10-29T10:51:07Z</time>
      </trkpt>
      <trkpt lat="47.18841" lon="-1.85748">
        <ele>51</ele>
        <time>2022-10-29T10:51:09Z</time>
      </trkpt>
      <trkpt lat="47.1883" lon="-1.85755">
        <ele>51</ele>
        <time>2022-10-29T10:51:11Z</time>
      </trkpt>
      <trkpt lat="47.18819" lon="-1.85763">
        <ele>51</ele>
        <time>2022-10-29T10:51:13Z</time>
      </trkpt>
      <trkpt lat="47.18809" lon="-1.8577">
        <ele>51</ele>
        <time>2022-10-29T10:51:15Z</time>
      </trkpt>
      <trkpt lat="47.18799" lon="-1.85778">
        <ele>51</ele>
        <time>2022-10-29T10:51:17Z</time>
      </trkpt>
      <trkpt lat="47.18788" lon="-1.85786">
        <ele>51</ele>
        <time>2022-10-29T10:51:19Z</time>
      </trkpt>
      <trkpt lat="47.18777" lon="-1.85793">
        <ele>51</ele>
        <time>2022-10-29T10:51:21Z</time>
      </trkpt>
      <trkpt lat="47.18766" lon="-1.85801">
        <ele>51</ele>
        <time>2022-10-29T10:51:23Z</time>
      </trkpt>
      <trkpt lat="47.18755" lon="-1.85809">
        <ele>51</ele>
        <time>2022-10-29T10:51:25Z</time>
      </trkpt>
      <trkpt lat="47.18745" lon="-1.85816">
        <ele>51</ele>
        <time>2022-10-29T10:51:27Z</time>
      </trkpt>
      <trkpt lat="47.18734" lon="-1.85825">
        <ele>51</ele>
        <time>2022-10-29T10:51:29Z</time>
      </trkpt>
      <trkpt lat="47.18723" lon="-1.85833">
        <ele>51</ele>
        <time>2022-10-29T10:51:31Z</time>
      </trkpt>
      <trkpt lat="47.18712" lon="-1.8584">
        <ele>51</ele>
        <time>2022-10-29T10:51:33Z</time>
      </trkpt>
      <trkpt lat="47.18702" lon="-1.85848">
        <ele>51</ele>
        <time>2022-10-29T10:51:35Z</time>
      </trkpt>
      <trkpt lat="47.18691" lon="-1.85856">
        <ele>51</ele>
        <time>2022-10-29T10:51:37Z</time>
      </trkpt>
      <trkpt lat="47.18681" lon="-1.85863">
        <ele>51</ele>
        <time>2022-10-29T10:51:39Z</time>
      </trkpt>
      <trkpt lat="47.18672" lon="-1.85869">
        <ele>51</ele>
        <time>2022-10-29T10:51:41Z</time>
      </trkpt>
      <trkpt lat="47.18663" lon="-1.85876">
        <ele>51</ele>
        <time>2022-10-29T10:51:43Z</time>
      </trkpt>
      <trkpt lat="47.18654" lon="-1.85883">
        <ele>51</ele>
        <time>2022-10-29T10:51:45Z</time>
      </trkpt>
      <trkpt lat="47.18644" lon="-1.8589">
        <ele>51</ele>
        <time>2022-10-29T10:51:47Z</time>
      </trkpt>
      <trkpt lat="47.18636" lon="-1.85899">
        <ele>52</ele>
        <time>2022-10-29T10:51:49Z</time>
      </trkpt>
      <trkpt lat="47.1863" lon="-1.85908">
        <ele>53</ele>
        <time>2022-10-29T10:51:51Z</time>
      </trkpt>
      <trkpt lat="47.18622" lon="-1.85917">
        <ele>53</ele>
        <time>2022-10-29T10:51:53Z</time>
      </trkpt>
      <trkpt lat="47.18615" lon="-1.85926">
        <ele>54</ele>
        <time>2022-10-29T10:51:55Z</time>
      </trkpt>
      <trkpt lat="47.18608" lon="-1.85936">
        <ele>54</ele>
        <time>2022-10-29T10:51:57Z</time>
      </trkpt>
      <trkpt lat="47.18601" lon="-1.85945">
        <ele>55</ele>
        <time>2022-10-29T10:51:59Z</time>
      </trkpt>
      <trkpt lat="47.18594" lon="-1.85955">
        <ele>56</ele>
        <time>2022-10-29T10:52:01Z</time>
      </trkpt>
      <trkpt lat="47.18589" lon="-1.85965">
        <ele>56</ele>
        <time>2022-10-29T10:52:03Z</time>
      </trkpt>
      <trkpt lat="47.18583" lon="-1.85977">
        <ele>57</ele>
        <time>2022-10-29T10:52:05Z</time>
      </trkpt>
      <trkpt lat="47.18578" lon="-1.85988">
        <ele>58</ele>
        <time>2022-10-29T10:52:07Z</time>
      </trkpt>
      <trkpt lat="47.18571" lon="-1.86004">
        <ele>59</ele>
        <time>2022-10-29T10:52:10Z</time>
      </trkpt>
      <trkpt lat="47.18565" lon="-1.86015">
        <ele>59</ele>
        <time>2022-10-29T10:52:12Z</time>
      </trkpt>
      <trkpt lat="47.18557" lon="-1.8603">
        <ele>60</ele>
        <time>2022-10-29T10:52:15Z</time>
      </trkpt>
      <trkpt lat="47.18553" lon="-1.86043">
        <ele>61</ele>
        <time>2022-10-29T10:52:17Z</time>
      </trkpt>
      <trkpt lat="47.18548" lon="-1.86056">
        <ele>61</ele>
        <time>2022-10-29T10:52:19Z</time>
      </trkpt>
      <trkpt lat="47.18542" lon="-1.86068">
        <ele>61</ele>
        <time>2022-10-29T10:52:21Z</time>
      </trkpt>
      <trkpt lat="47.18537" lon="-1.8608">
        <ele>62</ele>
        <time>2022-10-29T10:52:23Z</time>
      </trkpt>
      <trkpt lat="47.18532" lon="-1.86091">
        <ele>62</ele>
        <time>2022-10-29T10:52:25Z</time>
      </trkpt>
      <trkpt lat="47.18526" lon="-1.86102">
        <ele>62</ele>
        <time>2022-10-29T10:52:27Z</time>
      </trkpt>
      <trkpt lat="47.18517" lon="-1.86115">
        <ele>63</ele>
        <time>2022-10-29T10:52:30Z</time>
      </trkpt>
      <trkpt lat="47.18512" lon="-1.86132">
        <ele>63</ele>
        <time>2022-10-29T10:52:33Z</time>
      </trkpt>
      <trkpt lat="47.1851" lon="-1.86151">
        <ele>63</ele>
        <time>2022-10-29T10:52:36Z</time>
      </trkpt>
      <trkpt lat="47.18506" lon="-1.86164">
        <ele>63</ele>
        <time>2022-10-29T10:52:38Z</time>
      </trkpt>
      <trkpt lat="47.18502" lon="-1.86176">
        <ele>63</ele>
        <time>2022-10-29T10:52:40Z</time>
      </trkpt>
      <trkpt lat="47.18498" lon="-1.86189">
        <ele>63</ele>
        <time>2022-10-29T10:52:42Z</time>
      </trkpt>
      <trkpt lat="47.18493" lon="-1.86203">
        <ele>63</ele>
        <time>2022-10-29T10:52:44Z</time>
      </trkpt>
      <trkpt lat="47.18488" lon="-1.86216">
        <ele>63</ele>
        <time>2022-10-29T10:52:46Z</time>
      </trkpt>
      <trkpt lat="47.18484" lon="-1.86231">
        <ele>63</ele>
        <time>2022-10-29T10:52:48Z</time>
      </trkpt>
      <trkpt lat="47.18481" lon="-1.86245">
        <ele>63</ele>
        <time>2022-10-29T10:52:50Z</time>
      </trkpt>
      <trkpt lat="47.18478" lon="-1.8626">
        <ele>62</ele>
        <time>2022-10-29T10:52:52Z</time>
      </trkpt>
      <trkpt lat="47.18477" lon="-1.86277">
        <ele>63</ele>
        <time>2022-10-29T10:52:54Z</time>
      </trkpt>
      <trkpt lat="47.18477" lon="-1.86295">
        <ele>62</ele>
        <time>2022-10-29T10:52:56Z</time>
      </trkpt>
      <trkpt lat="47.18476" lon="-1.86318">
        <ele>62</ele>
        <time>2022-10-29T10:52:58Z</time>
      </trkpt>
      <trkpt lat="47.18472" lon="-1.86342">
        <ele>60</ele>
        <time>2022-10-29T10:53:00Z</time>
      </trkpt>
      <trkpt lat="47.18465" lon="-1.86366">
        <ele>58</ele>
        <time>2022-10-29T10:53:02Z</time>
      </trkpt>
      <trkpt lat="47.18461" lon="-1.86378">
        <ele>58</ele>
        <time>2022-10-29T10:53:03Z</time>
      </trkpt>
      <trkpt lat="47.18456" lon="-1.86389">
        <ele>57</ele>
        <time>2022-10-29T10:53:04Z</time>
      </trkpt>
      <trkpt lat="47.18443" lon="-1.86406">
        <ele>57</ele>
        <time>2022-10-29T10:53:06Z</time>
      </trkpt>
      <trkpt lat="47.18429" lon="-1.86419">
        <ele>56</ele>
        <time>2022-10-29T10:53:08Z</time>
      </trkpt>
      <trkpt lat="47.18417" lon="-1.86432">
        <ele>55</ele>
        <time>2022-10-29T10:53:10Z</time>
      </trkpt>
      <trkpt lat="47.18409" lon="-1.86452">
        <ele>55</ele>
        <time>2022-10-29T10:53:12Z</time>
      </trkpt>
      <trkpt lat="47.18409" lon="-1.86473">
        <ele>55</ele>
        <time>2022-10-29T10:53:14Z</time>
      </trkpt>
      <trkpt lat="47.18412" lon="-1.86493">
        <ele>55</ele>
        <time>2022-10-29T10:53:16Z</time>
      </trkpt>
      <trkpt lat="47.18416" lon="-1.86512">
        <ele>55</ele>
        <time>2022-10-29T10:53:18Z</time>
      </trkpt>
      <trkpt lat="47.18418" lon="-1.8653">
        <ele>55</ele>
        <time>2022-10-29T10:53:20Z</time>
      </trkpt>
      <trkpt lat="47.18421" lon="-1.86548">
        <ele>55</ele>
        <time>2022-10-29T10:53:22Z</time>
      </trkpt>
      <trkpt lat="47.18423" lon="-1.86565">
        <ele>56</ele>
        <time>2022-10-29T10:53:24Z</time>
      </trkpt>
      <trkpt lat="47.18426" lon="-1.86581">
        <ele>56</ele>
        <time>2022-10-29T10:53:26Z</time>
      </trkpt>
      <trkpt lat="47.18427" lon="-1.86597">
        <ele>57</ele>
        <time>2022-10-29T10:53:28Z</time>
      </trkpt>
      <trkpt lat="47.18428" lon="-1.86613">
        <ele>57</ele>
        <time>2022-10-29T10:53:30Z</time>
      </trkpt>
      <trkpt lat="47.18429" lon="-1.86628">
        <ele>59</ele>
        <time>2022-10-29T10:53:32Z</time>
      </trkpt>
      <trkpt lat="47.18428" lon="-1.86642">
        <ele>60</ele>
        <time>2022-10-29T10:53:34Z</time>
      </trkpt>
      <trkpt lat="47.18427" lon="-1.86657">
        <ele>60</ele>
        <time>2022-10-29T10:53:36Z</time>
      </trkpt>
      <trkpt lat="47.18426" lon="-1.8667">
        <ele>60</ele>
        <time>2022-10-29T10:53:38Z</time>
      </trkpt>
      <trkpt lat="47.18425" lon="-1.86684">
        <ele>61</ele>
        <time>2022-10-29T10:53:40Z</time>
      </trkpt>
      <trkpt lat="47.18423" lon="-1.86703">
        <ele>61</ele>
        <time>2022-10-29T10:53:43Z</time>
      </trkpt>
      <trkpt lat="47.18419" lon="-1.86723">
        <ele>63</ele>
        <time>2022-10-29T10:53:46Z</time>
      </trkpt>
      <trkpt lat="47.18416" lon="-1.86741">
        <ele>65</ele>
        <time>2022-10-29T10:53:49Z</time>
      </trkpt>
      <trkpt lat="47.18414" lon="-1.86755">
        <ele>65</ele>
        <time>2022-10-29T10:53:51Z</time>
      </trkpt>
      <trkpt lat="47.18412" lon="-1.86768">
        <ele>65</ele>
        <time>2022-10-29T10:53:53Z</time>
      </trkpt>
      <trkpt lat="47.18409" lon="-1.86782">
        <ele>66</ele>
        <time>2022-10-29T10:53:55Z</time>
      </trkpt>
      <trkpt lat="47.18407" lon="-1.86795">
        <ele>65</ele>
        <time>2022-10-29T10:53:57Z</time>
      </trkpt>
      <trkpt lat="47.18404" lon="-1.86813">
        <ele>66</ele>
        <time>2022-10-29T10:54:00Z</time>
      </trkpt>
      <trkpt lat="47.18404" lon="-1.86832">
        <ele>66</ele>
        <time>2022-10-29T10:54:03Z</time>
      </trkpt>
      <trkpt lat="47.18403" lon="-1.8685">
        <ele>66</ele>
        <time>2022-10-29T10:54:06Z</time>
      </trkpt>
      <trkpt lat="47.18404" lon="-1.86866">
        <ele>67</ele>
        <time>2022-10-29T10:54:09Z</time>
      </trkpt>
      <trkpt lat="47.18405" lon="-1.86884">
        <ele>68</ele>
        <time>2022-10-29T10:54:12Z</time>
      </trkpt>
      <trkpt lat="47.18407" lon="-1.86898">
        <ele>69</ele>
        <time>2022-10-29T10:54:14Z</time>
      </trkpt>
      <trkpt lat="47.18408" lon="-1.86913">
        <ele>70</ele>
        <time>2022-10-29T10:54:16Z</time>
      </trkpt>
      <trkpt lat="47.18409" lon="-1.86927">
        <ele>70</ele>
        <time>2022-10-29T10:54:18Z</time>
      </trkpt>
      <trkpt lat="47.1841" lon="-1.86946">
        <ele>70</ele>
        <time>2022-10-29T10:54:21Z</time>
      </trkpt>
      <trkpt lat="47.18412" lon="-1.86964">
        <ele>71</ele>
        <time>2022-10-29T10:54:24Z</time>
      </trkpt>
      <trkpt lat="47.18414" lon="-1.86978">
        <ele>71</ele>
        <time>2022-10-29T10:54:26Z</time>
      </trkpt>
      <trkpt lat="47.18415" lon="-1.86991">
        <ele>72</ele>
        <time>2022-10-29T10:54:28Z</time>
      </trkpt>
      <trkpt lat="47.18416" lon="-1.87005">
        <ele>72</ele>
        <time>2022-10-29T10:54:30Z</time>
      </trkpt>
      <trkpt lat="47.18417" lon="-1.87022">
        <ele>72</ele>
        <time>2022-10-29T10:54:32Z</time>
      </trkpt>
      <trkpt lat="47.18419" lon="-1.87041">
        <ele>71</ele>
        <time>2022-10-29T10:54:34Z</time>
      </trkpt>
      <trkpt lat="47.18424" lon="-1.87061">
        <ele>71</ele>
        <time>2022-10-29T10:54:36Z</time>
      </trkpt>
      <trkpt lat="47.18429" lon="-1.87081">
        <ele>70</ele>
        <time>2022-10-29T10:54:38Z</time>
      </trkpt>
      <trkpt lat="47.18435" lon="-1.87101">
        <ele>69</ele>
        <time>2022-10-29T10:54:40Z</time>
      </trkpt>
      <trkpt lat="47.18441" lon="-1.87124">
        <ele>68</ele>
        <time>2022-10-29T10:54:42Z</time>
      </trkpt>
      <trkpt lat="47.18448" lon="-1.87147">
        <ele>67</ele>
        <time>2022-10-29T10:54:44Z</time>
      </trkpt>
      <trkpt lat="47.18455" lon="-1.8717">
        <ele>66</ele>
        <time>2022-10-29T10:54:46Z</time>
      </trkpt>
      <trkpt lat="47.18462" lon="-1.87193">
        <ele>66</ele>
        <time>2022-10-29T10:54:48Z</time>
      </trkpt>
      <trkpt lat="47.18468" lon="-1.87217">
        <ele>65</ele>
        <time>2022-10-29T10:54:50Z</time>
      </trkpt>
      <trkpt lat="47.18472" lon="-1.87239">
        <ele>65</ele>
        <time>2022-10-29T10:54:52Z</time>
      </trkpt>
      <trkpt lat="47.18476" lon="-1.87259">
        <ele>65</ele>
        <time>2022-10-29T10:54:54Z</time>
      </trkpt>
      <trkpt lat="47.18478" lon="-1.87275">
        <ele>66</ele>
        <time>2022-10-29T10:54:56Z</time>
      </trkpt>
      <trkpt lat="47.1848" lon="-1.87289">
        <ele>67</ele>
        <time>2022-10-29T10:54:58Z</time>
      </trkpt>
      <trkpt lat="47.18482" lon="-1.87302">
        <ele>67</ele>
        <time>2022-10-29T10:55:00Z</time>
      </trkpt>
      <trkpt lat="47.18483" lon="-1.87316">
        <ele>68</ele>
        <time>2022-10-29T10:55:02Z</time>
      </trkpt>
      <trkpt lat="47.18485" lon="-1.8733">
        <ele>68</ele>
        <time>2022-10-29T10:55:04Z</time>
      </trkpt>
      <trkpt lat="47.18486" lon="-1.87344">
        <ele>68</ele>
        <time>2022-10-29T10:55:06Z</time>
      </trkpt>
      <trkpt lat="47.18488" lon="-1.87363">
        <ele>69</ele>
        <time>2022-10-29T10:55:09Z</time>
      </trkpt>
      <trkpt lat="47.1849" lon="-1.87377">
        <ele>69</ele>
        <time>2022-10-29T10:55:11Z</time>
      </trkpt>
      <trkpt lat="47.18492" lon="-1.87391">
        <ele>69</ele>
        <time>2022-10-29T10:55:13Z</time>
      </trkpt>
      <trkpt lat="47.18494" lon="-1.87405">
        <ele>70</ele>
        <time>2022-10-29T10:55:15Z</time>
      </trkpt>
      <trkpt lat="47.18496" lon="-1.87418">
        <ele>70</ele>
        <time>2022-10-29T10:55:17Z</time>
      </trkpt>
      <trkpt lat="47.18495" lon="-1.87438">
        <ele>71</ele>
        <time>2022-10-29T10:55:20Z</time>
      </trkpt>
      <trkpt lat="47.18488" lon="-1.87453">
        <ele>72</ele>
        <time>2022-10-29T10:55:23Z</time>
      </trkpt>
      <trkpt lat="47.18478" lon="-1.87462">
        <ele>72</ele>
        <time>2022-10-29T10:55:26Z</time>
      </trkpt>
      <trkpt lat="47.18469" lon="-1.87469">
        <ele>73</ele>
        <time>2022-10-29T10:55:29Z</time>
      </trkpt>
      <trkpt lat="47.18459" lon="-1.87477">
        <ele>74</ele>
        <time>2022-10-29T10:55:32Z</time>
      </trkpt>
      <trkpt lat="47.18448" lon="-1.87486">
        <ele>74</ele>
        <time>2022-10-29T10:55:35Z</time>
      </trkpt>
      <trkpt lat="47.18438" lon="-1.87493">
        <ele>75</ele>
        <time>2022-10-29T10:55:38Z</time>
      </trkpt>
      <trkpt lat="47.18428" lon="-1.87499">
        <ele>75</ele>
        <time>2022-10-29T10:55:41Z</time>
      </trkpt>
      <trkpt lat="47.18417" lon="-1.87503">
        <ele>76</ele>
        <time>2022-10-29T10:55:44Z</time>
      </trkpt>
      <trkpt lat="47.18406" lon="-1.87507">
        <ele>76</ele>
        <time>2022-10-29T10:55:47Z</time>
      </trkpt>
      <trkpt lat="47.18395" lon="-1.8751">
        <ele>76</ele>
        <time>2022-10-29T10:55:50Z</time>
      </trkpt>
      <trkpt lat="47.18384" lon="-1.87512">
        <ele>76</ele>
        <time>2022-10-29T10:55:53Z</time>
      </trkpt>
      <trkpt lat="47.18373" lon="-1.87513">
        <ele>76</ele>
        <time>2022-10-29T10:55:56Z</time>
      </trkpt>
      <trkpt lat="47.18361" lon="-1.87515">
        <ele>76</ele>
        <time>2022-10-29T10:55:59Z</time>
      </trkpt>
      <trkpt lat="47.1835" lon="-1.87517">
        <ele>76</ele>
        <time>2022-10-29T10:56:02Z</time>
      </trkpt>
      <trkpt lat="47.18338" lon="-1.87519">
        <ele>77</ele>
        <time>2022-10-29T10:56:05Z</time>
      </trkpt>
      <trkpt lat="47.18326" lon="-1.87522">
        <ele>77</ele>
        <time>2022-10-29T10:56:08Z</time>
      </trkpt>
      <trkpt lat="47.18314" lon="-1.87524">
        <ele>76</ele>
        <time>2022-10-29T10:56:11Z</time>
      </trkpt>
      <trkpt lat="47.18302" lon="-1.87526">
        <ele>76</ele>
        <time>2022-10-29T10:56:14Z</time>
      </trkpt>
      <trkpt lat="47.18289" lon="-1.87529">
        <ele>76</ele>
        <time>2022-10-29T10:56:17Z</time>
      </trkpt>
      <trkpt lat="47.1828" lon="-1.87533">
        <ele>76</ele>
        <time>2022-10-29T10:56:19Z</time>
      </trkpt>
      <trkpt lat="47.18267" lon="-1.87539">
        <ele>76</ele>
        <time>2022-10-29T10:56:22Z</time>
      </trkpt>
      <trkpt lat="47.18258" lon="-1.87544">
        <ele>75</ele>
        <time>2022-10-29T10:56:24Z</time>
      </trkpt>
      <trkpt lat="47.1825" lon="-1.8755">
        <ele>75</ele>
        <time>2022-10-29T10:56:26Z</time>
      </trkpt>
      <trkpt lat="47.18242" lon="-1.87557">
        <ele>75</ele>
        <time>2022-10-29T10:56:28Z</time>
      </trkpt>
      <trkpt lat="47.18234" lon="-1.87564">
        <ele>75</ele>
        <time>2022-10-29T10:56:30Z</time>
      </trkpt>
      <trkpt lat="47.18225" lon="-1.87572">
        <ele>75</ele>
        <time>2022-10-29T10:56:32Z</time>
      </trkpt>
      <trkpt lat="47.18217" lon="-1.87579">
        <ele>75</ele>
        <time>2022-10-29T10:56:34Z</time>
      </trkpt>
      <trkpt lat="47.18208" lon="-1.87587">
        <ele>75</ele>
        <time>2022-10-29T10:56:36Z</time>
      </trkpt>
      <trkpt lat="47.182" lon="-1.87595">
        <ele>75</ele>
        <time>2022-10-29T10:56:38Z</time>
      </trkpt>
      <trkpt lat="47.18192" lon="-1.87603">
        <ele>75</ele>
        <time>2022-10-29T10:56:40Z</time>
      </trkpt>
      <trkpt lat="47.18183" lon="-1.87611">
        <ele>75</ele>
        <time>2022-10-29T10:56:42Z</time>
      </trkpt>
      <trkpt lat="47.18174" lon="-1.87619">
        <ele>75</ele>
        <time>2022-10-29T10:56:44Z</time>
      </trkpt>
      <trkpt lat="47.18166" lon="-1.87625">
        <ele>76</ele>
        <time>2022-10-29T10:56:46Z</time>
      </trkpt>
      <trkpt lat="47.18158" lon="-1.87632">
        <ele>77</ele>
        <time>2022-10-29T10:56:48Z</time>
      </trkpt>
      <trkpt lat="47.1815" lon="-1.87638">
        <ele>77</ele>
        <time>2022-10-29T10:56:50Z</time>
      </trkpt>
      <trkpt lat="47.18141" lon="-1.87644">
        <ele>77</ele>
        <time>2022-10-29T10:56:52Z</time>
      </trkpt>
      <trkpt lat="47.18133" lon="-1.87649">
        <ele>78</ele>
        <time>2022-10-29T10:56:54Z</time>
      </trkpt>
      <trkpt lat="47.18121" lon="-1.87657">
        <ele>78</ele>
        <time>2022-10-29T10:56:57Z</time>
      </trkpt>
      <trkpt lat="47.18109" lon="-1.87664">
        <ele>78</ele>
        <time>2022-10-29T10:57:00Z</time>
      </trkpt>
      <trkpt lat="47.181" lon="-1.87669">
        <ele>78</ele>
        <time>2022-10-29T10:57:02Z</time>
      </trkpt>
      <trkpt lat="47.18088" lon="-1.87677">
        <ele>79</ele>
        <time>2022-10-29T10:57:05Z</time>
      </trkpt>
      <trkpt lat="47.1808" lon="-1.87682">
        <ele>79</ele>
        <time>2022-10-29T10:57:07Z</time>
      </trkpt>
      <trkpt lat="47.18071" lon="-1.87689">
        <ele>79</ele>
        <time>2022-10-29T10:57:09Z</time>
      </trkpt>
      <trkpt lat="47.1806" lon="-1.87699">
        <ele>79</ele>
        <time>2022-10-29T10:57:12Z</time>
      </trkpt>
      <trkpt lat="47.18052" lon="-1.87706">
        <ele>79</ele>
        <time>2022-10-29T10:57:14Z</time>
      </trkpt>
      <trkpt lat="47.18042" lon="-1.87717">
        <ele>80</ele>
        <time>2022-10-29T10:57:17Z</time>
      </trkpt>
      <trkpt lat="47.18031" lon="-1.87728">
        <ele>81</ele>
        <time>2022-10-29T10:57:20Z</time>
      </trkpt>
      <trkpt lat="47.18021" lon="-1.87737">
        <ele>81</ele>
        <time>2022-10-29T10:57:23Z</time>
      </trkpt>
      <trkpt lat="47.1801" lon="-1.87745">
        <ele>82</ele>
        <time>2022-10-29T10:57:26Z</time>
      </trkpt>
      <trkpt lat="47.17999" lon="-1.87751">
        <ele>82</ele>
        <time>2022-10-29T10:57:29Z</time>
      </trkpt>
      <trkpt lat="47.17988" lon="-1.87757">
        <ele>82</ele>
        <time>2022-10-29T10:57:32Z</time>
      </trkpt>
      <trkpt lat="47.17977" lon="-1.87763">
        <ele>83</ele>
        <time>2022-10-29T10:57:35Z</time>
      </trkpt>
      <trkpt lat="47.17966" lon="-1.87769">
        <ele>83</ele>
        <time>2022-10-29T10:57:38Z</time>
      </trkpt>
      <trkpt lat="47.17955" lon="-1.87775">
        <ele>83</ele>
        <time>2022-10-29T10:57:41Z</time>
      </trkpt>
      <trkpt lat="47.17944" lon="-1.87782">
        <ele>83</ele>
        <time>2022-10-29T10:57:44Z</time>
      </trkpt>
      <trkpt lat="47.17933" lon="-1.87788">
        <ele>84</ele>
        <time>2022-10-29T10:57:47Z</time>
      </trkpt>
      <trkpt lat="47.17921" lon="-1.87794">
        <ele>85</ele>
        <time>2022-10-29T10:57:50Z</time>
      </trkpt>
      <trkpt lat="47.1791" lon="-1.878">
        <ele>85</ele>
        <time>2022-10-29T10:57:53Z</time>
      </trkpt>
      <trkpt lat="47.179" lon="-1.87807">
        <ele>85</ele>
        <time>2022-10-29T10:57:56Z</time>
      </trkpt>
      <trkpt lat="47.17889" lon="-1.87812">
        <ele>85</ele>
        <time>2022-10-29T10:57:59Z</time>
      </trkpt>
      <trkpt lat="47.17878" lon="-1.87818">
        <ele>86</ele>
        <time>2022-10-29T10:58:02Z</time>
      </trkpt>
      <trkpt lat="47.17867" lon="-1.87824">
        <ele>87</ele>
        <time>2022-10-29T10:58:05Z</time>
      </trkpt>
      <trkpt lat="47.17855" lon="-1.8783">
        <ele>87</ele>
        <time>2022-10-29T10:58:08Z</time>
      </trkpt>
      <trkpt lat="47.17843" lon="-1.87836">
        <ele>87</ele>
        <time>2022-10-29T10:58:11Z</time>
      </trkpt>
      <trkpt lat="47.17831" lon="-1.87841">
        <ele>87</ele>
        <time>2022-10-29T10:58:14Z</time>
      </trkpt>
      <trkpt lat="47.1782" lon="-1.87847">
        <ele>88</ele>
        <time>2022-10-29T10:58:17Z</time>
      </trkpt>
      <trkpt lat="47.17809" lon="-1.87852">
        <ele>90</ele>
        <time>2022-10-29T10:58:20Z</time>
      </trkpt>
      <trkpt lat="47.17799" lon="-1.87857">
        <ele>90</ele>
        <time>2022-10-29T10:58:23Z</time>
      </trkpt>
      <trkpt lat="47.17789" lon="-1.87864">
        <ele>92</ele>
        <time>2022-10-29T10:58:26Z</time>
      </trkpt>
      <trkpt lat="47.17778" lon="-1.87871">
        <ele>93</ele>
        <time>2022-10-29T10:58:29Z</time>
      </trkpt>
      <trkpt lat="47.17766" lon="-1.87878">
        <ele>93</ele>
        <time>2022-10-29T10:58:32Z</time>
      </trkpt>
      <trkpt lat="47.17753" lon="-1.87885">
        <ele>94</ele>
        <time>2022-10-29T10:58:35Z</time>
      </trkpt>
      <trkpt lat="47.17743" lon="-1.87889">
        <ele>93</ele>
        <time>2022-10-29T10:58:37Z</time>
      </trkpt>
      <trkpt lat="47.17731" lon="-1.87897">
        <ele>94</ele>
        <time>2022-10-29T10:58:40Z</time>
      </trkpt>
      <trkpt lat="47.17719" lon="-1.87905">
        <ele>94</ele>
        <time>2022-10-29T10:58:43Z</time>
      </trkpt>
      <trkpt lat="47.17708" lon="-1.87911">
        <ele>94</ele>
        <time>2022-10-29T10:58:46Z</time>
      </trkpt>
      <trkpt lat="47.17699" lon="-1.87915">
        <ele>94</ele>
        <time>2022-10-29T10:58:48Z</time>
      </trkpt>
      <trkpt lat="47.1769" lon="-1.87918">
        <ele>94</ele>
        <time>2022-10-29T10:58:50Z</time>
      </trkpt>
      <trkpt lat="47.17677" lon="-1.87919">
        <ele>95</ele>
        <time>2022-10-29T10:58:53Z</time>
      </trkpt>
      <trkpt lat="47.17664" lon="-1.87923">
        <ele>95</ele>
        <time>2022-10-29T10:58:56Z</time>
      </trkpt>
      <trkpt lat="47.17651" lon="-1.87927">
        <ele>95</ele>
        <time>2022-10-29T10:58:59Z</time>
      </trkpt>
      <trkpt lat="47.17641" lon="-1.87931">
        <ele>95</ele>
        <time>2022-10-29T10:59:02Z</time>
      </trkpt>
      <trkpt lat="47.1763" lon="-1.87935">
        <ele>95</ele>
        <time>2022-10-29T10:59:05Z</time>
      </trkpt>
      <trkpt lat="47.1762" lon="-1.8794">
        <ele>95</ele>
        <time>2022-10-29T10:59:08Z</time>
      </trkpt>
      <trkpt lat="47.17609" lon="-1.87946">
        <ele>96</ele>
        <time>2022-10-29T10:59:11Z</time>
      </trkpt>
      <trkpt lat="47.17599" lon="-1.87952">
        <ele>96</ele>
        <time>2022-10-29T10:59:14Z</time>
      </trkpt>
      <trkpt lat="47.17588" lon="-1.87959">
        <ele>97</ele>
        <time>2022-10-29T10:59:17Z</time>
      </trkpt>
      <trkpt lat="47.17577" lon="-1.87966">
        <ele>98</ele>
        <time>2022-10-29T10:59:20Z</time>
      </trkpt>
      <trkpt lat="47.17567" lon="-1.87973">
        <ele>99</ele>
        <time>2022-10-29T10:59:23Z</time>
      </trkpt>
      <trkpt lat="47.17557" lon="-1.8798">
        <ele>99</ele>
        <time>2022-10-29T10:59:26Z</time>
      </trkpt>
      <trkpt lat="47.17547" lon="-1.87986">
        <ele>100</ele>
        <time>2022-10-29T10:59:29Z</time>
      </trkpt>
      <trkpt lat="47.17537" lon="-1.87993">
        <ele>101</ele>
        <time>2022-10-29T10:59:32Z</time>
      </trkpt>
      <trkpt lat="47.17527" lon="-1.87999">
        <ele>102</ele>
        <time>2022-10-29T10:59:35Z</time>
      </trkpt>
      <trkpt lat="47.17518" lon="-1.88005">
        <ele>102</ele>
        <time>2022-10-29T10:59:38Z</time>
      </trkpt>
      <trkpt lat="47.17508" lon="-1.88012">
        <ele>102</ele>
        <time>2022-10-29T10:59:41Z</time>
      </trkpt>
      <trkpt lat="47.17499" lon="-1.88017">
        <ele>103</ele>
        <time>2022-10-29T10:59:44Z</time>
      </trkpt>
      <trkpt lat="47.17489" lon="-1.88023">
        <ele>103</ele>
        <time>2022-10-29T10:59:47Z</time>
      </trkpt>
      <trkpt lat="47.17479" lon="-1.88029">
        <ele>103</ele>
        <time>2022-10-29T10:59:50Z</time>
      </trkpt>
      <trkpt lat="47.1747" lon="-1.88036">
        <ele>104</ele>
        <time>2022-10-29T10:59:53Z</time>
      </trkpt>
      <trkpt lat="47.1746" lon="-1.88042">
        <ele>104</ele>
        <time>2022-10-29T10:59:56Z</time>
      </trkpt>
      <trkpt lat="47.1745" lon="-1.88048">
        <ele>105</ele>
        <time>2022-10-29T10:59:59Z</time>
      </trkpt>
      <trkpt lat="47.17441" lon="-1.88053">
        <ele>105</ele>
        <time>2022-10-29T11:00:02Z</time>
      </trkpt>
      <trkpt lat="47.17432" lon="-1.88058">
        <ele>105</ele>
        <time>2022-10-29T11:00:05Z</time>
      </trkpt>
      <trkpt lat="47.17421" lon="-1.88062">
        <ele>105</ele>
        <time>2022-10-29T11:00:08Z</time>
      </trkpt>
      <trkpt lat="47.1741" lon="-1.88066">
        <ele>106</ele>
        <time>2022-10-29T11:00:11Z</time>
      </trkpt>
      <trkpt lat="47.174" lon="-1.8807">
        <ele>107</ele>
        <time>2022-10-29T11:00:14Z</time>
      </trkpt>
      <trkpt lat="47.1739" lon="-1.88077">
        <ele>108</ele>
        <time>2022-10-29T11:00:17Z</time>
      </trkpt>
      <trkpt lat="47.17379" lon="-1.88084">
        <ele>108</ele>
        <time>2022-10-29T11:00:20Z</time>
      </trkpt>
      <trkpt lat="47.17368" lon="-1.88091">
        <ele>108</ele>
        <time>2022-10-29T11:00:23Z</time>
      </trkpt>
      <trkpt lat="47.17357" lon="-1.881">
        <ele>108</ele>
        <time>2022-10-29T11:00:26Z</time>
      </trkpt>
      <trkpt lat="47.17347" lon="-1.88114">
        <ele>108</ele>
        <time>2022-10-29T11:00:29Z</time>
      </trkpt>
      <trkpt lat="47.17344" lon="-1.88128">
        <ele>108</ele>
        <time>2022-10-29T11:00:31Z</time>
      </trkpt>
      <trkpt lat="47.17344" lon="-1.88144">
        <ele>107</ele>
        <time>2022-10-29T11:00:33Z</time>
      </trkpt>
      <trkpt lat="47.17347" lon="-1.88158">
        <ele>107</ele>
        <time>2022-10-29T11:00:35Z</time>
      </trkpt>
      <trkpt lat="47.17352" lon="-1.88172">
        <ele>106</ele>
        <time>2022-10-29T11:00:37Z</time>
      </trkpt>
      <trkpt lat="47.17356" lon="-1.88188">
        <ele>106</ele>
        <time>2022-10-29T11:00:39Z</time>
      </trkpt>
      <trkpt lat="47.17361" lon="-1.88203">
        <ele>106</ele>
        <time>2022-10-29T11:00:41Z</time>
      </trkpt>
      <trkpt lat="47.17365" lon="-1.8822">
        <ele>106</ele>
        <time>2022-10-29T11:00:43Z</time>
      </trkpt>
      <trkpt lat="47.17368" lon="-1.88238">
        <ele>106</ele>
        <time>2022-10-29T11:00:45Z</time>
      </trkpt>
      <trkpt lat="47.17369" lon="-1.88255">
        <ele>106</ele>
        <time>2022-10-29T11:00:47Z</time>
      </trkpt>
      <trkpt lat="47.17371" lon="-1.88274">
        <ele>106</ele>
        <time>2022-10-29T11:00:49Z</time>
      </trkpt>
      <trkpt lat="47.17371" lon="-1.88291">
        <ele>105</ele>
        <time>2022-10-29T11:00:51Z</time>
      </trkpt>
      <trkpt lat="47.17372" lon="-1.88309">
        <ele>105</ele>
        <time>2022-10-29T11:00:53Z</time>
      </trkpt>
      <trkpt lat="47.17373" lon="-1.88326">
        <ele>104</ele>
        <time>2022-10-29T11:00:55Z</time>
      </trkpt>
      <trkpt lat="47.17374" lon="-1.88343">
        <ele>104</ele>
        <time>2022-10-29T11:00:57Z</time>
      </trkpt>
      <trkpt lat="47.17375" lon="-1.8836">
        <ele>104</ele>
        <time>2022-10-29T11:00:59Z</time>
      </trkpt>
      <trkpt lat="47.17376" lon="-1.88377">
        <ele>104</ele>
        <time>2022-10-29T11:01:01Z</time>
      </trkpt>
      <trkpt lat="47.17378" lon="-1.88393">
        <ele>104</ele>
        <time>2022-10-29T11:01:03Z</time>
      </trkpt>
      <trkpt lat="47.17379" lon="-1.88409">
        <ele>104</ele>
        <time>2022-10-29T11:01:05Z</time>
      </trkpt>
      <trkpt lat="47.1738" lon="-1.88425">
        <ele>104</ele>
        <time>2022-10-29T11:01:07Z</time>
      </trkpt>
      <trkpt lat="47.17381" lon="-1.88441">
        <ele>104</ele>
        <time>2022-10-29T11:01:09Z</time>
      </trkpt>
      <trkpt lat="47.17382" lon="-1.88457">
        <ele>104</ele>
        <time>2022-10-29T11:01:11Z</time>
      </trkpt>
      <trkpt lat="47.17382" lon="-1.88472">
        <ele>104</ele>
        <time>2022-10-29T11:01:13Z</time>
      </trkpt>
      <trkpt lat="47.17383" lon="-1.88487">
        <ele>105</ele>
        <time>2022-10-29T11:01:15Z</time>
      </trkpt>
      <trkpt lat="47.17384" lon="-1.88502">
        <ele>105</ele>
        <time>2022-10-29T11:01:17Z</time>
      </trkpt>
      <trkpt lat="47.17384" lon="-1.88517">
        <ele>105</ele>
        <time>2022-10-29T11:01:19Z</time>
      </trkpt>
      <trkpt lat="47.17385" lon="-1.88533">
        <ele>105</ele>
        <time>2022-10-29T11:01:21Z</time>
      </trkpt>
      <trkpt lat="47.17386" lon="-1.88548">
        <ele>105</ele>
        <time>2022-10-29T11:01:23Z</time>
      </trkpt>
      <trkpt lat="47.17387" lon="-1.88564">
        <ele>104</ele>
        <time>2022-10-29T11:01:25Z</time>
      </trkpt>
      <trkpt lat="47.17388" lon="-1.88579">
        <ele>104</ele>
        <time>2022-10-29T11:01:27Z</time>
      </trkpt>
      <trkpt lat="47.17388" lon="-1.88595">
        <ele>104</ele>
        <time>2022-10-29T11:01:29Z</time>
      </trkpt>
      <trkpt lat="47.1739" lon="-1.88611">
        <ele>105</ele>
        <time>2022-10-29T11:01:31Z</time>
      </trkpt>
      <trkpt lat="47.1739" lon="-1.88626">
        <ele>105</ele>
        <time>2022-10-29T11:01:33Z</time>
      </trkpt>
      <trkpt lat="47.17391" lon="-1.88641">
        <ele>105</ele>
        <time>2022-10-29T11:01:35Z</time>
      </trkpt>
      <trkpt lat="47.17392" lon="-1.88657">
        <ele>104</ele>
        <time>2022-10-29T11:01:37Z</time>
      </trkpt>
      <trkpt lat="47.17393" lon="-1.88673">
        <ele>105</ele>
        <time>2022-10-29T11:01:39Z</time>
      </trkpt>
      <trkpt lat="47.17393" lon="-1.88689">
        <ele>104</ele>
        <time>2022-10-29T11:01:41Z</time>
      </trkpt>
      <trkpt lat="47.17394" lon="-1.88704">
        <ele>104</ele>
        <time>2022-10-29T11:01:43Z</time>
      </trkpt>
      <trkpt lat="47.17395" lon="-1.8872">
        <ele>105</ele>
        <time>2022-10-29T11:01:45Z</time>
      </trkpt>
      <trkpt lat="47.17396" lon="-1.88736">
        <ele>105</ele>
        <time>2022-10-29T11:01:47Z</time>
      </trkpt>
      <trkpt lat="47.17397" lon="-1.88752">
        <ele>105</ele>
        <time>2022-10-29T11:01:49Z</time>
      </trkpt>
      <trkpt lat="47.17398" lon="-1.88767">
        <ele>105</ele>
        <time>2022-10-29T11:01:51Z</time>
      </trkpt>
      <trkpt lat="47.17399" lon="-1.88783">
        <ele>105</ele>
        <time>2022-10-29T11:01:53Z</time>
      </trkpt>
      <trkpt lat="47.174" lon="-1.88799">
        <ele>105</ele>
        <time>2022-10-29T11:01:55Z</time>
      </trkpt>
      <trkpt lat="47.17403" lon="-1.88814">
        <ele>105</ele>
        <time>2022-10-29T11:01:57Z</time>
      </trkpt>
      <trkpt lat="47.17406" lon="-1.8883">
        <ele>105</ele>
        <time>2022-10-29T11:01:59Z</time>
      </trkpt>
      <trkpt lat="47.1741" lon="-1.88846">
        <ele>105</ele>
        <time>2022-10-29T11:02:01Z</time>
      </trkpt>
      <trkpt lat="47.17413" lon="-1.88863">
        <ele>105</ele>
        <time>2022-10-29T11:02:03Z</time>
      </trkpt>
      <trkpt lat="47.17417" lon="-1.88879">
        <ele>105</ele>
        <time>2022-10-29T11:02:05Z</time>
      </trkpt>
      <trkpt lat="47.17421" lon="-1.88896">
        <ele>105</ele>
        <time>2022-10-29T11:02:07Z</time>
      </trkpt>
      <trkpt lat="47.17425" lon="-1.88912">
        <ele>105</ele>
        <time>2022-10-29T11:02:09Z</time>
      </trkpt>
      <trkpt lat="47.17428" lon="-1.88928">
        <ele>105</ele>
        <time>2022-10-29T11:02:11Z</time>
      </trkpt>
      <trkpt lat="47.17432" lon="-1.88945">
        <ele>105</ele>
        <time>2022-10-29T11:02:13Z</time>
      </trkpt>
      <trkpt lat="47.17435" lon="-1.88961">
        <ele>105</ele>
        <time>2022-10-29T11:02:15Z</time>
      </trkpt>
      <trkpt lat="47.17439" lon="-1.88978">
        <ele>105</ele>
        <time>2022-10-29T11:02:17Z</time>
      </trkpt>
      <trkpt lat="47.17442" lon="-1.88994">
        <ele>105</ele>
        <time>2022-10-29T11:02:19Z</time>
      </trkpt>
      <trkpt lat="47.17446" lon="-1.8901">
        <ele>105</ele>
        <time>2022-10-29T11:02:21Z</time>
      </trkpt>
      <trkpt lat="47.1745" lon="-1.89027">
        <ele>105</ele>
        <time>2022-10-29T11:02:23Z</time>
      </trkpt>
      <trkpt lat="47.17453" lon="-1.89043">
        <ele>105</ele>
        <time>2022-10-29T11:02:25Z</time>
      </trkpt>
      <trkpt lat="47.17456" lon="-1.89059">
        <ele>105</ele>
        <time>2022-10-29T11:02:27Z</time>
      </trkpt>
      <trkpt lat="47.1746" lon="-1.89074">
        <ele>105</ele>
        <time>2022-10-29T11:02:29Z</time>
      </trkpt>
      <trkpt lat="47.17463" lon="-1.89089">
        <ele>106</ele>
        <time>2022-10-29T11:02:31Z</time>
      </trkpt>
      <trkpt lat="47.17467" lon="-1.89104">
        <ele>106</ele>
        <time>2022-10-29T11:02:33Z</time>
      </trkpt>
      <trkpt lat="47.1747" lon="-1.8912">
        <ele>106</ele>
        <time>2022-10-29T11:02:35Z</time>
      </trkpt>
      <trkpt lat="47.17474" lon="-1.89135">
        <ele>106</ele>
        <time>2022-10-29T11:02:37Z</time>
      </trkpt>
      <trkpt lat="47.17477" lon="-1.89151">
        <ele>106</ele>
        <time>2022-10-29T11:02:39Z</time>
      </trkpt>
      <trkpt lat="47.1748" lon="-1.89167">
        <ele>106</ele>
        <time>2022-10-29T11:02:41Z</time>
      </trkpt>
      <trkpt lat="47.17481" lon="-1.89184">
        <ele>106</ele>
        <time>2022-10-29T11:02:43Z</time>
      </trkpt>
      <trkpt lat="47.17483" lon="-1.892">
        <ele>106</ele>
        <time>2022-10-29T11:02:45Z</time>
      </trkpt>
      <trkpt lat="47.17484" lon="-1.89217">
        <ele>106</ele>
        <time>2022-10-29T11:02:47Z</time>
      </trkpt>
      <trkpt lat="47.17483" lon="-1.89233">
        <ele>106</ele>
        <time>2022-10-29T11:02:49Z</time>
      </trkpt>
      <trkpt lat="47.17482" lon="-1.89249">
        <ele>106</ele>
        <time>2022-10-29T11:02:51Z</time>
      </trkpt>
      <trkpt lat="47.17481" lon="-1.89266">
        <ele>106</ele>
        <time>2022-10-29T11:02:53Z</time>
      </trkpt>
      <trkpt lat="47.17479" lon="-1.89282">
        <ele>106</ele>
        <time>2022-10-29T11:02:55Z</time>
      </trkpt>
      <trkpt lat="47.17478" lon="-1.89298">
        <ele>106</ele>
        <time>2022-10-29T11:02:57Z</time>
      </trkpt>
      <trkpt lat="47.17476" lon="-1.89314">
        <ele>106</ele>
        <time>2022-10-29T11:02:59Z</time>
      </trkpt>
      <trkpt lat="47.17476" lon="-1.89331">
        <ele>106</ele>
        <time>2022-10-29T11:03:01Z</time>
      </trkpt>
      <trkpt lat="47.17476" lon="-1.89348">
        <ele>106</ele>
        <time>2022-10-29T11:03:03Z</time>
      </trkpt>
      <trkpt lat="47.17476" lon="-1.89364">
        <ele>106</ele>
        <time>2022-10-29T11:03:05Z</time>
      </trkpt>
      <trkpt lat="47.17477" lon="-1.89379">
        <ele>106</ele>
        <time>2022-10-29T11:03:07Z</time>
      </trkpt>
      <trkpt lat="47.17478" lon="-1.89394">
        <ele>106</ele>
        <time>2022-10-29T11:03:09Z</time>
      </trkpt>
      <trkpt lat="47.17479" lon="-1.89411">
        <ele>106</ele>
        <time>2022-10-29T11:03:11Z</time>
      </trkpt>
      <trkpt lat="47.17481" lon="-1.89427">
        <ele>106</ele>
        <time>2022-10-29T11:03:13Z</time>
      </trkpt>
      <trkpt lat="47.17482" lon="-1.89443">
        <ele>106</ele>
        <time>2022-10-29T11:03:15Z</time>
      </trkpt>
      <trkpt lat="47.17483" lon="-1.89459">
        <ele>106</ele>
        <time>2022-10-29T11:03:17Z</time>
      </trkpt>
      <trkpt lat="47.17484" lon="-1.89475">
        <ele>106</ele>
        <time>2022-10-29T11:03:19Z</time>
      </trkpt>
      <trkpt lat="47.17486" lon="-1.89491">
        <ele>106</ele>
        <time>2022-10-29T11:03:21Z</time>
      </trkpt>
      <trkpt lat="47.17488" lon="-1.89506">
        <ele>106</ele>
        <time>2022-10-29T11:03:23Z</time>
      </trkpt>
      <trkpt lat="47.1749" lon="-1.89523">
        <ele>106</ele>
        <time>2022-10-29T11:03:25Z</time>
      </trkpt>
      <trkpt lat="47.1749" lon="-1.89538">
        <ele>106</ele>
        <time>2022-10-29T11:03:27Z</time>
      </trkpt>
      <trkpt lat="47.1749" lon="-1.89555">
        <ele>106</ele>
        <time>2022-10-29T11:03:29Z</time>
      </trkpt>
      <trkpt lat="47.1749" lon="-1.89573">
        <ele>106</ele>
        <time>2022-10-29T11:03:31Z</time>
      </trkpt>
      <trkpt lat="47.17488" lon="-1.89589">
        <ele>106</ele>
        <time>2022-10-29T11:03:33Z</time>
      </trkpt>
      <trkpt lat="47.17487" lon="-1.89606">
        <ele>106</ele>
        <time>2022-10-29T11:03:35Z</time>
      </trkpt>
      <trkpt lat="47.17484" lon="-1.89622">
        <ele>105</ele>
        <time>2022-10-29T11:03:37Z</time>
      </trkpt>
      <trkpt lat="47.17481" lon="-1.89638">
        <ele>106</ele>
        <time>2022-10-29T11:03:39Z</time>
      </trkpt>
      <trkpt lat="47.17478" lon="-1.89653">
        <ele>106</ele>
        <time>2022-10-29T11:03:41Z</time>
      </trkpt>
      <trkpt lat="47.17474" lon="-1.89668">
        <ele>106</ele>
        <time>2022-10-29T11:03:43Z</time>
      </trkpt>
      <trkpt lat="47.17471" lon="-1.89684">
        <ele>106</ele>
        <time>2022-10-29T11:03:45Z</time>
      </trkpt>
      <trkpt lat="47.17468" lon="-1.89699">
        <ele>106</ele>
        <time>2022-10-29T11:03:47Z</time>
      </trkpt>
      <trkpt lat="47.17464" lon="-1.89714">
        <ele>106</ele>
        <time>2022-10-29T11:03:49Z</time>
      </trkpt>
      <trkpt lat="47.17461" lon="-1.8973">
        <ele>106</ele>
        <time>2022-10-29T11:03:51Z</time>
      </trkpt>
      <trkpt lat="47.17457" lon="-1.89745">
        <ele>106</ele>
        <time>2022-10-29T11:03:53Z</time>
      </trkpt>
      <trkpt lat="47.17454" lon="-1.8976">
        <ele>106</ele>
        <time>2022-10-29T11:03:55Z</time>
      </trkpt>
      <trkpt lat="47.17451" lon="-1.89776">
        <ele>105</ele>
        <time>2022-10-29T11:03:57Z</time>
      </trkpt>
      <trkpt lat="47.17448" lon="-1.89792">
        <ele>105</ele>
        <time>2022-10-29T11:03:59Z</time>
      </trkpt>
      <trkpt lat="47.17444" lon="-1.89808">
        <ele>106</ele>
        <time>2022-10-29T11:04:01Z</time>
      </trkpt>
      <trkpt lat="47.17441" lon="-1.89824">
        <ele>106</ele>
        <time>2022-10-29T11:04:03Z</time>
      </trkpt>
      <trkpt lat="47.17438" lon="-1.89839">
        <ele>107</ele>
        <time>2022-10-29T11:04:05Z</time>
      </trkpt>
      <trkpt lat="47.17435" lon="-1.89855">
        <ele>107</ele>
        <time>2022-10-29T11:04:07Z</time>
      </trkpt>
      <trkpt lat="47.17431" lon="-1.89872">
        <ele>107</ele>
        <time>2022-10-29T11:04:09Z</time>
      </trkpt>
      <trkpt lat="47.17427" lon="-1.89887">
        <ele>107</ele>
        <time>2022-10-29T11:04:11Z</time>
      </trkpt>
      <trkpt lat="47.17424" lon="-1.89903">
        <ele>107</ele>
        <time>2022-10-29T11:04:13Z</time>
      </trkpt>
      <trkpt lat="47.1742" lon="-1.89918">
        <ele>107</ele>
        <time>2022-10-29T11:04:15Z</time>
      </trkpt>
      <trkpt lat="47.17416" lon="-1.89933">
        <ele>107</ele>
        <time>2022-10-29T11:04:17Z</time>
      </trkpt>
      <trkpt lat="47.17414" lon="-1.89946">
        <ele>106</ele>
        <time>2022-10-29T11:04:19Z</time>
      </trkpt>
      <trkpt lat="47.1741" lon="-1.89962">
        <ele>107</ele>
        <time>2022-10-29T11:04:22Z</time>
      </trkpt>
      <trkpt lat="47.17406" lon="-1.89975">
        <ele>107</ele>
        <time>2022-10-29T11:04:24Z</time>
      </trkpt>
      <trkpt lat="47.17402" lon="-1.89989">
        <ele>107</ele>
        <time>2022-10-29T11:04:26Z</time>
      </trkpt>
      <trkpt lat="47.17398" lon="-1.90004">
        <ele>107</ele>
        <time>2022-10-29T11:04:28Z</time>
      </trkpt>
      <trkpt lat="47.17394" lon="-1.90019">
        <ele>108</ele>
        <time>2022-10-29T11:04:30Z</time>
      </trkpt>
      <trkpt lat="47.1739" lon="-1.90035">
        <ele>108</ele>
        <time>2022-10-29T11:04:32Z</time>
      </trkpt>
      <trkpt lat="47.17386" lon="-1.90051">
        <ele>108</ele>
        <time>2022-10-29T11:04:34Z</time>
      </trkpt>
      <trkpt lat="47.17381" lon="-1.90066">
        <ele>108</ele>
        <time>2022-10-29T11:04:36Z</time>
      </trkpt>
      <trkpt lat="47.17377" lon="-1.90083">
        <ele>107</ele>
        <time>2022-10-29T11:04:38Z</time>
      </trkpt>
      <trkpt lat="47.17373" lon="-1.90099">
        <ele>107</ele>
        <time>2022-10-29T11:04:40Z</time>
      </trkpt>
      <trkpt lat="47.17368" lon="-1.90115">
        <ele>108</ele>
        <time>2022-10-29T11:04:42Z</time>
      </trkpt>
      <trkpt lat="47.17364" lon="-1.90132">
        <ele>107</ele>
        <time>2022-10-29T11:04:44Z</time>
      </trkpt>
      <trkpt lat="47.17359" lon="-1.90147">
        <ele>107</ele>
        <time>2022-10-29T11:04:46Z</time>
      </trkpt>
      <trkpt lat="47.17355" lon="-1.90163">
        <ele>107</ele>
        <time>2022-10-29T11:04:48Z</time>
      </trkpt>
      <trkpt lat="47.1735" lon="-1.90178">
        <ele>107</ele>
        <time>2022-10-29T11:04:50Z</time>
      </trkpt>
      <trkpt lat="47.17346" lon="-1.90194">
        <ele>107</ele>
        <time>2022-10-29T11:04:52Z</time>
      </trkpt>
      <trkpt lat="47.17342" lon="-1.90209">
        <ele>107</ele>
        <time>2022-10-29T11:04:54Z</time>
      </trkpt>
      <trkpt lat="47.17337" lon="-1.90225">
        <ele>107</ele>
        <time>2022-10-29T11:04:56Z</time>
      </trkpt>
      <trkpt lat="47.17333" lon="-1.90241">
        <ele>107</ele>
        <time>2022-10-29T11:04:58Z</time>
      </trkpt>
      <trkpt lat="47.17329" lon="-1.90256">
        <ele>108</ele>
        <time>2022-10-29T11:05:00Z</time>
      </trkpt>
      <trkpt lat="47.17324" lon="-1.90273">
        <ele>108</ele>
        <time>2022-10-29T11:05:02Z</time>
      </trkpt>
      <trkpt lat="47.1732" lon="-1.90289">
        <ele>108</ele>
        <time>2022-10-29T11:05:04Z</time>
      </trkpt>
      <trkpt lat="47.17316" lon="-1.90304">
        <ele>108</ele>
        <time>2022-10-29T11:05:06Z</time>
      </trkpt>
      <trkpt lat="47.1731" lon="-1.90329">
        <ele>108</ele>
        <time>2022-10-29T11:05:09Z</time>
      </trkpt>
      <trkpt lat="47.17306" lon="-1.90345">
        <ele>108</ele>
        <time>2022-10-29T11:05:11Z</time>
      </trkpt>
      <trkpt lat="47.17302" lon="-1.90363">
        <ele>108</ele>
        <time>2022-10-29T11:05:13Z</time>
      </trkpt>
      <trkpt lat="47.17299" lon="-1.90381">
        <ele>109</ele>
        <time>2022-10-29T11:05:15Z</time>
      </trkpt>
      <trkpt lat="47.17295" lon="-1.90398">
        <ele>108</ele>
        <time>2022-10-29T11:05:17Z</time>
      </trkpt>
      <trkpt lat="47.17292" lon="-1.90416">
        <ele>108</ele>
        <time>2022-10-29T11:05:19Z</time>
      </trkpt>
      <trkpt lat="47.17289" lon="-1.90442">
        <ele>108</ele>
        <time>2022-10-29T11:05:22Z</time>
      </trkpt>
      <trkpt lat="47.17286" lon="-1.90468">
        <ele>107</ele>
        <time>2022-10-29T11:05:25Z</time>
      </trkpt>
      <trkpt lat="47.17285" lon="-1.90484">
        <ele>107</ele>
        <time>2022-10-29T11:05:27Z</time>
      </trkpt>
      <trkpt lat="47.17283" lon="-1.90501">
        <ele>107</ele>
        <time>2022-10-29T11:05:29Z</time>
      </trkpt>
      <trkpt lat="47.17282" lon="-1.90518">
        <ele>107</ele>
        <time>2022-10-29T11:05:31Z</time>
      </trkpt>
      <trkpt lat="47.17281" lon="-1.90537">
        <ele>107</ele>
        <time>2022-10-29T11:05:33Z</time>
      </trkpt>
      <trkpt lat="47.1728" lon="-1.90555">
        <ele>107</ele>
        <time>2022-10-29T11:05:35Z</time>
      </trkpt>
      <trkpt lat="47.17279" lon="-1.90574">
        <ele>107</ele>
        <time>2022-10-29T11:05:37Z</time>
      </trkpt>
      <trkpt lat="47.17277" lon="-1.9059">
        <ele>107</ele>
        <time>2022-10-29T11:05:39Z</time>
      </trkpt>
      <trkpt lat="47.17276" lon="-1.90609">
        <ele>107</ele>
        <time>2022-10-29T11:05:41Z</time>
      </trkpt>
      <trkpt lat="47.17275" lon="-1.90626">
        <ele>107</ele>
        <time>2022-10-29T11:05:43Z</time>
      </trkpt>
      <trkpt lat="47.17274" lon="-1.90644">
        <ele>107</ele>
        <time>2022-10-29T11:05:45Z</time>
      </trkpt>
      <trkpt lat="47.17273" lon="-1.90661">
        <ele>107</ele>
        <time>2022-10-29T11:05:47Z</time>
      </trkpt>
      <trkpt lat="47.17273" lon="-1.90678">
        <ele>107</ele>
        <time>2022-10-29T11:05:49Z</time>
      </trkpt>
      <trkpt lat="47.17272" lon="-1.90695">
        <ele>107</ele>
        <time>2022-10-29T11:05:51Z</time>
      </trkpt>
      <trkpt lat="47.1727" lon="-1.90714">
        <ele>107</ele>
        <time>2022-10-29T11:05:53Z</time>
      </trkpt>
      <trkpt lat="47.17269" lon="-1.90732">
        <ele>107</ele>
        <time>2022-10-29T11:05:55Z</time>
      </trkpt>
      <trkpt lat="47.17268" lon="-1.9075">
        <ele>108</ele>
        <time>2022-10-29T11:05:57Z</time>
      </trkpt>
      <trkpt lat="47.17267" lon="-1.90767">
        <ele>108</ele>
        <time>2022-10-29T11:05:59Z</time>
      </trkpt>
      <trkpt lat="47.17264" lon="-1.90785">
        <ele>108</ele>
        <time>2022-10-29T11:06:01Z</time>
      </trkpt>
      <trkpt lat="47.17262" lon="-1.90801">
        <ele>108</ele>
        <time>2022-10-29T11:06:03Z</time>
      </trkpt>
      <trkpt lat="47.17257" lon="-1.90817">
        <ele>108</ele>
        <time>2022-10-29T11:06:05Z</time>
      </trkpt>
      <trkpt lat="47.17253" lon="-1.90833">
        <ele>107</ele>
        <time>2022-10-29T11:06:07Z</time>
      </trkpt>
      <trkpt lat="47.17249" lon="-1.90848">
        <ele>107</ele>
        <time>2022-10-29T11:06:09Z</time>
      </trkpt>
      <trkpt lat="47.17245" lon="-1.90865">
        <ele>106</ele>
        <time>2022-10-29T11:06:11Z</time>
      </trkpt>
      <trkpt lat="47.1724" lon="-1.90882">
        <ele>106</ele>
        <time>2022-10-29T11:06:13Z</time>
      </trkpt>
      <trkpt lat="47.17235" lon="-1.90897">
        <ele>106</ele>
        <time>2022-10-29T11:06:15Z</time>
      </trkpt>
      <trkpt lat="47.17231" lon="-1.90915">
        <ele>106</ele>
        <time>2022-10-29T11:06:17Z</time>
      </trkpt>
      <trkpt lat="47.17227" lon="-1.90931">
        <ele>106</ele>
        <time>2022-10-29T11:06:19Z</time>
      </trkpt>
      <trkpt lat="47.1722" lon="-1.90946">
        <ele>106</ele>
        <time>2022-10-29T11:06:21Z</time>
      </trkpt>
      <trkpt lat="47.17213" lon="-1.90962">
        <ele>105</ele>
        <time>2022-10-29T11:06:23Z</time>
      </trkpt>
      <trkpt lat="47.17204" lon="-1.90974">
        <ele>104</ele>
        <time>2022-10-29T11:06:25Z</time>
      </trkpt>
      <trkpt lat="47.17196" lon="-1.90986">
        <ele>104</ele>
        <time>2022-10-29T11:06:27Z</time>
      </trkpt>
      <trkpt lat="47.17188" lon="-1.90998">
        <ele>104</ele>
        <time>2022-10-29T11:06:29Z</time>
      </trkpt>
      <trkpt lat="47.17181" lon="-1.9101">
        <ele>104</ele>
        <time>2022-10-29T11:06:31Z</time>
      </trkpt>
      <trkpt lat="47.17172" lon="-1.91022">
        <ele>104</ele>
        <time>2022-10-29T11:06:33Z</time>
      </trkpt>
      <trkpt lat="47.17163" lon="-1.91034">
        <ele>103</ele>
        <time>2022-10-29T11:06:35Z</time>
      </trkpt>
      <trkpt lat="47.17154" lon="-1.91045">
        <ele>103</ele>
        <time>2022-10-29T11:06:37Z</time>
      </trkpt>
      <trkpt lat="47.17147" lon="-1.91057">
        <ele>103</ele>
        <time>2022-10-29T11:06:39Z</time>
      </trkpt>
      <trkpt lat="47.17139" lon="-1.9107">
        <ele>102</ele>
        <time>2022-10-29T11:06:41Z</time>
      </trkpt>
      <trkpt lat="47.1713" lon="-1.91082">
        <ele>102</ele>
        <time>2022-10-29T11:06:43Z</time>
      </trkpt>
      <trkpt lat="47.17122" lon="-1.91093">
        <ele>102</ele>
        <time>2022-10-29T11:06:45Z</time>
      </trkpt>
      <trkpt lat="47.17114" lon="-1.91107">
        <ele>103</ele>
        <time>2022-10-29T11:06:47Z</time>
      </trkpt>
      <trkpt lat="47.17105" lon="-1.9112">
        <ele>102</ele>
        <time>2022-10-29T11:06:49Z</time>
      </trkpt>
      <trkpt lat="47.17096" lon="-1.91133">
        <ele>102</ele>
        <time>2022-10-29T11:06:51Z</time>
      </trkpt>
      <trkpt lat="47.17088" lon="-1.91146">
        <ele>102</ele>
        <time>2022-10-29T11:06:53Z</time>
      </trkpt>
      <trkpt lat="47.17079" lon="-1.91159">
        <ele>102</ele>
        <time>2022-10-29T11:06:55Z</time>
      </trkpt>
      <trkpt lat="47.1707" lon="-1.91172">
        <ele>102</ele>
        <time>2022-10-29T11:06:57Z</time>
      </trkpt>
      <trkpt lat="47.17061" lon="-1.91185">
        <ele>102</ele>
        <time>2022-10-29T11:06:59Z</time>
      </trkpt>
      <trkpt lat="47.17052" lon="-1.91197">
        <ele>102</ele>
        <time>2022-10-29T11:07:01Z</time>
      </trkpt>
      <trkpt lat="47.17044" lon="-1.9121">
        <ele>102</ele>
        <time>2022-10-29T11:07:03Z</time>
      </trkpt>
      <trkpt lat="47.17037" lon="-1.91223">
        <ele>102</ele>
        <time>2022-10-29T11:07:05Z</time>
      </trkpt>
      <trkpt lat="47.17028" lon="-1.91234">
        <ele>102</ele>
        <time>2022-10-29T11:07:07Z</time>
      </trkpt>
      <trkpt lat="47.17017" lon="-1.91244">
        <ele>102</ele>
        <time>2022-10-29T11:07:09Z</time>
      </trkpt>
      <trkpt lat="47.17005" lon="-1.91254">
        <ele>101</ele>
        <time>2022-10-29T11:07:11Z</time>
      </trkpt>
      <trkpt lat="47.16994" lon="-1.91262">
        <ele>101</ele>
        <time>2022-10-29T11:07:13Z</time>
      </trkpt>
      <trkpt lat="47.16982" lon="-1.9127">
        <ele>101</ele>
        <time>2022-10-29T11:07:15Z</time>
      </trkpt>
      <trkpt lat="47.1697" lon="-1.91276">
        <ele>100</ele>
        <time>2022-10-29T11:07:17Z</time>
      </trkpt>
      <trkpt lat="47.16959" lon="-1.91283">
        <ele>100</ele>
        <time>2022-10-29T11:07:19Z</time>
      </trkpt>
      <trkpt lat="47.16947" lon="-1.91289">
        <ele>100</ele>
        <time>2022-10-29T11:07:21Z</time>
      </trkpt>
      <trkpt lat="47.16935" lon="-1.91296">
        <ele>99</ele>
        <time>2022-10-29T11:07:23Z</time>
      </trkpt>
      <trkpt lat="47.16924" lon="-1.91303">
        <ele>99</ele>
        <time>2022-10-29T11:07:25Z</time>
      </trkpt>
      <trkpt lat="47.16912" lon="-1.91309">
        <ele>98</ele>
        <time>2022-10-29T11:07:27Z</time>
      </trkpt>
      <trkpt lat="47.169" lon="-1.91317">
        <ele>98</ele>
        <time>2022-10-29T11:07:29Z</time>
      </trkpt>
      <trkpt lat="47.1689" lon="-1.91328">
        <ele>98</ele>
        <time>2022-10-29T11:07:31Z</time>
      </trkpt>
      <trkpt lat="47.16881" lon="-1.91341">
        <ele>98</ele>
        <time>2022-10-29T11:07:33Z</time>
      </trkpt>
      <trkpt lat="47.16874" lon="-1.91356">
        <ele>98</ele>
        <time>2022-10-29T11:07:35Z</time>
      </trkpt>
      <trkpt lat="47.16869" lon="-1.91371">
        <ele>99</ele>
        <time>2022-10-29T11:07:37Z</time>
      </trkpt>
      <trkpt lat="47.16864" lon="-1.91387">
        <ele>99</ele>
        <time>2022-10-29T11:07:39Z</time>
      </trkpt>
      <trkpt lat="47.16859" lon="-1.91404">
        <ele>99</ele>
        <time>2022-10-29T11:07:41Z</time>
      </trkpt>
      <trkpt lat="47.16855" lon="-1.9142">
        <ele>99</ele>
        <time>2022-10-29T11:07:43Z</time>
      </trkpt>
      <trkpt lat="47.1685" lon="-1.91435">
        <ele>100</ele>
        <time>2022-10-29T11:07:45Z</time>
      </trkpt>
      <trkpt lat="47.16846" lon="-1.91451">
        <ele>100</ele>
        <time>2022-10-29T11:07:47Z</time>
      </trkpt>
      <trkpt lat="47.16841" lon="-1.91466">
        <ele>100</ele>
        <time>2022-10-29T11:07:49Z</time>
      </trkpt>
      <trkpt lat="47.16837" lon="-1.91482">
        <ele>100</ele>
        <time>2022-10-29T11:07:51Z</time>
      </trkpt>
      <trkpt lat="47.16832" lon="-1.91497">
        <ele>101</ele>
        <time>2022-10-29T11:07:53Z</time>
      </trkpt>
      <trkpt lat="47.16828" lon="-1.91512">
        <ele>100</ele>
        <time>2022-10-29T11:07:55Z</time>
      </trkpt>
      <trkpt lat="47.16822" lon="-1.91527">
        <ele>100</ele>
        <time>2022-10-29T11:07:57Z</time>
      </trkpt>
      <trkpt lat="47.16815" lon="-1.9154">
        <ele>100</ele>
        <time>2022-10-29T11:07:59Z</time>
      </trkpt>
      <trkpt lat="47.16809" lon="-1.91553">
        <ele>100</ele>
        <time>2022-10-29T11:08:01Z</time>
      </trkpt>
      <trkpt lat="47.16803" lon="-1.91565">
        <ele>100</ele>
        <time>2022-10-29T11:08:03Z</time>
      </trkpt>
      <trkpt lat="47.16796" lon="-1.91577">
        <ele>100</ele>
        <time>2022-10-29T11:08:05Z</time>
      </trkpt>
      <trkpt lat="47.16789" lon="-1.91589">
        <ele>100</ele>
        <time>2022-10-29T11:08:07Z</time>
      </trkpt>
      <trkpt lat="47.16782" lon="-1.91601">
        <ele>101</ele>
        <time>2022-10-29T11:08:09Z</time>
      </trkpt>
      <trkpt lat="47.16776" lon="-1.91613">
        <ele>102</ele>
        <time>2022-10-29T11:08:11Z</time>
      </trkpt>
      <trkpt lat="47.16771" lon="-1.91625">
        <ele>102</ele>
        <time>2022-10-29T11:08:13Z</time>
      </trkpt>
      <trkpt lat="47.16765" lon="-1.91638">
        <ele>103</ele>
        <time>2022-10-29T11:08:15Z</time>
      </trkpt>
      <trkpt lat="47.16759" lon="-1.9165">
        <ele>104</ele>
        <time>2022-10-29T11:08:17Z</time>
      </trkpt>
      <trkpt lat="47.16752" lon="-1.91663">
        <ele>104</ele>
        <time>2022-10-29T11:08:19Z</time>
      </trkpt>
      <trkpt lat="47.16745" lon="-1.91675">
        <ele>105</ele>
        <time>2022-10-29T11:08:21Z</time>
      </trkpt>
      <trkpt lat="47.16736" lon="-1.91687">
        <ele>105</ele>
        <time>2022-10-29T11:08:23Z</time>
      </trkpt>
      <trkpt lat="47.16729" lon="-1.91699">
        <ele>105</ele>
        <time>2022-10-29T11:08:25Z</time>
      </trkpt>
      <trkpt lat="47.16721" lon="-1.91713">
        <ele>105</ele>
        <time>2022-10-29T11:08:27Z</time>
      </trkpt>
      <trkpt lat="47.16712" lon="-1.91726">
        <ele>104</ele>
        <time>2022-10-29T11:08:29Z</time>
      </trkpt>
      <trkpt lat="47.16703" lon="-1.91739">
        <ele>104</ele>
        <time>2022-10-29T11:08:31Z</time>
      </trkpt>
      <trkpt lat="47.16695" lon="-1.91752">
        <ele>103</ele>
        <time>2022-10-29T11:08:33Z</time>
      </trkpt>
      <trkpt lat="47.16688" lon="-1.91765">
        <ele>103</ele>
        <time>2022-10-29T11:08:35Z</time>
      </trkpt>
      <trkpt lat="47.16681" lon="-1.91778">
        <ele>103</ele>
        <time>2022-10-29T11:08:37Z</time>
      </trkpt>
      <trkpt lat="47.16675" lon="-1.91791">
        <ele>103</ele>
        <time>2022-10-29T11:08:39Z</time>
      </trkpt>
      <trkpt lat="47.16668" lon="-1.91805">
        <ele>103</ele>
        <time>2022-10-29T11:08:41Z</time>
      </trkpt>
      <trkpt lat="47.16661" lon="-1.91819">
        <ele>102</ele>
        <time>2022-10-29T11:08:43Z</time>
      </trkpt>
      <trkpt lat="47.16655" lon="-1.91833">
        <ele>102</ele>
        <time>2022-10-29T11:08:45Z</time>
      </trkpt>
      <trkpt lat="47.16648" lon="-1.91846">
        <ele>102</ele>
        <time>2022-10-29T11:08:47Z</time>
      </trkpt>
      <trkpt lat="47.16641" lon="-1.9186">
        <ele>101</ele>
        <time>2022-10-29T11:08:49Z</time>
      </trkpt>
      <trkpt lat="47.16635" lon="-1.91875">
        <ele>101</ele>
        <time>2022-10-29T11:08:51Z</time>
      </trkpt>
      <trkpt lat="47.16629" lon="-1.91889">
        <ele>101</ele>
        <time>2022-10-29T11:08:53Z</time>
      </trkpt>
      <trkpt lat="47.16623" lon="-1.91903">
        <ele>101</ele>
        <time>2022-10-29T11:08:55Z</time>
      </trkpt>
      <trkpt lat="47.16617" lon="-1.91916">
        <ele>101</ele>
        <time>2022-10-29T11:08:57Z</time>
      </trkpt>
      <trkpt lat="47.16612" lon="-1.9193">
        <ele>102</ele>
        <time>2022-10-29T11:08:59Z</time>
      </trkpt>
      <trkpt lat="47.16607" lon="-1.91942">
        <ele>103</ele>
        <time>2022-10-29T11:09:01Z</time>
      </trkpt>
      <trkpt lat="47.16602" lon="-1.91957">
        <ele>105</ele>
        <time>2022-10-29T11:09:03Z</time>
      </trkpt>
      <trkpt lat="47.16597" lon="-1.91971">
        <ele>105</ele>
        <time>2022-10-29T11:09:05Z</time>
      </trkpt>
      <trkpt lat="47.1659" lon="-1.91986">
        <ele>105</ele>
        <time>2022-10-29T11:09:07Z</time>
      </trkpt>
      <trkpt lat="47.16582" lon="-1.91999">
        <ele>105</ele>
        <time>2022-10-29T11:09:09Z</time>
      </trkpt>
      <trkpt lat="47.16575" lon="-1.92015">
        <ele>104</ele>
        <time>2022-10-29T11:09:11Z</time>
      </trkpt>
      <trkpt lat="47.16568" lon="-1.92029">
        <ele>104</ele>
        <time>2022-10-29T11:09:13Z</time>
      </trkpt>
      <trkpt lat="47.16562" lon="-1.92044">
        <ele>105</ele>
        <time>2022-10-29T11:09:15Z</time>
      </trkpt>
      <trkpt lat="47.16555" lon="-1.92058">
        <ele>104</ele>
        <time>2022-10-29T11:09:17Z</time>
      </trkpt>
      <trkpt lat="47.16551" lon="-1.92075">
        <ele>105</ele>
        <time>2022-10-29T11:09:19Z</time>
      </trkpt>
      <trkpt lat="47.16545" lon="-1.92094">
        <ele>104</ele>
        <time>2022-10-29T11:09:21Z</time>
      </trkpt>
      <trkpt lat="47.16539" lon="-1.92111">
        <ele>104</ele>
        <time>2022-10-29T11:09:23Z</time>
      </trkpt>
      <trkpt lat="47.16534" lon="-1.92128">
        <ele>103</ele>
        <time>2022-10-29T11:09:25Z</time>
      </trkpt>
      <trkpt lat="47.16529" lon="-1.92146">
        <ele>103</ele>
        <time>2022-10-29T11:09:27Z</time>
      </trkpt>
      <trkpt lat="47.16525" lon="-1.92163">
        <ele>102</ele>
        <time>2022-10-29T11:09:29Z</time>
      </trkpt>
      <trkpt lat="47.16523" lon="-1.9218">
        <ele>102</ele>
        <time>2022-10-29T11:09:31Z</time>
      </trkpt>
      <trkpt lat="47.16524" lon="-1.92197">
        <ele>101</ele>
        <time>2022-10-29T11:09:33Z</time>
      </trkpt>
      <trkpt lat="47.16527" lon="-1.92215">
        <ele>102</ele>
        <time>2022-10-29T11:09:35Z</time>
      </trkpt>
      <trkpt lat="47.1653" lon="-1.92232">
        <ele>101</ele>
        <time>2022-10-29T11:09:37Z</time>
      </trkpt>
      <trkpt lat="47.16534" lon="-1.92251">
        <ele>101</ele>
        <time>2022-10-29T11:09:39Z</time>
      </trkpt>
      <trkpt lat="47.16537" lon="-1.92268">
        <ele>101</ele>
        <time>2022-10-29T11:09:41Z</time>
      </trkpt>
      <trkpt lat="47.1654" lon="-1.92285">
        <ele>102</ele>
        <time>2022-10-29T11:09:43Z</time>
      </trkpt>
      <trkpt lat="47.16543" lon="-1.92303">
        <ele>103</ele>
        <time>2022-10-29T11:09:45Z</time>
      </trkpt>
      <trkpt lat="47.16547" lon="-1.9232">
        <ele>103</ele>
        <time>2022-10-29T11:09:47Z</time>
      </trkpt>
      <trkpt lat="47.1655" lon="-1.92338">
        <ele>103</ele>
        <time>2022-10-29T11:09:49Z</time>
      </trkpt>
      <trkpt lat="47.16554" lon="-1.92357">
        <ele>103</ele>
        <time>2022-10-29T11:09:51Z</time>
      </trkpt>
      <trkpt lat="47.16557" lon="-1.92375">
        <ele>103</ele>
        <time>2022-10-29T11:09:53Z</time>
      </trkpt>
      <trkpt lat="47.1656" lon="-1.92393">
        <ele>103</ele>
        <time>2022-10-29T11:09:55Z</time>
      </trkpt>
      <trkpt lat="47.16564" lon="-1.9241">
        <ele>103</ele>
        <time>2022-10-29T11:09:57Z</time>
      </trkpt>
      <trkpt lat="47.16567" lon="-1.92428">
        <ele>103</ele>
        <time>2022-10-29T11:09:59Z</time>
      </trkpt>
      <trkpt lat="47.16568" lon="-1.92449">
        <ele>103</ele>
        <time>2022-10-29T11:10:01Z</time>
      </trkpt>
      <trkpt lat="47.16568" lon="-1.9247">
        <ele>103</ele>
        <time>2022-10-29T11:10:03Z</time>
      </trkpt>
      <trkpt lat="47.16564" lon="-1.9249">
        <ele>103</ele>
        <time>2022-10-29T11:10:05Z</time>
      </trkpt>
      <trkpt lat="47.16558" lon="-1.9251">
        <ele>102</ele>
        <time>2022-10-29T11:10:07Z</time>
      </trkpt>
      <trkpt lat="47.16549" lon="-1.92528">
        <ele>101</ele>
        <time>2022-10-29T11:10:09Z</time>
      </trkpt>
      <trkpt lat="47.16538" lon="-1.92544">
        <ele>100</ele>
        <time>2022-10-29T11:10:11Z</time>
      </trkpt>
      <trkpt lat="47.16525" lon="-1.92559">
        <ele>99</ele>
        <time>2022-10-29T11:10:13Z</time>
      </trkpt>
      <trkpt lat="47.16512" lon="-1.92571">
        <ele>98</ele>
        <time>2022-10-29T11:10:15Z</time>
      </trkpt>
      <trkpt lat="47.165" lon="-1.92582">
        <ele>97</ele>
        <time>2022-10-29T11:10:17Z</time>
      </trkpt>
      <trkpt lat="47.16487" lon="-1.92593">
        <ele>96</ele>
        <time>2022-10-29T11:10:19Z</time>
      </trkpt>
      <trkpt lat="47.16475" lon="-1.92604">
        <ele>96</ele>
        <time>2022-10-29T11:10:21Z</time>
      </trkpt>
      <trkpt lat="47.16464" lon="-1.92614">
        <ele>95</ele>
        <time>2022-10-29T11:10:23Z</time>
      </trkpt>
      <trkpt lat="47.16452" lon="-1.92624">
        <ele>94</ele>
        <time>2022-10-29T11:10:25Z</time>
      </trkpt>
      <trkpt lat="47.16441" lon="-1.92634">
        <ele>93</ele>
        <time>2022-10-29T11:10:27Z</time>
      </trkpt>
      <trkpt lat="47.1643" lon="-1.92645">
        <ele>92</ele>
        <time>2022-10-29T11:10:29Z</time>
      </trkpt>
      <trkpt lat="47.1642" lon="-1.92657">
        <ele>91</ele>
        <time>2022-10-29T11:10:31Z</time>
      </trkpt>
      <trkpt lat="47.16409" lon="-1.9267">
        <ele>90</ele>
        <time>2022-10-29T11:10:33Z</time>
      </trkpt>
      <trkpt lat="47.164" lon="-1.92684">
        <ele>90</ele>
        <time>2022-10-29T11:10:35Z</time>
      </trkpt>
      <trkpt lat="47.16391" lon="-1.92699">
        <ele>90</ele>
        <time>2022-10-29T11:10:37Z</time>
      </trkpt>
      <trkpt lat="47.16382" lon="-1.92714">
        <ele>90</ele>
        <time>2022-10-29T11:10:39Z</time>
      </trkpt>
      <trkpt lat="47.16373" lon="-1.92729">
        <ele>90</ele>
        <time>2022-10-29T11:10:41Z</time>
      </trkpt>
      <trkpt lat="47.16364" lon="-1.92744">
        <ele>90</ele>
        <time>2022-10-29T11:10:43Z</time>
      </trkpt>
      <trkpt lat="47.16355" lon="-1.92758">
        <ele>90</ele>
        <time>2022-10-29T11:10:45Z</time>
      </trkpt>
      <trkpt lat="47.16346" lon="-1.92773">
        <ele>90</ele>
        <time>2022-10-29T11:10:47Z</time>
      </trkpt>
      <trkpt lat="47.16337" lon="-1.92788">
        <ele>90</ele>
        <time>2022-10-29T11:10:49Z</time>
      </trkpt>
      <trkpt lat="47.16326" lon="-1.92802">
        <ele>89</ele>
        <time>2022-10-29T11:10:51Z</time>
      </trkpt>
      <trkpt lat="47.16315" lon="-1.92816">
        <ele>89</ele>
        <time>2022-10-29T11:10:53Z</time>
      </trkpt>
      <trkpt lat="47.16304" lon="-1.92829">
        <ele>88</ele>
        <time>2022-10-29T11:10:55Z</time>
      </trkpt>
      <trkpt lat="47.16294" lon="-1.92842">
        <ele>88</ele>
        <time>2022-10-29T11:10:57Z</time>
      </trkpt>
      <trkpt lat="47.16284" lon="-1.92854">
        <ele>87</ele>
        <time>2022-10-29T11:10:59Z</time>
      </trkpt>
      <trkpt lat="47.16274" lon="-1.92865">
        <ele>87</ele>
        <time>2022-10-29T11:11:01Z</time>
      </trkpt>
      <trkpt lat="47.16265" lon="-1.92875">
        <ele>87</ele>
        <time>2022-10-29T11:11:03Z</time>
      </trkpt>
      <trkpt lat="47.16253" lon="-1.92886">
        <ele>87</ele>
        <time>2022-10-29T11:11:05Z</time>
      </trkpt>
      <trkpt lat="47.16242" lon="-1.92896">
        <ele>86</ele>
        <time>2022-10-29T11:11:07Z</time>
      </trkpt>
      <trkpt lat="47.1623" lon="-1.92906">
        <ele>86</ele>
        <time>2022-10-29T11:11:09Z</time>
      </trkpt>
      <trkpt lat="47.1622" lon="-1.92917">
        <ele>86</ele>
        <time>2022-10-29T11:11:11Z</time>
      </trkpt>
      <trkpt lat="47.16209" lon="-1.92926">
        <ele>85</ele>
        <time>2022-10-29T11:11:13Z</time>
      </trkpt>
      <trkpt lat="47.16198" lon="-1.92936">
        <ele>85</ele>
        <time>2022-10-29T11:11:15Z</time>
      </trkpt>
      <trkpt lat="47.16187" lon="-1.92946">
        <ele>85</ele>
        <time>2022-10-29T11:11:17Z</time>
      </trkpt>
      <trkpt lat="47.16176" lon="-1.92956">
        <ele>84</ele>
        <time>2022-10-29T11:11:19Z</time>
      </trkpt>
      <trkpt lat="47.16166" lon="-1.92965">
        <ele>85</ele>
        <time>2022-10-29T11:11:21Z</time>
      </trkpt>
      <trkpt lat="47.16155" lon="-1.92973">
        <ele>85</ele>
        <time>2022-10-29T11:11:23Z</time>
      </trkpt>
      <trkpt lat="47.16144" lon="-1.9298">
        <ele>86</ele>
        <time>2022-10-29T11:11:25Z</time>
      </trkpt>
      <trkpt lat="47.16131" lon="-1.92987">
        <ele>85</ele>
        <time>2022-10-29T11:11:27Z</time>
      </trkpt>
      <trkpt lat="47.1612" lon="-1.92995">
        <ele>85</ele>
        <time>2022-10-29T11:11:29Z</time>
      </trkpt>
      <trkpt lat="47.16109" lon="-1.93001">
        <ele>85</ele>
        <time>2022-10-29T11:11:31Z</time>
      </trkpt>
      <trkpt lat="47.16098" lon="-1.93007">
        <ele>85</ele>
        <time>2022-10-29T11:11:33Z</time>
      </trkpt>
      <trkpt lat="47.16086" lon="-1.93014">
        <ele>86</ele>
        <time>2022-10-29T11:11:35Z</time>
      </trkpt>
      <trkpt lat="47.16075" lon="-1.93021">
        <ele>86</ele>
        <time>2022-10-29T11:11:37Z</time>
      </trkpt>
      <trkpt lat="47.16064" lon="-1.93028">
        <ele>86</ele>
        <time>2022-10-29T11:11:39Z</time>
      </trkpt>
      <trkpt lat="47.16054" lon="-1.93034">
        <ele>86</ele>
        <time>2022-10-29T11:11:41Z</time>
      </trkpt>
      <trkpt lat="47.16042" lon="-1.93041">
        <ele>86</ele>
        <time>2022-10-29T11:11:43Z</time>
      </trkpt>
      <trkpt lat="47.16029" lon="-1.93048">
        <ele>85</ele>
        <time>2022-10-29T11:11:45Z</time>
      </trkpt>
      <trkpt lat="47.16018" lon="-1.93056">
        <ele>85</ele>
        <time>2022-10-29T11:11:47Z</time>
      </trkpt>
      <trkpt lat="47.16008" lon="-1.93067">
        <ele>84</ele>
        <time>2022-10-29T11:11:49Z</time>
      </trkpt>
      <trkpt lat="47.16001" lon="-1.93083">
        <ele>84</ele>
        <time>2022-10-29T11:11:51Z</time>
      </trkpt>
      <trkpt lat="47.15996" lon="-1.93102">
        <ele>85</ele>
        <time>2022-10-29T11:11:53Z</time>
      </trkpt>
      <trkpt lat="47.15994" lon="-1.9312">
        <ele>85</ele>
        <time>2022-10-29T11:11:55Z</time>
      </trkpt>
      <trkpt lat="47.15995" lon="-1.93137">
        <ele>85</ele>
        <time>2022-10-29T11:11:57Z</time>
      </trkpt>
      <trkpt lat="47.15997" lon="-1.93153">
        <ele>85</ele>
        <time>2022-10-29T11:11:59Z</time>
      </trkpt>
      <trkpt lat="47.15998" lon="-1.93168">
        <ele>85</ele>
        <time>2022-10-29T11:12:01Z</time>
      </trkpt>
      <trkpt lat="47.16" lon="-1.93184">
        <ele>85</ele>
        <time>2022-10-29T11:12:03Z</time>
      </trkpt>
      <trkpt lat="47.16001" lon="-1.93199">
        <ele>86</ele>
        <time>2022-10-29T11:12:05Z</time>
      </trkpt>
      <trkpt lat="47.16003" lon="-1.93214">
        <ele>87</ele>
        <time>2022-10-29T11:12:07Z</time>
      </trkpt>
      <trkpt lat="47.16005" lon="-1.93229">
        <ele>87</ele>
        <time>2022-10-29T11:12:09Z</time>
      </trkpt>
      <trkpt lat="47.16007" lon="-1.93243">
        <ele>87</ele>
        <time>2022-10-29T11:12:11Z</time>
      </trkpt>
      <trkpt lat="47.16007" lon="-1.93257">
        <ele>88</ele>
        <time>2022-10-29T11:12:13Z</time>
      </trkpt>
      <trkpt lat="47.1601" lon="-1.93271">
        <ele>88</ele>
        <time>2022-10-29T11:12:15Z</time>
      </trkpt>
      <trkpt lat="47.16012" lon="-1.93286">
        <ele>89</ele>
        <time>2022-10-29T11:12:17Z</time>
      </trkpt>
      <trkpt lat="47.16013" lon="-1.933">
        <ele>90</ele>
        <time>2022-10-29T11:12:19Z</time>
      </trkpt>
      <trkpt lat="47.16013" lon="-1.93315">
        <ele>90</ele>
        <time>2022-10-29T11:12:21Z</time>
      </trkpt>
      <trkpt lat="47.16013" lon="-1.93331">
        <ele>91</ele>
        <time>2022-10-29T11:12:23Z</time>
      </trkpt>
      <trkpt lat="47.16011" lon="-1.93346">
        <ele>91</ele>
        <time>2022-10-29T11:12:25Z</time>
      </trkpt>
      <trkpt lat="47.16009" lon="-1.93362">
        <ele>91</ele>
        <time>2022-10-29T11:12:27Z</time>
      </trkpt>
      <trkpt lat="47.16006" lon="-1.93377">
        <ele>91</ele>
        <time>2022-10-29T11:12:29Z</time>
      </trkpt>
      <trkpt lat="47.16002" lon="-1.93392">
        <ele>91</ele>
        <time>2022-10-29T11:12:31Z</time>
      </trkpt>
      <trkpt lat="47.15997" lon="-1.93406">
        <ele>91</ele>
        <time>2022-10-29T11:12:33Z</time>
      </trkpt>
      <trkpt lat="47.15992" lon="-1.9342">
        <ele>92</ele>
        <time>2022-10-29T11:12:35Z</time>
      </trkpt>
      <trkpt lat="47.15986" lon="-1.93433">
        <ele>91</ele>
        <time>2022-10-29T11:12:37Z</time>
      </trkpt>
      <trkpt lat="47.15979" lon="-1.93446">
        <ele>91</ele>
        <time>2022-10-29T11:12:39Z</time>
      </trkpt>
      <trkpt lat="47.15971" lon="-1.93458">
        <ele>91</ele>
        <time>2022-10-29T11:12:41Z</time>
      </trkpt>
      <trkpt lat="47.15964" lon="-1.93469">
        <ele>91</ele>
        <time>2022-10-29T11:12:43Z</time>
      </trkpt>
      <trkpt lat="47.15956" lon="-1.93479">
        <ele>91</ele>
        <time>2022-10-29T11:12:45Z</time>
      </trkpt>
      <trkpt lat="47.15947" lon="-1.9349">
        <ele>90</ele>
        <time>2022-10-29T11:12:47Z</time>
      </trkpt>
      <trkpt lat="47.15939" lon="-1.935">
        <ele>90</ele>
        <time>2022-10-29T11:12:49Z</time>
      </trkpt>
      <trkpt lat="47.1593" lon="-1.9351">
        <ele>90</ele>
        <time>2022-10-29T11:12:51Z</time>
      </trkpt>
      <trkpt lat="47.15921" lon="-1.93519">
        <ele>89</ele>
        <time>2022-10-29T11:12:53Z</time>
      </trkpt>
      <trkpt lat="47.15912" lon="-1.93528">
        <ele>89</ele>
        <time>2022-10-29T11:12:55Z</time>
      </trkpt>
      <trkpt lat="47.15901" lon="-1.93535">
        <ele>89</ele>
        <time>2022-10-29T11:12:57Z</time>
      </trkpt>
      <trkpt lat="47.15889" lon="-1.93539">
        <ele>89</ele>
        <time>2022-10-29T11:12:59Z</time>
      </trkpt>
      <trkpt lat="47.15878" lon="-1.93543">
        <ele>89</ele>
        <time>2022-10-29T11:13:01Z</time>
      </trkpt>
      <trkpt lat="47.15866" lon="-1.93547">
        <ele>88</ele>
        <time>2022-10-29T11:13:03Z</time>
      </trkpt>
      <trkpt lat="47.15854" lon="-1.93551">
        <ele>87</ele>
        <time>2022-10-29T11:13:05Z</time>
      </trkpt>
      <trkpt lat="47.15842" lon="-1.93557">
        <ele>87</ele>
        <time>2022-10-29T11:13:07Z</time>
      </trkpt>
      <trkpt lat="47.15829" lon="-1.93564">
        <ele>86</ele>
        <time>2022-10-29T11:13:09Z</time>
      </trkpt>
      <trkpt lat="47.15817" lon="-1.9357">
        <ele>85</ele>
        <time>2022-10-29T11:13:11Z</time>
      </trkpt>
      <trkpt lat="47.15805" lon="-1.93576">
        <ele>85</ele>
        <time>2022-10-29T11:13:13Z</time>
      </trkpt>
      <trkpt lat="47.15793" lon="-1.93582">
        <ele>85</ele>
        <time>2022-10-29T11:13:15Z</time>
      </trkpt>
      <trkpt lat="47.15782" lon="-1.93588">
        <ele>85</ele>
        <time>2022-10-29T11:13:17Z</time>
      </trkpt>
      <trkpt lat="47.15774" lon="-1.93599">
        <ele>83</ele>
        <time>2022-10-29T11:13:19Z</time>
      </trkpt>
      <trkpt lat="47.15773" lon="-1.93616">
        <ele>83</ele>
        <time>2022-10-29T11:13:21Z</time>
      </trkpt>
      <trkpt lat="47.15777" lon="-1.93635">
        <ele>83</ele>
        <time>2022-10-29T11:13:23Z</time>
      </trkpt>
      <trkpt lat="47.15782" lon="-1.93654">
        <ele>83</ele>
        <time>2022-10-29T11:13:25Z</time>
      </trkpt>
      <trkpt lat="47.15786" lon="-1.93674">
        <ele>83</ele>
        <time>2022-10-29T11:13:27Z</time>
      </trkpt>
      <trkpt lat="47.1579" lon="-1.93694">
        <ele>82</ele>
        <time>2022-10-29T11:13:29Z</time>
      </trkpt>
      <trkpt lat="47.15793" lon="-1.93713">
        <ele>81</ele>
        <time>2022-10-29T11:13:31Z</time>
      </trkpt>
      <trkpt lat="47.15796" lon="-1.93732">
        <ele>81</ele>
        <time>2022-10-29T11:13:33Z</time>
      </trkpt>
      <trkpt lat="47.158" lon="-1.93752">
        <ele>81</ele>
        <time>2022-10-29T11:13:35Z</time>
      </trkpt>
      <trkpt lat="47.15803" lon="-1.93772">
        <ele>81</ele>
        <time>2022-10-29T11:13:37Z</time>
      </trkpt>
      <trkpt lat="47.15806" lon="-1.93791">
        <ele>81</ele>
        <time>2022-10-29T11:13:39Z</time>
      </trkpt>
      <trkpt lat="47.1581" lon="-1.9381">
        <ele>81</ele>
        <time>2022-10-29T11:13:41Z</time>
      </trkpt>
      <trkpt lat="47.15813" lon="-1.93829">
        <ele>81</ele>
        <time>2022-10-29T11:13:43Z</time>
      </trkpt>
      <trkpt lat="47.15816" lon="-1.93848">
        <ele>80</ele>
        <time>2022-10-29T11:13:45Z</time>
      </trkpt>
      <trkpt lat="47.1582" lon="-1.93866">
        <ele>81</ele>
        <time>2022-10-29T11:13:47Z</time>
      </trkpt>
      <trkpt lat="47.15824" lon="-1.93885">
        <ele>81</ele>
        <time>2022-10-29T11:13:49Z</time>
      </trkpt>
      <trkpt lat="47.15827" lon="-1.93904">
        <ele>81</ele>
        <time>2022-10-29T11:13:51Z</time>
      </trkpt>
      <trkpt lat="47.1583" lon="-1.93922">
        <ele>81</ele>
        <time>2022-10-29T11:13:53Z</time>
      </trkpt>
      <trkpt lat="47.15833" lon="-1.93941">
        <ele>82</ele>
        <time>2022-10-29T11:13:55Z</time>
      </trkpt>
      <trkpt lat="47.15836" lon="-1.93959">
        <ele>82</ele>
        <time>2022-10-29T11:13:57Z</time>
      </trkpt>
      <trkpt lat="47.15839" lon="-1.93977">
        <ele>82</ele>
        <time>2022-10-29T11:13:59Z</time>
      </trkpt>
      <trkpt lat="47.15842" lon="-1.93996">
        <ele>82</ele>
        <time>2022-10-29T11:14:01Z</time>
      </trkpt>
      <trkpt lat="47.15844" lon="-1.94014">
        <ele>82</ele>
        <time>2022-10-29T11:14:03Z</time>
      </trkpt>
      <trkpt lat="47.15846" lon="-1.94031">
        <ele>82</ele>
        <time>2022-10-29T11:14:05Z</time>
      </trkpt>
      <trkpt lat="47.15848" lon="-1.9405">
        <ele>83</ele>
        <time>2022-10-29T11:14:07Z</time>
      </trkpt>
      <trkpt lat="47.1585" lon="-1.94068">
        <ele>83</ele>
        <time>2022-10-29T11:14:09Z</time>
      </trkpt>
      <trkpt lat="47.15852" lon="-1.94084">
        <ele>84</ele>
        <time>2022-10-29T11:14:11Z</time>
      </trkpt>
      <trkpt lat="47.15855" lon="-1.94101">
        <ele>84</ele>
        <time>2022-10-29T11:14:13Z</time>
      </trkpt>
      <trkpt lat="47.15857" lon="-1.94116">
        <ele>84</ele>
        <time>2022-10-29T11:14:15Z</time>
      </trkpt>
      <trkpt lat="47.15858" lon="-1.94132">
        <ele>84</ele>
        <time>2022-10-29T11:14:17Z</time>
      </trkpt>
      <trkpt lat="47.1586" lon="-1.94149">
        <ele>84</ele>
        <time>2022-10-29T11:14:19Z</time>
      </trkpt>
      <trkpt lat="47.15861" lon="-1.94165">
        <ele>85</ele>
        <time>2022-10-29T11:14:21Z</time>
      </trkpt>
      <trkpt lat="47.15863" lon="-1.9418">
        <ele>85</ele>
        <time>2022-10-29T11:14:23Z</time>
      </trkpt>
      <trkpt lat="47.15865" lon="-1.94194">
        <ele>86</ele>
        <time>2022-10-29T11:14:25Z</time>
      </trkpt>
      <trkpt lat="47.15866" lon="-1.94209">
        <ele>86</ele>
        <time>2022-10-29T11:14:27Z</time>
      </trkpt>
      <trkpt lat="47.15868" lon="-1.94224">
        <ele>86</ele>
        <time>2022-10-29T11:14:29Z</time>
      </trkpt>
      <trkpt lat="47.1587" lon="-1.9424">
        <ele>87</ele>
        <time>2022-10-29T11:14:31Z</time>
      </trkpt>
      <trkpt lat="47.15872" lon="-1.94257">
        <ele>87</ele>
        <time>2022-10-29T11:14:33Z</time>
      </trkpt>
      <trkpt lat="47.15873" lon="-1.94273">
        <ele>87</ele>
        <time>2022-10-29T11:14:35Z</time>
      </trkpt>
      <trkpt lat="47.15875" lon="-1.94289">
        <ele>87</ele>
        <time>2022-10-29T11:14:37Z</time>
      </trkpt>
      <trkpt lat="47.15876" lon="-1.94304">
        <ele>87</ele>
        <time>2022-10-29T11:14:39Z</time>
      </trkpt>
      <trkpt lat="47.15878" lon="-1.9432">
        <ele>88</ele>
        <time>2022-10-29T11:14:41Z</time>
      </trkpt>
      <trkpt lat="47.1588" lon="-1.94334">
        <ele>88</ele>
        <time>2022-10-29T11:14:43Z</time>
      </trkpt>
      <trkpt lat="47.15882" lon="-1.94349">
        <ele>89</ele>
        <time>2022-10-29T11:14:45Z</time>
      </trkpt>
      <trkpt lat="47.15884" lon="-1.94363">
        <ele>89</ele>
        <time>2022-10-29T11:14:47Z</time>
      </trkpt>
      <trkpt lat="47.15885" lon="-1.94379">
        <ele>89</ele>
        <time>2022-10-29T11:14:49Z</time>
      </trkpt>
      <trkpt lat="47.15887" lon="-1.94396">
        <ele>89</ele>
        <time>2022-10-29T11:14:51Z</time>
      </trkpt>
      <trkpt lat="47.15889" lon="-1.94411">
        <ele>89</ele>
        <time>2022-10-29T11:14:53Z</time>
      </trkpt>
      <trkpt lat="47.1589" lon="-1.94426">
        <ele>90</ele>
        <time>2022-10-29T11:14:55Z</time>
      </trkpt>
      <trkpt lat="47.15892" lon="-1.94441">
        <ele>89</ele>
        <time>2022-10-29T11:14:57Z</time>
      </trkpt>
      <trkpt lat="47.15894" lon="-1.94456">
        <ele>90</ele>
        <time>2022-10-29T11:14:59Z</time>
      </trkpt>
      <trkpt lat="47.15896" lon="-1.94471">
        <ele>90</ele>
        <time>2022-10-29T11:15:01Z</time>
      </trkpt>
      <trkpt lat="47.15898" lon="-1.94486">
        <ele>90</ele>
        <time>2022-10-29T11:15:03Z</time>
      </trkpt>
      <trkpt lat="47.15899" lon="-1.94503">
        <ele>90</ele>
        <time>2022-10-29T11:15:05Z</time>
      </trkpt>
      <trkpt lat="47.159" lon="-1.94519">
        <ele>90</ele>
        <time>2022-10-29T11:15:07Z</time>
      </trkpt>
      <trkpt lat="47.15902" lon="-1.94534">
        <ele>90</ele>
        <time>2022-10-29T11:15:09Z</time>
      </trkpt>
      <trkpt lat="47.15903" lon="-1.9455">
        <ele>90</ele>
        <time>2022-10-29T11:15:11Z</time>
      </trkpt>
      <trkpt lat="47.15905" lon="-1.94566">
        <ele>90</ele>
        <time>2022-10-29T11:15:13Z</time>
      </trkpt>
      <trkpt lat="47.15906" lon="-1.94581">
        <ele>89</ele>
        <time>2022-10-29T11:15:15Z</time>
      </trkpt>
      <trkpt lat="47.15908" lon="-1.94597">
        <ele>89</ele>
        <time>2022-10-29T11:15:17Z</time>
      </trkpt>
      <trkpt lat="47.15909" lon="-1.9461">
        <ele>89</ele>
        <time>2022-10-29T11:15:19Z</time>
      </trkpt>
      <trkpt lat="47.15911" lon="-1.94629">
        <ele>88</ele>
        <time>2022-10-29T11:15:22Z</time>
      </trkpt>
      <trkpt lat="47.15913" lon="-1.94644">
        <ele>89</ele>
        <time>2022-10-29T11:15:25Z</time>
      </trkpt>
      <trkpt lat="47.15913" lon="-1.94659">
        <ele>89</ele>
        <time>2022-10-29T11:15:28Z</time>
      </trkpt>
      <trkpt lat="47.15914" lon="-1.94674">
        <ele>89</ele>
        <time>2022-10-29T11:15:30Z</time>
      </trkpt>
      <trkpt lat="47.15916" lon="-1.94691">
        <ele>89</ele>
        <time>2022-10-29T11:15:32Z</time>
      </trkpt>
      <trkpt lat="47.15917" lon="-1.94708">
        <ele>89</ele>
        <time>2022-10-29T11:15:34Z</time>
      </trkpt>
      <trkpt lat="47.15918" lon="-1.94726">
        <ele>89</ele>
        <time>2022-10-29T11:15:36Z</time>
      </trkpt>
      <trkpt lat="47.1592" lon="-1.94744">
        <ele>89</ele>
        <time>2022-10-29T11:15:38Z</time>
      </trkpt>
      <trkpt lat="47.15921" lon="-1.94762">
        <ele>89</ele>
        <time>2022-10-29T11:15:40Z</time>
      </trkpt>
      <trkpt lat="47.15922" lon="-1.94779">
        <ele>88</ele>
        <time>2022-10-29T11:15:42Z</time>
      </trkpt>
      <trkpt lat="47.15924" lon="-1.94796">
        <ele>89</ele>
        <time>2022-10-29T11:15:44Z</time>
      </trkpt>
      <trkpt lat="47.15925" lon="-1.94813">
        <ele>89</ele>
        <time>2022-10-29T11:15:46Z</time>
      </trkpt>
      <trkpt lat="47.15926" lon="-1.94831">
        <ele>90</ele>
        <time>2022-10-29T11:15:48Z</time>
      </trkpt>
      <trkpt lat="47.15928" lon="-1.9485">
        <ele>90</ele>
        <time>2022-10-29T11:15:50Z</time>
      </trkpt>
      <trkpt lat="47.15929" lon="-1.94868">
        <ele>90</ele>
        <time>2022-10-29T11:15:52Z</time>
      </trkpt>
      <trkpt lat="47.15929" lon="-1.94887">
        <ele>90</ele>
        <time>2022-10-29T11:15:54Z</time>
      </trkpt>
      <trkpt lat="47.15929" lon="-1.94906">
        <ele>89</ele>
        <time>2022-10-29T11:15:56Z</time>
      </trkpt>
      <trkpt lat="47.15927" lon="-1.94924">
        <ele>89</ele>
        <time>2022-10-29T11:15:58Z</time>
      </trkpt>
      <trkpt lat="47.15925" lon="-1.94943">
        <ele>88</ele>
        <time>2022-10-29T11:16:00Z</time>
      </trkpt>
      <trkpt lat="47.15923" lon="-1.94962">
        <ele>88</ele>
        <time>2022-10-29T11:16:02Z</time>
      </trkpt>
      <trkpt lat="47.15921" lon="-1.94982">
        <ele>88</ele>
        <time>2022-10-29T11:16:04Z</time>
      </trkpt>
      <trkpt lat="47.15919" lon="-1.95001">
        <ele>87</ele>
        <time>2022-10-29T11:16:06Z</time>
      </trkpt>
      <trkpt lat="47.15918" lon="-1.9502">
        <ele>87</ele>
        <time>2022-10-29T11:16:08Z</time>
      </trkpt>
      <trkpt lat="47.15918" lon="-1.95037">
        <ele>87</ele>
        <time>2022-10-29T11:16:10Z</time>
      </trkpt>
      <trkpt lat="47.15916" lon="-1.95054">
        <ele>87</ele>
        <time>2022-10-29T11:16:12Z</time>
      </trkpt>
      <trkpt lat="47.15915" lon="-1.95072">
        <ele>87</ele>
        <time>2022-10-29T11:16:14Z</time>
      </trkpt>
      <trkpt lat="47.15914" lon="-1.95091">
        <ele>87</ele>
        <time>2022-10-29T11:16:16Z</time>
      </trkpt>
      <trkpt lat="47.15913" lon="-1.9511">
        <ele>87</ele>
        <time>2022-10-29T11:16:18Z</time>
      </trkpt>
      <trkpt lat="47.15911" lon="-1.95128">
        <ele>87</ele>
        <time>2022-10-29T11:16:20Z</time>
      </trkpt>
      <trkpt lat="47.15909" lon="-1.95145">
        <ele>87</ele>
        <time>2022-10-29T11:16:22Z</time>
      </trkpt>
      <trkpt lat="47.15905" lon="-1.95164">
        <ele>86</ele>
        <time>2022-10-29T11:16:24Z</time>
      </trkpt>
      <trkpt lat="47.15902" lon="-1.95183">
        <ele>86</ele>
        <time>2022-10-29T11:16:26Z</time>
      </trkpt>
      <trkpt lat="47.159" lon="-1.95203">
        <ele>85</ele>
        <time>2022-10-29T11:16:28Z</time>
      </trkpt>
      <trkpt lat="47.15899" lon="-1.95222">
        <ele>84</ele>
        <time>2022-10-29T11:16:30Z</time>
      </trkpt>
      <trkpt lat="47.15898" lon="-1.9524">
        <ele>84</ele>
        <time>2022-10-29T11:16:32Z</time>
      </trkpt>
      <trkpt lat="47.15898" lon="-1.9526">
        <ele>84</ele>
        <time>2022-10-29T11:16:34Z</time>
      </trkpt>
      <trkpt lat="47.15898" lon="-1.9528">
        <ele>84</ele>
        <time>2022-10-29T11:16:36Z</time>
      </trkpt>
      <trkpt lat="47.15898" lon="-1.95299">
        <ele>83</ele>
        <time>2022-10-29T11:16:38Z</time>
      </trkpt>
      <trkpt lat="47.15898" lon="-1.95319">
        <ele>83</ele>
        <time>2022-10-29T11:16:40Z</time>
      </trkpt>
      <trkpt lat="47.15897" lon="-1.95339">
        <ele>83</ele>
        <time>2022-10-29T11:16:42Z</time>
      </trkpt>
      <trkpt lat="47.15898" lon="-1.95359">
        <ele>83</ele>
        <time>2022-10-29T11:16:44Z</time>
      </trkpt>
      <trkpt lat="47.15898" lon="-1.9538">
        <ele>82</ele>
        <time>2022-10-29T11:16:46Z</time>
      </trkpt>
      <trkpt lat="47.15898" lon="-1.95402">
        <ele>81</ele>
        <time>2022-10-29T11:16:48Z</time>
      </trkpt>
      <trkpt lat="47.15898" lon="-1.95424">
        <ele>80</ele>
        <time>2022-10-29T11:16:50Z</time>
      </trkpt>
      <trkpt lat="47.15898" lon="-1.95445">
        <ele>80</ele>
        <time>2022-10-29T11:16:52Z</time>
      </trkpt>
      <trkpt lat="47.15898" lon="-1.95465">
        <ele>80</ele>
        <time>2022-10-29T11:16:54Z</time>
      </trkpt>
      <trkpt lat="47.15898" lon="-1.95484">
        <ele>81</ele>
        <time>2022-10-29T11:16:56Z</time>
      </trkpt>
      <trkpt lat="47.15899" lon="-1.95505">
        <ele>81</ele>
        <time>2022-10-29T11:16:58Z</time>
      </trkpt>
      <trkpt lat="47.159" lon="-1.95526">
        <ele>81</ele>
        <time>2022-10-29T11:17:00Z</time>
      </trkpt>
      <trkpt lat="47.15901" lon="-1.95548">
        <ele>81</ele>
        <time>2022-10-29T11:17:02Z</time>
      </trkpt>
      <trkpt lat="47.15903" lon="-1.95569">
        <ele>80</ele>
        <time>2022-10-29T11:17:04Z</time>
      </trkpt>
      <trkpt lat="47.15907" lon="-1.95588">
        <ele>80</ele>
        <time>2022-10-29T11:17:06Z</time>
      </trkpt>
      <trkpt lat="47.15911" lon="-1.95606">
        <ele>80</ele>
        <time>2022-10-29T11:17:08Z</time>
      </trkpt>
      <trkpt lat="47.15916" lon="-1.95624">
        <ele>80</ele>
        <time>2022-10-29T11:17:10Z</time>
      </trkpt>
      <trkpt lat="47.15922" lon="-1.9564">
        <ele>81</ele>
        <time>2022-10-29T11:17:12Z</time>
      </trkpt>
      <trkpt lat="47.15927" lon="-1.95655">
        <ele>81</ele>
        <time>2022-10-29T11:17:14Z</time>
      </trkpt>
      <trkpt lat="47.15931" lon="-1.9567">
        <ele>82</ele>
        <time>2022-10-29T11:17:16Z</time>
      </trkpt>
      <trkpt lat="47.15936" lon="-1.95684">
        <ele>83</ele>
        <time>2022-10-29T11:17:18Z</time>
      </trkpt>
      <trkpt lat="47.15941" lon="-1.95698">
        <ele>83</ele>
        <time>2022-10-29T11:17:20Z</time>
      </trkpt>
      <trkpt lat="47.15945" lon="-1.95713">
        <ele>83</ele>
        <time>2022-10-29T11:17:22Z</time>
      </trkpt>
      <trkpt lat="47.1595" lon="-1.95726">
        <ele>84</ele>
        <time>2022-10-29T11:17:24Z</time>
      </trkpt>
      <trkpt lat="47.15954" lon="-1.95742">
        <ele>84</ele>
        <time>2022-10-29T11:17:26Z</time>
      </trkpt>
      <trkpt lat="47.15957" lon="-1.95756">
        <ele>84</ele>
        <time>2022-10-29T11:17:28Z</time>
      </trkpt>
      <trkpt lat="47.15959" lon="-1.95771">
        <ele>85</ele>
        <time>2022-10-29T11:17:30Z</time>
      </trkpt>
      <trkpt lat="47.15963" lon="-1.95788">
        <ele>86</ele>
        <time>2022-10-29T11:17:32Z</time>
      </trkpt>
      <trkpt lat="47.15966" lon="-1.95803">
        <ele>87</ele>
        <time>2022-10-29T11:17:34Z</time>
      </trkpt>
      <trkpt lat="47.15969" lon="-1.95818">
        <ele>87</ele>
        <time>2022-10-29T11:17:36Z</time>
      </trkpt>
      <trkpt lat="47.15972" lon="-1.95834">
        <ele>87</ele>
        <time>2022-10-29T11:17:38Z</time>
      </trkpt>
      <trkpt lat="47.15977" lon="-1.95849">
        <ele>87</ele>
        <time>2022-10-29T11:17:40Z</time>
      </trkpt>
      <trkpt lat="47.15982" lon="-1.95863">
        <ele>87</ele>
        <time>2022-10-29T11:17:42Z</time>
      </trkpt>
      <trkpt lat="47.15987" lon="-1.95877">
        <ele>87</ele>
        <time>2022-10-29T11:17:44Z</time>
      </trkpt>
      <trkpt lat="47.15993" lon="-1.95889">
        <ele>86</ele>
        <time>2022-10-29T11:17:46Z</time>
      </trkpt>
      <trkpt lat="47.16" lon="-1.95901">
        <ele>86</ele>
        <time>2022-10-29T11:17:48Z</time>
      </trkpt>
      <trkpt lat="47.16007" lon="-1.95913">
        <ele>86</ele>
        <time>2022-10-29T11:17:50Z</time>
      </trkpt>
      <trkpt lat="47.16014" lon="-1.95925">
        <ele>85</ele>
        <time>2022-10-29T11:17:52Z</time>
      </trkpt>
      <trkpt lat="47.16021" lon="-1.95936">
        <ele>85</ele>
        <time>2022-10-29T11:17:54Z</time>
      </trkpt>
      <trkpt lat="47.16028" lon="-1.95947">
        <ele>85</ele>
        <time>2022-10-29T11:17:56Z</time>
      </trkpt>
      <trkpt lat="47.16035" lon="-1.95956">
        <ele>85</ele>
        <time>2022-10-29T11:17:58Z</time>
      </trkpt>
      <trkpt lat="47.16041" lon="-1.95973">
        <ele>86</ele>
        <time>2022-10-29T11:18:02Z</time>
      </trkpt>
      <trkpt lat="47.16036" lon="-1.95986">
        <ele>86</ele>
        <time>2022-10-29T11:18:04Z</time>
      </trkpt>
      <trkpt lat="47.16028" lon="-1.95999">
        <ele>85</ele>
        <time>2022-10-29T11:18:06Z</time>
      </trkpt>
      <trkpt lat="47.16021" lon="-1.96013">
        <ele>85</ele>
        <time>2022-10-29T11:18:08Z</time>
      </trkpt>
      <trkpt lat="47.16014" lon="-1.96026">
        <ele>85</ele>
        <time>2022-10-29T11:18:10Z</time>
      </trkpt>
      <trkpt lat="47.16008" lon="-1.9604">
        <ele>85</ele>
        <time>2022-10-29T11:18:12Z</time>
      </trkpt>
      <trkpt lat="47.16003" lon="-1.96052">
        <ele>85</ele>
        <time>2022-10-29T11:18:14Z</time>
      </trkpt>
      <trkpt lat="47.15998" lon="-1.96065">
        <ele>86</ele>
        <time>2022-10-29T11:18:16Z</time>
      </trkpt>
      <trkpt lat="47.15994" lon="-1.96079">
        <ele>86</ele>
        <time>2022-10-29T11:18:18Z</time>
      </trkpt>
      <trkpt lat="47.1599" lon="-1.96093">
        <ele>87</ele>
        <time>2022-10-29T11:18:20Z</time>
      </trkpt>
      <trkpt lat="47.15987" lon="-1.96107">
        <ele>87</ele>
        <time>2022-10-29T11:18:22Z</time>
      </trkpt>
      <trkpt lat="47.15983" lon="-1.96121">
        <ele>88</ele>
        <time>2022-10-29T11:18:24Z</time>
      </trkpt>
      <trkpt lat="47.15978" lon="-1.96134">
        <ele>87</ele>
        <time>2022-10-29T11:18:26Z</time>
      </trkpt>
      <trkpt lat="47.15974" lon="-1.96148">
        <ele>87</ele>
        <time>2022-10-29T11:18:28Z</time>
      </trkpt>
      <trkpt lat="47.1597" lon="-1.96162">
        <ele>87</ele>
        <time>2022-10-29T11:18:30Z</time>
      </trkpt>
      <trkpt lat="47.15966" lon="-1.96178">
        <ele>87</ele>
        <time>2022-10-29T11:18:32Z</time>
      </trkpt>
      <trkpt lat="47.15961" lon="-1.96193">
        <ele>88</ele>
        <time>2022-10-29T11:18:34Z</time>
      </trkpt>
      <trkpt lat="47.15954" lon="-1.96208">
        <ele>88</ele>
        <time>2022-10-29T11:18:36Z</time>
      </trkpt>
      <trkpt lat="47.15949" lon="-1.9622">
        <ele>88</ele>
        <time>2022-10-29T11:18:38Z</time>
      </trkpt>
      <trkpt lat="47.15943" lon="-1.96233">
        <ele>88</ele>
        <time>2022-10-29T11:18:40Z</time>
      </trkpt>
      <trkpt lat="47.15936" lon="-1.96247">
        <ele>87</ele>
        <time>2022-10-29T11:18:42Z</time>
      </trkpt>
      <trkpt lat="47.15928" lon="-1.9626">
        <ele>87</ele>
        <time>2022-10-29T11:18:44Z</time>
      </trkpt>
      <trkpt lat="47.1592" lon="-1.96273">
        <ele>87</ele>
        <time>2022-10-29T11:18:46Z</time>
      </trkpt>
      <trkpt lat="47.15913" lon="-1.96287">
        <ele>86</ele>
        <time>2022-10-29T11:18:48Z</time>
      </trkpt>
      <trkpt lat="47.15905" lon="-1.96301">
        <ele>86</ele>
        <time>2022-10-29T11:18:50Z</time>
      </trkpt>
      <trkpt lat="47.15898" lon="-1.96314">
        <ele>86</ele>
        <time>2022-10-29T11:18:52Z</time>
      </trkpt>
      <trkpt lat="47.1589" lon="-1.96328">
        <ele>85</ele>
        <time>2022-10-29T11:18:54Z</time>
      </trkpt>
      <trkpt lat="47.15881" lon="-1.96341">
        <ele>84</ele>
        <time>2022-10-29T11:18:56Z</time>
      </trkpt>
      <trkpt lat="47.15874" lon="-1.96354">
        <ele>84</ele>
        <time>2022-10-29T11:18:58Z</time>
      </trkpt>
      <trkpt lat="47.15866" lon="-1.96368">
        <ele>84</ele>
        <time>2022-10-29T11:19:00Z</time>
      </trkpt>
      <trkpt lat="47.15858" lon="-1.96382">
        <ele>84</ele>
        <time>2022-10-29T11:19:02Z</time>
      </trkpt>
      <trkpt lat="47.15851" lon="-1.96396">
        <ele>83</ele>
        <time>2022-10-29T11:19:04Z</time>
      </trkpt>
      <trkpt lat="47.15843" lon="-1.9641">
        <ele>83</ele>
        <time>2022-10-29T11:19:06Z</time>
      </trkpt>
      <trkpt lat="47.15834" lon="-1.96424">
        <ele>83</ele>
        <time>2022-10-29T11:19:08Z</time>
      </trkpt>
      <trkpt lat="47.15826" lon="-1.96438">
        <ele>83</ele>
        <time>2022-10-29T11:19:10Z</time>
      </trkpt>
      <trkpt lat="47.15818" lon="-1.96452">
        <ele>82</ele>
        <time>2022-10-29T11:19:12Z</time>
      </trkpt>
      <trkpt lat="47.15811" lon="-1.96466">
        <ele>83</ele>
        <time>2022-10-29T11:19:14Z</time>
      </trkpt>
      <trkpt lat="47.15803" lon="-1.9648">
        <ele>82</ele>
        <time>2022-10-29T11:19:16Z</time>
      </trkpt>
      <trkpt lat="47.15796" lon="-1.96493">
        <ele>82</ele>
        <time>2022-10-29T11:19:18Z</time>
      </trkpt>
      <trkpt lat="47.15788" lon="-1.96507">
        <ele>82</ele>
        <time>2022-10-29T11:19:20Z</time>
      </trkpt>
      <trkpt lat="47.1578" lon="-1.9652">
        <ele>82</ele>
        <time>2022-10-29T11:19:22Z</time>
      </trkpt>
      <trkpt lat="47.15772" lon="-1.96534">
        <ele>82</ele>
        <time>2022-10-29T11:19:24Z</time>
      </trkpt>
      <trkpt lat="47.15764" lon="-1.96548">
        <ele>82</ele>
        <time>2022-10-29T11:19:26Z</time>
      </trkpt>
      <trkpt lat="47.15756" lon="-1.96562">
        <ele>82</ele>
        <time>2022-10-29T11:19:28Z</time>
      </trkpt>
      <trkpt lat="47.15749" lon="-1.96577">
        <ele>82</ele>
        <time>2022-10-29T11:19:30Z</time>
      </trkpt>
      <trkpt lat="47.15741" lon="-1.9659">
        <ele>82</ele>
        <time>2022-10-29T11:19:32Z</time>
      </trkpt>
      <trkpt lat="47.15733" lon="-1.96604">
        <ele>82</ele>
        <time>2022-10-29T11:19:34Z</time>
      </trkpt>
      <trkpt lat="47.15726" lon="-1.96617">
        <ele>82</ele>
        <time>2022-10-29T11:19:36Z</time>
      </trkpt>
      <trkpt lat="47.15719" lon="-1.96631">
        <ele>82</ele>
        <time>2022-10-29T11:19:38Z</time>
      </trkpt>
      <trkpt lat="47.15711" lon="-1.96645">
        <ele>82</ele>
        <time>2022-10-29T11:19:40Z</time>
      </trkpt>
      <trkpt lat="47.15703" lon="-1.96659">
        <ele>82</ele>
        <time>2022-10-29T11:19:42Z</time>
      </trkpt>
      <trkpt lat="47.15696" lon="-1.96673">
        <ele>82</ele>
        <time>2022-10-29T11:19:44Z</time>
      </trkpt>
      <trkpt lat="47.15687" lon="-1.96687">
        <ele>82</ele>
        <time>2022-10-29T11:19:46Z</time>
      </trkpt>
      <trkpt lat="47.15679" lon="-1.96701">
        <ele>82</ele>
        <time>2022-10-29T11:19:48Z</time>
      </trkpt>
      <trkpt lat="47.15671" lon="-1.96716">
        <ele>82</ele>
        <time>2022-10-29T11:19:50Z</time>
      </trkpt>
      <trkpt lat="47.15664" lon="-1.96731">
        <ele>82</ele>
        <time>2022-10-29T11:19:52Z</time>
      </trkpt>
      <trkpt lat="47.15657" lon="-1.96747">
        <ele>82</ele>
        <time>2022-10-29T11:19:54Z</time>
      </trkpt>
      <trkpt lat="47.1565" lon="-1.96763">
        <ele>82</ele>
        <time>2022-10-29T11:19:56Z</time>
      </trkpt>
      <trkpt lat="47.15645" lon="-1.96779">
        <ele>81</ele>
        <time>2022-10-29T11:19:58Z</time>
      </trkpt>
      <trkpt lat="47.1564" lon="-1.96796">
        <ele>81</ele>
        <time>2022-10-29T11:20:00Z</time>
      </trkpt>
      <trkpt lat="47.15635" lon="-1.96813">
        <ele>81</ele>
        <time>2022-10-29T11:20:02Z</time>
      </trkpt>
      <trkpt lat="47.15632" lon="-1.96829">
        <ele>81</ele>
        <time>2022-10-29T11:20:04Z</time>
      </trkpt>
      <trkpt lat="47.15629" lon="-1.96847">
        <ele>81</ele>
        <time>2022-10-29T11:20:06Z</time>
      </trkpt>
      <trkpt lat="47.15626" lon="-1.96865">
        <ele>81</ele>
        <time>2022-10-29T11:20:08Z</time>
      </trkpt>
      <trkpt lat="47.15623" lon="-1.96883">
        <ele>81</ele>
        <time>2022-10-29T11:20:10Z</time>
      </trkpt>
      <trkpt lat="47.15619" lon="-1.96901">
        <ele>81</ele>
        <time>2022-10-29T11:20:12Z</time>
      </trkpt>
      <trkpt lat="47.15616" lon="-1.96919">
        <ele>81</ele>
        <time>2022-10-29T11:20:14Z</time>
      </trkpt>
      <trkpt lat="47.15613" lon="-1.96937">
        <ele>81</ele>
        <time>2022-10-29T11:20:16Z</time>
      </trkpt>
      <trkpt lat="47.1561" lon="-1.96955">
        <ele>81</ele>
        <time>2022-10-29T11:20:18Z</time>
      </trkpt>
      <trkpt lat="47.15607" lon="-1.96973">
        <ele>81</ele>
        <time>2022-10-29T11:20:20Z</time>
      </trkpt>
      <trkpt lat="47.15603" lon="-1.9699">
        <ele>81</ele>
        <time>2022-10-29T11:20:22Z</time>
      </trkpt>
      <trkpt lat="47.156" lon="-1.97008">
        <ele>81</ele>
        <time>2022-10-29T11:20:24Z</time>
      </trkpt>
      <trkpt lat="47.15596" lon="-1.97026">
        <ele>81</ele>
        <time>2022-10-29T11:20:26Z</time>
      </trkpt>
      <trkpt lat="47.15593" lon="-1.97043">
        <ele>80</ele>
        <time>2022-10-29T11:20:28Z</time>
      </trkpt>
      <trkpt lat="47.15589" lon="-1.97062">
        <ele>81</ele>
        <time>2022-10-29T11:20:30Z</time>
      </trkpt>
      <trkpt lat="47.15586" lon="-1.9708">
        <ele>80</ele>
        <time>2022-10-29T11:20:32Z</time>
      </trkpt>
      <trkpt lat="47.15582" lon="-1.97097">
        <ele>80</ele>
        <time>2022-10-29T11:20:34Z</time>
      </trkpt>
      <trkpt lat="47.15578" lon="-1.97115">
        <ele>80</ele>
        <time>2022-10-29T11:20:36Z</time>
      </trkpt>
      <trkpt lat="47.15575" lon="-1.97134">
        <ele>80</ele>
        <time>2022-10-29T11:20:38Z</time>
      </trkpt>
      <trkpt lat="47.1557" lon="-1.97153">
        <ele>80</ele>
        <time>2022-10-29T11:20:40Z</time>
      </trkpt>
      <trkpt lat="47.15564" lon="-1.97181">
        <ele>80</ele>
        <time>2022-10-29T11:20:43Z</time>
      </trkpt>
      <trkpt lat="47.15559" lon="-1.97199">
        <ele>80</ele>
        <time>2022-10-29T11:20:45Z</time>
      </trkpt>
      <trkpt lat="47.15555" lon="-1.97219">
        <ele>80</ele>
        <time>2022-10-29T11:20:47Z</time>
      </trkpt>
      <trkpt lat="47.15551" lon="-1.97239">
        <ele>79</ele>
        <time>2022-10-29T11:20:49Z</time>
      </trkpt>
      <trkpt lat="47.15548" lon="-1.97259">
        <ele>79</ele>
        <time>2022-10-29T11:20:51Z</time>
      </trkpt>
      <trkpt lat="47.15544" lon="-1.97279">
        <ele>79</ele>
        <time>2022-10-29T11:20:53Z</time>
      </trkpt>
      <trkpt lat="47.1554" lon="-1.97299">
        <ele>79</ele>
        <time>2022-10-29T11:20:55Z</time>
      </trkpt>
      <trkpt lat="47.15537" lon="-1.97318">
        <ele>79</ele>
        <time>2022-10-29T11:20:57Z</time>
      </trkpt>
      <trkpt lat="47.15533" lon="-1.97338">
        <ele>79</ele>
        <time>2022-10-29T11:20:59Z</time>
      </trkpt>
      <trkpt lat="47.15529" lon="-1.97359">
        <ele>79</ele>
        <time>2022-10-29T11:21:01Z</time>
      </trkpt>
      <trkpt lat="47.15526" lon="-1.97379">
        <ele>79</ele>
        <time>2022-10-29T11:21:03Z</time>
      </trkpt>
      <trkpt lat="47.15523" lon="-1.97399">
        <ele>79</ele>
        <time>2022-10-29T11:21:05Z</time>
      </trkpt>
      <trkpt lat="47.15519" lon="-1.97418">
        <ele>79</ele>
        <time>2022-10-29T11:21:07Z</time>
      </trkpt>
      <trkpt lat="47.15515" lon="-1.97438">
        <ele>78</ele>
        <time>2022-10-29T11:21:09Z</time>
      </trkpt>
      <trkpt lat="47.15512" lon="-1.97458">
        <ele>78</ele>
        <time>2022-10-29T11:21:11Z</time>
      </trkpt>
      <trkpt lat="47.15509" lon="-1.97478">
        <ele>78</ele>
        <time>2022-10-29T11:21:13Z</time>
      </trkpt>
      <trkpt lat="47.15505" lon="-1.97497">
        <ele>78</ele>
        <time>2022-10-29T11:21:15Z</time>
      </trkpt>
      <trkpt lat="47.15502" lon="-1.97517">
        <ele>77</ele>
        <time>2022-10-29T11:21:17Z</time>
      </trkpt>
      <trkpt lat="47.15499" lon="-1.97536">
        <ele>77</ele>
        <time>2022-10-29T11:21:19Z</time>
      </trkpt>
      <trkpt lat="47.15496" lon="-1.97555">
        <ele>77</ele>
        <time>2022-10-29T11:21:21Z</time>
      </trkpt>
      <trkpt lat="47.15492" lon="-1.97575">
        <ele>77</ele>
        <time>2022-10-29T11:21:23Z</time>
      </trkpt>
      <trkpt lat="47.15489" lon="-1.97594">
        <ele>77</ele>
        <time>2022-10-29T11:21:25Z</time>
      </trkpt>
      <trkpt lat="47.15484" lon="-1.97613">
        <ele>77</ele>
        <time>2022-10-29T11:21:27Z</time>
      </trkpt>
      <trkpt lat="47.15482" lon="-1.97631">
        <ele>77</ele>
        <time>2022-10-29T11:21:29Z</time>
      </trkpt>
      <trkpt lat="47.15479" lon="-1.9765">
        <ele>78</ele>
        <time>2022-10-29T11:21:31Z</time>
      </trkpt>
      <trkpt lat="47.15476" lon="-1.97668">
        <ele>78</ele>
        <time>2022-10-29T11:21:33Z</time>
      </trkpt>
      <trkpt lat="47.15471" lon="-1.97697">
        <ele>78</ele>
        <time>2022-10-29T11:21:36Z</time>
      </trkpt>
      <trkpt lat="47.15467" lon="-1.97717">
        <ele>77</ele>
        <time>2022-10-29T11:21:38Z</time>
      </trkpt>
      <trkpt lat="47.15461" lon="-1.97746">
        <ele>77</ele>
        <time>2022-10-29T11:21:41Z</time>
      </trkpt>
      <trkpt lat="47.15457" lon="-1.97765">
        <ele>77</ele>
        <time>2022-10-29T11:21:43Z</time>
      </trkpt>
      <trkpt lat="47.15454" lon="-1.97785">
        <ele>77</ele>
        <time>2022-10-29T11:21:45Z</time>
      </trkpt>
      <trkpt lat="47.15452" lon="-1.97803">
        <ele>76</ele>
        <time>2022-10-29T11:21:47Z</time>
      </trkpt>
      <trkpt lat="47.15448" lon="-1.97822">
        <ele>76</ele>
        <time>2022-10-29T11:21:49Z</time>
      </trkpt>
      <trkpt lat="47.15446" lon="-1.97839">
        <ele>77</ele>
        <time>2022-10-29T11:21:51Z</time>
      </trkpt>
      <trkpt lat="47.15444" lon="-1.97857">
        <ele>77</ele>
        <time>2022-10-29T11:21:53Z</time>
      </trkpt>
      <trkpt lat="47.15443" lon="-1.97875">
        <ele>77</ele>
        <time>2022-10-29T11:21:55Z</time>
      </trkpt>
      <trkpt lat="47.15442" lon="-1.97893">
        <ele>77</ele>
        <time>2022-10-29T11:21:57Z</time>
      </trkpt>
      <trkpt lat="47.15442" lon="-1.97912">
        <ele>78</ele>
        <time>2022-10-29T11:21:59Z</time>
      </trkpt>
      <trkpt lat="47.15441" lon="-1.97931">
        <ele>78</ele>
        <time>2022-10-29T11:22:01Z</time>
      </trkpt>
      <trkpt lat="47.15441" lon="-1.97951">
        <ele>78</ele>
        <time>2022-10-29T11:22:03Z</time>
      </trkpt>
      <trkpt lat="47.1544" lon="-1.97969">
        <ele>78</ele>
        <time>2022-10-29T11:22:05Z</time>
      </trkpt>
      <trkpt lat="47.15439" lon="-1.97986">
        <ele>78</ele>
        <time>2022-10-29T11:22:07Z</time>
      </trkpt>
      <trkpt lat="47.15438" lon="-1.98004">
        <ele>79</ele>
        <time>2022-10-29T11:22:09Z</time>
      </trkpt>
      <trkpt lat="47.15437" lon="-1.9802">
        <ele>79</ele>
        <time>2022-10-29T11:22:11Z</time>
      </trkpt>
      <trkpt lat="47.15437" lon="-1.98038">
        <ele>79</ele>
        <time>2022-10-29T11:22:13Z</time>
      </trkpt>
      <trkpt lat="47.15437" lon="-1.98056">
        <ele>78</ele>
        <time>2022-10-29T11:22:15Z</time>
      </trkpt>
      <trkpt lat="47.15435" lon="-1.98075">
        <ele>78</ele>
        <time>2022-10-29T11:22:17Z</time>
      </trkpt>
      <trkpt lat="47.15434" lon="-1.98093">
        <ele>79</ele>
        <time>2022-10-29T11:22:19Z</time>
      </trkpt>
      <trkpt lat="47.15434" lon="-1.98113">
        <ele>79</ele>
        <time>2022-10-29T11:22:21Z</time>
      </trkpt>
      <trkpt lat="47.15433" lon="-1.98131">
        <ele>79</ele>
        <time>2022-10-29T11:22:23Z</time>
      </trkpt>
      <trkpt lat="47.15432" lon="-1.9815">
        <ele>79</ele>
        <time>2022-10-29T11:22:25Z</time>
      </trkpt>
      <trkpt lat="47.15432" lon="-1.98168">
        <ele>78</ele>
        <time>2022-10-29T11:22:27Z</time>
      </trkpt>
      <trkpt lat="47.15431" lon="-1.98187">
        <ele>78</ele>
        <time>2022-10-29T11:22:29Z</time>
      </trkpt>
      <trkpt lat="47.1543" lon="-1.98204">
        <ele>78</ele>
        <time>2022-10-29T11:22:31Z</time>
      </trkpt>
      <trkpt lat="47.1543" lon="-1.98223">
        <ele>77</ele>
        <time>2022-10-29T11:22:33Z</time>
      </trkpt>
      <trkpt lat="47.15428" lon="-1.98241">
        <ele>76</ele>
        <time>2022-10-29T11:22:35Z</time>
      </trkpt>
      <trkpt lat="47.15427" lon="-1.9826">
        <ele>77</ele>
        <time>2022-10-29T11:22:37Z</time>
      </trkpt>
      <trkpt lat="47.15426" lon="-1.98277">
        <ele>77</ele>
        <time>2022-10-29T11:22:39Z</time>
      </trkpt>
      <trkpt lat="47.15424" lon="-1.98295">
        <ele>77</ele>
        <time>2022-10-29T11:22:41Z</time>
      </trkpt>
      <trkpt lat="47.15421" lon="-1.98312">
        <ele>77</ele>
        <time>2022-10-29T11:22:43Z</time>
      </trkpt>
      <trkpt lat="47.15417" lon="-1.98328">
        <ele>77</ele>
        <time>2022-10-29T11:22:45Z</time>
      </trkpt>
      <trkpt lat="47.15412" lon="-1.98344">
        <ele>78</ele>
        <time>2022-10-29T11:22:47Z</time>
      </trkpt>
      <trkpt lat="47.15405" lon="-1.98358">
        <ele>78</ele>
        <time>2022-10-29T11:22:49Z</time>
      </trkpt>
      <trkpt lat="47.15397" lon="-1.98373">
        <ele>77</ele>
        <time>2022-10-29T11:22:51Z</time>
      </trkpt>
      <trkpt lat="47.15388" lon="-1.98384">
        <ele>77</ele>
        <time>2022-10-29T11:22:53Z</time>
      </trkpt>
      <trkpt lat="47.15377" lon="-1.98395">
        <ele>76</ele>
        <time>2022-10-29T11:22:55Z</time>
      </trkpt>
      <trkpt lat="47.15366" lon="-1.98406">
        <ele>76</ele>
        <time>2022-10-29T11:22:57Z</time>
      </trkpt>
      <trkpt lat="47.15356" lon="-1.98416">
        <ele>75</ele>
        <time>2022-10-29T11:22:59Z</time>
      </trkpt>
      <trkpt lat="47.15346" lon="-1.98426">
        <ele>75</ele>
        <time>2022-10-29T11:23:01Z</time>
      </trkpt>
      <trkpt lat="47.15335" lon="-1.98435">
        <ele>75</ele>
        <time>2022-10-29T11:23:03Z</time>
      </trkpt>
      <trkpt lat="47.15324" lon="-1.98443">
        <ele>74</ele>
        <time>2022-10-29T11:23:05Z</time>
      </trkpt>
      <trkpt lat="47.15312" lon="-1.98451">
        <ele>73</ele>
        <time>2022-10-29T11:23:07Z</time>
      </trkpt>
      <trkpt lat="47.15301" lon="-1.98458">
        <ele>73</ele>
        <time>2022-10-29T11:23:09Z</time>
      </trkpt>
      <trkpt lat="47.1529" lon="-1.98463">
        <ele>73</ele>
        <time>2022-10-29T11:23:11Z</time>
      </trkpt>
      <trkpt lat="47.15278" lon="-1.98467">
        <ele>73</ele>
        <time>2022-10-29T11:23:13Z</time>
      </trkpt>
      <trkpt lat="47.15266" lon="-1.98471">
        <ele>73</ele>
        <time>2022-10-29T11:23:15Z</time>
      </trkpt>
      <trkpt lat="47.15254" lon="-1.98476">
        <ele>73</ele>
        <time>2022-10-29T11:23:17Z</time>
      </trkpt>
      <trkpt lat="47.15242" lon="-1.98481">
        <ele>73</ele>
        <time>2022-10-29T11:23:19Z</time>
      </trkpt>
      <trkpt lat="47.1523" lon="-1.98485">
        <ele>72</ele>
        <time>2022-10-29T11:23:21Z</time>
      </trkpt>
      <trkpt lat="47.15218" lon="-1.9849">
        <ele>72</ele>
        <time>2022-10-29T11:23:23Z</time>
      </trkpt>
      <trkpt lat="47.15206" lon="-1.98494">
        <ele>72</ele>
        <time>2022-10-29T11:23:25Z</time>
      </trkpt>
      <trkpt lat="47.15194" lon="-1.98498">
        <ele>72</ele>
        <time>2022-10-29T11:23:27Z</time>
      </trkpt>
      <trkpt lat="47.15182" lon="-1.98503">
        <ele>71</ele>
        <time>2022-10-29T11:23:29Z</time>
      </trkpt>
      <trkpt lat="47.1517" lon="-1.98509">
        <ele>71</ele>
        <time>2022-10-29T11:23:31Z</time>
      </trkpt>
      <trkpt lat="47.15158" lon="-1.98513">
        <ele>70</ele>
        <time>2022-10-29T11:23:33Z</time>
      </trkpt>
      <trkpt lat="47.15146" lon="-1.98517">
        <ele>70</ele>
        <time>2022-10-29T11:23:35Z</time>
      </trkpt>
      <trkpt lat="47.15136" lon="-1.98519">
        <ele>70</ele>
        <time>2022-10-29T11:23:37Z</time>
      </trkpt>
      <trkpt lat="47.15131" lon="-1.98533">
        <ele>72</ele>
        <time>2022-10-29T11:23:40Z</time>
      </trkpt>
      <trkpt lat="47.15134" lon="-1.9855">
        <ele>72</ele>
        <time>2022-10-29T11:23:42Z</time>
      </trkpt>
      <trkpt lat="47.15135" lon="-1.98569">
        <ele>73</ele>
        <time>2022-10-29T11:23:44Z</time>
      </trkpt>
      <trkpt lat="47.15135" lon="-1.98588">
        <ele>74</ele>
        <time>2022-10-29T11:23:46Z</time>
      </trkpt>
      <trkpt lat="47.15134" lon="-1.98606">
        <ele>73</ele>
        <time>2022-10-29T11:23:48Z</time>
      </trkpt>
      <trkpt lat="47.15132" lon="-1.98623">
        <ele>74</ele>
        <time>2022-10-29T11:23:50Z</time>
      </trkpt>
      <trkpt lat="47.15131" lon="-1.98638">
        <ele>74</ele>
        <time>2022-10-29T11:23:53Z</time>
      </trkpt>
      <trkpt lat="47.15124" lon="-1.98652">
        <ele>74</ele>
        <time>2022-10-29T11:24:02Z</time>
      </trkpt>
      <trkpt lat="47.15112" lon="-1.98663">
        <ele>75</ele>
        <time>2022-10-29T11:24:04Z</time>
      </trkpt>
      <trkpt lat="47.151" lon="-1.98672">
        <ele>75</ele>
        <time>2022-10-29T11:24:06Z</time>
      </trkpt>
      <trkpt lat="47.15089" lon="-1.98682">
        <ele>75</ele>
        <time>2022-10-29T11:24:08Z</time>
      </trkpt>
      <trkpt lat="47.15077" lon="-1.98692">
        <ele>75</ele>
        <time>2022-10-29T11:24:10Z</time>
      </trkpt>
      <trkpt lat="47.15066" lon="-1.98702">
        <ele>75</ele>
        <time>2022-10-29T11:24:12Z</time>
      </trkpt>
      <trkpt lat="47.15055" lon="-1.98712">
        <ele>74</ele>
        <time>2022-10-29T11:24:14Z</time>
      </trkpt>
      <trkpt lat="47.15044" lon="-1.98723">
        <ele>74</ele>
        <time>2022-10-29T11:24:16Z</time>
      </trkpt>
      <trkpt lat="47.15033" lon="-1.98733">
        <ele>73</ele>
        <time>2022-10-29T11:24:18Z</time>
      </trkpt>
      <trkpt lat="47.15022" lon="-1.98744">
        <ele>73</ele>
        <time>2022-10-29T11:24:20Z</time>
      </trkpt>
      <trkpt lat="47.15011" lon="-1.98754">
        <ele>72</ele>
        <time>2022-10-29T11:24:22Z</time>
      </trkpt>
      <trkpt lat="47.15001" lon="-1.98764">
        <ele>72</ele>
        <time>2022-10-29T11:24:24Z</time>
      </trkpt>
      <trkpt lat="47.1499" lon="-1.98773">
        <ele>72</ele>
        <time>2022-10-29T11:24:26Z</time>
      </trkpt>
      <trkpt lat="47.14979" lon="-1.98783">
        <ele>71</ele>
        <time>2022-10-29T11:24:28Z</time>
      </trkpt>
      <trkpt lat="47.14969" lon="-1.98795">
        <ele>71</ele>
        <time>2022-10-29T11:24:30Z</time>
      </trkpt>
      <trkpt lat="47.14959" lon="-1.98808">
        <ele>70</ele>
        <time>2022-10-29T11:24:32Z</time>
      </trkpt>
      <trkpt lat="47.14949" lon="-1.98821">
        <ele>70</ele>
        <time>2022-10-29T11:24:34Z</time>
      </trkpt>
      <trkpt lat="47.14939" lon="-1.98834">
        <ele>69</ele>
        <time>2022-10-29T11:24:36Z</time>
      </trkpt>
      <trkpt lat="47.14929" lon="-1.98847">
        <ele>69</ele>
        <time>2022-10-29T11:24:38Z</time>
      </trkpt>
      <trkpt lat="47.1492" lon="-1.9886">
        <ele>69</ele>
        <time>2022-10-29T11:24:40Z</time>
      </trkpt>
      <trkpt lat="47.1491" lon="-1.98874">
        <ele>68</ele>
        <time>2022-10-29T11:24:42Z</time>
      </trkpt>
      <trkpt lat="47.149" lon="-1.98888">
        <ele>68</ele>
        <time>2022-10-29T11:24:44Z</time>
      </trkpt>
      <trkpt lat="47.1489" lon="-1.98902">
        <ele>67</ele>
        <time>2022-10-29T11:24:46Z</time>
      </trkpt>
      <trkpt lat="47.1488" lon="-1.98916">
        <ele>67</ele>
        <time>2022-10-29T11:24:48Z</time>
      </trkpt>
      <trkpt lat="47.1487" lon="-1.9893">
        <ele>67</ele>
        <time>2022-10-29T11:24:50Z</time>
      </trkpt>
      <trkpt lat="47.14861" lon="-1.98943">
        <ele>66</ele>
        <time>2022-10-29T11:24:52Z</time>
      </trkpt>
      <trkpt lat="47.1485" lon="-1.98956">
        <ele>66</ele>
        <time>2022-10-29T11:24:54Z</time>
      </trkpt>
      <trkpt lat="47.1484" lon="-1.98969">
        <ele>65</ele>
        <time>2022-10-29T11:24:56Z</time>
      </trkpt>
      <trkpt lat="47.1483" lon="-1.98983">
        <ele>65</ele>
        <time>2022-10-29T11:24:58Z</time>
      </trkpt>
      <trkpt lat="47.1482" lon="-1.98997">
        <ele>65</ele>
        <time>2022-10-29T11:25:00Z</time>
      </trkpt>
      <trkpt lat="47.14811" lon="-1.99012">
        <ele>65</ele>
        <time>2022-10-29T11:25:02Z</time>
      </trkpt>
      <trkpt lat="47.14801" lon="-1.99026">
        <ele>66</ele>
        <time>2022-10-29T11:25:04Z</time>
      </trkpt>
      <trkpt lat="47.14792" lon="-1.9904">
        <ele>66</ele>
        <time>2022-10-29T11:25:06Z</time>
      </trkpt>
      <trkpt lat="47.14782" lon="-1.99055">
        <ele>66</ele>
        <time>2022-10-29T11:25:08Z</time>
      </trkpt>
      <trkpt lat="47.14773" lon="-1.99069">
        <ele>66</ele>
        <time>2022-10-29T11:25:10Z</time>
      </trkpt>
      <trkpt lat="47.14764" lon="-1.99082">
        <ele>65</ele>
        <time>2022-10-29T11:25:12Z</time>
      </trkpt>
      <trkpt lat="47.14755" lon="-1.99096">
        <ele>65</ele>
        <time>2022-10-29T11:25:14Z</time>
      </trkpt>
      <trkpt lat="47.14747" lon="-1.9911">
        <ele>65</ele>
        <time>2022-10-29T11:25:16Z</time>
      </trkpt>
      <trkpt lat="47.14739" lon="-1.99123">
        <ele>65</ele>
        <time>2022-10-29T11:25:18Z</time>
      </trkpt>
      <trkpt lat="47.14731" lon="-1.99136">
        <ele>65</ele>
        <time>2022-10-29T11:25:20Z</time>
      </trkpt>
      <trkpt lat="47.14723" lon="-1.9915">
        <ele>66</ele>
        <time>2022-10-29T11:25:22Z</time>
      </trkpt>
      <trkpt lat="47.14716" lon="-1.99163">
        <ele>66</ele>
        <time>2022-10-29T11:25:24Z</time>
      </trkpt>
      <trkpt lat="47.14708" lon="-1.99178">
        <ele>66</ele>
        <time>2022-10-29T11:25:26Z</time>
      </trkpt>
      <trkpt lat="47.147" lon="-1.99191">
        <ele>66</ele>
        <time>2022-10-29T11:25:28Z</time>
      </trkpt>
      <trkpt lat="47.14693" lon="-1.99204">
        <ele>66</ele>
        <time>2022-10-29T11:25:30Z</time>
      </trkpt>
      <trkpt lat="47.14686" lon="-1.99218">
        <ele>66</ele>
        <time>2022-10-29T11:25:32Z</time>
      </trkpt>
      <trkpt lat="47.14679" lon="-1.99231">
        <ele>67</ele>
        <time>2022-10-29T11:25:34Z</time>
      </trkpt>
      <trkpt lat="47.14672" lon="-1.99244">
        <ele>67</ele>
        <time>2022-10-29T11:25:36Z</time>
      </trkpt>
      <trkpt lat="47.14664" lon="-1.99259">
        <ele>67</ele>
        <time>2022-10-29T11:25:38Z</time>
      </trkpt>
      <trkpt lat="47.14657" lon="-1.99273">
        <ele>67</ele>
        <time>2022-10-29T11:25:40Z</time>
      </trkpt>
      <trkpt lat="47.1465" lon="-1.99286">
        <ele>67</ele>
        <time>2022-10-29T11:25:42Z</time>
      </trkpt>
      <trkpt lat="47.14642" lon="-1.99299">
        <ele>67</ele>
        <time>2022-10-29T11:25:44Z</time>
      </trkpt>
      <trkpt lat="47.14635" lon="-1.99313">
        <ele>67</ele>
        <time>2022-10-29T11:25:46Z</time>
      </trkpt>
      <trkpt lat="47.14628" lon="-1.99327">
        <ele>67</ele>
        <time>2022-10-29T11:25:48Z</time>
      </trkpt>
      <trkpt lat="47.1462" lon="-1.99341">
        <ele>66</ele>
        <time>2022-10-29T11:25:50Z</time>
      </trkpt>
      <trkpt lat="47.14613" lon="-1.99355">
        <ele>67</ele>
        <time>2022-10-29T11:25:52Z</time>
      </trkpt>
      <trkpt lat="47.14605" lon="-1.99368">
        <ele>67</ele>
        <time>2022-10-29T11:25:54Z</time>
      </trkpt>
      <trkpt lat="47.14598" lon="-1.99382">
        <ele>67</ele>
        <time>2022-10-29T11:25:56Z</time>
      </trkpt>
      <trkpt lat="47.14591" lon="-1.99395">
        <ele>66</ele>
        <time>2022-10-29T11:25:58Z</time>
      </trkpt>
      <trkpt lat="47.14583" lon="-1.99409">
        <ele>67</ele>
        <time>2022-10-29T11:26:00Z</time>
      </trkpt>
      <trkpt lat="47.14576" lon="-1.99422">
        <ele>66</ele>
        <time>2022-10-29T11:26:02Z</time>
      </trkpt>
      <trkpt lat="47.14569" lon="-1.99437">
        <ele>66</ele>
        <time>2022-10-29T11:26:04Z</time>
      </trkpt>
      <trkpt lat="47.14561" lon="-1.99451">
        <ele>66</ele>
        <time>2022-10-29T11:26:06Z</time>
      </trkpt>
      <trkpt lat="47.14553" lon="-1.99466">
        <ele>66</ele>
        <time>2022-10-29T11:26:08Z</time>
      </trkpt>
      <trkpt lat="47.14545" lon="-1.9948">
        <ele>66</ele>
        <time>2022-10-29T11:26:10Z</time>
      </trkpt>
      <trkpt lat="47.14537" lon="-1.99495">
        <ele>66</ele>
        <time>2022-10-29T11:26:12Z</time>
      </trkpt>
      <trkpt lat="47.14529" lon="-1.99509">
        <ele>66</ele>
        <time>2022-10-29T11:26:14Z</time>
      </trkpt>
      <trkpt lat="47.14521" lon="-1.99524">
        <ele>66</ele>
        <time>2022-10-29T11:26:16Z</time>
      </trkpt>
      <trkpt lat="47.14513" lon="-1.99538">
        <ele>66</ele>
        <time>2022-10-29T11:26:18Z</time>
      </trkpt>
      <trkpt lat="47.14505" lon="-1.99553">
        <ele>66</ele>
        <time>2022-10-29T11:26:20Z</time>
      </trkpt>
      <trkpt lat="47.14497" lon="-1.99567">
        <ele>66</ele>
        <time>2022-10-29T11:26:22Z</time>
      </trkpt>
      <trkpt lat="47.14489" lon="-1.99582">
        <ele>65</ele>
        <time>2022-10-29T11:26:24Z</time>
      </trkpt>
      <trkpt lat="47.14481" lon="-1.99596">
        <ele>65</ele>
        <time>2022-10-29T11:26:26Z</time>
      </trkpt>
      <trkpt lat="47.14473" lon="-1.99611">
        <ele>65</ele>
        <time>2022-10-29T11:26:28Z</time>
      </trkpt>
      <trkpt lat="47.14465" lon="-1.99626">
        <ele>65</ele>
        <time>2022-10-29T11:26:30Z</time>
      </trkpt>
      <trkpt lat="47.14457" lon="-1.9964">
        <ele>65</ele>
        <time>2022-10-29T11:26:32Z</time>
      </trkpt>
      <trkpt lat="47.1445" lon="-1.99654">
        <ele>65</ele>
        <time>2022-10-29T11:26:34Z</time>
      </trkpt>
      <trkpt lat="47.14442" lon="-1.99668">
        <ele>65</ele>
        <time>2022-10-29T11:26:36Z</time>
      </trkpt>
      <trkpt lat="47.14435" lon="-1.99682">
        <ele>65</ele>
        <time>2022-10-29T11:26:38Z</time>
      </trkpt>
      <trkpt lat="47.14427" lon="-1.99695">
        <ele>65</ele>
        <time>2022-10-29T11:26:40Z</time>
      </trkpt>
      <trkpt lat="47.1442" lon="-1.99709">
        <ele>65</ele>
        <time>2022-10-29T11:26:42Z</time>
      </trkpt>
      <trkpt lat="47.14412" lon="-1.99721">
        <ele>65</ele>
        <time>2022-10-29T11:26:44Z</time>
      </trkpt>
      <trkpt lat="47.14405" lon="-1.99735">
        <ele>65</ele>
        <time>2022-10-29T11:26:46Z</time>
      </trkpt>
      <trkpt lat="47.14396" lon="-1.99748">
        <ele>65</ele>
        <time>2022-10-29T11:26:48Z</time>
      </trkpt>
      <trkpt lat="47.14388" lon="-1.99761">
        <ele>64</ele>
        <time>2022-10-29T11:26:50Z</time>
      </trkpt>
      <trkpt lat="47.1438" lon="-1.99774">
        <ele>64</ele>
        <time>2022-10-29T11:26:52Z</time>
      </trkpt>
      <trkpt lat="47.14372" lon="-1.99787">
        <ele>64</ele>
        <time>2022-10-29T11:26:54Z</time>
      </trkpt>
      <trkpt lat="47.14364" lon="-1.998">
        <ele>64</ele>
        <time>2022-10-29T11:26:56Z</time>
      </trkpt>
      <trkpt lat="47.14355" lon="-1.99813">
        <ele>64</ele>
        <time>2022-10-29T11:26:58Z</time>
      </trkpt>
      <trkpt lat="47.14348" lon="-1.99825">
        <ele>64</ele>
        <time>2022-10-29T11:27:00Z</time>
      </trkpt>
      <trkpt lat="47.1434" lon="-1.99839">
        <ele>64</ele>
        <time>2022-10-29T11:27:02Z</time>
      </trkpt>
      <trkpt lat="47.14332" lon="-1.99852">
        <ele>64</ele>
        <time>2022-10-29T11:27:04Z</time>
      </trkpt>
      <trkpt lat="47.14325" lon="-1.99865">
        <ele>64</ele>
        <time>2022-10-29T11:27:06Z</time>
      </trkpt>
      <trkpt lat="47.14317" lon="-1.99878">
        <ele>63</ele>
        <time>2022-10-29T11:27:08Z</time>
      </trkpt>
      <trkpt lat="47.14309" lon="-1.9989">
        <ele>63</ele>
        <time>2022-10-29T11:27:10Z</time>
      </trkpt>
      <trkpt lat="47.14301" lon="-1.99903">
        <ele>63</ele>
        <time>2022-10-29T11:27:12Z</time>
      </trkpt>
      <trkpt lat="47.14294" lon="-1.99915">
        <ele>63</ele>
        <time>2022-10-29T11:27:14Z</time>
      </trkpt>
      <trkpt lat="47.14286" lon="-1.99928">
        <ele>63</ele>
        <time>2022-10-29T11:27:16Z</time>
      </trkpt>
      <trkpt lat="47.14278" lon="-1.99941">
        <ele>63</ele>
        <time>2022-10-29T11:27:18Z</time>
      </trkpt>
      <trkpt lat="47.1427" lon="-1.99954">
        <ele>62</ele>
        <time>2022-10-29T11:27:20Z</time>
      </trkpt>
      <trkpt lat="47.14262" lon="-1.99967">
        <ele>62</ele>
        <time>2022-10-29T11:27:22Z</time>
      </trkpt>
      <trkpt lat="47.14254" lon="-1.9998">
        <ele>63</ele>
        <time>2022-10-29T11:27:24Z</time>
      </trkpt>
      <trkpt lat="47.14246" lon="-1.99992">
        <ele>62</ele>
        <time>2022-10-29T11:27:26Z</time>
      </trkpt>
      <trkpt lat="47.14238" lon="-2.00005">
        <ele>63</ele>
        <time>2022-10-29T11:27:28Z</time>
      </trkpt>
      <trkpt lat="47.14229" lon="-2.00018">
        <ele>63</ele>
        <time>2022-10-29T11:27:30Z</time>
      </trkpt>
      <trkpt lat="47.14221" lon="-2.00031">
        <ele>63</ele>
        <time>2022-10-29T11:27:32Z</time>
      </trkpt>
      <trkpt lat="47.14213" lon="-2.00044">
        <ele>63</ele>
        <time>2022-10-29T11:27:34Z</time>
      </trkpt>
      <trkpt lat="47.14204" lon="-2.00057">
        <ele>63</ele>
        <time>2022-10-29T11:27:36Z</time>
      </trkpt>
      <trkpt lat="47.14196" lon="-2.00071">
        <ele>62</ele>
        <time>2022-10-29T11:27:38Z</time>
      </trkpt>
      <trkpt lat="47.14188" lon="-2.00084">
        <ele>62</ele>
        <time>2022-10-29T11:27:40Z</time>
      </trkpt>
      <trkpt lat="47.1418" lon="-2.00097">
        <ele>62</ele>
        <time>2022-10-29T11:27:42Z</time>
      </trkpt>
      <trkpt lat="47.14172" lon="-2.00111">
        <ele>62</ele>
        <time>2022-10-29T11:27:44Z</time>
      </trkpt>
      <trkpt lat="47.14164" lon="-2.00125">
        <ele>62</ele>
        <time>2022-10-29T11:27:46Z</time>
      </trkpt>
      <trkpt lat="47.14156" lon="-2.00138">
        <ele>62</ele>
        <time>2022-10-29T11:27:48Z</time>
      </trkpt>
      <trkpt lat="47.14147" lon="-2.00152">
        <ele>62</ele>
        <time>2022-10-29T11:27:50Z</time>
      </trkpt>
      <trkpt lat="47.14138" lon="-2.00166">
        <ele>62</ele>
        <time>2022-10-29T11:27:52Z</time>
      </trkpt>
      <trkpt lat="47.14129" lon="-2.00181">
        <ele>62</ele>
        <time>2022-10-29T11:27:54Z</time>
      </trkpt>
      <trkpt lat="47.1412" lon="-2.00195">
        <ele>61</ele>
        <time>2022-10-29T11:27:56Z</time>
      </trkpt>
      <trkpt lat="47.14111" lon="-2.00209">
        <ele>61</ele>
        <time>2022-10-29T11:27:58Z</time>
      </trkpt>
      <trkpt lat="47.14102" lon="-2.00224">
        <ele>61</ele>
        <time>2022-10-29T11:28:00Z</time>
      </trkpt>
      <trkpt lat="47.14093" lon="-2.00239">
        <ele>61</ele>
        <time>2022-10-29T11:28:02Z</time>
      </trkpt>
      <trkpt lat="47.14085" lon="-2.00254">
        <ele>61</ele>
        <time>2022-10-29T11:28:04Z</time>
      </trkpt>
      <trkpt lat="47.14077" lon="-2.0027">
        <ele>60</ele>
        <time>2022-10-29T11:28:06Z</time>
      </trkpt>
      <trkpt lat="47.14069" lon="-2.00286">
        <ele>60</ele>
        <time>2022-10-29T11:28:08Z</time>
      </trkpt>
      <trkpt lat="47.1406" lon="-2.00303">
        <ele>60</ele>
        <time>2022-10-29T11:28:10Z</time>
      </trkpt>
      <trkpt lat="47.14053" lon="-2.0032">
        <ele>60</ele>
        <time>2022-10-29T11:28:12Z</time>
      </trkpt>
      <trkpt lat="47.14045" lon="-2.00336">
        <ele>59</ele>
        <time>2022-10-29T11:28:14Z</time>
      </trkpt>
      <trkpt lat="47.14037" lon="-2.00352">
        <ele>59</ele>
        <time>2022-10-29T11:28:16Z</time>
      </trkpt>
      <trkpt lat="47.1403" lon="-2.00368">
        <ele>59</ele>
        <time>2022-10-29T11:28:18Z</time>
      </trkpt>
      <trkpt lat="47.14022" lon="-2.00385">
        <ele>59</ele>
        <time>2022-10-29T11:28:20Z</time>
      </trkpt>
      <trkpt lat="47.14015" lon="-2.004">
        <ele>59</ele>
        <time>2022-10-29T11:28:22Z</time>
      </trkpt>
      <trkpt lat="47.14007" lon="-2.00415">
        <ele>60</ele>
        <time>2022-10-29T11:28:24Z</time>
      </trkpt>
      <trkpt lat="47.14" lon="-2.0043">
        <ele>60</ele>
        <time>2022-10-29T11:28:26Z</time>
      </trkpt>
      <trkpt lat="47.13994" lon="-2.00445">
        <ele>60</ele>
        <time>2022-10-29T11:28:28Z</time>
      </trkpt>
      <trkpt lat="47.13987" lon="-2.00459">
        <ele>60</ele>
        <time>2022-10-29T11:28:30Z</time>
      </trkpt>
      <trkpt lat="47.1398" lon="-2.00473">
        <ele>60</ele>
        <time>2022-10-29T11:28:32Z</time>
      </trkpt>
      <trkpt lat="47.13973" lon="-2.00489">
        <ele>60</ele>
        <time>2022-10-29T11:28:34Z</time>
      </trkpt>
      <trkpt lat="47.13966" lon="-2.00504">
        <ele>60</ele>
        <time>2022-10-29T11:28:36Z</time>
      </trkpt>
      <trkpt lat="47.13959" lon="-2.00519">
        <ele>60</ele>
        <time>2022-10-29T11:28:38Z</time>
      </trkpt>
      <trkpt lat="47.13953" lon="-2.00533">
        <ele>60</ele>
        <time>2022-10-29T11:28:40Z</time>
      </trkpt>
      <trkpt lat="47.13946" lon="-2.00548">
        <ele>60</ele>
        <time>2022-10-29T11:28:42Z</time>
      </trkpt>
      <trkpt lat="47.13939" lon="-2.00562">
        <ele>60</ele>
        <time>2022-10-29T11:28:44Z</time>
      </trkpt>
      <trkpt lat="47.13933" lon="-2.00576">
        <ele>60</ele>
        <time>2022-10-29T11:28:46Z</time>
      </trkpt>
      <trkpt lat="47.13927" lon="-2.0059">
        <ele>60</ele>
        <time>2022-10-29T11:28:48Z</time>
      </trkpt>
      <trkpt lat="47.1392" lon="-2.00603">
        <ele>60</ele>
        <time>2022-10-29T11:28:50Z</time>
      </trkpt>
      <trkpt lat="47.13914" lon="-2.00617">
        <ele>60</ele>
        <time>2022-10-29T11:28:52Z</time>
      </trkpt>
      <trkpt lat="47.13908" lon="-2.0063">
        <ele>60</ele>
        <time>2022-10-29T11:28:54Z</time>
      </trkpt>
      <trkpt lat="47.13902" lon="-2.00642">
        <ele>60</ele>
        <time>2022-10-29T11:28:56Z</time>
      </trkpt>
      <trkpt lat="47.13896" lon="-2.00655">
        <ele>60</ele>
        <time>2022-10-29T11:28:58Z</time>
      </trkpt>
      <trkpt lat="47.13889" lon="-2.00668">
        <ele>60</ele>
        <time>2022-10-29T11:29:00Z</time>
      </trkpt>
      <trkpt lat="47.13883" lon="-2.00681">
        <ele>60</ele>
        <time>2022-10-29T11:29:02Z</time>
      </trkpt>
      <trkpt lat="47.13876" lon="-2.00695">
        <ele>60</ele>
        <time>2022-10-29T11:29:04Z</time>
      </trkpt>
      <trkpt lat="47.1387" lon="-2.00708">
        <ele>60</ele>
        <time>2022-10-29T11:29:06Z</time>
      </trkpt>
      <trkpt lat="47.13864" lon="-2.0072">
        <ele>60</ele>
        <time>2022-10-29T11:29:08Z</time>
      </trkpt>
      <trkpt lat="47.13858" lon="-2.00733">
        <ele>60</ele>
        <time>2022-10-29T11:29:10Z</time>
      </trkpt>
      <trkpt lat="47.13852" lon="-2.00747">
        <ele>60</ele>
        <time>2022-10-29T11:29:12Z</time>
      </trkpt>
      <trkpt lat="47.13846" lon="-2.0076">
        <ele>60</ele>
        <time>2022-10-29T11:29:14Z</time>
      </trkpt>
      <trkpt lat="47.13839" lon="-2.00773">
        <ele>60</ele>
        <time>2022-10-29T11:29:16Z</time>
      </trkpt>
      <trkpt lat="47.13833" lon="-2.00786">
        <ele>61</ele>
        <time>2022-10-29T11:29:18Z</time>
      </trkpt>
      <trkpt lat="47.13827" lon="-2.00798">
        <ele>61</ele>
        <time>2022-10-29T11:29:20Z</time>
      </trkpt>
      <trkpt lat="47.13822" lon="-2.00811">
        <ele>61</ele>
        <time>2022-10-29T11:29:22Z</time>
      </trkpt>
      <trkpt lat="47.13816" lon="-2.00823">
        <ele>61</ele>
        <time>2022-10-29T11:29:24Z</time>
      </trkpt>
      <trkpt lat="47.13809" lon="-2.00837">
        <ele>61</ele>
        <time>2022-10-29T11:29:26Z</time>
      </trkpt>
      <trkpt lat="47.13804" lon="-2.0085">
        <ele>61</ele>
        <time>2022-10-29T11:29:28Z</time>
      </trkpt>
      <trkpt lat="47.13797" lon="-2.00863">
        <ele>61</ele>
        <time>2022-10-29T11:29:30Z</time>
      </trkpt>
      <trkpt lat="47.13791" lon="-2.00876">
        <ele>61</ele>
        <time>2022-10-29T11:29:32Z</time>
      </trkpt>
      <trkpt lat="47.13785" lon="-2.00889">
        <ele>62</ele>
        <time>2022-10-29T11:29:34Z</time>
      </trkpt>
      <trkpt lat="47.13778" lon="-2.00902">
        <ele>62</ele>
        <time>2022-10-29T11:29:36Z</time>
      </trkpt>
      <trkpt lat="47.13772" lon="-2.00916">
        <ele>61</ele>
        <time>2022-10-29T11:29:38Z</time>
      </trkpt>
      <trkpt lat="47.13766" lon="-2.00929">
        <ele>61</ele>
        <time>2022-10-29T11:29:40Z</time>
      </trkpt>
      <trkpt lat="47.1376" lon="-2.00943">
        <ele>61</ele>
        <time>2022-10-29T11:29:42Z</time>
      </trkpt>
      <trkpt lat="47.13754" lon="-2.00957">
        <ele>62</ele>
        <time>2022-10-29T11:29:44Z</time>
      </trkpt>
      <trkpt lat="47.13748" lon="-2.0097">
        <ele>62</ele>
        <time>2022-10-29T11:29:46Z</time>
      </trkpt>
      <trkpt lat="47.13742" lon="-2.00984">
        <ele>62</ele>
        <time>2022-10-29T11:29:48Z</time>
      </trkpt>
      <trkpt lat="47.13737" lon="-2.00999">
        <ele>61</ele>
        <time>2022-10-29T11:29:50Z</time>
      </trkpt>
      <trkpt lat="47.13732" lon="-2.01014">
        <ele>62</ele>
        <time>2022-10-29T11:29:52Z</time>
      </trkpt>
      <trkpt lat="47.13727" lon="-2.01028">
        <ele>62</ele>
        <time>2022-10-29T11:29:54Z</time>
      </trkpt>
      <trkpt lat="47.13723" lon="-2.01044">
        <ele>62</ele>
        <time>2022-10-29T11:29:56Z</time>
      </trkpt>
      <trkpt lat="47.13718" lon="-2.01059">
        <ele>62</ele>
        <time>2022-10-29T11:29:58Z</time>
      </trkpt>
      <trkpt lat="47.13713" lon="-2.01074">
        <ele>61</ele>
        <time>2022-10-29T11:30:00Z</time>
      </trkpt>
      <trkpt lat="47.13708" lon="-2.01088">
        <ele>61</ele>
        <time>2022-10-29T11:30:02Z</time>
      </trkpt>
      <trkpt lat="47.13704" lon="-2.01103">
        <ele>61</ele>
        <time>2022-10-29T11:30:04Z</time>
      </trkpt>
      <trkpt lat="47.137" lon="-2.01117">
        <ele>62</ele>
        <time>2022-10-29T11:30:06Z</time>
      </trkpt>
      <trkpt lat="47.13695" lon="-2.01132">
        <ele>62</ele>
        <time>2022-10-29T11:30:08Z</time>
      </trkpt>
      <trkpt lat="47.13691" lon="-2.01147">
        <ele>62</ele>
        <time>2022-10-29T11:30:10Z</time>
      </trkpt>
      <trkpt lat="47.13686" lon="-2.01162">
        <ele>62</ele>
        <time>2022-10-29T11:30:12Z</time>
      </trkpt>
      <trkpt lat="47.13681" lon="-2.01178">
        <ele>62</ele>
        <time>2022-10-29T11:30:14Z</time>
      </trkpt>
      <trkpt lat="47.13676" lon="-2.01193">
        <ele>63</ele>
        <time>2022-10-29T11:30:16Z</time>
      </trkpt>
      <trkpt lat="47.13672" lon="-2.01208">
        <ele>62</ele>
        <time>2022-10-29T11:30:18Z</time>
      </trkpt>
      <trkpt lat="47.13667" lon="-2.01223">
        <ele>62</ele>
        <time>2022-10-29T11:30:20Z</time>
      </trkpt>
      <trkpt lat="47.13662" lon="-2.01239">
        <ele>62</ele>
        <time>2022-10-29T11:30:22Z</time>
      </trkpt>
      <trkpt lat="47.13657" lon="-2.01254">
        <ele>62</ele>
        <time>2022-10-29T11:30:24Z</time>
      </trkpt>
      <trkpt lat="47.13652" lon="-2.01271">
        <ele>62</ele>
        <time>2022-10-29T11:30:26Z</time>
      </trkpt>
      <trkpt lat="47.13647" lon="-2.01286">
        <ele>62</ele>
        <time>2022-10-29T11:30:28Z</time>
      </trkpt>
      <trkpt lat="47.13643" lon="-2.01302">
        <ele>62</ele>
        <time>2022-10-29T11:30:30Z</time>
      </trkpt>
      <trkpt lat="47.13638" lon="-2.01318">
        <ele>62</ele>
        <time>2022-10-29T11:30:32Z</time>
      </trkpt>
      <trkpt lat="47.13633" lon="-2.01334">
        <ele>62</ele>
        <time>2022-10-29T11:30:34Z</time>
      </trkpt>
      <trkpt lat="47.13627" lon="-2.01351">
        <ele>62</ele>
        <time>2022-10-29T11:30:36Z</time>
      </trkpt>
      <trkpt lat="47.13622" lon="-2.01367">
        <ele>62</ele>
        <time>2022-10-29T11:30:38Z</time>
      </trkpt>
      <trkpt lat="47.13617" lon="-2.01383">
        <ele>62</ele>
        <time>2022-10-29T11:30:40Z</time>
      </trkpt>
      <trkpt lat="47.13612" lon="-2.01399">
        <ele>62</ele>
        <time>2022-10-29T11:30:42Z</time>
      </trkpt>
      <trkpt lat="47.13607" lon="-2.01416">
        <ele>62</ele>
        <time>2022-10-29T11:30:44Z</time>
      </trkpt>
      <trkpt lat="47.13602" lon="-2.01432">
        <ele>62</ele>
        <time>2022-10-29T11:30:46Z</time>
      </trkpt>
      <trkpt lat="47.13597" lon="-2.01448">
        <ele>62</ele>
        <time>2022-10-29T11:30:48Z</time>
      </trkpt>
      <trkpt lat="47.13592" lon="-2.01465">
        <ele>62</ele>
        <time>2022-10-29T11:30:50Z</time>
      </trkpt>
      <trkpt lat="47.13587" lon="-2.01481">
        <ele>62</ele>
        <time>2022-10-29T11:30:52Z</time>
      </trkpt>
      <trkpt lat="47.13581" lon="-2.01498">
        <ele>62</ele>
        <time>2022-10-29T11:30:54Z</time>
      </trkpt>
      <trkpt lat="47.13576" lon="-2.01514">
        <ele>62</ele>
        <time>2022-10-29T11:30:56Z</time>
      </trkpt>
      <trkpt lat="47.13571" lon="-2.01532">
        <ele>62</ele>
        <time>2022-10-29T11:30:58Z</time>
      </trkpt>
      <trkpt lat="47.13567" lon="-2.01549">
        <ele>62</ele>
        <time>2022-10-29T11:31:00Z</time>
      </trkpt>
      <trkpt lat="47.13563" lon="-2.01567">
        <ele>61</ele>
        <time>2022-10-29T11:31:02Z</time>
      </trkpt>
      <trkpt lat="47.1356" lon="-2.01585">
        <ele>62</ele>
        <time>2022-10-29T11:31:04Z</time>
      </trkpt>
      <trkpt lat="47.13557" lon="-2.01603">
        <ele>61</ele>
        <time>2022-10-29T11:31:06Z</time>
      </trkpt>
      <trkpt lat="47.13555" lon="-2.01623">
        <ele>61</ele>
        <time>2022-10-29T11:31:08Z</time>
      </trkpt>
      <trkpt lat="47.13553" lon="-2.01642">
        <ele>60</ele>
        <time>2022-10-29T11:31:10Z</time>
      </trkpt>
      <trkpt lat="47.13551" lon="-2.01661">
        <ele>60</ele>
        <time>2022-10-29T11:31:12Z</time>
      </trkpt>
      <trkpt lat="47.13549" lon="-2.0168">
        <ele>60</ele>
        <time>2022-10-29T11:31:14Z</time>
      </trkpt>
      <trkpt lat="47.13547" lon="-2.017">
        <ele>60</ele>
        <time>2022-10-29T11:31:16Z</time>
      </trkpt>
      <trkpt lat="47.13545" lon="-2.01719">
        <ele>59</ele>
        <time>2022-10-29T11:31:18Z</time>
      </trkpt>
      <trkpt lat="47.13542" lon="-2.01739">
        <ele>59</ele>
        <time>2022-10-29T11:31:20Z</time>
      </trkpt>
      <trkpt lat="47.1354" lon="-2.01759">
        <ele>59</ele>
        <time>2022-10-29T11:31:22Z</time>
      </trkpt>
      <trkpt lat="47.13537" lon="-2.01781">
        <ele>58</ele>
        <time>2022-10-29T11:31:24Z</time>
      </trkpt>
      <trkpt lat="47.13534" lon="-2.01801">
        <ele>58</ele>
        <time>2022-10-29T11:31:26Z</time>
      </trkpt>
      <trkpt lat="47.13532" lon="-2.01823">
        <ele>57</ele>
        <time>2022-10-29T11:31:28Z</time>
      </trkpt>
      <trkpt lat="47.13529" lon="-2.01843">
        <ele>57</ele>
        <time>2022-10-29T11:31:30Z</time>
      </trkpt>
      <trkpt lat="47.13527" lon="-2.01865">
        <ele>57</ele>
        <time>2022-10-29T11:31:32Z</time>
      </trkpt>
      <trkpt lat="47.13525" lon="-2.01886">
        <ele>56</ele>
        <time>2022-10-29T11:31:34Z</time>
      </trkpt>
      <trkpt lat="47.13522" lon="-2.01906">
        <ele>56</ele>
        <time>2022-10-29T11:31:36Z</time>
      </trkpt>
      <trkpt lat="47.13521" lon="-2.01927">
        <ele>56</ele>
        <time>2022-10-29T11:31:38Z</time>
      </trkpt>
      <trkpt lat="47.13518" lon="-2.01946">
        <ele>56</ele>
        <time>2022-10-29T11:31:40Z</time>
      </trkpt>
      <trkpt lat="47.13516" lon="-2.01965">
        <ele>56</ele>
        <time>2022-10-29T11:31:42Z</time>
      </trkpt>
      <trkpt lat="47.13513" lon="-2.01983">
        <ele>56</ele>
        <time>2022-10-29T11:31:44Z</time>
      </trkpt>
      <trkpt lat="47.13511" lon="-2.02002">
        <ele>56</ele>
        <time>2022-10-29T11:31:46Z</time>
      </trkpt>
      <trkpt lat="47.13509" lon="-2.02022">
        <ele>56</ele>
        <time>2022-10-29T11:31:48Z</time>
      </trkpt>
      <trkpt lat="47.13507" lon="-2.02041">
        <ele>56</ele>
        <time>2022-10-29T11:31:50Z</time>
      </trkpt>
      <trkpt lat="47.13505" lon="-2.02059">
        <ele>56</ele>
        <time>2022-10-29T11:31:52Z</time>
      </trkpt>
      <trkpt lat="47.13503" lon="-2.02079">
        <ele>56</ele>
        <time>2022-10-29T11:31:54Z</time>
      </trkpt>
      <trkpt lat="47.135" lon="-2.02097">
        <ele>56</ele>
        <time>2022-10-29T11:31:56Z</time>
      </trkpt>
      <trkpt lat="47.13499" lon="-2.02117">
        <ele>56</ele>
        <time>2022-10-29T11:31:58Z</time>
      </trkpt>
      <trkpt lat="47.13497" lon="-2.02135">
        <ele>56</ele>
        <time>2022-10-29T11:32:00Z</time>
      </trkpt>
      <trkpt lat="47.13494" lon="-2.02154">
        <ele>55</ele>
        <time>2022-10-29T11:32:02Z</time>
      </trkpt>
      <trkpt lat="47.13492" lon="-2.02174">
        <ele>55</ele>
        <time>2022-10-29T11:32:04Z</time>
      </trkpt>
      <trkpt lat="47.1349" lon="-2.02192">
        <ele>55</ele>
        <time>2022-10-29T11:32:06Z</time>
      </trkpt>
      <trkpt lat="47.13486" lon="-2.0221">
        <ele>55</ele>
        <time>2022-10-29T11:32:08Z</time>
      </trkpt>
      <trkpt lat="47.13483" lon="-2.02229">
        <ele>55</ele>
        <time>2022-10-29T11:32:10Z</time>
      </trkpt>
      <trkpt lat="47.13479" lon="-2.02246">
        <ele>55</ele>
        <time>2022-10-29T11:32:12Z</time>
      </trkpt>
      <trkpt lat="47.13474" lon="-2.02264">
        <ele>55</ele>
        <time>2022-10-29T11:32:14Z</time>
      </trkpt>
      <trkpt lat="47.1347" lon="-2.02282">
        <ele>55</ele>
        <time>2022-10-29T11:32:16Z</time>
      </trkpt>
      <trkpt lat="47.13465" lon="-2.023">
        <ele>56</ele>
        <time>2022-10-29T11:32:18Z</time>
      </trkpt>
      <trkpt lat="47.1346" lon="-2.02317">
        <ele>56</ele>
        <time>2022-10-29T11:32:20Z</time>
      </trkpt>
      <trkpt lat="47.13455" lon="-2.02334">
        <ele>56</ele>
        <time>2022-10-29T11:32:22Z</time>
      </trkpt>
      <trkpt lat="47.1345" lon="-2.0235">
        <ele>56</ele>
        <time>2022-10-29T11:32:24Z</time>
      </trkpt>
      <trkpt lat="47.13443" lon="-2.02366">
        <ele>56</ele>
        <time>2022-10-29T11:32:26Z</time>
      </trkpt>
      <trkpt lat="47.13437" lon="-2.02381">
        <ele>56</ele>
        <time>2022-10-29T11:32:28Z</time>
      </trkpt>
      <trkpt lat="47.1343" lon="-2.02398">
        <ele>55</ele>
        <time>2022-10-29T11:32:30Z</time>
      </trkpt>
      <trkpt lat="47.13423" lon="-2.02413">
        <ele>56</ele>
        <time>2022-10-29T11:32:32Z</time>
      </trkpt>
      <trkpt lat="47.13416" lon="-2.02429">
        <ele>56</ele>
        <time>2022-10-29T11:32:34Z</time>
      </trkpt>
      <trkpt lat="47.1341" lon="-2.02444">
        <ele>56</ele>
        <time>2022-10-29T11:32:36Z</time>
      </trkpt>
      <trkpt lat="47.13403" lon="-2.02458">
        <ele>56</ele>
        <time>2022-10-29T11:32:38Z</time>
      </trkpt>
      <trkpt lat="47.13397" lon="-2.02472">
        <ele>56</ele>
        <time>2022-10-29T11:32:40Z</time>
      </trkpt>
      <trkpt lat="47.13391" lon="-2.02486">
        <ele>56</ele>
        <time>2022-10-29T11:32:42Z</time>
      </trkpt>
      <trkpt lat="47.13385" lon="-2.025">
        <ele>57</ele>
        <time>2022-10-29T11:32:44Z</time>
      </trkpt>
      <trkpt lat="47.13379" lon="-2.02514">
        <ele>57</ele>
        <time>2022-10-29T11:32:46Z</time>
      </trkpt>
      <trkpt lat="47.13374" lon="-2.02529">
        <ele>57</ele>
        <time>2022-10-29T11:32:48Z</time>
      </trkpt>
      <trkpt lat="47.13368" lon="-2.02544">
        <ele>58</ele>
        <time>2022-10-29T11:32:50Z</time>
      </trkpt>
      <trkpt lat="47.13361" lon="-2.02561">
        <ele>58</ele>
        <time>2022-10-29T11:32:52Z</time>
      </trkpt>
      <trkpt lat="47.13355" lon="-2.02575">
        <ele>58</ele>
        <time>2022-10-29T11:32:54Z</time>
      </trkpt>
      <trkpt lat="47.13349" lon="-2.02589">
        <ele>58</ele>
        <time>2022-10-29T11:32:56Z</time>
      </trkpt>
      <trkpt lat="47.13343" lon="-2.02603">
        <ele>58</ele>
        <time>2022-10-29T11:32:58Z</time>
      </trkpt>
      <trkpt lat="47.13336" lon="-2.02618">
        <ele>58</ele>
        <time>2022-10-29T11:33:00Z</time>
      </trkpt>
      <trkpt lat="47.1333" lon="-2.02632">
        <ele>58</ele>
        <time>2022-10-29T11:33:02Z</time>
      </trkpt>
      <trkpt lat="47.13324" lon="-2.02646">
        <ele>58</ele>
        <time>2022-10-29T11:33:04Z</time>
      </trkpt>
      <trkpt lat="47.13318" lon="-2.0266">
        <ele>58</ele>
        <time>2022-10-29T11:33:06Z</time>
      </trkpt>
      <trkpt lat="47.13312" lon="-2.02674">
        <ele>58</ele>
        <time>2022-10-29T11:33:08Z</time>
      </trkpt>
      <trkpt lat="47.13304" lon="-2.02689">
        <ele>58</ele>
        <time>2022-10-29T11:33:10Z</time>
      </trkpt>
      <trkpt lat="47.13298" lon="-2.02705">
        <ele>57</ele>
        <time>2022-10-29T11:33:12Z</time>
      </trkpt>
      <trkpt lat="47.13292" lon="-2.02719">
        <ele>57</ele>
        <time>2022-10-29T11:33:14Z</time>
      </trkpt>
      <trkpt lat="47.13285" lon="-2.02735">
        <ele>58</ele>
        <time>2022-10-29T11:33:16Z</time>
      </trkpt>
      <trkpt lat="47.1328" lon="-2.02751">
        <ele>57</ele>
        <time>2022-10-29T11:33:18Z</time>
      </trkpt>
      <trkpt lat="47.13275" lon="-2.02766">
        <ele>57</ele>
        <time>2022-10-29T11:33:20Z</time>
      </trkpt>
      <trkpt lat="47.1327" lon="-2.02782">
        <ele>57</ele>
        <time>2022-10-29T11:33:22Z</time>
      </trkpt>
      <trkpt lat="47.13266" lon="-2.028">
        <ele>57</ele>
        <time>2022-10-29T11:33:24Z</time>
      </trkpt>
      <trkpt lat="47.13261" lon="-2.02817">
        <ele>57</ele>
        <time>2022-10-29T11:33:26Z</time>
      </trkpt>
      <trkpt lat="47.13257" lon="-2.02833">
        <ele>57</ele>
        <time>2022-10-29T11:33:28Z</time>
      </trkpt>
      <trkpt lat="47.13253" lon="-2.0285">
        <ele>57</ele>
        <time>2022-10-29T11:33:30Z</time>
      </trkpt>
      <trkpt lat="47.13249" lon="-2.02866">
        <ele>57</ele>
        <time>2022-10-29T11:33:32Z</time>
      </trkpt>
      <trkpt lat="47.13245" lon="-2.02883">
        <ele>57</ele>
        <time>2022-10-29T11:33:34Z</time>
      </trkpt>
      <trkpt lat="47.13241" lon="-2.029">
        <ele>57</ele>
        <time>2022-10-29T11:33:36Z</time>
      </trkpt>
      <trkpt lat="47.13238" lon="-2.02916">
        <ele>57</ele>
        <time>2022-10-29T11:33:38Z</time>
      </trkpt>
      <trkpt lat="47.13233" lon="-2.02932">
        <ele>57</ele>
        <time>2022-10-29T11:33:40Z</time>
      </trkpt>
      <trkpt lat="47.13229" lon="-2.02949">
        <ele>57</ele>
        <time>2022-10-29T11:33:42Z</time>
      </trkpt>
      <trkpt lat="47.13225" lon="-2.02966">
        <ele>57</ele>
        <time>2022-10-29T11:33:44Z</time>
      </trkpt>
      <trkpt lat="47.1322" lon="-2.02984">
        <ele>57</ele>
        <time>2022-10-29T11:33:46Z</time>
      </trkpt>
      <trkpt lat="47.13216" lon="-2.03001">
        <ele>57</ele>
        <time>2022-10-29T11:33:48Z</time>
      </trkpt>
      <trkpt lat="47.13211" lon="-2.03018">
        <ele>57</ele>
        <time>2022-10-29T11:33:50Z</time>
      </trkpt>
      <trkpt lat="47.13206" lon="-2.03035">
        <ele>56</ele>
        <time>2022-10-29T11:33:52Z</time>
      </trkpt>
      <trkpt lat="47.132" lon="-2.03052">
        <ele>56</ele>
        <time>2022-10-29T11:33:54Z</time>
      </trkpt>
      <trkpt lat="47.13195" lon="-2.03069">
        <ele>56</ele>
        <time>2022-10-29T11:33:56Z</time>
      </trkpt>
      <trkpt lat="47.13189" lon="-2.03086">
        <ele>56</ele>
        <time>2022-10-29T11:33:58Z</time>
      </trkpt>
      <trkpt lat="47.13183" lon="-2.03104">
        <ele>56</ele>
        <time>2022-10-29T11:34:00Z</time>
      </trkpt>
      <trkpt lat="47.13178" lon="-2.03121">
        <ele>56</ele>
        <time>2022-10-29T11:34:02Z</time>
      </trkpt>
      <trkpt lat="47.13172" lon="-2.03138">
        <ele>56</ele>
        <time>2022-10-29T11:34:04Z</time>
      </trkpt>
      <trkpt lat="47.13166" lon="-2.03155">
        <ele>55</ele>
        <time>2022-10-29T11:34:06Z</time>
      </trkpt>
      <trkpt lat="47.13161" lon="-2.03172">
        <ele>55</ele>
        <time>2022-10-29T11:34:08Z</time>
      </trkpt>
      <trkpt lat="47.13155" lon="-2.03189">
        <ele>55</ele>
        <time>2022-10-29T11:34:10Z</time>
      </trkpt>
      <trkpt lat="47.13149" lon="-2.03206">
        <ele>56</ele>
        <time>2022-10-29T11:34:12Z</time>
      </trkpt>
      <trkpt lat="47.13144" lon="-2.03224">
        <ele>55</ele>
        <time>2022-10-29T11:34:14Z</time>
      </trkpt>
      <trkpt lat="47.13137" lon="-2.03242">
        <ele>55</ele>
        <time>2022-10-29T11:34:16Z</time>
      </trkpt>
      <trkpt lat="47.13132" lon="-2.03259">
        <ele>54</ele>
        <time>2022-10-29T11:34:18Z</time>
      </trkpt>
      <trkpt lat="47.13126" lon="-2.03277">
        <ele>55</ele>
        <time>2022-10-29T11:34:20Z</time>
      </trkpt>
      <trkpt lat="47.13121" lon="-2.03294">
        <ele>55</ele>
        <time>2022-10-29T11:34:22Z</time>
      </trkpt>
      <trkpt lat="47.13116" lon="-2.03312">
        <ele>55</ele>
        <time>2022-10-29T11:34:24Z</time>
      </trkpt>
      <trkpt lat="47.1311" lon="-2.03331">
        <ele>55</ele>
        <time>2022-10-29T11:34:26Z</time>
      </trkpt>
      <trkpt lat="47.13105" lon="-2.03349">
        <ele>55</ele>
        <time>2022-10-29T11:34:28Z</time>
      </trkpt>
      <trkpt lat="47.131" lon="-2.03368">
        <ele>55</ele>
        <time>2022-10-29T11:34:30Z</time>
      </trkpt>
      <trkpt lat="47.13097" lon="-2.03387">
        <ele>54</ele>
        <time>2022-10-29T11:34:32Z</time>
      </trkpt>
      <trkpt lat="47.13093" lon="-2.03406">
        <ele>54</ele>
        <time>2022-10-29T11:34:34Z</time>
      </trkpt>
      <trkpt lat="47.1309" lon="-2.03425">
        <ele>53</ele>
        <time>2022-10-29T11:34:36Z</time>
      </trkpt>
      <trkpt lat="47.13087" lon="-2.03444">
        <ele>53</ele>
        <time>2022-10-29T11:34:38Z</time>
      </trkpt>
      <trkpt lat="47.13084" lon="-2.03463">
        <ele>53</ele>
        <time>2022-10-29T11:34:40Z</time>
      </trkpt>
      <trkpt lat="47.13082" lon="-2.03483">
        <ele>53</ele>
        <time>2022-10-29T11:34:42Z</time>
      </trkpt>
      <trkpt lat="47.13079" lon="-2.03502">
        <ele>52</ele>
        <time>2022-10-29T11:34:44Z</time>
      </trkpt>
      <trkpt lat="47.13077" lon="-2.0352">
        <ele>53</ele>
        <time>2022-10-29T11:34:46Z</time>
      </trkpt>
      <trkpt lat="47.13074" lon="-2.03539">
        <ele>53</ele>
        <time>2022-10-29T11:34:48Z</time>
      </trkpt>
      <trkpt lat="47.13072" lon="-2.03559">
        <ele>52</ele>
        <time>2022-10-29T11:34:50Z</time>
      </trkpt>
      <trkpt lat="47.13067" lon="-2.03579">
        <ele>52</ele>
        <time>2022-10-29T11:34:52Z</time>
      </trkpt>
      <trkpt lat="47.13061" lon="-2.03597">
        <ele>52</ele>
        <time>2022-10-29T11:34:54Z</time>
      </trkpt>
      <trkpt lat="47.13053" lon="-2.03616">
        <ele>52</ele>
        <time>2022-10-29T11:34:56Z</time>
      </trkpt>
      <trkpt lat="47.13044" lon="-2.03633">
        <ele>51</ele>
        <time>2022-10-29T11:34:58Z</time>
      </trkpt>
      <trkpt lat="47.13036" lon="-2.0365">
        <ele>51</ele>
        <time>2022-10-29T11:35:00Z</time>
      </trkpt>
      <trkpt lat="47.13031" lon="-2.03669">
        <ele>51</ele>
        <time>2022-10-29T11:35:02Z</time>
      </trkpt>
      <trkpt lat="47.13029" lon="-2.03689">
        <ele>51</ele>
        <time>2022-10-29T11:35:04Z</time>
      </trkpt>
      <trkpt lat="47.13031" lon="-2.03708">
        <ele>51</ele>
        <time>2022-10-29T11:35:06Z</time>
      </trkpt>
      <trkpt lat="47.13035" lon="-2.03726">
        <ele>51</ele>
        <time>2022-10-29T11:35:08Z</time>
      </trkpt>
      <trkpt lat="47.1304" lon="-2.03743">
        <ele>51</ele>
        <time>2022-10-29T11:35:10Z</time>
      </trkpt>
      <trkpt lat="47.13044" lon="-2.0376">
        <ele>51</ele>
        <time>2022-10-29T11:35:12Z</time>
      </trkpt>
      <trkpt lat="47.13049" lon="-2.03778">
        <ele>50</ele>
        <time>2022-10-29T11:35:14Z</time>
      </trkpt>
      <trkpt lat="47.13054" lon="-2.03795">
        <ele>51</ele>
        <time>2022-10-29T11:35:16Z</time>
      </trkpt>
      <trkpt lat="47.13058" lon="-2.03814">
        <ele>51</ele>
        <time>2022-10-29T11:35:18Z</time>
      </trkpt>
      <trkpt lat="47.13064" lon="-2.03832">
        <ele>52</ele>
        <time>2022-10-29T11:35:20Z</time>
      </trkpt>
      <trkpt lat="47.13068" lon="-2.0385">
        <ele>52</ele>
        <time>2022-10-29T11:35:22Z</time>
      </trkpt>
      <trkpt lat="47.13072" lon="-2.03869">
        <ele>52</ele>
        <time>2022-10-29T11:35:24Z</time>
      </trkpt>
      <trkpt lat="47.13075" lon="-2.03889">
        <ele>52</ele>
        <time>2022-10-29T11:35:26Z</time>
      </trkpt>
      <trkpt lat="47.13077" lon="-2.03909">
        <ele>52</ele>
        <time>2022-10-29T11:35:28Z</time>
      </trkpt>
      <trkpt lat="47.13078" lon="-2.0393">
        <ele>52</ele>
        <time>2022-10-29T11:35:30Z</time>
      </trkpt>
      <trkpt lat="47.1308" lon="-2.0395">
        <ele>52</ele>
        <time>2022-10-29T11:35:32Z</time>
      </trkpt>
      <trkpt lat="47.13081" lon="-2.0397">
        <ele>52</ele>
        <time>2022-10-29T11:35:34Z</time>
      </trkpt>
      <trkpt lat="47.13082" lon="-2.0399">
        <ele>52</ele>
        <time>2022-10-29T11:35:36Z</time>
      </trkpt>
      <trkpt lat="47.13084" lon="-2.04008">
        <ele>52</ele>
        <time>2022-10-29T11:35:38Z</time>
      </trkpt>
      <trkpt lat="47.13085" lon="-2.04028">
        <ele>52</ele>
        <time>2022-10-29T11:35:40Z</time>
      </trkpt>
      <trkpt lat="47.13087" lon="-2.04046">
        <ele>51</ele>
        <time>2022-10-29T11:35:42Z</time>
      </trkpt>
      <trkpt lat="47.13088" lon="-2.04065">
        <ele>51</ele>
        <time>2022-10-29T11:35:44Z</time>
      </trkpt>
      <trkpt lat="47.13089" lon="-2.04084">
        <ele>51</ele>
        <time>2022-10-29T11:35:46Z</time>
      </trkpt>
      <trkpt lat="47.1309" lon="-2.04103">
        <ele>51</ele>
        <time>2022-10-29T11:35:48Z</time>
      </trkpt>
      <trkpt lat="47.13092" lon="-2.04121">
        <ele>51</ele>
        <time>2022-10-29T11:35:50Z</time>
      </trkpt>
      <trkpt lat="47.13094" lon="-2.0414">
        <ele>52</ele>
        <time>2022-10-29T11:35:52Z</time>
      </trkpt>
      <trkpt lat="47.13095" lon="-2.0416">
        <ele>52</ele>
        <time>2022-10-29T11:35:54Z</time>
      </trkpt>
      <trkpt lat="47.13097" lon="-2.0418">
        <ele>51</ele>
        <time>2022-10-29T11:35:56Z</time>
      </trkpt>
      <trkpt lat="47.13098" lon="-2.04199">
        <ele>51</ele>
        <time>2022-10-29T11:35:58Z</time>
      </trkpt>
      <trkpt lat="47.13099" lon="-2.04218">
        <ele>51</ele>
        <time>2022-10-29T11:36:00Z</time>
      </trkpt>
      <trkpt lat="47.13101" lon="-2.04237">
        <ele>52</ele>
        <time>2022-10-29T11:36:02Z</time>
      </trkpt>
      <trkpt lat="47.13102" lon="-2.04254">
        <ele>52</ele>
        <time>2022-10-29T11:36:04Z</time>
      </trkpt>
      <trkpt lat="47.13104" lon="-2.04272">
        <ele>52</ele>
        <time>2022-10-29T11:36:06Z</time>
      </trkpt>
      <trkpt lat="47.13106" lon="-2.04291">
        <ele>53</ele>
        <time>2022-10-29T11:36:08Z</time>
      </trkpt>
      <trkpt lat="47.13108" lon="-2.04309">
        <ele>53</ele>
        <time>2022-10-29T11:36:10Z</time>
      </trkpt>
      <trkpt lat="47.13108" lon="-2.04328">
        <ele>53</ele>
        <time>2022-10-29T11:36:12Z</time>
      </trkpt>
      <trkpt lat="47.13108" lon="-2.04348">
        <ele>53</ele>
        <time>2022-10-29T11:36:14Z</time>
      </trkpt>
      <trkpt lat="47.13106" lon="-2.04367">
        <ele>53</ele>
        <time>2022-10-29T11:36:16Z</time>
      </trkpt>
      <trkpt lat="47.13102" lon="-2.04385">
        <ele>53</ele>
        <time>2022-10-29T11:36:18Z</time>
      </trkpt>
      <trkpt lat="47.13096" lon="-2.044">
        <ele>53</ele>
        <time>2022-10-29T11:36:20Z</time>
      </trkpt>
      <trkpt lat="47.13089" lon="-2.04414">
        <ele>53</ele>
        <time>2022-10-29T11:36:22Z</time>
      </trkpt>
      <trkpt lat="47.13081" lon="-2.04427">
        <ele>54</ele>
        <time>2022-10-29T11:36:24Z</time>
      </trkpt>
      <trkpt lat="47.13074" lon="-2.0444">
        <ele>54</ele>
        <time>2022-10-29T11:36:26Z</time>
      </trkpt>
      <trkpt lat="47.13066" lon="-2.04454">
        <ele>55</ele>
        <time>2022-10-29T11:36:28Z</time>
      </trkpt>
      <trkpt lat="47.13058" lon="-2.04467">
        <ele>55</ele>
        <time>2022-10-29T11:36:30Z</time>
      </trkpt>
      <trkpt lat="47.13049" lon="-2.04482">
        <ele>56</ele>
        <time>2022-10-29T11:36:32Z</time>
      </trkpt>
      <trkpt lat="47.1304" lon="-2.04497">
        <ele>55</ele>
        <time>2022-10-29T11:36:34Z</time>
      </trkpt>
      <trkpt lat="47.13031" lon="-2.0451">
        <ele>55</ele>
        <time>2022-10-29T11:36:36Z</time>
      </trkpt>
      <trkpt lat="47.13023" lon="-2.04524">
        <ele>55</ele>
        <time>2022-10-29T11:36:38Z</time>
      </trkpt>
      <trkpt lat="47.13014" lon="-2.04537">
        <ele>55</ele>
        <time>2022-10-29T11:36:40Z</time>
      </trkpt>
      <trkpt lat="47.13006" lon="-2.04551">
        <ele>54</ele>
        <time>2022-10-29T11:36:42Z</time>
      </trkpt>
      <trkpt lat="47.12996" lon="-2.04564">
        <ele>54</ele>
        <time>2022-10-29T11:36:44Z</time>
      </trkpt>
      <trkpt lat="47.12988" lon="-2.04578">
        <ele>54</ele>
        <time>2022-10-29T11:36:46Z</time>
      </trkpt>
      <trkpt lat="47.1298" lon="-2.04591">
        <ele>54</ele>
        <time>2022-10-29T11:36:48Z</time>
      </trkpt>
      <trkpt lat="47.12972" lon="-2.04604">
        <ele>53</ele>
        <time>2022-10-29T11:36:50Z</time>
      </trkpt>
      <trkpt lat="47.12964" lon="-2.04618">
        <ele>53</ele>
        <time>2022-10-29T11:36:52Z</time>
      </trkpt>
      <trkpt lat="47.12957" lon="-2.04632">
        <ele>52</ele>
        <time>2022-10-29T11:36:54Z</time>
      </trkpt>
      <trkpt lat="47.12953" lon="-2.04648">
        <ele>52</ele>
        <time>2022-10-29T11:36:56Z</time>
      </trkpt>
      <trkpt lat="47.1295" lon="-2.04665">
        <ele>52</ele>
        <time>2022-10-29T11:36:58Z</time>
      </trkpt>
      <trkpt lat="47.12949" lon="-2.04683">
        <ele>52</ele>
        <time>2022-10-29T11:37:00Z</time>
      </trkpt>
      <trkpt lat="47.12948" lon="-2.047">
        <ele>52</ele>
        <time>2022-10-29T11:37:02Z</time>
      </trkpt>
      <trkpt lat="47.12948" lon="-2.04716">
        <ele>52</ele>
        <time>2022-10-29T11:37:04Z</time>
      </trkpt>
      <trkpt lat="47.12947" lon="-2.04732">
        <ele>52</ele>
        <time>2022-10-29T11:37:06Z</time>
      </trkpt>
      <trkpt lat="47.12946" lon="-2.04746">
        <ele>52</ele>
        <time>2022-10-29T11:37:08Z</time>
      </trkpt>
      <trkpt lat="47.12946" lon="-2.0476">
        <ele>51</ele>
        <time>2022-10-29T11:37:10Z</time>
      </trkpt>
      <trkpt lat="47.12945" lon="-2.04773">
        <ele>51</ele>
        <time>2022-10-29T11:37:14Z</time>
      </trkpt>
      <trkpt lat="47.12938" lon="-2.04782">
        <ele>51</ele>
        <time>2022-10-29T11:37:27Z</time>
      </trkpt>
      <trkpt lat="47.12925" lon="-2.04781">
        <ele>51</ele>
        <time>2022-10-29T11:37:29Z</time>
      </trkpt>
      <trkpt lat="47.12911" lon="-2.04779">
        <ele>51</ele>
        <time>2022-10-29T11:37:31Z</time>
      </trkpt>
      <trkpt lat="47.12898" lon="-2.04779">
        <ele>51</ele>
        <time>2022-10-29T11:37:33Z</time>
      </trkpt>
      <trkpt lat="47.12884" lon="-2.04778">
        <ele>51</ele>
        <time>2022-10-29T11:37:35Z</time>
      </trkpt>
      <trkpt lat="47.12865" lon="-2.04777">
        <ele>51</ele>
        <time>2022-10-29T11:37:38Z</time>
      </trkpt>
      <trkpt lat="47.12852" lon="-2.04777">
        <ele>52</ele>
        <time>2022-10-29T11:37:40Z</time>
      </trkpt>
      <trkpt lat="47.12839" lon="-2.04776">
        <ele>51</ele>
        <time>2022-10-29T11:37:42Z</time>
      </trkpt>
      <trkpt lat="47.1282" lon="-2.04771">
        <ele>52</ele>
        <time>2022-10-29T11:37:45Z</time>
      </trkpt>
      <trkpt lat="47.12806" lon="-2.04765">
        <ele>51</ele>
        <time>2022-10-29T11:37:47Z</time>
      </trkpt>
      <trkpt lat="47.12792" lon="-2.04758">
        <ele>51</ele>
        <time>2022-10-29T11:37:49Z</time>
      </trkpt>
      <trkpt lat="47.1278" lon="-2.0475">
        <ele>51</ele>
        <time>2022-10-29T11:37:51Z</time>
      </trkpt>
      <trkpt lat="47.12769" lon="-2.04745">
        <ele>51</ele>
        <time>2022-10-29T11:37:53Z</time>
      </trkpt>
      <trkpt lat="47.12757" lon="-2.0474">
        <ele>51</ele>
        <time>2022-10-29T11:37:55Z</time>
      </trkpt>
      <trkpt lat="47.12745" lon="-2.04737">
        <ele>51</ele>
        <time>2022-10-29T11:37:57Z</time>
      </trkpt>
      <trkpt lat="47.12726" lon="-2.04733">
        <ele>52</ele>
        <time>2022-10-29T11:38:00Z</time>
      </trkpt>
      <trkpt lat="47.12713" lon="-2.0473">
        <ele>51</ele>
        <time>2022-10-29T11:38:02Z</time>
      </trkpt>
      <trkpt lat="47.12701" lon="-2.04729">
        <ele>51</ele>
        <time>2022-10-29T11:38:04Z</time>
      </trkpt>
      <trkpt lat="47.12689" lon="-2.04728">
        <ele>51</ele>
        <time>2022-10-29T11:38:06Z</time>
      </trkpt>
      <trkpt lat="47.12678" lon="-2.04729">
        <ele>51</ele>
        <time>2022-10-29T11:38:08Z</time>
      </trkpt>
      <trkpt lat="47.12667" lon="-2.04729">
        <ele>51</ele>
        <time>2022-10-29T11:38:10Z</time>
      </trkpt>
      <trkpt lat="47.12656" lon="-2.04731">
        <ele>51</ele>
        <time>2022-10-29T11:38:12Z</time>
      </trkpt>
      <trkpt lat="47.12645" lon="-2.04733">
        <ele>50</ele>
        <time>2022-10-29T11:38:14Z</time>
      </trkpt>
      <trkpt lat="47.12634" lon="-2.04736">
        <ele>50</ele>
        <time>2022-10-29T11:38:16Z</time>
      </trkpt>
      <trkpt lat="47.12624" lon="-2.04739">
        <ele>50</ele>
        <time>2022-10-29T11:38:18Z</time>
      </trkpt>
      <trkpt lat="47.12614" lon="-2.04742">
        <ele>50</ele>
        <time>2022-10-29T11:38:20Z</time>
      </trkpt>
      <trkpt lat="47.12604" lon="-2.04747">
        <ele>50</ele>
        <time>2022-10-29T11:38:22Z</time>
      </trkpt>
      <trkpt lat="47.12595" lon="-2.04754">
        <ele>49</ele>
        <time>2022-10-29T11:38:24Z</time>
      </trkpt>
      <trkpt lat="47.12587" lon="-2.04763">
        <ele>50</ele>
        <time>2022-10-29T11:38:26Z</time>
      </trkpt>
      <trkpt lat="47.1258" lon="-2.04775">
        <ele>50</ele>
        <time>2022-10-29T11:38:28Z</time>
      </trkpt>
      <trkpt lat="47.12574" lon="-2.04787">
        <ele>50</ele>
        <time>2022-10-29T11:38:30Z</time>
      </trkpt>
      <trkpt lat="47.12569" lon="-2.04801">
        <ele>50</ele>
        <time>2022-10-29T11:38:32Z</time>
      </trkpt>
      <trkpt lat="47.12564" lon="-2.04815">
        <ele>51</ele>
        <time>2022-10-29T11:38:34Z</time>
      </trkpt>
      <trkpt lat="47.12559" lon="-2.0483">
        <ele>51</ele>
        <time>2022-10-29T11:38:36Z</time>
      </trkpt>
      <trkpt lat="47.12554" lon="-2.04845">
        <ele>52</ele>
        <time>2022-10-29T11:38:38Z</time>
      </trkpt>
      <trkpt lat="47.12549" lon="-2.0486">
        <ele>52</ele>
        <time>2022-10-29T11:38:40Z</time>
      </trkpt>
      <trkpt lat="47.12545" lon="-2.04874">
        <ele>52</ele>
        <time>2022-10-29T11:38:42Z</time>
      </trkpt>
      <trkpt lat="47.1254" lon="-2.04888">
        <ele>52</ele>
        <time>2022-10-29T11:38:44Z</time>
      </trkpt>
      <trkpt lat="47.12535" lon="-2.04903">
        <ele>52</ele>
        <time>2022-10-29T11:38:46Z</time>
      </trkpt>
      <trkpt lat="47.1253" lon="-2.04917">
        <ele>52</ele>
        <time>2022-10-29T11:38:48Z</time>
      </trkpt>
      <trkpt lat="47.12525" lon="-2.0493">
        <ele>53</ele>
        <time>2022-10-29T11:38:50Z</time>
      </trkpt>
      <trkpt lat="47.12519" lon="-2.04943">
        <ele>53</ele>
        <time>2022-10-29T11:38:52Z</time>
      </trkpt>
      <trkpt lat="47.12513" lon="-2.04956">
        <ele>53</ele>
        <time>2022-10-29T11:38:54Z</time>
      </trkpt>
      <trkpt lat="47.12506" lon="-2.04968">
        <ele>54</ele>
        <time>2022-10-29T11:38:56Z</time>
      </trkpt>
      <trkpt lat="47.12499" lon="-2.04979">
        <ele>54</ele>
        <time>2022-10-29T11:38:58Z</time>
      </trkpt>
      <trkpt lat="47.1249" lon="-2.04989">
        <ele>55</ele>
        <time>2022-10-29T11:39:00Z</time>
      </trkpt>
      <trkpt lat="47.12482" lon="-2.04999">
        <ele>55</ele>
        <time>2022-10-29T11:39:02Z</time>
      </trkpt>
      <trkpt lat="47.12473" lon="-2.05009">
        <ele>55</ele>
        <time>2022-10-29T11:39:04Z</time>
      </trkpt>
      <trkpt lat="47.12464" lon="-2.05019">
        <ele>55</ele>
        <time>2022-10-29T11:39:06Z</time>
      </trkpt>
      <trkpt lat="47.12455" lon="-2.0503">
        <ele>55</ele>
        <time>2022-10-29T11:39:08Z</time>
      </trkpt>
      <trkpt lat="47.12446" lon="-2.05041">
        <ele>55</ele>
        <time>2022-10-29T11:39:10Z</time>
      </trkpt>
      <trkpt lat="47.12437" lon="-2.05051">
        <ele>55</ele>
        <time>2022-10-29T11:39:12Z</time>
      </trkpt>
      <trkpt lat="47.12428" lon="-2.05062">
        <ele>55</ele>
        <time>2022-10-29T11:39:14Z</time>
      </trkpt>
      <trkpt lat="47.12419" lon="-2.05073">
        <ele>55</ele>
        <time>2022-10-29T11:39:16Z</time>
      </trkpt>
      <trkpt lat="47.12411" lon="-2.05083">
        <ele>54</ele>
        <time>2022-10-29T11:39:18Z</time>
      </trkpt>
      <trkpt lat="47.12403" lon="-2.05093">
        <ele>54</ele>
        <time>2022-10-29T11:39:20Z</time>
      </trkpt>
      <trkpt lat="47.12395" lon="-2.05104">
        <ele>53</ele>
        <time>2022-10-29T11:39:22Z</time>
      </trkpt>
      <trkpt lat="47.12386" lon="-2.05115">
        <ele>54</ele>
        <time>2022-10-29T11:39:24Z</time>
      </trkpt>
      <trkpt lat="47.12379" lon="-2.05125">
        <ele>54</ele>
        <time>2022-10-29T11:39:26Z</time>
      </trkpt>
      <trkpt lat="47.12371" lon="-2.05135">
        <ele>55</ele>
        <time>2022-10-29T11:39:28Z</time>
      </trkpt>
      <trkpt lat="47.12363" lon="-2.05147">
        <ele>55</ele>
        <time>2022-10-29T11:39:30Z</time>
      </trkpt>
      <trkpt lat="47.12355" lon="-2.05158">
        <ele>55</ele>
        <time>2022-10-29T11:39:32Z</time>
      </trkpt>
      <trkpt lat="47.12347" lon="-2.0517">
        <ele>55</ele>
        <time>2022-10-29T11:39:34Z</time>
      </trkpt>
      <trkpt lat="47.12339" lon="-2.05183">
        <ele>55</ele>
        <time>2022-10-29T11:39:36Z</time>
      </trkpt>
      <trkpt lat="47.12331" lon="-2.05194">
        <ele>55</ele>
        <time>2022-10-29T11:39:38Z</time>
      </trkpt>
      <trkpt lat="47.12324" lon="-2.05206">
        <ele>55</ele>
        <time>2022-10-29T11:39:40Z</time>
      </trkpt>
      <trkpt lat="47.12318" lon="-2.0522">
        <ele>55</ele>
        <time>2022-10-29T11:39:42Z</time>
      </trkpt>
      <trkpt lat="47.12312" lon="-2.05233">
        <ele>55</ele>
        <time>2022-10-29T11:39:44Z</time>
      </trkpt>
      <trkpt lat="47.12309" lon="-2.05248">
        <ele>55</ele>
        <time>2022-10-29T11:39:46Z</time>
      </trkpt>
      <trkpt lat="47.12306" lon="-2.05264">
        <ele>55</ele>
        <time>2022-10-29T11:39:48Z</time>
      </trkpt>
      <trkpt lat="47.12303" lon="-2.05279">
        <ele>56</ele>
        <time>2022-10-29T11:39:50Z</time>
      </trkpt>
      <trkpt lat="47.123" lon="-2.05293">
        <ele>56</ele>
        <time>2022-10-29T11:39:52Z</time>
      </trkpt>
      <trkpt lat="47.12298" lon="-2.05307">
        <ele>56</ele>
        <time>2022-10-29T11:39:54Z</time>
      </trkpt>
      <trkpt lat="47.12296" lon="-2.05322">
        <ele>57</ele>
        <time>2022-10-29T11:39:56Z</time>
      </trkpt>
      <trkpt lat="47.12293" lon="-2.05337">
        <ele>57</ele>
        <time>2022-10-29T11:39:58Z</time>
      </trkpt>
      <trkpt lat="47.1229" lon="-2.05352">
        <ele>57</ele>
        <time>2022-10-29T11:40:00Z</time>
      </trkpt>
      <trkpt lat="47.12287" lon="-2.05367">
        <ele>57</ele>
        <time>2022-10-29T11:40:02Z</time>
      </trkpt>
      <trkpt lat="47.12284" lon="-2.05381">
        <ele>57</ele>
        <time>2022-10-29T11:40:04Z</time>
      </trkpt>
      <trkpt lat="47.12281" lon="-2.05395">
        <ele>57</ele>
        <time>2022-10-29T11:40:06Z</time>
      </trkpt>
      <trkpt lat="47.12277" lon="-2.05407">
        <ele>58</ele>
        <time>2022-10-29T11:40:08Z</time>
      </trkpt>
      <trkpt lat="47.1227" lon="-2.05419">
        <ele>58</ele>
        <time>2022-10-29T11:40:10Z</time>
      </trkpt>
      <trkpt lat="47.12263" lon="-2.05428">
        <ele>58</ele>
        <time>2022-10-29T11:40:12Z</time>
      </trkpt>
      <trkpt lat="47.12255" lon="-2.05438">
        <ele>58</ele>
        <time>2022-10-29T11:40:14Z</time>
      </trkpt>
      <trkpt lat="47.12248" lon="-2.05445">
        <ele>58</ele>
        <time>2022-10-29T11:40:16Z</time>
      </trkpt>
      <trkpt lat="47.12237" lon="-2.05447">
        <ele>58</ele>
        <time>2022-10-29T11:40:18Z</time>
      </trkpt>
      <trkpt lat="47.12227" lon="-2.05449">
        <ele>58</ele>
        <time>2022-10-29T11:40:20Z</time>
      </trkpt>
      <trkpt lat="47.12216" lon="-2.05451">
        <ele>58</ele>
        <time>2022-10-29T11:40:22Z</time>
      </trkpt>
      <trkpt lat="47.12204" lon="-2.05453">
        <ele>58</ele>
        <time>2022-10-29T11:40:24Z</time>
      </trkpt>
      <trkpt lat="47.12194" lon="-2.05456">
        <ele>58</ele>
        <time>2022-10-29T11:40:26Z</time>
      </trkpt>
      <trkpt lat="47.12184" lon="-2.05458">
        <ele>58</ele>
        <time>2022-10-29T11:40:28Z</time>
      </trkpt>
      <trkpt lat="47.12174" lon="-2.0546">
        <ele>58</ele>
        <time>2022-10-29T11:40:30Z</time>
      </trkpt>
      <trkpt lat="47.12165" lon="-2.05462">
        <ele>58</ele>
        <time>2022-10-29T11:40:32Z</time>
      </trkpt>
      <trkpt lat="47.12155" lon="-2.05464">
        <ele>58</ele>
        <time>2022-10-29T11:40:34Z</time>
      </trkpt>
      <trkpt lat="47.12145" lon="-2.05467">
        <ele>58</ele>
        <time>2022-10-29T11:40:36Z</time>
      </trkpt>
      <trkpt lat="47.12135" lon="-2.0547">
        <ele>58</ele>
        <time>2022-10-29T11:40:38Z</time>
      </trkpt>
      <trkpt lat="47.12125" lon="-2.05472">
        <ele>59</ele>
        <time>2022-10-29T11:40:40Z</time>
      </trkpt>
      <trkpt lat="47.12114" lon="-2.05475">
        <ele>59</ele>
        <time>2022-10-29T11:40:42Z</time>
      </trkpt>
      <trkpt lat="47.12103" lon="-2.05478">
        <ele>59</ele>
        <time>2022-10-29T11:40:44Z</time>
      </trkpt>
      <trkpt lat="47.12093" lon="-2.05483">
        <ele>59</ele>
        <time>2022-10-29T11:40:46Z</time>
      </trkpt>
      <trkpt lat="47.12084" lon="-2.0549">
        <ele>59</ele>
        <time>2022-10-29T11:40:48Z</time>
      </trkpt>
      <trkpt lat="47.12074" lon="-2.05498">
        <ele>59</ele>
        <time>2022-10-29T11:40:50Z</time>
      </trkpt>
      <trkpt lat="47.12064" lon="-2.05507">
        <ele>59</ele>
        <time>2022-10-29T11:40:52Z</time>
      </trkpt>
      <trkpt lat="47.12055" lon="-2.05516">
        <ele>58</ele>
        <time>2022-10-29T11:40:54Z</time>
      </trkpt>
      <trkpt lat="47.12045" lon="-2.05524">
        <ele>58</ele>
        <time>2022-10-29T11:40:56Z</time>
      </trkpt>
      <trkpt lat="47.12034" lon="-2.05534">
        <ele>58</ele>
        <time>2022-10-29T11:40:58Z</time>
      </trkpt>
      <trkpt lat="47.12024" lon="-2.05543">
        <ele>58</ele>
        <time>2022-10-29T11:41:00Z</time>
      </trkpt>
      <trkpt lat="47.12015" lon="-2.05552">
        <ele>58</ele>
        <time>2022-10-29T11:41:02Z</time>
      </trkpt>
      <trkpt lat="47.12006" lon="-2.05563">
        <ele>58</ele>
        <time>2022-10-29T11:41:04Z</time>
      </trkpt>
      <trkpt lat="47.11995" lon="-2.05573">
        <ele>58</ele>
        <time>2022-10-29T11:41:06Z</time>
      </trkpt>
      <trkpt lat="47.11986" lon="-2.05582">
        <ele>58</ele>
        <time>2022-10-29T11:41:08Z</time>
      </trkpt>
      <trkpt lat="47.11977" lon="-2.05591">
        <ele>58</ele>
        <time>2022-10-29T11:41:10Z</time>
      </trkpt>
      <trkpt lat="47.11968" lon="-2.056">
        <ele>58</ele>
        <time>2022-10-29T11:41:12Z</time>
      </trkpt>
      <trkpt lat="47.11958" lon="-2.05609">
        <ele>57</ele>
        <time>2022-10-29T11:41:14Z</time>
      </trkpt>
      <trkpt lat="47.11949" lon="-2.05618">
        <ele>58</ele>
        <time>2022-10-29T11:41:16Z</time>
      </trkpt>
      <trkpt lat="47.1194" lon="-2.05628">
        <ele>58</ele>
        <time>2022-10-29T11:41:18Z</time>
      </trkpt>
      <trkpt lat="47.1193" lon="-2.05637">
        <ele>59</ele>
        <time>2022-10-29T11:41:20Z</time>
      </trkpt>
      <trkpt lat="47.1192" lon="-2.05645">
        <ele>59</ele>
        <time>2022-10-29T11:41:22Z</time>
      </trkpt>
      <trkpt lat="47.11911" lon="-2.05653">
        <ele>58</ele>
        <time>2022-10-29T11:41:24Z</time>
      </trkpt>
      <trkpt lat="47.11901" lon="-2.05662">
        <ele>58</ele>
        <time>2022-10-29T11:41:26Z</time>
      </trkpt>
      <trkpt lat="47.11892" lon="-2.0567">
        <ele>58</ele>
        <time>2022-10-29T11:41:28Z</time>
      </trkpt>
      <trkpt lat="47.11883" lon="-2.05679">
        <ele>59</ele>
        <time>2022-10-29T11:41:30Z</time>
      </trkpt>
      <trkpt lat="47.11875" lon="-2.05687">
        <ele>59</ele>
        <time>2022-10-29T11:41:32Z</time>
      </trkpt>
      <trkpt lat="47.11866" lon="-2.05697">
        <ele>59</ele>
        <time>2022-10-29T11:41:34Z</time>
      </trkpt>
      <trkpt lat="47.11856" lon="-2.05705">
        <ele>60</ele>
        <time>2022-10-29T11:41:36Z</time>
      </trkpt>
      <trkpt lat="47.11846" lon="-2.05714">
        <ele>60</ele>
        <time>2022-10-29T11:41:38Z</time>
      </trkpt>
      <trkpt lat="47.11838" lon="-2.05723">
        <ele>60</ele>
        <time>2022-10-29T11:41:40Z</time>
      </trkpt>
      <trkpt lat="47.11829" lon="-2.05732">
        <ele>61</ele>
        <time>2022-10-29T11:41:42Z</time>
      </trkpt>
      <trkpt lat="47.11821" lon="-2.05741">
        <ele>61</ele>
        <time>2022-10-29T11:41:44Z</time>
      </trkpt>
      <trkpt lat="47.11813" lon="-2.05751">
        <ele>61</ele>
        <time>2022-10-29T11:41:46Z</time>
      </trkpt>
      <trkpt lat="47.11804" lon="-2.0576">
        <ele>62</ele>
        <time>2022-10-29T11:41:48Z</time>
      </trkpt>
      <trkpt lat="47.11796" lon="-2.05769">
        <ele>62</ele>
        <time>2022-10-29T11:41:50Z</time>
      </trkpt>
      <trkpt lat="47.11786" lon="-2.05777">
        <ele>62</ele>
        <time>2022-10-29T11:41:52Z</time>
      </trkpt>
      <trkpt lat="47.11776" lon="-2.05786">
        <ele>62</ele>
        <time>2022-10-29T11:41:54Z</time>
      </trkpt>
      <trkpt lat="47.11767" lon="-2.05793">
        <ele>62</ele>
        <time>2022-10-29T11:41:56Z</time>
      </trkpt>
      <trkpt lat="47.11758" lon="-2.05799">
        <ele>62</ele>
        <time>2022-10-29T11:41:58Z</time>
      </trkpt>
      <trkpt lat="47.11749" lon="-2.05807">
        <ele>63</ele>
        <time>2022-10-29T11:42:00Z</time>
      </trkpt>
      <trkpt lat="47.1174" lon="-2.05814">
        <ele>63</ele>
        <time>2022-10-29T11:42:02Z</time>
      </trkpt>
      <trkpt lat="47.11732" lon="-2.05821">
        <ele>63</ele>
        <time>2022-10-29T11:42:04Z</time>
      </trkpt>
      <trkpt lat="47.11723" lon="-2.05828">
        <ele>63</ele>
        <time>2022-10-29T11:42:06Z</time>
      </trkpt>
      <trkpt lat="47.11715" lon="-2.05834">
        <ele>63</ele>
        <time>2022-10-29T11:42:08Z</time>
      </trkpt>
      <trkpt lat="47.11704" lon="-2.05845">
        <ele>64</ele>
        <time>2022-10-29T11:42:11Z</time>
      </trkpt>
      <trkpt lat="47.11695" lon="-2.05851">
        <ele>64</ele>
        <time>2022-10-29T11:42:13Z</time>
      </trkpt>
      <trkpt lat="47.11687" lon="-2.05858">
        <ele>64</ele>
        <time>2022-10-29T11:42:15Z</time>
      </trkpt>
      <trkpt lat="47.11678" lon="-2.05865">
        <ele>65</ele>
        <time>2022-10-29T11:42:17Z</time>
      </trkpt>
      <trkpt lat="47.1167" lon="-2.05872">
        <ele>65</ele>
        <time>2022-10-29T11:42:19Z</time>
      </trkpt>
      <trkpt lat="47.11659" lon="-2.05882">
        <ele>66</ele>
        <time>2022-10-29T11:42:22Z</time>
      </trkpt>
      <trkpt lat="47.11647" lon="-2.05892">
        <ele>66</ele>
        <time>2022-10-29T11:42:25Z</time>
      </trkpt>
      <trkpt lat="47.11639" lon="-2.05901">
        <ele>66</ele>
        <time>2022-10-29T11:42:27Z</time>
      </trkpt>
      <trkpt lat="47.1163" lon="-2.05909">
        <ele>67</ele>
        <time>2022-10-29T11:42:29Z</time>
      </trkpt>
      <trkpt lat="47.11623" lon="-2.05916">
        <ele>67</ele>
        <time>2022-10-29T11:42:31Z</time>
      </trkpt>
      <trkpt lat="47.11612" lon="-2.05927">
        <ele>67</ele>
        <time>2022-10-29T11:42:34Z</time>
      </trkpt>
      <trkpt lat="47.116" lon="-2.05936">
        <ele>67</ele>
        <time>2022-10-29T11:42:37Z</time>
      </trkpt>
      <trkpt lat="47.11593" lon="-2.05944">
        <ele>67</ele>
        <time>2022-10-29T11:42:39Z</time>
      </trkpt>
      <trkpt lat="47.11584" lon="-2.05951">
        <ele>67</ele>
        <time>2022-10-29T11:42:41Z</time>
      </trkpt>
      <trkpt lat="47.11576" lon="-2.05957">
        <ele>68</ele>
        <time>2022-10-29T11:42:43Z</time>
      </trkpt>
      <trkpt lat="47.11568" lon="-2.05963">
        <ele>68</ele>
        <time>2022-10-29T11:42:45Z</time>
      </trkpt>
      <trkpt lat="47.1156" lon="-2.05968">
        <ele>68</ele>
        <time>2022-10-29T11:42:47Z</time>
      </trkpt>
      <trkpt lat="47.11551" lon="-2.05974">
        <ele>68</ele>
        <time>2022-10-29T11:42:49Z</time>
      </trkpt>
      <trkpt lat="47.11539" lon="-2.05983">
        <ele>68</ele>
        <time>2022-10-29T11:42:52Z</time>
      </trkpt>
      <trkpt lat="47.11532" lon="-2.05989">
        <ele>68</ele>
        <time>2022-10-29T11:42:54Z</time>
      </trkpt>
      <trkpt lat="47.1152" lon="-2.05999">
        <ele>68</ele>
        <time>2022-10-29T11:42:57Z</time>
      </trkpt>
      <trkpt lat="47.11511" lon="-2.06005">
        <ele>68</ele>
        <time>2022-10-29T11:42:59Z</time>
      </trkpt>
      <trkpt lat="47.11502" lon="-2.06011">
        <ele>68</ele>
        <time>2022-10-29T11:43:01Z</time>
      </trkpt>
      <trkpt lat="47.11493" lon="-2.06017">
        <ele>68</ele>
        <time>2022-10-29T11:43:03Z</time>
      </trkpt>
      <trkpt lat="47.11485" lon="-2.06023">
        <ele>68</ele>
        <time>2022-10-29T11:43:05Z</time>
      </trkpt>
      <trkpt lat="47.11476" lon="-2.06029">
        <ele>68</ele>
        <time>2022-10-29T11:43:07Z</time>
      </trkpt>
      <trkpt lat="47.11467" lon="-2.06034">
        <ele>67</ele>
        <time>2022-10-29T11:43:09Z</time>
      </trkpt>
      <trkpt lat="47.11459" lon="-2.06041">
        <ele>67</ele>
        <time>2022-10-29T11:43:11Z</time>
      </trkpt>
      <trkpt lat="47.1145" lon="-2.06047">
        <ele>67</ele>
        <time>2022-10-29T11:43:13Z</time>
      </trkpt>
      <trkpt lat="47.11441" lon="-2.06053">
        <ele>67</ele>
        <time>2022-10-29T11:43:15Z</time>
      </trkpt>
      <trkpt lat="47.11432" lon="-2.06062">
        <ele>67</ele>
        <time>2022-10-29T11:43:17Z</time>
      </trkpt>
      <trkpt lat="47.11426" lon="-2.06073">
        <ele>67</ele>
        <time>2022-10-29T11:43:19Z</time>
      </trkpt>
      <trkpt lat="47.1142" lon="-2.06084">
        <ele>67</ele>
        <time>2022-10-29T11:43:21Z</time>
      </trkpt>
      <trkpt lat="47.11412" lon="-2.0609">
        <ele>67</ele>
        <time>2022-10-29T11:43:23Z</time>
      </trkpt>
      <trkpt lat="47.11401" lon="-2.0609">
        <ele>67</ele>
        <time>2022-10-29T11:43:25Z</time>
      </trkpt>
      <trkpt lat="47.11391" lon="-2.0609">
        <ele>67</ele>
        <time>2022-10-29T11:43:27Z</time>
      </trkpt>
      <trkpt lat="47.11382" lon="-2.06096">
        <ele>68</ele>
        <time>2022-10-29T11:43:29Z</time>
      </trkpt>
      <trkpt lat="47.11373" lon="-2.06104">
        <ele>68</ele>
        <time>2022-10-29T11:43:31Z</time>
      </trkpt>
      <trkpt lat="47.11365" lon="-2.06114">
        <ele>68</ele>
        <time>2022-10-29T11:43:33Z</time>
      </trkpt>
      <trkpt lat="47.11357" lon="-2.06123">
        <ele>68</ele>
        <time>2022-10-29T11:43:35Z</time>
      </trkpt>
      <trkpt lat="47.11349" lon="-2.06134">
        <ele>68</ele>
        <time>2022-10-29T11:43:37Z</time>
      </trkpt>
      <trkpt lat="47.11342" lon="-2.06146">
        <ele>68</ele>
        <time>2022-10-29T11:43:39Z</time>
      </trkpt>
      <trkpt lat="47.11334" lon="-2.06157">
        <ele>67</ele>
        <time>2022-10-29T11:43:41Z</time>
      </trkpt>
      <trkpt lat="47.11327" lon="-2.06169">
        <ele>67</ele>
        <time>2022-10-29T11:43:43Z</time>
      </trkpt>
      <trkpt lat="47.11319" lon="-2.06181">
        <ele>67</ele>
        <time>2022-10-29T11:43:45Z</time>
      </trkpt>
      <trkpt lat="47.11311" lon="-2.06193">
        <ele>67</ele>
        <time>2022-10-29T11:43:47Z</time>
      </trkpt>
      <trkpt lat="47.11304" lon="-2.06205">
        <ele>66</ele>
        <time>2022-10-29T11:43:49Z</time>
      </trkpt>
      <trkpt lat="47.11297" lon="-2.06216">
        <ele>66</ele>
        <time>2022-10-29T11:43:51Z</time>
      </trkpt>
      <trkpt lat="47.1129" lon="-2.06228">
        <ele>66</ele>
        <time>2022-10-29T11:43:53Z</time>
      </trkpt>
      <trkpt lat="47.11284" lon="-2.06243">
        <ele>66</ele>
        <time>2022-10-29T11:43:55Z</time>
      </trkpt>
      <trkpt lat="47.11281" lon="-2.0626">
        <ele>66</ele>
        <time>2022-10-29T11:43:57Z</time>
      </trkpt>
      <trkpt lat="47.11281" lon="-2.06277">
        <ele>67</ele>
        <time>2022-10-29T11:43:59Z</time>
      </trkpt>
      <trkpt lat="47.11282" lon="-2.06295">
        <ele>67</ele>
        <time>2022-10-29T11:44:01Z</time>
      </trkpt>
      <trkpt lat="47.11282" lon="-2.06313">
        <ele>67</ele>
        <time>2022-10-29T11:44:03Z</time>
      </trkpt>
      <trkpt lat="47.11283" lon="-2.0633">
        <ele>67</ele>
        <time>2022-10-29T11:44:05Z</time>
      </trkpt>
      <trkpt lat="47.11284" lon="-2.06345">
        <ele>67</ele>
        <time>2022-10-29T11:44:07Z</time>
      </trkpt>
      <trkpt lat="47.11285" lon="-2.06361">
        <ele>67</ele>
        <time>2022-10-29T11:44:09Z</time>
      </trkpt>
      <trkpt lat="47.11285" lon="-2.06377">
        <ele>67</ele>
        <time>2022-10-29T11:44:11Z</time>
      </trkpt>
      <trkpt lat="47.11286" lon="-2.06393">
        <ele>67</ele>
        <time>2022-10-29T11:44:13Z</time>
      </trkpt>
      <trkpt lat="47.11288" lon="-2.06408">
        <ele>67</ele>
        <time>2022-10-29T11:44:15Z</time>
      </trkpt>
      <trkpt lat="47.11291" lon="-2.06423">
        <ele>67</ele>
        <time>2022-10-29T11:44:17Z</time>
      </trkpt>
      <trkpt lat="47.11296" lon="-2.06437">
        <ele>67</ele>
        <time>2022-10-29T11:44:19Z</time>
      </trkpt>
      <trkpt lat="47.113" lon="-2.06451">
        <ele>67</ele>
        <time>2022-10-29T11:44:21Z</time>
      </trkpt>
      <trkpt lat="47.11299" lon="-2.06466">
        <ele>68</ele>
        <time>2022-10-29T11:44:23Z</time>
      </trkpt>
      <trkpt lat="47.11296" lon="-2.06479">
        <ele>69</ele>
        <time>2022-10-29T11:44:25Z</time>
      </trkpt>
      <trkpt lat="47.11297" lon="-2.06494">
        <ele>70</ele>
        <time>2022-10-29T11:44:28Z</time>
      </trkpt>
      <trkpt lat="47.11301" lon="-2.0651">
        <ele>71</ele>
        <time>2022-10-29T11:44:31Z</time>
      </trkpt>
      <trkpt lat="47.11299" lon="-2.06527">
        <ele>71</ele>
        <time>2022-10-29T11:44:34Z</time>
      </trkpt>
      <trkpt lat="47.11295" lon="-2.06544">
        <ele>71</ele>
        <time>2022-10-29T11:44:37Z</time>
      </trkpt>
      <trkpt lat="47.11287" lon="-2.06557">
        <ele>72</ele>
        <time>2022-10-29T11:44:40Z</time>
      </trkpt>
      <trkpt lat="47.11281" lon="-2.06568">
        <ele>71</ele>
        <time>2022-10-29T11:44:45Z</time>
      </trkpt>
      <trkpt lat="47.1128" lon="-2.06568">
        <ele>71</ele>
        <time>2022-10-29T11:46:46Z</time>
      </trkpt>
      <trkpt lat="47.11269" lon="-2.06569">
        <ele>68</ele>
        <time>2022-10-29T11:48:02Z</time>
      </trkpt>
      <trkpt lat="47.11258" lon="-2.06575">
        <ele>69</ele>
        <time>2022-10-29T11:48:08Z</time>
      </trkpt>
      <trkpt lat="47.11249" lon="-2.06575">
        <ele>69</ele>
        <time>2022-10-29T11:48:10Z</time>
      </trkpt>
      <trkpt lat="47.11242" lon="-2.06566">
        <ele>69</ele>
        <time>2022-10-29T11:48:12Z</time>
      </trkpt>
      <trkpt lat="47.11232" lon="-2.06557">
        <ele>69</ele>
        <time>2022-10-29T11:48:15Z</time>
      </trkpt>
      <trkpt lat="47.11222" lon="-2.0656">
        <ele>69</ele>
        <time>2022-10-29T11:48:19Z</time>
      </trkpt>
      <trkpt lat="47.11212" lon="-2.06566">
        <ele>70</ele>
        <time>2022-10-29T11:48:23Z</time>
      </trkpt>
      <trkpt lat="47.11221" lon="-2.0656">
        <ele>70</ele>
        <time>2022-10-29T11:48:33Z</time>
      </trkpt>
      <trkpt lat="47.1123" lon="-2.06557">
        <ele>70</ele>
        <time>2022-10-29T11:48:37Z</time>
      </trkpt>
      <trkpt lat="47.11225" lon="-2.0654">
        <ele>71</ele>
        <time>2022-10-29T11:48:42Z</time>
      </trkpt>
      <trkpt lat="47.11222" lon="-2.06527">
        <ele>71</ele>
        <time>2022-10-29T11:48:44Z</time>
      </trkpt>
      <trkpt lat="47.11222" lon="-2.06514">
        <ele>72</ele>
        <time>2022-10-29T11:48:46Z</time>
      </trkpt>
      <trkpt lat="47.11222" lon="-2.06501">
        <ele>72</ele>
        <time>2022-10-29T11:48:48Z</time>
      </trkpt>
      <trkpt lat="47.11218" lon="-2.06487">
        <ele>73</ele>
        <time>2022-10-29T11:48:50Z</time>
      </trkpt>
      <trkpt lat="47.11213" lon="-2.06474">
        <ele>73</ele>
        <time>2022-10-29T11:48:52Z</time>
      </trkpt>
      <trkpt lat="47.11214" lon="-2.06459">
        <ele>73</ele>
        <time>2022-10-29T11:48:54Z</time>
      </trkpt>
      <trkpt lat="47.11219" lon="-2.06443">
        <ele>73</ele>
        <time>2022-10-29T11:48:56Z</time>
      </trkpt>
      <trkpt lat="47.11223" lon="-2.06426">
        <ele>73</ele>
        <time>2022-10-29T11:48:58Z</time>
      </trkpt>
      <trkpt lat="47.11228" lon="-2.06409">
        <ele>73</ele>
        <time>2022-10-29T11:49:00Z</time>
      </trkpt>
      <trkpt lat="47.11233" lon="-2.0639">
        <ele>73</ele>
        <time>2022-10-29T11:49:02Z</time>
      </trkpt>
      <trkpt lat="47.11236" lon="-2.0637">
        <ele>72</ele>
        <time>2022-10-29T11:49:04Z</time>
      </trkpt>
      <trkpt lat="47.11237" lon="-2.06349">
        <ele>72</ele>
        <time>2022-10-29T11:49:06Z</time>
      </trkpt>
      <trkpt lat="47.11235" lon="-2.06328">
        <ele>71</ele>
        <time>2022-10-29T11:49:08Z</time>
      </trkpt>
      <trkpt lat="47.11232" lon="-2.06308">
        <ele>71</ele>
        <time>2022-10-29T11:49:10Z</time>
      </trkpt>
      <trkpt lat="47.11226" lon="-2.06289">
        <ele>70</ele>
        <time>2022-10-29T11:49:12Z</time>
      </trkpt>
      <trkpt lat="47.11219" lon="-2.06272">
        <ele>70</ele>
        <time>2022-10-29T11:49:14Z</time>
      </trkpt>
      <trkpt lat="47.11209" lon="-2.06258">
        <ele>69</ele>
        <time>2022-10-29T11:49:16Z</time>
      </trkpt>
      <trkpt lat="47.11197" lon="-2.06249">
        <ele>69</ele>
        <time>2022-10-29T11:49:18Z</time>
      </trkpt>
      <trkpt lat="47.11185" lon="-2.06242">
        <ele>69</ele>
        <time>2022-10-29T11:49:20Z</time>
      </trkpt>
      <trkpt lat="47.11172" lon="-2.06238">
        <ele>69</ele>
        <time>2022-10-29T11:49:22Z</time>
      </trkpt>
      <trkpt lat="47.11159" lon="-2.06234">
        <ele>69</ele>
        <time>2022-10-29T11:49:24Z</time>
      </trkpt>
      <trkpt lat="47.11146" lon="-2.0623">
        <ele>69</ele>
        <time>2022-10-29T11:49:26Z</time>
      </trkpt>
      <trkpt lat="47.11133" lon="-2.06227">
        <ele>69</ele>
        <time>2022-10-29T11:49:28Z</time>
      </trkpt>
      <trkpt lat="47.1112" lon="-2.06223">
        <ele>69</ele>
        <time>2022-10-29T11:49:30Z</time>
      </trkpt>
      <trkpt lat="47.11108" lon="-2.06219">
        <ele>68</ele>
        <time>2022-10-29T11:49:32Z</time>
      </trkpt>
      <trkpt lat="47.11095" lon="-2.06216">
        <ele>68</ele>
        <time>2022-10-29T11:49:34Z</time>
      </trkpt>
      <trkpt lat="47.11082" lon="-2.06214">
        <ele>68</ele>
        <time>2022-10-29T11:49:36Z</time>
      </trkpt>
      <trkpt lat="47.11071" lon="-2.06214">
        <ele>68</ele>
        <time>2022-10-29T11:49:38Z</time>
      </trkpt>
      <trkpt lat="47.1106" lon="-2.06217">
        <ele>68</ele>
        <time>2022-10-29T11:49:40Z</time>
      </trkpt>
      <trkpt lat="47.1105" lon="-2.06212">
        <ele>68</ele>
        <time>2022-10-29T11:49:42Z</time>
      </trkpt>
      <trkpt lat="47.11042" lon="-2.06201">
        <ele>67</ele>
        <time>2022-10-29T11:49:44Z</time>
      </trkpt>
      <trkpt lat="47.11031" lon="-2.06194">
        <ele>68</ele>
        <time>2022-10-29T11:49:46Z</time>
      </trkpt>
      <trkpt lat="47.11019" lon="-2.0619">
        <ele>68</ele>
        <time>2022-10-29T11:49:48Z</time>
      </trkpt>
      <trkpt lat="47.11007" lon="-2.06185">
        <ele>68</ele>
        <time>2022-10-29T11:49:50Z</time>
      </trkpt>
      <trkpt lat="47.10995" lon="-2.06178">
        <ele>67</ele>
        <time>2022-10-29T11:49:52Z</time>
      </trkpt>
      <trkpt lat="47.10986" lon="-2.06167">
        <ele>67</ele>
        <time>2022-10-29T11:49:54Z</time>
      </trkpt>
      <trkpt lat="47.10979" lon="-2.06154">
        <ele>67</ele>
        <time>2022-10-29T11:49:56Z</time>
      </trkpt>
      <trkpt lat="47.10972" lon="-2.0614">
        <ele>68</ele>
        <time>2022-10-29T11:49:58Z</time>
      </trkpt>
      <trkpt lat="47.10964" lon="-2.06127">
        <ele>69</ele>
        <time>2022-10-29T11:50:00Z</time>
      </trkpt>
      <trkpt lat="47.10954" lon="-2.06118">
        <ele>69</ele>
        <time>2022-10-29T11:50:02Z</time>
      </trkpt>
      <trkpt lat="47.10944" lon="-2.06108">
        <ele>69</ele>
        <time>2022-10-29T11:50:04Z</time>
      </trkpt>
      <trkpt lat="47.10934" lon="-2.06098">
        <ele>69</ele>
        <time>2022-10-29T11:50:06Z</time>
      </trkpt>
      <trkpt lat="47.10928" lon="-2.06083">
        <ele>69</ele>
        <time>2022-10-29T11:50:08Z</time>
      </trkpt>
      <trkpt lat="47.10924" lon="-2.06065">
        <ele>70</ele>
        <time>2022-10-29T11:50:10Z</time>
      </trkpt>
      <trkpt lat="47.10923" lon="-2.06048">
        <ele>70</ele>
        <time>2022-10-29T11:50:12Z</time>
      </trkpt>
      <trkpt lat="47.10922" lon="-2.06028">
        <ele>70</ele>
        <time>2022-10-29T11:50:14Z</time>
      </trkpt>
      <trkpt lat="47.10921" lon="-2.06009">
        <ele>70</ele>
        <time>2022-10-29T11:50:16Z</time>
      </trkpt>
      <trkpt lat="47.10921" lon="-2.05989">
        <ele>70</ele>
        <time>2022-10-29T11:50:18Z</time>
      </trkpt>
      <trkpt lat="47.1092" lon="-2.0597">
        <ele>70</ele>
        <time>2022-10-29T11:50:20Z</time>
      </trkpt>
      <trkpt lat="47.10918" lon="-2.05951">
        <ele>70</ele>
        <time>2022-10-29T11:50:22Z</time>
      </trkpt>
      <trkpt lat="47.10917" lon="-2.05932">
        <ele>70</ele>
        <time>2022-10-29T11:50:24Z</time>
      </trkpt>
      <trkpt lat="47.10917" lon="-2.05913">
        <ele>70</ele>
        <time>2022-10-29T11:50:26Z</time>
      </trkpt>
      <trkpt lat="47.10916" lon="-2.05894">
        <ele>70</ele>
        <time>2022-10-29T11:50:28Z</time>
      </trkpt>
      <trkpt lat="47.10915" lon="-2.05874">
        <ele>70</ele>
        <time>2022-10-29T11:50:30Z</time>
      </trkpt>
      <trkpt lat="47.10914" lon="-2.05853">
        <ele>70</ele>
        <time>2022-10-29T11:50:32Z</time>
      </trkpt>
      <trkpt lat="47.10913" lon="-2.05832">
        <ele>70</ele>
        <time>2022-10-29T11:50:34Z</time>
      </trkpt>
      <trkpt lat="47.10913" lon="-2.05811">
        <ele>70</ele>
        <time>2022-10-29T11:50:36Z</time>
      </trkpt>
      <trkpt lat="47.10912" lon="-2.0579">
        <ele>69</ele>
        <time>2022-10-29T11:50:38Z</time>
      </trkpt>
      <trkpt lat="47.10912" lon="-2.0577">
        <ele>69</ele>
        <time>2022-10-29T11:50:40Z</time>
      </trkpt>
      <trkpt lat="47.10911" lon="-2.05751">
        <ele>69</ele>
        <time>2022-10-29T11:50:42Z</time>
      </trkpt>
      <trkpt lat="47.1091" lon="-2.05733">
        <ele>69</ele>
        <time>2022-10-29T11:50:44Z</time>
      </trkpt>
      <trkpt lat="47.10909" lon="-2.05716">
        <ele>69</ele>
        <time>2022-10-29T11:50:46Z</time>
      </trkpt>
      <trkpt lat="47.10907" lon="-2.05699">
        <ele>69</ele>
        <time>2022-10-29T11:50:48Z</time>
      </trkpt>
      <trkpt lat="47.10906" lon="-2.05681">
        <ele>70</ele>
        <time>2022-10-29T11:50:50Z</time>
      </trkpt>
      <trkpt lat="47.10906" lon="-2.05663">
        <ele>70</ele>
        <time>2022-10-29T11:50:52Z</time>
      </trkpt>
      <trkpt lat="47.10906" lon="-2.05645">
        <ele>70</ele>
        <time>2022-10-29T11:50:54Z</time>
      </trkpt>
      <trkpt lat="47.10905" lon="-2.05627">
        <ele>71</ele>
        <time>2022-10-29T11:50:56Z</time>
      </trkpt>
      <trkpt lat="47.10904" lon="-2.05608">
        <ele>71</ele>
        <time>2022-10-29T11:50:58Z</time>
      </trkpt>
      <trkpt lat="47.10903" lon="-2.0559">
        <ele>72</ele>
        <time>2022-10-29T11:51:00Z</time>
      </trkpt>
      <trkpt lat="47.10903" lon="-2.05573">
        <ele>71</ele>
        <time>2022-10-29T11:51:02Z</time>
      </trkpt>
      <trkpt lat="47.10902" lon="-2.05555">
        <ele>71</ele>
        <time>2022-10-29T11:51:04Z</time>
      </trkpt>
      <trkpt lat="47.10902" lon="-2.05537">
        <ele>72</ele>
        <time>2022-10-29T11:51:06Z</time>
      </trkpt>
      <trkpt lat="47.10901" lon="-2.0552">
        <ele>72</ele>
        <time>2022-10-29T11:51:08Z</time>
      </trkpt>
      <trkpt lat="47.109" lon="-2.05503">
        <ele>73</ele>
        <time>2022-10-29T11:51:10Z</time>
      </trkpt>
      <trkpt lat="47.109" lon="-2.05485">
        <ele>74</ele>
        <time>2022-10-29T11:51:12Z</time>
      </trkpt>
      <trkpt lat="47.10899" lon="-2.05469">
        <ele>74</ele>
        <time>2022-10-29T11:51:14Z</time>
      </trkpt>
      <trkpt lat="47.10899" lon="-2.05451">
        <ele>73</ele>
        <time>2022-10-29T11:51:16Z</time>
      </trkpt>
      <trkpt lat="47.10898" lon="-2.05432">
        <ele>73</ele>
        <time>2022-10-29T11:51:18Z</time>
      </trkpt>
      <trkpt lat="47.10898" lon="-2.05413">
        <ele>73</ele>
        <time>2022-10-29T11:51:20Z</time>
      </trkpt>
      <trkpt lat="47.10897" lon="-2.05394">
        <ele>72</ele>
        <time>2022-10-29T11:51:22Z</time>
      </trkpt>
      <trkpt lat="47.10897" lon="-2.05374">
        <ele>72</ele>
        <time>2022-10-29T11:51:24Z</time>
      </trkpt>
      <trkpt lat="47.10896" lon="-2.05354">
        <ele>71</ele>
        <time>2022-10-29T11:51:26Z</time>
      </trkpt>
      <trkpt lat="47.10895" lon="-2.05334">
        <ele>70</ele>
        <time>2022-10-29T11:51:28Z</time>
      </trkpt>
      <trkpt lat="47.10894" lon="-2.05313">
        <ele>70</ele>
        <time>2022-10-29T11:51:30Z</time>
      </trkpt>
      <trkpt lat="47.10894" lon="-2.05292">
        <ele>69</ele>
        <time>2022-10-29T11:51:32Z</time>
      </trkpt>
      <trkpt lat="47.10893" lon="-2.05272">
        <ele>68</ele>
        <time>2022-10-29T11:51:34Z</time>
      </trkpt>
      <trkpt lat="47.10892" lon="-2.05252">
        <ele>68</ele>
        <time>2022-10-29T11:51:36Z</time>
      </trkpt>
      <trkpt lat="47.10889" lon="-2.05234">
        <ele>68</ele>
        <time>2022-10-29T11:51:38Z</time>
      </trkpt>
      <trkpt lat="47.10877" lon="-2.05225">
        <ele>68</ele>
        <time>2022-10-29T11:51:40Z</time>
      </trkpt>
      <trkpt lat="47.10865" lon="-2.05227">
        <ele>67</ele>
        <time>2022-10-29T11:51:42Z</time>
      </trkpt>
      <trkpt lat="47.10852" lon="-2.05228">
        <ele>66</ele>
        <time>2022-10-29T11:51:44Z</time>
      </trkpt>
      <trkpt lat="47.1084" lon="-2.0523">
        <ele>66</ele>
        <time>2022-10-29T11:51:46Z</time>
      </trkpt>
      <trkpt lat="47.10828" lon="-2.0523">
        <ele>66</ele>
        <time>2022-10-29T11:51:48Z</time>
      </trkpt>
      <trkpt lat="47.10815" lon="-2.0523">
        <ele>66</ele>
        <time>2022-10-29T11:51:50Z</time>
      </trkpt>
      <trkpt lat="47.10803" lon="-2.05231">
        <ele>66</ele>
        <time>2022-10-29T11:51:52Z</time>
      </trkpt>
      <trkpt lat="47.10791" lon="-2.05232">
        <ele>66</ele>
        <time>2022-10-29T11:51:54Z</time>
      </trkpt>
      <trkpt lat="47.10779" lon="-2.05233">
        <ele>66</ele>
        <time>2022-10-29T11:51:56Z</time>
      </trkpt>
      <trkpt lat="47.10767" lon="-2.05234">
        <ele>66</ele>
        <time>2022-10-29T11:51:58Z</time>
      </trkpt>
      <trkpt lat="47.10755" lon="-2.05235">
        <ele>66</ele>
        <time>2022-10-29T11:52:00Z</time>
      </trkpt>
      <trkpt lat="47.10743" lon="-2.05236">
        <ele>67</ele>
        <time>2022-10-29T11:52:02Z</time>
      </trkpt>
      <trkpt lat="47.10731" lon="-2.05236">
        <ele>66</ele>
        <time>2022-10-29T11:52:04Z</time>
      </trkpt>
      <trkpt lat="47.1072" lon="-2.05236">
        <ele>66</ele>
        <time>2022-10-29T11:52:06Z</time>
      </trkpt>
      <trkpt lat="47.10708" lon="-2.05237">
        <ele>66</ele>
        <time>2022-10-29T11:52:08Z</time>
      </trkpt>
      <trkpt lat="47.10696" lon="-2.05237">
        <ele>66</ele>
        <time>2022-10-29T11:52:10Z</time>
      </trkpt>
      <trkpt lat="47.10684" lon="-2.05238">
        <ele>66</ele>
        <time>2022-10-29T11:52:12Z</time>
      </trkpt>
      <trkpt lat="47.10672" lon="-2.0524">
        <ele>67</ele>
        <time>2022-10-29T11:52:14Z</time>
      </trkpt>
      <trkpt lat="47.1066" lon="-2.0524">
        <ele>67</ele>
        <time>2022-10-29T11:52:16Z</time>
      </trkpt>
      <trkpt lat="47.10649" lon="-2.05235">
        <ele>68</ele>
        <time>2022-10-29T11:52:18Z</time>
      </trkpt>
      <trkpt lat="47.10639" lon="-2.05227">
        <ele>69</ele>
        <time>2022-10-29T11:52:20Z</time>
      </trkpt>
      <trkpt lat="47.10634" lon="-2.05212">
        <ele>70</ele>
        <time>2022-10-29T11:52:22Z</time>
      </trkpt>
      <trkpt lat="47.10631" lon="-2.05197">
        <ele>70</ele>
        <time>2022-10-29T11:52:24Z</time>
      </trkpt>
      <trkpt lat="47.10628" lon="-2.05181">
        <ele>71</ele>
        <time>2022-10-29T11:52:26Z</time>
      </trkpt>
      <trkpt lat="47.10625" lon="-2.05166">
        <ele>72</ele>
        <time>2022-10-29T11:52:28Z</time>
      </trkpt>
      <trkpt lat="47.10623" lon="-2.05152">
        <ele>72</ele>
        <time>2022-10-29T11:52:30Z</time>
      </trkpt>
      <trkpt lat="47.1062" lon="-2.05136">
        <ele>72</ele>
        <time>2022-10-29T11:52:32Z</time>
      </trkpt>
      <trkpt lat="47.10617" lon="-2.05122">
        <ele>72</ele>
        <time>2022-10-29T11:52:34Z</time>
      </trkpt>
      <trkpt lat="47.10613" lon="-2.05107">
        <ele>72</ele>
        <time>2022-10-29T11:52:36Z</time>
      </trkpt>
      <trkpt lat="47.10609" lon="-2.0509">
        <ele>73</ele>
        <time>2022-10-29T11:52:39Z</time>
      </trkpt>
      <trkpt lat="47.10604" lon="-2.05076">
        <ele>73</ele>
        <time>2022-10-29T11:52:42Z</time>
      </trkpt>
      <trkpt lat="47.10606" lon="-2.05058">
        <ele>73</ele>
        <time>2022-10-29T11:52:45Z</time>
      </trkpt>
      <trkpt lat="47.1061" lon="-2.05044">
        <ele>74</ele>
        <time>2022-10-29T11:52:47Z</time>
      </trkpt>
      <trkpt lat="47.10613" lon="-2.05029">
        <ele>74</ele>
        <time>2022-10-29T11:52:49Z</time>
      </trkpt>
      <trkpt lat="47.10614" lon="-2.05016">
        <ele>74</ele>
        <time>2022-10-29T11:52:51Z</time>
      </trkpt>
      <trkpt lat="47.10615" lon="-2.05">
        <ele>74</ele>
        <time>2022-10-29T11:52:54Z</time>
      </trkpt>
      <trkpt lat="47.10612" lon="-2.04993">
        <ele>74</ele>
        <time>2022-10-29T11:54:55Z</time>
      </trkpt>
      <trkpt lat="47.1061" lon="-2.0498">
        <ele>73</ele>
        <time>2022-10-29T11:55:23Z</time>
      </trkpt>
      <trkpt lat="47.10603" lon="-2.04996">
        <ele>71</ele>
        <time>2022-10-29T11:55:27Z</time>
      </trkpt>
      <trkpt lat="47.10601" lon="-2.0501">
        <ele>71</ele>
        <time>2022-10-29T11:55:29Z</time>
      </trkpt>
      <trkpt lat="47.10599" lon="-2.05026">
        <ele>71</ele>
        <time>2022-10-29T11:55:31Z</time>
      </trkpt>
      <trkpt lat="47.10597" lon="-2.05041">
        <ele>71</ele>
        <time>2022-10-29T11:55:34Z</time>
      </trkpt>
      <trkpt lat="47.106" lon="-2.05025">
        <ele>72</ele>
        <time>2022-10-29T11:55:45Z</time>
      </trkpt>
      <trkpt lat="47.10602" lon="-2.05006">
        <ele>72</ele>
        <time>2022-10-29T11:55:48Z</time>
      </trkpt>
      <trkpt lat="47.10604" lon="-2.04992">
        <ele>72</ele>
        <time>2022-10-29T11:55:50Z</time>
      </trkpt>
      <trkpt lat="47.10602" lon="-2.04978">
        <ele>72</ele>
        <time>2022-10-29T11:55:52Z</time>
      </trkpt>
      <trkpt lat="47.10596" lon="-2.04968">
        <ele>72</ele>
        <time>2022-10-29T11:55:54Z</time>
      </trkpt>
      <trkpt lat="47.10588" lon="-2.04959">
        <ele>72</ele>
        <time>2022-10-29T11:55:56Z</time>
      </trkpt>
      <trkpt lat="47.10581" lon="-2.04951">
        <ele>73</ele>
        <time>2022-10-29T11:55:58Z</time>
      </trkpt>
      <trkpt lat="47.10572" lon="-2.04944">
        <ele>73</ele>
        <time>2022-10-29T11:56:00Z</time>
      </trkpt>
      <trkpt lat="47.10562" lon="-2.04947">
        <ele>73</ele>
        <time>2022-10-29T11:56:02Z</time>
      </trkpt>
      <trkpt lat="47.10553" lon="-2.0495">
        <ele>72</ele>
        <time>2022-10-29T11:56:04Z</time>
      </trkpt>
      <trkpt lat="47.10542" lon="-2.04954">
        <ele>73</ele>
        <time>2022-10-29T11:56:06Z</time>
      </trkpt>
      <trkpt lat="47.10526" lon="-2.04959">
        <ele>73</ele>
        <time>2022-10-29T11:56:09Z</time>
      </trkpt>
      <trkpt lat="47.10514" lon="-2.04962">
        <ele>73</ele>
        <time>2022-10-29T11:56:11Z</time>
      </trkpt>
      <trkpt lat="47.10503" lon="-2.04966">
        <ele>72</ele>
        <time>2022-10-29T11:56:13Z</time>
      </trkpt>
      <trkpt lat="47.10491" lon="-2.04968">
        <ele>72</ele>
        <time>2022-10-29T11:56:15Z</time>
      </trkpt>
      <trkpt lat="47.1048" lon="-2.04971">
        <ele>72</ele>
        <time>2022-10-29T11:56:17Z</time>
      </trkpt>
      <trkpt lat="47.10468" lon="-2.04972">
        <ele>72</ele>
        <time>2022-10-29T11:56:19Z</time>
      </trkpt>
      <trkpt lat="47.10456" lon="-2.04973">
        <ele>72</ele>
        <time>2022-10-29T11:56:21Z</time>
      </trkpt>
      <trkpt lat="47.10443" lon="-2.04974">
        <ele>72</ele>
        <time>2022-10-29T11:56:23Z</time>
      </trkpt>
      <trkpt lat="47.10432" lon="-2.04975">
        <ele>72</ele>
        <time>2022-10-29T11:56:25Z</time>
      </trkpt>
      <trkpt lat="47.10413" lon="-2.04975">
        <ele>72</ele>
        <time>2022-10-29T11:56:28Z</time>
      </trkpt>
      <trkpt lat="47.10401" lon="-2.04974">
        <ele>73</ele>
        <time>2022-10-29T11:56:30Z</time>
      </trkpt>
      <trkpt lat="47.1039" lon="-2.04973">
        <ele>73</ele>
        <time>2022-10-29T11:56:32Z</time>
      </trkpt>
      <trkpt lat="47.10373" lon="-2.0497">
        <ele>73</ele>
        <time>2022-10-29T11:56:35Z</time>
      </trkpt>
      <trkpt lat="47.10361" lon="-2.04968">
        <ele>74</ele>
        <time>2022-10-29T11:56:37Z</time>
      </trkpt>
      <trkpt lat="47.1035" lon="-2.04965">
        <ele>74</ele>
        <time>2022-10-29T11:56:39Z</time>
      </trkpt>
      <trkpt lat="47.10332" lon="-2.0496">
        <ele>75</ele>
        <time>2022-10-29T11:56:42Z</time>
      </trkpt>
      <trkpt lat="47.10321" lon="-2.04956">
        <ele>75</ele>
        <time>2022-10-29T11:56:44Z</time>
      </trkpt>
      <trkpt lat="47.10304" lon="-2.0495">
        <ele>76</ele>
        <time>2022-10-29T11:56:47Z</time>
      </trkpt>
      <trkpt lat="47.10293" lon="-2.04945">
        <ele>76</ele>
        <time>2022-10-29T11:56:49Z</time>
      </trkpt>
      <trkpt lat="47.10282" lon="-2.04941">
        <ele>76</ele>
        <time>2022-10-29T11:56:51Z</time>
      </trkpt>
      <trkpt lat="47.10271" lon="-2.04935">
        <ele>76</ele>
        <time>2022-10-29T11:56:53Z</time>
      </trkpt>
      <trkpt lat="47.10259" lon="-2.04929">
        <ele>76</ele>
        <time>2022-10-29T11:56:55Z</time>
      </trkpt>
      <trkpt lat="47.10243" lon="-2.04921">
        <ele>76</ele>
        <time>2022-10-29T11:56:58Z</time>
      </trkpt>
      <trkpt lat="47.10232" lon="-2.04915">
        <ele>76</ele>
        <time>2022-10-29T11:57:00Z</time>
      </trkpt>
      <trkpt lat="47.10222" lon="-2.04908">
        <ele>76</ele>
        <time>2022-10-29T11:57:02Z</time>
      </trkpt>
      <trkpt lat="47.10211" lon="-2.04902">
        <ele>77</ele>
        <time>2022-10-29T11:57:04Z</time>
      </trkpt>
      <trkpt lat="47.102" lon="-2.04895">
        <ele>76</ele>
        <time>2022-10-29T11:57:06Z</time>
      </trkpt>
      <trkpt lat="47.10189" lon="-2.04889">
        <ele>77</ele>
        <time>2022-10-29T11:57:08Z</time>
      </trkpt>
      <trkpt lat="47.10178" lon="-2.04883">
        <ele>77</ele>
        <time>2022-10-29T11:57:10Z</time>
      </trkpt>
      <trkpt lat="47.10167" lon="-2.04877">
        <ele>78</ele>
        <time>2022-10-29T11:57:12Z</time>
      </trkpt>
      <trkpt lat="47.10157" lon="-2.04871">
        <ele>78</ele>
        <time>2022-10-29T11:57:14Z</time>
      </trkpt>
      <trkpt lat="47.10146" lon="-2.04865">
        <ele>79</ele>
        <time>2022-10-29T11:57:16Z</time>
      </trkpt>
      <trkpt lat="47.10135" lon="-2.04858">
        <ele>79</ele>
        <time>2022-10-29T11:57:18Z</time>
      </trkpt>
      <trkpt lat="47.10124" lon="-2.04852">
        <ele>79</ele>
        <time>2022-10-29T11:57:20Z</time>
      </trkpt>
      <trkpt lat="47.10114" lon="-2.04846">
        <ele>80</ele>
        <time>2022-10-29T11:57:22Z</time>
      </trkpt>
      <trkpt lat="47.10103" lon="-2.04841">
        <ele>79</ele>
        <time>2022-10-29T11:57:24Z</time>
      </trkpt>
      <trkpt lat="47.10093" lon="-2.04835">
        <ele>79</ele>
        <time>2022-10-29T11:57:26Z</time>
      </trkpt>
      <trkpt lat="47.10082" lon="-2.0483">
        <ele>80</ele>
        <time>2022-10-29T11:57:28Z</time>
      </trkpt>
      <trkpt lat="47.10072" lon="-2.04825">
        <ele>80</ele>
        <time>2022-10-29T11:57:30Z</time>
      </trkpt>
      <trkpt lat="47.10062" lon="-2.04819">
        <ele>80</ele>
        <time>2022-10-29T11:57:32Z</time>
      </trkpt>
      <trkpt lat="47.10051" lon="-2.04814">
        <ele>80</ele>
        <time>2022-10-29T11:57:34Z</time>
      </trkpt>
      <trkpt lat="47.10041" lon="-2.04808">
        <ele>80</ele>
        <time>2022-10-29T11:57:36Z</time>
      </trkpt>
      <trkpt lat="47.10031" lon="-2.04802">
        <ele>80</ele>
        <time>2022-10-29T11:57:38Z</time>
      </trkpt>
      <trkpt lat="47.10021" lon="-2.04797">
        <ele>80</ele>
        <time>2022-10-29T11:57:40Z</time>
      </trkpt>
      <trkpt lat="47.1001" lon="-2.04792">
        <ele>80</ele>
        <time>2022-10-29T11:57:42Z</time>
      </trkpt>
      <trkpt lat="47.1" lon="-2.04786">
        <ele>80</ele>
        <time>2022-10-29T11:57:44Z</time>
      </trkpt>
      <trkpt lat="47.0999" lon="-2.04781">
        <ele>80</ele>
        <time>2022-10-29T11:57:46Z</time>
      </trkpt>
      <trkpt lat="47.09978" lon="-2.04775">
        <ele>80</ele>
        <time>2022-10-29T11:57:48Z</time>
      </trkpt>
      <trkpt lat="47.09967" lon="-2.0477">
        <ele>80</ele>
        <time>2022-10-29T11:57:50Z</time>
      </trkpt>
      <trkpt lat="47.09956" lon="-2.04764">
        <ele>80</ele>
        <time>2022-10-29T11:57:52Z</time>
      </trkpt>
      <trkpt lat="47.09945" lon="-2.04757">
        <ele>80</ele>
        <time>2022-10-29T11:57:54Z</time>
      </trkpt>
      <trkpt lat="47.09934" lon="-2.04751">
        <ele>80</ele>
        <time>2022-10-29T11:57:56Z</time>
      </trkpt>
      <trkpt lat="47.09922" lon="-2.04745">
        <ele>80</ele>
        <time>2022-10-29T11:57:58Z</time>
      </trkpt>
      <trkpt lat="47.09911" lon="-2.0474">
        <ele>79</ele>
        <time>2022-10-29T11:58:00Z</time>
      </trkpt>
      <trkpt lat="47.099" lon="-2.04734">
        <ele>80</ele>
        <time>2022-10-29T11:58:02Z</time>
      </trkpt>
      <trkpt lat="47.09889" lon="-2.04728">
        <ele>79</ele>
        <time>2022-10-29T11:58:04Z</time>
      </trkpt>
      <trkpt lat="47.09878" lon="-2.04722">
        <ele>79</ele>
        <time>2022-10-29T11:58:06Z</time>
      </trkpt>
      <trkpt lat="47.09866" lon="-2.04716">
        <ele>79</ele>
        <time>2022-10-29T11:58:08Z</time>
      </trkpt>
      <trkpt lat="47.09855" lon="-2.0471">
        <ele>79</ele>
        <time>2022-10-29T11:58:10Z</time>
      </trkpt>
      <trkpt lat="47.09844" lon="-2.04707">
        <ele>78</ele>
        <time>2022-10-29T11:58:12Z</time>
      </trkpt>
      <trkpt lat="47.09833" lon="-2.04709">
        <ele>78</ele>
        <time>2022-10-29T11:58:14Z</time>
      </trkpt>
      <trkpt lat="47.09821" lon="-2.04711">
        <ele>78</ele>
        <time>2022-10-29T11:58:16Z</time>
      </trkpt>
      <trkpt lat="47.09812" lon="-2.04701">
        <ele>78</ele>
        <time>2022-10-29T11:58:18Z</time>
      </trkpt>
      <trkpt lat="47.09811" lon="-2.04681">
        <ele>78</ele>
        <time>2022-10-29T11:58:20Z</time>
      </trkpt>
      <trkpt lat="47.09809" lon="-2.04663">
        <ele>78</ele>
        <time>2022-10-29T11:58:22Z</time>
      </trkpt>
      <trkpt lat="47.09803" lon="-2.04647">
        <ele>78</ele>
        <time>2022-10-29T11:58:24Z</time>
      </trkpt>
      <trkpt lat="47.09798" lon="-2.0463">
        <ele>78</ele>
        <time>2022-10-29T11:58:26Z</time>
      </trkpt>
      <trkpt lat="47.09794" lon="-2.04613">
        <ele>79</ele>
        <time>2022-10-29T11:58:28Z</time>
      </trkpt>
      <trkpt lat="47.09789" lon="-2.04597">
        <ele>79</ele>
        <time>2022-10-29T11:58:30Z</time>
      </trkpt>
      <trkpt lat="47.09784" lon="-2.0458">
        <ele>79</ele>
        <time>2022-10-29T11:58:32Z</time>
      </trkpt>
      <trkpt lat="47.09779" lon="-2.04564">
        <ele>79</ele>
        <time>2022-10-29T11:58:34Z</time>
      </trkpt>
      <trkpt lat="47.09775" lon="-2.04548">
        <ele>79</ele>
        <time>2022-10-29T11:58:36Z</time>
      </trkpt>
      <trkpt lat="47.0977" lon="-2.04532">
        <ele>79</ele>
        <time>2022-10-29T11:58:38Z</time>
      </trkpt>
      <trkpt lat="47.09766" lon="-2.04516">
        <ele>80</ele>
        <time>2022-10-29T11:58:40Z</time>
      </trkpt>
      <trkpt lat="47.09761" lon="-2.045">
        <ele>80</ele>
        <time>2022-10-29T11:58:42Z</time>
      </trkpt>
      <trkpt lat="47.09756" lon="-2.04484">
        <ele>80</ele>
        <time>2022-10-29T11:58:44Z</time>
      </trkpt>
      <trkpt lat="47.09751" lon="-2.04468">
        <ele>80</ele>
        <time>2022-10-29T11:58:46Z</time>
      </trkpt>
      <trkpt lat="47.09746" lon="-2.04452">
        <ele>80</ele>
        <time>2022-10-29T11:58:48Z</time>
      </trkpt>
      <trkpt lat="47.09742" lon="-2.04437">
        <ele>81</ele>
        <time>2022-10-29T11:58:50Z</time>
      </trkpt>
      <trkpt lat="47.09737" lon="-2.04421">
        <ele>81</ele>
        <time>2022-10-29T11:58:52Z</time>
      </trkpt>
      <trkpt lat="47.09732" lon="-2.04405">
        <ele>81</ele>
        <time>2022-10-29T11:58:54Z</time>
      </trkpt>
      <trkpt lat="47.09727" lon="-2.04389">
        <ele>81</ele>
        <time>2022-10-29T11:58:56Z</time>
      </trkpt>
      <trkpt lat="47.09723" lon="-2.04374">
        <ele>82</ele>
        <time>2022-10-29T11:58:58Z</time>
      </trkpt>
      <trkpt lat="47.09718" lon="-2.04359">
        <ele>82</ele>
        <time>2022-10-29T11:59:00Z</time>
      </trkpt>
      <trkpt lat="47.09712" lon="-2.04343">
        <ele>82</ele>
        <time>2022-10-29T11:59:02Z</time>
      </trkpt>
      <trkpt lat="47.09706" lon="-2.04328">
        <ele>82</ele>
        <time>2022-10-29T11:59:04Z</time>
      </trkpt>
      <trkpt lat="47.097" lon="-2.04313">
        <ele>82</ele>
        <time>2022-10-29T11:59:06Z</time>
      </trkpt>
      <trkpt lat="47.09692" lon="-2.04298">
        <ele>82</ele>
        <time>2022-10-29T11:59:08Z</time>
      </trkpt>
      <trkpt lat="47.09685" lon="-2.04285">
        <ele>82</ele>
        <time>2022-10-29T11:59:10Z</time>
      </trkpt>
      <trkpt lat="47.09677" lon="-2.04271">
        <ele>83</ele>
        <time>2022-10-29T11:59:12Z</time>
      </trkpt>
      <trkpt lat="47.09669" lon="-2.04258">
        <ele>83</ele>
        <time>2022-10-29T11:59:14Z</time>
      </trkpt>
      <trkpt lat="47.09661" lon="-2.04245">
        <ele>83</ele>
        <time>2022-10-29T11:59:16Z</time>
      </trkpt>
      <trkpt lat="47.09653" lon="-2.04232">
        <ele>83</ele>
        <time>2022-10-29T11:59:18Z</time>
      </trkpt>
      <trkpt lat="47.09644" lon="-2.0422">
        <ele>83</ele>
        <time>2022-10-29T11:59:20Z</time>
      </trkpt>
      <trkpt lat="47.09636" lon="-2.04207">
        <ele>83</ele>
        <time>2022-10-29T11:59:22Z</time>
      </trkpt>
      <trkpt lat="47.09628" lon="-2.04194">
        <ele>83</ele>
        <time>2022-10-29T11:59:24Z</time>
      </trkpt>
      <trkpt lat="47.09619" lon="-2.04182">
        <ele>83</ele>
        <time>2022-10-29T11:59:26Z</time>
      </trkpt>
      <trkpt lat="47.09611" lon="-2.04168">
        <ele>83</ele>
        <time>2022-10-29T11:59:28Z</time>
      </trkpt>
      <trkpt lat="47.09603" lon="-2.04156">
        <ele>83</ele>
        <time>2022-10-29T11:59:30Z</time>
      </trkpt>
      <trkpt lat="47.09595" lon="-2.04143">
        <ele>84</ele>
        <time>2022-10-29T11:59:32Z</time>
      </trkpt>
      <trkpt lat="47.09587" lon="-2.04131">
        <ele>84</ele>
        <time>2022-10-29T11:59:34Z</time>
      </trkpt>
      <trkpt lat="47.09579" lon="-2.04118">
        <ele>84</ele>
        <time>2022-10-29T11:59:36Z</time>
      </trkpt>
      <trkpt lat="47.0957" lon="-2.04106">
        <ele>84</ele>
        <time>2022-10-29T11:59:38Z</time>
      </trkpt>
      <trkpt lat="47.09562" lon="-2.04093">
        <ele>84</ele>
        <time>2022-10-29T11:59:40Z</time>
      </trkpt>
      <trkpt lat="47.09554" lon="-2.04081">
        <ele>84</ele>
        <time>2022-10-29T11:59:42Z</time>
      </trkpt>
      <trkpt lat="47.09546" lon="-2.04068">
        <ele>84</ele>
        <time>2022-10-29T11:59:44Z</time>
      </trkpt>
      <trkpt lat="47.09538" lon="-2.04056">
        <ele>84</ele>
        <time>2022-10-29T11:59:46Z</time>
      </trkpt>
      <trkpt lat="47.0953" lon="-2.04043">
        <ele>84</ele>
        <time>2022-10-29T11:59:48Z</time>
      </trkpt>
      <trkpt lat="47.09521" lon="-2.04031">
        <ele>83</ele>
        <time>2022-10-29T11:59:50Z</time>
      </trkpt>
      <trkpt lat="47.09513" lon="-2.04017">
        <ele>83</ele>
        <time>2022-10-29T11:59:52Z</time>
      </trkpt>
      <trkpt lat="47.09505" lon="-2.04006">
        <ele>84</ele>
        <time>2022-10-29T11:59:54Z</time>
      </trkpt>
      <trkpt lat="47.09497" lon="-2.03993">
        <ele>83</ele>
        <time>2022-10-29T11:59:56Z</time>
      </trkpt>
      <trkpt lat="47.09489" lon="-2.0398">
        <ele>83</ele>
        <time>2022-10-29T11:59:58Z</time>
      </trkpt>
      <trkpt lat="47.0948" lon="-2.03968">
        <ele>83</ele>
        <time>2022-10-29T12:00:00Z</time>
      </trkpt>
      <trkpt lat="47.09472" lon="-2.03956">
        <ele>83</ele>
        <time>2022-10-29T12:00:02Z</time>
      </trkpt>
      <trkpt lat="47.09463" lon="-2.03943">
        <ele>83</ele>
        <time>2022-10-29T12:00:04Z</time>
      </trkpt>
      <trkpt lat="47.09455" lon="-2.0393">
        <ele>83</ele>
        <time>2022-10-29T12:00:06Z</time>
      </trkpt>
      <trkpt lat="47.09447" lon="-2.03917">
        <ele>83</ele>
        <time>2022-10-29T12:00:08Z</time>
      </trkpt>
      <trkpt lat="47.09439" lon="-2.03904">
        <ele>83</ele>
        <time>2022-10-29T12:00:10Z</time>
      </trkpt>
      <trkpt lat="47.09431" lon="-2.03891">
        <ele>83</ele>
        <time>2022-10-29T12:00:12Z</time>
      </trkpt>
      <trkpt lat="47.09423" lon="-2.03878">
        <ele>83</ele>
        <time>2022-10-29T12:00:14Z</time>
      </trkpt>
      <trkpt lat="47.09415" lon="-2.03865">
        <ele>83</ele>
        <time>2022-10-29T12:00:16Z</time>
      </trkpt>
      <trkpt lat="47.09407" lon="-2.03853">
        <ele>83</ele>
        <time>2022-10-29T12:00:18Z</time>
      </trkpt>
      <trkpt lat="47.09399" lon="-2.0384">
        <ele>83</ele>
        <time>2022-10-29T12:00:20Z</time>
      </trkpt>
      <trkpt lat="47.0939" lon="-2.03826">
        <ele>83</ele>
        <time>2022-10-29T12:00:22Z</time>
      </trkpt>
      <trkpt lat="47.09381" lon="-2.03814">
        <ele>83</ele>
        <time>2022-10-29T12:00:24Z</time>
      </trkpt>
      <trkpt lat="47.09372" lon="-2.03801">
        <ele>83</ele>
        <time>2022-10-29T12:00:26Z</time>
      </trkpt>
      <trkpt lat="47.09364" lon="-2.03787">
        <ele>83</ele>
        <time>2022-10-29T12:00:28Z</time>
      </trkpt>
      <trkpt lat="47.09355" lon="-2.03773">
        <ele>83</ele>
        <time>2022-10-29T12:00:30Z</time>
      </trkpt>
      <trkpt lat="47.09347" lon="-2.03761">
        <ele>83</ele>
        <time>2022-10-29T12:00:32Z</time>
      </trkpt>
      <trkpt lat="47.09338" lon="-2.03748">
        <ele>83</ele>
        <time>2022-10-29T12:00:34Z</time>
      </trkpt>
      <trkpt lat="47.09329" lon="-2.03735">
        <ele>83</ele>
        <time>2022-10-29T12:00:36Z</time>
      </trkpt>
      <trkpt lat="47.09322" lon="-2.03722">
        <ele>84</ele>
        <time>2022-10-29T12:00:38Z</time>
      </trkpt>
      <trkpt lat="47.09314" lon="-2.03709">
        <ele>84</ele>
        <time>2022-10-29T12:00:40Z</time>
      </trkpt>
      <trkpt lat="47.09306" lon="-2.03696">
        <ele>84</ele>
        <time>2022-10-29T12:00:42Z</time>
      </trkpt>
      <trkpt lat="47.09297" lon="-2.03684">
        <ele>84</ele>
        <time>2022-10-29T12:00:44Z</time>
      </trkpt>
      <trkpt lat="47.09288" lon="-2.03672">
        <ele>85</ele>
        <time>2022-10-29T12:00:46Z</time>
      </trkpt>
      <trkpt lat="47.0928" lon="-2.03659">
        <ele>85</ele>
        <time>2022-10-29T12:00:48Z</time>
      </trkpt>
      <trkpt lat="47.09272" lon="-2.03647">
        <ele>85</ele>
        <time>2022-10-29T12:00:50Z</time>
      </trkpt>
      <trkpt lat="47.09264" lon="-2.03634">
        <ele>85</ele>
        <time>2022-10-29T12:00:52Z</time>
      </trkpt>
      <trkpt lat="47.09256" lon="-2.03623">
        <ele>85</ele>
        <time>2022-10-29T12:00:54Z</time>
      </trkpt>
      <trkpt lat="47.09248" lon="-2.03611">
        <ele>85</ele>
        <time>2022-10-29T12:00:56Z</time>
      </trkpt>
      <trkpt lat="47.0924" lon="-2.03598">
        <ele>85</ele>
        <time>2022-10-29T12:00:58Z</time>
      </trkpt>
      <trkpt lat="47.09232" lon="-2.03585">
        <ele>85</ele>
        <time>2022-10-29T12:01:00Z</time>
      </trkpt>
      <trkpt lat="47.09223" lon="-2.03573">
        <ele>85</ele>
        <time>2022-10-29T12:01:02Z</time>
      </trkpt>
      <trkpt lat="47.09216" lon="-2.03561">
        <ele>85</ele>
        <time>2022-10-29T12:01:04Z</time>
      </trkpt>
      <trkpt lat="47.09208" lon="-2.03549">
        <ele>85</ele>
        <time>2022-10-29T12:01:06Z</time>
      </trkpt>
      <trkpt lat="47.092" lon="-2.03536">
        <ele>85</ele>
        <time>2022-10-29T12:01:08Z</time>
      </trkpt>
      <trkpt lat="47.09192" lon="-2.03524">
        <ele>85</ele>
        <time>2022-10-29T12:01:10Z</time>
      </trkpt>
      <trkpt lat="47.09184" lon="-2.03512">
        <ele>85</ele>
        <time>2022-10-29T12:01:12Z</time>
      </trkpt>
      <trkpt lat="47.09176" lon="-2.03499">
        <ele>85</ele>
        <time>2022-10-29T12:01:14Z</time>
      </trkpt>
      <trkpt lat="47.09168" lon="-2.03487">
        <ele>85</ele>
        <time>2022-10-29T12:01:16Z</time>
      </trkpt>
      <trkpt lat="47.09161" lon="-2.03475">
        <ele>86</ele>
        <time>2022-10-29T12:01:18Z</time>
      </trkpt>
      <trkpt lat="47.09153" lon="-2.03463">
        <ele>86</ele>
        <time>2022-10-29T12:01:20Z</time>
      </trkpt>
      <trkpt lat="47.09146" lon="-2.03452">
        <ele>86</ele>
        <time>2022-10-29T12:01:22Z</time>
      </trkpt>
      <trkpt lat="47.09138" lon="-2.03441">
        <ele>86</ele>
        <time>2022-10-29T12:01:24Z</time>
      </trkpt>
      <trkpt lat="47.09131" lon="-2.03429">
        <ele>86</ele>
        <time>2022-10-29T12:01:26Z</time>
      </trkpt>
      <trkpt lat="47.09124" lon="-2.03418">
        <ele>86</ele>
        <time>2022-10-29T12:01:28Z</time>
      </trkpt>
      <trkpt lat="47.09118" lon="-2.03408">
        <ele>86</ele>
        <time>2022-10-29T12:01:30Z</time>
      </trkpt>
      <trkpt lat="47.09109" lon="-2.03394">
        <ele>87</ele>
        <time>2022-10-29T12:01:33Z</time>
      </trkpt>
      <trkpt lat="47.09102" lon="-2.03383">
        <ele>87</ele>
        <time>2022-10-29T12:01:35Z</time>
      </trkpt>
      <trkpt lat="47.09096" lon="-2.03373">
        <ele>87</ele>
        <time>2022-10-29T12:01:37Z</time>
      </trkpt>
      <trkpt lat="47.09088" lon="-2.03357">
        <ele>87</ele>
        <time>2022-10-29T12:01:40Z</time>
      </trkpt>
      <trkpt lat="47.09083" lon="-2.03344">
        <ele>86</ele>
        <time>2022-10-29T12:01:42Z</time>
      </trkpt>
      <trkpt lat="47.09076" lon="-2.0333">
        <ele>86</ele>
        <time>2022-10-29T12:01:45Z</time>
      </trkpt>
      <trkpt lat="47.0907" lon="-2.03315">
        <ele>87</ele>
        <time>2022-10-29T12:03:15Z</time>
      </trkpt>
      <trkpt lat="47.09065" lon="-2.03302">
        <ele>88</ele>
        <time>2022-10-29T12:03:17Z</time>
      </trkpt>
      <trkpt lat="47.09058" lon="-2.0329">
        <ele>88</ele>
        <time>2022-10-29T12:03:19Z</time>
      </trkpt>
      <trkpt lat="47.0905" lon="-2.03279">
        <ele>88</ele>
        <time>2022-10-29T12:03:21Z</time>
      </trkpt>
      <trkpt lat="47.09041" lon="-2.03268">
        <ele>88</ele>
        <time>2022-10-29T12:03:23Z</time>
      </trkpt>
      <trkpt lat="47.09032" lon="-2.03257">
        <ele>88</ele>
        <time>2022-10-29T12:03:25Z</time>
      </trkpt>
      <trkpt lat="47.09022" lon="-2.03245">
        <ele>88</ele>
        <time>2022-10-29T12:03:27Z</time>
      </trkpt>
      <trkpt lat="47.09013" lon="-2.03234">
        <ele>88</ele>
        <time>2022-10-29T12:03:29Z</time>
      </trkpt>
      <trkpt lat="47.09003" lon="-2.03222">
        <ele>88</ele>
        <time>2022-10-29T12:03:31Z</time>
      </trkpt>
      <trkpt lat="47.08994" lon="-2.03209">
        <ele>88</ele>
        <time>2022-10-29T12:03:33Z</time>
      </trkpt>
      <trkpt lat="47.08985" lon="-2.03197">
        <ele>88</ele>
        <time>2022-10-29T12:03:35Z</time>
      </trkpt>
      <trkpt lat="47.08976" lon="-2.03184">
        <ele>88</ele>
        <time>2022-10-29T12:03:37Z</time>
      </trkpt>
      <trkpt lat="47.08966" lon="-2.0317">
        <ele>87</ele>
        <time>2022-10-29T12:03:39Z</time>
      </trkpt>
      <trkpt lat="47.08957" lon="-2.03157">
        <ele>88</ele>
        <time>2022-10-29T12:03:41Z</time>
      </trkpt>
      <trkpt lat="47.08949" lon="-2.03145">
        <ele>88</ele>
        <time>2022-10-29T12:03:43Z</time>
      </trkpt>
      <trkpt lat="47.0894" lon="-2.03131">
        <ele>87</ele>
        <time>2022-10-29T12:03:45Z</time>
      </trkpt>
      <trkpt lat="47.08931" lon="-2.03117">
        <ele>87</ele>
        <time>2022-10-29T12:03:47Z</time>
      </trkpt>
      <trkpt lat="47.08921" lon="-2.03103">
        <ele>87</ele>
        <time>2022-10-29T12:03:49Z</time>
      </trkpt>
      <trkpt lat="47.08911" lon="-2.03088">
        <ele>87</ele>
        <time>2022-10-29T12:03:51Z</time>
      </trkpt>
      <trkpt lat="47.08901" lon="-2.03072">
        <ele>86</ele>
        <time>2022-10-29T12:03:53Z</time>
      </trkpt>
      <trkpt lat="47.08891" lon="-2.03057">
        <ele>86</ele>
        <time>2022-10-29T12:03:55Z</time>
      </trkpt>
      <trkpt lat="47.08882" lon="-2.03041">
        <ele>86</ele>
        <time>2022-10-29T12:03:57Z</time>
      </trkpt>
      <trkpt lat="47.08871" lon="-2.03025">
        <ele>85</ele>
        <time>2022-10-29T12:03:59Z</time>
      </trkpt>
      <trkpt lat="47.08862" lon="-2.0301">
        <ele>85</ele>
        <time>2022-10-29T12:04:01Z</time>
      </trkpt>
      <trkpt lat="47.08852" lon="-2.02994">
        <ele>84</ele>
        <time>2022-10-29T12:04:03Z</time>
      </trkpt>
      <trkpt lat="47.08842" lon="-2.02979">
        <ele>84</ele>
        <time>2022-10-29T12:04:05Z</time>
      </trkpt>
      <trkpt lat="47.08833" lon="-2.02963">
        <ele>84</ele>
        <time>2022-10-29T12:04:07Z</time>
      </trkpt>
      <trkpt lat="47.08823" lon="-2.02948">
        <ele>84</ele>
        <time>2022-10-29T12:04:09Z</time>
      </trkpt>
      <trkpt lat="47.08814" lon="-2.02932">
        <ele>83</ele>
        <time>2022-10-29T12:04:11Z</time>
      </trkpt>
      <trkpt lat="47.08805" lon="-2.02916">
        <ele>83</ele>
        <time>2022-10-29T12:04:13Z</time>
      </trkpt>
      <trkpt lat="47.08794" lon="-2.02901">
        <ele>84</ele>
        <time>2022-10-29T12:04:15Z</time>
      </trkpt>
      <trkpt lat="47.08785" lon="-2.02885">
        <ele>83</ele>
        <time>2022-10-29T12:04:17Z</time>
      </trkpt>
      <trkpt lat="47.08776" lon="-2.0287">
        <ele>82</ele>
        <time>2022-10-29T12:04:19Z</time>
      </trkpt>
      <trkpt lat="47.08766" lon="-2.02856">
        <ele>82</ele>
        <time>2022-10-29T12:04:21Z</time>
      </trkpt>
      <trkpt lat="47.08758" lon="-2.02841">
        <ele>82</ele>
        <time>2022-10-29T12:04:23Z</time>
      </trkpt>
      <trkpt lat="47.08749" lon="-2.02828">
        <ele>82</ele>
        <time>2022-10-29T12:04:25Z</time>
      </trkpt>
      <trkpt lat="47.0874" lon="-2.02822">
        <ele>81</ele>
        <time>2022-10-29T12:04:27Z</time>
      </trkpt>
      <trkpt lat="47.08729" lon="-2.02824">
        <ele>81</ele>
        <time>2022-10-29T12:04:30Z</time>
      </trkpt>
      <trkpt lat="47.0872" lon="-2.0283">
        <ele>78</ele>
        <time>2022-10-29T12:05:19Z</time>
      </trkpt>
      <trkpt lat="47.08709" lon="-2.02835">
        <ele>78</ele>
        <time>2022-10-29T12:05:22Z</time>
      </trkpt>
      <trkpt lat="47.08701" lon="-2.02844">
        <ele>77</ele>
        <time>2022-10-29T12:05:24Z</time>
      </trkpt>
      <trkpt lat="47.08693" lon="-2.02854">
        <ele>77</ele>
        <time>2022-10-29T12:05:26Z</time>
      </trkpt>
      <trkpt lat="47.08683" lon="-2.02865">
        <ele>76</ele>
        <time>2022-10-29T12:05:28Z</time>
      </trkpt>
      <trkpt lat="47.08674" lon="-2.02876">
        <ele>76</ele>
        <time>2022-10-29T12:05:30Z</time>
      </trkpt>
      <trkpt lat="47.08666" lon="-2.02888">
        <ele>76</ele>
        <time>2022-10-29T12:05:32Z</time>
      </trkpt>
      <trkpt lat="47.08661" lon="-2.02902">
        <ele>76</ele>
        <time>2022-10-29T12:05:34Z</time>
      </trkpt>
      <trkpt lat="47.0866" lon="-2.02917">
        <ele>76</ele>
        <time>2022-10-29T12:05:36Z</time>
      </trkpt>
      <trkpt lat="47.08663" lon="-2.02932">
        <ele>76</ele>
        <time>2022-10-29T12:05:38Z</time>
      </trkpt>
      <trkpt lat="47.08673" lon="-2.02941">
        <ele>76</ele>
        <time>2022-10-29T12:05:40Z</time>
      </trkpt>
      <trkpt lat="47.08685" lon="-2.02946">
        <ele>76</ele>
        <time>2022-10-29T12:05:42Z</time>
      </trkpt>
      <trkpt lat="47.08697" lon="-2.02955">
        <ele>76</ele>
        <time>2022-10-29T12:05:44Z</time>
      </trkpt>
      <trkpt lat="47.08708" lon="-2.02964">
        <ele>75</ele>
        <time>2022-10-29T12:05:46Z</time>
      </trkpt>
      <trkpt lat="47.08719" lon="-2.02971">
        <ele>76</ele>
        <time>2022-10-29T12:05:48Z</time>
      </trkpt>
      <trkpt lat="47.0873" lon="-2.02977">
        <ele>76</ele>
        <time>2022-10-29T12:05:50Z</time>
      </trkpt>
      <trkpt lat="47.0874" lon="-2.02981">
        <ele>77</ele>
        <time>2022-10-29T12:05:52Z</time>
      </trkpt>
      <trkpt lat="47.08751" lon="-2.02982">
        <ele>77</ele>
        <time>2022-10-29T12:05:54Z</time>
      </trkpt>
      <trkpt lat="47.08762" lon="-2.02982">
        <ele>78</ele>
        <time>2022-10-29T12:05:56Z</time>
      </trkpt>
      <trkpt lat="47.08773" lon="-2.0298">
        <ele>79</ele>
        <time>2022-10-29T12:05:58Z</time>
      </trkpt>
      <trkpt lat="47.08784" lon="-2.02976">
        <ele>79</ele>
        <time>2022-10-29T12:06:00Z</time>
      </trkpt>
      <trkpt lat="47.08793" lon="-2.0297">
        <ele>80</ele>
        <time>2022-10-29T12:06:02Z</time>
      </trkpt>
      <trkpt lat="47.08801" lon="-2.02962">
        <ele>81</ele>
        <time>2022-10-29T12:06:04Z</time>
      </trkpt>
      <trkpt lat="47.0881" lon="-2.02953">
        <ele>82</ele>
        <time>2022-10-29T12:06:06Z</time>
      </trkpt>
      <trkpt lat="47.08817" lon="-2.02943">
        <ele>82</ele>
        <time>2022-10-29T12:06:08Z</time>
      </trkpt>
      <trkpt lat="47.08825" lon="-2.02933">
        <ele>83</ele>
        <time>2022-10-29T12:06:10Z</time>
      </trkpt>
      <trkpt lat="47.08832" lon="-2.02922">
        <ele>83</ele>
        <time>2022-10-29T12:06:12Z</time>
      </trkpt>
      <trkpt lat="47.0884" lon="-2.02912">
        <ele>83</ele>
        <time>2022-10-29T12:06:14Z</time>
      </trkpt>
      <trkpt lat="47.08848" lon="-2.02902">
        <ele>84</ele>
        <time>2022-10-29T12:06:16Z</time>
      </trkpt>
      <trkpt lat="47.08855" lon="-2.02892">
        <ele>84</ele>
        <time>2022-10-29T12:06:18Z</time>
      </trkpt>
      <trkpt lat="47.08863" lon="-2.02881">
        <ele>84</ele>
        <time>2022-10-29T12:06:20Z</time>
      </trkpt>
      <trkpt lat="47.08871" lon="-2.0287">
        <ele>84</ele>
        <time>2022-10-29T12:06:22Z</time>
      </trkpt>
      <trkpt lat="47.0888" lon="-2.02857">
        <ele>84</ele>
        <time>2022-10-29T12:06:24Z</time>
      </trkpt>
      <trkpt lat="47.08887" lon="-2.02843">
        <ele>84</ele>
        <time>2022-10-29T12:06:26Z</time>
      </trkpt>
      <trkpt lat="47.08895" lon="-2.02827">
        <ele>83</ele>
        <time>2022-10-29T12:06:28Z</time>
      </trkpt>
      <trkpt lat="47.08901" lon="-2.0281">
        <ele>84</ele>
        <time>2022-10-29T12:06:30Z</time>
      </trkpt>
      <trkpt lat="47.08906" lon="-2.02792">
        <ele>84</ele>
        <time>2022-10-29T12:06:32Z</time>
      </trkpt>
      <trkpt lat="47.08909" lon="-2.02772">
        <ele>84</ele>
        <time>2022-10-29T12:06:34Z</time>
      </trkpt>
      <trkpt lat="47.0891" lon="-2.02751">
        <ele>84</ele>
        <time>2022-10-29T12:06:36Z</time>
      </trkpt>
      <trkpt lat="47.0891" lon="-2.0273">
        <ele>84</ele>
        <time>2022-10-29T12:06:38Z</time>
      </trkpt>
      <trkpt lat="47.08907" lon="-2.02709">
        <ele>84</ele>
        <time>2022-10-29T12:06:40Z</time>
      </trkpt>
      <trkpt lat="47.08902" lon="-2.02689">
        <ele>84</ele>
        <time>2022-10-29T12:06:42Z</time>
      </trkpt>
      <trkpt lat="47.08896" lon="-2.02669">
        <ele>83</ele>
        <time>2022-10-29T12:06:44Z</time>
      </trkpt>
      <trkpt lat="47.08888" lon="-2.02651">
        <ele>83</ele>
        <time>2022-10-29T12:06:46Z</time>
      </trkpt>
      <trkpt lat="47.08881" lon="-2.02633">
        <ele>83</ele>
        <time>2022-10-29T12:06:48Z</time>
      </trkpt>
      <trkpt lat="47.08874" lon="-2.02614">
        <ele>83</ele>
        <time>2022-10-29T12:06:50Z</time>
      </trkpt>
      <trkpt lat="47.08868" lon="-2.02596">
        <ele>83</ele>
        <time>2022-10-29T12:06:52Z</time>
      </trkpt>
      <trkpt lat="47.08862" lon="-2.02576">
        <ele>83</ele>
        <time>2022-10-29T12:06:54Z</time>
      </trkpt>
      <trkpt lat="47.08857" lon="-2.02557">
        <ele>83</ele>
        <time>2022-10-29T12:06:56Z</time>
      </trkpt>
      <trkpt lat="47.08853" lon="-2.02537">
        <ele>83</ele>
        <time>2022-10-29T12:06:58Z</time>
      </trkpt>
      <trkpt lat="47.08851" lon="-2.02517">
        <ele>83</ele>
        <time>2022-10-29T12:07:00Z</time>
      </trkpt>
      <trkpt lat="47.08848" lon="-2.02497">
        <ele>84</ele>
        <time>2022-10-29T12:07:02Z</time>
      </trkpt>
      <trkpt lat="47.08847" lon="-2.02477">
        <ele>84</ele>
        <time>2022-10-29T12:07:04Z</time>
      </trkpt>
      <trkpt lat="47.08847" lon="-2.02458">
        <ele>84</ele>
        <time>2022-10-29T12:07:06Z</time>
      </trkpt>
      <trkpt lat="47.08847" lon="-2.02438">
        <ele>84</ele>
        <time>2022-10-29T12:07:08Z</time>
      </trkpt>
      <trkpt lat="47.08849" lon="-2.02418">
        <ele>84</ele>
        <time>2022-10-29T12:07:10Z</time>
      </trkpt>
      <trkpt lat="47.08852" lon="-2.02399">
        <ele>84</ele>
        <time>2022-10-29T12:07:12Z</time>
      </trkpt>
      <trkpt lat="47.08856" lon="-2.02381">
        <ele>84</ele>
        <time>2022-10-29T12:07:14Z</time>
      </trkpt>
      <trkpt lat="47.08859" lon="-2.02362">
        <ele>84</ele>
        <time>2022-10-29T12:07:16Z</time>
      </trkpt>
      <trkpt lat="47.08863" lon="-2.02344">
        <ele>84</ele>
        <time>2022-10-29T12:07:18Z</time>
      </trkpt>
      <trkpt lat="47.08867" lon="-2.02326">
        <ele>84</ele>
        <time>2022-10-29T12:07:20Z</time>
      </trkpt>
      <trkpt lat="47.08871" lon="-2.02307">
        <ele>85</ele>
        <time>2022-10-29T12:07:22Z</time>
      </trkpt>
      <trkpt lat="47.08875" lon="-2.02288">
        <ele>85</ele>
        <time>2022-10-29T12:07:24Z</time>
      </trkpt>
      <trkpt lat="47.08878" lon="-2.0227">
        <ele>84</ele>
        <time>2022-10-29T12:07:26Z</time>
      </trkpt>
      <trkpt lat="47.08882" lon="-2.02252">
        <ele>84</ele>
        <time>2022-10-29T12:07:28Z</time>
      </trkpt>
      <trkpt lat="47.08886" lon="-2.02233">
        <ele>84</ele>
        <time>2022-10-29T12:07:30Z</time>
      </trkpt>
      <trkpt lat="47.08891" lon="-2.02213">
        <ele>84</ele>
        <time>2022-10-29T12:07:32Z</time>
      </trkpt>
      <trkpt lat="47.08895" lon="-2.02194">
        <ele>84</ele>
        <time>2022-10-29T12:07:34Z</time>
      </trkpt>
      <trkpt lat="47.08898" lon="-2.02174">
        <ele>84</ele>
        <time>2022-10-29T12:07:36Z</time>
      </trkpt>
      <trkpt lat="47.08903" lon="-2.02154">
        <ele>84</ele>
        <time>2022-10-29T12:07:38Z</time>
      </trkpt>
      <trkpt lat="47.08907" lon="-2.02134">
        <ele>84</ele>
        <time>2022-10-29T12:07:40Z</time>
      </trkpt>
      <trkpt lat="47.08911" lon="-2.02114">
        <ele>84</ele>
        <time>2022-10-29T12:07:42Z</time>
      </trkpt>
      <trkpt lat="47.08916" lon="-2.02093">
        <ele>83</ele>
        <time>2022-10-29T12:07:44Z</time>
      </trkpt>
      <trkpt lat="47.0892" lon="-2.02072">
        <ele>83</ele>
        <time>2022-10-29T12:07:46Z</time>
      </trkpt>
      <trkpt lat="47.08924" lon="-2.02051">
        <ele>82</ele>
        <time>2022-10-29T12:07:48Z</time>
      </trkpt>
      <trkpt lat="47.08928" lon="-2.0203">
        <ele>82</ele>
        <time>2022-10-29T12:07:50Z</time>
      </trkpt>
      <trkpt lat="47.08933" lon="-2.02009">
        <ele>81</ele>
        <time>2022-10-29T12:07:52Z</time>
      </trkpt>
      <trkpt lat="47.08937" lon="-2.01989">
        <ele>82</ele>
        <time>2022-10-29T12:07:54Z</time>
      </trkpt>
      <trkpt lat="47.08941" lon="-2.01968">
        <ele>81</ele>
        <time>2022-10-29T12:07:56Z</time>
      </trkpt>
      <trkpt lat="47.08945" lon="-2.01948">
        <ele>81</ele>
        <time>2022-10-29T12:07:58Z</time>
      </trkpt>
      <trkpt lat="47.0895" lon="-2.01927">
        <ele>80</ele>
        <time>2022-10-29T12:08:00Z</time>
      </trkpt>
      <trkpt lat="47.08954" lon="-2.01907">
        <ele>80</ele>
        <time>2022-10-29T12:08:02Z</time>
      </trkpt>
      <trkpt lat="47.08958" lon="-2.01887">
        <ele>80</ele>
        <time>2022-10-29T12:08:04Z</time>
      </trkpt>
      <trkpt lat="47.08963" lon="-2.01867">
        <ele>80</ele>
        <time>2022-10-29T12:08:06Z</time>
      </trkpt>
      <trkpt lat="47.08967" lon="-2.01846">
        <ele>80</ele>
        <time>2022-10-29T12:08:08Z</time>
      </trkpt>
      <trkpt lat="47.08971" lon="-2.01825">
        <ele>80</ele>
        <time>2022-10-29T12:08:10Z</time>
      </trkpt>
      <trkpt lat="47.08976" lon="-2.01804">
        <ele>80</ele>
        <time>2022-10-29T12:08:12Z</time>
      </trkpt>
      <trkpt lat="47.0898" lon="-2.01783">
        <ele>79</ele>
        <time>2022-10-29T12:08:14Z</time>
      </trkpt>
      <trkpt lat="47.08984" lon="-2.01761">
        <ele>79</ele>
        <time>2022-10-29T12:08:16Z</time>
      </trkpt>
      <trkpt lat="47.08989" lon="-2.0174">
        <ele>78</ele>
        <time>2022-10-29T12:08:18Z</time>
      </trkpt>
      <trkpt lat="47.08993" lon="-2.01719">
        <ele>78</ele>
        <time>2022-10-29T12:08:20Z</time>
      </trkpt>
      <trkpt lat="47.08998" lon="-2.017">
        <ele>77</ele>
        <time>2022-10-29T12:08:22Z</time>
      </trkpt>
      <trkpt lat="47.09002" lon="-2.01679">
        <ele>77</ele>
        <time>2022-10-29T12:08:24Z</time>
      </trkpt>
      <trkpt lat="47.09006" lon="-2.01659">
        <ele>77</ele>
        <time>2022-10-29T12:08:26Z</time>
      </trkpt>
      <trkpt lat="47.0901" lon="-2.01638">
        <ele>77</ele>
        <time>2022-10-29T12:08:28Z</time>
      </trkpt>
      <trkpt lat="47.09015" lon="-2.01617">
        <ele>77</ele>
        <time>2022-10-29T12:08:30Z</time>
      </trkpt>
      <trkpt lat="47.09019" lon="-2.01597">
        <ele>77</ele>
        <time>2022-10-29T12:08:32Z</time>
      </trkpt>
      <trkpt lat="47.09023" lon="-2.01577">
        <ele>76</ele>
        <time>2022-10-29T12:08:34Z</time>
      </trkpt>
      <trkpt lat="47.09027" lon="-2.01556">
        <ele>76</ele>
        <time>2022-10-29T12:08:36Z</time>
      </trkpt>
      <trkpt lat="47.09031" lon="-2.01536">
        <ele>76</ele>
        <time>2022-10-29T12:08:38Z</time>
      </trkpt>
      <trkpt lat="47.09035" lon="-2.01516">
        <ele>76</ele>
        <time>2022-10-29T12:08:40Z</time>
      </trkpt>
      <trkpt lat="47.0904" lon="-2.01496">
        <ele>76</ele>
        <time>2022-10-29T12:08:42Z</time>
      </trkpt>
      <trkpt lat="47.09044" lon="-2.01475">
        <ele>76</ele>
        <time>2022-10-29T12:08:44Z</time>
      </trkpt>
      <trkpt lat="47.09048" lon="-2.01455">
        <ele>76</ele>
        <time>2022-10-29T12:08:46Z</time>
      </trkpt>
      <trkpt lat="47.09052" lon="-2.01434">
        <ele>76</ele>
        <time>2022-10-29T12:08:48Z</time>
      </trkpt>
      <trkpt lat="47.09056" lon="-2.01414">
        <ele>77</ele>
        <time>2022-10-29T12:08:50Z</time>
      </trkpt>
      <trkpt lat="47.0906" lon="-2.01393">
        <ele>77</ele>
        <time>2022-10-29T12:08:52Z</time>
      </trkpt>
      <trkpt lat="47.09065" lon="-2.01373">
        <ele>77</ele>
        <time>2022-10-29T12:08:54Z</time>
      </trkpt>
      <trkpt lat="47.09069" lon="-2.01353">
        <ele>77</ele>
        <time>2022-10-29T12:08:56Z</time>
      </trkpt>
      <trkpt lat="47.09074" lon="-2.01333">
        <ele>77</ele>
        <time>2022-10-29T12:08:58Z</time>
      </trkpt>
      <trkpt lat="47.09078" lon="-2.01312">
        <ele>77</ele>
        <time>2022-10-29T12:09:00Z</time>
      </trkpt>
      <trkpt lat="47.09083" lon="-2.01292">
        <ele>78</ele>
        <time>2022-10-29T12:09:02Z</time>
      </trkpt>
      <trkpt lat="47.09086" lon="-2.01272">
        <ele>78</ele>
        <time>2022-10-29T12:09:04Z</time>
      </trkpt>
      <trkpt lat="47.09091" lon="-2.01251">
        <ele>78</ele>
        <time>2022-10-29T12:09:06Z</time>
      </trkpt>
      <trkpt lat="47.09096" lon="-2.01231">
        <ele>78</ele>
        <time>2022-10-29T12:09:08Z</time>
      </trkpt>
      <trkpt lat="47.09101" lon="-2.01212">
        <ele>77</ele>
        <time>2022-10-29T12:09:10Z</time>
      </trkpt>
      <trkpt lat="47.09107" lon="-2.01192">
        <ele>77</ele>
        <time>2022-10-29T12:09:12Z</time>
      </trkpt>
      <trkpt lat="47.09114" lon="-2.01174">
        <ele>76</ele>
        <time>2022-10-29T12:09:14Z</time>
      </trkpt>
      <trkpt lat="47.09122" lon="-2.01156">
        <ele>77</ele>
        <time>2022-10-29T12:09:16Z</time>
      </trkpt>
      <trkpt lat="47.09131" lon="-2.01139">
        <ele>77</ele>
        <time>2022-10-29T12:09:18Z</time>
      </trkpt>
      <trkpt lat="47.0914" lon="-2.01122">
        <ele>77</ele>
        <time>2022-10-29T12:09:20Z</time>
      </trkpt>
      <trkpt lat="47.0915" lon="-2.01105">
        <ele>77</ele>
        <time>2022-10-29T12:09:22Z</time>
      </trkpt>
      <trkpt lat="47.0916" lon="-2.01088">
        <ele>77</ele>
        <time>2022-10-29T12:09:24Z</time>
      </trkpt>
      <trkpt lat="47.09169" lon="-2.01071">
        <ele>76</ele>
        <time>2022-10-29T12:09:26Z</time>
      </trkpt>
      <trkpt lat="47.09179" lon="-2.01055">
        <ele>76</ele>
        <time>2022-10-29T12:09:28Z</time>
      </trkpt>
      <trkpt lat="47.09188" lon="-2.01039">
        <ele>76</ele>
        <time>2022-10-29T12:09:30Z</time>
      </trkpt>
      <trkpt lat="47.09198" lon="-2.01022">
        <ele>75</ele>
        <time>2022-10-29T12:09:32Z</time>
      </trkpt>
      <trkpt lat="47.09208" lon="-2.01005">
        <ele>74</ele>
        <time>2022-10-29T12:09:34Z</time>
      </trkpt>
      <trkpt lat="47.09219" lon="-2.00988">
        <ele>73</ele>
        <time>2022-10-29T12:09:36Z</time>
      </trkpt>
      <trkpt lat="47.09229" lon="-2.00971">
        <ele>73</ele>
        <time>2022-10-29T12:09:38Z</time>
      </trkpt>
      <trkpt lat="47.09239" lon="-2.00953">
        <ele>72</ele>
        <time>2022-10-29T12:09:40Z</time>
      </trkpt>
      <trkpt lat="47.09249" lon="-2.00936">
        <ele>71</ele>
        <time>2022-10-29T12:09:42Z</time>
      </trkpt>
      <trkpt lat="47.0926" lon="-2.00919">
        <ele>70</ele>
        <time>2022-10-29T12:09:44Z</time>
      </trkpt>
      <trkpt lat="47.0927" lon="-2.00901">
        <ele>70</ele>
        <time>2022-10-29T12:09:46Z</time>
      </trkpt>
      <trkpt lat="47.0928" lon="-2.00884">
        <ele>70</ele>
        <time>2022-10-29T12:09:48Z</time>
      </trkpt>
      <trkpt lat="47.0929" lon="-2.00867">
        <ele>69</ele>
        <time>2022-10-29T12:09:50Z</time>
      </trkpt>
      <trkpt lat="47.093" lon="-2.00851">
        <ele>69</ele>
        <time>2022-10-29T12:09:52Z</time>
      </trkpt>
      <trkpt lat="47.0931" lon="-2.00834">
        <ele>68</ele>
        <time>2022-10-29T12:09:54Z</time>
      </trkpt>
      <trkpt lat="47.0932" lon="-2.00817">
        <ele>68</ele>
        <time>2022-10-29T12:09:56Z</time>
      </trkpt>
      <trkpt lat="47.0933" lon="-2.008">
        <ele>67</ele>
        <time>2022-10-29T12:09:58Z</time>
      </trkpt>
      <trkpt lat="47.0934" lon="-2.00783">
        <ele>67</ele>
        <time>2022-10-29T12:10:00Z</time>
      </trkpt>
      <trkpt lat="47.0935" lon="-2.00766">
        <ele>67</ele>
        <time>2022-10-29T12:10:02Z</time>
      </trkpt>
      <trkpt lat="47.09359" lon="-2.0075">
        <ele>67</ele>
        <time>2022-10-29T12:10:04Z</time>
      </trkpt>
      <trkpt lat="47.09369" lon="-2.00732">
        <ele>67</ele>
        <time>2022-10-29T12:10:06Z</time>
      </trkpt>
      <trkpt lat="47.0938" lon="-2.00713">
        <ele>66</ele>
        <time>2022-10-29T12:10:08Z</time>
      </trkpt>
      <trkpt lat="47.0939" lon="-2.00696">
        <ele>66</ele>
        <time>2022-10-29T12:10:10Z</time>
      </trkpt>
      <trkpt lat="47.094" lon="-2.00679">
        <ele>65</ele>
        <time>2022-10-29T12:10:12Z</time>
      </trkpt>
      <trkpt lat="47.0941" lon="-2.00661">
        <ele>65</ele>
        <time>2022-10-29T12:10:14Z</time>
      </trkpt>
      <trkpt lat="47.0942" lon="-2.00643">
        <ele>65</ele>
        <time>2022-10-29T12:10:16Z</time>
      </trkpt>
      <trkpt lat="47.09429" lon="-2.00623">
        <ele>65</ele>
        <time>2022-10-29T12:10:18Z</time>
      </trkpt>
      <trkpt lat="47.09437" lon="-2.00603">
        <ele>65</ele>
        <time>2022-10-29T12:10:20Z</time>
      </trkpt>
      <trkpt lat="47.09445" lon="-2.00583">
        <ele>65</ele>
        <time>2022-10-29T12:10:22Z</time>
      </trkpt>
      <trkpt lat="47.09452" lon="-2.00563">
        <ele>65</ele>
        <time>2022-10-29T12:10:24Z</time>
      </trkpt>
      <trkpt lat="47.09461" lon="-2.00543">
        <ele>65</ele>
        <time>2022-10-29T12:10:26Z</time>
      </trkpt>
      <trkpt lat="47.09468" lon="-2.00523">
        <ele>65</ele>
        <time>2022-10-29T12:10:28Z</time>
      </trkpt>
      <trkpt lat="47.09475" lon="-2.00504">
        <ele>66</ele>
        <time>2022-10-29T12:10:30Z</time>
      </trkpt>
      <trkpt lat="47.09483" lon="-2.00485">
        <ele>66</ele>
        <time>2022-10-29T12:10:32Z</time>
      </trkpt>
      <trkpt lat="47.0949" lon="-2.00466">
        <ele>67</ele>
        <time>2022-10-29T12:10:34Z</time>
      </trkpt>
      <trkpt lat="47.09498" lon="-2.00448">
        <ele>67</ele>
        <time>2022-10-29T12:10:36Z</time>
      </trkpt>
      <trkpt lat="47.09505" lon="-2.00429">
        <ele>67</ele>
        <time>2022-10-29T12:10:38Z</time>
      </trkpt>
      <trkpt lat="47.09513" lon="-2.00409">
        <ele>67</ele>
        <time>2022-10-29T12:10:40Z</time>
      </trkpt>
      <trkpt lat="47.0952" lon="-2.00391">
        <ele>67</ele>
        <time>2022-10-29T12:10:42Z</time>
      </trkpt>
      <trkpt lat="47.09527" lon="-2.00372">
        <ele>66</ele>
        <time>2022-10-29T12:10:44Z</time>
      </trkpt>
      <trkpt lat="47.09534" lon="-2.00353">
        <ele>67</ele>
        <time>2022-10-29T12:10:46Z</time>
      </trkpt>
      <trkpt lat="47.09541" lon="-2.00334">
        <ele>66</ele>
        <time>2022-10-29T12:10:48Z</time>
      </trkpt>
      <trkpt lat="47.09549" lon="-2.00315">
        <ele>65</ele>
        <time>2022-10-29T12:10:50Z</time>
      </trkpt>
      <trkpt lat="47.09556" lon="-2.00297">
        <ele>65</ele>
        <time>2022-10-29T12:10:52Z</time>
      </trkpt>
      <trkpt lat="47.09564" lon="-2.00279">
        <ele>64</ele>
        <time>2022-10-29T12:10:54Z</time>
      </trkpt>
      <trkpt lat="47.09571" lon="-2.00261">
        <ele>63</ele>
        <time>2022-10-29T12:10:56Z</time>
      </trkpt>
      <trkpt lat="47.09578" lon="-2.00242">
        <ele>63</ele>
        <time>2022-10-29T12:10:58Z</time>
      </trkpt>
      <trkpt lat="47.09586" lon="-2.00223">
        <ele>63</ele>
        <time>2022-10-29T12:11:00Z</time>
      </trkpt>
      <trkpt lat="47.09593" lon="-2.00204">
        <ele>62</ele>
        <time>2022-10-29T12:11:02Z</time>
      </trkpt>
      <trkpt lat="47.096" lon="-2.00185">
        <ele>62</ele>
        <time>2022-10-29T12:11:04Z</time>
      </trkpt>
      <trkpt lat="47.09608" lon="-2.00166">
        <ele>63</ele>
        <time>2022-10-29T12:11:06Z</time>
      </trkpt>
      <trkpt lat="47.09616" lon="-2.00148">
        <ele>63</ele>
        <time>2022-10-29T12:11:08Z</time>
      </trkpt>
      <trkpt lat="47.09623" lon="-2.0013">
        <ele>63</ele>
        <time>2022-10-29T12:11:10Z</time>
      </trkpt>
      <trkpt lat="47.0963" lon="-2.00111">
        <ele>63</ele>
        <time>2022-10-29T12:11:12Z</time>
      </trkpt>
      <trkpt lat="47.09637" lon="-2.00093">
        <ele>63</ele>
        <time>2022-10-29T12:11:14Z</time>
      </trkpt>
      <trkpt lat="47.09644" lon="-2.00075">
        <ele>63</ele>
        <time>2022-10-29T12:11:16Z</time>
      </trkpt>
      <trkpt lat="47.0965" lon="-2.00056">
        <ele>63</ele>
        <time>2022-10-29T12:11:18Z</time>
      </trkpt>
      <trkpt lat="47.09656" lon="-2.00036">
        <ele>62</ele>
        <time>2022-10-29T12:11:20Z</time>
      </trkpt>
      <trkpt lat="47.09661" lon="-2.00018">
        <ele>63</ele>
        <time>2022-10-29T12:11:22Z</time>
      </trkpt>
      <trkpt lat="47.09665" lon="-1.99999">
        <ele>63</ele>
        <time>2022-10-29T12:11:24Z</time>
      </trkpt>
      <trkpt lat="47.0967" lon="-1.9998">
        <ele>63</ele>
        <time>2022-10-29T12:11:26Z</time>
      </trkpt>
      <trkpt lat="47.09675" lon="-1.9996">
        <ele>63</ele>
        <time>2022-10-29T12:11:28Z</time>
      </trkpt>
      <trkpt lat="47.09681" lon="-1.99942">
        <ele>63</ele>
        <time>2022-10-29T12:11:30Z</time>
      </trkpt>
      <trkpt lat="47.09688" lon="-1.99923">
        <ele>63</ele>
        <time>2022-10-29T12:11:32Z</time>
      </trkpt>
      <trkpt lat="47.09695" lon="-1.99905">
        <ele>62</ele>
        <time>2022-10-29T12:11:34Z</time>
      </trkpt>
      <trkpt lat="47.09702" lon="-1.99887">
        <ele>63</ele>
        <time>2022-10-29T12:11:36Z</time>
      </trkpt>
      <trkpt lat="47.09709" lon="-1.99869">
        <ele>62</ele>
        <time>2022-10-29T12:11:38Z</time>
      </trkpt>
      <trkpt lat="47.09717" lon="-1.9985">
        <ele>62</ele>
        <time>2022-10-29T12:11:40Z</time>
      </trkpt>
      <trkpt lat="47.09725" lon="-1.99831">
        <ele>62</ele>
        <time>2022-10-29T12:11:42Z</time>
      </trkpt>
      <trkpt lat="47.09732" lon="-1.99811">
        <ele>62</ele>
        <time>2022-10-29T12:11:44Z</time>
      </trkpt>
      <trkpt lat="47.0974" lon="-1.99792">
        <ele>62</ele>
        <time>2022-10-29T12:11:46Z</time>
      </trkpt>
      <trkpt lat="47.09747" lon="-1.99773">
        <ele>62</ele>
        <time>2022-10-29T12:11:48Z</time>
      </trkpt>
      <trkpt lat="47.09755" lon="-1.99754">
        <ele>62</ele>
        <time>2022-10-29T12:11:50Z</time>
      </trkpt>
      <trkpt lat="47.09762" lon="-1.99734">
        <ele>62</ele>
        <time>2022-10-29T12:11:52Z</time>
      </trkpt>
      <trkpt lat="47.0977" lon="-1.99714">
        <ele>61</ele>
        <time>2022-10-29T12:11:54Z</time>
      </trkpt>
      <trkpt lat="47.09777" lon="-1.99695">
        <ele>61</ele>
        <time>2022-10-29T12:11:56Z</time>
      </trkpt>
      <trkpt lat="47.09784" lon="-1.99675">
        <ele>61</ele>
        <time>2022-10-29T12:11:58Z</time>
      </trkpt>
      <trkpt lat="47.09791" lon="-1.99655">
        <ele>61</ele>
        <time>2022-10-29T12:12:00Z</time>
      </trkpt>
      <trkpt lat="47.09798" lon="-1.99636">
        <ele>60</ele>
        <time>2022-10-29T12:12:02Z</time>
      </trkpt>
      <trkpt lat="47.09805" lon="-1.99616">
        <ele>60</ele>
        <time>2022-10-29T12:12:04Z</time>
      </trkpt>
      <trkpt lat="47.09812" lon="-1.99597">
        <ele>60</ele>
        <time>2022-10-29T12:12:06Z</time>
      </trkpt>
      <trkpt lat="47.09819" lon="-1.99577">
        <ele>60</ele>
        <time>2022-10-29T12:12:08Z</time>
      </trkpt>
      <trkpt lat="47.09826" lon="-1.99558">
        <ele>60</ele>
        <time>2022-10-29T12:12:10Z</time>
      </trkpt>
      <trkpt lat="47.09832" lon="-1.99539">
        <ele>60</ele>
        <time>2022-10-29T12:12:12Z</time>
      </trkpt>
      <trkpt lat="47.09839" lon="-1.99519">
        <ele>60</ele>
        <time>2022-10-29T12:12:14Z</time>
      </trkpt>
      <trkpt lat="47.09846" lon="-1.99499">
        <ele>60</ele>
        <time>2022-10-29T12:12:16Z</time>
      </trkpt>
      <trkpt lat="47.09853" lon="-1.9948">
        <ele>60</ele>
        <time>2022-10-29T12:12:18Z</time>
      </trkpt>
      <trkpt lat="47.09859" lon="-1.9946">
        <ele>60</ele>
        <time>2022-10-29T12:12:20Z</time>
      </trkpt>
      <trkpt lat="47.09866" lon="-1.99441">
        <ele>60</ele>
        <time>2022-10-29T12:12:22Z</time>
      </trkpt>
      <trkpt lat="47.09872" lon="-1.99423">
        <ele>60</ele>
        <time>2022-10-29T12:12:24Z</time>
      </trkpt>
      <trkpt lat="47.09879" lon="-1.99405">
        <ele>60</ele>
        <time>2022-10-29T12:12:26Z</time>
      </trkpt>
      <trkpt lat="47.09885" lon="-1.99387">
        <ele>60</ele>
        <time>2022-10-29T12:12:28Z</time>
      </trkpt>
      <trkpt lat="47.09891" lon="-1.99369">
        <ele>60</ele>
        <time>2022-10-29T12:12:30Z</time>
      </trkpt>
      <trkpt lat="47.09897" lon="-1.99352">
        <ele>61</ele>
        <time>2022-10-29T12:12:32Z</time>
      </trkpt>
      <trkpt lat="47.09904" lon="-1.99333">
        <ele>61</ele>
        <time>2022-10-29T12:12:34Z</time>
      </trkpt>
      <trkpt lat="47.09911" lon="-1.99315">
        <ele>61</ele>
        <time>2022-10-29T12:12:36Z</time>
      </trkpt>
      <trkpt lat="47.09917" lon="-1.99296">
        <ele>61</ele>
        <time>2022-10-29T12:12:38Z</time>
      </trkpt>
      <trkpt lat="47.09924" lon="-1.99277">
        <ele>61</ele>
        <time>2022-10-29T12:12:40Z</time>
      </trkpt>
      <trkpt lat="47.09931" lon="-1.99258">
        <ele>60</ele>
        <time>2022-10-29T12:12:42Z</time>
      </trkpt>
      <trkpt lat="47.09937" lon="-1.99239">
        <ele>60</ele>
        <time>2022-10-29T12:12:44Z</time>
      </trkpt>
      <trkpt lat="47.09944" lon="-1.9922">
        <ele>60</ele>
        <time>2022-10-29T12:12:46Z</time>
      </trkpt>
      <trkpt lat="47.09951" lon="-1.992">
        <ele>59</ele>
        <time>2022-10-29T12:12:48Z</time>
      </trkpt>
      <trkpt lat="47.09958" lon="-1.9918">
        <ele>59</ele>
        <time>2022-10-29T12:12:50Z</time>
      </trkpt>
      <trkpt lat="47.09964" lon="-1.99161">
        <ele>59</ele>
        <time>2022-10-29T12:12:52Z</time>
      </trkpt>
      <trkpt lat="47.09971" lon="-1.99141">
        <ele>59</ele>
        <time>2022-10-29T12:12:54Z</time>
      </trkpt>
      <trkpt lat="47.09978" lon="-1.99121">
        <ele>60</ele>
        <time>2022-10-29T12:12:56Z</time>
      </trkpt>
      <trkpt lat="47.09985" lon="-1.99102">
        <ele>60</ele>
        <time>2022-10-29T12:12:58Z</time>
      </trkpt>
      <trkpt lat="47.09993" lon="-1.99084">
        <ele>60</ele>
        <time>2022-10-29T12:13:00Z</time>
      </trkpt>
      <trkpt lat="47.10002" lon="-1.99066">
        <ele>60</ele>
        <time>2022-10-29T12:13:02Z</time>
      </trkpt>
      <trkpt lat="47.10012" lon="-1.99049">
        <ele>59</ele>
        <time>2022-10-29T12:13:04Z</time>
      </trkpt>
      <trkpt lat="47.10021" lon="-1.99033">
        <ele>59</ele>
        <time>2022-10-29T12:13:06Z</time>
      </trkpt>
      <trkpt lat="47.10031" lon="-1.99016">
        <ele>59</ele>
        <time>2022-10-29T12:13:08Z</time>
      </trkpt>
      <trkpt lat="47.10042" lon="-1.99">
        <ele>58</ele>
        <time>2022-10-29T12:13:10Z</time>
      </trkpt>
      <trkpt lat="47.10051" lon="-1.98983">
        <ele>58</ele>
        <time>2022-10-29T12:13:12Z</time>
      </trkpt>
      <trkpt lat="47.10066" lon="-1.98957">
        <ele>57</ele>
        <time>2022-10-29T12:13:15Z</time>
      </trkpt>
      <trkpt lat="47.10076" lon="-1.98941">
        <ele>57</ele>
        <time>2022-10-29T12:13:17Z</time>
      </trkpt>
      <trkpt lat="47.10085" lon="-1.98925">
        <ele>57</ele>
        <time>2022-10-29T12:13:19Z</time>
      </trkpt>
      <trkpt lat="47.10096" lon="-1.98909">
        <ele>56</ele>
        <time>2022-10-29T12:13:21Z</time>
      </trkpt>
      <trkpt lat="47.10107" lon="-1.98893">
        <ele>56</ele>
        <time>2022-10-29T12:13:23Z</time>
      </trkpt>
      <trkpt lat="47.10118" lon="-1.9888">
        <ele>56</ele>
        <time>2022-10-29T12:13:25Z</time>
      </trkpt>
      <trkpt lat="47.10136" lon="-1.98862">
        <ele>56</ele>
        <time>2022-10-29T12:13:28Z</time>
      </trkpt>
      <trkpt lat="47.10155" lon="-1.98845">
        <ele>55</ele>
        <time>2022-10-29T12:13:31Z</time>
      </trkpt>
      <trkpt lat="47.10167" lon="-1.98833">
        <ele>55</ele>
        <time>2022-10-29T12:13:33Z</time>
      </trkpt>
      <trkpt lat="47.1018" lon="-1.98822">
        <ele>56</ele>
        <time>2022-10-29T12:13:35Z</time>
      </trkpt>
      <trkpt lat="47.10193" lon="-1.98809">
        <ele>55</ele>
        <time>2022-10-29T12:13:37Z</time>
      </trkpt>
      <trkpt lat="47.10206" lon="-1.98797">
        <ele>55</ele>
        <time>2022-10-29T12:13:39Z</time>
      </trkpt>
      <trkpt lat="47.10218" lon="-1.98784">
        <ele>54</ele>
        <time>2022-10-29T12:13:41Z</time>
      </trkpt>
      <trkpt lat="47.10229" lon="-1.9877">
        <ele>54</ele>
        <time>2022-10-29T12:13:43Z</time>
      </trkpt>
      <trkpt lat="47.10241" lon="-1.98753">
        <ele>53</ele>
        <time>2022-10-29T12:13:45Z</time>
      </trkpt>
      <trkpt lat="47.10251" lon="-1.98734">
        <ele>52</ele>
        <time>2022-10-29T12:13:47Z</time>
      </trkpt>
      <trkpt lat="47.10261" lon="-1.98714">
        <ele>51</ele>
        <time>2022-10-29T12:13:49Z</time>
      </trkpt>
      <trkpt lat="47.10271" lon="-1.98693">
        <ele>50</ele>
        <time>2022-10-29T12:13:51Z</time>
      </trkpt>
      <trkpt lat="47.10281" lon="-1.98673">
        <ele>50</ele>
        <time>2022-10-29T12:13:53Z</time>
      </trkpt>
      <trkpt lat="47.10291" lon="-1.98652">
        <ele>50</ele>
        <time>2022-10-29T12:13:55Z</time>
      </trkpt>
      <trkpt lat="47.103" lon="-1.98633">
        <ele>49</ele>
        <time>2022-10-29T12:13:57Z</time>
      </trkpt>
      <trkpt lat="47.10309" lon="-1.98613">
        <ele>49</ele>
        <time>2022-10-29T12:13:59Z</time>
      </trkpt>
      <trkpt lat="47.10319" lon="-1.98592">
        <ele>49</ele>
        <time>2022-10-29T12:14:01Z</time>
      </trkpt>
      <trkpt lat="47.10328" lon="-1.98573">
        <ele>48</ele>
        <time>2022-10-29T12:14:03Z</time>
      </trkpt>
      <trkpt lat="47.10338" lon="-1.98553">
        <ele>48</ele>
        <time>2022-10-29T12:14:05Z</time>
      </trkpt>
      <trkpt lat="47.10348" lon="-1.98533">
        <ele>47</ele>
        <time>2022-10-29T12:14:07Z</time>
      </trkpt>
      <trkpt lat="47.10358" lon="-1.98513">
        <ele>47</ele>
        <time>2022-10-29T12:14:09Z</time>
      </trkpt>
      <trkpt lat="47.10367" lon="-1.98493">
        <ele>47</ele>
        <time>2022-10-29T12:14:11Z</time>
      </trkpt>
      <trkpt lat="47.10377" lon="-1.98475">
        <ele>47</ele>
        <time>2022-10-29T12:14:13Z</time>
      </trkpt>
      <trkpt lat="47.10387" lon="-1.98457">
        <ele>47</ele>
        <time>2022-10-29T12:14:15Z</time>
      </trkpt>
      <trkpt lat="47.10398" lon="-1.9844">
        <ele>47</ele>
        <time>2022-10-29T12:14:17Z</time>
      </trkpt>
      <trkpt lat="47.1041" lon="-1.98425">
        <ele>47</ele>
        <time>2022-10-29T12:14:19Z</time>
      </trkpt>
      <trkpt lat="47.10422" lon="-1.98411">
        <ele>47</ele>
        <time>2022-10-29T12:14:21Z</time>
      </trkpt>
      <trkpt lat="47.10435" lon="-1.98399">
        <ele>47</ele>
        <time>2022-10-29T12:14:23Z</time>
      </trkpt>
      <trkpt lat="47.10448" lon="-1.98387">
        <ele>47</ele>
        <time>2022-10-29T12:14:25Z</time>
      </trkpt>
      <trkpt lat="47.10462" lon="-1.98375">
        <ele>48</ele>
        <time>2022-10-29T12:14:27Z</time>
      </trkpt>
      <trkpt lat="47.10475" lon="-1.98364">
        <ele>48</ele>
        <time>2022-10-29T12:14:29Z</time>
      </trkpt>
      <trkpt lat="47.10487" lon="-1.98353">
        <ele>47</ele>
        <time>2022-10-29T12:14:31Z</time>
      </trkpt>
      <trkpt lat="47.105" lon="-1.98342">
        <ele>47</ele>
        <time>2022-10-29T12:14:33Z</time>
      </trkpt>
      <trkpt lat="47.10512" lon="-1.98331">
        <ele>47</ele>
        <time>2022-10-29T12:14:35Z</time>
      </trkpt>
      <trkpt lat="47.10524" lon="-1.98321">
        <ele>47</ele>
        <time>2022-10-29T12:14:37Z</time>
      </trkpt>
      <trkpt lat="47.10536" lon="-1.98311">
        <ele>48</ele>
        <time>2022-10-29T12:14:39Z</time>
      </trkpt>
      <trkpt lat="47.10547" lon="-1.98301">
        <ele>48</ele>
        <time>2022-10-29T12:14:41Z</time>
      </trkpt>
      <trkpt lat="47.10559" lon="-1.98291">
        <ele>48</ele>
        <time>2022-10-29T12:14:43Z</time>
      </trkpt>
      <trkpt lat="47.1057" lon="-1.98281">
        <ele>47</ele>
        <time>2022-10-29T12:14:45Z</time>
      </trkpt>
      <trkpt lat="47.10581" lon="-1.98271">
        <ele>48</ele>
        <time>2022-10-29T12:14:47Z</time>
      </trkpt>
      <trkpt lat="47.10592" lon="-1.98261">
        <ele>48</ele>
        <time>2022-10-29T12:14:49Z</time>
      </trkpt>
      <trkpt lat="47.10602" lon="-1.98253">
        <ele>48</ele>
        <time>2022-10-29T12:14:51Z</time>
      </trkpt>
      <trkpt lat="47.10612" lon="-1.98245">
        <ele>48</ele>
        <time>2022-10-29T12:14:53Z</time>
      </trkpt>
      <trkpt lat="47.10622" lon="-1.98236">
        <ele>49</ele>
        <time>2022-10-29T12:14:55Z</time>
      </trkpt>
      <trkpt lat="47.10632" lon="-1.98227">
        <ele>49</ele>
        <time>2022-10-29T12:14:57Z</time>
      </trkpt>
      <trkpt lat="47.10642" lon="-1.98218">
        <ele>49</ele>
        <time>2022-10-29T12:14:59Z</time>
      </trkpt>
      <trkpt lat="47.10653" lon="-1.98209">
        <ele>49</ele>
        <time>2022-10-29T12:15:01Z</time>
      </trkpt>
      <trkpt lat="47.10662" lon="-1.98199">
        <ele>50</ele>
        <time>2022-10-29T12:15:03Z</time>
      </trkpt>
      <trkpt lat="47.10672" lon="-1.98188">
        <ele>50</ele>
        <time>2022-10-29T12:15:05Z</time>
      </trkpt>
      <trkpt lat="47.10682" lon="-1.98178">
        <ele>50</ele>
        <time>2022-10-29T12:15:07Z</time>
      </trkpt>
      <trkpt lat="47.10691" lon="-1.98168">
        <ele>50</ele>
        <time>2022-10-29T12:15:09Z</time>
      </trkpt>
      <trkpt lat="47.10701" lon="-1.98157">
        <ele>51</ele>
        <time>2022-10-29T12:15:11Z</time>
      </trkpt>
      <trkpt lat="47.1071" lon="-1.98147">
        <ele>51</ele>
        <time>2022-10-29T12:15:13Z</time>
      </trkpt>
      <trkpt lat="47.10719" lon="-1.98137">
        <ele>51</ele>
        <time>2022-10-29T12:15:15Z</time>
      </trkpt>
      <trkpt lat="47.10729" lon="-1.98127">
        <ele>52</ele>
        <time>2022-10-29T12:15:17Z</time>
      </trkpt>
      <trkpt lat="47.10738" lon="-1.98117">
        <ele>52</ele>
        <time>2022-10-29T12:15:19Z</time>
      </trkpt>
      <trkpt lat="47.10747" lon="-1.98108">
        <ele>53</ele>
        <time>2022-10-29T12:15:21Z</time>
      </trkpt>
      <trkpt lat="47.10757" lon="-1.98098">
        <ele>53</ele>
        <time>2022-10-29T12:15:23Z</time>
      </trkpt>
      <trkpt lat="47.10768" lon="-1.98088">
        <ele>52</ele>
        <time>2022-10-29T12:15:25Z</time>
      </trkpt>
      <trkpt lat="47.10778" lon="-1.98079">
        <ele>52</ele>
        <time>2022-10-29T12:15:27Z</time>
      </trkpt>
      <trkpt lat="47.1079" lon="-1.9807">
        <ele>52</ele>
        <time>2022-10-29T12:15:29Z</time>
      </trkpt>
      <trkpt lat="47.10801" lon="-1.98062">
        <ele>51</ele>
        <time>2022-10-29T12:15:31Z</time>
      </trkpt>
      <trkpt lat="47.10813" lon="-1.98054">
        <ele>51</ele>
        <time>2022-10-29T12:15:33Z</time>
      </trkpt>
      <trkpt lat="47.10824" lon="-1.98047">
        <ele>51</ele>
        <time>2022-10-29T12:15:35Z</time>
      </trkpt>
      <trkpt lat="47.10836" lon="-1.98039">
        <ele>51</ele>
        <time>2022-10-29T12:15:37Z</time>
      </trkpt>
      <trkpt lat="47.10848" lon="-1.98032">
        <ele>51</ele>
        <time>2022-10-29T12:15:39Z</time>
      </trkpt>
      <trkpt lat="47.1086" lon="-1.98025">
        <ele>51</ele>
        <time>2022-10-29T12:15:41Z</time>
      </trkpt>
      <trkpt lat="47.10872" lon="-1.98018">
        <ele>51</ele>
        <time>2022-10-29T12:15:43Z</time>
      </trkpt>
      <trkpt lat="47.10884" lon="-1.98011">
        <ele>52</ele>
        <time>2022-10-29T12:15:45Z</time>
      </trkpt>
      <trkpt lat="47.10896" lon="-1.98003">
        <ele>52</ele>
        <time>2022-10-29T12:15:47Z</time>
      </trkpt>
      <trkpt lat="47.10908" lon="-1.97996">
        <ele>51</ele>
        <time>2022-10-29T12:15:49Z</time>
      </trkpt>
      <trkpt lat="47.1092" lon="-1.97989">
        <ele>51</ele>
        <time>2022-10-29T12:15:51Z</time>
      </trkpt>
      <trkpt lat="47.10931" lon="-1.97982">
        <ele>51</ele>
        <time>2022-10-29T12:15:53Z</time>
      </trkpt>
      <trkpt lat="47.10943" lon="-1.97974">
        <ele>51</ele>
        <time>2022-10-29T12:15:55Z</time>
      </trkpt>
      <trkpt lat="47.10956" lon="-1.97967">
        <ele>51</ele>
        <time>2022-10-29T12:15:57Z</time>
      </trkpt>
      <trkpt lat="47.10968" lon="-1.9796">
        <ele>50</ele>
        <time>2022-10-29T12:15:59Z</time>
      </trkpt>
      <trkpt lat="47.1098" lon="-1.97952">
        <ele>50</ele>
        <time>2022-10-29T12:16:01Z</time>
      </trkpt>
      <trkpt lat="47.10992" lon="-1.97945">
        <ele>50</ele>
        <time>2022-10-29T12:16:03Z</time>
      </trkpt>
      <trkpt lat="47.11004" lon="-1.97938">
        <ele>50</ele>
        <time>2022-10-29T12:16:05Z</time>
      </trkpt>
      <trkpt lat="47.11015" lon="-1.97931">
        <ele>50</ele>
        <time>2022-10-29T12:16:07Z</time>
      </trkpt>
      <trkpt lat="47.11027" lon="-1.97924">
        <ele>50</ele>
        <time>2022-10-29T12:16:09Z</time>
      </trkpt>
      <trkpt lat="47.11039" lon="-1.97916">
        <ele>51</ele>
        <time>2022-10-29T12:16:11Z</time>
      </trkpt>
      <trkpt lat="47.11051" lon="-1.97909">
        <ele>51</ele>
        <time>2022-10-29T12:16:13Z</time>
      </trkpt>
      <trkpt lat="47.11062" lon="-1.97902">
        <ele>51</ele>
        <time>2022-10-29T12:16:15Z</time>
      </trkpt>
      <trkpt lat="47.11073" lon="-1.97895">
        <ele>51</ele>
        <time>2022-10-29T12:16:17Z</time>
      </trkpt>
      <trkpt lat="47.11084" lon="-1.97888">
        <ele>51</ele>
        <time>2022-10-29T12:16:19Z</time>
      </trkpt>
      <trkpt lat="47.11095" lon="-1.97883">
        <ele>51</ele>
        <time>2022-10-29T12:16:21Z</time>
      </trkpt>
      <trkpt lat="47.11103" lon="-1.97877">
        <ele>52</ele>
        <time>2022-10-29T12:16:23Z</time>
      </trkpt>
      <trkpt lat="47.11111" lon="-1.97867">
        <ele>52</ele>
        <time>2022-10-29T12:16:29Z</time>
      </trkpt>
      <trkpt lat="47.11118" lon="-1.97854">
        <ele>52</ele>
        <time>2022-10-29T12:16:32Z</time>
      </trkpt>
      <trkpt lat="47.1112" lon="-1.97838">
        <ele>52</ele>
        <time>2022-10-29T12:16:34Z</time>
      </trkpt>
      <trkpt lat="47.1112" lon="-1.9782">
        <ele>52</ele>
        <time>2022-10-29T12:16:36Z</time>
      </trkpt>
      <trkpt lat="47.11119" lon="-1.97802">
        <ele>52</ele>
        <time>2022-10-29T12:16:38Z</time>
      </trkpt>
      <trkpt lat="47.11119" lon="-1.97783">
        <ele>52</ele>
        <time>2022-10-29T12:16:40Z</time>
      </trkpt>
      <trkpt lat="47.11118" lon="-1.97765">
        <ele>53</ele>
        <time>2022-10-29T12:16:42Z</time>
      </trkpt>
      <trkpt lat="47.11118" lon="-1.97746">
        <ele>53</ele>
        <time>2022-10-29T12:16:44Z</time>
      </trkpt>
      <trkpt lat="47.11118" lon="-1.97727">
        <ele>53</ele>
        <time>2022-10-29T12:16:46Z</time>
      </trkpt>
      <trkpt lat="47.11118" lon="-1.97709">
        <ele>53</ele>
        <time>2022-10-29T12:16:48Z</time>
      </trkpt>
      <trkpt lat="47.11117" lon="-1.9769">
        <ele>53</ele>
        <time>2022-10-29T12:16:50Z</time>
      </trkpt>
      <trkpt lat="47.11117" lon="-1.97672">
        <ele>53</ele>
        <time>2022-10-29T12:16:52Z</time>
      </trkpt>
      <trkpt lat="47.11116" lon="-1.97653">
        <ele>54</ele>
        <time>2022-10-29T12:16:54Z</time>
      </trkpt>
      <trkpt lat="47.11116" lon="-1.97635">
        <ele>54</ele>
        <time>2022-10-29T12:16:56Z</time>
      </trkpt>
      <trkpt lat="47.11116" lon="-1.97617">
        <ele>54</ele>
        <time>2022-10-29T12:16:58Z</time>
      </trkpt>
      <trkpt lat="47.11116" lon="-1.97598">
        <ele>54</ele>
        <time>2022-10-29T12:17:00Z</time>
      </trkpt>
      <trkpt lat="47.11115" lon="-1.97579">
        <ele>54</ele>
        <time>2022-10-29T12:17:02Z</time>
      </trkpt>
      <trkpt lat="47.11116" lon="-1.9756">
        <ele>54</ele>
        <time>2022-10-29T12:17:04Z</time>
      </trkpt>
      <trkpt lat="47.11116" lon="-1.97542">
        <ele>54</ele>
        <time>2022-10-29T12:17:06Z</time>
      </trkpt>
      <trkpt lat="47.11116" lon="-1.97523">
        <ele>54</ele>
        <time>2022-10-29T12:17:08Z</time>
      </trkpt>
      <trkpt lat="47.11116" lon="-1.97504">
        <ele>54</ele>
        <time>2022-10-29T12:17:10Z</time>
      </trkpt>
      <trkpt lat="47.11117" lon="-1.97485">
        <ele>54</ele>
        <time>2022-10-29T12:17:12Z</time>
      </trkpt>
      <trkpt lat="47.11117" lon="-1.97467">
        <ele>54</ele>
        <time>2022-10-29T12:17:14Z</time>
      </trkpt>
      <trkpt lat="47.11118" lon="-1.97449">
        <ele>55</ele>
        <time>2022-10-29T12:17:16Z</time>
      </trkpt>
      <trkpt lat="47.11119" lon="-1.9743">
        <ele>55</ele>
        <time>2022-10-29T12:17:18Z</time>
      </trkpt>
      <trkpt lat="47.11121" lon="-1.97411">
        <ele>55</ele>
        <time>2022-10-29T12:17:20Z</time>
      </trkpt>
      <trkpt lat="47.11122" lon="-1.97393">
        <ele>54</ele>
        <time>2022-10-29T12:17:22Z</time>
      </trkpt>
      <trkpt lat="47.11124" lon="-1.97375">
        <ele>54</ele>
        <time>2022-10-29T12:17:24Z</time>
      </trkpt>
      <trkpt lat="47.11126" lon="-1.97357">
        <ele>54</ele>
        <time>2022-10-29T12:17:26Z</time>
      </trkpt>
      <trkpt lat="47.11129" lon="-1.97338">
        <ele>55</ele>
        <time>2022-10-29T12:17:28Z</time>
      </trkpt>
      <trkpt lat="47.11132" lon="-1.9732">
        <ele>54</ele>
        <time>2022-10-29T12:17:30Z</time>
      </trkpt>
      <trkpt lat="47.11135" lon="-1.97302">
        <ele>54</ele>
        <time>2022-10-29T12:17:32Z</time>
      </trkpt>
      <trkpt lat="47.11139" lon="-1.97284">
        <ele>54</ele>
        <time>2022-10-29T12:17:34Z</time>
      </trkpt>
      <trkpt lat="47.11142" lon="-1.97266">
        <ele>54</ele>
        <time>2022-10-29T12:17:36Z</time>
      </trkpt>
      <trkpt lat="47.11146" lon="-1.97247">
        <ele>54</ele>
        <time>2022-10-29T12:17:38Z</time>
      </trkpt>
      <trkpt lat="47.1115" lon="-1.97228">
        <ele>53</ele>
        <time>2022-10-29T12:17:40Z</time>
      </trkpt>
      <trkpt lat="47.11154" lon="-1.9721">
        <ele>53</ele>
        <time>2022-10-29T12:17:42Z</time>
      </trkpt>
      <trkpt lat="47.11158" lon="-1.97191">
        <ele>53</ele>
        <time>2022-10-29T12:17:44Z</time>
      </trkpt>
      <trkpt lat="47.11162" lon="-1.97171">
        <ele>53</ele>
        <time>2022-10-29T12:17:46Z</time>
      </trkpt>
      <trkpt lat="47.11166" lon="-1.97151">
        <ele>53</ele>
        <time>2022-10-29T12:17:48Z</time>
      </trkpt>
      <trkpt lat="47.1117" lon="-1.97132">
        <ele>52</ele>
        <time>2022-10-29T12:17:50Z</time>
      </trkpt>
      <trkpt lat="47.11174" lon="-1.97111">
        <ele>52</ele>
        <time>2022-10-29T12:17:52Z</time>
      </trkpt>
      <trkpt lat="47.11178" lon="-1.9709">
        <ele>52</ele>
        <time>2022-10-29T12:17:54Z</time>
      </trkpt>
      <trkpt lat="47.11182" lon="-1.97069">
        <ele>51</ele>
        <time>2022-10-29T12:17:56Z</time>
      </trkpt>
      <trkpt lat="47.11186" lon="-1.97047">
        <ele>51</ele>
        <time>2022-10-29T12:17:58Z</time>
      </trkpt>
      <trkpt lat="47.11191" lon="-1.97025">
        <ele>50</ele>
        <time>2022-10-29T12:18:00Z</time>
      </trkpt>
      <trkpt lat="47.11196" lon="-1.97003">
        <ele>50</ele>
        <time>2022-10-29T12:18:02Z</time>
      </trkpt>
      <trkpt lat="47.112" lon="-1.96979">
        <ele>49</ele>
        <time>2022-10-29T12:18:04Z</time>
      </trkpt>
      <trkpt lat="47.11205" lon="-1.96956">
        <ele>49</ele>
        <time>2022-10-29T12:18:06Z</time>
      </trkpt>
      <trkpt lat="47.1121" lon="-1.96931">
        <ele>49</ele>
        <time>2022-10-29T12:18:08Z</time>
      </trkpt>
      <trkpt lat="47.11215" lon="-1.96906">
        <ele>49</ele>
        <time>2022-10-29T12:18:10Z</time>
      </trkpt>
      <trkpt lat="47.1122" lon="-1.96881">
        <ele>48</ele>
        <time>2022-10-29T12:18:12Z</time>
      </trkpt>
      <trkpt lat="47.11223" lon="-1.96869">
        <ele>48</ele>
        <time>2022-10-29T12:18:13Z</time>
      </trkpt>
      <trkpt lat="47.11228" lon="-1.96843">
        <ele>47</ele>
        <time>2022-10-29T12:18:15Z</time>
      </trkpt>
      <trkpt lat="47.11233" lon="-1.96818">
        <ele>47</ele>
        <time>2022-10-29T12:18:17Z</time>
      </trkpt>
      <trkpt lat="47.11238" lon="-1.96794">
        <ele>47</ele>
        <time>2022-10-29T12:18:19Z</time>
      </trkpt>
      <trkpt lat="47.11242" lon="-1.9677">
        <ele>47</ele>
        <time>2022-10-29T12:18:21Z</time>
      </trkpt>
      <trkpt lat="47.11246" lon="-1.96747">
        <ele>48</ele>
        <time>2022-10-29T12:18:23Z</time>
      </trkpt>
      <trkpt lat="47.11251" lon="-1.96725">
        <ele>48</ele>
        <time>2022-10-29T12:18:25Z</time>
      </trkpt>
      <trkpt lat="47.11255" lon="-1.96704">
        <ele>49</ele>
        <time>2022-10-29T12:18:27Z</time>
      </trkpt>
      <trkpt lat="47.11259" lon="-1.96683">
        <ele>49</ele>
        <time>2022-10-29T12:18:29Z</time>
      </trkpt>
      <trkpt lat="47.11263" lon="-1.96664">
        <ele>50</ele>
        <time>2022-10-29T12:18:31Z</time>
      </trkpt>
      <trkpt lat="47.11267" lon="-1.96644">
        <ele>50</ele>
        <time>2022-10-29T12:18:33Z</time>
      </trkpt>
      <trkpt lat="47.11271" lon="-1.96624">
        <ele>51</ele>
        <time>2022-10-29T12:18:35Z</time>
      </trkpt>
      <trkpt lat="47.11276" lon="-1.96605">
        <ele>51</ele>
        <time>2022-10-29T12:18:37Z</time>
      </trkpt>
      <trkpt lat="47.11279" lon="-1.96586">
        <ele>52</ele>
        <time>2022-10-29T12:18:39Z</time>
      </trkpt>
      <trkpt lat="47.11283" lon="-1.96567">
        <ele>52</ele>
        <time>2022-10-29T12:18:41Z</time>
      </trkpt>
      <trkpt lat="47.11287" lon="-1.96549">
        <ele>52</ele>
        <time>2022-10-29T12:18:43Z</time>
      </trkpt>
      <trkpt lat="47.11291" lon="-1.96529">
        <ele>52</ele>
        <time>2022-10-29T12:18:45Z</time>
      </trkpt>
      <trkpt lat="47.11295" lon="-1.9651">
        <ele>52</ele>
        <time>2022-10-29T12:18:47Z</time>
      </trkpt>
      <trkpt lat="47.11298" lon="-1.96491">
        <ele>52</ele>
        <time>2022-10-29T12:18:49Z</time>
      </trkpt>
      <trkpt lat="47.11302" lon="-1.96471">
        <ele>52</ele>
        <time>2022-10-29T12:18:51Z</time>
      </trkpt>
      <trkpt lat="47.11306" lon="-1.96452">
        <ele>52</ele>
        <time>2022-10-29T12:18:53Z</time>
      </trkpt>
      <trkpt lat="47.1131" lon="-1.96433">
        <ele>52</ele>
        <time>2022-10-29T12:18:55Z</time>
      </trkpt>
      <trkpt lat="47.11314" lon="-1.96414">
        <ele>52</ele>
        <time>2022-10-29T12:18:57Z</time>
      </trkpt>
      <trkpt lat="47.11317" lon="-1.96395">
        <ele>52</ele>
        <time>2022-10-29T12:18:59Z</time>
      </trkpt>
      <trkpt lat="47.11321" lon="-1.96375">
        <ele>52</ele>
        <time>2022-10-29T12:19:01Z</time>
      </trkpt>
      <trkpt lat="47.11325" lon="-1.96356">
        <ele>52</ele>
        <time>2022-10-29T12:19:03Z</time>
      </trkpt>
      <trkpt lat="47.11329" lon="-1.96336">
        <ele>52</ele>
        <time>2022-10-29T12:19:05Z</time>
      </trkpt>
      <trkpt lat="47.11332" lon="-1.96317">
        <ele>52</ele>
        <time>2022-10-29T12:19:07Z</time>
      </trkpt>
      <trkpt lat="47.11336" lon="-1.96298">
        <ele>53</ele>
        <time>2022-10-29T12:19:09Z</time>
      </trkpt>
      <trkpt lat="47.1134" lon="-1.96279">
        <ele>53</ele>
        <time>2022-10-29T12:19:11Z</time>
      </trkpt>
      <trkpt lat="47.11344" lon="-1.96259">
        <ele>53</ele>
        <time>2022-10-29T12:19:13Z</time>
      </trkpt>
      <trkpt lat="47.11347" lon="-1.96239">
        <ele>53</ele>
        <time>2022-10-29T12:19:15Z</time>
      </trkpt>
      <trkpt lat="47.11351" lon="-1.9622">
        <ele>53</ele>
        <time>2022-10-29T12:19:17Z</time>
      </trkpt>
      <trkpt lat="47.11355" lon="-1.96201">
        <ele>54</ele>
        <time>2022-10-29T12:19:19Z</time>
      </trkpt>
      <trkpt lat="47.11359" lon="-1.96182">
        <ele>54</ele>
        <time>2022-10-29T12:19:21Z</time>
      </trkpt>
      <trkpt lat="47.11363" lon="-1.96163">
        <ele>54</ele>
        <time>2022-10-29T12:19:23Z</time>
      </trkpt>
      <trkpt lat="47.11367" lon="-1.96144">
        <ele>54</ele>
        <time>2022-10-29T12:19:25Z</time>
      </trkpt>
      <trkpt lat="47.11371" lon="-1.96124">
        <ele>54</ele>
        <time>2022-10-29T12:19:27Z</time>
      </trkpt>
      <trkpt lat="47.11375" lon="-1.96104">
        <ele>54</ele>
        <time>2022-10-29T12:19:29Z</time>
      </trkpt>
      <trkpt lat="47.11378" lon="-1.96085">
        <ele>54</ele>
        <time>2022-10-29T12:19:31Z</time>
      </trkpt>
      <trkpt lat="47.11383" lon="-1.96066">
        <ele>53</ele>
        <time>2022-10-29T12:19:33Z</time>
      </trkpt>
      <trkpt lat="47.11387" lon="-1.96046">
        <ele>53</ele>
        <time>2022-10-29T12:19:35Z</time>
      </trkpt>
      <trkpt lat="47.11391" lon="-1.96025">
        <ele>53</ele>
        <time>2022-10-29T12:19:37Z</time>
      </trkpt>
      <trkpt lat="47.11395" lon="-1.96005">
        <ele>52</ele>
        <time>2022-10-29T12:19:39Z</time>
      </trkpt>
      <trkpt lat="47.114" lon="-1.95984">
        <ele>52</ele>
        <time>2022-10-29T12:19:41Z</time>
      </trkpt>
      <trkpt lat="47.11404" lon="-1.95964">
        <ele>52</ele>
        <time>2022-10-29T12:19:43Z</time>
      </trkpt>
      <trkpt lat="47.11408" lon="-1.95944">
        <ele>52</ele>
        <time>2022-10-29T12:19:45Z</time>
      </trkpt>
      <trkpt lat="47.11412" lon="-1.95923">
        <ele>52</ele>
        <time>2022-10-29T12:19:47Z</time>
      </trkpt>
      <trkpt lat="47.11416" lon="-1.95903">
        <ele>52</ele>
        <time>2022-10-29T12:19:49Z</time>
      </trkpt>
      <trkpt lat="47.1142" lon="-1.95882">
        <ele>52</ele>
        <time>2022-10-29T12:19:51Z</time>
      </trkpt>
      <trkpt lat="47.11424" lon="-1.95862">
        <ele>52</ele>
        <time>2022-10-29T12:19:53Z</time>
      </trkpt>
      <trkpt lat="47.11429" lon="-1.95841">
        <ele>52</ele>
        <time>2022-10-29T12:19:55Z</time>
      </trkpt>
      <trkpt lat="47.11433" lon="-1.9582">
        <ele>51</ele>
        <time>2022-10-29T12:19:57Z</time>
      </trkpt>
      <trkpt lat="47.11437" lon="-1.95799">
        <ele>51</ele>
        <time>2022-10-29T12:19:59Z</time>
      </trkpt>
      <trkpt lat="47.11442" lon="-1.95778">
        <ele>50</ele>
        <time>2022-10-29T12:20:01Z</time>
      </trkpt>
      <trkpt lat="47.11446" lon="-1.95757">
        <ele>50</ele>
        <time>2022-10-29T12:20:03Z</time>
      </trkpt>
      <trkpt lat="47.1145" lon="-1.95736">
        <ele>51</ele>
        <time>2022-10-29T12:20:05Z</time>
      </trkpt>
      <trkpt lat="47.11454" lon="-1.95714">
        <ele>51</ele>
        <time>2022-10-29T12:20:07Z</time>
      </trkpt>
      <trkpt lat="47.11459" lon="-1.95693">
        <ele>51</ele>
        <time>2022-10-29T12:20:09Z</time>
      </trkpt>
      <trkpt lat="47.11462" lon="-1.95671">
        <ele>51</ele>
        <time>2022-10-29T12:20:11Z</time>
      </trkpt>
      <trkpt lat="47.11466" lon="-1.9565">
        <ele>51</ele>
        <time>2022-10-29T12:20:13Z</time>
      </trkpt>
      <trkpt lat="47.11471" lon="-1.9563">
        <ele>51</ele>
        <time>2022-10-29T12:20:15Z</time>
      </trkpt>
      <trkpt lat="47.11475" lon="-1.95608">
        <ele>50</ele>
        <time>2022-10-29T12:20:17Z</time>
      </trkpt>
      <trkpt lat="47.11479" lon="-1.95587">
        <ele>51</ele>
        <time>2022-10-29T12:20:19Z</time>
      </trkpt>
      <trkpt lat="47.11483" lon="-1.95567">
        <ele>51</ele>
        <time>2022-10-29T12:20:21Z</time>
      </trkpt>
      <trkpt lat="47.11487" lon="-1.95547">
        <ele>51</ele>
        <time>2022-10-29T12:20:23Z</time>
      </trkpt>
      <trkpt lat="47.11491" lon="-1.95526">
        <ele>51</ele>
        <time>2022-10-29T12:20:25Z</time>
      </trkpt>
      <trkpt lat="47.11495" lon="-1.95506">
        <ele>51</ele>
        <time>2022-10-29T12:20:27Z</time>
      </trkpt>
      <trkpt lat="47.11499" lon="-1.95487">
        <ele>52</ele>
        <time>2022-10-29T12:20:29Z</time>
      </trkpt>
      <trkpt lat="47.11503" lon="-1.95467">
        <ele>52</ele>
        <time>2022-10-29T12:20:31Z</time>
      </trkpt>
      <trkpt lat="47.11507" lon="-1.95447">
        <ele>52</ele>
        <time>2022-10-29T12:20:33Z</time>
      </trkpt>
      <trkpt lat="47.11511" lon="-1.95427">
        <ele>53</ele>
        <time>2022-10-29T12:20:35Z</time>
      </trkpt>
      <trkpt lat="47.11515" lon="-1.95407">
        <ele>53</ele>
        <time>2022-10-29T12:20:37Z</time>
      </trkpt>
      <trkpt lat="47.11519" lon="-1.95388">
        <ele>53</ele>
        <time>2022-10-29T12:20:39Z</time>
      </trkpt>
      <trkpt lat="47.11523" lon="-1.95368">
        <ele>53</ele>
        <time>2022-10-29T12:20:41Z</time>
      </trkpt>
      <trkpt lat="47.11527" lon="-1.95348">
        <ele>53</ele>
        <time>2022-10-29T12:20:43Z</time>
      </trkpt>
      <trkpt lat="47.11531" lon="-1.95328">
        <ele>54</ele>
        <time>2022-10-29T12:20:45Z</time>
      </trkpt>
      <trkpt lat="47.11536" lon="-1.95309">
        <ele>54</ele>
        <time>2022-10-29T12:20:47Z</time>
      </trkpt>
      <trkpt lat="47.1154" lon="-1.95289">
        <ele>54</ele>
        <time>2022-10-29T12:20:49Z</time>
      </trkpt>
      <trkpt lat="47.11545" lon="-1.95269">
        <ele>53</ele>
        <time>2022-10-29T12:20:51Z</time>
      </trkpt>
      <trkpt lat="47.1155" lon="-1.9525">
        <ele>53</ele>
        <time>2022-10-29T12:20:53Z</time>
      </trkpt>
      <trkpt lat="47.11555" lon="-1.95229">
        <ele>53</ele>
        <time>2022-10-29T12:20:55Z</time>
      </trkpt>
      <trkpt lat="47.11558" lon="-1.95209">
        <ele>53</ele>
        <time>2022-10-29T12:20:57Z</time>
      </trkpt>
      <trkpt lat="47.11559" lon="-1.95188">
        <ele>53</ele>
        <time>2022-10-29T12:20:59Z</time>
      </trkpt>
      <trkpt lat="47.11558" lon="-1.95167">
        <ele>53</ele>
        <time>2022-10-29T12:21:01Z</time>
      </trkpt>
      <trkpt lat="47.11557" lon="-1.95147">
        <ele>53</ele>
        <time>2022-10-29T12:21:03Z</time>
      </trkpt>
      <trkpt lat="47.11557" lon="-1.95127">
        <ele>53</ele>
        <time>2022-10-29T12:21:05Z</time>
      </trkpt>
      <trkpt lat="47.11556" lon="-1.95107">
        <ele>53</ele>
        <time>2022-10-29T12:21:07Z</time>
      </trkpt>
      <trkpt lat="47.11556" lon="-1.95089">
        <ele>53</ele>
        <time>2022-10-29T12:21:09Z</time>
      </trkpt>
      <trkpt lat="47.11555" lon="-1.95069">
        <ele>53</ele>
        <time>2022-10-29T12:21:11Z</time>
      </trkpt>
      <trkpt lat="47.11554" lon="-1.9505">
        <ele>53</ele>
        <time>2022-10-29T12:21:13Z</time>
      </trkpt>
      <trkpt lat="47.11553" lon="-1.95031">
        <ele>53</ele>
        <time>2022-10-29T12:21:15Z</time>
      </trkpt>
      <trkpt lat="47.11553" lon="-1.95012">
        <ele>53</ele>
        <time>2022-10-29T12:21:17Z</time>
      </trkpt>
      <trkpt lat="47.11552" lon="-1.94994">
        <ele>53</ele>
        <time>2022-10-29T12:21:19Z</time>
      </trkpt>
      <trkpt lat="47.11551" lon="-1.94978">
        <ele>53</ele>
        <time>2022-10-29T12:21:21Z</time>
      </trkpt>
      <trkpt lat="47.11546" lon="-1.94963">
        <ele>53</ele>
        <time>2022-10-29T12:21:23Z</time>
      </trkpt>
      <trkpt lat="47.1154" lon="-1.94947">
        <ele>53</ele>
        <time>2022-10-29T12:21:25Z</time>
      </trkpt>
      <trkpt lat="47.11539" lon="-1.94926">
        <ele>53</ele>
        <time>2022-10-29T12:21:27Z</time>
      </trkpt>
      <trkpt lat="47.11538" lon="-1.94906">
        <ele>53</ele>
        <time>2022-10-29T12:21:29Z</time>
      </trkpt>
      <trkpt lat="47.1154" lon="-1.94886">
        <ele>53</ele>
        <time>2022-10-29T12:21:31Z</time>
      </trkpt>
      <trkpt lat="47.11548" lon="-1.94869">
        <ele>53</ele>
        <time>2022-10-29T12:21:33Z</time>
      </trkpt>
      <trkpt lat="47.11561" lon="-1.94858">
        <ele>53</ele>
        <time>2022-10-29T12:21:35Z</time>
      </trkpt>
      <trkpt lat="47.11575" lon="-1.94851">
        <ele>53</ele>
        <time>2022-10-29T12:21:37Z</time>
      </trkpt>
      <trkpt lat="47.1159" lon="-1.94843">
        <ele>53</ele>
        <time>2022-10-29T12:21:39Z</time>
      </trkpt>
      <trkpt lat="47.11604" lon="-1.94834">
        <ele>53</ele>
        <time>2022-10-29T12:21:41Z</time>
      </trkpt>
      <trkpt lat="47.11616" lon="-1.94823">
        <ele>53</ele>
        <time>2022-10-29T12:21:43Z</time>
      </trkpt>
      <trkpt lat="47.11627" lon="-1.94808">
        <ele>53</ele>
        <time>2022-10-29T12:21:45Z</time>
      </trkpt>
      <trkpt lat="47.11635" lon="-1.94791">
        <ele>52</ele>
        <time>2022-10-29T12:21:47Z</time>
      </trkpt>
      <trkpt lat="47.11642" lon="-1.94772">
        <ele>52</ele>
        <time>2022-10-29T12:21:49Z</time>
      </trkpt>
      <trkpt lat="47.11647" lon="-1.94752">
        <ele>52</ele>
        <time>2022-10-29T12:21:51Z</time>
      </trkpt>
      <trkpt lat="47.1165" lon="-1.94732">
        <ele>52</ele>
        <time>2022-10-29T12:21:53Z</time>
      </trkpt>
      <trkpt lat="47.11653" lon="-1.94711">
        <ele>51</ele>
        <time>2022-10-29T12:21:55Z</time>
      </trkpt>
      <trkpt lat="47.11657" lon="-1.9469">
        <ele>51</ele>
        <time>2022-10-29T12:21:57Z</time>
      </trkpt>
      <trkpt lat="47.11661" lon="-1.9467">
        <ele>51</ele>
        <time>2022-10-29T12:21:59Z</time>
      </trkpt>
      <trkpt lat="47.11665" lon="-1.94649">
        <ele>51</ele>
        <time>2022-10-29T12:22:01Z</time>
      </trkpt>
      <trkpt lat="47.1167" lon="-1.94629">
        <ele>51</ele>
        <time>2022-10-29T12:22:03Z</time>
      </trkpt>
      <trkpt lat="47.11676" lon="-1.94608">
        <ele>51</ele>
        <time>2022-10-29T12:22:05Z</time>
      </trkpt>
      <trkpt lat="47.11681" lon="-1.94589">
        <ele>51</ele>
        <time>2022-10-29T12:22:07Z</time>
      </trkpt>
      <trkpt lat="47.11685" lon="-1.94569">
        <ele>51</ele>
        <time>2022-10-29T12:22:09Z</time>
      </trkpt>
      <trkpt lat="47.11687" lon="-1.94547">
        <ele>51</ele>
        <time>2022-10-29T12:22:11Z</time>
      </trkpt>
      <trkpt lat="47.11687" lon="-1.94526">
        <ele>52</ele>
        <time>2022-10-29T12:22:13Z</time>
      </trkpt>
      <trkpt lat="47.11687" lon="-1.94504">
        <ele>52</ele>
        <time>2022-10-29T12:22:15Z</time>
      </trkpt>
      <trkpt lat="47.11685" lon="-1.94483">
        <ele>52</ele>
        <time>2022-10-29T12:22:17Z</time>
      </trkpt>
      <trkpt lat="47.11683" lon="-1.94462">
        <ele>52</ele>
        <time>2022-10-29T12:22:19Z</time>
      </trkpt>
      <trkpt lat="47.11681" lon="-1.94441">
        <ele>53</ele>
        <time>2022-10-29T12:22:21Z</time>
      </trkpt>
      <trkpt lat="47.11677" lon="-1.94421">
        <ele>54</ele>
        <time>2022-10-29T12:22:23Z</time>
      </trkpt>
      <trkpt lat="47.11674" lon="-1.94402">
        <ele>53</ele>
        <time>2022-10-29T12:22:25Z</time>
      </trkpt>
      <trkpt lat="47.11669" lon="-1.94383">
        <ele>53</ele>
        <time>2022-10-29T12:22:27Z</time>
      </trkpt>
      <trkpt lat="47.11664" lon="-1.94364">
        <ele>54</ele>
        <time>2022-10-29T12:22:29Z</time>
      </trkpt>
      <trkpt lat="47.11659" lon="-1.94345">
        <ele>54</ele>
        <time>2022-10-29T12:22:31Z</time>
      </trkpt>
      <trkpt lat="47.11655" lon="-1.94326">
        <ele>54</ele>
        <time>2022-10-29T12:22:33Z</time>
      </trkpt>
      <trkpt lat="47.1165" lon="-1.94308">
        <ele>54</ele>
        <time>2022-10-29T12:22:35Z</time>
      </trkpt>
      <trkpt lat="47.11646" lon="-1.9429">
        <ele>54</ele>
        <time>2022-10-29T12:22:37Z</time>
      </trkpt>
      <trkpt lat="47.11641" lon="-1.94273">
        <ele>55</ele>
        <time>2022-10-29T12:22:39Z</time>
      </trkpt>
      <trkpt lat="47.11635" lon="-1.94258">
        <ele>55</ele>
        <time>2022-10-29T12:22:41Z</time>
      </trkpt>
      <trkpt lat="47.11629" lon="-1.94242">
        <ele>55</ele>
        <time>2022-10-29T12:22:43Z</time>
      </trkpt>
      <trkpt lat="47.11623" lon="-1.94226">
        <ele>55</ele>
        <time>2022-10-29T12:22:45Z</time>
      </trkpt>
      <trkpt lat="47.11617" lon="-1.94211">
        <ele>55</ele>
        <time>2022-10-29T12:22:47Z</time>
      </trkpt>
      <trkpt lat="47.11612" lon="-1.94196">
        <ele>56</ele>
        <time>2022-10-29T12:22:49Z</time>
      </trkpt>
      <trkpt lat="47.11606" lon="-1.94181">
        <ele>56</ele>
        <time>2022-10-29T12:22:51Z</time>
      </trkpt>
      <trkpt lat="47.116" lon="-1.94165">
        <ele>56</ele>
        <time>2022-10-29T12:22:53Z</time>
      </trkpt>
      <trkpt lat="47.11594" lon="-1.9415">
        <ele>57</ele>
        <time>2022-10-29T12:22:55Z</time>
      </trkpt>
      <trkpt lat="47.11588" lon="-1.94136">
        <ele>57</ele>
        <time>2022-10-29T12:22:57Z</time>
      </trkpt>
      <trkpt lat="47.11582" lon="-1.94121">
        <ele>56</ele>
        <time>2022-10-29T12:22:59Z</time>
      </trkpt>
      <trkpt lat="47.11576" lon="-1.94107">
        <ele>56</ele>
        <time>2022-10-29T12:23:01Z</time>
      </trkpt>
      <trkpt lat="47.1157" lon="-1.94094">
        <ele>56</ele>
        <time>2022-10-29T12:23:03Z</time>
      </trkpt>
      <trkpt lat="47.11562" lon="-1.94081">
        <ele>56</ele>
        <time>2022-10-29T12:23:05Z</time>
      </trkpt>
      <trkpt lat="47.11555" lon="-1.94068">
        <ele>56</ele>
        <time>2022-10-29T12:23:07Z</time>
      </trkpt>
      <trkpt lat="47.11548" lon="-1.94056">
        <ele>56</ele>
        <time>2022-10-29T12:23:09Z</time>
      </trkpt>
      <trkpt lat="47.11541" lon="-1.94044">
        <ele>56</ele>
        <time>2022-10-29T12:23:11Z</time>
      </trkpt>
      <trkpt lat="47.11534" lon="-1.94031">
        <ele>55</ele>
        <time>2022-10-29T12:23:13Z</time>
      </trkpt>
      <trkpt lat="47.11528" lon="-1.94018">
        <ele>55</ele>
        <time>2022-10-29T12:23:15Z</time>
      </trkpt>
      <trkpt lat="47.11521" lon="-1.94005">
        <ele>56</ele>
        <time>2022-10-29T12:23:17Z</time>
      </trkpt>
      <trkpt lat="47.11514" lon="-1.93993">
        <ele>56</ele>
        <time>2022-10-29T12:23:19Z</time>
      </trkpt>
      <trkpt lat="47.11505" lon="-1.93982">
        <ele>56</ele>
        <time>2022-10-29T12:23:21Z</time>
      </trkpt>
      <trkpt lat="47.11497" lon="-1.93971">
        <ele>57</ele>
        <time>2022-10-29T12:23:23Z</time>
      </trkpt>
      <trkpt lat="47.11489" lon="-1.9396">
        <ele>57</ele>
        <time>2022-10-29T12:23:25Z</time>
      </trkpt>
      <trkpt lat="47.11482" lon="-1.93949">
        <ele>57</ele>
        <time>2022-10-29T12:23:27Z</time>
      </trkpt>
      <trkpt lat="47.11474" lon="-1.93937">
        <ele>57</ele>
        <time>2022-10-29T12:23:29Z</time>
      </trkpt>
      <trkpt lat="47.11467" lon="-1.93925">
        <ele>58</ele>
        <time>2022-10-29T12:23:31Z</time>
      </trkpt>
      <trkpt lat="47.1146" lon="-1.93913">
        <ele>58</ele>
        <time>2022-10-29T12:23:33Z</time>
      </trkpt>
      <trkpt lat="47.11452" lon="-1.93901">
        <ele>59</ele>
        <time>2022-10-29T12:23:35Z</time>
      </trkpt>
      <trkpt lat="47.11444" lon="-1.9389">
        <ele>59</ele>
        <time>2022-10-29T12:23:37Z</time>
      </trkpt>
      <trkpt lat="47.11436" lon="-1.93879">
        <ele>59</ele>
        <time>2022-10-29T12:23:39Z</time>
      </trkpt>
      <trkpt lat="47.11429" lon="-1.93868">
        <ele>59</ele>
        <time>2022-10-29T12:23:41Z</time>
      </trkpt>
      <trkpt lat="47.11421" lon="-1.93857">
        <ele>59</ele>
        <time>2022-10-29T12:23:43Z</time>
      </trkpt>
      <trkpt lat="47.11413" lon="-1.93845">
        <ele>59</ele>
        <time>2022-10-29T12:23:45Z</time>
      </trkpt>
      <trkpt lat="47.11407" lon="-1.93833">
        <ele>59</ele>
        <time>2022-10-29T12:23:47Z</time>
      </trkpt>
      <trkpt lat="47.11401" lon="-1.93822">
        <ele>59</ele>
        <time>2022-10-29T12:23:49Z</time>
      </trkpt>
      <trkpt lat="47.11394" lon="-1.93811">
        <ele>59</ele>
        <time>2022-10-29T12:23:51Z</time>
      </trkpt>
      <trkpt lat="47.11389" lon="-1.93801">
        <ele>60</ele>
        <time>2022-10-29T12:23:53Z</time>
      </trkpt>
      <trkpt lat="47.11382" lon="-1.93786">
        <ele>60</ele>
        <time>2022-10-29T12:23:56Z</time>
      </trkpt>
      <trkpt lat="47.11384" lon="-1.9377">
        <ele>59</ele>
        <time>2022-10-29T12:23:58Z</time>
      </trkpt>
      <trkpt lat="47.11395" lon="-1.9376">
        <ele>59</ele>
        <time>2022-10-29T12:24:00Z</time>
      </trkpt>
      <trkpt lat="47.11408" lon="-1.93754">
        <ele>59</ele>
        <time>2022-10-29T12:24:02Z</time>
      </trkpt>
      <trkpt lat="47.11421" lon="-1.9375">
        <ele>59</ele>
        <time>2022-10-29T12:24:04Z</time>
      </trkpt>
      <trkpt lat="47.11434" lon="-1.93749">
        <ele>59</ele>
        <time>2022-10-29T12:24:06Z</time>
      </trkpt>
      <trkpt lat="47.11448" lon="-1.93749">
        <ele>59</ele>
        <time>2022-10-29T12:24:08Z</time>
      </trkpt>
      <trkpt lat="47.11461" lon="-1.93745">
        <ele>59</ele>
        <time>2022-10-29T12:24:10Z</time>
      </trkpt>
      <trkpt lat="47.11473" lon="-1.93738">
        <ele>59</ele>
        <time>2022-10-29T12:24:12Z</time>
      </trkpt>
      <trkpt lat="47.11484" lon="-1.9373">
        <ele>59</ele>
        <time>2022-10-29T12:24:14Z</time>
      </trkpt>
      <trkpt lat="47.11493" lon="-1.93716">
        <ele>58</ele>
        <time>2022-10-29T12:24:16Z</time>
      </trkpt>
      <trkpt lat="47.11499" lon="-1.937">
        <ele>59</ele>
        <time>2022-10-29T12:24:18Z</time>
      </trkpt>
      <trkpt lat="47.11506" lon="-1.93685">
        <ele>59</ele>
        <time>2022-10-29T12:24:20Z</time>
      </trkpt>
      <trkpt lat="47.11513" lon="-1.9367">
        <ele>58</ele>
        <time>2022-10-29T12:24:22Z</time>
      </trkpt>
      <trkpt lat="47.1152" lon="-1.93656">
        <ele>58</ele>
        <time>2022-10-29T12:24:24Z</time>
      </trkpt>
      <trkpt lat="47.11528" lon="-1.93641">
        <ele>58</ele>
        <time>2022-10-29T12:24:26Z</time>
      </trkpt>
      <trkpt lat="47.11535" lon="-1.93626">
        <ele>58</ele>
        <time>2022-10-29T12:24:28Z</time>
      </trkpt>
      <trkpt lat="47.11541" lon="-1.93611">
        <ele>58</ele>
        <time>2022-10-29T12:24:30Z</time>
      </trkpt>
      <trkpt lat="47.11547" lon="-1.93595">
        <ele>57</ele>
        <time>2022-10-29T12:24:32Z</time>
      </trkpt>
      <trkpt lat="47.11552" lon="-1.93579">
        <ele>57</ele>
        <time>2022-10-29T12:24:34Z</time>
      </trkpt>
      <trkpt lat="47.11557" lon="-1.93562">
        <ele>57</ele>
        <time>2022-10-29T12:24:36Z</time>
      </trkpt>
      <trkpt lat="47.11563" lon="-1.93545">
        <ele>57</ele>
        <time>2022-10-29T12:24:38Z</time>
      </trkpt>
      <trkpt lat="47.11569" lon="-1.93528">
        <ele>57</ele>
        <time>2022-10-29T12:24:40Z</time>
      </trkpt>
      <trkpt lat="47.11575" lon="-1.93511">
        <ele>57</ele>
        <time>2022-10-29T12:24:42Z</time>
      </trkpt>
      <trkpt lat="47.1158" lon="-1.93493">
        <ele>57</ele>
        <time>2022-10-29T12:24:44Z</time>
      </trkpt>
      <trkpt lat="47.11585" lon="-1.93476">
        <ele>57</ele>
        <time>2022-10-29T12:24:46Z</time>
      </trkpt>
      <trkpt lat="47.11591" lon="-1.93458">
        <ele>57</ele>
        <time>2022-10-29T12:24:48Z</time>
      </trkpt>
      <trkpt lat="47.11596" lon="-1.9344">
        <ele>57</ele>
        <time>2022-10-29T12:24:50Z</time>
      </trkpt>
      <trkpt lat="47.11601" lon="-1.93422">
        <ele>57</ele>
        <time>2022-10-29T12:24:52Z</time>
      </trkpt>
      <trkpt lat="47.11607" lon="-1.93404">
        <ele>57</ele>
        <time>2022-10-29T12:24:54Z</time>
      </trkpt>
      <trkpt lat="47.11613" lon="-1.93386">
        <ele>57</ele>
        <time>2022-10-29T12:24:56Z</time>
      </trkpt>
      <trkpt lat="47.11618" lon="-1.93369">
        <ele>58</ele>
        <time>2022-10-29T12:24:58Z</time>
      </trkpt>
      <trkpt lat="47.11624" lon="-1.93352">
        <ele>58</ele>
        <time>2022-10-29T12:25:00Z</time>
      </trkpt>
      <trkpt lat="47.11629" lon="-1.93334">
        <ele>58</ele>
        <time>2022-10-29T12:25:02Z</time>
      </trkpt>
      <trkpt lat="47.11635" lon="-1.93315">
        <ele>58</ele>
        <time>2022-10-29T12:25:04Z</time>
      </trkpt>
      <trkpt lat="47.1164" lon="-1.93297">
        <ele>58</ele>
        <time>2022-10-29T12:25:06Z</time>
      </trkpt>
      <trkpt lat="47.11645" lon="-1.93278">
        <ele>57</ele>
        <time>2022-10-29T12:25:08Z</time>
      </trkpt>
      <trkpt lat="47.11651" lon="-1.93259">
        <ele>57</ele>
        <time>2022-10-29T12:25:10Z</time>
      </trkpt>
      <trkpt lat="47.11657" lon="-1.93241">
        <ele>56</ele>
        <time>2022-10-29T12:25:12Z</time>
      </trkpt>
      <trkpt lat="47.11663" lon="-1.93222">
        <ele>56</ele>
        <time>2022-10-29T12:25:14Z</time>
      </trkpt>
      <trkpt lat="47.11668" lon="-1.93204">
        <ele>56</ele>
        <time>2022-10-29T12:25:16Z</time>
      </trkpt>
      <trkpt lat="47.11673" lon="-1.93186">
        <ele>56</ele>
        <time>2022-10-29T12:25:18Z</time>
      </trkpt>
      <trkpt lat="47.11678" lon="-1.93168">
        <ele>56</ele>
        <time>2022-10-29T12:25:20Z</time>
      </trkpt>
      <trkpt lat="47.11684" lon="-1.93149">
        <ele>56</ele>
        <time>2022-10-29T12:25:22Z</time>
      </trkpt>
      <trkpt lat="47.11689" lon="-1.93131">
        <ele>56</ele>
        <time>2022-10-29T12:25:24Z</time>
      </trkpt>
      <trkpt lat="47.11695" lon="-1.93113">
        <ele>56</ele>
        <time>2022-10-29T12:25:26Z</time>
      </trkpt>
      <trkpt lat="47.117" lon="-1.93096">
        <ele>56</ele>
        <time>2022-10-29T12:25:28Z</time>
      </trkpt>
      <trkpt lat="47.11705" lon="-1.93078">
        <ele>56</ele>
        <time>2022-10-29T12:25:30Z</time>
      </trkpt>
      <trkpt lat="47.11711" lon="-1.9306">
        <ele>56</ele>
        <time>2022-10-29T12:25:32Z</time>
      </trkpt>
      <trkpt lat="47.11715" lon="-1.93042">
        <ele>56</ele>
        <time>2022-10-29T12:25:34Z</time>
      </trkpt>
      <trkpt lat="47.11719" lon="-1.93024">
        <ele>56</ele>
        <time>2022-10-29T12:25:36Z</time>
      </trkpt>
      <trkpt lat="47.11724" lon="-1.93007">
        <ele>56</ele>
        <time>2022-10-29T12:25:38Z</time>
      </trkpt>
      <trkpt lat="47.1173" lon="-1.92989">
        <ele>55</ele>
        <time>2022-10-29T12:25:40Z</time>
      </trkpt>
      <trkpt lat="47.11734" lon="-1.92973">
        <ele>55</ele>
        <time>2022-10-29T12:25:42Z</time>
      </trkpt>
      <trkpt lat="47.11737" lon="-1.92957">
        <ele>55</ele>
        <time>2022-10-29T12:25:44Z</time>
      </trkpt>
      <trkpt lat="47.11741" lon="-1.92942">
        <ele>55</ele>
        <time>2022-10-29T12:25:46Z</time>
      </trkpt>
      <trkpt lat="47.11749" lon="-1.9293">
        <ele>55</ele>
        <time>2022-10-29T12:25:48Z</time>
      </trkpt>
      <trkpt lat="47.11757" lon="-1.92918">
        <ele>55</ele>
        <time>2022-10-29T12:25:50Z</time>
      </trkpt>
      <trkpt lat="47.11762" lon="-1.92899">
        <ele>55</ele>
        <time>2022-10-29T12:25:52Z</time>
      </trkpt>
      <trkpt lat="47.11768" lon="-1.9288">
        <ele>55</ele>
        <time>2022-10-29T12:25:54Z</time>
      </trkpt>
      <trkpt lat="47.11773" lon="-1.92862">
        <ele>55</ele>
        <time>2022-10-29T12:25:56Z</time>
      </trkpt>
      <trkpt lat="47.11779" lon="-1.92844">
        <ele>55</ele>
        <time>2022-10-29T12:25:58Z</time>
      </trkpt>
      <trkpt lat="47.11784" lon="-1.92826">
        <ele>55</ele>
        <time>2022-10-29T12:26:00Z</time>
      </trkpt>
      <trkpt lat="47.1179" lon="-1.92809">
        <ele>55</ele>
        <time>2022-10-29T12:26:02Z</time>
      </trkpt>
      <trkpt lat="47.11796" lon="-1.92791">
        <ele>56</ele>
        <time>2022-10-29T12:26:04Z</time>
      </trkpt>
      <trkpt lat="47.11801" lon="-1.92773">
        <ele>55</ele>
        <time>2022-10-29T12:26:06Z</time>
      </trkpt>
      <trkpt lat="47.11807" lon="-1.92753">
        <ele>55</ele>
        <time>2022-10-29T12:26:08Z</time>
      </trkpt>
      <trkpt lat="47.11812" lon="-1.92735">
        <ele>55</ele>
        <time>2022-10-29T12:26:10Z</time>
      </trkpt>
      <trkpt lat="47.11818" lon="-1.92717">
        <ele>55</ele>
        <time>2022-10-29T12:26:12Z</time>
      </trkpt>
      <trkpt lat="47.11824" lon="-1.92699">
        <ele>55</ele>
        <time>2022-10-29T12:26:14Z</time>
      </trkpt>
      <trkpt lat="47.1183" lon="-1.92681">
        <ele>55</ele>
        <time>2022-10-29T12:26:16Z</time>
      </trkpt>
      <trkpt lat="47.11835" lon="-1.92663">
        <ele>55</ele>
        <time>2022-10-29T12:26:18Z</time>
      </trkpt>
      <trkpt lat="47.11841" lon="-1.92644">
        <ele>55</ele>
        <time>2022-10-29T12:26:20Z</time>
      </trkpt>
      <trkpt lat="47.11847" lon="-1.92626">
        <ele>54</ele>
        <time>2022-10-29T12:26:22Z</time>
      </trkpt>
      <trkpt lat="47.11852" lon="-1.92608">
        <ele>54</ele>
        <time>2022-10-29T12:26:24Z</time>
      </trkpt>
      <trkpt lat="47.11858" lon="-1.9259">
        <ele>54</ele>
        <time>2022-10-29T12:26:26Z</time>
      </trkpt>
      <trkpt lat="47.11863" lon="-1.92572">
        <ele>55</ele>
        <time>2022-10-29T12:26:28Z</time>
      </trkpt>
      <trkpt lat="47.11869" lon="-1.92554">
        <ele>54</ele>
        <time>2022-10-29T12:26:30Z</time>
      </trkpt>
      <trkpt lat="47.11874" lon="-1.92536">
        <ele>54</ele>
        <time>2022-10-29T12:26:32Z</time>
      </trkpt>
      <trkpt lat="47.11879" lon="-1.92518">
        <ele>54</ele>
        <time>2022-10-29T12:26:34Z</time>
      </trkpt>
      <trkpt lat="47.11885" lon="-1.925">
        <ele>54</ele>
        <time>2022-10-29T12:26:36Z</time>
      </trkpt>
      <trkpt lat="47.11891" lon="-1.92483">
        <ele>55</ele>
        <time>2022-10-29T12:26:38Z</time>
      </trkpt>
      <trkpt lat="47.11896" lon="-1.92465">
        <ele>54</ele>
        <time>2022-10-29T12:26:40Z</time>
      </trkpt>
      <trkpt lat="47.11902" lon="-1.92448">
        <ele>55</ele>
        <time>2022-10-29T12:26:42Z</time>
      </trkpt>
      <trkpt lat="47.11907" lon="-1.92431">
        <ele>54</ele>
        <time>2022-10-29T12:26:44Z</time>
      </trkpt>
      <trkpt lat="47.11912" lon="-1.92414">
        <ele>54</ele>
        <time>2022-10-29T12:26:46Z</time>
      </trkpt>
      <trkpt lat="47.11917" lon="-1.92397">
        <ele>54</ele>
        <time>2022-10-29T12:26:48Z</time>
      </trkpt>
      <trkpt lat="47.11921" lon="-1.9238">
        <ele>55</ele>
        <time>2022-10-29T12:26:50Z</time>
      </trkpt>
      <trkpt lat="47.11926" lon="-1.92363">
        <ele>55</ele>
        <time>2022-10-29T12:26:52Z</time>
      </trkpt>
      <trkpt lat="47.11931" lon="-1.92347">
        <ele>56</ele>
        <time>2022-10-29T12:26:54Z</time>
      </trkpt>
      <trkpt lat="47.11937" lon="-1.92331">
        <ele>56</ele>
        <time>2022-10-29T12:26:56Z</time>
      </trkpt>
      <trkpt lat="47.11942" lon="-1.92315">
        <ele>57</ele>
        <time>2022-10-29T12:26:58Z</time>
      </trkpt>
      <trkpt lat="47.11947" lon="-1.92299">
        <ele>57</ele>
        <time>2022-10-29T12:27:00Z</time>
      </trkpt>
      <trkpt lat="47.11952" lon="-1.92282">
        <ele>57</ele>
        <time>2022-10-29T12:27:02Z</time>
      </trkpt>
      <trkpt lat="47.11957" lon="-1.92265">
        <ele>57</ele>
        <time>2022-10-29T12:27:04Z</time>
      </trkpt>
      <trkpt lat="47.11962" lon="-1.92249">
        <ele>57</ele>
        <time>2022-10-29T12:27:06Z</time>
      </trkpt>
      <trkpt lat="47.11966" lon="-1.92233">
        <ele>57</ele>
        <time>2022-10-29T12:27:08Z</time>
      </trkpt>
      <trkpt lat="47.11971" lon="-1.92217">
        <ele>57</ele>
        <time>2022-10-29T12:27:10Z</time>
      </trkpt>
      <trkpt lat="47.11976" lon="-1.92202">
        <ele>57</ele>
        <time>2022-10-29T12:27:12Z</time>
      </trkpt>
      <trkpt lat="47.11978" lon="-1.92187">
        <ele>58</ele>
        <time>2022-10-29T12:27:14Z</time>
      </trkpt>
      <trkpt lat="47.11984" lon="-1.92172">
        <ele>58</ele>
        <time>2022-10-29T12:27:16Z</time>
      </trkpt>
      <trkpt lat="47.11991" lon="-1.92157">
        <ele>58</ele>
        <time>2022-10-29T12:27:18Z</time>
      </trkpt>
      <trkpt lat="47.11995" lon="-1.92139">
        <ele>58</ele>
        <time>2022-10-29T12:27:20Z</time>
      </trkpt>
      <trkpt lat="47.11999" lon="-1.92122">
        <ele>58</ele>
        <time>2022-10-29T12:27:22Z</time>
      </trkpt>
      <trkpt lat="47.12004" lon="-1.92106">
        <ele>59</ele>
        <time>2022-10-29T12:27:24Z</time>
      </trkpt>
      <trkpt lat="47.12009" lon="-1.9209">
        <ele>59</ele>
        <time>2022-10-29T12:27:26Z</time>
      </trkpt>
      <trkpt lat="47.12014" lon="-1.92074">
        <ele>59</ele>
        <time>2022-10-29T12:27:28Z</time>
      </trkpt>
      <trkpt lat="47.12019" lon="-1.92057">
        <ele>59</ele>
        <time>2022-10-29T12:27:30Z</time>
      </trkpt>
      <trkpt lat="47.12024" lon="-1.9204">
        <ele>59</ele>
        <time>2022-10-29T12:27:32Z</time>
      </trkpt>
      <trkpt lat="47.1203" lon="-1.92023">
        <ele>59</ele>
        <time>2022-10-29T12:27:34Z</time>
      </trkpt>
      <trkpt lat="47.12035" lon="-1.92006">
        <ele>59</ele>
        <time>2022-10-29T12:27:36Z</time>
      </trkpt>
      <trkpt lat="47.12041" lon="-1.9199">
        <ele>59</ele>
        <time>2022-10-29T12:27:38Z</time>
      </trkpt>
      <trkpt lat="47.12047" lon="-1.91974">
        <ele>59</ele>
        <time>2022-10-29T12:27:40Z</time>
      </trkpt>
      <trkpt lat="47.12053" lon="-1.91957">
        <ele>59</ele>
        <time>2022-10-29T12:27:42Z</time>
      </trkpt>
      <trkpt lat="47.12059" lon="-1.91941">
        <ele>59</ele>
        <time>2022-10-29T12:27:44Z</time>
      </trkpt>
      <trkpt lat="47.12066" lon="-1.91924">
        <ele>59</ele>
        <time>2022-10-29T12:27:46Z</time>
      </trkpt>
      <trkpt lat="47.12072" lon="-1.91907">
        <ele>58</ele>
        <time>2022-10-29T12:27:48Z</time>
      </trkpt>
      <trkpt lat="47.12078" lon="-1.91889">
        <ele>57</ele>
        <time>2022-10-29T12:27:50Z</time>
      </trkpt>
      <trkpt lat="47.12085" lon="-1.91871">
        <ele>57</ele>
        <time>2022-10-29T12:27:52Z</time>
      </trkpt>
      <trkpt lat="47.12091" lon="-1.91853">
        <ele>57</ele>
        <time>2022-10-29T12:27:54Z</time>
      </trkpt>
      <trkpt lat="47.12098" lon="-1.91836">
        <ele>56</ele>
        <time>2022-10-29T12:27:56Z</time>
      </trkpt>
      <trkpt lat="47.12104" lon="-1.91819">
        <ele>57</ele>
        <time>2022-10-29T12:27:58Z</time>
      </trkpt>
      <trkpt lat="47.1211" lon="-1.91802">
        <ele>57</ele>
        <time>2022-10-29T12:28:00Z</time>
      </trkpt>
      <trkpt lat="47.12116" lon="-1.91784">
        <ele>58</ele>
        <time>2022-10-29T12:28:02Z</time>
      </trkpt>
      <trkpt lat="47.12123" lon="-1.91766">
        <ele>57</ele>
        <time>2022-10-29T12:28:04Z</time>
      </trkpt>
      <trkpt lat="47.1213" lon="-1.91748">
        <ele>57</ele>
        <time>2022-10-29T12:28:06Z</time>
      </trkpt>
      <trkpt lat="47.12136" lon="-1.9173">
        <ele>57</ele>
        <time>2022-10-29T12:28:08Z</time>
      </trkpt>
      <trkpt lat="47.12142" lon="-1.91712">
        <ele>57</ele>
        <time>2022-10-29T12:28:10Z</time>
      </trkpt>
      <trkpt lat="47.12149" lon="-1.91694">
        <ele>58</ele>
        <time>2022-10-29T12:28:12Z</time>
      </trkpt>
      <trkpt lat="47.12156" lon="-1.91677">
        <ele>58</ele>
        <time>2022-10-29T12:28:14Z</time>
      </trkpt>
      <trkpt lat="47.12161" lon="-1.91661">
        <ele>58</ele>
        <time>2022-10-29T12:28:16Z</time>
      </trkpt>
      <trkpt lat="47.12169" lon="-1.91634">
        <ele>57</ele>
        <time>2022-10-29T12:28:19Z</time>
      </trkpt>
      <trkpt lat="47.12175" lon="-1.91616">
        <ele>57</ele>
        <time>2022-10-29T12:28:21Z</time>
      </trkpt>
      <trkpt lat="47.12182" lon="-1.91598">
        <ele>56</ele>
        <time>2022-10-29T12:28:23Z</time>
      </trkpt>
      <trkpt lat="47.12189" lon="-1.91581">
        <ele>56</ele>
        <time>2022-10-29T12:28:25Z</time>
      </trkpt>
      <trkpt lat="47.12197" lon="-1.91565">
        <ele>55</ele>
        <time>2022-10-29T12:28:27Z</time>
      </trkpt>
      <trkpt lat="47.12203" lon="-1.91549">
        <ele>55</ele>
        <time>2022-10-29T12:28:29Z</time>
      </trkpt>
      <trkpt lat="47.12208" lon="-1.91533">
        <ele>55</ele>
        <time>2022-10-29T12:28:31Z</time>
      </trkpt>
      <trkpt lat="47.12213" lon="-1.91518">
        <ele>55</ele>
        <time>2022-10-29T12:28:33Z</time>
      </trkpt>
      <trkpt lat="47.12218" lon="-1.91501">
        <ele>55</ele>
        <time>2022-10-29T12:28:35Z</time>
      </trkpt>
      <trkpt lat="47.1222" lon="-1.91483">
        <ele>55</ele>
        <time>2022-10-29T12:28:37Z</time>
      </trkpt>
      <trkpt lat="47.12219" lon="-1.91464">
        <ele>54</ele>
        <time>2022-10-29T12:28:39Z</time>
      </trkpt>
      <trkpt lat="47.1222" lon="-1.91444">
        <ele>55</ele>
        <time>2022-10-29T12:28:41Z</time>
      </trkpt>
      <trkpt lat="47.12224" lon="-1.91425">
        <ele>55</ele>
        <time>2022-10-29T12:28:43Z</time>
      </trkpt>
      <trkpt lat="47.12226" lon="-1.91407">
        <ele>54</ele>
        <time>2022-10-29T12:28:45Z</time>
      </trkpt>
      <trkpt lat="47.12216" lon="-1.91395">
        <ele>55</ele>
        <time>2022-10-29T12:28:47Z</time>
      </trkpt>
      <trkpt lat="47.12205" lon="-1.91385">
        <ele>55</ele>
        <time>2022-10-29T12:28:49Z</time>
      </trkpt>
      <trkpt lat="47.12194" lon="-1.91374">
        <ele>55</ele>
        <time>2022-10-29T12:28:51Z</time>
      </trkpt>
      <trkpt lat="47.12184" lon="-1.91362">
        <ele>55</ele>
        <time>2022-10-29T12:28:53Z</time>
      </trkpt>
      <trkpt lat="47.12175" lon="-1.9135">
        <ele>55</ele>
        <time>2022-10-29T12:28:55Z</time>
      </trkpt>
      <trkpt lat="47.12166" lon="-1.91337">
        <ele>55</ele>
        <time>2022-10-29T12:28:57Z</time>
      </trkpt>
      <trkpt lat="47.12155" lon="-1.91327">
        <ele>55</ele>
        <time>2022-10-29T12:28:59Z</time>
      </trkpt>
      <trkpt lat="47.12145" lon="-1.91315">
        <ele>55</ele>
        <time>2022-10-29T12:29:01Z</time>
      </trkpt>
      <trkpt lat="47.12134" lon="-1.91301">
        <ele>55</ele>
        <time>2022-10-29T12:29:03Z</time>
      </trkpt>
      <trkpt lat="47.12124" lon="-1.91288">
        <ele>54</ele>
        <time>2022-10-29T12:29:05Z</time>
      </trkpt>
      <trkpt lat="47.12114" lon="-1.91275">
        <ele>54</ele>
        <time>2022-10-29T12:29:07Z</time>
      </trkpt>
      <trkpt lat="47.12104" lon="-1.91262">
        <ele>54</ele>
        <time>2022-10-29T12:29:09Z</time>
      </trkpt>
      <trkpt lat="47.12094" lon="-1.9125">
        <ele>54</ele>
        <time>2022-10-29T12:29:11Z</time>
      </trkpt>
      <trkpt lat="47.12083" lon="-1.91238">
        <ele>54</ele>
        <time>2022-10-29T12:29:13Z</time>
      </trkpt>
      <trkpt lat="47.12067" lon="-1.91223">
        <ele>54</ele>
        <time>2022-10-29T12:29:16Z</time>
      </trkpt>
      <trkpt lat="47.1205" lon="-1.91208">
        <ele>53</ele>
        <time>2022-10-29T12:29:19Z</time>
      </trkpt>
      <trkpt lat="47.12039" lon="-1.91197">
        <ele>53</ele>
        <time>2022-10-29T12:29:21Z</time>
      </trkpt>
      <trkpt lat="47.12029" lon="-1.91186">
        <ele>53</ele>
        <time>2022-10-29T12:29:23Z</time>
      </trkpt>
      <trkpt lat="47.12015" lon="-1.91166">
        <ele>53</ele>
        <time>2022-10-29T12:29:26Z</time>
      </trkpt>
      <trkpt lat="47.12006" lon="-1.91151">
        <ele>53</ele>
        <time>2022-10-29T12:29:28Z</time>
      </trkpt>
      <trkpt lat="47.11998" lon="-1.91136">
        <ele>53</ele>
        <time>2022-10-29T12:29:30Z</time>
      </trkpt>
      <trkpt lat="47.1199" lon="-1.91121">
        <ele>53</ele>
        <time>2022-10-29T12:29:32Z</time>
      </trkpt>
      <trkpt lat="47.11982" lon="-1.91106">
        <ele>53</ele>
        <time>2022-10-29T12:29:34Z</time>
      </trkpt>
      <trkpt lat="47.11975" lon="-1.91091">
        <ele>53</ele>
        <time>2022-10-29T12:29:36Z</time>
      </trkpt>
      <trkpt lat="47.11967" lon="-1.91076">
        <ele>53</ele>
        <time>2022-10-29T12:29:38Z</time>
      </trkpt>
      <trkpt lat="47.11959" lon="-1.91061">
        <ele>53</ele>
        <time>2022-10-29T12:29:40Z</time>
      </trkpt>
      <trkpt lat="47.11951" lon="-1.91047">
        <ele>53</ele>
        <time>2022-10-29T12:29:42Z</time>
      </trkpt>
      <trkpt lat="47.11943" lon="-1.91032">
        <ele>53</ele>
        <time>2022-10-29T12:29:44Z</time>
      </trkpt>
      <trkpt lat="47.11935" lon="-1.91018">
        <ele>53</ele>
        <time>2022-10-29T12:29:46Z</time>
      </trkpt>
      <trkpt lat="47.11926" lon="-1.91003">
        <ele>53</ele>
        <time>2022-10-29T12:29:48Z</time>
      </trkpt>
      <trkpt lat="47.11919" lon="-1.90987">
        <ele>53</ele>
        <time>2022-10-29T12:29:50Z</time>
      </trkpt>
      <trkpt lat="47.11911" lon="-1.90972">
        <ele>53</ele>
        <time>2022-10-29T12:29:52Z</time>
      </trkpt>
      <trkpt lat="47.11903" lon="-1.90956">
        <ele>53</ele>
        <time>2022-10-29T12:29:54Z</time>
      </trkpt>
      <trkpt lat="47.11895" lon="-1.90941">
        <ele>53</ele>
        <time>2022-10-29T12:29:56Z</time>
      </trkpt>
      <trkpt lat="47.11887" lon="-1.90925">
        <ele>52</ele>
        <time>2022-10-29T12:29:58Z</time>
      </trkpt>
      <trkpt lat="47.11879" lon="-1.90909">
        <ele>52</ele>
        <time>2022-10-29T12:30:00Z</time>
      </trkpt>
      <trkpt lat="47.11872" lon="-1.90894">
        <ele>52</ele>
        <time>2022-10-29T12:30:02Z</time>
      </trkpt>
      <trkpt lat="47.11863" lon="-1.90879">
        <ele>52</ele>
        <time>2022-10-29T12:30:04Z</time>
      </trkpt>
      <trkpt lat="47.11855" lon="-1.90864">
        <ele>52</ele>
        <time>2022-10-29T12:30:06Z</time>
      </trkpt>
      <trkpt lat="47.11847" lon="-1.90849">
        <ele>52</ele>
        <time>2022-10-29T12:30:08Z</time>
      </trkpt>
      <trkpt lat="47.11839" lon="-1.90833">
        <ele>52</ele>
        <time>2022-10-29T12:30:10Z</time>
      </trkpt>
      <trkpt lat="47.11832" lon="-1.90817">
        <ele>52</ele>
        <time>2022-10-29T12:30:12Z</time>
      </trkpt>
      <trkpt lat="47.11824" lon="-1.90802">
        <ele>52</ele>
        <time>2022-10-29T12:30:14Z</time>
      </trkpt>
      <trkpt lat="47.11816" lon="-1.90787">
        <ele>52</ele>
        <time>2022-10-29T12:30:16Z</time>
      </trkpt>
      <trkpt lat="47.11807" lon="-1.90772">
        <ele>51</ele>
        <time>2022-10-29T12:30:18Z</time>
      </trkpt>
      <trkpt lat="47.11799" lon="-1.90757">
        <ele>51</ele>
        <time>2022-10-29T12:30:20Z</time>
      </trkpt>
      <trkpt lat="47.11791" lon="-1.90741">
        <ele>51</ele>
        <time>2022-10-29T12:30:22Z</time>
      </trkpt>
      <trkpt lat="47.11783" lon="-1.90725">
        <ele>51</ele>
        <time>2022-10-29T12:30:24Z</time>
      </trkpt>
      <trkpt lat="47.11775" lon="-1.90709">
        <ele>50</ele>
        <time>2022-10-29T12:30:26Z</time>
      </trkpt>
      <trkpt lat="47.11767" lon="-1.90694">
        <ele>51</ele>
        <time>2022-10-29T12:30:28Z</time>
      </trkpt>
      <trkpt lat="47.11759" lon="-1.90678">
        <ele>51</ele>
        <time>2022-10-29T12:30:30Z</time>
      </trkpt>
      <trkpt lat="47.11751" lon="-1.90663">
        <ele>51</ele>
        <time>2022-10-29T12:30:32Z</time>
      </trkpt>
      <trkpt lat="47.11743" lon="-1.90647">
        <ele>51</ele>
        <time>2022-10-29T12:30:34Z</time>
      </trkpt>
      <trkpt lat="47.11735" lon="-1.90633">
        <ele>51</ele>
        <time>2022-10-29T12:30:36Z</time>
      </trkpt>
      <trkpt lat="47.11727" lon="-1.90618">
        <ele>52</ele>
        <time>2022-10-29T12:30:38Z</time>
      </trkpt>
      <trkpt lat="47.1172" lon="-1.90603">
        <ele>52</ele>
        <time>2022-10-29T12:30:40Z</time>
      </trkpt>
      <trkpt lat="47.11713" lon="-1.90588">
        <ele>52</ele>
        <time>2022-10-29T12:30:42Z</time>
      </trkpt>
      <trkpt lat="47.11705" lon="-1.90573">
        <ele>52</ele>
        <time>2022-10-29T12:30:44Z</time>
      </trkpt>
      <trkpt lat="47.11699" lon="-1.90556">
        <ele>52</ele>
        <time>2022-10-29T12:30:46Z</time>
      </trkpt>
      <trkpt lat="47.11693" lon="-1.9054">
        <ele>52</ele>
        <time>2022-10-29T12:30:48Z</time>
      </trkpt>
      <trkpt lat="47.11688" lon="-1.90522">
        <ele>51</ele>
        <time>2022-10-29T12:30:50Z</time>
      </trkpt>
      <trkpt lat="47.11682" lon="-1.90505">
        <ele>51</ele>
        <time>2022-10-29T12:30:52Z</time>
      </trkpt>
      <trkpt lat="47.11677" lon="-1.90488">
        <ele>51</ele>
        <time>2022-10-29T12:30:54Z</time>
      </trkpt>
      <trkpt lat="47.11671" lon="-1.9047">
        <ele>52</ele>
        <time>2022-10-29T12:30:56Z</time>
      </trkpt>
      <trkpt lat="47.11666" lon="-1.90453">
        <ele>52</ele>
        <time>2022-10-29T12:30:58Z</time>
      </trkpt>
      <trkpt lat="47.11661" lon="-1.90435">
        <ele>53</ele>
        <time>2022-10-29T12:31:00Z</time>
      </trkpt>
      <trkpt lat="47.11655" lon="-1.90417">
        <ele>53</ele>
        <time>2022-10-29T12:31:02Z</time>
      </trkpt>
      <trkpt lat="47.1165" lon="-1.904">
        <ele>53</ele>
        <time>2022-10-29T12:31:04Z</time>
      </trkpt>
      <trkpt lat="47.11644" lon="-1.90383">
        <ele>53</ele>
        <time>2022-10-29T12:31:06Z</time>
      </trkpt>
      <trkpt lat="47.11639" lon="-1.90365">
        <ele>53</ele>
        <time>2022-10-29T12:31:08Z</time>
      </trkpt>
      <trkpt lat="47.11633" lon="-1.90348">
        <ele>53</ele>
        <time>2022-10-29T12:31:10Z</time>
      </trkpt>
      <trkpt lat="47.11628" lon="-1.90331">
        <ele>54</ele>
        <time>2022-10-29T12:31:12Z</time>
      </trkpt>
      <trkpt lat="47.11623" lon="-1.90314">
        <ele>55</ele>
        <time>2022-10-29T12:31:14Z</time>
      </trkpt>
      <trkpt lat="47.11617" lon="-1.90297">
        <ele>54</ele>
        <time>2022-10-29T12:31:16Z</time>
      </trkpt>
      <trkpt lat="47.11611" lon="-1.90279">
        <ele>54</ele>
        <time>2022-10-29T12:31:18Z</time>
      </trkpt>
      <trkpt lat="47.11606" lon="-1.90262">
        <ele>54</ele>
        <time>2022-10-29T12:31:20Z</time>
      </trkpt>
      <trkpt lat="47.11601" lon="-1.90244">
        <ele>54</ele>
        <time>2022-10-29T12:31:22Z</time>
      </trkpt>
      <trkpt lat="47.11595" lon="-1.90228">
        <ele>54</ele>
        <time>2022-10-29T12:31:24Z</time>
      </trkpt>
      <trkpt lat="47.11589" lon="-1.9021">
        <ele>54</ele>
        <time>2022-10-29T12:31:26Z</time>
      </trkpt>
      <trkpt lat="47.11584" lon="-1.90193">
        <ele>54</ele>
        <time>2022-10-29T12:31:28Z</time>
      </trkpt>
      <trkpt lat="47.11578" lon="-1.90175">
        <ele>54</ele>
        <time>2022-10-29T12:31:30Z</time>
      </trkpt>
      <trkpt lat="47.11573" lon="-1.90158">
        <ele>54</ele>
        <time>2022-10-29T12:31:32Z</time>
      </trkpt>
      <trkpt lat="47.11568" lon="-1.90141">
        <ele>54</ele>
        <time>2022-10-29T12:31:34Z</time>
      </trkpt>
      <trkpt lat="47.11563" lon="-1.90124">
        <ele>54</ele>
        <time>2022-10-29T12:31:36Z</time>
      </trkpt>
      <trkpt lat="47.11557" lon="-1.90107">
        <ele>54</ele>
        <time>2022-10-29T12:31:38Z</time>
      </trkpt>
      <trkpt lat="47.11552" lon="-1.9009">
        <ele>54</ele>
        <time>2022-10-29T12:31:40Z</time>
      </trkpt>
      <trkpt lat="47.11547" lon="-1.90073">
        <ele>54</ele>
        <time>2022-10-29T12:31:42Z</time>
      </trkpt>
      <trkpt lat="47.11542" lon="-1.90057">
        <ele>54</ele>
        <time>2022-10-29T12:31:44Z</time>
      </trkpt>
      <trkpt lat="47.11536" lon="-1.9004">
        <ele>55</ele>
        <time>2022-10-29T12:31:46Z</time>
      </trkpt>
      <trkpt lat="47.11531" lon="-1.90023">
        <ele>55</ele>
        <time>2022-10-29T12:31:48Z</time>
      </trkpt>
      <trkpt lat="47.11526" lon="-1.90007">
        <ele>55</ele>
        <time>2022-10-29T12:31:50Z</time>
      </trkpt>
      <trkpt lat="47.1152" lon="-1.8999">
        <ele>55</ele>
        <time>2022-10-29T12:31:52Z</time>
      </trkpt>
      <trkpt lat="47.11514" lon="-1.89973">
        <ele>55</ele>
        <time>2022-10-29T12:31:54Z</time>
      </trkpt>
      <trkpt lat="47.11507" lon="-1.89957">
        <ele>55</ele>
        <time>2022-10-29T12:31:56Z</time>
      </trkpt>
      <trkpt lat="47.115" lon="-1.89941">
        <ele>54</ele>
        <time>2022-10-29T12:31:58Z</time>
      </trkpt>
      <trkpt lat="47.11492" lon="-1.89927">
        <ele>54</ele>
        <time>2022-10-29T12:32:00Z</time>
      </trkpt>
      <trkpt lat="47.11484" lon="-1.89912">
        <ele>54</ele>
        <time>2022-10-29T12:32:02Z</time>
      </trkpt>
      <trkpt lat="47.11475" lon="-1.899">
        <ele>54</ele>
        <time>2022-10-29T12:32:04Z</time>
      </trkpt>
      <trkpt lat="47.11466" lon="-1.89888">
        <ele>54</ele>
        <time>2022-10-29T12:32:06Z</time>
      </trkpt>
      <trkpt lat="47.11457" lon="-1.89877">
        <ele>54</ele>
        <time>2022-10-29T12:32:08Z</time>
      </trkpt>
      <trkpt lat="47.11449" lon="-1.89866">
        <ele>55</ele>
        <time>2022-10-29T12:32:10Z</time>
      </trkpt>
      <trkpt lat="47.1144" lon="-1.89855">
        <ele>55</ele>
        <time>2022-10-29T12:32:12Z</time>
      </trkpt>
      <trkpt lat="47.11431" lon="-1.89845">
        <ele>55</ele>
        <time>2022-10-29T12:32:14Z</time>
      </trkpt>
      <trkpt lat="47.11423" lon="-1.89834">
        <ele>55</ele>
        <time>2022-10-29T12:32:16Z</time>
      </trkpt>
      <trkpt lat="47.11415" lon="-1.89823">
        <ele>55</ele>
        <time>2022-10-29T12:32:18Z</time>
      </trkpt>
      <trkpt lat="47.11407" lon="-1.89813">
        <ele>55</ele>
        <time>2022-10-29T12:32:20Z</time>
      </trkpt>
      <trkpt lat="47.11399" lon="-1.89802">
        <ele>55</ele>
        <time>2022-10-29T12:32:22Z</time>
      </trkpt>
      <trkpt lat="47.1139" lon="-1.89791">
        <ele>56</ele>
        <time>2022-10-29T12:32:24Z</time>
      </trkpt>
      <trkpt lat="47.11382" lon="-1.8978">
        <ele>56</ele>
        <time>2022-10-29T12:32:26Z</time>
      </trkpt>
      <trkpt lat="47.11373" lon="-1.89769">
        <ele>56</ele>
        <time>2022-10-29T12:32:28Z</time>
      </trkpt>
      <trkpt lat="47.11365" lon="-1.89758">
        <ele>56</ele>
        <time>2022-10-29T12:32:30Z</time>
      </trkpt>
      <trkpt lat="47.11356" lon="-1.89747">
        <ele>57</ele>
        <time>2022-10-29T12:32:32Z</time>
      </trkpt>
      <trkpt lat="47.11348" lon="-1.89736">
        <ele>57</ele>
        <time>2022-10-29T12:32:34Z</time>
      </trkpt>
      <trkpt lat="47.11339" lon="-1.89725">
        <ele>56</ele>
        <time>2022-10-29T12:32:36Z</time>
      </trkpt>
      <trkpt lat="47.11331" lon="-1.89713">
        <ele>57</ele>
        <time>2022-10-29T12:32:38Z</time>
      </trkpt>
      <trkpt lat="47.11322" lon="-1.89702">
        <ele>57</ele>
        <time>2022-10-29T12:32:40Z</time>
      </trkpt>
      <trkpt lat="47.11314" lon="-1.8969">
        <ele>57</ele>
        <time>2022-10-29T12:32:42Z</time>
      </trkpt>
      <trkpt lat="47.11305" lon="-1.89679">
        <ele>57</ele>
        <time>2022-10-29T12:32:44Z</time>
      </trkpt>
      <trkpt lat="47.11296" lon="-1.89668">
        <ele>57</ele>
        <time>2022-10-29T12:32:46Z</time>
      </trkpt>
      <trkpt lat="47.11287" lon="-1.89657">
        <ele>57</ele>
        <time>2022-10-29T12:32:48Z</time>
      </trkpt>
      <trkpt lat="47.11278" lon="-1.89646">
        <ele>58</ele>
        <time>2022-10-29T12:32:50Z</time>
      </trkpt>
      <trkpt lat="47.1127" lon="-1.89634">
        <ele>58</ele>
        <time>2022-10-29T12:32:52Z</time>
      </trkpt>
      <trkpt lat="47.11262" lon="-1.89623">
        <ele>58</ele>
        <time>2022-10-29T12:32:54Z</time>
      </trkpt>
      <trkpt lat="47.11253" lon="-1.89612">
        <ele>58</ele>
        <time>2022-10-29T12:32:56Z</time>
      </trkpt>
      <trkpt lat="47.11245" lon="-1.89602">
        <ele>58</ele>
        <time>2022-10-29T12:32:58Z</time>
      </trkpt>
      <trkpt lat="47.11236" lon="-1.89591">
        <ele>58</ele>
        <time>2022-10-29T12:33:00Z</time>
      </trkpt>
      <trkpt lat="47.11228" lon="-1.89581">
        <ele>58</ele>
        <time>2022-10-29T12:33:02Z</time>
      </trkpt>
      <trkpt lat="47.1122" lon="-1.8957">
        <ele>58</ele>
        <time>2022-10-29T12:33:04Z</time>
      </trkpt>
      <trkpt lat="47.11212" lon="-1.89559">
        <ele>58</ele>
        <time>2022-10-29T12:33:06Z</time>
      </trkpt>
      <trkpt lat="47.11204" lon="-1.89549">
        <ele>58</ele>
        <time>2022-10-29T12:33:08Z</time>
      </trkpt>
      <trkpt lat="47.11196" lon="-1.89538">
        <ele>58</ele>
        <time>2022-10-29T12:33:10Z</time>
      </trkpt>
      <trkpt lat="47.11188" lon="-1.89527">
        <ele>58</ele>
        <time>2022-10-29T12:33:12Z</time>
      </trkpt>
      <trkpt lat="47.1118" lon="-1.89517">
        <ele>59</ele>
        <time>2022-10-29T12:33:14Z</time>
      </trkpt>
      <trkpt lat="47.11171" lon="-1.89507">
        <ele>59</ele>
        <time>2022-10-29T12:33:16Z</time>
      </trkpt>
      <trkpt lat="47.11163" lon="-1.89495">
        <ele>59</ele>
        <time>2022-10-29T12:33:18Z</time>
      </trkpt>
      <trkpt lat="47.11155" lon="-1.89485">
        <ele>59</ele>
        <time>2022-10-29T12:33:20Z</time>
      </trkpt>
      <trkpt lat="47.11147" lon="-1.89474">
        <ele>59</ele>
        <time>2022-10-29T12:33:22Z</time>
      </trkpt>
      <trkpt lat="47.11138" lon="-1.89463">
        <ele>59</ele>
        <time>2022-10-29T12:33:24Z</time>
      </trkpt>
      <trkpt lat="47.1113" lon="-1.89452">
        <ele>59</ele>
        <time>2022-10-29T12:33:26Z</time>
      </trkpt>
      <trkpt lat="47.11122" lon="-1.89441">
        <ele>59</ele>
        <time>2022-10-29T12:33:28Z</time>
      </trkpt>
      <trkpt lat="47.11114" lon="-1.89431">
        <ele>59</ele>
        <time>2022-10-29T12:33:30Z</time>
      </trkpt>
      <trkpt lat="47.11107" lon="-1.8942">
        <ele>59</ele>
        <time>2022-10-29T12:33:32Z</time>
      </trkpt>
      <trkpt lat="47.11099" lon="-1.89409">
        <ele>59</ele>
        <time>2022-10-29T12:33:34Z</time>
      </trkpt>
      <trkpt lat="47.11092" lon="-1.89397">
        <ele>60</ele>
        <time>2022-10-29T12:33:36Z</time>
      </trkpt>
      <trkpt lat="47.11085" lon="-1.89385">
        <ele>60</ele>
        <time>2022-10-29T12:33:38Z</time>
      </trkpt>
      <trkpt lat="47.11077" lon="-1.89372">
        <ele>60</ele>
        <time>2022-10-29T12:33:40Z</time>
      </trkpt>
      <trkpt lat="47.11071" lon="-1.89358">
        <ele>60</ele>
        <time>2022-10-29T12:33:42Z</time>
      </trkpt>
      <trkpt lat="47.11065" lon="-1.89344">
        <ele>60</ele>
        <time>2022-10-29T12:33:44Z</time>
      </trkpt>
      <trkpt lat="47.1106" lon="-1.89328">
        <ele>60</ele>
        <time>2022-10-29T12:33:46Z</time>
      </trkpt>
      <trkpt lat="47.11055" lon="-1.89313">
        <ele>60</ele>
        <time>2022-10-29T12:33:48Z</time>
      </trkpt>
      <trkpt lat="47.1105" lon="-1.89297">
        <ele>60</ele>
        <time>2022-10-29T12:33:50Z</time>
      </trkpt>
      <trkpt lat="47.11045" lon="-1.89282">
        <ele>60</ele>
        <time>2022-10-29T12:33:52Z</time>
      </trkpt>
      <trkpt lat="47.11041" lon="-1.89266">
        <ele>60</ele>
        <time>2022-10-29T12:33:54Z</time>
      </trkpt>
      <trkpt lat="47.11036" lon="-1.89251">
        <ele>60</ele>
        <time>2022-10-29T12:33:56Z</time>
      </trkpt>
      <trkpt lat="47.11032" lon="-1.89236">
        <ele>60</ele>
        <time>2022-10-29T12:33:58Z</time>
      </trkpt>
      <trkpt lat="47.11028" lon="-1.89221">
        <ele>60</ele>
        <time>2022-10-29T12:34:00Z</time>
      </trkpt>
      <trkpt lat="47.11023" lon="-1.89207">
        <ele>61</ele>
        <time>2022-10-29T12:34:02Z</time>
      </trkpt>
      <trkpt lat="47.11019" lon="-1.89192">
        <ele>61</ele>
        <time>2022-10-29T12:34:04Z</time>
      </trkpt>
      <trkpt lat="47.11014" lon="-1.89177">
        <ele>61</ele>
        <time>2022-10-29T12:34:06Z</time>
      </trkpt>
      <trkpt lat="47.1101" lon="-1.89161">
        <ele>61</ele>
        <time>2022-10-29T12:34:08Z</time>
      </trkpt>
      <trkpt lat="47.11005" lon="-1.89145">
        <ele>61</ele>
        <time>2022-10-29T12:34:10Z</time>
      </trkpt>
      <trkpt lat="47.11" lon="-1.8913">
        <ele>61</ele>
        <time>2022-10-29T12:34:12Z</time>
      </trkpt>
      <trkpt lat="47.10996" lon="-1.89114">
        <ele>60</ele>
        <time>2022-10-29T12:34:14Z</time>
      </trkpt>
      <trkpt lat="47.10991" lon="-1.89098">
        <ele>60</ele>
        <time>2022-10-29T12:34:16Z</time>
      </trkpt>
      <trkpt lat="47.10986" lon="-1.89081">
        <ele>60</ele>
        <time>2022-10-29T12:34:18Z</time>
      </trkpt>
      <trkpt lat="47.10981" lon="-1.89065">
        <ele>60</ele>
        <time>2022-10-29T12:34:20Z</time>
      </trkpt>
      <trkpt lat="47.10976" lon="-1.89048">
        <ele>60</ele>
        <time>2022-10-29T12:34:22Z</time>
      </trkpt>
      <trkpt lat="47.10971" lon="-1.89032">
        <ele>59</ele>
        <time>2022-10-29T12:34:24Z</time>
      </trkpt>
      <trkpt lat="47.10966" lon="-1.89014">
        <ele>59</ele>
        <time>2022-10-29T12:34:26Z</time>
      </trkpt>
      <trkpt lat="47.10961" lon="-1.88998">
        <ele>59</ele>
        <time>2022-10-29T12:34:28Z</time>
      </trkpt>
      <trkpt lat="47.10956" lon="-1.88981">
        <ele>59</ele>
        <time>2022-10-29T12:34:30Z</time>
      </trkpt>
      <trkpt lat="47.10951" lon="-1.88964">
        <ele>59</ele>
        <time>2022-10-29T12:34:32Z</time>
      </trkpt>
      <trkpt lat="47.10946" lon="-1.88947">
        <ele>59</ele>
        <time>2022-10-29T12:34:34Z</time>
      </trkpt>
      <trkpt lat="47.10941" lon="-1.8893">
        <ele>59</ele>
        <time>2022-10-29T12:34:36Z</time>
      </trkpt>
      <trkpt lat="47.10936" lon="-1.88913">
        <ele>59</ele>
        <time>2022-10-29T12:34:38Z</time>
      </trkpt>
      <trkpt lat="47.10931" lon="-1.88896">
        <ele>58</ele>
        <time>2022-10-29T12:34:40Z</time>
      </trkpt>
      <trkpt lat="47.10926" lon="-1.88879">
        <ele>58</ele>
        <time>2022-10-29T12:34:42Z</time>
      </trkpt>
      <trkpt lat="47.1092" lon="-1.88862">
        <ele>58</ele>
        <time>2022-10-29T12:34:44Z</time>
      </trkpt>
      <trkpt lat="47.10915" lon="-1.88845">
        <ele>58</ele>
        <time>2022-10-29T12:34:46Z</time>
      </trkpt>
      <trkpt lat="47.10908" lon="-1.88828">
        <ele>58</ele>
        <time>2022-10-29T12:34:48Z</time>
      </trkpt>
      <trkpt lat="47.10902" lon="-1.88811">
        <ele>58</ele>
        <time>2022-10-29T12:34:50Z</time>
      </trkpt>
      <trkpt lat="47.10895" lon="-1.88794">
        <ele>58</ele>
        <time>2022-10-29T12:34:52Z</time>
      </trkpt>
      <trkpt lat="47.10888" lon="-1.88777">
        <ele>57</ele>
        <time>2022-10-29T12:34:54Z</time>
      </trkpt>
      <trkpt lat="47.10881" lon="-1.8876">
        <ele>57</ele>
        <time>2022-10-29T12:34:56Z</time>
      </trkpt>
      <trkpt lat="47.10874" lon="-1.88744">
        <ele>57</ele>
        <time>2022-10-29T12:34:58Z</time>
      </trkpt>
      <trkpt lat="47.10867" lon="-1.88727">
        <ele>56</ele>
        <time>2022-10-29T12:35:00Z</time>
      </trkpt>
      <trkpt lat="47.10859" lon="-1.8871">
        <ele>56</ele>
        <time>2022-10-29T12:35:02Z</time>
      </trkpt>
      <trkpt lat="47.10852" lon="-1.88693">
        <ele>56</ele>
        <time>2022-10-29T12:35:04Z</time>
      </trkpt>
      <trkpt lat="47.10845" lon="-1.88676">
        <ele>56</ele>
        <time>2022-10-29T12:35:06Z</time>
      </trkpt>
      <trkpt lat="47.10838" lon="-1.8866">
        <ele>56</ele>
        <time>2022-10-29T12:35:08Z</time>
      </trkpt>
      <trkpt lat="47.10831" lon="-1.88643">
        <ele>56</ele>
        <time>2022-10-29T12:35:10Z</time>
      </trkpt>
      <trkpt lat="47.10824" lon="-1.88627">
        <ele>55</ele>
        <time>2022-10-29T12:35:12Z</time>
      </trkpt>
      <trkpt lat="47.10817" lon="-1.8861">
        <ele>55</ele>
        <time>2022-10-29T12:35:14Z</time>
      </trkpt>
      <trkpt lat="47.1081" lon="-1.88594">
        <ele>55</ele>
        <time>2022-10-29T12:35:16Z</time>
      </trkpt>
      <trkpt lat="47.10803" lon="-1.88577">
        <ele>55</ele>
        <time>2022-10-29T12:35:18Z</time>
      </trkpt>
      <trkpt lat="47.10796" lon="-1.88561">
        <ele>56</ele>
        <time>2022-10-29T12:35:20Z</time>
      </trkpt>
      <trkpt lat="47.10789" lon="-1.88545">
        <ele>56</ele>
        <time>2022-10-29T12:35:22Z</time>
      </trkpt>
      <trkpt lat="47.10782" lon="-1.88529">
        <ele>56</ele>
        <time>2022-10-29T12:35:24Z</time>
      </trkpt>
      <trkpt lat="47.10776" lon="-1.88513">
        <ele>56</ele>
        <time>2022-10-29T12:35:26Z</time>
      </trkpt>
      <trkpt lat="47.1077" lon="-1.88496">
        <ele>57</ele>
        <time>2022-10-29T12:35:28Z</time>
      </trkpt>
      <trkpt lat="47.10764" lon="-1.8848">
        <ele>57</ele>
        <time>2022-10-29T12:35:30Z</time>
      </trkpt>
      <trkpt lat="47.10759" lon="-1.88463">
        <ele>57</ele>
        <time>2022-10-29T12:35:32Z</time>
      </trkpt>
      <trkpt lat="47.10753" lon="-1.88446">
        <ele>57</ele>
        <time>2022-10-29T12:35:34Z</time>
      </trkpt>
      <trkpt lat="47.10749" lon="-1.88428">
        <ele>56</ele>
        <time>2022-10-29T12:35:36Z</time>
      </trkpt>
      <trkpt lat="47.10745" lon="-1.8841">
        <ele>56</ele>
        <time>2022-10-29T12:35:38Z</time>
      </trkpt>
      <trkpt lat="47.10741" lon="-1.88393">
        <ele>56</ele>
        <time>2022-10-29T12:35:40Z</time>
      </trkpt>
      <trkpt lat="47.10737" lon="-1.88375">
        <ele>56</ele>
        <time>2022-10-29T12:35:42Z</time>
      </trkpt>
      <trkpt lat="47.10734" lon="-1.88357">
        <ele>56</ele>
        <time>2022-10-29T12:35:44Z</time>
      </trkpt>
      <trkpt lat="47.10731" lon="-1.88339">
        <ele>56</ele>
        <time>2022-10-29T12:35:46Z</time>
      </trkpt>
      <trkpt lat="47.10728" lon="-1.88322">
        <ele>56</ele>
        <time>2022-10-29T12:35:48Z</time>
      </trkpt>
      <trkpt lat="47.10725" lon="-1.88304">
        <ele>55</ele>
        <time>2022-10-29T12:35:50Z</time>
      </trkpt>
      <trkpt lat="47.10723" lon="-1.88285">
        <ele>55</ele>
        <time>2022-10-29T12:35:52Z</time>
      </trkpt>
      <trkpt lat="47.10721" lon="-1.88267">
        <ele>55</ele>
        <time>2022-10-29T12:35:54Z</time>
      </trkpt>
      <trkpt lat="47.1072" lon="-1.88248">
        <ele>55</ele>
        <time>2022-10-29T12:35:56Z</time>
      </trkpt>
      <trkpt lat="47.10717" lon="-1.8823">
        <ele>55</ele>
        <time>2022-10-29T12:35:58Z</time>
      </trkpt>
      <trkpt lat="47.10715" lon="-1.88212">
        <ele>55</ele>
        <time>2022-10-29T12:36:00Z</time>
      </trkpt>
      <trkpt lat="47.10714" lon="-1.88193">
        <ele>55</ele>
        <time>2022-10-29T12:36:02Z</time>
      </trkpt>
      <trkpt lat="47.10712" lon="-1.88175">
        <ele>55</ele>
        <time>2022-10-29T12:36:04Z</time>
      </trkpt>
      <trkpt lat="47.1071" lon="-1.88156">
        <ele>55</ele>
        <time>2022-10-29T12:36:06Z</time>
      </trkpt>
      <trkpt lat="47.10708" lon="-1.88138">
        <ele>55</ele>
        <time>2022-10-29T12:36:08Z</time>
      </trkpt>
      <trkpt lat="47.10706" lon="-1.88119">
        <ele>54</ele>
        <time>2022-10-29T12:36:10Z</time>
      </trkpt>
      <trkpt lat="47.10704" lon="-1.881">
        <ele>55</ele>
        <time>2022-10-29T12:36:12Z</time>
      </trkpt>
      <trkpt lat="47.10703" lon="-1.88081">
        <ele>55</ele>
        <time>2022-10-29T12:36:14Z</time>
      </trkpt>
      <trkpt lat="47.10701" lon="-1.88062">
        <ele>55</ele>
        <time>2022-10-29T12:36:16Z</time>
      </trkpt>
      <trkpt lat="47.10699" lon="-1.88044">
        <ele>55</ele>
        <time>2022-10-29T12:36:18Z</time>
      </trkpt>
      <trkpt lat="47.10697" lon="-1.88026">
        <ele>55</ele>
        <time>2022-10-29T12:36:20Z</time>
      </trkpt>
      <trkpt lat="47.10695" lon="-1.88008">
        <ele>55</ele>
        <time>2022-10-29T12:36:22Z</time>
      </trkpt>
      <trkpt lat="47.10693" lon="-1.87989">
        <ele>55</ele>
        <time>2022-10-29T12:36:24Z</time>
      </trkpt>
      <trkpt lat="47.10691" lon="-1.87971">
        <ele>55</ele>
        <time>2022-10-29T12:36:26Z</time>
      </trkpt>
      <trkpt lat="47.10688" lon="-1.87953">
        <ele>55</ele>
        <time>2022-10-29T12:36:28Z</time>
      </trkpt>
      <trkpt lat="47.10683" lon="-1.87935">
        <ele>55</ele>
        <time>2022-10-29T12:36:30Z</time>
      </trkpt>
      <trkpt lat="47.10678" lon="-1.87919">
        <ele>55</ele>
        <time>2022-10-29T12:36:32Z</time>
      </trkpt>
      <trkpt lat="47.10673" lon="-1.87904">
        <ele>56</ele>
        <time>2022-10-29T12:36:34Z</time>
      </trkpt>
      <trkpt lat="47.10668" lon="-1.87889">
        <ele>56</ele>
        <time>2022-10-29T12:36:36Z</time>
      </trkpt>
      <trkpt lat="47.10663" lon="-1.87874">
        <ele>56</ele>
        <time>2022-10-29T12:36:38Z</time>
      </trkpt>
      <trkpt lat="47.10657" lon="-1.87859">
        <ele>57</ele>
        <time>2022-10-29T12:36:40Z</time>
      </trkpt>
      <trkpt lat="47.10652" lon="-1.87845">
        <ele>57</ele>
        <time>2022-10-29T12:36:42Z</time>
      </trkpt>
      <trkpt lat="47.10647" lon="-1.8783">
        <ele>57</ele>
        <time>2022-10-29T12:36:44Z</time>
      </trkpt>
      <trkpt lat="47.10642" lon="-1.87816">
        <ele>57</ele>
        <time>2022-10-29T12:36:46Z</time>
      </trkpt>
      <trkpt lat="47.10637" lon="-1.87802">
        <ele>57</ele>
        <time>2022-10-29T12:36:48Z</time>
      </trkpt>
      <trkpt lat="47.10632" lon="-1.87787">
        <ele>57</ele>
        <time>2022-10-29T12:36:50Z</time>
      </trkpt>
      <trkpt lat="47.10626" lon="-1.87772">
        <ele>57</ele>
        <time>2022-10-29T12:36:52Z</time>
      </trkpt>
      <trkpt lat="47.10621" lon="-1.87756">
        <ele>58</ele>
        <time>2022-10-29T12:36:54Z</time>
      </trkpt>
      <trkpt lat="47.10615" lon="-1.87741">
        <ele>58</ele>
        <time>2022-10-29T12:36:56Z</time>
      </trkpt>
      <trkpt lat="47.1061" lon="-1.87726">
        <ele>58</ele>
        <time>2022-10-29T12:36:58Z</time>
      </trkpt>
      <trkpt lat="47.10604" lon="-1.87711">
        <ele>58</ele>
        <time>2022-10-29T12:37:00Z</time>
      </trkpt>
      <trkpt lat="47.10599" lon="-1.87696">
        <ele>58</ele>
        <time>2022-10-29T12:37:02Z</time>
      </trkpt>
      <trkpt lat="47.10593" lon="-1.8768">
        <ele>58</ele>
        <time>2022-10-29T12:37:04Z</time>
      </trkpt>
      <trkpt lat="47.10588" lon="-1.87665">
        <ele>58</ele>
        <time>2022-10-29T12:37:06Z</time>
      </trkpt>
      <trkpt lat="47.10583" lon="-1.8765">
        <ele>58</ele>
        <time>2022-10-29T12:37:08Z</time>
      </trkpt>
      <trkpt lat="47.10579" lon="-1.87634">
        <ele>58</ele>
        <time>2022-10-29T12:37:10Z</time>
      </trkpt>
      <trkpt lat="47.10575" lon="-1.87618">
        <ele>58</ele>
        <time>2022-10-29T12:37:12Z</time>
      </trkpt>
      <trkpt lat="47.10571" lon="-1.87602">
        <ele>58</ele>
        <time>2022-10-29T12:37:14Z</time>
      </trkpt>
      <trkpt lat="47.10568" lon="-1.87586">
        <ele>59</ele>
        <time>2022-10-29T12:37:16Z</time>
      </trkpt>
      <trkpt lat="47.10565" lon="-1.87571">
        <ele>59</ele>
        <time>2022-10-29T12:37:18Z</time>
      </trkpt>
      <trkpt lat="47.10561" lon="-1.87554">
        <ele>59</ele>
        <time>2022-10-29T12:37:20Z</time>
      </trkpt>
      <trkpt lat="47.10557" lon="-1.87537">
        <ele>59</ele>
        <time>2022-10-29T12:37:22Z</time>
      </trkpt>
      <trkpt lat="47.10554" lon="-1.87519">
        <ele>59</ele>
        <time>2022-10-29T12:37:24Z</time>
      </trkpt>
      <trkpt lat="47.10551" lon="-1.87502">
        <ele>60</ele>
        <time>2022-10-29T12:37:26Z</time>
      </trkpt>
      <trkpt lat="47.10547" lon="-1.87485">
        <ele>59</ele>
        <time>2022-10-29T12:37:28Z</time>
      </trkpt>
      <trkpt lat="47.10544" lon="-1.87468">
        <ele>59</ele>
        <time>2022-10-29T12:37:30Z</time>
      </trkpt>
      <trkpt lat="47.10541" lon="-1.8745">
        <ele>59</ele>
        <time>2022-10-29T12:37:32Z</time>
      </trkpt>
      <trkpt lat="47.10538" lon="-1.87434">
        <ele>59</ele>
        <time>2022-10-29T12:37:34Z</time>
      </trkpt>
      <trkpt lat="47.10535" lon="-1.87416">
        <ele>59</ele>
        <time>2022-10-29T12:37:36Z</time>
      </trkpt>
      <trkpt lat="47.10531" lon="-1.87399">
        <ele>59</ele>
        <time>2022-10-29T12:37:38Z</time>
      </trkpt>
      <trkpt lat="47.10527" lon="-1.87382">
        <ele>60</ele>
        <time>2022-10-29T12:37:40Z</time>
      </trkpt>
      <trkpt lat="47.10523" lon="-1.87365">
        <ele>60</ele>
        <time>2022-10-29T12:37:42Z</time>
      </trkpt>
      <trkpt lat="47.1052" lon="-1.87348">
        <ele>60</ele>
        <time>2022-10-29T12:37:44Z</time>
      </trkpt>
      <trkpt lat="47.10517" lon="-1.87331">
        <ele>59</ele>
        <time>2022-10-29T12:37:46Z</time>
      </trkpt>
      <trkpt lat="47.10513" lon="-1.87315">
        <ele>60</ele>
        <time>2022-10-29T12:37:48Z</time>
      </trkpt>
      <trkpt lat="47.10509" lon="-1.87299">
        <ele>60</ele>
        <time>2022-10-29T12:37:50Z</time>
      </trkpt>
      <trkpt lat="47.10505" lon="-1.87283">
        <ele>60</ele>
        <time>2022-10-29T12:37:52Z</time>
      </trkpt>
      <trkpt lat="47.105" lon="-1.87268">
        <ele>60</ele>
        <time>2022-10-29T12:37:54Z</time>
      </trkpt>
      <trkpt lat="47.10496" lon="-1.87253">
        <ele>61</ele>
        <time>2022-10-29T12:37:56Z</time>
      </trkpt>
      <trkpt lat="47.10489" lon="-1.8724">
        <ele>61</ele>
        <time>2022-10-29T12:37:58Z</time>
      </trkpt>
      <trkpt lat="47.10483" lon="-1.87228">
        <ele>61</ele>
        <time>2022-10-29T12:38:00Z</time>
      </trkpt>
      <trkpt lat="47.10479" lon="-1.87213">
        <ele>61</ele>
        <time>2022-10-29T12:38:02Z</time>
      </trkpt>
      <trkpt lat="47.10477" lon="-1.87198">
        <ele>61</ele>
        <time>2022-10-29T12:38:04Z</time>
      </trkpt>
      <trkpt lat="47.10475" lon="-1.87182">
        <ele>62</ele>
        <time>2022-10-29T12:38:06Z</time>
      </trkpt>
      <trkpt lat="47.10471" lon="-1.87167">
        <ele>62</ele>
        <time>2022-10-29T12:38:08Z</time>
      </trkpt>
      <trkpt lat="47.10467" lon="-1.87153">
        <ele>62</ele>
        <time>2022-10-29T12:38:10Z</time>
      </trkpt>
      <trkpt lat="47.10464" lon="-1.87138">
        <ele>62</ele>
        <time>2022-10-29T12:38:12Z</time>
      </trkpt>
      <trkpt lat="47.1046" lon="-1.87123">
        <ele>62</ele>
        <time>2022-10-29T12:38:14Z</time>
      </trkpt>
      <trkpt lat="47.10458" lon="-1.87108">
        <ele>62</ele>
        <time>2022-10-29T12:38:16Z</time>
      </trkpt>
      <trkpt lat="47.10455" lon="-1.87093">
        <ele>62</ele>
        <time>2022-10-29T12:38:18Z</time>
      </trkpt>
      <trkpt lat="47.10452" lon="-1.87079">
        <ele>62</ele>
        <time>2022-10-29T12:38:20Z</time>
      </trkpt>
      <trkpt lat="47.10449" lon="-1.87064">
        <ele>62</ele>
        <time>2022-10-29T12:38:22Z</time>
      </trkpt>
      <trkpt lat="47.10446" lon="-1.87049">
        <ele>62</ele>
        <time>2022-10-29T12:38:24Z</time>
      </trkpt>
      <trkpt lat="47.10443" lon="-1.87033">
        <ele>62</ele>
        <time>2022-10-29T12:38:26Z</time>
      </trkpt>
      <trkpt lat="47.1044" lon="-1.87018">
        <ele>62</ele>
        <time>2022-10-29T12:38:28Z</time>
      </trkpt>
      <trkpt lat="47.10436" lon="-1.87003">
        <ele>62</ele>
        <time>2022-10-29T12:38:30Z</time>
      </trkpt>
      <trkpt lat="47.10434" lon="-1.86988">
        <ele>62</ele>
        <time>2022-10-29T12:38:32Z</time>
      </trkpt>
      <trkpt lat="47.10431" lon="-1.86973">
        <ele>62</ele>
        <time>2022-10-29T12:38:34Z</time>
      </trkpt>
      <trkpt lat="47.10428" lon="-1.86959">
        <ele>62</ele>
        <time>2022-10-29T12:38:36Z</time>
      </trkpt>
      <trkpt lat="47.10425" lon="-1.86946">
        <ele>62</ele>
        <time>2022-10-29T12:38:38Z</time>
      </trkpt>
      <trkpt lat="47.10423" lon="-1.8693">
        <ele>62</ele>
        <time>2022-10-29T12:38:40Z</time>
      </trkpt>
      <trkpt lat="47.10419" lon="-1.86914">
        <ele>62</ele>
        <time>2022-10-29T12:38:42Z</time>
      </trkpt>
      <trkpt lat="47.10416" lon="-1.869">
        <ele>62</ele>
        <time>2022-10-29T12:38:44Z</time>
      </trkpt>
      <trkpt lat="47.10413" lon="-1.86884">
        <ele>61</ele>
        <time>2022-10-29T12:38:46Z</time>
      </trkpt>
      <trkpt lat="47.1041" lon="-1.86869">
        <ele>62</ele>
        <time>2022-10-29T12:38:48Z</time>
      </trkpt>
      <trkpt lat="47.10407" lon="-1.86853">
        <ele>62</ele>
        <time>2022-10-29T12:38:50Z</time>
      </trkpt>
      <trkpt lat="47.10404" lon="-1.86838">
        <ele>62</ele>
        <time>2022-10-29T12:38:52Z</time>
      </trkpt>
      <trkpt lat="47.10401" lon="-1.86822">
        <ele>62</ele>
        <time>2022-10-29T12:38:54Z</time>
      </trkpt>
      <trkpt lat="47.10397" lon="-1.86805">
        <ele>61</ele>
        <time>2022-10-29T12:38:56Z</time>
      </trkpt>
      <trkpt lat="47.10394" lon="-1.86788">
        <ele>61</ele>
        <time>2022-10-29T12:38:58Z</time>
      </trkpt>
      <trkpt lat="47.10391" lon="-1.86771">
        <ele>61</ele>
        <time>2022-10-29T12:39:00Z</time>
      </trkpt>
      <trkpt lat="47.10388" lon="-1.86754">
        <ele>61</ele>
        <time>2022-10-29T12:39:02Z</time>
      </trkpt>
      <trkpt lat="47.10385" lon="-1.86737">
        <ele>61</ele>
        <time>2022-10-29T12:39:04Z</time>
      </trkpt>
      <trkpt lat="47.10382" lon="-1.86721">
        <ele>61</ele>
        <time>2022-10-29T12:39:06Z</time>
      </trkpt>
      <trkpt lat="47.10378" lon="-1.86703">
        <ele>61</ele>
        <time>2022-10-29T12:39:08Z</time>
      </trkpt>
      <trkpt lat="47.10375" lon="-1.86686">
        <ele>61</ele>
        <time>2022-10-29T12:39:10Z</time>
      </trkpt>
      <trkpt lat="47.10372" lon="-1.86669">
        <ele>61</ele>
        <time>2022-10-29T12:39:12Z</time>
      </trkpt>
      <trkpt lat="47.10369" lon="-1.86652">
        <ele>60</ele>
        <time>2022-10-29T12:39:14Z</time>
      </trkpt>
      <trkpt lat="47.10367" lon="-1.86634">
        <ele>60</ele>
        <time>2022-10-29T12:39:16Z</time>
      </trkpt>
      <trkpt lat="47.10367" lon="-1.86617">
        <ele>60</ele>
        <time>2022-10-29T12:39:18Z</time>
      </trkpt>
      <trkpt lat="47.10368" lon="-1.86599">
        <ele>60</ele>
        <time>2022-10-29T12:39:20Z</time>
      </trkpt>
      <trkpt lat="47.10366" lon="-1.86582">
        <ele>59</ele>
        <time>2022-10-29T12:39:22Z</time>
      </trkpt>
      <trkpt lat="47.10364" lon="-1.86565">
        <ele>59</ele>
        <time>2022-10-29T12:39:24Z</time>
      </trkpt>
      <trkpt lat="47.1036" lon="-1.86547">
        <ele>59</ele>
        <time>2022-10-29T12:39:26Z</time>
      </trkpt>
      <trkpt lat="47.10354" lon="-1.86531">
        <ele>58</ele>
        <time>2022-10-29T12:39:28Z</time>
      </trkpt>
      <trkpt lat="47.10347" lon="-1.86515">
        <ele>58</ele>
        <time>2022-10-29T12:39:30Z</time>
      </trkpt>
      <trkpt lat="47.1034" lon="-1.86498">
        <ele>58</ele>
        <time>2022-10-29T12:39:32Z</time>
      </trkpt>
      <trkpt lat="47.10333" lon="-1.86483">
        <ele>58</ele>
        <time>2022-10-29T12:39:34Z</time>
      </trkpt>
      <trkpt lat="47.10325" lon="-1.86467">
        <ele>58</ele>
        <time>2022-10-29T12:39:36Z</time>
      </trkpt>
      <trkpt lat="47.10318" lon="-1.8645">
        <ele>58</ele>
        <time>2022-10-29T12:39:38Z</time>
      </trkpt>
      <trkpt lat="47.10311" lon="-1.86432">
        <ele>57</ele>
        <time>2022-10-29T12:39:40Z</time>
      </trkpt>
      <trkpt lat="47.10306" lon="-1.86412">
        <ele>57</ele>
        <time>2022-10-29T12:39:42Z</time>
      </trkpt>
      <trkpt lat="47.10304" lon="-1.86391">
        <ele>57</ele>
        <time>2022-10-29T12:39:44Z</time>
      </trkpt>
      <trkpt lat="47.10302" lon="-1.86371">
        <ele>56</ele>
        <time>2022-10-29T12:39:46Z</time>
      </trkpt>
      <trkpt lat="47.10298" lon="-1.86351">
        <ele>56</ele>
        <time>2022-10-29T12:39:48Z</time>
      </trkpt>
      <trkpt lat="47.10294" lon="-1.86331">
        <ele>56</ele>
        <time>2022-10-29T12:39:50Z</time>
      </trkpt>
      <trkpt lat="47.1029" lon="-1.86313">
        <ele>56</ele>
        <time>2022-10-29T12:39:52Z</time>
      </trkpt>
      <trkpt lat="47.10286" lon="-1.86294">
        <ele>57</ele>
        <time>2022-10-29T12:39:54Z</time>
      </trkpt>
      <trkpt lat="47.1028" lon="-1.86276">
        <ele>57</ele>
        <time>2022-10-29T12:39:56Z</time>
      </trkpt>
      <trkpt lat="47.10273" lon="-1.8626">
        <ele>57</ele>
        <time>2022-10-29T12:39:58Z</time>
      </trkpt>
      <trkpt lat="47.10266" lon="-1.86243">
        <ele>57</ele>
        <time>2022-10-29T12:40:00Z</time>
      </trkpt>
      <trkpt lat="47.10259" lon="-1.86227">
        <ele>58</ele>
        <time>2022-10-29T12:40:02Z</time>
      </trkpt>
      <trkpt lat="47.10253" lon="-1.86212">
        <ele>58</ele>
        <time>2022-10-29T12:40:04Z</time>
      </trkpt>
      <trkpt lat="47.10247" lon="-1.86198">
        <ele>58</ele>
        <time>2022-10-29T12:40:06Z</time>
      </trkpt>
      <trkpt lat="47.10242" lon="-1.86183">
        <ele>58</ele>
        <time>2022-10-29T12:40:08Z</time>
      </trkpt>
      <trkpt lat="47.10236" lon="-1.86169">
        <ele>58</ele>
        <time>2022-10-29T12:40:10Z</time>
      </trkpt>
      <trkpt lat="47.10231" lon="-1.86155">
        <ele>58</ele>
        <time>2022-10-29T12:40:12Z</time>
      </trkpt>
      <trkpt lat="47.10226" lon="-1.86142">
        <ele>59</ele>
        <time>2022-10-29T12:40:14Z</time>
      </trkpt>
      <trkpt lat="47.10222" lon="-1.86129">
        <ele>58</ele>
        <time>2022-10-29T12:40:16Z</time>
      </trkpt>
      <trkpt lat="47.10216" lon="-1.86114">
        <ele>59</ele>
        <time>2022-10-29T12:40:18Z</time>
      </trkpt>
      <trkpt lat="47.10211" lon="-1.861">
        <ele>58</ele>
        <time>2022-10-29T12:40:20Z</time>
      </trkpt>
      <trkpt lat="47.10206" lon="-1.86085">
        <ele>58</ele>
        <time>2022-10-29T12:40:22Z</time>
      </trkpt>
      <trkpt lat="47.10201" lon="-1.86071">
        <ele>59</ele>
        <time>2022-10-29T12:40:24Z</time>
      </trkpt>
      <trkpt lat="47.10195" lon="-1.86057">
        <ele>59</ele>
        <time>2022-10-29T12:40:26Z</time>
      </trkpt>
      <trkpt lat="47.1019" lon="-1.86043">
        <ele>59</ele>
        <time>2022-10-29T12:40:28Z</time>
      </trkpt>
      <trkpt lat="47.10185" lon="-1.8603">
        <ele>59</ele>
        <time>2022-10-29T12:40:30Z</time>
      </trkpt>
      <trkpt lat="47.1018" lon="-1.86018">
        <ele>60</ele>
        <time>2022-10-29T12:40:32Z</time>
      </trkpt>
      <trkpt lat="47.10176" lon="-1.86005">
        <ele>60</ele>
        <time>2022-10-29T12:40:34Z</time>
      </trkpt>
      <trkpt lat="47.10171" lon="-1.85992">
        <ele>60</ele>
        <time>2022-10-29T12:40:36Z</time>
      </trkpt>
      <trkpt lat="47.10166" lon="-1.85979">
        <ele>60</ele>
        <time>2022-10-29T12:40:38Z</time>
      </trkpt>
      <trkpt lat="47.10161" lon="-1.85967">
        <ele>61</ele>
        <time>2022-10-29T12:40:40Z</time>
      </trkpt>
      <trkpt lat="47.10156" lon="-1.85955">
        <ele>61</ele>
        <time>2022-10-29T12:40:42Z</time>
      </trkpt>
      <trkpt lat="47.10152" lon="-1.85942">
        <ele>61</ele>
        <time>2022-10-29T12:40:44Z</time>
      </trkpt>
      <trkpt lat="47.10147" lon="-1.8593">
        <ele>61</ele>
        <time>2022-10-29T12:40:46Z</time>
      </trkpt>
      <trkpt lat="47.10141" lon="-1.85918">
        <ele>61</ele>
        <time>2022-10-29T12:40:48Z</time>
      </trkpt>
      <trkpt lat="47.10136" lon="-1.85906">
        <ele>61</ele>
        <time>2022-10-29T12:40:50Z</time>
      </trkpt>
      <trkpt lat="47.1013" lon="-1.85893">
        <ele>61</ele>
        <time>2022-10-29T12:40:52Z</time>
      </trkpt>
      <trkpt lat="47.10124" lon="-1.85881">
        <ele>62</ele>
        <time>2022-10-29T12:40:54Z</time>
      </trkpt>
      <trkpt lat="47.10118" lon="-1.85869">
        <ele>62</ele>
        <time>2022-10-29T12:40:56Z</time>
      </trkpt>
      <trkpt lat="47.10113" lon="-1.85857">
        <ele>62</ele>
        <time>2022-10-29T12:40:58Z</time>
      </trkpt>
      <trkpt lat="47.10104" lon="-1.85848">
        <ele>62</ele>
        <time>2022-10-29T12:41:00Z</time>
      </trkpt>
      <trkpt lat="47.10094" lon="-1.85842">
        <ele>62</ele>
        <time>2022-10-29T12:41:02Z</time>
      </trkpt>
      <trkpt lat="47.10088" lon="-1.85832">
        <ele>62</ele>
        <time>2022-10-29T12:41:04Z</time>
      </trkpt>
      <trkpt lat="47.10092" lon="-1.85815">
        <ele>61</ele>
        <time>2022-10-29T12:41:06Z</time>
      </trkpt>
      <trkpt lat="47.10094" lon="-1.85798">
        <ele>61</ele>
        <time>2022-10-29T12:41:08Z</time>
      </trkpt>
      <trkpt lat="47.10092" lon="-1.8578">
        <ele>61</ele>
        <time>2022-10-29T12:41:10Z</time>
      </trkpt>
      <trkpt lat="47.1009" lon="-1.85763">
        <ele>61</ele>
        <time>2022-10-29T12:41:12Z</time>
      </trkpt>
      <trkpt lat="47.10089" lon="-1.85745">
        <ele>61</ele>
        <time>2022-10-29T12:41:14Z</time>
      </trkpt>
      <trkpt lat="47.10087" lon="-1.85727">
        <ele>61</ele>
        <time>2022-10-29T12:41:16Z</time>
      </trkpt>
      <trkpt lat="47.10086" lon="-1.85708">
        <ele>61</ele>
        <time>2022-10-29T12:41:18Z</time>
      </trkpt>
      <trkpt lat="47.10084" lon="-1.8569">
        <ele>61</ele>
        <time>2022-10-29T12:41:20Z</time>
      </trkpt>
      <trkpt lat="47.10083" lon="-1.85672">
        <ele>61</ele>
        <time>2022-10-29T12:41:22Z</time>
      </trkpt>
      <trkpt lat="47.10081" lon="-1.85653">
        <ele>61</ele>
        <time>2022-10-29T12:41:24Z</time>
      </trkpt>
      <trkpt lat="47.10079" lon="-1.85635">
        <ele>61</ele>
        <time>2022-10-29T12:41:26Z</time>
      </trkpt>
      <trkpt lat="47.10078" lon="-1.85617">
        <ele>60</ele>
        <time>2022-10-29T12:41:28Z</time>
      </trkpt>
      <trkpt lat="47.10076" lon="-1.85598">
        <ele>60</ele>
        <time>2022-10-29T12:41:30Z</time>
      </trkpt>
      <trkpt lat="47.10073" lon="-1.85579">
        <ele>60</ele>
        <time>2022-10-29T12:41:32Z</time>
      </trkpt>
      <trkpt lat="47.10068" lon="-1.85561">
        <ele>59</ele>
        <time>2022-10-29T12:41:34Z</time>
      </trkpt>
      <trkpt lat="47.10061" lon="-1.85543">
        <ele>58</ele>
        <time>2022-10-29T12:41:36Z</time>
      </trkpt>
      <trkpt lat="47.10052" lon="-1.85526">
        <ele>57</ele>
        <time>2022-10-29T12:41:38Z</time>
      </trkpt>
      <trkpt lat="47.10041" lon="-1.85511">
        <ele>57</ele>
        <time>2022-10-29T12:41:40Z</time>
      </trkpt>
      <trkpt lat="47.1003" lon="-1.85496">
        <ele>56</ele>
        <time>2022-10-29T12:41:42Z</time>
      </trkpt>
      <trkpt lat="47.10019" lon="-1.8548">
        <ele>55</ele>
        <time>2022-10-29T12:41:44Z</time>
      </trkpt>
      <trkpt lat="47.10008" lon="-1.85465">
        <ele>55</ele>
        <time>2022-10-29T12:41:46Z</time>
      </trkpt>
      <trkpt lat="47.09997" lon="-1.8545">
        <ele>55</ele>
        <time>2022-10-29T12:41:48Z</time>
      </trkpt>
      <trkpt lat="47.09986" lon="-1.85435">
        <ele>55</ele>
        <time>2022-10-29T12:41:50Z</time>
      </trkpt>
      <trkpt lat="47.09976" lon="-1.85422">
        <ele>55</ele>
        <time>2022-10-29T12:41:52Z</time>
      </trkpt>
      <trkpt lat="47.09966" lon="-1.85408">
        <ele>55</ele>
        <time>2022-10-29T12:41:54Z</time>
      </trkpt>
      <trkpt lat="47.09957" lon="-1.85395">
        <ele>55</ele>
        <time>2022-10-29T12:41:56Z</time>
      </trkpt>
      <trkpt lat="47.09949" lon="-1.85381">
        <ele>55</ele>
        <time>2022-10-29T12:41:58Z</time>
      </trkpt>
      <trkpt lat="47.09942" lon="-1.85366">
        <ele>55</ele>
        <time>2022-10-29T12:42:00Z</time>
      </trkpt>
      <trkpt lat="47.09937" lon="-1.8535">
        <ele>55</ele>
        <time>2022-10-29T12:42:02Z</time>
      </trkpt>
      <trkpt lat="47.09934" lon="-1.85333">
        <ele>56</ele>
        <time>2022-10-29T12:42:04Z</time>
      </trkpt>
      <trkpt lat="47.09932" lon="-1.85316">
        <ele>56</ele>
        <time>2022-10-29T12:42:06Z</time>
      </trkpt>
      <trkpt lat="47.0993" lon="-1.85299">
        <ele>56</ele>
        <time>2022-10-29T12:42:08Z</time>
      </trkpt>
      <trkpt lat="47.09929" lon="-1.85282">
        <ele>56</ele>
        <time>2022-10-29T12:42:10Z</time>
      </trkpt>
      <trkpt lat="47.09928" lon="-1.85266">
        <ele>56</ele>
        <time>2022-10-29T12:42:12Z</time>
      </trkpt>
      <trkpt lat="47.09927" lon="-1.85248">
        <ele>57</ele>
        <time>2022-10-29T12:42:14Z</time>
      </trkpt>
      <trkpt lat="47.09926" lon="-1.8523">
        <ele>57</ele>
        <time>2022-10-29T12:42:16Z</time>
      </trkpt>
      <trkpt lat="47.09924" lon="-1.85212">
        <ele>57</ele>
        <time>2022-10-29T12:42:18Z</time>
      </trkpt>
      <trkpt lat="47.09921" lon="-1.85195">
        <ele>58</ele>
        <time>2022-10-29T12:42:20Z</time>
      </trkpt>
      <trkpt lat="47.09919" lon="-1.85177">
        <ele>58</ele>
        <time>2022-10-29T12:42:22Z</time>
      </trkpt>
      <trkpt lat="47.09917" lon="-1.85161">
        <ele>59</ele>
        <time>2022-10-29T12:42:24Z</time>
      </trkpt>
      <trkpt lat="47.09916" lon="-1.85144">
        <ele>59</ele>
        <time>2022-10-29T12:42:26Z</time>
      </trkpt>
      <trkpt lat="47.09916" lon="-1.85127">
        <ele>59</ele>
        <time>2022-10-29T12:42:28Z</time>
      </trkpt>
      <trkpt lat="47.09916" lon="-1.85111">
        <ele>59</ele>
        <time>2022-10-29T12:42:30Z</time>
      </trkpt>
      <trkpt lat="47.09916" lon="-1.85095">
        <ele>59</ele>
        <time>2022-10-29T12:42:32Z</time>
      </trkpt>
      <trkpt lat="47.09917" lon="-1.85078">
        <ele>59</ele>
        <time>2022-10-29T12:42:34Z</time>
      </trkpt>
      <trkpt lat="47.09917" lon="-1.85061">
        <ele>59</ele>
        <time>2022-10-29T12:42:36Z</time>
      </trkpt>
      <trkpt lat="47.09918" lon="-1.85045">
        <ele>59</ele>
        <time>2022-10-29T12:42:38Z</time>
      </trkpt>
      <trkpt lat="47.09919" lon="-1.85028">
        <ele>59</ele>
        <time>2022-10-29T12:42:40Z</time>
      </trkpt>
      <trkpt lat="47.09919" lon="-1.8501">
        <ele>59</ele>
        <time>2022-10-29T12:42:42Z</time>
      </trkpt>
      <trkpt lat="47.09919" lon="-1.84993">
        <ele>59</ele>
        <time>2022-10-29T12:42:44Z</time>
      </trkpt>
      <trkpt lat="47.0992" lon="-1.84977">
        <ele>59</ele>
        <time>2022-10-29T12:42:46Z</time>
      </trkpt>
      <trkpt lat="47.0992" lon="-1.8496">
        <ele>59</ele>
        <time>2022-10-29T12:42:48Z</time>
      </trkpt>
      <trkpt lat="47.0992" lon="-1.84943">
        <ele>59</ele>
        <time>2022-10-29T12:42:50Z</time>
      </trkpt>
      <trkpt lat="47.09919" lon="-1.84926">
        <ele>59</ele>
        <time>2022-10-29T12:42:52Z</time>
      </trkpt>
      <trkpt lat="47.09919" lon="-1.84908">
        <ele>60</ele>
        <time>2022-10-29T12:42:54Z</time>
      </trkpt>
      <trkpt lat="47.09918" lon="-1.84891">
        <ele>60</ele>
        <time>2022-10-29T12:42:56Z</time>
      </trkpt>
      <trkpt lat="47.09917" lon="-1.84874">
        <ele>60</ele>
        <time>2022-10-29T12:42:58Z</time>
      </trkpt>
      <trkpt lat="47.09916" lon="-1.84857">
        <ele>60</ele>
        <time>2022-10-29T12:43:00Z</time>
      </trkpt>
      <trkpt lat="47.09915" lon="-1.8484">
        <ele>61</ele>
        <time>2022-10-29T12:43:02Z</time>
      </trkpt>
      <trkpt lat="47.09914" lon="-1.84824">
        <ele>61</ele>
        <time>2022-10-29T12:43:04Z</time>
      </trkpt>
      <trkpt lat="47.09913" lon="-1.84808">
        <ele>61</ele>
        <time>2022-10-29T12:43:06Z</time>
      </trkpt>
      <trkpt lat="47.09912" lon="-1.84792">
        <ele>61</ele>
        <time>2022-10-29T12:43:08Z</time>
      </trkpt>
      <trkpt lat="47.09911" lon="-1.84776">
        <ele>61</ele>
        <time>2022-10-29T12:43:10Z</time>
      </trkpt>
      <trkpt lat="47.0991" lon="-1.8476">
        <ele>61</ele>
        <time>2022-10-29T12:43:12Z</time>
      </trkpt>
      <trkpt lat="47.09909" lon="-1.84744">
        <ele>61</ele>
        <time>2022-10-29T12:43:14Z</time>
      </trkpt>
      <trkpt lat="47.09908" lon="-1.84729">
        <ele>62</ele>
        <time>2022-10-29T12:43:16Z</time>
      </trkpt>
      <trkpt lat="47.09907" lon="-1.84713">
        <ele>62</ele>
        <time>2022-10-29T12:43:18Z</time>
      </trkpt>
      <trkpt lat="47.09906" lon="-1.84696">
        <ele>62</ele>
        <time>2022-10-29T12:43:20Z</time>
      </trkpt>
      <trkpt lat="47.09905" lon="-1.84681">
        <ele>63</ele>
        <time>2022-10-29T12:43:22Z</time>
      </trkpt>
      <trkpt lat="47.09904" lon="-1.84666">
        <ele>63</ele>
        <time>2022-10-29T12:43:24Z</time>
      </trkpt>
      <trkpt lat="47.09904" lon="-1.84649">
        <ele>64</ele>
        <time>2022-10-29T12:43:26Z</time>
      </trkpt>
      <trkpt lat="47.09903" lon="-1.84633">
        <ele>64</ele>
        <time>2022-10-29T12:43:28Z</time>
      </trkpt>
      <trkpt lat="47.09902" lon="-1.84617">
        <ele>64</ele>
        <time>2022-10-29T12:43:30Z</time>
      </trkpt>
      <trkpt lat="47.09902" lon="-1.84602">
        <ele>65</ele>
        <time>2022-10-29T12:43:32Z</time>
      </trkpt>
      <trkpt lat="47.09901" lon="-1.84586">
        <ele>65</ele>
        <time>2022-10-29T12:43:34Z</time>
      </trkpt>
      <trkpt lat="47.099" lon="-1.84571">
        <ele>65</ele>
        <time>2022-10-29T12:43:36Z</time>
      </trkpt>
      <trkpt lat="47.09899" lon="-1.84556">
        <ele>65</ele>
        <time>2022-10-29T12:43:38Z</time>
      </trkpt>
      <trkpt lat="47.09897" lon="-1.8454">
        <ele>64</ele>
        <time>2022-10-29T12:43:40Z</time>
      </trkpt>
      <trkpt lat="47.09895" lon="-1.84524">
        <ele>64</ele>
        <time>2022-10-29T12:43:42Z</time>
      </trkpt>
      <trkpt lat="47.09894" lon="-1.84509">
        <ele>65</ele>
        <time>2022-10-29T12:43:44Z</time>
      </trkpt>
      <trkpt lat="47.09891" lon="-1.84493">
        <ele>64</ele>
        <time>2022-10-29T12:43:46Z</time>
      </trkpt>
      <trkpt lat="47.0989" lon="-1.84477">
        <ele>64</ele>
        <time>2022-10-29T12:43:48Z</time>
      </trkpt>
      <trkpt lat="47.09888" lon="-1.84461">
        <ele>64</ele>
        <time>2022-10-29T12:43:50Z</time>
      </trkpt>
      <trkpt lat="47.09887" lon="-1.84444">
        <ele>64</ele>
        <time>2022-10-29T12:43:52Z</time>
      </trkpt>
      <trkpt lat="47.09886" lon="-1.84427">
        <ele>64</ele>
        <time>2022-10-29T12:43:54Z</time>
      </trkpt>
      <trkpt lat="47.09886" lon="-1.8441">
        <ele>64</ele>
        <time>2022-10-29T12:43:56Z</time>
      </trkpt>
      <trkpt lat="47.09886" lon="-1.84392">
        <ele>64</ele>
        <time>2022-10-29T12:43:58Z</time>
      </trkpt>
      <trkpt lat="47.09886" lon="-1.84375">
        <ele>64</ele>
        <time>2022-10-29T12:44:00Z</time>
      </trkpt>
      <trkpt lat="47.09886" lon="-1.84358">
        <ele>64</ele>
        <time>2022-10-29T12:44:02Z</time>
      </trkpt>
      <trkpt lat="47.09886" lon="-1.8434">
        <ele>64</ele>
        <time>2022-10-29T12:44:04Z</time>
      </trkpt>
      <trkpt lat="47.09886" lon="-1.84322">
        <ele>64</ele>
        <time>2022-10-29T12:44:06Z</time>
      </trkpt>
      <trkpt lat="47.09887" lon="-1.84304">
        <ele>64</ele>
        <time>2022-10-29T12:44:08Z</time>
      </trkpt>
      <trkpt lat="47.09887" lon="-1.84286">
        <ele>64</ele>
        <time>2022-10-29T12:44:10Z</time>
      </trkpt>
      <trkpt lat="47.09886" lon="-1.84269">
        <ele>64</ele>
        <time>2022-10-29T12:44:12Z</time>
      </trkpt>
      <trkpt lat="47.09886" lon="-1.84251">
        <ele>64</ele>
        <time>2022-10-29T12:44:14Z</time>
      </trkpt>
      <trkpt lat="47.09884" lon="-1.84234">
        <ele>63</ele>
        <time>2022-10-29T12:44:16Z</time>
      </trkpt>
      <trkpt lat="47.09883" lon="-1.84216">
        <ele>63</ele>
        <time>2022-10-29T12:44:18Z</time>
      </trkpt>
      <trkpt lat="47.0988" lon="-1.84199">
        <ele>63</ele>
        <time>2022-10-29T12:44:20Z</time>
      </trkpt>
      <trkpt lat="47.09878" lon="-1.84181">
        <ele>63</ele>
        <time>2022-10-29T12:44:22Z</time>
      </trkpt>
      <trkpt lat="47.09875" lon="-1.84164">
        <ele>63</ele>
        <time>2022-10-29T12:44:24Z</time>
      </trkpt>
      <trkpt lat="47.09873" lon="-1.84146">
        <ele>63</ele>
        <time>2022-10-29T12:44:26Z</time>
      </trkpt>
      <trkpt lat="47.0987" lon="-1.84127">
        <ele>62</ele>
        <time>2022-10-29T12:44:28Z</time>
      </trkpt>
      <trkpt lat="47.09867" lon="-1.84108">
        <ele>62</ele>
        <time>2022-10-29T12:44:30Z</time>
      </trkpt>
      <trkpt lat="47.09864" lon="-1.8409">
        <ele>61</ele>
        <time>2022-10-29T12:44:32Z</time>
      </trkpt>
      <trkpt lat="47.09861" lon="-1.84071">
        <ele>61</ele>
        <time>2022-10-29T12:44:34Z</time>
      </trkpt>
      <trkpt lat="47.09858" lon="-1.84052">
        <ele>61</ele>
        <time>2022-10-29T12:44:36Z</time>
      </trkpt>
      <trkpt lat="47.09855" lon="-1.84032">
        <ele>61</ele>
        <time>2022-10-29T12:44:38Z</time>
      </trkpt>
      <trkpt lat="47.09852" lon="-1.84012">
        <ele>60</ele>
        <time>2022-10-29T12:44:40Z</time>
      </trkpt>
      <trkpt lat="47.0985" lon="-1.83991">
        <ele>60</ele>
        <time>2022-10-29T12:44:42Z</time>
      </trkpt>
      <trkpt lat="47.09849" lon="-1.8397">
        <ele>59</ele>
        <time>2022-10-29T12:44:44Z</time>
      </trkpt>
      <trkpt lat="47.09849" lon="-1.83949">
        <ele>59</ele>
        <time>2022-10-29T12:44:46Z</time>
      </trkpt>
      <trkpt lat="47.09849" lon="-1.83928">
        <ele>59</ele>
        <time>2022-10-29T12:44:48Z</time>
      </trkpt>
      <trkpt lat="47.09851" lon="-1.83907">
        <ele>59</ele>
        <time>2022-10-29T12:44:50Z</time>
      </trkpt>
      <trkpt lat="47.09852" lon="-1.83886">
        <ele>59</ele>
        <time>2022-10-29T12:44:52Z</time>
      </trkpt>
      <trkpt lat="47.09854" lon="-1.83866">
        <ele>58</ele>
        <time>2022-10-29T12:44:54Z</time>
      </trkpt>
      <trkpt lat="47.09855" lon="-1.83845">
        <ele>58</ele>
        <time>2022-10-29T12:44:56Z</time>
      </trkpt>
      <trkpt lat="47.09856" lon="-1.83824">
        <ele>58</ele>
        <time>2022-10-29T12:44:58Z</time>
      </trkpt>
      <trkpt lat="47.09857" lon="-1.83804">
        <ele>58</ele>
        <time>2022-10-29T12:45:00Z</time>
      </trkpt>
      <trkpt lat="47.09857" lon="-1.83784">
        <ele>58</ele>
        <time>2022-10-29T12:45:02Z</time>
      </trkpt>
      <trkpt lat="47.09857" lon="-1.83764">
        <ele>58</ele>
        <time>2022-10-29T12:45:04Z</time>
      </trkpt>
      <trkpt lat="47.09858" lon="-1.83744">
        <ele>58</ele>
        <time>2022-10-29T12:45:06Z</time>
      </trkpt>
      <trkpt lat="47.09858" lon="-1.83714">
        <ele>58</ele>
        <time>2022-10-29T12:45:09Z</time>
      </trkpt>
      <trkpt lat="47.09859" lon="-1.83694">
        <ele>58</ele>
        <time>2022-10-29T12:45:11Z</time>
      </trkpt>
      <trkpt lat="47.09859" lon="-1.83674">
        <ele>58</ele>
        <time>2022-10-29T12:45:13Z</time>
      </trkpt>
      <trkpt lat="47.0986" lon="-1.83654">
        <ele>58</ele>
        <time>2022-10-29T12:45:15Z</time>
      </trkpt>
      <trkpt lat="47.09859" lon="-1.83624">
        <ele>58</ele>
        <time>2022-10-29T12:45:18Z</time>
      </trkpt>
      <trkpt lat="47.09859" lon="-1.83605">
        <ele>57</ele>
        <time>2022-10-29T12:45:20Z</time>
      </trkpt>
      <trkpt lat="47.09858" lon="-1.83585">
        <ele>57</ele>
        <time>2022-10-29T12:45:22Z</time>
      </trkpt>
      <trkpt lat="47.09856" lon="-1.83566">
        <ele>57</ele>
        <time>2022-10-29T12:45:24Z</time>
      </trkpt>
      <trkpt lat="47.09854" lon="-1.83538">
        <ele>57</ele>
        <time>2022-10-29T12:45:27Z</time>
      </trkpt>
      <trkpt lat="47.09852" lon="-1.83521">
        <ele>57</ele>
        <time>2022-10-29T12:45:29Z</time>
      </trkpt>
      <trkpt lat="47.09851" lon="-1.83503">
        <ele>57</ele>
        <time>2022-10-29T12:45:31Z</time>
      </trkpt>
      <trkpt lat="47.0985" lon="-1.83485">
        <ele>57</ele>
        <time>2022-10-29T12:45:33Z</time>
      </trkpt>
      <trkpt lat="47.09851" lon="-1.83466">
        <ele>57</ele>
        <time>2022-10-29T12:45:35Z</time>
      </trkpt>
      <trkpt lat="47.09852" lon="-1.83448">
        <ele>58</ele>
        <time>2022-10-29T12:45:37Z</time>
      </trkpt>
      <trkpt lat="47.09854" lon="-1.8343">
        <ele>58</ele>
        <time>2022-10-29T12:45:39Z</time>
      </trkpt>
      <trkpt lat="47.09856" lon="-1.83413">
        <ele>58</ele>
        <time>2022-10-29T12:45:41Z</time>
      </trkpt>
      <trkpt lat="47.09859" lon="-1.83396">
        <ele>58</ele>
        <time>2022-10-29T12:45:43Z</time>
      </trkpt>
      <trkpt lat="47.09863" lon="-1.83378">
        <ele>58</ele>
        <time>2022-10-29T12:45:45Z</time>
      </trkpt>
      <trkpt lat="47.09867" lon="-1.8336">
        <ele>58</ele>
        <time>2022-10-29T12:45:47Z</time>
      </trkpt>
      <trkpt lat="47.0987" lon="-1.83344">
        <ele>58</ele>
        <time>2022-10-29T12:45:49Z</time>
      </trkpt>
      <trkpt lat="47.09875" lon="-1.83319">
        <ele>57</ele>
        <time>2022-10-29T12:45:52Z</time>
      </trkpt>
      <trkpt lat="47.09877" lon="-1.83301">
        <ele>57</ele>
        <time>2022-10-29T12:45:54Z</time>
      </trkpt>
      <trkpt lat="47.09879" lon="-1.83284">
        <ele>57</ele>
        <time>2022-10-29T12:45:56Z</time>
      </trkpt>
      <trkpt lat="47.09881" lon="-1.83259">
        <ele>57</ele>
        <time>2022-10-29T12:45:59Z</time>
      </trkpt>
      <trkpt lat="47.09881" lon="-1.83242">
        <ele>57</ele>
        <time>2022-10-29T12:46:01Z</time>
      </trkpt>
      <trkpt lat="47.09881" lon="-1.83226">
        <ele>58</ele>
        <time>2022-10-29T12:46:03Z</time>
      </trkpt>
      <trkpt lat="47.0988" lon="-1.8321">
        <ele>58</ele>
        <time>2022-10-29T12:46:05Z</time>
      </trkpt>
      <trkpt lat="47.09879" lon="-1.83194">
        <ele>58</ele>
        <time>2022-10-29T12:46:07Z</time>
      </trkpt>
      <trkpt lat="47.09877" lon="-1.83178">
        <ele>59</ele>
        <time>2022-10-29T12:46:09Z</time>
      </trkpt>
      <trkpt lat="47.09876" lon="-1.83163">
        <ele>59</ele>
        <time>2022-10-29T12:46:11Z</time>
      </trkpt>
      <trkpt lat="47.09874" lon="-1.83147">
        <ele>60</ele>
        <time>2022-10-29T12:46:13Z</time>
      </trkpt>
      <trkpt lat="47.09872" lon="-1.8313">
        <ele>60</ele>
        <time>2022-10-29T12:46:15Z</time>
      </trkpt>
      <trkpt lat="47.09871" lon="-1.83114">
        <ele>61</ele>
        <time>2022-10-29T12:46:17Z</time>
      </trkpt>
      <trkpt lat="47.09869" lon="-1.83097">
        <ele>61</ele>
        <time>2022-10-29T12:46:19Z</time>
      </trkpt>
      <trkpt lat="47.09867" lon="-1.83081">
        <ele>61</ele>
        <time>2022-10-29T12:46:21Z</time>
      </trkpt>
      <trkpt lat="47.09865" lon="-1.83065">
        <ele>61</ele>
        <time>2022-10-29T12:46:23Z</time>
      </trkpt>
      <trkpt lat="47.09864" lon="-1.83049">
        <ele>61</ele>
        <time>2022-10-29T12:46:25Z</time>
      </trkpt>
      <trkpt lat="47.09862" lon="-1.83034">
        <ele>61</ele>
        <time>2022-10-29T12:46:27Z</time>
      </trkpt>
      <trkpt lat="47.09861" lon="-1.83018">
        <ele>61</ele>
        <time>2022-10-29T12:46:29Z</time>
      </trkpt>
      <trkpt lat="47.09859" lon="-1.83001">
        <ele>61</ele>
        <time>2022-10-29T12:46:31Z</time>
      </trkpt>
      <trkpt lat="47.09858" lon="-1.82985">
        <ele>61</ele>
        <time>2022-10-29T12:46:33Z</time>
      </trkpt>
      <trkpt lat="47.09856" lon="-1.8297">
        <ele>62</ele>
        <time>2022-10-29T12:46:35Z</time>
      </trkpt>
      <trkpt lat="47.09855" lon="-1.82954">
        <ele>62</ele>
        <time>2022-10-29T12:46:37Z</time>
      </trkpt>
      <trkpt lat="47.09853" lon="-1.82938">
        <ele>61</ele>
        <time>2022-10-29T12:46:39Z</time>
      </trkpt>
      <trkpt lat="47.09852" lon="-1.82922">
        <ele>61</ele>
        <time>2022-10-29T12:46:41Z</time>
      </trkpt>
      <trkpt lat="47.0985" lon="-1.82907">
        <ele>61</ele>
        <time>2022-10-29T12:46:43Z</time>
      </trkpt>
      <trkpt lat="47.09849" lon="-1.82891">
        <ele>62</ele>
        <time>2022-10-29T12:46:45Z</time>
      </trkpt>
      <trkpt lat="47.09848" lon="-1.82876">
        <ele>62</ele>
        <time>2022-10-29T12:46:47Z</time>
      </trkpt>
      <trkpt lat="47.09847" lon="-1.8286">
        <ele>62</ele>
        <time>2022-10-29T12:46:49Z</time>
      </trkpt>
      <trkpt lat="47.09847" lon="-1.82845">
        <ele>62</ele>
        <time>2022-10-29T12:46:51Z</time>
      </trkpt>
      <trkpt lat="47.09846" lon="-1.82829">
        <ele>62</ele>
        <time>2022-10-29T12:46:53Z</time>
      </trkpt>
      <trkpt lat="47.09847" lon="-1.82813">
        <ele>63</ele>
        <time>2022-10-29T12:46:55Z</time>
      </trkpt>
      <trkpt lat="47.09847" lon="-1.82797">
        <ele>63</ele>
        <time>2022-10-29T12:46:57Z</time>
      </trkpt>
      <trkpt lat="47.09848" lon="-1.82781">
        <ele>63</ele>
        <time>2022-10-29T12:46:59Z</time>
      </trkpt>
      <trkpt lat="47.09846" lon="-1.82766">
        <ele>63</ele>
        <time>2022-10-29T12:47:01Z</time>
      </trkpt>
      <trkpt lat="47.09845" lon="-1.8275">
        <ele>63</ele>
        <time>2022-10-29T12:47:03Z</time>
      </trkpt>
      <trkpt lat="47.09842" lon="-1.82735">
        <ele>63</ele>
        <time>2022-10-29T12:47:05Z</time>
      </trkpt>
      <trkpt lat="47.09838" lon="-1.8272">
        <ele>63</ele>
        <time>2022-10-29T12:47:07Z</time>
      </trkpt>
      <trkpt lat="47.09834" lon="-1.82705">
        <ele>63</ele>
        <time>2022-10-29T12:47:09Z</time>
      </trkpt>
      <trkpt lat="47.09831" lon="-1.82688">
        <ele>63</ele>
        <time>2022-10-29T12:47:11Z</time>
      </trkpt>
      <trkpt lat="47.09828" lon="-1.82672">
        <ele>63</ele>
        <time>2022-10-29T12:47:13Z</time>
      </trkpt>
      <trkpt lat="47.09824" lon="-1.82656">
        <ele>63</ele>
        <time>2022-10-29T12:47:15Z</time>
      </trkpt>
      <trkpt lat="47.09821" lon="-1.8264">
        <ele>63</ele>
        <time>2022-10-29T12:47:17Z</time>
      </trkpt>
      <trkpt lat="47.09818" lon="-1.82624">
        <ele>63</ele>
        <time>2022-10-29T12:47:19Z</time>
      </trkpt>
      <trkpt lat="47.09815" lon="-1.82608">
        <ele>63</ele>
        <time>2022-10-29T12:47:21Z</time>
      </trkpt>
      <trkpt lat="47.09812" lon="-1.82591">
        <ele>63</ele>
        <time>2022-10-29T12:47:23Z</time>
      </trkpt>
      <trkpt lat="47.09809" lon="-1.82575">
        <ele>63</ele>
        <time>2022-10-29T12:47:25Z</time>
      </trkpt>
      <trkpt lat="47.09806" lon="-1.82559">
        <ele>63</ele>
        <time>2022-10-29T12:47:27Z</time>
      </trkpt>
      <trkpt lat="47.09804" lon="-1.82542">
        <ele>63</ele>
        <time>2022-10-29T12:47:29Z</time>
      </trkpt>
      <trkpt lat="47.09801" lon="-1.82524">
        <ele>63</ele>
        <time>2022-10-29T12:47:31Z</time>
      </trkpt>
      <trkpt lat="47.098" lon="-1.82508">
        <ele>63</ele>
        <time>2022-10-29T12:47:33Z</time>
      </trkpt>
      <trkpt lat="47.09798" lon="-1.8249">
        <ele>64</ele>
        <time>2022-10-29T12:47:35Z</time>
      </trkpt>
      <trkpt lat="47.09796" lon="-1.82474">
        <ele>63</ele>
        <time>2022-10-29T12:47:37Z</time>
      </trkpt>
      <trkpt lat="47.09794" lon="-1.82456">
        <ele>63</ele>
        <time>2022-10-29T12:47:39Z</time>
      </trkpt>
      <trkpt lat="47.09792" lon="-1.82439">
        <ele>63</ele>
        <time>2022-10-29T12:47:41Z</time>
      </trkpt>
      <trkpt lat="47.0979" lon="-1.82421">
        <ele>63</ele>
        <time>2022-10-29T12:47:43Z</time>
      </trkpt>
      <trkpt lat="47.09787" lon="-1.82404">
        <ele>63</ele>
        <time>2022-10-29T12:47:45Z</time>
      </trkpt>
      <trkpt lat="47.09784" lon="-1.82388">
        <ele>63</ele>
        <time>2022-10-29T12:47:47Z</time>
      </trkpt>
      <trkpt lat="47.0978" lon="-1.82371">
        <ele>63</ele>
        <time>2022-10-29T12:47:49Z</time>
      </trkpt>
      <trkpt lat="47.09775" lon="-1.82355">
        <ele>62</ele>
        <time>2022-10-29T12:47:51Z</time>
      </trkpt>
      <trkpt lat="47.0977" lon="-1.8234">
        <ele>62</ele>
        <time>2022-10-29T12:47:53Z</time>
      </trkpt>
      <trkpt lat="47.09765" lon="-1.82325">
        <ele>63</ele>
        <time>2022-10-29T12:47:55Z</time>
      </trkpt>
      <trkpt lat="47.09759" lon="-1.8231">
        <ele>62</ele>
        <time>2022-10-29T12:47:57Z</time>
      </trkpt>
      <trkpt lat="47.09753" lon="-1.82295">
        <ele>62</ele>
        <time>2022-10-29T12:47:59Z</time>
      </trkpt>
      <trkpt lat="47.09747" lon="-1.82281">
        <ele>63</ele>
        <time>2022-10-29T12:48:01Z</time>
      </trkpt>
      <trkpt lat="47.09741" lon="-1.82267">
        <ele>63</ele>
        <time>2022-10-29T12:48:03Z</time>
      </trkpt>
      <trkpt lat="47.09735" lon="-1.82253">
        <ele>63</ele>
        <time>2022-10-29T12:48:05Z</time>
      </trkpt>
      <trkpt lat="47.09729" lon="-1.82239">
        <ele>63</ele>
        <time>2022-10-29T12:48:07Z</time>
      </trkpt>
      <trkpt lat="47.09723" lon="-1.82225">
        <ele>63</ele>
        <time>2022-10-29T12:48:09Z</time>
      </trkpt>
      <trkpt lat="47.09716" lon="-1.82211">
        <ele>63</ele>
        <time>2022-10-29T12:48:11Z</time>
      </trkpt>
      <trkpt lat="47.0971" lon="-1.82198">
        <ele>63</ele>
        <time>2022-10-29T12:48:13Z</time>
      </trkpt>
      <trkpt lat="47.09704" lon="-1.82186">
        <ele>63</ele>
        <time>2022-10-29T12:48:15Z</time>
      </trkpt>
      <trkpt lat="47.09699" lon="-1.82174">
        <ele>63</ele>
        <time>2022-10-29T12:48:17Z</time>
      </trkpt>
      <trkpt lat="47.09693" lon="-1.82159">
        <ele>63</ele>
        <time>2022-10-29T12:48:20Z</time>
      </trkpt>
      <trkpt lat="47.09691" lon="-1.82145">
        <ele>63</ele>
        <time>2022-10-29T12:48:22Z</time>
      </trkpt>
      <trkpt lat="47.09694" lon="-1.82129">
        <ele>63</ele>
        <time>2022-10-29T12:48:24Z</time>
      </trkpt>
      <trkpt lat="47.09699" lon="-1.82112">
        <ele>63</ele>
        <time>2022-10-29T12:48:26Z</time>
      </trkpt>
      <trkpt lat="47.09704" lon="-1.82096">
        <ele>63</ele>
        <time>2022-10-29T12:48:28Z</time>
      </trkpt>
      <trkpt lat="47.09709" lon="-1.8208">
        <ele>62</ele>
        <time>2022-10-29T12:48:30Z</time>
      </trkpt>
      <trkpt lat="47.09714" lon="-1.82063">
        <ele>62</ele>
        <time>2022-10-29T12:48:32Z</time>
      </trkpt>
      <trkpt lat="47.09719" lon="-1.82046">
        <ele>62</ele>
        <time>2022-10-29T12:48:34Z</time>
      </trkpt>
      <trkpt lat="47.09724" lon="-1.8203">
        <ele>63</ele>
        <time>2022-10-29T12:48:36Z</time>
      </trkpt>
      <trkpt lat="47.09729" lon="-1.82014">
        <ele>63</ele>
        <time>2022-10-29T12:48:38Z</time>
      </trkpt>
      <trkpt lat="47.09734" lon="-1.81997">
        <ele>62</ele>
        <time>2022-10-29T12:48:40Z</time>
      </trkpt>
      <trkpt lat="47.09739" lon="-1.81981">
        <ele>62</ele>
        <time>2022-10-29T12:48:42Z</time>
      </trkpt>
      <trkpt lat="47.09744" lon="-1.81965">
        <ele>62</ele>
        <time>2022-10-29T12:48:44Z</time>
      </trkpt>
      <trkpt lat="47.09749" lon="-1.8195">
        <ele>62</ele>
        <time>2022-10-29T12:48:46Z</time>
      </trkpt>
      <trkpt lat="47.09755" lon="-1.81933">
        <ele>62</ele>
        <time>2022-10-29T12:48:48Z</time>
      </trkpt>
      <trkpt lat="47.09761" lon="-1.81918">
        <ele>62</ele>
        <time>2022-10-29T12:48:50Z</time>
      </trkpt>
      <trkpt lat="47.09767" lon="-1.81903">
        <ele>62</ele>
        <time>2022-10-29T12:48:52Z</time>
      </trkpt>
      <trkpt lat="47.09774" lon="-1.81888">
        <ele>62</ele>
        <time>2022-10-29T12:48:54Z</time>
      </trkpt>
      <trkpt lat="47.0978" lon="-1.81873">
        <ele>63</ele>
        <time>2022-10-29T12:48:56Z</time>
      </trkpt>
      <trkpt lat="47.09786" lon="-1.81858">
        <ele>63</ele>
        <time>2022-10-29T12:48:58Z</time>
      </trkpt>
      <trkpt lat="47.09792" lon="-1.81843">
        <ele>63</ele>
        <time>2022-10-29T12:49:00Z</time>
      </trkpt>
      <trkpt lat="47.09798" lon="-1.81827">
        <ele>63</ele>
        <time>2022-10-29T12:49:02Z</time>
      </trkpt>
      <trkpt lat="47.09802" lon="-1.8181">
        <ele>63</ele>
        <time>2022-10-29T12:49:04Z</time>
      </trkpt>
      <trkpt lat="47.09805" lon="-1.81792">
        <ele>63</ele>
        <time>2022-10-29T12:49:06Z</time>
      </trkpt>
      <trkpt lat="47.09813" lon="-1.81778">
        <ele>63</ele>
        <time>2022-10-29T12:49:08Z</time>
      </trkpt>
      <trkpt lat="47.09823" lon="-1.81767">
        <ele>62</ele>
        <time>2022-10-29T12:49:10Z</time>
      </trkpt>
      <trkpt lat="47.09832" lon="-1.81752">
        <ele>62</ele>
        <time>2022-10-29T12:49:12Z</time>
      </trkpt>
      <trkpt lat="47.09839" lon="-1.81736">
        <ele>62</ele>
        <time>2022-10-29T12:49:14Z</time>
      </trkpt>
      <trkpt lat="47.09845" lon="-1.81721">
        <ele>61</ele>
        <time>2022-10-29T12:49:16Z</time>
      </trkpt>
      <trkpt lat="47.09851" lon="-1.81706">
        <ele>61</ele>
        <time>2022-10-29T12:49:18Z</time>
      </trkpt>
      <trkpt lat="47.09856" lon="-1.81693">
        <ele>61</ele>
        <time>2022-10-29T12:49:20Z</time>
      </trkpt>
      <trkpt lat="47.09859" lon="-1.8168">
        <ele>61</ele>
        <time>2022-10-29T12:49:24Z</time>
      </trkpt>
      <trkpt lat="47.09859" lon="-1.8168">
        <ele>61</ele>
        <time>2022-10-29T12:51:25Z</time>
      </trkpt>
      <trkpt lat="47.09865" lon="-1.81665">
        <ele>61</ele>
        <time>2022-10-29T12:51:37Z</time>
      </trkpt>
      <trkpt lat="47.09871" lon="-1.81652">
        <ele>61</ele>
        <time>2022-10-29T12:51:40Z</time>
      </trkpt>
      <trkpt lat="47.09876" lon="-1.81636">
        <ele>61</ele>
        <time>2022-10-29T12:51:43Z</time>
      </trkpt>
      <trkpt lat="47.09881" lon="-1.81623">
        <ele>61</ele>
        <time>2022-10-29T12:51:46Z</time>
      </trkpt>
      <trkpt lat="47.0989" lon="-1.81608">
        <ele>61</ele>
        <time>2022-10-29T12:51:49Z</time>
      </trkpt>
      <trkpt lat="47.09895" lon="-1.81595">
        <ele>61</ele>
        <time>2022-10-29T12:51:51Z</time>
      </trkpt>
      <trkpt lat="47.09901" lon="-1.81581">
        <ele>61</ele>
        <time>2022-10-29T12:51:53Z</time>
      </trkpt>
      <trkpt lat="47.09906" lon="-1.81565">
        <ele>61</ele>
        <time>2022-10-29T12:51:55Z</time>
      </trkpt>
      <trkpt lat="47.09912" lon="-1.81549">
        <ele>60</ele>
        <time>2022-10-29T12:51:57Z</time>
      </trkpt>
      <trkpt lat="47.0992" lon="-1.81533">
        <ele>60</ele>
        <time>2022-10-29T12:51:59Z</time>
      </trkpt>
      <trkpt lat="47.09927" lon="-1.81518">
        <ele>59</ele>
        <time>2022-10-29T12:52:01Z</time>
      </trkpt>
      <trkpt lat="47.09935" lon="-1.81503">
        <ele>59</ele>
        <time>2022-10-29T12:52:03Z</time>
      </trkpt>
      <trkpt lat="47.09944" lon="-1.8149">
        <ele>58</ele>
        <time>2022-10-29T12:52:05Z</time>
      </trkpt>
      <trkpt lat="47.09954" lon="-1.81475">
        <ele>58</ele>
        <time>2022-10-29T12:52:07Z</time>
      </trkpt>
      <trkpt lat="47.09963" lon="-1.81461">
        <ele>58</ele>
        <time>2022-10-29T12:52:09Z</time>
      </trkpt>
      <trkpt lat="47.09973" lon="-1.81447">
        <ele>58</ele>
        <time>2022-10-29T12:52:11Z</time>
      </trkpt>
      <trkpt lat="47.09983" lon="-1.81433">
        <ele>57</ele>
        <time>2022-10-29T12:52:13Z</time>
      </trkpt>
      <trkpt lat="47.09993" lon="-1.81419">
        <ele>57</ele>
        <time>2022-10-29T12:52:15Z</time>
      </trkpt>
      <trkpt lat="47.10003" lon="-1.81406">
        <ele>58</ele>
        <time>2022-10-29T12:52:17Z</time>
      </trkpt>
      <trkpt lat="47.10013" lon="-1.81392">
        <ele>57</ele>
        <time>2022-10-29T12:52:19Z</time>
      </trkpt>
      <trkpt lat="47.10023" lon="-1.81379">
        <ele>57</ele>
        <time>2022-10-29T12:52:21Z</time>
      </trkpt>
      <trkpt lat="47.10033" lon="-1.81366">
        <ele>57</ele>
        <time>2022-10-29T12:52:23Z</time>
      </trkpt>
      <trkpt lat="47.10042" lon="-1.81353">
        <ele>57</ele>
        <time>2022-10-29T12:52:25Z</time>
      </trkpt>
      <trkpt lat="47.10051" lon="-1.8134">
        <ele>57</ele>
        <time>2022-10-29T12:52:27Z</time>
      </trkpt>
      <trkpt lat="47.10061" lon="-1.81327">
        <ele>57</ele>
        <time>2022-10-29T12:52:29Z</time>
      </trkpt>
      <trkpt lat="47.10071" lon="-1.81315">
        <ele>57</ele>
        <time>2022-10-29T12:52:31Z</time>
      </trkpt>
      <trkpt lat="47.10081" lon="-1.81302">
        <ele>56</ele>
        <time>2022-10-29T12:52:33Z</time>
      </trkpt>
      <trkpt lat="47.10091" lon="-1.81288">
        <ele>56</ele>
        <time>2022-10-29T12:52:35Z</time>
      </trkpt>
      <trkpt lat="47.10101" lon="-1.81275">
        <ele>56</ele>
        <time>2022-10-29T12:52:37Z</time>
      </trkpt>
      <trkpt lat="47.10111" lon="-1.81263">
        <ele>56</ele>
        <time>2022-10-29T12:52:39Z</time>
      </trkpt>
      <trkpt lat="47.10122" lon="-1.81254">
        <ele>56</ele>
        <time>2022-10-29T12:52:41Z</time>
      </trkpt>
      <trkpt lat="47.10135" lon="-1.81244">
        <ele>56</ele>
        <time>2022-10-29T12:52:43Z</time>
      </trkpt>
      <trkpt lat="47.10147" lon="-1.81235">
        <ele>56</ele>
        <time>2022-10-29T12:52:45Z</time>
      </trkpt>
      <trkpt lat="47.1016" lon="-1.81225">
        <ele>56</ele>
        <time>2022-10-29T12:52:47Z</time>
      </trkpt>
      <trkpt lat="47.10172" lon="-1.81217">
        <ele>56</ele>
        <time>2022-10-29T12:52:49Z</time>
      </trkpt>
      <trkpt lat="47.10183" lon="-1.81208">
        <ele>57</ele>
        <time>2022-10-29T12:52:51Z</time>
      </trkpt>
      <trkpt lat="47.10194" lon="-1.81199">
        <ele>57</ele>
        <time>2022-10-29T12:52:53Z</time>
      </trkpt>
      <trkpt lat="47.10205" lon="-1.8119">
        <ele>57</ele>
        <time>2022-10-29T12:52:55Z</time>
      </trkpt>
      <trkpt lat="47.10215" lon="-1.8118">
        <ele>57</ele>
        <time>2022-10-29T12:52:57Z</time>
      </trkpt>
      <trkpt lat="47.10225" lon="-1.8117">
        <ele>57</ele>
        <time>2022-10-29T12:52:59Z</time>
      </trkpt>
      <trkpt lat="47.10235" lon="-1.81161">
        <ele>58</ele>
        <time>2022-10-29T12:53:01Z</time>
      </trkpt>
      <trkpt lat="47.10245" lon="-1.81152">
        <ele>58</ele>
        <time>2022-10-29T12:53:03Z</time>
      </trkpt>
      <trkpt lat="47.10255" lon="-1.81142">
        <ele>58</ele>
        <time>2022-10-29T12:53:05Z</time>
      </trkpt>
      <trkpt lat="47.10265" lon="-1.81133">
        <ele>58</ele>
        <time>2022-10-29T12:53:07Z</time>
      </trkpt>
      <trkpt lat="47.10275" lon="-1.81124">
        <ele>59</ele>
        <time>2022-10-29T12:53:09Z</time>
      </trkpt>
      <trkpt lat="47.10285" lon="-1.81117">
        <ele>59</ele>
        <time>2022-10-29T12:53:11Z</time>
      </trkpt>
      <trkpt lat="47.10296" lon="-1.81108">
        <ele>59</ele>
        <time>2022-10-29T12:53:13Z</time>
      </trkpt>
      <trkpt lat="47.10305" lon="-1.81098">
        <ele>59</ele>
        <time>2022-10-29T12:53:15Z</time>
      </trkpt>
      <trkpt lat="47.10314" lon="-1.81089">
        <ele>60</ele>
        <time>2022-10-29T12:53:17Z</time>
      </trkpt>
      <trkpt lat="47.10323" lon="-1.81079">
        <ele>60</ele>
        <time>2022-10-29T12:53:19Z</time>
      </trkpt>
      <trkpt lat="47.10332" lon="-1.8107">
        <ele>60</ele>
        <time>2022-10-29T12:53:21Z</time>
      </trkpt>
      <trkpt lat="47.10342" lon="-1.8106">
        <ele>60</ele>
        <time>2022-10-29T12:53:23Z</time>
      </trkpt>
      <trkpt lat="47.10351" lon="-1.8105">
        <ele>60</ele>
        <time>2022-10-29T12:53:25Z</time>
      </trkpt>
      <trkpt lat="47.10358" lon="-1.81037">
        <ele>60</ele>
        <time>2022-10-29T12:53:27Z</time>
      </trkpt>
      <trkpt lat="47.10364" lon="-1.81023">
        <ele>60</ele>
        <time>2022-10-29T12:53:29Z</time>
      </trkpt>
      <trkpt lat="47.10368" lon="-1.81008">
        <ele>59</ele>
        <time>2022-10-29T12:53:31Z</time>
      </trkpt>
      <trkpt lat="47.10372" lon="-1.80991">
        <ele>58</ele>
        <time>2022-10-29T12:53:33Z</time>
      </trkpt>
      <trkpt lat="47.10371" lon="-1.80972">
        <ele>58</ele>
        <time>2022-10-29T12:53:35Z</time>
      </trkpt>
      <trkpt lat="47.10368" lon="-1.80954">
        <ele>58</ele>
        <time>2022-10-29T12:53:37Z</time>
      </trkpt>
      <trkpt lat="47.10363" lon="-1.80936">
        <ele>57</ele>
        <time>2022-10-29T12:53:39Z</time>
      </trkpt>
      <trkpt lat="47.10359" lon="-1.80917">
        <ele>57</ele>
        <time>2022-10-29T12:53:41Z</time>
      </trkpt>
      <trkpt lat="47.10355" lon="-1.80899">
        <ele>56</ele>
        <time>2022-10-29T12:53:43Z</time>
      </trkpt>
      <trkpt lat="47.10354" lon="-1.80879">
        <ele>55</ele>
        <time>2022-10-29T12:53:45Z</time>
      </trkpt>
      <trkpt lat="47.10354" lon="-1.8086">
        <ele>55</ele>
        <time>2022-10-29T12:53:47Z</time>
      </trkpt>
      <trkpt lat="47.10354" lon="-1.8084">
        <ele>55</ele>
        <time>2022-10-29T12:53:49Z</time>
      </trkpt>
      <trkpt lat="47.10353" lon="-1.80821">
        <ele>56</ele>
        <time>2022-10-29T12:53:51Z</time>
      </trkpt>
      <trkpt lat="47.10353" lon="-1.80802">
        <ele>56</ele>
        <time>2022-10-29T12:53:53Z</time>
      </trkpt>
      <trkpt lat="47.10352" lon="-1.80784">
        <ele>57</ele>
        <time>2022-10-29T12:53:55Z</time>
      </trkpt>
      <trkpt lat="47.10352" lon="-1.80767">
        <ele>58</ele>
        <time>2022-10-29T12:53:57Z</time>
      </trkpt>
      <trkpt lat="47.10351" lon="-1.8075">
        <ele>58</ele>
        <time>2022-10-29T12:53:59Z</time>
      </trkpt>
      <trkpt lat="47.10351" lon="-1.80735">
        <ele>59</ele>
        <time>2022-10-29T12:54:01Z</time>
      </trkpt>
      <trkpt lat="47.10351" lon="-1.8072">
        <ele>59</ele>
        <time>2022-10-29T12:54:03Z</time>
      </trkpt>
      <trkpt lat="47.10351" lon="-1.80705">
        <ele>59</ele>
        <time>2022-10-29T12:54:05Z</time>
      </trkpt>
      <trkpt lat="47.1035" lon="-1.80691">
        <ele>60</ele>
        <time>2022-10-29T12:54:07Z</time>
      </trkpt>
      <trkpt lat="47.1035" lon="-1.80677">
        <ele>60</ele>
        <time>2022-10-29T12:54:09Z</time>
      </trkpt>
      <trkpt lat="47.1035" lon="-1.80663">
        <ele>61</ele>
        <time>2022-10-29T12:54:11Z</time>
      </trkpt>
      <trkpt lat="47.10349" lon="-1.80649">
        <ele>61</ele>
        <time>2022-10-29T12:54:13Z</time>
      </trkpt>
      <trkpt lat="47.10349" lon="-1.80634">
        <ele>62</ele>
        <time>2022-10-29T12:54:15Z</time>
      </trkpt>
      <trkpt lat="47.10348" lon="-1.8062">
        <ele>62</ele>
        <time>2022-10-29T12:54:17Z</time>
      </trkpt>
      <trkpt lat="47.10348" lon="-1.80606">
        <ele>62</ele>
        <time>2022-10-29T12:54:19Z</time>
      </trkpt>
      <trkpt lat="47.10348" lon="-1.80591">
        <ele>62</ele>
        <time>2022-10-29T12:54:21Z</time>
      </trkpt>
      <trkpt lat="47.10347" lon="-1.80577">
        <ele>62</ele>
        <time>2022-10-29T12:54:23Z</time>
      </trkpt>
      <trkpt lat="47.10347" lon="-1.80562">
        <ele>62</ele>
        <time>2022-10-29T12:54:25Z</time>
      </trkpt>
      <trkpt lat="47.10346" lon="-1.80548">
        <ele>63</ele>
        <time>2022-10-29T12:54:27Z</time>
      </trkpt>
      <trkpt lat="47.10345" lon="-1.80534">
        <ele>63</ele>
        <time>2022-10-29T12:54:29Z</time>
      </trkpt>
      <trkpt lat="47.10343" lon="-1.8052">
        <ele>63</ele>
        <time>2022-10-29T12:54:31Z</time>
      </trkpt>
      <trkpt lat="47.10341" lon="-1.80505">
        <ele>63</ele>
        <time>2022-10-29T12:54:33Z</time>
      </trkpt>
      <trkpt lat="47.1034" lon="-1.80489">
        <ele>63</ele>
        <time>2022-10-29T12:54:35Z</time>
      </trkpt>
      <trkpt lat="47.10338" lon="-1.80475">
        <ele>63</ele>
        <time>2022-10-29T12:54:37Z</time>
      </trkpt>
      <trkpt lat="47.10336" lon="-1.8046">
        <ele>63</ele>
        <time>2022-10-29T12:54:39Z</time>
      </trkpt>
      <trkpt lat="47.10335" lon="-1.80445">
        <ele>62</ele>
        <time>2022-10-29T12:54:41Z</time>
      </trkpt>
      <trkpt lat="47.10333" lon="-1.8043">
        <ele>63</ele>
        <time>2022-10-29T12:54:43Z</time>
      </trkpt>
      <trkpt lat="47.10331" lon="-1.80415">
        <ele>63</ele>
        <time>2022-10-29T12:54:45Z</time>
      </trkpt>
      <trkpt lat="47.10329" lon="-1.804">
        <ele>63</ele>
        <time>2022-10-29T12:54:47Z</time>
      </trkpt>
      <trkpt lat="47.10327" lon="-1.80385">
        <ele>63</ele>
        <time>2022-10-29T12:54:49Z</time>
      </trkpt>
      <trkpt lat="47.10325" lon="-1.8037">
        <ele>64</ele>
        <time>2022-10-29T12:54:51Z</time>
      </trkpt>
      <trkpt lat="47.10322" lon="-1.80358">
        <ele>64</ele>
        <time>2022-10-29T12:54:53Z</time>
      </trkpt>
      <trkpt lat="47.10318" lon="-1.80339">
        <ele>65</ele>
        <time>2022-10-29T12:54:56Z</time>
      </trkpt>
      <trkpt lat="47.1032" lon="-1.80324">
        <ele>65</ele>
        <time>2022-10-29T12:54:58Z</time>
      </trkpt>
      <trkpt lat="47.1032" lon="-1.80308">
        <ele>65</ele>
        <time>2022-10-29T12:55:00Z</time>
      </trkpt>
      <trkpt lat="47.1032" lon="-1.80292">
        <ele>65</ele>
        <time>2022-10-29T12:55:02Z</time>
      </trkpt>
      <trkpt lat="47.1032" lon="-1.80275">
        <ele>65</ele>
        <time>2022-10-29T12:55:04Z</time>
      </trkpt>
      <trkpt lat="47.10319" lon="-1.80259">
        <ele>65</ele>
        <time>2022-10-29T12:55:06Z</time>
      </trkpt>
      <trkpt lat="47.10319" lon="-1.80243">
        <ele>66</ele>
        <time>2022-10-29T12:55:08Z</time>
      </trkpt>
      <trkpt lat="47.10318" lon="-1.80227">
        <ele>66</ele>
        <time>2022-10-29T12:55:10Z</time>
      </trkpt>
      <trkpt lat="47.10318" lon="-1.80211">
        <ele>66</ele>
        <time>2022-10-29T12:55:12Z</time>
      </trkpt>
      <trkpt lat="47.10318" lon="-1.80195">
        <ele>66</ele>
        <time>2022-10-29T12:55:14Z</time>
      </trkpt>
      <trkpt lat="47.10317" lon="-1.80177">
        <ele>66</ele>
        <time>2022-10-29T12:55:16Z</time>
      </trkpt>
      <trkpt lat="47.10317" lon="-1.80159">
        <ele>66</ele>
        <time>2022-10-29T12:55:18Z</time>
      </trkpt>
      <trkpt lat="47.10315" lon="-1.80142">
        <ele>66</ele>
        <time>2022-10-29T12:55:20Z</time>
      </trkpt>
      <trkpt lat="47.10313" lon="-1.80125">
        <ele>66</ele>
        <time>2022-10-29T12:55:22Z</time>
      </trkpt>
      <trkpt lat="47.10311" lon="-1.80108">
        <ele>66</ele>
        <time>2022-10-29T12:55:24Z</time>
      </trkpt>
      <trkpt lat="47.1031" lon="-1.80092">
        <ele>66</ele>
        <time>2022-10-29T12:55:26Z</time>
      </trkpt>
      <trkpt lat="47.10309" lon="-1.80075">
        <ele>66</ele>
        <time>2022-10-29T12:55:28Z</time>
      </trkpt>
      <trkpt lat="47.10308" lon="-1.80056">
        <ele>65</ele>
        <time>2022-10-29T12:55:30Z</time>
      </trkpt>
      <trkpt lat="47.10309" lon="-1.80037">
        <ele>65</ele>
        <time>2022-10-29T12:55:32Z</time>
      </trkpt>
      <trkpt lat="47.10309" lon="-1.80018">
        <ele>64</ele>
        <time>2022-10-29T12:55:34Z</time>
      </trkpt>
      <trkpt lat="47.1031" lon="-1.79999">
        <ele>64</ele>
        <time>2022-10-29T12:55:36Z</time>
      </trkpt>
      <trkpt lat="47.10312" lon="-1.7998">
        <ele>64</ele>
        <time>2022-10-29T12:55:38Z</time>
      </trkpt>
      <trkpt lat="47.10314" lon="-1.79962">
        <ele>64</ele>
        <time>2022-10-29T12:55:40Z</time>
      </trkpt>
      <trkpt lat="47.10317" lon="-1.79944">
        <ele>64</ele>
        <time>2022-10-29T12:55:42Z</time>
      </trkpt>
      <trkpt lat="47.1032" lon="-1.79926">
        <ele>64</ele>
        <time>2022-10-29T12:55:44Z</time>
      </trkpt>
      <trkpt lat="47.10323" lon="-1.79907">
        <ele>65</ele>
        <time>2022-10-29T12:55:46Z</time>
      </trkpt>
      <trkpt lat="47.10327" lon="-1.79888">
        <ele>64</ele>
        <time>2022-10-29T12:55:48Z</time>
      </trkpt>
      <trkpt lat="47.1033" lon="-1.7987">
        <ele>64</ele>
        <time>2022-10-29T12:55:50Z</time>
      </trkpt>
      <trkpt lat="47.10334" lon="-1.79852">
        <ele>64</ele>
        <time>2022-10-29T12:55:52Z</time>
      </trkpt>
      <trkpt lat="47.10338" lon="-1.79833">
        <ele>64</ele>
        <time>2022-10-29T12:55:54Z</time>
      </trkpt>
      <trkpt lat="47.10342" lon="-1.79814">
        <ele>64</ele>
        <time>2022-10-29T12:55:56Z</time>
      </trkpt>
      <trkpt lat="47.10345" lon="-1.79796">
        <ele>64</ele>
        <time>2022-10-29T12:55:58Z</time>
      </trkpt>
      <trkpt lat="47.10349" lon="-1.79777">
        <ele>64</ele>
        <time>2022-10-29T12:56:00Z</time>
      </trkpt>
      <trkpt lat="47.10352" lon="-1.79759">
        <ele>64</ele>
        <time>2022-10-29T12:56:02Z</time>
      </trkpt>
      <trkpt lat="47.10356" lon="-1.7974">
        <ele>63</ele>
        <time>2022-10-29T12:56:04Z</time>
      </trkpt>
      <trkpt lat="47.1036" lon="-1.7972">
        <ele>63</ele>
        <time>2022-10-29T12:56:06Z</time>
      </trkpt>
      <trkpt lat="47.10364" lon="-1.79701">
        <ele>63</ele>
        <time>2022-10-29T12:56:08Z</time>
      </trkpt>
      <trkpt lat="47.10367" lon="-1.79683">
        <ele>63</ele>
        <time>2022-10-29T12:56:10Z</time>
      </trkpt>
      <trkpt lat="47.10369" lon="-1.79664">
        <ele>63</ele>
        <time>2022-10-29T12:56:12Z</time>
      </trkpt>
      <trkpt lat="47.10371" lon="-1.79646">
        <ele>63</ele>
        <time>2022-10-29T12:56:14Z</time>
      </trkpt>
      <trkpt lat="47.10372" lon="-1.79627">
        <ele>63</ele>
        <time>2022-10-29T12:56:16Z</time>
      </trkpt>
      <trkpt lat="47.10373" lon="-1.79607">
        <ele>63</ele>
        <time>2022-10-29T12:56:18Z</time>
      </trkpt>
      <trkpt lat="47.10374" lon="-1.79588">
        <ele>63</ele>
        <time>2022-10-29T12:56:20Z</time>
      </trkpt>
      <trkpt lat="47.10376" lon="-1.79569">
        <ele>63</ele>
        <time>2022-10-29T12:56:22Z</time>
      </trkpt>
      <trkpt lat="47.10377" lon="-1.7955">
        <ele>62</ele>
        <time>2022-10-29T12:56:24Z</time>
      </trkpt>
      <trkpt lat="47.10378" lon="-1.79531">
        <ele>62</ele>
        <time>2022-10-29T12:56:26Z</time>
      </trkpt>
      <trkpt lat="47.1038" lon="-1.79513">
        <ele>62</ele>
        <time>2022-10-29T12:56:28Z</time>
      </trkpt>
      <trkpt lat="47.10383" lon="-1.79494">
        <ele>62</ele>
        <time>2022-10-29T12:56:30Z</time>
      </trkpt>
      <trkpt lat="47.10386" lon="-1.79475">
        <ele>62</ele>
        <time>2022-10-29T12:56:32Z</time>
      </trkpt>
      <trkpt lat="47.1039" lon="-1.79456">
        <ele>62</ele>
        <time>2022-10-29T12:56:34Z</time>
      </trkpt>
      <trkpt lat="47.10394" lon="-1.79438">
        <ele>61</ele>
        <time>2022-10-29T12:56:36Z</time>
      </trkpt>
      <trkpt lat="47.10399" lon="-1.7942">
        <ele>61</ele>
        <time>2022-10-29T12:56:38Z</time>
      </trkpt>
      <trkpt lat="47.10405" lon="-1.79402">
        <ele>61</ele>
        <time>2022-10-29T12:56:40Z</time>
      </trkpt>
      <trkpt lat="47.10411" lon="-1.79384">
        <ele>60</ele>
        <time>2022-10-29T12:56:42Z</time>
      </trkpt>
      <trkpt lat="47.10418" lon="-1.79365">
        <ele>60</ele>
        <time>2022-10-29T12:56:44Z</time>
      </trkpt>
      <trkpt lat="47.10425" lon="-1.79347">
        <ele>60</ele>
        <time>2022-10-29T12:56:46Z</time>
      </trkpt>
      <trkpt lat="47.10432" lon="-1.79329">
        <ele>60</ele>
        <time>2022-10-29T12:56:48Z</time>
      </trkpt>
      <trkpt lat="47.10438" lon="-1.79312">
        <ele>59</ele>
        <time>2022-10-29T12:56:50Z</time>
      </trkpt>
      <trkpt lat="47.10444" lon="-1.79293">
        <ele>59</ele>
        <time>2022-10-29T12:56:52Z</time>
      </trkpt>
      <trkpt lat="47.10442" lon="-1.79273">
        <ele>60</ele>
        <time>2022-10-29T12:56:54Z</time>
      </trkpt>
      <trkpt lat="47.10432" lon="-1.7926">
        <ele>60</ele>
        <time>2022-10-29T12:56:56Z</time>
      </trkpt>
      <trkpt lat="47.10422" lon="-1.79249">
        <ele>60</ele>
        <time>2022-10-29T12:56:58Z</time>
      </trkpt>
      <trkpt lat="47.10413" lon="-1.79238">
        <ele>61</ele>
        <time>2022-10-29T12:57:00Z</time>
      </trkpt>
      <trkpt lat="47.10403" lon="-1.79227">
        <ele>61</ele>
        <time>2022-10-29T12:57:02Z</time>
      </trkpt>
      <trkpt lat="47.10395" lon="-1.79216">
        <ele>61</ele>
        <time>2022-10-29T12:57:04Z</time>
      </trkpt>
      <trkpt lat="47.10387" lon="-1.79204">
        <ele>61</ele>
        <time>2022-10-29T12:57:06Z</time>
      </trkpt>
      <trkpt lat="47.10378" lon="-1.79193">
        <ele>61</ele>
        <time>2022-10-29T12:57:08Z</time>
      </trkpt>
      <trkpt lat="47.10369" lon="-1.79183">
        <ele>62</ele>
        <time>2022-10-29T12:57:10Z</time>
      </trkpt>
      <trkpt lat="47.10361" lon="-1.79172">
        <ele>63</ele>
        <time>2022-10-29T12:57:12Z</time>
      </trkpt>
      <trkpt lat="47.10353" lon="-1.7916">
        <ele>62</ele>
        <time>2022-10-29T12:57:14Z</time>
      </trkpt>
      <trkpt lat="47.10345" lon="-1.79149">
        <ele>62</ele>
        <time>2022-10-29T12:57:16Z</time>
      </trkpt>
      <trkpt lat="47.10339" lon="-1.7914">
        <ele>62</ele>
        <time>2022-10-29T12:57:18Z</time>
      </trkpt>
      <trkpt lat="47.10333" lon="-1.79127">
        <ele>61</ele>
        <time>2022-10-29T12:57:21Z</time>
      </trkpt>
      <trkpt lat="47.10332" lon="-1.79108">
        <ele>62</ele>
        <time>2022-10-29T12:57:24Z</time>
      </trkpt>
      <trkpt lat="47.10328" lon="-1.79094">
        <ele>62</ele>
        <time>2022-10-29T12:57:26Z</time>
      </trkpt>
      <trkpt lat="47.1032" lon="-1.79083">
        <ele>61</ele>
        <time>2022-10-29T12:57:28Z</time>
      </trkpt>
      <trkpt lat="47.10312" lon="-1.79073">
        <ele>61</ele>
        <time>2022-10-29T12:57:30Z</time>
      </trkpt>
      <trkpt lat="47.10304" lon="-1.79062">
        <ele>61</ele>
        <time>2022-10-29T12:57:32Z</time>
      </trkpt>
      <trkpt lat="47.10296" lon="-1.79051">
        <ele>61</ele>
        <time>2022-10-29T12:57:34Z</time>
      </trkpt>
      <trkpt lat="47.10287" lon="-1.7904">
        <ele>61</ele>
        <time>2022-10-29T12:57:36Z</time>
      </trkpt>
      <trkpt lat="47.10278" lon="-1.79029">
        <ele>61</ele>
        <time>2022-10-29T12:57:38Z</time>
      </trkpt>
      <trkpt lat="47.1027" lon="-1.79017">
        <ele>62</ele>
        <time>2022-10-29T12:57:40Z</time>
      </trkpt>
      <trkpt lat="47.10261" lon="-1.79006">
        <ele>62</ele>
        <time>2022-10-29T12:57:42Z</time>
      </trkpt>
      <trkpt lat="47.10252" lon="-1.78995">
        <ele>62</ele>
        <time>2022-10-29T12:57:44Z</time>
      </trkpt>
      <trkpt lat="47.10245" lon="-1.78982">
        <ele>62</ele>
        <time>2022-10-29T12:57:46Z</time>
      </trkpt>
      <trkpt lat="47.10239" lon="-1.78967">
        <ele>62</ele>
        <time>2022-10-29T12:57:48Z</time>
      </trkpt>
      <trkpt lat="47.10236" lon="-1.78949">
        <ele>63</ele>
        <time>2022-10-29T12:57:50Z</time>
      </trkpt>
      <trkpt lat="47.10236" lon="-1.78931">
        <ele>63</ele>
        <time>2022-10-29T12:57:52Z</time>
      </trkpt>
      <trkpt lat="47.10237" lon="-1.78914">
        <ele>63</ele>
        <time>2022-10-29T12:57:54Z</time>
      </trkpt>
      <trkpt lat="47.10241" lon="-1.78897">
        <ele>63</ele>
        <time>2022-10-29T12:57:56Z</time>
      </trkpt>
      <trkpt lat="47.10246" lon="-1.78882">
        <ele>64</ele>
        <time>2022-10-29T12:57:58Z</time>
      </trkpt>
      <trkpt lat="47.10252" lon="-1.78867">
        <ele>64</ele>
        <time>2022-10-29T12:58:00Z</time>
      </trkpt>
      <trkpt lat="47.10258" lon="-1.78852">
        <ele>64</ele>
        <time>2022-10-29T12:58:02Z</time>
      </trkpt>
      <trkpt lat="47.10264" lon="-1.78837">
        <ele>65</ele>
        <time>2022-10-29T12:58:04Z</time>
      </trkpt>
      <trkpt lat="47.1027" lon="-1.78821">
        <ele>64</ele>
        <time>2022-10-29T12:58:06Z</time>
      </trkpt>
      <trkpt lat="47.10276" lon="-1.78804">
        <ele>63</ele>
        <time>2022-10-29T12:58:08Z</time>
      </trkpt>
      <trkpt lat="47.10282" lon="-1.78788">
        <ele>63</ele>
        <time>2022-10-29T12:58:10Z</time>
      </trkpt>
      <trkpt lat="47.10288" lon="-1.7877">
        <ele>62</ele>
        <time>2022-10-29T12:58:12Z</time>
      </trkpt>
      <trkpt lat="47.10292" lon="-1.78751">
        <ele>62</ele>
        <time>2022-10-29T12:58:14Z</time>
      </trkpt>
      <trkpt lat="47.10295" lon="-1.7873">
        <ele>60</ele>
        <time>2022-10-29T12:58:16Z</time>
      </trkpt>
      <trkpt lat="47.10297" lon="-1.78708">
        <ele>59</ele>
        <time>2022-10-29T12:58:18Z</time>
      </trkpt>
      <trkpt lat="47.10298" lon="-1.78684">
        <ele>57</ele>
        <time>2022-10-29T12:58:20Z</time>
      </trkpt>
      <trkpt lat="47.103" lon="-1.7866">
        <ele>56</ele>
        <time>2022-10-29T12:58:22Z</time>
      </trkpt>
      <trkpt lat="47.10301" lon="-1.78634">
        <ele>55</ele>
        <time>2022-10-29T12:58:24Z</time>
      </trkpt>
      <trkpt lat="47.10302" lon="-1.78609">
        <ele>54</ele>
        <time>2022-10-29T12:58:26Z</time>
      </trkpt>
      <trkpt lat="47.10303" lon="-1.78584">
        <ele>53</ele>
        <time>2022-10-29T12:58:28Z</time>
      </trkpt>
      <trkpt lat="47.10304" lon="-1.78561">
        <ele>53</ele>
        <time>2022-10-29T12:58:30Z</time>
      </trkpt>
      <trkpt lat="47.10305" lon="-1.78538">
        <ele>52</ele>
        <time>2022-10-29T12:58:32Z</time>
      </trkpt>
      <trkpt lat="47.10307" lon="-1.78517">
        <ele>52</ele>
        <time>2022-10-29T12:58:34Z</time>
      </trkpt>
      <trkpt lat="47.10309" lon="-1.78497">
        <ele>51</ele>
        <time>2022-10-29T12:58:36Z</time>
      </trkpt>
      <trkpt lat="47.10311" lon="-1.78477">
        <ele>51</ele>
        <time>2022-10-29T12:58:38Z</time>
      </trkpt>
      <trkpt lat="47.10313" lon="-1.7846">
        <ele>52</ele>
        <time>2022-10-29T12:58:40Z</time>
      </trkpt>
      <trkpt lat="47.10315" lon="-1.78443">
        <ele>52</ele>
        <time>2022-10-29T12:58:42Z</time>
      </trkpt>
      <trkpt lat="47.10317" lon="-1.78427">
        <ele>53</ele>
        <time>2022-10-29T12:58:44Z</time>
      </trkpt>
      <trkpt lat="47.1032" lon="-1.78412">
        <ele>53</ele>
        <time>2022-10-29T12:58:46Z</time>
      </trkpt>
      <trkpt lat="47.10322" lon="-1.78398">
        <ele>54</ele>
        <time>2022-10-29T12:58:48Z</time>
      </trkpt>
      <trkpt lat="47.10324" lon="-1.78384">
        <ele>54</ele>
        <time>2022-10-29T12:58:50Z</time>
      </trkpt>
      <trkpt lat="47.10326" lon="-1.78371">
        <ele>55</ele>
        <time>2022-10-29T12:58:52Z</time>
      </trkpt>
      <trkpt lat="47.10329" lon="-1.78352">
        <ele>56</ele>
        <time>2022-10-29T12:58:55Z</time>
      </trkpt>
      <trkpt lat="47.10331" lon="-1.78333">
        <ele>56</ele>
        <time>2022-10-29T12:58:58Z</time>
      </trkpt>
      <trkpt lat="47.10332" lon="-1.7832">
        <ele>57</ele>
        <time>2022-10-29T12:59:00Z</time>
      </trkpt>
      <trkpt lat="47.10332" lon="-1.78306">
        <ele>58</ele>
        <time>2022-10-29T12:59:02Z</time>
      </trkpt>
      <trkpt lat="47.10332" lon="-1.78288">
        <ele>59</ele>
        <time>2022-10-29T12:59:05Z</time>
      </trkpt>
      <trkpt lat="47.10331" lon="-1.78269">
        <ele>60</ele>
        <time>2022-10-29T12:59:08Z</time>
      </trkpt>
      <trkpt lat="47.1033" lon="-1.78255">
        <ele>61</ele>
        <time>2022-10-29T12:59:10Z</time>
      </trkpt>
      <trkpt lat="47.1033" lon="-1.78241">
        <ele>61</ele>
        <time>2022-10-29T12:59:12Z</time>
      </trkpt>
      <trkpt lat="47.10331" lon="-1.78228">
        <ele>62</ele>
        <time>2022-10-29T12:59:14Z</time>
      </trkpt>
      <trkpt lat="47.10332" lon="-1.78209">
        <ele>62</ele>
        <time>2022-10-29T12:59:17Z</time>
      </trkpt>
      <trkpt lat="47.10334" lon="-1.78192">
        <ele>62</ele>
        <time>2022-10-29T12:59:20Z</time>
      </trkpt>
      <trkpt lat="47.10336" lon="-1.78174">
        <ele>63</ele>
        <time>2022-10-29T12:59:23Z</time>
      </trkpt>
      <trkpt lat="47.10338" lon="-1.78156">
        <ele>63</ele>
        <time>2022-10-29T12:59:26Z</time>
      </trkpt>
      <trkpt lat="47.1034" lon="-1.78136">
        <ele>62</ele>
        <time>2022-10-29T12:59:29Z</time>
      </trkpt>
      <trkpt lat="47.10341" lon="-1.78123">
        <ele>62</ele>
        <time>2022-10-29T12:59:31Z</time>
      </trkpt>
      <trkpt lat="47.10342" lon="-1.78109">
        <ele>62</ele>
        <time>2022-10-29T12:59:33Z</time>
      </trkpt>
      <trkpt lat="47.10343" lon="-1.78094">
        <ele>62</ele>
        <time>2022-10-29T12:59:35Z</time>
      </trkpt>
      <trkpt lat="47.10344" lon="-1.7808">
        <ele>62</ele>
        <time>2022-10-29T12:59:37Z</time>
      </trkpt>
      <trkpt lat="47.10345" lon="-1.78064">
        <ele>62</ele>
        <time>2022-10-29T12:59:39Z</time>
      </trkpt>
      <trkpt lat="47.10347" lon="-1.78047">
        <ele>62</ele>
        <time>2022-10-29T12:59:41Z</time>
      </trkpt>
      <trkpt lat="47.1035" lon="-1.7803">
        <ele>61</ele>
        <time>2022-10-29T12:59:43Z</time>
      </trkpt>
      <trkpt lat="47.10354" lon="-1.78012">
        <ele>61</ele>
        <time>2022-10-29T12:59:45Z</time>
      </trkpt>
      <trkpt lat="47.10359" lon="-1.77994">
        <ele>60</ele>
        <time>2022-10-29T12:59:47Z</time>
      </trkpt>
      <trkpt lat="47.10364" lon="-1.77977">
        <ele>60</ele>
        <time>2022-10-29T12:59:49Z</time>
      </trkpt>
      <trkpt lat="47.1037" lon="-1.77958">
        <ele>59</ele>
        <time>2022-10-29T12:59:51Z</time>
      </trkpt>
      <trkpt lat="47.10376" lon="-1.7794">
        <ele>58</ele>
        <time>2022-10-29T12:59:53Z</time>
      </trkpt>
      <trkpt lat="47.10381" lon="-1.77921">
        <ele>58</ele>
        <time>2022-10-29T12:59:55Z</time>
      </trkpt>
      <trkpt lat="47.10386" lon="-1.779">
        <ele>57</ele>
        <time>2022-10-29T12:59:57Z</time>
      </trkpt>
      <trkpt lat="47.1039" lon="-1.77879">
        <ele>56</ele>
        <time>2022-10-29T12:59:59Z</time>
      </trkpt>
      <trkpt lat="47.10393" lon="-1.77858">
        <ele>56</ele>
        <time>2022-10-29T13:00:01Z</time>
      </trkpt>
      <trkpt lat="47.10395" lon="-1.77837">
        <ele>55</ele>
        <time>2022-10-29T13:00:03Z</time>
      </trkpt>
      <trkpt lat="47.10395" lon="-1.77816">
        <ele>55</ele>
        <time>2022-10-29T13:00:05Z</time>
      </trkpt>
      <trkpt lat="47.10395" lon="-1.77795">
        <ele>54</ele>
        <time>2022-10-29T13:00:07Z</time>
      </trkpt>
      <trkpt lat="47.10396" lon="-1.77773">
        <ele>54</ele>
        <time>2022-10-29T13:00:09Z</time>
      </trkpt>
      <trkpt lat="47.10396" lon="-1.77751">
        <ele>54</ele>
        <time>2022-10-29T13:00:11Z</time>
      </trkpt>
      <trkpt lat="47.10396" lon="-1.77729">
        <ele>54</ele>
        <time>2022-10-29T13:00:13Z</time>
      </trkpt>
      <trkpt lat="47.10395" lon="-1.77708">
        <ele>54</ele>
        <time>2022-10-29T13:00:15Z</time>
      </trkpt>
      <trkpt lat="47.10394" lon="-1.77687">
        <ele>54</ele>
        <time>2022-10-29T13:00:17Z</time>
      </trkpt>
      <trkpt lat="47.10393" lon="-1.77666">
        <ele>54</ele>
        <time>2022-10-29T13:00:19Z</time>
      </trkpt>
      <trkpt lat="47.10391" lon="-1.77645">
        <ele>53</ele>
        <time>2022-10-29T13:00:21Z</time>
      </trkpt>
      <trkpt lat="47.1039" lon="-1.77623">
        <ele>53</ele>
        <time>2022-10-29T13:00:23Z</time>
      </trkpt>
      <trkpt lat="47.10388" lon="-1.77603">
        <ele>53</ele>
        <time>2022-10-29T13:00:25Z</time>
      </trkpt>
      <trkpt lat="47.10387" lon="-1.77582">
        <ele>53</ele>
        <time>2022-10-29T13:00:27Z</time>
      </trkpt>
      <trkpt lat="47.10385" lon="-1.77561">
        <ele>53</ele>
        <time>2022-10-29T13:00:29Z</time>
      </trkpt>
      <trkpt lat="47.10383" lon="-1.77541">
        <ele>53</ele>
        <time>2022-10-29T13:00:31Z</time>
      </trkpt>
      <trkpt lat="47.10382" lon="-1.77522">
        <ele>53</ele>
        <time>2022-10-29T13:00:33Z</time>
      </trkpt>
      <trkpt lat="47.1038" lon="-1.77503">
        <ele>53</ele>
        <time>2022-10-29T13:00:35Z</time>
      </trkpt>
      <trkpt lat="47.10379" lon="-1.77485">
        <ele>53</ele>
        <time>2022-10-29T13:00:37Z</time>
      </trkpt>
      <trkpt lat="47.10377" lon="-1.77467">
        <ele>54</ele>
        <time>2022-10-29T13:00:39Z</time>
      </trkpt>
      <trkpt lat="47.10377" lon="-1.77451">
        <ele>54</ele>
        <time>2022-10-29T13:00:41Z</time>
      </trkpt>
      <trkpt lat="47.10381" lon="-1.77438">
        <ele>55</ele>
        <time>2022-10-29T13:00:43Z</time>
      </trkpt>
      <trkpt lat="47.1039" lon="-1.77429">
        <ele>54</ele>
        <time>2022-10-29T13:00:45Z</time>
      </trkpt>
      <trkpt lat="47.10399" lon="-1.77421">
        <ele>54</ele>
        <time>2022-10-29T13:00:47Z</time>
      </trkpt>
      <trkpt lat="47.10408" lon="-1.7741">
        <ele>54</ele>
        <time>2022-10-29T13:00:49Z</time>
      </trkpt>
      <trkpt lat="47.10415" lon="-1.77396">
        <ele>54</ele>
        <time>2022-10-29T13:00:51Z</time>
      </trkpt>
      <trkpt lat="47.1042" lon="-1.7738">
        <ele>53</ele>
        <time>2022-10-29T13:00:53Z</time>
      </trkpt>
      <trkpt lat="47.10422" lon="-1.77362">
        <ele>54</ele>
        <time>2022-10-29T13:00:55Z</time>
      </trkpt>
      <trkpt lat="47.10424" lon="-1.77343">
        <ele>54</ele>
        <time>2022-10-29T13:00:57Z</time>
      </trkpt>
      <trkpt lat="47.10427" lon="-1.77325">
        <ele>54</ele>
        <time>2022-10-29T13:00:59Z</time>
      </trkpt>
      <trkpt lat="47.1043" lon="-1.77306">
        <ele>54</ele>
        <time>2022-10-29T13:01:01Z</time>
      </trkpt>
      <trkpt lat="47.10432" lon="-1.77287">
        <ele>54</ele>
        <time>2022-10-29T13:01:03Z</time>
      </trkpt>
      <trkpt lat="47.10435" lon="-1.77268">
        <ele>54</ele>
        <time>2022-10-29T13:01:05Z</time>
      </trkpt>
      <trkpt lat="47.10438" lon="-1.77249">
        <ele>54</ele>
        <time>2022-10-29T13:01:07Z</time>
      </trkpt>
      <trkpt lat="47.10441" lon="-1.77231">
        <ele>54</ele>
        <time>2022-10-29T13:01:09Z</time>
      </trkpt>
      <trkpt lat="47.10444" lon="-1.77212">
        <ele>54</ele>
        <time>2022-10-29T13:01:11Z</time>
      </trkpt>
      <trkpt lat="47.1045" lon="-1.77193">
        <ele>54</ele>
        <time>2022-10-29T13:01:13Z</time>
      </trkpt>
      <trkpt lat="47.10459" lon="-1.77167">
        <ele>53</ele>
        <time>2022-10-29T13:01:16Z</time>
      </trkpt>
      <trkpt lat="47.1047" lon="-1.77142">
        <ele>53</ele>
        <time>2022-10-29T13:01:19Z</time>
      </trkpt>
      <trkpt lat="47.10477" lon="-1.77124">
        <ele>53</ele>
        <time>2022-10-29T13:01:21Z</time>
      </trkpt>
      <trkpt lat="47.10485" lon="-1.77108">
        <ele>53</ele>
        <time>2022-10-29T13:01:23Z</time>
      </trkpt>
      <trkpt lat="47.10493" lon="-1.7709">
        <ele>54</ele>
        <time>2022-10-29T13:01:25Z</time>
      </trkpt>
      <trkpt lat="47.10501" lon="-1.77073">
        <ele>54</ele>
        <time>2022-10-29T13:01:27Z</time>
      </trkpt>
      <trkpt lat="47.10508" lon="-1.77056">
        <ele>54</ele>
        <time>2022-10-29T13:01:29Z</time>
      </trkpt>
      <trkpt lat="47.10516" lon="-1.77038">
        <ele>53</ele>
        <time>2022-10-29T13:01:31Z</time>
      </trkpt>
      <trkpt lat="47.10524" lon="-1.77021">
        <ele>53</ele>
        <time>2022-10-29T13:01:33Z</time>
      </trkpt>
      <trkpt lat="47.10532" lon="-1.77004">
        <ele>53</ele>
        <time>2022-10-29T13:01:35Z</time>
      </trkpt>
      <trkpt lat="47.1054" lon="-1.76986">
        <ele>53</ele>
        <time>2022-10-29T13:01:37Z</time>
      </trkpt>
      <trkpt lat="47.10548" lon="-1.76969">
        <ele>52</ele>
        <time>2022-10-29T13:01:39Z</time>
      </trkpt>
      <trkpt lat="47.10557" lon="-1.76951">
        <ele>51</ele>
        <time>2022-10-29T13:01:41Z</time>
      </trkpt>
      <trkpt lat="47.10567" lon="-1.76935">
        <ele>52</ele>
        <time>2022-10-29T13:01:43Z</time>
      </trkpt>
      <trkpt lat="47.10583" lon="-1.76914">
        <ele>51</ele>
        <time>2022-10-29T13:01:46Z</time>
      </trkpt>
      <trkpt lat="47.10602" lon="-1.76896">
        <ele>51</ele>
        <time>2022-10-29T13:01:49Z</time>
      </trkpt>
      <trkpt lat="47.10614" lon="-1.76885">
        <ele>51</ele>
        <time>2022-10-29T13:01:51Z</time>
      </trkpt>
      <trkpt lat="47.10625" lon="-1.76873">
        <ele>51</ele>
        <time>2022-10-29T13:01:53Z</time>
      </trkpt>
      <trkpt lat="47.10635" lon="-1.76859">
        <ele>51</ele>
        <time>2022-10-29T13:01:55Z</time>
      </trkpt>
      <trkpt lat="47.10644" lon="-1.76844">
        <ele>51</ele>
        <time>2022-10-29T13:01:57Z</time>
      </trkpt>
      <trkpt lat="47.10652" lon="-1.76827">
        <ele>51</ele>
        <time>2022-10-29T13:01:59Z</time>
      </trkpt>
      <trkpt lat="47.10659" lon="-1.76808">
        <ele>51</ele>
        <time>2022-10-29T13:02:01Z</time>
      </trkpt>
      <trkpt lat="47.10664" lon="-1.76789">
        <ele>51</ele>
        <time>2022-10-29T13:02:03Z</time>
      </trkpt>
      <trkpt lat="47.10669" lon="-1.76771">
        <ele>52</ele>
        <time>2022-10-29T13:02:05Z</time>
      </trkpt>
      <trkpt lat="47.10674" lon="-1.76755">
        <ele>52</ele>
        <time>2022-10-29T13:02:07Z</time>
      </trkpt>
      <trkpt lat="47.10679" lon="-1.76738">
        <ele>52</ele>
        <time>2022-10-29T13:02:09Z</time>
      </trkpt>
      <trkpt lat="47.10685" lon="-1.76723">
        <ele>53</ele>
        <time>2022-10-29T13:02:11Z</time>
      </trkpt>
      <trkpt lat="47.1069" lon="-1.76707">
        <ele>53</ele>
        <time>2022-10-29T13:02:13Z</time>
      </trkpt>
      <trkpt lat="47.10695" lon="-1.76691">
        <ele>53</ele>
        <time>2022-10-29T13:02:15Z</time>
      </trkpt>
      <trkpt lat="47.10701" lon="-1.76675">
        <ele>53</ele>
        <time>2022-10-29T13:02:17Z</time>
      </trkpt>
      <trkpt lat="47.10706" lon="-1.76661">
        <ele>54</ele>
        <time>2022-10-29T13:02:19Z</time>
      </trkpt>
      <trkpt lat="47.10712" lon="-1.76647">
        <ele>54</ele>
        <time>2022-10-29T13:02:21Z</time>
      </trkpt>
      <trkpt lat="47.10717" lon="-1.76633">
        <ele>54</ele>
        <time>2022-10-29T13:02:23Z</time>
      </trkpt>
      <trkpt lat="47.10723" lon="-1.76618">
        <ele>54</ele>
        <time>2022-10-29T13:02:25Z</time>
      </trkpt>
      <trkpt lat="47.10728" lon="-1.76604">
        <ele>54</ele>
        <time>2022-10-29T13:02:27Z</time>
      </trkpt>
      <trkpt lat="47.10733" lon="-1.7659">
        <ele>55</ele>
        <time>2022-10-29T13:02:29Z</time>
      </trkpt>
      <trkpt lat="47.10738" lon="-1.76576">
        <ele>55</ele>
        <time>2022-10-29T13:02:31Z</time>
      </trkpt>
      <trkpt lat="47.10742" lon="-1.76562">
        <ele>55</ele>
        <time>2022-10-29T13:02:33Z</time>
      </trkpt>
      <trkpt lat="47.10746" lon="-1.76547">
        <ele>55</ele>
        <time>2022-10-29T13:02:35Z</time>
      </trkpt>
      <trkpt lat="47.10749" lon="-1.76531">
        <ele>55</ele>
        <time>2022-10-29T13:02:37Z</time>
      </trkpt>
      <trkpt lat="47.10752" lon="-1.76516">
        <ele>55</ele>
        <time>2022-10-29T13:02:39Z</time>
      </trkpt>
      <trkpt lat="47.10754" lon="-1.765">
        <ele>55</ele>
        <time>2022-10-29T13:02:41Z</time>
      </trkpt>
      <trkpt lat="47.10757" lon="-1.76484">
        <ele>55</ele>
        <time>2022-10-29T13:02:43Z</time>
      </trkpt>
      <trkpt lat="47.1076" lon="-1.76468">
        <ele>55</ele>
        <time>2022-10-29T13:02:45Z</time>
      </trkpt>
      <trkpt lat="47.10762" lon="-1.76452">
        <ele>55</ele>
        <time>2022-10-29T13:02:47Z</time>
      </trkpt>
      <trkpt lat="47.10765" lon="-1.76435">
        <ele>55</ele>
        <time>2022-10-29T13:02:49Z</time>
      </trkpt>
      <trkpt lat="47.10768" lon="-1.76418">
        <ele>56</ele>
        <time>2022-10-29T13:02:51Z</time>
      </trkpt>
      <trkpt lat="47.10771" lon="-1.76401">
        <ele>56</ele>
        <time>2022-10-29T13:02:53Z</time>
      </trkpt>
      <trkpt lat="47.10773" lon="-1.76384">
        <ele>56</ele>
        <time>2022-10-29T13:02:55Z</time>
      </trkpt>
      <trkpt lat="47.10777" lon="-1.76367">
        <ele>56</ele>
        <time>2022-10-29T13:02:57Z</time>
      </trkpt>
      <trkpt lat="47.1078" lon="-1.76351">
        <ele>56</ele>
        <time>2022-10-29T13:02:59Z</time>
      </trkpt>
      <trkpt lat="47.10783" lon="-1.76334">
        <ele>56</ele>
        <time>2022-10-29T13:03:01Z</time>
      </trkpt>
      <trkpt lat="47.10786" lon="-1.76318">
        <ele>56</ele>
        <time>2022-10-29T13:03:03Z</time>
      </trkpt>
      <trkpt lat="47.1079" lon="-1.76302">
        <ele>56</ele>
        <time>2022-10-29T13:03:05Z</time>
      </trkpt>
      <trkpt lat="47.10793" lon="-1.76285">
        <ele>56</ele>
        <time>2022-10-29T13:03:07Z</time>
      </trkpt>
      <trkpt lat="47.10797" lon="-1.76269">
        <ele>56</ele>
        <time>2022-10-29T13:03:09Z</time>
      </trkpt>
      <trkpt lat="47.108" lon="-1.76253">
        <ele>56</ele>
        <time>2022-10-29T13:03:11Z</time>
      </trkpt>
      <trkpt lat="47.10803" lon="-1.76238">
        <ele>56</ele>
        <time>2022-10-29T13:03:13Z</time>
      </trkpt>
      <trkpt lat="47.10807" lon="-1.76222">
        <ele>57</ele>
        <time>2022-10-29T13:03:15Z</time>
      </trkpt>
      <trkpt lat="47.1081" lon="-1.76206">
        <ele>57</ele>
        <time>2022-10-29T13:03:17Z</time>
      </trkpt>
      <trkpt lat="47.10814" lon="-1.7619">
        <ele>57</ele>
        <time>2022-10-29T13:03:19Z</time>
      </trkpt>
      <trkpt lat="47.10817" lon="-1.76175">
        <ele>57</ele>
        <time>2022-10-29T13:03:21Z</time>
      </trkpt>
      <trkpt lat="47.1082" lon="-1.76159">
        <ele>57</ele>
        <time>2022-10-29T13:03:23Z</time>
      </trkpt>
      <trkpt lat="47.10823" lon="-1.76143">
        <ele>57</ele>
        <time>2022-10-29T13:03:25Z</time>
      </trkpt>
      <trkpt lat="47.10826" lon="-1.76126">
        <ele>57</ele>
        <time>2022-10-29T13:03:27Z</time>
      </trkpt>
      <trkpt lat="47.10828" lon="-1.76109">
        <ele>56</ele>
        <time>2022-10-29T13:03:29Z</time>
      </trkpt>
      <trkpt lat="47.10831" lon="-1.76091">
        <ele>56</ele>
        <time>2022-10-29T13:03:31Z</time>
      </trkpt>
      <trkpt lat="47.10833" lon="-1.76073">
        <ele>56</ele>
        <time>2022-10-29T13:03:33Z</time>
      </trkpt>
      <trkpt lat="47.10836" lon="-1.76056">
        <ele>56</ele>
        <time>2022-10-29T13:03:35Z</time>
      </trkpt>
      <trkpt lat="47.10838" lon="-1.76038">
        <ele>55</ele>
        <time>2022-10-29T13:03:37Z</time>
      </trkpt>
      <trkpt lat="47.1084" lon="-1.76021">
        <ele>55</ele>
        <time>2022-10-29T13:03:39Z</time>
      </trkpt>
      <trkpt lat="47.10842" lon="-1.76002">
        <ele>55</ele>
        <time>2022-10-29T13:03:41Z</time>
      </trkpt>
      <trkpt lat="47.10845" lon="-1.75984">
        <ele>55</ele>
        <time>2022-10-29T13:03:43Z</time>
      </trkpt>
      <trkpt lat="47.10848" lon="-1.75967">
        <ele>56</ele>
        <time>2022-10-29T13:03:45Z</time>
      </trkpt>
      <trkpt lat="47.10852" lon="-1.75949">
        <ele>56</ele>
        <time>2022-10-29T13:03:47Z</time>
      </trkpt>
      <trkpt lat="47.10857" lon="-1.75932">
        <ele>55</ele>
        <time>2022-10-29T13:03:49Z</time>
      </trkpt>
      <trkpt lat="47.10863" lon="-1.75915">
        <ele>56</ele>
        <time>2022-10-29T13:03:51Z</time>
      </trkpt>
      <trkpt lat="47.10869" lon="-1.75899">
        <ele>56</ele>
        <time>2022-10-29T13:03:53Z</time>
      </trkpt>
      <trkpt lat="47.10876" lon="-1.75883">
        <ele>56</ele>
        <time>2022-10-29T13:03:55Z</time>
      </trkpt>
      <trkpt lat="47.10884" lon="-1.7587">
        <ele>56</ele>
        <time>2022-10-29T13:03:57Z</time>
      </trkpt>
      <trkpt lat="47.10895" lon="-1.75861">
        <ele>56</ele>
        <time>2022-10-29T13:03:59Z</time>
      </trkpt>
      <trkpt lat="47.10907" lon="-1.75855">
        <ele>56</ele>
        <time>2022-10-29T13:04:01Z</time>
      </trkpt>
      <trkpt lat="47.10919" lon="-1.75852">
        <ele>56</ele>
        <time>2022-10-29T13:04:03Z</time>
      </trkpt>
      <trkpt lat="47.10933" lon="-1.75849">
        <ele>55</ele>
        <time>2022-10-29T13:04:05Z</time>
      </trkpt>
      <trkpt lat="47.10945" lon="-1.75847">
        <ele>55</ele>
        <time>2022-10-29T13:04:07Z</time>
      </trkpt>
      <trkpt lat="47.10957" lon="-1.75845">
        <ele>55</ele>
        <time>2022-10-29T13:04:09Z</time>
      </trkpt>
      <trkpt lat="47.1097" lon="-1.75842">
        <ele>55</ele>
        <time>2022-10-29T13:04:11Z</time>
      </trkpt>
      <trkpt lat="47.10982" lon="-1.75838">
        <ele>54</ele>
        <time>2022-10-29T13:04:13Z</time>
      </trkpt>
      <trkpt lat="47.10995" lon="-1.75831">
        <ele>54</ele>
        <time>2022-10-29T13:04:15Z</time>
      </trkpt>
      <trkpt lat="47.11006" lon="-1.75822">
        <ele>54</ele>
        <time>2022-10-29T13:04:17Z</time>
      </trkpt>
      <trkpt lat="47.11016" lon="-1.7581">
        <ele>54</ele>
        <time>2022-10-29T13:04:19Z</time>
      </trkpt>
      <trkpt lat="47.11026" lon="-1.75798">
        <ele>54</ele>
        <time>2022-10-29T13:04:21Z</time>
      </trkpt>
      <trkpt lat="47.11035" lon="-1.75786">
        <ele>54</ele>
        <time>2022-10-29T13:04:23Z</time>
      </trkpt>
      <trkpt lat="47.11044" lon="-1.75775">
        <ele>54</ele>
        <time>2022-10-29T13:04:25Z</time>
      </trkpt>
      <trkpt lat="47.11054" lon="-1.75763">
        <ele>54</ele>
        <time>2022-10-29T13:04:27Z</time>
      </trkpt>
      <trkpt lat="47.11063" lon="-1.7575">
        <ele>54</ele>
        <time>2022-10-29T13:04:29Z</time>
      </trkpt>
      <trkpt lat="47.11072" lon="-1.75737">
        <ele>54</ele>
        <time>2022-10-29T13:04:31Z</time>
      </trkpt>
      <trkpt lat="47.1108" lon="-1.75724">
        <ele>54</ele>
        <time>2022-10-29T13:04:33Z</time>
      </trkpt>
      <trkpt lat="47.11087" lon="-1.75708">
        <ele>53</ele>
        <time>2022-10-29T13:04:35Z</time>
      </trkpt>
      <trkpt lat="47.11093" lon="-1.7569">
        <ele>53</ele>
        <time>2022-10-29T13:04:37Z</time>
      </trkpt>
      <trkpt lat="47.11097" lon="-1.75672">
        <ele>53</ele>
        <time>2022-10-29T13:04:39Z</time>
      </trkpt>
      <trkpt lat="47.11102" lon="-1.75652">
        <ele>52</ele>
        <time>2022-10-29T13:04:41Z</time>
      </trkpt>
      <trkpt lat="47.11106" lon="-1.75632">
        <ele>52</ele>
        <time>2022-10-29T13:04:43Z</time>
      </trkpt>
      <trkpt lat="47.11112" lon="-1.75613">
        <ele>52</ele>
        <time>2022-10-29T13:04:45Z</time>
      </trkpt>
      <trkpt lat="47.11118" lon="-1.75593">
        <ele>51</ele>
        <time>2022-10-29T13:04:47Z</time>
      </trkpt>
      <trkpt lat="47.11124" lon="-1.75573">
        <ele>50</ele>
        <time>2022-10-29T13:04:49Z</time>
      </trkpt>
      <trkpt lat="47.11131" lon="-1.75555">
        <ele>50</ele>
        <time>2022-10-29T13:04:51Z</time>
      </trkpt>
      <trkpt lat="47.1114" lon="-1.7554">
        <ele>51</ele>
        <time>2022-10-29T13:04:53Z</time>
      </trkpt>
      <trkpt lat="47.11151" lon="-1.7553">
        <ele>51</ele>
        <time>2022-10-29T13:04:55Z</time>
      </trkpt>
      <trkpt lat="47.11164" lon="-1.75524">
        <ele>51</ele>
        <time>2022-10-29T13:04:57Z</time>
      </trkpt>
      <trkpt lat="47.11176" lon="-1.75519">
        <ele>51</ele>
        <time>2022-10-29T13:04:59Z</time>
      </trkpt>
      <trkpt lat="47.11188" lon="-1.75512">
        <ele>51</ele>
        <time>2022-10-29T13:05:01Z</time>
      </trkpt>
      <trkpt lat="47.11199" lon="-1.75504">
        <ele>52</ele>
        <time>2022-10-29T13:05:03Z</time>
      </trkpt>
      <trkpt lat="47.11209" lon="-1.75493">
        <ele>51</ele>
        <time>2022-10-29T13:05:05Z</time>
      </trkpt>
      <trkpt lat="47.11217" lon="-1.75482">
        <ele>52</ele>
        <time>2022-10-29T13:05:07Z</time>
      </trkpt>
      <trkpt lat="47.11225" lon="-1.75468">
        <ele>52</ele>
        <time>2022-10-29T13:05:09Z</time>
      </trkpt>
      <trkpt lat="47.11232" lon="-1.75454">
        <ele>53</ele>
        <time>2022-10-29T13:05:11Z</time>
      </trkpt>
      <trkpt lat="47.11239" lon="-1.75439">
        <ele>53</ele>
        <time>2022-10-29T13:05:13Z</time>
      </trkpt>
      <trkpt lat="47.11247" lon="-1.75423">
        <ele>54</ele>
        <time>2022-10-29T13:05:15Z</time>
      </trkpt>
      <trkpt lat="47.11254" lon="-1.75408">
        <ele>54</ele>
        <time>2022-10-29T13:05:17Z</time>
      </trkpt>
      <trkpt lat="47.11261" lon="-1.75394">
        <ele>54</ele>
        <time>2022-10-29T13:05:19Z</time>
      </trkpt>
      <trkpt lat="47.11269" lon="-1.7538">
        <ele>54</ele>
        <time>2022-10-29T13:05:21Z</time>
      </trkpt>
      <trkpt lat="47.11276" lon="-1.75366">
        <ele>55</ele>
        <time>2022-10-29T13:05:23Z</time>
      </trkpt>
      <trkpt lat="47.11282" lon="-1.75353">
        <ele>55</ele>
        <time>2022-10-29T13:05:25Z</time>
      </trkpt>
      <trkpt lat="47.11289" lon="-1.75341">
        <ele>56</ele>
        <time>2022-10-29T13:05:27Z</time>
      </trkpt>
      <trkpt lat="47.11294" lon="-1.75328">
        <ele>56</ele>
        <time>2022-10-29T13:05:29Z</time>
      </trkpt>
      <trkpt lat="47.11299" lon="-1.75314">
        <ele>56</ele>
        <time>2022-10-29T13:05:31Z</time>
      </trkpt>
      <trkpt lat="47.11304" lon="-1.75301">
        <ele>57</ele>
        <time>2022-10-29T13:05:33Z</time>
      </trkpt>
      <trkpt lat="47.11307" lon="-1.75286">
        <ele>57</ele>
        <time>2022-10-29T13:05:35Z</time>
      </trkpt>
      <trkpt lat="47.11309" lon="-1.75271">
        <ele>57</ele>
        <time>2022-10-29T13:05:37Z</time>
      </trkpt>
      <trkpt lat="47.11311" lon="-1.75255">
        <ele>57</ele>
        <time>2022-10-29T13:05:39Z</time>
      </trkpt>
      <trkpt lat="47.11314" lon="-1.75239">
        <ele>57</ele>
        <time>2022-10-29T13:05:41Z</time>
      </trkpt>
      <trkpt lat="47.11316" lon="-1.75224">
        <ele>57</ele>
        <time>2022-10-29T13:05:43Z</time>
      </trkpt>
      <trkpt lat="47.11319" lon="-1.75209">
        <ele>57</ele>
        <time>2022-10-29T13:05:45Z</time>
      </trkpt>
      <trkpt lat="47.11322" lon="-1.75194">
        <ele>57</ele>
        <time>2022-10-29T13:05:47Z</time>
      </trkpt>
      <trkpt lat="47.11325" lon="-1.75177">
        <ele>57</ele>
        <time>2022-10-29T13:05:49Z</time>
      </trkpt>
      <trkpt lat="47.11328" lon="-1.75162">
        <ele>57</ele>
        <time>2022-10-29T13:05:51Z</time>
      </trkpt>
      <trkpt lat="47.11331" lon="-1.75146">
        <ele>57</ele>
        <time>2022-10-29T13:05:53Z</time>
      </trkpt>
      <trkpt lat="47.11335" lon="-1.7513">
        <ele>57</ele>
        <time>2022-10-29T13:05:55Z</time>
      </trkpt>
      <trkpt lat="47.1134" lon="-1.75114">
        <ele>57</ele>
        <time>2022-10-29T13:05:57Z</time>
      </trkpt>
      <trkpt lat="47.11345" lon="-1.75098">
        <ele>56</ele>
        <time>2022-10-29T13:05:59Z</time>
      </trkpt>
      <trkpt lat="47.1135" lon="-1.75082">
        <ele>56</ele>
        <time>2022-10-29T13:06:01Z</time>
      </trkpt>
      <trkpt lat="47.11355" lon="-1.75066">
        <ele>56</ele>
        <time>2022-10-29T13:06:03Z</time>
      </trkpt>
      <trkpt lat="47.11359" lon="-1.75049">
        <ele>55</ele>
        <time>2022-10-29T13:06:05Z</time>
      </trkpt>
      <trkpt lat="47.11364" lon="-1.75031">
        <ele>55</ele>
        <time>2022-10-29T13:06:07Z</time>
      </trkpt>
      <trkpt lat="47.11367" lon="-1.75014">
        <ele>55</ele>
        <time>2022-10-29T13:06:09Z</time>
      </trkpt>
      <trkpt lat="47.11367" lon="-1.74995">
        <ele>55</ele>
        <time>2022-10-29T13:06:11Z</time>
      </trkpt>
      <trkpt lat="47.11366" lon="-1.74976">
        <ele>54</ele>
        <time>2022-10-29T13:06:13Z</time>
      </trkpt>
      <trkpt lat="47.11364" lon="-1.74957">
        <ele>54</ele>
        <time>2022-10-29T13:06:15Z</time>
      </trkpt>
      <trkpt lat="47.11362" lon="-1.74937">
        <ele>53</ele>
        <time>2022-10-29T13:06:17Z</time>
      </trkpt>
      <trkpt lat="47.1136" lon="-1.74917">
        <ele>53</ele>
        <time>2022-10-29T13:06:19Z</time>
      </trkpt>
      <trkpt lat="47.11357" lon="-1.74897">
        <ele>53</ele>
        <time>2022-10-29T13:06:21Z</time>
      </trkpt>
      <trkpt lat="47.11356" lon="-1.74877">
        <ele>54</ele>
        <time>2022-10-29T13:06:23Z</time>
      </trkpt>
      <trkpt lat="47.11354" lon="-1.74856">
        <ele>54</ele>
        <time>2022-10-29T13:06:25Z</time>
      </trkpt>
      <trkpt lat="47.11354" lon="-1.74836">
        <ele>54</ele>
        <time>2022-10-29T13:06:27Z</time>
      </trkpt>
      <trkpt lat="47.11356" lon="-1.74817">
        <ele>53</ele>
        <time>2022-10-29T13:06:29Z</time>
      </trkpt>
      <trkpt lat="47.11359" lon="-1.74798">
        <ele>53</ele>
        <time>2022-10-29T13:06:31Z</time>
      </trkpt>
      <trkpt lat="47.11363" lon="-1.74779">
        <ele>53</ele>
        <time>2022-10-29T13:06:33Z</time>
      </trkpt>
      <trkpt lat="47.11367" lon="-1.74759">
        <ele>53</ele>
        <time>2022-10-29T13:06:35Z</time>
      </trkpt>
      <trkpt lat="47.1137" lon="-1.7474">
        <ele>53</ele>
        <time>2022-10-29T13:06:37Z</time>
      </trkpt>
      <trkpt lat="47.11371" lon="-1.74721">
        <ele>53</ele>
        <time>2022-10-29T13:06:39Z</time>
      </trkpt>
      <trkpt lat="47.11372" lon="-1.74702">
        <ele>53</ele>
        <time>2022-10-29T13:06:41Z</time>
      </trkpt>
      <trkpt lat="47.11373" lon="-1.74684">
        <ele>53</ele>
        <time>2022-10-29T13:06:43Z</time>
      </trkpt>
      <trkpt lat="47.11374" lon="-1.74666">
        <ele>53</ele>
        <time>2022-10-29T13:06:45Z</time>
      </trkpt>
      <trkpt lat="47.11375" lon="-1.74648">
        <ele>53</ele>
        <time>2022-10-29T13:06:47Z</time>
      </trkpt>
      <trkpt lat="47.11376" lon="-1.74629">
        <ele>53</ele>
        <time>2022-10-29T13:06:49Z</time>
      </trkpt>
      <trkpt lat="47.11377" lon="-1.74611">
        <ele>54</ele>
        <time>2022-10-29T13:06:51Z</time>
      </trkpt>
      <trkpt lat="47.11378" lon="-1.74593">
        <ele>54</ele>
        <time>2022-10-29T13:06:53Z</time>
      </trkpt>
      <trkpt lat="47.11379" lon="-1.74575">
        <ele>54</ele>
        <time>2022-10-29T13:06:55Z</time>
      </trkpt>
      <trkpt lat="47.11381" lon="-1.74558">
        <ele>54</ele>
        <time>2022-10-29T13:06:57Z</time>
      </trkpt>
      <trkpt lat="47.11384" lon="-1.7454">
        <ele>54</ele>
        <time>2022-10-29T13:06:59Z</time>
      </trkpt>
      <trkpt lat="47.11387" lon="-1.74523">
        <ele>53</ele>
        <time>2022-10-29T13:07:01Z</time>
      </trkpt>
      <trkpt lat="47.11391" lon="-1.74506">
        <ele>53</ele>
        <time>2022-10-29T13:07:03Z</time>
      </trkpt>
      <trkpt lat="47.11395" lon="-1.74489">
        <ele>54</ele>
        <time>2022-10-29T13:07:05Z</time>
      </trkpt>
      <trkpt lat="47.11399" lon="-1.74472">
        <ele>54</ele>
        <time>2022-10-29T13:07:07Z</time>
      </trkpt>
      <trkpt lat="47.11402" lon="-1.74456">
        <ele>54</ele>
        <time>2022-10-29T13:07:09Z</time>
      </trkpt>
      <trkpt lat="47.11406" lon="-1.74438">
        <ele>53</ele>
        <time>2022-10-29T13:07:11Z</time>
      </trkpt>
      <trkpt lat="47.11408" lon="-1.7442">
        <ele>53</ele>
        <time>2022-10-29T13:07:13Z</time>
      </trkpt>
      <trkpt lat="47.1141" lon="-1.74402">
        <ele>53</ele>
        <time>2022-10-29T13:07:15Z</time>
      </trkpt>
      <trkpt lat="47.11414" lon="-1.74383">
        <ele>53</ele>
        <time>2022-10-29T13:07:17Z</time>
      </trkpt>
      <trkpt lat="47.11419" lon="-1.74366">
        <ele>53</ele>
        <time>2022-10-29T13:07:19Z</time>
      </trkpt>
      <trkpt lat="47.11425" lon="-1.7435">
        <ele>53</ele>
        <time>2022-10-29T13:07:21Z</time>
      </trkpt>
      <trkpt lat="47.1143" lon="-1.74335">
        <ele>53</ele>
        <time>2022-10-29T13:07:23Z</time>
      </trkpt>
      <trkpt lat="47.11432" lon="-1.74317">
        <ele>53</ele>
        <time>2022-10-29T13:07:25Z</time>
      </trkpt>
      <trkpt lat="47.11431" lon="-1.74299">
        <ele>53</ele>
        <time>2022-10-29T13:07:27Z</time>
      </trkpt>
      <trkpt lat="47.11429" lon="-1.7428">
        <ele>52</ele>
        <time>2022-10-29T13:07:29Z</time>
      </trkpt>
      <trkpt lat="47.11427" lon="-1.74261">
        <ele>52</ele>
        <time>2022-10-29T13:07:31Z</time>
      </trkpt>
      <trkpt lat="47.11426" lon="-1.74242">
        <ele>52</ele>
        <time>2022-10-29T13:07:33Z</time>
      </trkpt>
      <trkpt lat="47.11426" lon="-1.74225">
        <ele>52</ele>
        <time>2022-10-29T13:07:35Z</time>
      </trkpt>
      <trkpt lat="47.11427" lon="-1.74208">
        <ele>52</ele>
        <time>2022-10-29T13:07:37Z</time>
      </trkpt>
      <trkpt lat="47.11428" lon="-1.74189">
        <ele>52</ele>
        <time>2022-10-29T13:07:39Z</time>
      </trkpt>
      <trkpt lat="47.1143" lon="-1.74169">
        <ele>51</ele>
        <time>2022-10-29T13:07:41Z</time>
      </trkpt>
      <trkpt lat="47.11433" lon="-1.74151">
        <ele>51</ele>
        <time>2022-10-29T13:07:43Z</time>
      </trkpt>
      <trkpt lat="47.11437" lon="-1.74133">
        <ele>51</ele>
        <time>2022-10-29T13:07:45Z</time>
      </trkpt>
      <trkpt lat="47.11443" lon="-1.74116">
        <ele>51</ele>
        <time>2022-10-29T13:07:47Z</time>
      </trkpt>
      <trkpt lat="47.1145" lon="-1.74102">
        <ele>51</ele>
        <time>2022-10-29T13:07:49Z</time>
      </trkpt>
      <trkpt lat="47.11458" lon="-1.74088">
        <ele>51</ele>
        <time>2022-10-29T13:07:51Z</time>
      </trkpt>
      <trkpt lat="47.11467" lon="-1.74075">
        <ele>51</ele>
        <time>2022-10-29T13:07:53Z</time>
      </trkpt>
      <trkpt lat="47.11477" lon="-1.74062">
        <ele>51</ele>
        <time>2022-10-29T13:07:55Z</time>
      </trkpt>
      <trkpt lat="47.11485" lon="-1.74049">
        <ele>51</ele>
        <time>2022-10-29T13:07:57Z</time>
      </trkpt>
      <trkpt lat="47.11493" lon="-1.74038">
        <ele>51</ele>
        <time>2022-10-29T13:07:59Z</time>
      </trkpt>
      <trkpt lat="47.115" lon="-1.74026">
        <ele>51</ele>
        <time>2022-10-29T13:08:01Z</time>
      </trkpt>
      <trkpt lat="47.11503" lon="-1.74012">
        <ele>51</ele>
        <time>2022-10-29T13:08:03Z</time>
      </trkpt>
      <trkpt lat="47.115" lon="-1.73999">
        <ele>51</ele>
        <time>2022-10-29T13:08:05Z</time>
      </trkpt>
      <trkpt lat="47.11492" lon="-1.73992">
        <ele>50</ele>
        <time>2022-10-29T13:08:07Z</time>
      </trkpt>
      <trkpt lat="47.11482" lon="-1.73989">
        <ele>50</ele>
        <time>2022-10-29T13:08:09Z</time>
      </trkpt>
      <trkpt lat="47.1147" lon="-1.73984">
        <ele>50</ele>
        <time>2022-10-29T13:08:11Z</time>
      </trkpt>
      <trkpt lat="47.11459" lon="-1.73976">
        <ele>50</ele>
        <time>2022-10-29T13:08:13Z</time>
      </trkpt>
      <trkpt lat="47.11449" lon="-1.73965">
        <ele>50</ele>
        <time>2022-10-29T13:08:15Z</time>
      </trkpt>
      <trkpt lat="47.11441" lon="-1.73952">
        <ele>50</ele>
        <time>2022-10-29T13:08:17Z</time>
      </trkpt>
      <trkpt lat="47.11435" lon="-1.73938">
        <ele>50</ele>
        <time>2022-10-29T13:08:19Z</time>
      </trkpt>
      <trkpt lat="47.1143" lon="-1.73923">
        <ele>50</ele>
        <time>2022-10-29T13:08:21Z</time>
      </trkpt>
      <trkpt lat="47.11426" lon="-1.73908">
        <ele>51</ele>
        <time>2022-10-29T13:08:23Z</time>
      </trkpt>
      <trkpt lat="47.1142" lon="-1.73894">
        <ele>51</ele>
        <time>2022-10-29T13:08:25Z</time>
      </trkpt>
      <trkpt lat="47.11415" lon="-1.73879">
        <ele>51</ele>
        <time>2022-10-29T13:08:27Z</time>
      </trkpt>
      <trkpt lat="47.1141" lon="-1.73865">
        <ele>51</ele>
        <time>2022-10-29T13:08:29Z</time>
      </trkpt>
      <trkpt lat="47.11405" lon="-1.7385">
        <ele>51</ele>
        <time>2022-10-29T13:08:31Z</time>
      </trkpt>
      <trkpt lat="47.11399" lon="-1.73834">
        <ele>51</ele>
        <time>2022-10-29T13:08:33Z</time>
      </trkpt>
      <trkpt lat="47.11394" lon="-1.73819">
        <ele>52</ele>
        <time>2022-10-29T13:08:35Z</time>
      </trkpt>
      <trkpt lat="47.11388" lon="-1.73803">
        <ele>51</ele>
        <time>2022-10-29T13:08:37Z</time>
      </trkpt>
      <trkpt lat="47.11383" lon="-1.73787">
        <ele>51</ele>
        <time>2022-10-29T13:08:39Z</time>
      </trkpt>
      <trkpt lat="47.11378" lon="-1.73771">
        <ele>51</ele>
        <time>2022-10-29T13:08:41Z</time>
      </trkpt>
      <trkpt lat="47.11373" lon="-1.73756">
        <ele>51</ele>
        <time>2022-10-29T13:08:43Z</time>
      </trkpt>
      <trkpt lat="47.11368" lon="-1.73741">
        <ele>51</ele>
        <time>2022-10-29T13:08:45Z</time>
      </trkpt>
      <trkpt lat="47.11362" lon="-1.73727">
        <ele>51</ele>
        <time>2022-10-29T13:08:47Z</time>
      </trkpt>
      <trkpt lat="47.11355" lon="-1.73713">
        <ele>52</ele>
        <time>2022-10-29T13:08:49Z</time>
      </trkpt>
      <trkpt lat="47.11348" lon="-1.737">
        <ele>52</ele>
        <time>2022-10-29T13:08:51Z</time>
      </trkpt>
      <trkpt lat="47.11342" lon="-1.73687">
        <ele>52</ele>
        <time>2022-10-29T13:08:53Z</time>
      </trkpt>
      <trkpt lat="47.11336" lon="-1.73673">
        <ele>52</ele>
        <time>2022-10-29T13:08:55Z</time>
      </trkpt>
      <trkpt lat="47.11329" lon="-1.73661">
        <ele>52</ele>
        <time>2022-10-29T13:08:57Z</time>
      </trkpt>
      <trkpt lat="47.11322" lon="-1.73647">
        <ele>52</ele>
        <time>2022-10-29T13:08:59Z</time>
      </trkpt>
      <trkpt lat="47.11315" lon="-1.73634">
        <ele>52</ele>
        <time>2022-10-29T13:09:01Z</time>
      </trkpt>
      <trkpt lat="47.11309" lon="-1.7362">
        <ele>52</ele>
        <time>2022-10-29T13:09:03Z</time>
      </trkpt>
      <trkpt lat="47.11305" lon="-1.73607">
        <ele>52</ele>
        <time>2022-10-29T13:09:05Z</time>
      </trkpt>
      <trkpt lat="47.11299" lon="-1.73595">
        <ele>52</ele>
        <time>2022-10-29T13:09:07Z</time>
      </trkpt>
      <trkpt lat="47.11291" lon="-1.73584">
        <ele>52</ele>
        <time>2022-10-29T13:09:09Z</time>
      </trkpt>
      <trkpt lat="47.11284" lon="-1.73572">
        <ele>52</ele>
        <time>2022-10-29T13:09:11Z</time>
      </trkpt>
      <trkpt lat="47.11277" lon="-1.73561">
        <ele>52</ele>
        <time>2022-10-29T13:09:13Z</time>
      </trkpt>
      <trkpt lat="47.11269" lon="-1.73551">
        <ele>53</ele>
        <time>2022-10-29T13:09:15Z</time>
      </trkpt>
      <trkpt lat="47.11265" lon="-1.73537">
        <ele>53</ele>
        <time>2022-10-29T13:09:17Z</time>
      </trkpt>
      <trkpt lat="47.11263" lon="-1.7352">
        <ele>53</ele>
        <time>2022-10-29T13:09:19Z</time>
      </trkpt>
      <trkpt lat="47.11263" lon="-1.73504">
        <ele>54</ele>
        <time>2022-10-29T13:09:21Z</time>
      </trkpt>
      <trkpt lat="47.11262" lon="-1.73488">
        <ele>54</ele>
        <time>2022-10-29T13:09:23Z</time>
      </trkpt>
      <trkpt lat="47.11261" lon="-1.7347">
        <ele>54</ele>
        <time>2022-10-29T13:09:25Z</time>
      </trkpt>
      <trkpt lat="47.11261" lon="-1.73453">
        <ele>55</ele>
        <time>2022-10-29T13:09:27Z</time>
      </trkpt>
      <trkpt lat="47.11259" lon="-1.73437">
        <ele>55</ele>
        <time>2022-10-29T13:09:29Z</time>
      </trkpt>
      <trkpt lat="47.11258" lon="-1.73421">
        <ele>55</ele>
        <time>2022-10-29T13:09:31Z</time>
      </trkpt>
      <trkpt lat="47.11256" lon="-1.73405">
        <ele>56</ele>
        <time>2022-10-29T13:09:33Z</time>
      </trkpt>
      <trkpt lat="47.11255" lon="-1.73389">
        <ele>56</ele>
        <time>2022-10-29T13:09:35Z</time>
      </trkpt>
      <trkpt lat="47.11254" lon="-1.73373">
        <ele>56</ele>
        <time>2022-10-29T13:09:37Z</time>
      </trkpt>
      <trkpt lat="47.11253" lon="-1.73357">
        <ele>56</ele>
        <time>2022-10-29T13:09:39Z</time>
      </trkpt>
      <trkpt lat="47.11252" lon="-1.73341">
        <ele>57</ele>
        <time>2022-10-29T13:09:41Z</time>
      </trkpt>
      <trkpt lat="47.11251" lon="-1.73325">
        <ele>57</ele>
        <time>2022-10-29T13:09:43Z</time>
      </trkpt>
      <trkpt lat="47.1125" lon="-1.73309">
        <ele>57</ele>
        <time>2022-10-29T13:09:45Z</time>
      </trkpt>
      <trkpt lat="47.11249" lon="-1.73294">
        <ele>57</ele>
        <time>2022-10-29T13:09:47Z</time>
      </trkpt>
      <trkpt lat="47.11247" lon="-1.73278">
        <ele>57</ele>
        <time>2022-10-29T13:09:49Z</time>
      </trkpt>
      <trkpt lat="47.11244" lon="-1.73263">
        <ele>57</ele>
        <time>2022-10-29T13:09:51Z</time>
      </trkpt>
      <trkpt lat="47.11241" lon="-1.73249">
        <ele>57</ele>
        <time>2022-10-29T13:09:53Z</time>
      </trkpt>
      <trkpt lat="47.11238" lon="-1.73234">
        <ele>58</ele>
        <time>2022-10-29T13:09:55Z</time>
      </trkpt>
      <trkpt lat="47.11235" lon="-1.73219">
        <ele>58</ele>
        <time>2022-10-29T13:09:57Z</time>
      </trkpt>
      <trkpt lat="47.11231" lon="-1.73205">
        <ele>58</ele>
        <time>2022-10-29T13:09:59Z</time>
      </trkpt>
      <trkpt lat="47.11228" lon="-1.7319">
        <ele>58</ele>
        <time>2022-10-29T13:10:01Z</time>
      </trkpt>
      <trkpt lat="47.11224" lon="-1.73176">
        <ele>58</ele>
        <time>2022-10-29T13:10:03Z</time>
      </trkpt>
      <trkpt lat="47.11221" lon="-1.73161">
        <ele>59</ele>
        <time>2022-10-29T13:10:05Z</time>
      </trkpt>
      <trkpt lat="47.11217" lon="-1.73147">
        <ele>59</ele>
        <time>2022-10-29T13:10:07Z</time>
      </trkpt>
      <trkpt lat="47.11214" lon="-1.73133">
        <ele>59</ele>
        <time>2022-10-29T13:10:09Z</time>
      </trkpt>
      <trkpt lat="47.11211" lon="-1.73119">
        <ele>59</ele>
        <time>2022-10-29T13:10:11Z</time>
      </trkpt>
      <trkpt lat="47.11207" lon="-1.73104">
        <ele>59</ele>
        <time>2022-10-29T13:10:13Z</time>
      </trkpt>
      <trkpt lat="47.11204" lon="-1.7309">
        <ele>59</ele>
        <time>2022-10-29T13:10:15Z</time>
      </trkpt>
      <trkpt lat="47.112" lon="-1.73074">
        <ele>59</ele>
        <time>2022-10-29T13:10:17Z</time>
      </trkpt>
      <trkpt lat="47.11197" lon="-1.73059">
        <ele>58</ele>
        <time>2022-10-29T13:10:19Z</time>
      </trkpt>
      <trkpt lat="47.11194" lon="-1.73044">
        <ele>58</ele>
        <time>2022-10-29T13:10:21Z</time>
      </trkpt>
      <trkpt lat="47.1119" lon="-1.73028">
        <ele>58</ele>
        <time>2022-10-29T13:10:23Z</time>
      </trkpt>
      <trkpt lat="47.11186" lon="-1.73013">
        <ele>58</ele>
        <time>2022-10-29T13:10:25Z</time>
      </trkpt>
      <trkpt lat="47.11183" lon="-1.72998">
        <ele>58</ele>
        <time>2022-10-29T13:10:27Z</time>
      </trkpt>
      <trkpt lat="47.11179" lon="-1.72982">
        <ele>58</ele>
        <time>2022-10-29T13:10:29Z</time>
      </trkpt>
      <trkpt lat="47.11175" lon="-1.72966">
        <ele>59</ele>
        <time>2022-10-29T13:10:31Z</time>
      </trkpt>
      <trkpt lat="47.11172" lon="-1.7295">
        <ele>58</ele>
        <time>2022-10-29T13:10:33Z</time>
      </trkpt>
      <trkpt lat="47.11168" lon="-1.72934">
        <ele>58</ele>
        <time>2022-10-29T13:10:35Z</time>
      </trkpt>
      <trkpt lat="47.11164" lon="-1.72918">
        <ele>58</ele>
        <time>2022-10-29T13:10:37Z</time>
      </trkpt>
      <trkpt lat="47.1116" lon="-1.72901">
        <ele>58</ele>
        <time>2022-10-29T13:10:39Z</time>
      </trkpt>
      <trkpt lat="47.11156" lon="-1.72885">
        <ele>57</ele>
        <time>2022-10-29T13:10:41Z</time>
      </trkpt>
      <trkpt lat="47.11152" lon="-1.72868">
        <ele>57</ele>
        <time>2022-10-29T13:10:43Z</time>
      </trkpt>
      <trkpt lat="47.11148" lon="-1.72852">
        <ele>58</ele>
        <time>2022-10-29T13:10:45Z</time>
      </trkpt>
      <trkpt lat="47.11144" lon="-1.72836">
        <ele>58</ele>
        <time>2022-10-29T13:10:47Z</time>
      </trkpt>
      <trkpt lat="47.1114" lon="-1.72819">
        <ele>58</ele>
        <time>2022-10-29T13:10:49Z</time>
      </trkpt>
      <trkpt lat="47.11136" lon="-1.72802">
        <ele>58</ele>
        <time>2022-10-29T13:10:51Z</time>
      </trkpt>
      <trkpt lat="47.11132" lon="-1.72786">
        <ele>57</ele>
        <time>2022-10-29T13:10:53Z</time>
      </trkpt>
      <trkpt lat="47.11128" lon="-1.72768">
        <ele>57</ele>
        <time>2022-10-29T13:10:55Z</time>
      </trkpt>
      <trkpt lat="47.11124" lon="-1.7275">
        <ele>57</ele>
        <time>2022-10-29T13:10:57Z</time>
      </trkpt>
      <trkpt lat="47.1112" lon="-1.72733">
        <ele>57</ele>
        <time>2022-10-29T13:10:59Z</time>
      </trkpt>
      <trkpt lat="47.11116" lon="-1.72715">
        <ele>57</ele>
        <time>2022-10-29T13:11:01Z</time>
      </trkpt>
      <trkpt lat="47.11112" lon="-1.72697">
        <ele>57</ele>
        <time>2022-10-29T13:11:03Z</time>
      </trkpt>
      <trkpt lat="47.11108" lon="-1.72679">
        <ele>57</ele>
        <time>2022-10-29T13:11:05Z</time>
      </trkpt>
      <trkpt lat="47.11103" lon="-1.72662">
        <ele>56</ele>
        <time>2022-10-29T13:11:07Z</time>
      </trkpt>
      <trkpt lat="47.11099" lon="-1.72644">
        <ele>56</ele>
        <time>2022-10-29T13:11:09Z</time>
      </trkpt>
      <trkpt lat="47.11095" lon="-1.72627">
        <ele>56</ele>
        <time>2022-10-29T13:11:11Z</time>
      </trkpt>
      <trkpt lat="47.11091" lon="-1.72609">
        <ele>57</ele>
        <time>2022-10-29T13:11:13Z</time>
      </trkpt>
      <trkpt lat="47.11087" lon="-1.72592">
        <ele>57</ele>
        <time>2022-10-29T13:11:15Z</time>
      </trkpt>
      <trkpt lat="47.11083" lon="-1.72573">
        <ele>57</ele>
        <time>2022-10-29T13:11:17Z</time>
      </trkpt>
      <trkpt lat="47.11079" lon="-1.72555">
        <ele>58</ele>
        <time>2022-10-29T13:11:19Z</time>
      </trkpt>
      <trkpt lat="47.11078" lon="-1.72538">
        <ele>58</ele>
        <time>2022-10-29T13:11:21Z</time>
      </trkpt>
      <trkpt lat="47.11078" lon="-1.72519">
        <ele>58</ele>
        <time>2022-10-29T13:11:23Z</time>
      </trkpt>
      <trkpt lat="47.1108" lon="-1.72501">
        <ele>58</ele>
        <time>2022-10-29T13:11:25Z</time>
      </trkpt>
      <trkpt lat="47.11084" lon="-1.72483">
        <ele>58</ele>
        <time>2022-10-29T13:11:27Z</time>
      </trkpt>
      <trkpt lat="47.11088" lon="-1.72465">
        <ele>57</ele>
        <time>2022-10-29T13:11:29Z</time>
      </trkpt>
      <trkpt lat="47.11093" lon="-1.72446">
        <ele>57</ele>
        <time>2022-10-29T13:11:31Z</time>
      </trkpt>
      <trkpt lat="47.11097" lon="-1.72428">
        <ele>57</ele>
        <time>2022-10-29T13:11:33Z</time>
      </trkpt>
      <trkpt lat="47.11101" lon="-1.72409">
        <ele>57</ele>
        <time>2022-10-29T13:11:35Z</time>
      </trkpt>
      <trkpt lat="47.11106" lon="-1.7239">
        <ele>57</ele>
        <time>2022-10-29T13:11:37Z</time>
      </trkpt>
      <trkpt lat="47.11111" lon="-1.72371">
        <ele>56</ele>
        <time>2022-10-29T13:11:39Z</time>
      </trkpt>
      <trkpt lat="47.11115" lon="-1.72352">
        <ele>56</ele>
        <time>2022-10-29T13:11:41Z</time>
      </trkpt>
      <trkpt lat="47.1112" lon="-1.72334">
        <ele>56</ele>
        <time>2022-10-29T13:11:43Z</time>
      </trkpt>
      <trkpt lat="47.11124" lon="-1.72316">
        <ele>57</ele>
        <time>2022-10-29T13:11:45Z</time>
      </trkpt>
      <trkpt lat="47.11128" lon="-1.72299">
        <ele>57</ele>
        <time>2022-10-29T13:11:47Z</time>
      </trkpt>
      <trkpt lat="47.11133" lon="-1.72281">
        <ele>57</ele>
        <time>2022-10-29T13:11:49Z</time>
      </trkpt>
      <trkpt lat="47.11137" lon="-1.72263">
        <ele>57</ele>
        <time>2022-10-29T13:11:51Z</time>
      </trkpt>
      <trkpt lat="47.11141" lon="-1.72246">
        <ele>57</ele>
        <time>2022-10-29T13:11:53Z</time>
      </trkpt>
      <trkpt lat="47.11145" lon="-1.72228">
        <ele>57</ele>
        <time>2022-10-29T13:11:55Z</time>
      </trkpt>
      <trkpt lat="47.11149" lon="-1.72211">
        <ele>58</ele>
        <time>2022-10-29T13:11:57Z</time>
      </trkpt>
      <trkpt lat="47.11154" lon="-1.72194">
        <ele>58</ele>
        <time>2022-10-29T13:11:59Z</time>
      </trkpt>
      <trkpt lat="47.11158" lon="-1.72177">
        <ele>58</ele>
        <time>2022-10-29T13:12:01Z</time>
      </trkpt>
      <trkpt lat="47.11162" lon="-1.72159">
        <ele>58</ele>
        <time>2022-10-29T13:12:03Z</time>
      </trkpt>
      <trkpt lat="47.11166" lon="-1.72142">
        <ele>58</ele>
        <time>2022-10-29T13:12:05Z</time>
      </trkpt>
      <trkpt lat="47.1117" lon="-1.72124">
        <ele>58</ele>
        <time>2022-10-29T13:12:07Z</time>
      </trkpt>
      <trkpt lat="47.11174" lon="-1.72106">
        <ele>58</ele>
        <time>2022-10-29T13:12:09Z</time>
      </trkpt>
      <trkpt lat="47.11179" lon="-1.72089">
        <ele>58</ele>
        <time>2022-10-29T13:12:11Z</time>
      </trkpt>
      <trkpt lat="47.11183" lon="-1.72072">
        <ele>58</ele>
        <time>2022-10-29T13:12:13Z</time>
      </trkpt>
      <trkpt lat="47.11187" lon="-1.72054">
        <ele>58</ele>
        <time>2022-10-29T13:12:15Z</time>
      </trkpt>
      <trkpt lat="47.11191" lon="-1.72036">
        <ele>57</ele>
        <time>2022-10-29T13:12:17Z</time>
      </trkpt>
      <trkpt lat="47.11196" lon="-1.72018">
        <ele>57</ele>
        <time>2022-10-29T13:12:19Z</time>
      </trkpt>
      <trkpt lat="47.112" lon="-1.72001">
        <ele>57</ele>
        <time>2022-10-29T13:12:21Z</time>
      </trkpt>
      <trkpt lat="47.11204" lon="-1.71982">
        <ele>57</ele>
        <time>2022-10-29T13:12:23Z</time>
      </trkpt>
      <trkpt lat="47.11209" lon="-1.71963">
        <ele>57</ele>
        <time>2022-10-29T13:12:25Z</time>
      </trkpt>
      <trkpt lat="47.11213" lon="-1.71944">
        <ele>56</ele>
        <time>2022-10-29T13:12:27Z</time>
      </trkpt>
      <trkpt lat="47.11218" lon="-1.71924">
        <ele>55</ele>
        <time>2022-10-29T13:12:29Z</time>
      </trkpt>
      <trkpt lat="47.11223" lon="-1.71904">
        <ele>55</ele>
        <time>2022-10-29T13:12:31Z</time>
      </trkpt>
      <trkpt lat="47.11228" lon="-1.71884">
        <ele>54</ele>
        <time>2022-10-29T13:12:33Z</time>
      </trkpt>
      <trkpt lat="47.11233" lon="-1.71863">
        <ele>54</ele>
        <time>2022-10-29T13:12:35Z</time>
      </trkpt>
      <trkpt lat="47.11239" lon="-1.71842">
        <ele>53</ele>
        <time>2022-10-29T13:12:37Z</time>
      </trkpt>
      <trkpt lat="47.11246" lon="-1.71822">
        <ele>53</ele>
        <time>2022-10-29T13:12:39Z</time>
      </trkpt>
      <trkpt lat="47.11254" lon="-1.71802">
        <ele>52</ele>
        <time>2022-10-29T13:12:41Z</time>
      </trkpt>
      <trkpt lat="47.11263" lon="-1.71783">
        <ele>51</ele>
        <time>2022-10-29T13:12:43Z</time>
      </trkpt>
      <trkpt lat="47.11273" lon="-1.71764">
        <ele>51</ele>
        <time>2022-10-29T13:12:45Z</time>
      </trkpt>
      <trkpt lat="47.11283" lon="-1.71745">
        <ele>50</ele>
        <time>2022-10-29T13:12:47Z</time>
      </trkpt>
      <trkpt lat="47.11293" lon="-1.71726">
        <ele>50</ele>
        <time>2022-10-29T13:12:49Z</time>
      </trkpt>
      <trkpt lat="47.11303" lon="-1.71706">
        <ele>50</ele>
        <time>2022-10-29T13:12:51Z</time>
      </trkpt>
      <trkpt lat="47.11313" lon="-1.71687">
        <ele>50</ele>
        <time>2022-10-29T13:12:53Z</time>
      </trkpt>
      <trkpt lat="47.11322" lon="-1.71668">
        <ele>50</ele>
        <time>2022-10-29T13:12:55Z</time>
      </trkpt>
      <trkpt lat="47.11331" lon="-1.7165">
        <ele>50</ele>
        <time>2022-10-29T13:12:57Z</time>
      </trkpt>
      <trkpt lat="47.11341" lon="-1.71631">
        <ele>49</ele>
        <time>2022-10-29T13:12:59Z</time>
      </trkpt>
      <trkpt lat="47.11351" lon="-1.71612">
        <ele>49</ele>
        <time>2022-10-29T13:13:01Z</time>
      </trkpt>
      <trkpt lat="47.11361" lon="-1.71593">
        <ele>49</ele>
        <time>2022-10-29T13:13:03Z</time>
      </trkpt>
      <trkpt lat="47.1137" lon="-1.71574">
        <ele>49</ele>
        <time>2022-10-29T13:13:05Z</time>
      </trkpt>
      <trkpt lat="47.1138" lon="-1.71556">
        <ele>49</ele>
        <time>2022-10-29T13:13:07Z</time>
      </trkpt>
      <trkpt lat="47.11389" lon="-1.71537">
        <ele>49</ele>
        <time>2022-10-29T13:13:09Z</time>
      </trkpt>
      <trkpt lat="47.11399" lon="-1.71519">
        <ele>49</ele>
        <time>2022-10-29T13:13:11Z</time>
      </trkpt>
      <trkpt lat="47.11408" lon="-1.71501">
        <ele>49</ele>
        <time>2022-10-29T13:13:13Z</time>
      </trkpt>
      <trkpt lat="47.11418" lon="-1.71482">
        <ele>49</ele>
        <time>2022-10-29T13:13:15Z</time>
      </trkpt>
      <trkpt lat="47.11428" lon="-1.71463">
        <ele>48</ele>
        <time>2022-10-29T13:13:17Z</time>
      </trkpt>
      <trkpt lat="47.11438" lon="-1.71443">
        <ele>49</ele>
        <time>2022-10-29T13:13:19Z</time>
      </trkpt>
      <trkpt lat="47.11448" lon="-1.71424">
        <ele>49</ele>
        <time>2022-10-29T13:13:21Z</time>
      </trkpt>
      <trkpt lat="47.11458" lon="-1.71404">
        <ele>49</ele>
        <time>2022-10-29T13:13:23Z</time>
      </trkpt>
      <trkpt lat="47.11467" lon="-1.71385">
        <ele>49</ele>
        <time>2022-10-29T13:13:25Z</time>
      </trkpt>
      <trkpt lat="47.11477" lon="-1.71366">
        <ele>49</ele>
        <time>2022-10-29T13:13:27Z</time>
      </trkpt>
      <trkpt lat="47.11487" lon="-1.71347">
        <ele>50</ele>
        <time>2022-10-29T13:13:29Z</time>
      </trkpt>
      <trkpt lat="47.11496" lon="-1.71329">
        <ele>50</ele>
        <time>2022-10-29T13:13:31Z</time>
      </trkpt>
      <trkpt lat="47.11506" lon="-1.7131">
        <ele>50</ele>
        <time>2022-10-29T13:13:33Z</time>
      </trkpt>
      <trkpt lat="47.11515" lon="-1.71292">
        <ele>50</ele>
        <time>2022-10-29T13:13:35Z</time>
      </trkpt>
      <trkpt lat="47.11524" lon="-1.71273">
        <ele>50</ele>
        <time>2022-10-29T13:13:37Z</time>
      </trkpt>
      <trkpt lat="47.11534" lon="-1.71255">
        <ele>50</ele>
        <time>2022-10-29T13:13:39Z</time>
      </trkpt>
      <trkpt lat="47.11543" lon="-1.71238">
        <ele>50</ele>
        <time>2022-10-29T13:13:41Z</time>
      </trkpt>
      <trkpt lat="47.11554" lon="-1.71221">
        <ele>50</ele>
        <time>2022-10-29T13:13:43Z</time>
      </trkpt>
      <trkpt lat="47.11564" lon="-1.71205">
        <ele>51</ele>
        <time>2022-10-29T13:13:45Z</time>
      </trkpt>
      <trkpt lat="47.11576" lon="-1.7119">
        <ele>51</ele>
        <time>2022-10-29T13:13:47Z</time>
      </trkpt>
      <trkpt lat="47.11587" lon="-1.71175">
        <ele>51</ele>
        <time>2022-10-29T13:13:49Z</time>
      </trkpt>
      <trkpt lat="47.11599" lon="-1.71162">
        <ele>51</ele>
        <time>2022-10-29T13:13:51Z</time>
      </trkpt>
      <trkpt lat="47.11611" lon="-1.7115">
        <ele>52</ele>
        <time>2022-10-29T13:13:53Z</time>
      </trkpt>
      <trkpt lat="47.11623" lon="-1.71137">
        <ele>52</ele>
        <time>2022-10-29T13:13:55Z</time>
      </trkpt>
      <trkpt lat="47.11635" lon="-1.71125">
        <ele>52</ele>
        <time>2022-10-29T13:13:57Z</time>
      </trkpt>
      <trkpt lat="47.11648" lon="-1.71115">
        <ele>52</ele>
        <time>2022-10-29T13:13:59Z</time>
      </trkpt>
      <trkpt lat="47.11661" lon="-1.71105">
        <ele>52</ele>
        <time>2022-10-29T13:14:01Z</time>
      </trkpt>
      <trkpt lat="47.11674" lon="-1.71096">
        <ele>52</ele>
        <time>2022-10-29T13:14:03Z</time>
      </trkpt>
      <trkpt lat="47.11687" lon="-1.71087">
        <ele>52</ele>
        <time>2022-10-29T13:14:05Z</time>
      </trkpt>
      <trkpt lat="47.117" lon="-1.71078">
        <ele>51</ele>
        <time>2022-10-29T13:14:07Z</time>
      </trkpt>
      <trkpt lat="47.11713" lon="-1.7107">
        <ele>51</ele>
        <time>2022-10-29T13:14:09Z</time>
      </trkpt>
      <trkpt lat="47.11727" lon="-1.71061">
        <ele>51</ele>
        <time>2022-10-29T13:14:11Z</time>
      </trkpt>
      <trkpt lat="47.1174" lon="-1.71052">
        <ele>50</ele>
        <time>2022-10-29T13:14:13Z</time>
      </trkpt>
      <trkpt lat="47.11753" lon="-1.71044">
        <ele>50</ele>
        <time>2022-10-29T13:14:15Z</time>
      </trkpt>
      <trkpt lat="47.11767" lon="-1.71035">
        <ele>50</ele>
        <time>2022-10-29T13:14:17Z</time>
      </trkpt>
      <trkpt lat="47.11781" lon="-1.71026">
        <ele>49</ele>
        <time>2022-10-29T13:14:19Z</time>
      </trkpt>
      <trkpt lat="47.11795" lon="-1.71017">
        <ele>50</ele>
        <time>2022-10-29T13:14:21Z</time>
      </trkpt>
      <trkpt lat="47.11808" lon="-1.71008">
        <ele>50</ele>
        <time>2022-10-29T13:14:23Z</time>
      </trkpt>
      <trkpt lat="47.11822" lon="-1.70999">
        <ele>49</ele>
        <time>2022-10-29T13:14:25Z</time>
      </trkpt>
      <trkpt lat="47.11836" lon="-1.7099">
        <ele>50</ele>
        <time>2022-10-29T13:14:27Z</time>
      </trkpt>
      <trkpt lat="47.11849" lon="-1.70981">
        <ele>50</ele>
        <time>2022-10-29T13:14:29Z</time>
      </trkpt>
      <trkpt lat="47.11863" lon="-1.70972">
        <ele>50</ele>
        <time>2022-10-29T13:14:31Z</time>
      </trkpt>
      <trkpt lat="47.11876" lon="-1.70963">
        <ele>50</ele>
        <time>2022-10-29T13:14:33Z</time>
      </trkpt>
      <trkpt lat="47.1189" lon="-1.70954">
        <ele>50</ele>
        <time>2022-10-29T13:14:35Z</time>
      </trkpt>
      <trkpt lat="47.11903" lon="-1.70946">
        <ele>51</ele>
        <time>2022-10-29T13:14:37Z</time>
      </trkpt>
      <trkpt lat="47.11917" lon="-1.70937">
        <ele>50</ele>
        <time>2022-10-29T13:14:39Z</time>
      </trkpt>
      <trkpt lat="47.1193" lon="-1.70928">
        <ele>50</ele>
        <time>2022-10-29T13:14:41Z</time>
      </trkpt>
      <trkpt lat="47.11943" lon="-1.7092">
        <ele>50</ele>
        <time>2022-10-29T13:14:43Z</time>
      </trkpt>
      <trkpt lat="47.11956" lon="-1.70912">
        <ele>50</ele>
        <time>2022-10-29T13:14:45Z</time>
      </trkpt>
      <trkpt lat="47.11969" lon="-1.70904">
        <ele>50</ele>
        <time>2022-10-29T13:14:47Z</time>
      </trkpt>
      <trkpt lat="47.11981" lon="-1.70896">
        <ele>50</ele>
        <time>2022-10-29T13:14:49Z</time>
      </trkpt>
      <trkpt lat="47.11993" lon="-1.70889">
        <ele>51</ele>
        <time>2022-10-29T13:14:51Z</time>
      </trkpt>
      <trkpt lat="47.12005" lon="-1.70881">
        <ele>51</ele>
        <time>2022-10-29T13:14:53Z</time>
      </trkpt>
      <trkpt lat="47.12017" lon="-1.70873">
        <ele>51</ele>
        <time>2022-10-29T13:14:55Z</time>
      </trkpt>
      <trkpt lat="47.12029" lon="-1.70865">
        <ele>51</ele>
        <time>2022-10-29T13:14:57Z</time>
      </trkpt>
      <trkpt lat="47.12041" lon="-1.70857">
        <ele>51</ele>
        <time>2022-10-29T13:14:59Z</time>
      </trkpt>
      <trkpt lat="47.12053" lon="-1.70849">
        <ele>51</ele>
        <time>2022-10-29T13:15:01Z</time>
      </trkpt>
      <trkpt lat="47.12066" lon="-1.70841">
        <ele>51</ele>
        <time>2022-10-29T13:15:03Z</time>
      </trkpt>
      <trkpt lat="47.12078" lon="-1.70833">
        <ele>51</ele>
        <time>2022-10-29T13:15:05Z</time>
      </trkpt>
      <trkpt lat="47.12091" lon="-1.70825">
        <ele>51</ele>
        <time>2022-10-29T13:15:07Z</time>
      </trkpt>
      <trkpt lat="47.12103" lon="-1.70817">
        <ele>51</ele>
        <time>2022-10-29T13:15:09Z</time>
      </trkpt>
      <trkpt lat="47.12116" lon="-1.70809">
        <ele>51</ele>
        <time>2022-10-29T13:15:11Z</time>
      </trkpt>
      <trkpt lat="47.12129" lon="-1.70801">
        <ele>51</ele>
        <time>2022-10-29T13:15:13Z</time>
      </trkpt>
      <trkpt lat="47.12141" lon="-1.70792">
        <ele>50</ele>
        <time>2022-10-29T13:15:15Z</time>
      </trkpt>
      <trkpt lat="47.12154" lon="-1.70784">
        <ele>51</ele>
        <time>2022-10-29T13:15:17Z</time>
      </trkpt>
      <trkpt lat="47.12167" lon="-1.70775">
        <ele>50</ele>
        <time>2022-10-29T13:15:19Z</time>
      </trkpt>
      <trkpt lat="47.1218" lon="-1.70766">
        <ele>50</ele>
        <time>2022-10-29T13:15:21Z</time>
      </trkpt>
      <trkpt lat="47.12193" lon="-1.70756">
        <ele>50</ele>
        <time>2022-10-29T13:15:23Z</time>
      </trkpt>
      <trkpt lat="47.12205" lon="-1.70746">
        <ele>50</ele>
        <time>2022-10-29T13:15:25Z</time>
      </trkpt>
      <trkpt lat="47.12218" lon="-1.70735">
        <ele>50</ele>
        <time>2022-10-29T13:15:27Z</time>
      </trkpt>
      <trkpt lat="47.1223" lon="-1.70723">
        <ele>50</ele>
        <time>2022-10-29T13:15:29Z</time>
      </trkpt>
      <trkpt lat="47.12242" lon="-1.7071">
        <ele>50</ele>
        <time>2022-10-29T13:15:31Z</time>
      </trkpt>
      <trkpt lat="47.12253" lon="-1.70696">
        <ele>49</ele>
        <time>2022-10-29T13:15:33Z</time>
      </trkpt>
      <trkpt lat="47.12264" lon="-1.70681">
        <ele>49</ele>
        <time>2022-10-29T13:15:35Z</time>
      </trkpt>
      <trkpt lat="47.12275" lon="-1.70665">
        <ele>49</ele>
        <time>2022-10-29T13:15:37Z</time>
      </trkpt>
      <trkpt lat="47.12285" lon="-1.7065">
        <ele>49</ele>
        <time>2022-10-29T13:15:39Z</time>
      </trkpt>
      <trkpt lat="47.12295" lon="-1.70634">
        <ele>49</ele>
        <time>2022-10-29T13:15:41Z</time>
      </trkpt>
      <trkpt lat="47.12305" lon="-1.7062">
        <ele>48</ele>
        <time>2022-10-29T13:15:43Z</time>
      </trkpt>
      <trkpt lat="47.12316" lon="-1.70605">
        <ele>48</ele>
        <time>2022-10-29T13:15:45Z</time>
      </trkpt>
      <trkpt lat="47.12326" lon="-1.7059">
        <ele>48</ele>
        <time>2022-10-29T13:15:47Z</time>
      </trkpt>
      <trkpt lat="47.12336" lon="-1.70575">
        <ele>48</ele>
        <time>2022-10-29T13:15:49Z</time>
      </trkpt>
      <trkpt lat="47.12346" lon="-1.70559">
        <ele>48</ele>
        <time>2022-10-29T13:15:51Z</time>
      </trkpt>
      <trkpt lat="47.12355" lon="-1.70543">
        <ele>48</ele>
        <time>2022-10-29T13:15:53Z</time>
      </trkpt>
      <trkpt lat="47.12363" lon="-1.70527">
        <ele>48</ele>
        <time>2022-10-29T13:15:55Z</time>
      </trkpt>
      <trkpt lat="47.12371" lon="-1.70508">
        <ele>48</ele>
        <time>2022-10-29T13:15:57Z</time>
      </trkpt>
      <trkpt lat="47.12377" lon="-1.70489">
        <ele>48</ele>
        <time>2022-10-29T13:15:59Z</time>
      </trkpt>
      <trkpt lat="47.12383" lon="-1.70469">
        <ele>48</ele>
        <time>2022-10-29T13:16:01Z</time>
      </trkpt>
      <trkpt lat="47.12388" lon="-1.7045">
        <ele>49</ele>
        <time>2022-10-29T13:16:03Z</time>
      </trkpt>
      <trkpt lat="47.12392" lon="-1.70431">
        <ele>49</ele>
        <time>2022-10-29T13:16:05Z</time>
      </trkpt>
      <trkpt lat="47.12396" lon="-1.70411">
        <ele>49</ele>
        <time>2022-10-29T13:16:07Z</time>
      </trkpt>
      <trkpt lat="47.12399" lon="-1.70392">
        <ele>49</ele>
        <time>2022-10-29T13:16:09Z</time>
      </trkpt>
      <trkpt lat="47.12404" lon="-1.70373">
        <ele>50</ele>
        <time>2022-10-29T13:16:11Z</time>
      </trkpt>
      <trkpt lat="47.12408" lon="-1.70354">
        <ele>50</ele>
        <time>2022-10-29T13:16:13Z</time>
      </trkpt>
      <trkpt lat="47.12412" lon="-1.70335">
        <ele>50</ele>
        <time>2022-10-29T13:16:15Z</time>
      </trkpt>
      <trkpt lat="47.12418" lon="-1.70317">
        <ele>51</ele>
        <time>2022-10-29T13:16:17Z</time>
      </trkpt>
      <trkpt lat="47.12425" lon="-1.70301">
        <ele>51</ele>
        <time>2022-10-29T13:16:19Z</time>
      </trkpt>
      <trkpt lat="47.12433" lon="-1.70286">
        <ele>51</ele>
        <time>2022-10-29T13:16:21Z</time>
      </trkpt>
      <trkpt lat="47.12444" lon="-1.70274">
        <ele>51</ele>
        <time>2022-10-29T13:16:23Z</time>
      </trkpt>
      <trkpt lat="47.12456" lon="-1.70264">
        <ele>52</ele>
        <time>2022-10-29T13:16:25Z</time>
      </trkpt>
      <trkpt lat="47.12468" lon="-1.70255">
        <ele>52</ele>
        <time>2022-10-29T13:16:27Z</time>
      </trkpt>
      <trkpt lat="47.1248" lon="-1.70247">
        <ele>52</ele>
        <time>2022-10-29T13:16:29Z</time>
      </trkpt>
      <trkpt lat="47.12493" lon="-1.7024">
        <ele>52</ele>
        <time>2022-10-29T13:16:31Z</time>
      </trkpt>
      <trkpt lat="47.12506" lon="-1.70233">
        <ele>51</ele>
        <time>2022-10-29T13:16:33Z</time>
      </trkpt>
      <trkpt lat="47.12519" lon="-1.70226">
        <ele>51</ele>
        <time>2022-10-29T13:16:35Z</time>
      </trkpt>
      <trkpt lat="47.12531" lon="-1.7022">
        <ele>51</ele>
        <time>2022-10-29T13:16:37Z</time>
      </trkpt>
      <trkpt lat="47.12543" lon="-1.70214">
        <ele>52</ele>
        <time>2022-10-29T13:16:39Z</time>
      </trkpt>
      <trkpt lat="47.12555" lon="-1.70207">
        <ele>51</ele>
        <time>2022-10-29T13:16:41Z</time>
      </trkpt>
      <trkpt lat="47.12568" lon="-1.702">
        <ele>51</ele>
        <time>2022-10-29T13:16:43Z</time>
      </trkpt>
      <trkpt lat="47.12581" lon="-1.70194">
        <ele>51</ele>
        <time>2022-10-29T13:16:45Z</time>
      </trkpt>
      <trkpt lat="47.12593" lon="-1.70187">
        <ele>51</ele>
        <time>2022-10-29T13:16:47Z</time>
      </trkpt>
      <trkpt lat="47.12605" lon="-1.70181">
        <ele>51</ele>
        <time>2022-10-29T13:16:49Z</time>
      </trkpt>
      <trkpt lat="47.12617" lon="-1.70175">
        <ele>52</ele>
        <time>2022-10-29T13:16:51Z</time>
      </trkpt>
      <trkpt lat="47.12629" lon="-1.70168">
        <ele>52</ele>
        <time>2022-10-29T13:16:53Z</time>
      </trkpt>
      <trkpt lat="47.12641" lon="-1.70162">
        <ele>51</ele>
        <time>2022-10-29T13:16:55Z</time>
      </trkpt>
      <trkpt lat="47.12654" lon="-1.70156">
        <ele>51</ele>
        <time>2022-10-29T13:16:57Z</time>
      </trkpt>
      <trkpt lat="47.12666" lon="-1.7015">
        <ele>51</ele>
        <time>2022-10-29T13:16:59Z</time>
      </trkpt>
      <trkpt lat="47.12678" lon="-1.70143">
        <ele>51</ele>
        <time>2022-10-29T13:17:01Z</time>
      </trkpt>
      <trkpt lat="47.1269" lon="-1.70137">
        <ele>51</ele>
        <time>2022-10-29T13:17:03Z</time>
      </trkpt>
      <trkpt lat="47.12702" lon="-1.70131">
        <ele>51</ele>
        <time>2022-10-29T13:17:05Z</time>
      </trkpt>
      <trkpt lat="47.12714" lon="-1.70125">
        <ele>51</ele>
        <time>2022-10-29T13:17:07Z</time>
      </trkpt>
      <trkpt lat="47.12727" lon="-1.70119">
        <ele>51</ele>
        <time>2022-10-29T13:17:09Z</time>
      </trkpt>
      <trkpt lat="47.12739" lon="-1.70112">
        <ele>50</ele>
        <time>2022-10-29T13:17:11Z</time>
      </trkpt>
      <trkpt lat="47.12752" lon="-1.70106">
        <ele>51</ele>
        <time>2022-10-29T13:17:13Z</time>
      </trkpt>
      <trkpt lat="47.12764" lon="-1.70099">
        <ele>51</ele>
        <time>2022-10-29T13:17:15Z</time>
      </trkpt>
      <trkpt lat="47.12776" lon="-1.70092">
        <ele>50</ele>
        <time>2022-10-29T13:17:17Z</time>
      </trkpt>
      <trkpt lat="47.12789" lon="-1.70086">
        <ele>51</ele>
        <time>2022-10-29T13:17:19Z</time>
      </trkpt>
      <trkpt lat="47.12801" lon="-1.70079">
        <ele>51</ele>
        <time>2022-10-29T13:17:21Z</time>
      </trkpt>
      <trkpt lat="47.12814" lon="-1.70072">
        <ele>51</ele>
        <time>2022-10-29T13:17:23Z</time>
      </trkpt>
      <trkpt lat="47.12826" lon="-1.70066">
        <ele>51</ele>
        <time>2022-10-29T13:17:25Z</time>
      </trkpt>
      <trkpt lat="47.12838" lon="-1.70059">
        <ele>51</ele>
        <time>2022-10-29T13:17:27Z</time>
      </trkpt>
      <trkpt lat="47.1285" lon="-1.70052">
        <ele>51</ele>
        <time>2022-10-29T13:17:29Z</time>
      </trkpt>
      <trkpt lat="47.12862" lon="-1.70046">
        <ele>51</ele>
        <time>2022-10-29T13:17:31Z</time>
      </trkpt>
      <trkpt lat="47.12874" lon="-1.7004">
        <ele>52</ele>
        <time>2022-10-29T13:17:33Z</time>
      </trkpt>
      <trkpt lat="47.12886" lon="-1.70034">
        <ele>53</ele>
        <time>2022-10-29T13:17:35Z</time>
      </trkpt>
      <trkpt lat="47.12898" lon="-1.70027">
        <ele>53</ele>
        <time>2022-10-29T13:17:37Z</time>
      </trkpt>
      <trkpt lat="47.12911" lon="-1.70021">
        <ele>53</ele>
        <time>2022-10-29T13:17:39Z</time>
      </trkpt>
      <trkpt lat="47.1293" lon="-1.70012">
        <ele>52</ele>
        <time>2022-10-29T13:17:42Z</time>
      </trkpt>
      <trkpt lat="47.12942" lon="-1.70005">
        <ele>51</ele>
        <time>2022-10-29T13:17:44Z</time>
      </trkpt>
      <trkpt lat="47.12955" lon="-1.69999">
        <ele>52</ele>
        <time>2022-10-29T13:17:46Z</time>
      </trkpt>
      <trkpt lat="47.12974" lon="-1.69989">
        <ele>51</ele>
        <time>2022-10-29T13:17:49Z</time>
      </trkpt>
      <trkpt lat="47.12987" lon="-1.69983">
        <ele>51</ele>
        <time>2022-10-29T13:17:51Z</time>
      </trkpt>
      <trkpt lat="47.12999" lon="-1.69977">
        <ele>51</ele>
        <time>2022-10-29T13:17:53Z</time>
      </trkpt>
      <trkpt lat="47.13017" lon="-1.69967">
        <ele>52</ele>
        <time>2022-10-29T13:17:56Z</time>
      </trkpt>
      <trkpt lat="47.1303" lon="-1.6996">
        <ele>51</ele>
        <time>2022-10-29T13:17:58Z</time>
      </trkpt>
      <trkpt lat="47.13043" lon="-1.69954">
        <ele>51</ele>
        <time>2022-10-29T13:18:00Z</time>
      </trkpt>
      <trkpt lat="47.13061" lon="-1.69944">
        <ele>51</ele>
        <time>2022-10-29T13:18:03Z</time>
      </trkpt>
      <trkpt lat="47.13073" lon="-1.69938">
        <ele>52</ele>
        <time>2022-10-29T13:18:05Z</time>
      </trkpt>
      <trkpt lat="47.13085" lon="-1.69931">
        <ele>51</ele>
        <time>2022-10-29T13:18:07Z</time>
      </trkpt>
      <trkpt lat="47.13097" lon="-1.69924">
        <ele>51</ele>
        <time>2022-10-29T13:18:09Z</time>
      </trkpt>
      <trkpt lat="47.1311" lon="-1.69917">
        <ele>51</ele>
        <time>2022-10-29T13:18:11Z</time>
      </trkpt>
      <trkpt lat="47.13122" lon="-1.69911">
        <ele>51</ele>
        <time>2022-10-29T13:18:13Z</time>
      </trkpt>
      <trkpt lat="47.13133" lon="-1.69904">
        <ele>51</ele>
        <time>2022-10-29T13:18:15Z</time>
      </trkpt>
      <trkpt lat="47.13145" lon="-1.69899">
        <ele>52</ele>
        <time>2022-10-29T13:18:17Z</time>
      </trkpt>
      <trkpt lat="47.13157" lon="-1.69893">
        <ele>51</ele>
        <time>2022-10-29T13:18:19Z</time>
      </trkpt>
      <trkpt lat="47.13169" lon="-1.69888">
        <ele>51</ele>
        <time>2022-10-29T13:18:21Z</time>
      </trkpt>
      <trkpt lat="47.1318" lon="-1.69882">
        <ele>52</ele>
        <time>2022-10-29T13:18:23Z</time>
      </trkpt>
      <trkpt lat="47.13191" lon="-1.69875">
        <ele>52</ele>
        <time>2022-10-29T13:18:25Z</time>
      </trkpt>
      <trkpt lat="47.13202" lon="-1.6987">
        <ele>52</ele>
        <time>2022-10-29T13:18:27Z</time>
      </trkpt>
      <trkpt lat="47.13212" lon="-1.69865">
        <ele>53</ele>
        <time>2022-10-29T13:18:29Z</time>
      </trkpt>
      <trkpt lat="47.13223" lon="-1.69859">
        <ele>53</ele>
        <time>2022-10-29T13:18:31Z</time>
      </trkpt>
      <trkpt lat="47.13234" lon="-1.69853">
        <ele>53</ele>
        <time>2022-10-29T13:18:33Z</time>
      </trkpt>
      <trkpt lat="47.13245" lon="-1.69847">
        <ele>53</ele>
        <time>2022-10-29T13:18:35Z</time>
      </trkpt>
      <trkpt lat="47.13257" lon="-1.69842">
        <ele>53</ele>
        <time>2022-10-29T13:18:37Z</time>
      </trkpt>
      <trkpt lat="47.13269" lon="-1.69837">
        <ele>52</ele>
        <time>2022-10-29T13:18:39Z</time>
      </trkpt>
      <trkpt lat="47.13281" lon="-1.6983">
        <ele>52</ele>
        <time>2022-10-29T13:18:41Z</time>
      </trkpt>
      <trkpt lat="47.13293" lon="-1.69824">
        <ele>52</ele>
        <time>2022-10-29T13:18:43Z</time>
      </trkpt>
      <trkpt lat="47.13305" lon="-1.69816">
        <ele>52</ele>
        <time>2022-10-29T13:18:45Z</time>
      </trkpt>
      <trkpt lat="47.13318" lon="-1.69809">
        <ele>53</ele>
        <time>2022-10-29T13:18:47Z</time>
      </trkpt>
      <trkpt lat="47.13331" lon="-1.69802">
        <ele>52</ele>
        <time>2022-10-29T13:18:49Z</time>
      </trkpt>
      <trkpt lat="47.13345" lon="-1.69795">
        <ele>52</ele>
        <time>2022-10-29T13:18:51Z</time>
      </trkpt>
      <trkpt lat="47.13358" lon="-1.69788">
        <ele>53</ele>
        <time>2022-10-29T13:18:53Z</time>
      </trkpt>
      <trkpt lat="47.13371" lon="-1.69782">
        <ele>53</ele>
        <time>2022-10-29T13:18:55Z</time>
      </trkpt>
      <trkpt lat="47.13384" lon="-1.69774">
        <ele>54</ele>
        <time>2022-10-29T13:18:57Z</time>
      </trkpt>
      <trkpt lat="47.13396" lon="-1.69767">
        <ele>54</ele>
        <time>2022-10-29T13:18:59Z</time>
      </trkpt>
      <trkpt lat="47.13409" lon="-1.6976">
        <ele>55</ele>
        <time>2022-10-29T13:19:01Z</time>
      </trkpt>
      <trkpt lat="47.13422" lon="-1.69754">
        <ele>56</ele>
        <time>2022-10-29T13:19:03Z</time>
      </trkpt>
      <trkpt lat="47.13434" lon="-1.69748">
        <ele>57</ele>
        <time>2022-10-29T13:19:05Z</time>
      </trkpt>
      <trkpt lat="47.13447" lon="-1.69743">
        <ele>58</ele>
        <time>2022-10-29T13:19:07Z</time>
      </trkpt>
      <trkpt lat="47.13459" lon="-1.69737">
        <ele>57</ele>
        <time>2022-10-29T13:19:09Z</time>
      </trkpt>
      <trkpt lat="47.13472" lon="-1.69734">
        <ele>57</ele>
        <time>2022-10-29T13:19:11Z</time>
      </trkpt>
      <trkpt lat="47.13485" lon="-1.69732">
        <ele>56</ele>
        <time>2022-10-29T13:19:13Z</time>
      </trkpt>
      <trkpt lat="47.13499" lon="-1.6973">
        <ele>55</ele>
        <time>2022-10-29T13:19:15Z</time>
      </trkpt>
      <trkpt lat="47.13512" lon="-1.6973">
        <ele>55</ele>
        <time>2022-10-29T13:19:17Z</time>
      </trkpt>
      <trkpt lat="47.13525" lon="-1.6973">
        <ele>54</ele>
        <time>2022-10-29T13:19:19Z</time>
      </trkpt>
      <trkpt lat="47.13538" lon="-1.6973">
        <ele>53</ele>
        <time>2022-10-29T13:19:21Z</time>
      </trkpt>
      <trkpt lat="47.13551" lon="-1.6973">
        <ele>52</ele>
        <time>2022-10-29T13:19:23Z</time>
      </trkpt>
      <trkpt lat="47.13564" lon="-1.6973">
        <ele>51</ele>
        <time>2022-10-29T13:19:25Z</time>
      </trkpt>
      <trkpt lat="47.13577" lon="-1.6973">
        <ele>51</ele>
        <time>2022-10-29T13:19:27Z</time>
      </trkpt>
      <trkpt lat="47.13589" lon="-1.69729">
        <ele>51</ele>
        <time>2022-10-29T13:19:29Z</time>
      </trkpt>
      <trkpt lat="47.13601" lon="-1.69729">
        <ele>50</ele>
        <time>2022-10-29T13:19:31Z</time>
      </trkpt>
      <trkpt lat="47.13614" lon="-1.69729">
        <ele>50</ele>
        <time>2022-10-29T13:19:33Z</time>
      </trkpt>
      <trkpt lat="47.13627" lon="-1.69729">
        <ele>50</ele>
        <time>2022-10-29T13:19:35Z</time>
      </trkpt>
      <trkpt lat="47.13639" lon="-1.69729">
        <ele>49</ele>
        <time>2022-10-29T13:19:37Z</time>
      </trkpt>
      <trkpt lat="47.13651" lon="-1.6973">
        <ele>49</ele>
        <time>2022-10-29T13:19:39Z</time>
      </trkpt>
      <trkpt lat="47.13663" lon="-1.69731">
        <ele>49</ele>
        <time>2022-10-29T13:19:41Z</time>
      </trkpt>
      <trkpt lat="47.13675" lon="-1.69731">
        <ele>49</ele>
        <time>2022-10-29T13:19:43Z</time>
      </trkpt>
      <trkpt lat="47.13688" lon="-1.69731">
        <ele>49</ele>
        <time>2022-10-29T13:19:45Z</time>
      </trkpt>
      <trkpt lat="47.137" lon="-1.6973">
        <ele>49</ele>
        <time>2022-10-29T13:19:47Z</time>
      </trkpt>
      <trkpt lat="47.13713" lon="-1.69729">
        <ele>49</ele>
        <time>2022-10-29T13:19:49Z</time>
      </trkpt>
      <trkpt lat="47.13725" lon="-1.69727">
        <ele>49</ele>
        <time>2022-10-29T13:19:51Z</time>
      </trkpt>
      <trkpt lat="47.13738" lon="-1.69723">
        <ele>49</ele>
        <time>2022-10-29T13:19:53Z</time>
      </trkpt>
      <trkpt lat="47.13751" lon="-1.6972">
        <ele>49</ele>
        <time>2022-10-29T13:19:55Z</time>
      </trkpt>
      <trkpt lat="47.13764" lon="-1.69719">
        <ele>49</ele>
        <time>2022-10-29T13:19:57Z</time>
      </trkpt>
      <trkpt lat="47.13777" lon="-1.69718">
        <ele>49</ele>
        <time>2022-10-29T13:19:59Z</time>
      </trkpt>
      <trkpt lat="47.13789" lon="-1.69719">
        <ele>49</ele>
        <time>2022-10-29T13:20:01Z</time>
      </trkpt>
      <trkpt lat="47.13802" lon="-1.69719">
        <ele>49</ele>
        <time>2022-10-29T13:20:03Z</time>
      </trkpt>
      <trkpt lat="47.13815" lon="-1.6972">
        <ele>49</ele>
        <time>2022-10-29T13:20:05Z</time>
      </trkpt>
      <trkpt lat="47.13827" lon="-1.6972">
        <ele>49</ele>
        <time>2022-10-29T13:20:07Z</time>
      </trkpt>
      <trkpt lat="47.1384" lon="-1.6972">
        <ele>50</ele>
        <time>2022-10-29T13:20:09Z</time>
      </trkpt>
      <trkpt lat="47.13851" lon="-1.69719">
        <ele>49</ele>
        <time>2022-10-29T13:20:11Z</time>
      </trkpt>
      <trkpt lat="47.13863" lon="-1.69717">
        <ele>49</ele>
        <time>2022-10-29T13:20:13Z</time>
      </trkpt>
      <trkpt lat="47.13874" lon="-1.69715">
        <ele>50</ele>
        <time>2022-10-29T13:20:15Z</time>
      </trkpt>
      <trkpt lat="47.13886" lon="-1.69713">
        <ele>50</ele>
        <time>2022-10-29T13:20:17Z</time>
      </trkpt>
      <trkpt lat="47.13899" lon="-1.69712">
        <ele>50</ele>
        <time>2022-10-29T13:20:19Z</time>
      </trkpt>
      <trkpt lat="47.13911" lon="-1.69711">
        <ele>50</ele>
        <time>2022-10-29T13:20:21Z</time>
      </trkpt>
      <trkpt lat="47.13923" lon="-1.69711">
        <ele>51</ele>
        <time>2022-10-29T13:20:23Z</time>
      </trkpt>
      <trkpt lat="47.13934" lon="-1.69711">
        <ele>51</ele>
        <time>2022-10-29T13:20:25Z</time>
      </trkpt>
      <trkpt lat="47.13946" lon="-1.69711">
        <ele>52</ele>
        <time>2022-10-29T13:20:27Z</time>
      </trkpt>
      <trkpt lat="47.13957" lon="-1.69711">
        <ele>52</ele>
        <time>2022-10-29T13:20:29Z</time>
      </trkpt>
      <trkpt lat="47.13969" lon="-1.69712">
        <ele>53</ele>
        <time>2022-10-29T13:20:31Z</time>
      </trkpt>
      <trkpt lat="47.13982" lon="-1.69714">
        <ele>54</ele>
        <time>2022-10-29T13:20:33Z</time>
      </trkpt>
      <trkpt lat="47.13994" lon="-1.69715">
        <ele>54</ele>
        <time>2022-10-29T13:20:35Z</time>
      </trkpt>
      <trkpt lat="47.14006" lon="-1.69717">
        <ele>55</ele>
        <time>2022-10-29T13:20:37Z</time>
      </trkpt>
      <trkpt lat="47.14018" lon="-1.69717">
        <ele>55</ele>
        <time>2022-10-29T13:20:39Z</time>
      </trkpt>
      <trkpt lat="47.1403" lon="-1.69719">
        <ele>55</ele>
        <time>2022-10-29T13:20:41Z</time>
      </trkpt>
      <trkpt lat="47.14041" lon="-1.6972">
        <ele>55</ele>
        <time>2022-10-29T13:20:43Z</time>
      </trkpt>
      <trkpt lat="47.14053" lon="-1.69721">
        <ele>55</ele>
        <time>2022-10-29T13:20:45Z</time>
      </trkpt>
      <trkpt lat="47.14064" lon="-1.69723">
        <ele>55</ele>
        <time>2022-10-29T13:20:47Z</time>
      </trkpt>
      <trkpt lat="47.14076" lon="-1.69723">
        <ele>55</ele>
        <time>2022-10-29T13:20:49Z</time>
      </trkpt>
      <trkpt lat="47.14088" lon="-1.69724">
        <ele>56</ele>
        <time>2022-10-29T13:20:51Z</time>
      </trkpt>
      <trkpt lat="47.14101" lon="-1.69722">
        <ele>56</ele>
        <time>2022-10-29T13:20:53Z</time>
      </trkpt>
      <trkpt lat="47.14114" lon="-1.6972">
        <ele>55</ele>
        <time>2022-10-29T13:20:55Z</time>
      </trkpt>
      <trkpt lat="47.14128" lon="-1.69718">
        <ele>55</ele>
        <time>2022-10-29T13:20:57Z</time>
      </trkpt>
      <trkpt lat="47.14141" lon="-1.69716">
        <ele>55</ele>
        <time>2022-10-29T13:20:59Z</time>
      </trkpt>
      <trkpt lat="47.14154" lon="-1.69713">
        <ele>55</ele>
        <time>2022-10-29T13:21:01Z</time>
      </trkpt>
      <trkpt lat="47.14167" lon="-1.69712">
        <ele>55</ele>
        <time>2022-10-29T13:21:03Z</time>
      </trkpt>
      <trkpt lat="47.14179" lon="-1.6971">
        <ele>55</ele>
        <time>2022-10-29T13:21:05Z</time>
      </trkpt>
      <trkpt lat="47.14192" lon="-1.69708">
        <ele>55</ele>
        <time>2022-10-29T13:21:07Z</time>
      </trkpt>
      <trkpt lat="47.14205" lon="-1.69705">
        <ele>55</ele>
        <time>2022-10-29T13:21:09Z</time>
      </trkpt>
      <trkpt lat="47.14218" lon="-1.69703">
        <ele>55</ele>
        <time>2022-10-29T13:21:11Z</time>
      </trkpt>
      <trkpt lat="47.14231" lon="-1.69701">
        <ele>55</ele>
        <time>2022-10-29T13:21:13Z</time>
      </trkpt>
      <trkpt lat="47.14243" lon="-1.697">
        <ele>56</ele>
        <time>2022-10-29T13:21:15Z</time>
      </trkpt>
      <trkpt lat="47.14255" lon="-1.69699">
        <ele>56</ele>
        <time>2022-10-29T13:21:17Z</time>
      </trkpt>
      <trkpt lat="47.14267" lon="-1.69699">
        <ele>56</ele>
        <time>2022-10-29T13:21:19Z</time>
      </trkpt>
      <trkpt lat="47.14279" lon="-1.69699">
        <ele>57</ele>
        <time>2022-10-29T13:21:21Z</time>
      </trkpt>
      <trkpt lat="47.14291" lon="-1.69701">
        <ele>57</ele>
        <time>2022-10-29T13:21:23Z</time>
      </trkpt>
      <trkpt lat="47.14302" lon="-1.69702">
        <ele>57</ele>
        <time>2022-10-29T13:21:25Z</time>
      </trkpt>
      <trkpt lat="47.14312" lon="-1.69701">
        <ele>57</ele>
        <time>2022-10-29T13:21:27Z</time>
      </trkpt>
      <trkpt lat="47.14321" lon="-1.69698">
        <ele>57</ele>
        <time>2022-10-29T13:21:29Z</time>
      </trkpt>
      <trkpt lat="47.14328" lon="-1.69688">
        <ele>57</ele>
        <time>2022-10-29T13:21:31Z</time>
      </trkpt>
      <trkpt lat="47.14332" lon="-1.69673">
        <ele>57</ele>
        <time>2022-10-29T13:21:33Z</time>
      </trkpt>
      <trkpt lat="47.14336" lon="-1.69657">
        <ele>58</ele>
        <time>2022-10-29T13:21:35Z</time>
      </trkpt>
      <trkpt lat="47.14339" lon="-1.69643">
        <ele>58</ele>
        <time>2022-10-29T13:21:37Z</time>
      </trkpt>
      <trkpt lat="47.14343" lon="-1.69628">
        <ele>58</ele>
        <time>2022-10-29T13:21:39Z</time>
      </trkpt>
      <trkpt lat="47.14347" lon="-1.69613">
        <ele>58</ele>
        <time>2022-10-29T13:21:41Z</time>
      </trkpt>
      <trkpt lat="47.14352" lon="-1.69599">
        <ele>59</ele>
        <time>2022-10-29T13:21:43Z</time>
      </trkpt>
      <trkpt lat="47.14356" lon="-1.69585">
        <ele>59</ele>
        <time>2022-10-29T13:21:45Z</time>
      </trkpt>
      <trkpt lat="47.1436" lon="-1.69571">
        <ele>59</ele>
        <time>2022-10-29T13:21:47Z</time>
      </trkpt>
      <trkpt lat="47.14364" lon="-1.69557">
        <ele>59</ele>
        <time>2022-10-29T13:21:49Z</time>
      </trkpt>
      <trkpt lat="47.14369" lon="-1.69543">
        <ele>59</ele>
        <time>2022-10-29T13:21:51Z</time>
      </trkpt>
      <trkpt lat="47.14372" lon="-1.6953">
        <ele>60</ele>
        <time>2022-10-29T13:21:53Z</time>
      </trkpt>
      <trkpt lat="47.14374" lon="-1.69517">
        <ele>60</ele>
        <time>2022-10-29T13:21:55Z</time>
      </trkpt>
      <trkpt lat="47.14376" lon="-1.69503">
        <ele>60</ele>
        <time>2022-10-29T13:21:57Z</time>
      </trkpt>
      <trkpt lat="47.14376" lon="-1.69489">
        <ele>61</ele>
        <time>2022-10-29T13:21:59Z</time>
      </trkpt>
      <trkpt lat="47.14377" lon="-1.69475">
        <ele>61</ele>
        <time>2022-10-29T13:22:01Z</time>
      </trkpt>
      <trkpt lat="47.14377" lon="-1.69462">
        <ele>62</ele>
        <time>2022-10-29T13:22:03Z</time>
      </trkpt>
      <trkpt lat="47.14377" lon="-1.69448">
        <ele>62</ele>
        <time>2022-10-29T13:22:05Z</time>
      </trkpt>
      <trkpt lat="47.14378" lon="-1.6943">
        <ele>63</ele>
        <time>2022-10-29T13:22:08Z</time>
      </trkpt>
      <trkpt lat="47.14379" lon="-1.69416">
        <ele>63</ele>
        <time>2022-10-29T13:22:11Z</time>
      </trkpt>
      <trkpt lat="47.14379" lon="-1.69402">
        <ele>64</ele>
        <time>2022-10-29T13:22:15Z</time>
      </trkpt>
      <trkpt lat="47.14382" lon="-1.69384">
        <ele>65</ele>
        <time>2022-10-29T13:22:19Z</time>
      </trkpt>
      <trkpt lat="47.14385" lon="-1.69365">
        <ele>66</ele>
        <time>2022-10-29T13:22:22Z</time>
      </trkpt>
      <trkpt lat="47.14387" lon="-1.69352">
        <ele>66</ele>
        <time>2022-10-29T13:22:24Z</time>
      </trkpt>
      <trkpt lat="47.1439" lon="-1.69337">
        <ele>66</ele>
        <time>2022-10-29T13:22:26Z</time>
      </trkpt>
      <trkpt lat="47.1439" lon="-1.69322">
        <ele>66</ele>
        <time>2022-10-29T13:22:28Z</time>
      </trkpt>
      <trkpt lat="47.14391" lon="-1.69306">
        <ele>65</ele>
        <time>2022-10-29T13:22:30Z</time>
      </trkpt>
      <trkpt lat="47.14391" lon="-1.69291">
        <ele>66</ele>
        <time>2022-10-29T13:22:32Z</time>
      </trkpt>
      <trkpt lat="47.14392" lon="-1.69276">
        <ele>66</ele>
        <time>2022-10-29T13:22:34Z</time>
      </trkpt>
      <trkpt lat="47.14392" lon="-1.69261">
        <ele>66</ele>
        <time>2022-10-29T13:22:36Z</time>
      </trkpt>
      <trkpt lat="47.14392" lon="-1.69245">
        <ele>66</ele>
        <time>2022-10-29T13:22:38Z</time>
      </trkpt>
      <trkpt lat="47.14393" lon="-1.69229">
        <ele>66</ele>
        <time>2022-10-29T13:22:40Z</time>
      </trkpt>
      <trkpt lat="47.14393" lon="-1.69212">
        <ele>66</ele>
        <time>2022-10-29T13:22:42Z</time>
      </trkpt>
      <trkpt lat="47.14393" lon="-1.69194">
        <ele>66</ele>
        <time>2022-10-29T13:22:44Z</time>
      </trkpt>
      <trkpt lat="47.14393" lon="-1.69177">
        <ele>66</ele>
        <time>2022-10-29T13:22:46Z</time>
      </trkpt>
      <trkpt lat="47.14393" lon="-1.69159">
        <ele>66</ele>
        <time>2022-10-29T13:22:48Z</time>
      </trkpt>
      <trkpt lat="47.14393" lon="-1.69143">
        <ele>66</ele>
        <time>2022-10-29T13:22:50Z</time>
      </trkpt>
      <trkpt lat="47.14394" lon="-1.69126">
        <ele>66</ele>
        <time>2022-10-29T13:22:52Z</time>
      </trkpt>
      <trkpt lat="47.14394" lon="-1.6911">
        <ele>66</ele>
        <time>2022-10-29T13:22:54Z</time>
      </trkpt>
      <trkpt lat="47.14394" lon="-1.69093">
        <ele>66</ele>
        <time>2022-10-29T13:22:56Z</time>
      </trkpt>
      <trkpt lat="47.14394" lon="-1.69077">
        <ele>66</ele>
        <time>2022-10-29T13:22:58Z</time>
      </trkpt>
      <trkpt lat="47.14394" lon="-1.69061">
        <ele>66</ele>
        <time>2022-10-29T13:23:00Z</time>
      </trkpt>
      <trkpt lat="47.14394" lon="-1.69044">
        <ele>66</ele>
        <time>2022-10-29T13:23:02Z</time>
      </trkpt>
      <trkpt lat="47.14394" lon="-1.69027">
        <ele>66</ele>
        <time>2022-10-29T13:23:04Z</time>
      </trkpt>
      <trkpt lat="47.14394" lon="-1.69011">
        <ele>66</ele>
        <time>2022-10-29T13:23:06Z</time>
      </trkpt>
      <trkpt lat="47.14395" lon="-1.68995">
        <ele>66</ele>
        <time>2022-10-29T13:23:08Z</time>
      </trkpt>
      <trkpt lat="47.14396" lon="-1.68979">
        <ele>66</ele>
        <time>2022-10-29T13:23:10Z</time>
      </trkpt>
      <trkpt lat="47.14396" lon="-1.68961">
        <ele>66</ele>
        <time>2022-10-29T13:23:12Z</time>
      </trkpt>
      <trkpt lat="47.14397" lon="-1.68943">
        <ele>66</ele>
        <time>2022-10-29T13:23:14Z</time>
      </trkpt>
      <trkpt lat="47.14398" lon="-1.68925">
        <ele>66</ele>
        <time>2022-10-29T13:23:16Z</time>
      </trkpt>
      <trkpt lat="47.14398" lon="-1.68907">
        <ele>65</ele>
        <time>2022-10-29T13:23:18Z</time>
      </trkpt>
      <trkpt lat="47.14398" lon="-1.68888">
        <ele>65</ele>
        <time>2022-10-29T13:23:20Z</time>
      </trkpt>
      <trkpt lat="47.144" lon="-1.6887">
        <ele>65</ele>
        <time>2022-10-29T13:23:22Z</time>
      </trkpt>
      <trkpt lat="47.14403" lon="-1.68851">
        <ele>65</ele>
        <time>2022-10-29T13:23:24Z</time>
      </trkpt>
      <trkpt lat="47.14404" lon="-1.68834">
        <ele>65</ele>
        <time>2022-10-29T13:23:26Z</time>
      </trkpt>
      <trkpt lat="47.14406" lon="-1.68816">
        <ele>64</ele>
        <time>2022-10-29T13:23:28Z</time>
      </trkpt>
      <trkpt lat="47.14408" lon="-1.68798">
        <ele>64</ele>
        <time>2022-10-29T13:23:30Z</time>
      </trkpt>
      <trkpt lat="47.1441" lon="-1.68781">
        <ele>64</ele>
        <time>2022-10-29T13:23:32Z</time>
      </trkpt>
      <trkpt lat="47.1441" lon="-1.68763">
        <ele>64</ele>
        <time>2022-10-29T13:23:34Z</time>
      </trkpt>
      <trkpt lat="47.14411" lon="-1.68744">
        <ele>64</ele>
        <time>2022-10-29T13:23:36Z</time>
      </trkpt>
      <trkpt lat="47.14411" lon="-1.68726">
        <ele>63</ele>
        <time>2022-10-29T13:23:38Z</time>
      </trkpt>
      <trkpt lat="47.14413" lon="-1.68708">
        <ele>63</ele>
        <time>2022-10-29T13:23:40Z</time>
      </trkpt>
      <trkpt lat="47.14413" lon="-1.68689">
        <ele>63</ele>
        <time>2022-10-29T13:23:42Z</time>
      </trkpt>
      <trkpt lat="47.14412" lon="-1.68671">
        <ele>63</ele>
        <time>2022-10-29T13:23:44Z</time>
      </trkpt>
      <trkpt lat="47.14409" lon="-1.68654">
        <ele>63</ele>
        <time>2022-10-29T13:23:46Z</time>
      </trkpt>
      <trkpt lat="47.14403" lon="-1.68639">
        <ele>63</ele>
        <time>2022-10-29T13:23:48Z</time>
      </trkpt>
      <trkpt lat="47.14394" lon="-1.6863">
        <ele>63</ele>
        <time>2022-10-29T13:23:50Z</time>
      </trkpt>
      <trkpt lat="47.14391" lon="-1.68615">
        <ele>62</ele>
        <time>2022-10-29T13:23:52Z</time>
      </trkpt>
      <trkpt lat="47.14389" lon="-1.68598">
        <ele>62</ele>
        <time>2022-10-29T13:23:54Z</time>
      </trkpt>
      <trkpt lat="47.14388" lon="-1.6858">
        <ele>63</ele>
        <time>2022-10-29T13:23:56Z</time>
      </trkpt>
      <trkpt lat="47.14388" lon="-1.68562">
        <ele>63</ele>
        <time>2022-10-29T13:23:58Z</time>
      </trkpt>
      <trkpt lat="47.14387" lon="-1.68544">
        <ele>62</ele>
        <time>2022-10-29T13:24:00Z</time>
      </trkpt>
      <trkpt lat="47.14387" lon="-1.68525">
        <ele>62</ele>
        <time>2022-10-29T13:24:02Z</time>
      </trkpt>
      <trkpt lat="47.14389" lon="-1.68505">
        <ele>62</ele>
        <time>2022-10-29T13:24:04Z</time>
      </trkpt>
      <trkpt lat="47.14391" lon="-1.68487">
        <ele>63</ele>
        <time>2022-10-29T13:24:06Z</time>
      </trkpt>
      <trkpt lat="47.14391" lon="-1.68469">
        <ele>63</ele>
        <time>2022-10-29T13:24:08Z</time>
      </trkpt>
      <trkpt lat="47.14392" lon="-1.68449">
        <ele>63</ele>
        <time>2022-10-29T13:24:10Z</time>
      </trkpt>
      <trkpt lat="47.14394" lon="-1.6843">
        <ele>63</ele>
        <time>2022-10-29T13:24:12Z</time>
      </trkpt>
      <trkpt lat="47.14394" lon="-1.68411">
        <ele>63</ele>
        <time>2022-10-29T13:24:14Z</time>
      </trkpt>
      <trkpt lat="47.14396" lon="-1.68391">
        <ele>63</ele>
        <time>2022-10-29T13:24:16Z</time>
      </trkpt>
      <trkpt lat="47.14395" lon="-1.68371">
        <ele>62</ele>
        <time>2022-10-29T13:24:18Z</time>
      </trkpt>
      <trkpt lat="47.14393" lon="-1.68352">
        <ele>62</ele>
        <time>2022-10-29T13:24:20Z</time>
      </trkpt>
      <trkpt lat="47.14391" lon="-1.68334">
        <ele>62</ele>
        <time>2022-10-29T13:24:22Z</time>
      </trkpt>
      <trkpt lat="47.14387" lon="-1.68316">
        <ele>61</ele>
        <time>2022-10-29T13:24:24Z</time>
      </trkpt>
      <trkpt lat="47.14383" lon="-1.68298">
        <ele>61</ele>
        <time>2022-10-29T13:24:26Z</time>
      </trkpt>
      <trkpt lat="47.14378" lon="-1.68281">
        <ele>61</ele>
        <time>2022-10-29T13:24:28Z</time>
      </trkpt>
      <trkpt lat="47.14373" lon="-1.68268">
        <ele>61</ele>
        <time>2022-10-29T13:24:30Z</time>
      </trkpt>
      <trkpt lat="47.14371" lon="-1.68253">
        <ele>61</ele>
        <time>2022-10-29T13:24:32Z</time>
      </trkpt>
      <trkpt lat="47.14369" lon="-1.68237">
        <ele>62</ele>
        <time>2022-10-29T13:24:34Z</time>
      </trkpt>
      <trkpt lat="47.1437" lon="-1.68221">
        <ele>62</ele>
        <time>2022-10-29T13:24:36Z</time>
      </trkpt>
      <trkpt lat="47.14371" lon="-1.68203">
        <ele>62</ele>
        <time>2022-10-29T13:24:38Z</time>
      </trkpt>
      <trkpt lat="47.14372" lon="-1.68187">
        <ele>62</ele>
        <time>2022-10-29T13:24:40Z</time>
      </trkpt>
      <trkpt lat="47.14369" lon="-1.68171">
        <ele>62</ele>
        <time>2022-10-29T13:24:42Z</time>
      </trkpt>
      <trkpt lat="47.14367" lon="-1.68154">
        <ele>62</ele>
        <time>2022-10-29T13:24:44Z</time>
      </trkpt>
      <trkpt lat="47.14368" lon="-1.68137">
        <ele>62</ele>
        <time>2022-10-29T13:24:46Z</time>
      </trkpt>
      <trkpt lat="47.14369" lon="-1.6812">
        <ele>62</ele>
        <time>2022-10-29T13:24:48Z</time>
      </trkpt>
      <trkpt lat="47.14368" lon="-1.68103">
        <ele>62</ele>
        <time>2022-10-29T13:24:50Z</time>
      </trkpt>
      <trkpt lat="47.14367" lon="-1.68087">
        <ele>63</ele>
        <time>2022-10-29T13:24:52Z</time>
      </trkpt>
      <trkpt lat="47.14366" lon="-1.6807">
        <ele>62</ele>
        <time>2022-10-29T13:24:54Z</time>
      </trkpt>
      <trkpt lat="47.14365" lon="-1.68054">
        <ele>63</ele>
        <time>2022-10-29T13:24:56Z</time>
      </trkpt>
      <trkpt lat="47.14365" lon="-1.68036">
        <ele>63</ele>
        <time>2022-10-29T13:24:58Z</time>
      </trkpt>
      <trkpt lat="47.14364" lon="-1.68017">
        <ele>63</ele>
        <time>2022-10-29T13:25:00Z</time>
      </trkpt>
      <trkpt lat="47.14363" lon="-1.67999">
        <ele>62</ele>
        <time>2022-10-29T13:25:02Z</time>
      </trkpt>
      <trkpt lat="47.14361" lon="-1.67983">
        <ele>63</ele>
        <time>2022-10-29T13:25:04Z</time>
      </trkpt>
      <trkpt lat="47.14359" lon="-1.67965">
        <ele>62</ele>
        <time>2022-10-29T13:25:06Z</time>
      </trkpt>
      <trkpt lat="47.14358" lon="-1.67947">
        <ele>62</ele>
        <time>2022-10-29T13:25:08Z</time>
      </trkpt>
      <trkpt lat="47.14357" lon="-1.67931">
        <ele>62</ele>
        <time>2022-10-29T13:25:10Z</time>
      </trkpt>
      <trkpt lat="47.14355" lon="-1.67915">
        <ele>62</ele>
        <time>2022-10-29T13:25:12Z</time>
      </trkpt>
      <trkpt lat="47.14349" lon="-1.67902">
        <ele>62</ele>
        <time>2022-10-29T13:25:14Z</time>
      </trkpt>
      <trkpt lat="47.14342" lon="-1.67892">
        <ele>62</ele>
        <time>2022-10-29T13:25:16Z</time>
      </trkpt>
      <trkpt lat="47.14338" lon="-1.67877">
        <ele>62</ele>
        <time>2022-10-29T13:25:18Z</time>
      </trkpt>
      <trkpt lat="47.14339" lon="-1.67859">
        <ele>62</ele>
        <time>2022-10-29T13:25:20Z</time>
      </trkpt>
      <trkpt lat="47.14342" lon="-1.67842">
        <ele>62</ele>
        <time>2022-10-29T13:25:22Z</time>
      </trkpt>
      <trkpt lat="47.14344" lon="-1.67824">
        <ele>62</ele>
        <time>2022-10-29T13:25:24Z</time>
      </trkpt>
      <trkpt lat="47.14341" lon="-1.67806">
        <ele>61</ele>
        <time>2022-10-29T13:25:26Z</time>
      </trkpt>
      <trkpt lat="47.1434" lon="-1.67788">
        <ele>61</ele>
        <time>2022-10-29T13:25:28Z</time>
      </trkpt>
      <trkpt lat="47.14336" lon="-1.67771">
        <ele>61</ele>
        <time>2022-10-29T13:25:30Z</time>
      </trkpt>
      <trkpt lat="47.14333" lon="-1.67754">
        <ele>61</ele>
        <time>2022-10-29T13:25:32Z</time>
      </trkpt>
      <trkpt lat="47.14329" lon="-1.67737">
        <ele>61</ele>
        <time>2022-10-29T13:25:34Z</time>
      </trkpt>
      <trkpt lat="47.14324" lon="-1.67721">
        <ele>61</ele>
        <time>2022-10-29T13:25:36Z</time>
      </trkpt>
      <trkpt lat="47.14319" lon="-1.67705">
        <ele>61</ele>
        <time>2022-10-29T13:25:38Z</time>
      </trkpt>
      <trkpt lat="47.14315" lon="-1.67689">
        <ele>61</ele>
        <time>2022-10-29T13:25:40Z</time>
      </trkpt>
      <trkpt lat="47.14312" lon="-1.67671">
        <ele>61</ele>
        <time>2022-10-29T13:25:42Z</time>
      </trkpt>
      <trkpt lat="47.14309" lon="-1.67653">
        <ele>61</ele>
        <time>2022-10-29T13:25:44Z</time>
      </trkpt>
      <trkpt lat="47.14308" lon="-1.67634">
        <ele>61</ele>
        <time>2022-10-29T13:25:46Z</time>
      </trkpt>
      <trkpt lat="47.14306" lon="-1.67615">
        <ele>61</ele>
        <time>2022-10-29T13:25:48Z</time>
      </trkpt>
      <trkpt lat="47.14305" lon="-1.67596">
        <ele>61</ele>
        <time>2022-10-29T13:25:50Z</time>
      </trkpt>
      <trkpt lat="47.14303" lon="-1.67578">
        <ele>61</ele>
        <time>2022-10-29T13:25:52Z</time>
      </trkpt>
      <trkpt lat="47.14302" lon="-1.67558">
        <ele>61</ele>
        <time>2022-10-29T13:25:54Z</time>
      </trkpt>
      <trkpt lat="47.143" lon="-1.6754">
        <ele>61</ele>
        <time>2022-10-29T13:25:56Z</time>
      </trkpt>
      <trkpt lat="47.14297" lon="-1.67521">
        <ele>61</ele>
        <time>2022-10-29T13:25:58Z</time>
      </trkpt>
      <trkpt lat="47.14293" lon="-1.67503">
        <ele>61</ele>
        <time>2022-10-29T13:26:00Z</time>
      </trkpt>
      <trkpt lat="47.14289" lon="-1.67486">
        <ele>62</ele>
        <time>2022-10-29T13:26:02Z</time>
      </trkpt>
      <trkpt lat="47.14284" lon="-1.67468">
        <ele>62</ele>
        <time>2022-10-29T13:26:04Z</time>
      </trkpt>
      <trkpt lat="47.14278" lon="-1.67452">
        <ele>62</ele>
        <time>2022-10-29T13:26:06Z</time>
      </trkpt>
      <trkpt lat="47.14273" lon="-1.67435">
        <ele>63</ele>
        <time>2022-10-29T13:26:08Z</time>
      </trkpt>
      <trkpt lat="47.14267" lon="-1.67419">
        <ele>63</ele>
        <time>2022-10-29T13:26:10Z</time>
      </trkpt>
      <trkpt lat="47.14261" lon="-1.67403">
        <ele>63</ele>
        <time>2022-10-29T13:26:12Z</time>
      </trkpt>
      <trkpt lat="47.14255" lon="-1.67388">
        <ele>63</ele>
        <time>2022-10-29T13:26:14Z</time>
      </trkpt>
      <trkpt lat="47.14249" lon="-1.67374">
        <ele>63</ele>
        <time>2022-10-29T13:26:16Z</time>
      </trkpt>
      <trkpt lat="47.14242" lon="-1.6736">
        <ele>62</ele>
        <time>2022-10-29T13:26:18Z</time>
      </trkpt>
      <trkpt lat="47.14237" lon="-1.67345">
        <ele>62</ele>
        <time>2022-10-29T13:26:20Z</time>
      </trkpt>
      <trkpt lat="47.14231" lon="-1.67331">
        <ele>62</ele>
        <time>2022-10-29T13:26:22Z</time>
      </trkpt>
      <trkpt lat="47.14226" lon="-1.67318">
        <ele>62</ele>
        <time>2022-10-29T13:26:24Z</time>
      </trkpt>
      <trkpt lat="47.1422" lon="-1.67304">
        <ele>62</ele>
        <time>2022-10-29T13:26:27Z</time>
      </trkpt>
      <trkpt lat="47.14215" lon="-1.67293">
        <ele>62</ele>
        <time>2022-10-29T13:26:32Z</time>
      </trkpt>
      <trkpt lat="47.1421" lon="-1.67281">
        <ele>63</ele>
        <time>2022-10-29T13:26:44Z</time>
      </trkpt>
      <trkpt lat="47.14204" lon="-1.67268">
        <ele>64</ele>
        <time>2022-10-29T13:26:47Z</time>
      </trkpt>
      <trkpt lat="47.14199" lon="-1.67254">
        <ele>64</ele>
        <time>2022-10-29T13:26:49Z</time>
      </trkpt>
      <trkpt lat="47.14196" lon="-1.67237">
        <ele>64</ele>
        <time>2022-10-29T13:26:51Z</time>
      </trkpt>
      <trkpt lat="47.14193" lon="-1.67219">
        <ele>64</ele>
        <time>2022-10-29T13:26:53Z</time>
      </trkpt>
      <trkpt lat="47.14189" lon="-1.67201">
        <ele>63</ele>
        <time>2022-10-29T13:26:55Z</time>
      </trkpt>
      <trkpt lat="47.14185" lon="-1.67183">
        <ele>63</ele>
        <time>2022-10-29T13:26:57Z</time>
      </trkpt>
      <trkpt lat="47.14182" lon="-1.67166">
        <ele>63</ele>
        <time>2022-10-29T13:26:59Z</time>
      </trkpt>
      <trkpt lat="47.14179" lon="-1.67148">
        <ele>62</ele>
        <time>2022-10-29T13:27:01Z</time>
      </trkpt>
      <trkpt lat="47.14175" lon="-1.6713">
        <ele>62</ele>
        <time>2022-10-29T13:27:03Z</time>
      </trkpt>
      <trkpt lat="47.14173" lon="-1.67111">
        <ele>62</ele>
        <time>2022-10-29T13:27:05Z</time>
      </trkpt>
      <trkpt lat="47.1417" lon="-1.67092">
        <ele>61</ele>
        <time>2022-10-29T13:27:07Z</time>
      </trkpt>
      <trkpt lat="47.14169" lon="-1.67072">
        <ele>61</ele>
        <time>2022-10-29T13:27:09Z</time>
      </trkpt>
      <trkpt lat="47.14167" lon="-1.67051">
        <ele>61</ele>
        <time>2022-10-29T13:27:11Z</time>
      </trkpt>
      <trkpt lat="47.14165" lon="-1.67031">
        <ele>61</ele>
        <time>2022-10-29T13:27:13Z</time>
      </trkpt>
      <trkpt lat="47.14163" lon="-1.67011">
        <ele>60</ele>
        <time>2022-10-29T13:27:15Z</time>
      </trkpt>
      <trkpt lat="47.14162" lon="-1.66991">
        <ele>60</ele>
        <time>2022-10-29T13:27:17Z</time>
      </trkpt>
      <trkpt lat="47.14161" lon="-1.6697">
        <ele>60</ele>
        <time>2022-10-29T13:27:19Z</time>
      </trkpt>
      <trkpt lat="47.14162" lon="-1.66949">
        <ele>60</ele>
        <time>2022-10-29T13:27:21Z</time>
      </trkpt>
      <trkpt lat="47.14164" lon="-1.66928">
        <ele>60</ele>
        <time>2022-10-29T13:27:23Z</time>
      </trkpt>
      <trkpt lat="47.14167" lon="-1.66909">
        <ele>60</ele>
        <time>2022-10-29T13:27:25Z</time>
      </trkpt>
      <trkpt lat="47.14172" lon="-1.66891">
        <ele>59</ele>
        <time>2022-10-29T13:27:27Z</time>
      </trkpt>
      <trkpt lat="47.14177" lon="-1.66872">
        <ele>59</ele>
        <time>2022-10-29T13:27:29Z</time>
      </trkpt>
      <trkpt lat="47.14183" lon="-1.66854">
        <ele>59</ele>
        <time>2022-10-29T13:27:31Z</time>
      </trkpt>
      <trkpt lat="47.14189" lon="-1.66834">
        <ele>60</ele>
        <time>2022-10-29T13:27:33Z</time>
      </trkpt>
      <trkpt lat="47.14195" lon="-1.66815">
        <ele>60</ele>
        <time>2022-10-29T13:27:35Z</time>
      </trkpt>
      <trkpt lat="47.14202" lon="-1.66796">
        <ele>59</ele>
        <time>2022-10-29T13:27:37Z</time>
      </trkpt>
      <trkpt lat="47.14207" lon="-1.66778">
        <ele>59</ele>
        <time>2022-10-29T13:27:39Z</time>
      </trkpt>
      <trkpt lat="47.14213" lon="-1.6676">
        <ele>60</ele>
        <time>2022-10-29T13:27:41Z</time>
      </trkpt>
      <trkpt lat="47.14219" lon="-1.66743">
        <ele>60</ele>
        <time>2022-10-29T13:27:43Z</time>
      </trkpt>
      <trkpt lat="47.14224" lon="-1.66725">
        <ele>60</ele>
        <time>2022-10-29T13:27:45Z</time>
      </trkpt>
      <trkpt lat="47.1423" lon="-1.66707">
        <ele>60</ele>
        <time>2022-10-29T13:27:47Z</time>
      </trkpt>
      <trkpt lat="47.14236" lon="-1.6669">
        <ele>60</ele>
        <time>2022-10-29T13:27:49Z</time>
      </trkpt>
      <trkpt lat="47.14241" lon="-1.66672">
        <ele>61</ele>
        <time>2022-10-29T13:27:51Z</time>
      </trkpt>
      <trkpt lat="47.14247" lon="-1.66655">
        <ele>61</ele>
        <time>2022-10-29T13:27:53Z</time>
      </trkpt>
      <trkpt lat="47.14252" lon="-1.66639">
        <ele>61</ele>
        <time>2022-10-29T13:27:55Z</time>
      </trkpt>
      <trkpt lat="47.14258" lon="-1.66622">
        <ele>61</ele>
        <time>2022-10-29T13:27:57Z</time>
      </trkpt>
      <trkpt lat="47.14263" lon="-1.66605">
        <ele>62</ele>
        <time>2022-10-29T13:27:59Z</time>
      </trkpt>
      <trkpt lat="47.14269" lon="-1.66587">
        <ele>62</ele>
        <time>2022-10-29T13:28:01Z</time>
      </trkpt>
      <trkpt lat="47.14274" lon="-1.66568">
        <ele>62</ele>
        <time>2022-10-29T13:28:03Z</time>
      </trkpt>
      <trkpt lat="47.14278" lon="-1.66552">
        <ele>62</ele>
        <time>2022-10-29T13:28:05Z</time>
      </trkpt>
      <trkpt lat="47.14283" lon="-1.66535">
        <ele>62</ele>
        <time>2022-10-29T13:28:07Z</time>
      </trkpt>
      <trkpt lat="47.14287" lon="-1.66519">
        <ele>62</ele>
        <time>2022-10-29T13:28:09Z</time>
      </trkpt>
      <trkpt lat="47.14291" lon="-1.66503">
        <ele>62</ele>
        <time>2022-10-29T13:28:11Z</time>
      </trkpt>
      <trkpt lat="47.14295" lon="-1.66487">
        <ele>62</ele>
        <time>2022-10-29T13:28:13Z</time>
      </trkpt>
      <trkpt lat="47.143" lon="-1.6647">
        <ele>61</ele>
        <time>2022-10-29T13:28:15Z</time>
      </trkpt>
      <trkpt lat="47.14304" lon="-1.66453">
        <ele>61</ele>
        <time>2022-10-29T13:28:17Z</time>
      </trkpt>
      <trkpt lat="47.14308" lon="-1.66436">
        <ele>62</ele>
        <time>2022-10-29T13:28:19Z</time>
      </trkpt>
      <trkpt lat="47.14312" lon="-1.66419">
        <ele>62</ele>
        <time>2022-10-29T13:28:21Z</time>
      </trkpt>
      <trkpt lat="47.14316" lon="-1.66402">
        <ele>62</ele>
        <time>2022-10-29T13:28:23Z</time>
      </trkpt>
      <trkpt lat="47.1432" lon="-1.66385">
        <ele>62</ele>
        <time>2022-10-29T13:28:25Z</time>
      </trkpt>
      <trkpt lat="47.14324" lon="-1.66368">
        <ele>62</ele>
        <time>2022-10-29T13:28:27Z</time>
      </trkpt>
      <trkpt lat="47.14329" lon="-1.66351">
        <ele>62</ele>
        <time>2022-10-29T13:28:29Z</time>
      </trkpt>
      <trkpt lat="47.14333" lon="-1.66334">
        <ele>63</ele>
        <time>2022-10-29T13:28:31Z</time>
      </trkpt>
      <trkpt lat="47.14336" lon="-1.66317">
        <ele>63</ele>
        <time>2022-10-29T13:28:33Z</time>
      </trkpt>
      <trkpt lat="47.1434" lon="-1.663">
        <ele>63</ele>
        <time>2022-10-29T13:28:35Z</time>
      </trkpt>
      <trkpt lat="47.14344" lon="-1.66284">
        <ele>63</ele>
        <time>2022-10-29T13:28:37Z</time>
      </trkpt>
      <trkpt lat="47.14347" lon="-1.66267">
        <ele>63</ele>
        <time>2022-10-29T13:28:39Z</time>
      </trkpt>
      <trkpt lat="47.14351" lon="-1.66251">
        <ele>63</ele>
        <time>2022-10-29T13:28:41Z</time>
      </trkpt>
      <trkpt lat="47.14355" lon="-1.66233">
        <ele>63</ele>
        <time>2022-10-29T13:28:43Z</time>
      </trkpt>
      <trkpt lat="47.14358" lon="-1.66216">
        <ele>63</ele>
        <time>2022-10-29T13:28:45Z</time>
      </trkpt>
      <trkpt lat="47.14362" lon="-1.662">
        <ele>63</ele>
        <time>2022-10-29T13:28:47Z</time>
      </trkpt>
      <trkpt lat="47.1436" lon="-1.66185">
        <ele>63</ele>
        <time>2022-10-29T13:28:49Z</time>
      </trkpt>
      <trkpt lat="47.1436" lon="-1.66171">
        <ele>62</ele>
        <time>2022-10-29T13:28:51Z</time>
      </trkpt>
      <trkpt lat="47.14368" lon="-1.66158">
        <ele>62</ele>
        <time>2022-10-29T13:28:54Z</time>
      </trkpt>
      <trkpt lat="47.14372" lon="-1.66145">
        <ele>63</ele>
        <time>2022-10-29T13:28:56Z</time>
      </trkpt>
      <trkpt lat="47.14375" lon="-1.66128">
        <ele>63</ele>
        <time>2022-10-29T13:28:58Z</time>
      </trkpt>
      <trkpt lat="47.14377" lon="-1.66111">
        <ele>64</ele>
        <time>2022-10-29T13:29:00Z</time>
      </trkpt>
      <trkpt lat="47.14379" lon="-1.66094">
        <ele>64</ele>
        <time>2022-10-29T13:29:02Z</time>
      </trkpt>
      <trkpt lat="47.14381" lon="-1.66077">
        <ele>64</ele>
        <time>2022-10-29T13:29:04Z</time>
      </trkpt>
      <trkpt lat="47.14383" lon="-1.66059">
        <ele>64</ele>
        <time>2022-10-29T13:29:06Z</time>
      </trkpt>
      <trkpt lat="47.14384" lon="-1.66041">
        <ele>64</ele>
        <time>2022-10-29T13:29:08Z</time>
      </trkpt>
      <trkpt lat="47.14386" lon="-1.66022">
        <ele>64</ele>
        <time>2022-10-29T13:29:10Z</time>
      </trkpt>
      <trkpt lat="47.14387" lon="-1.66004">
        <ele>64</ele>
        <time>2022-10-29T13:29:12Z</time>
      </trkpt>
      <trkpt lat="47.14389" lon="-1.65985">
        <ele>64</ele>
        <time>2022-10-29T13:29:14Z</time>
      </trkpt>
      <trkpt lat="47.1439" lon="-1.65966">
        <ele>64</ele>
        <time>2022-10-29T13:29:16Z</time>
      </trkpt>
      <trkpt lat="47.14391" lon="-1.65946">
        <ele>64</ele>
        <time>2022-10-29T13:29:18Z</time>
      </trkpt>
      <trkpt lat="47.14392" lon="-1.65927">
        <ele>63</ele>
        <time>2022-10-29T13:29:20Z</time>
      </trkpt>
      <trkpt lat="47.14393" lon="-1.65908">
        <ele>63</ele>
        <time>2022-10-29T13:29:22Z</time>
      </trkpt>
      <trkpt lat="47.14394" lon="-1.65888">
        <ele>63</ele>
        <time>2022-10-29T13:29:24Z</time>
      </trkpt>
      <trkpt lat="47.14396" lon="-1.65868">
        <ele>62</ele>
        <time>2022-10-29T13:29:26Z</time>
      </trkpt>
      <trkpt lat="47.14397" lon="-1.65849">
        <ele>63</ele>
        <time>2022-10-29T13:29:28Z</time>
      </trkpt>
      <trkpt lat="47.14399" lon="-1.65829">
        <ele>63</ele>
        <time>2022-10-29T13:29:30Z</time>
      </trkpt>
      <trkpt lat="47.14401" lon="-1.65809">
        <ele>62</ele>
        <time>2022-10-29T13:29:32Z</time>
      </trkpt>
      <trkpt lat="47.14403" lon="-1.65789">
        <ele>62</ele>
        <time>2022-10-29T13:29:34Z</time>
      </trkpt>
      <trkpt lat="47.14406" lon="-1.6577">
        <ele>62</ele>
        <time>2022-10-29T13:29:36Z</time>
      </trkpt>
      <trkpt lat="47.14409" lon="-1.6575">
        <ele>62</ele>
        <time>2022-10-29T13:29:38Z</time>
      </trkpt>
      <trkpt lat="47.14412" lon="-1.6573">
        <ele>62</ele>
        <time>2022-10-29T13:29:40Z</time>
      </trkpt>
      <trkpt lat="47.14416" lon="-1.65711">
        <ele>61</ele>
        <time>2022-10-29T13:29:42Z</time>
      </trkpt>
      <trkpt lat="47.1442" lon="-1.65692">
        <ele>62</ele>
        <time>2022-10-29T13:29:44Z</time>
      </trkpt>
      <trkpt lat="47.14425" lon="-1.65674">
        <ele>62</ele>
        <time>2022-10-29T13:29:46Z</time>
      </trkpt>
      <trkpt lat="47.1443" lon="-1.65656">
        <ele>62</ele>
        <time>2022-10-29T13:29:48Z</time>
      </trkpt>
      <trkpt lat="47.14436" lon="-1.65638">
        <ele>62</ele>
        <time>2022-10-29T13:29:50Z</time>
      </trkpt>
      <trkpt lat="47.14441" lon="-1.65621">
        <ele>62</ele>
        <time>2022-10-29T13:29:52Z</time>
      </trkpt>
      <trkpt lat="47.14448" lon="-1.65603">
        <ele>62</ele>
        <time>2022-10-29T13:29:54Z</time>
      </trkpt>
      <trkpt lat="47.14455" lon="-1.65586">
        <ele>62</ele>
        <time>2022-10-29T13:29:56Z</time>
      </trkpt>
      <trkpt lat="47.14461" lon="-1.65569">
        <ele>62</ele>
        <time>2022-10-29T13:29:58Z</time>
      </trkpt>
      <trkpt lat="47.14468" lon="-1.65553">
        <ele>63</ele>
        <time>2022-10-29T13:30:00Z</time>
      </trkpt>
      <trkpt lat="47.14474" lon="-1.65536">
        <ele>63</ele>
        <time>2022-10-29T13:30:02Z</time>
      </trkpt>
      <trkpt lat="47.1448" lon="-1.6552">
        <ele>63</ele>
        <time>2022-10-29T13:30:04Z</time>
      </trkpt>
      <trkpt lat="47.14487" lon="-1.65504">
        <ele>63</ele>
        <time>2022-10-29T13:30:06Z</time>
      </trkpt>
      <trkpt lat="47.14494" lon="-1.65487">
        <ele>63</ele>
        <time>2022-10-29T13:30:08Z</time>
      </trkpt>
      <trkpt lat="47.14501" lon="-1.65471">
        <ele>63</ele>
        <time>2022-10-29T13:30:10Z</time>
      </trkpt>
      <trkpt lat="47.14507" lon="-1.65455">
        <ele>63</ele>
        <time>2022-10-29T13:30:12Z</time>
      </trkpt>
      <trkpt lat="47.14513" lon="-1.65438">
        <ele>63</ele>
        <time>2022-10-29T13:30:14Z</time>
      </trkpt>
      <trkpt lat="47.14518" lon="-1.65421">
        <ele>63</ele>
        <time>2022-10-29T13:30:16Z</time>
      </trkpt>
      <trkpt lat="47.14522" lon="-1.65404">
        <ele>63</ele>
        <time>2022-10-29T13:30:18Z</time>
      </trkpt>
      <trkpt lat="47.14523" lon="-1.65386">
        <ele>63</ele>
        <time>2022-10-29T13:30:20Z</time>
      </trkpt>
      <trkpt lat="47.14525" lon="-1.6537">
        <ele>63</ele>
        <time>2022-10-29T13:30:22Z</time>
      </trkpt>
      <trkpt lat="47.14529" lon="-1.65353">
        <ele>63</ele>
        <time>2022-10-29T13:30:24Z</time>
      </trkpt>
      <trkpt lat="47.14534" lon="-1.65335">
        <ele>63</ele>
        <time>2022-10-29T13:30:26Z</time>
      </trkpt>
      <trkpt lat="47.14539" lon="-1.65317">
        <ele>63</ele>
        <time>2022-10-29T13:30:28Z</time>
      </trkpt>
      <trkpt lat="47.14546" lon="-1.65301">
        <ele>63</ele>
        <time>2022-10-29T13:30:30Z</time>
      </trkpt>
      <trkpt lat="47.14553" lon="-1.65286">
        <ele>63</ele>
        <time>2022-10-29T13:30:32Z</time>
      </trkpt>
      <trkpt lat="47.14556" lon="-1.65268">
        <ele>63</ele>
        <time>2022-10-29T13:30:34Z</time>
      </trkpt>
      <trkpt lat="47.1456" lon="-1.6525">
        <ele>63</ele>
        <time>2022-10-29T13:30:36Z</time>
      </trkpt>
      <trkpt lat="47.14563" lon="-1.65233">
        <ele>63</ele>
        <time>2022-10-29T13:30:38Z</time>
      </trkpt>
      <trkpt lat="47.14567" lon="-1.65216">
        <ele>64</ele>
        <time>2022-10-29T13:30:40Z</time>
      </trkpt>
      <trkpt lat="47.1457" lon="-1.65199">
        <ele>64</ele>
        <time>2022-10-29T13:30:42Z</time>
      </trkpt>
      <trkpt lat="47.14575" lon="-1.65183">
        <ele>65</ele>
        <time>2022-10-29T13:30:44Z</time>
      </trkpt>
      <trkpt lat="47.14579" lon="-1.65167">
        <ele>65</ele>
        <time>2022-10-29T13:30:46Z</time>
      </trkpt>
      <trkpt lat="47.14584" lon="-1.65151">
        <ele>66</ele>
        <time>2022-10-29T13:30:48Z</time>
      </trkpt>
      <trkpt lat="47.14589" lon="-1.65135">
        <ele>66</ele>
        <time>2022-10-29T13:30:50Z</time>
      </trkpt>
      <trkpt lat="47.14595" lon="-1.65119">
        <ele>66</ele>
        <time>2022-10-29T13:30:52Z</time>
      </trkpt>
      <trkpt lat="47.14601" lon="-1.65103">
        <ele>66</ele>
        <time>2022-10-29T13:30:54Z</time>
      </trkpt>
      <trkpt lat="47.14606" lon="-1.65087">
        <ele>67</ele>
        <time>2022-10-29T13:30:56Z</time>
      </trkpt>
      <trkpt lat="47.14613" lon="-1.65072">
        <ele>67</ele>
        <time>2022-10-29T13:30:58Z</time>
      </trkpt>
      <trkpt lat="47.14619" lon="-1.65057">
        <ele>67</ele>
        <time>2022-10-29T13:31:00Z</time>
      </trkpt>
      <trkpt lat="47.14625" lon="-1.65041">
        <ele>67</ele>
        <time>2022-10-29T13:31:02Z</time>
      </trkpt>
      <trkpt lat="47.14631" lon="-1.65025">
        <ele>67</ele>
        <time>2022-10-29T13:31:04Z</time>
      </trkpt>
      <trkpt lat="47.14638" lon="-1.65009">
        <ele>67</ele>
        <time>2022-10-29T13:31:06Z</time>
      </trkpt>
      <trkpt lat="47.14644" lon="-1.64994">
        <ele>67</ele>
        <time>2022-10-29T13:31:08Z</time>
      </trkpt>
      <trkpt lat="47.1465" lon="-1.64978">
        <ele>67</ele>
        <time>2022-10-29T13:31:10Z</time>
      </trkpt>
      <trkpt lat="47.14656" lon="-1.64963">
        <ele>66</ele>
        <time>2022-10-29T13:31:12Z</time>
      </trkpt>
      <trkpt lat="47.14662" lon="-1.64947">
        <ele>66</ele>
        <time>2022-10-29T13:31:14Z</time>
      </trkpt>
      <trkpt lat="47.14668" lon="-1.64931">
        <ele>66</ele>
        <time>2022-10-29T13:31:16Z</time>
      </trkpt>
      <trkpt lat="47.14673" lon="-1.64915">
        <ele>66</ele>
        <time>2022-10-29T13:31:18Z</time>
      </trkpt>
      <trkpt lat="47.14679" lon="-1.64899">
        <ele>66</ele>
        <time>2022-10-29T13:31:20Z</time>
      </trkpt>
      <trkpt lat="47.14685" lon="-1.64881">
        <ele>66</ele>
        <time>2022-10-29T13:31:22Z</time>
      </trkpt>
      <trkpt lat="47.1469" lon="-1.64865">
        <ele>67</ele>
        <time>2022-10-29T13:31:24Z</time>
      </trkpt>
      <trkpt lat="47.14695" lon="-1.64848">
        <ele>67</ele>
        <time>2022-10-29T13:31:26Z</time>
      </trkpt>
      <trkpt lat="47.14699" lon="-1.64832">
        <ele>67</ele>
        <time>2022-10-29T13:31:28Z</time>
      </trkpt>
      <trkpt lat="47.14703" lon="-1.64815">
        <ele>67</ele>
        <time>2022-10-29T13:31:30Z</time>
      </trkpt>
      <trkpt lat="47.14707" lon="-1.64799">
        <ele>68</ele>
        <time>2022-10-29T13:31:32Z</time>
      </trkpt>
      <trkpt lat="47.14712" lon="-1.64782">
        <ele>68</ele>
        <time>2022-10-29T13:31:34Z</time>
      </trkpt>
      <trkpt lat="47.14716" lon="-1.64765">
        <ele>68</ele>
        <time>2022-10-29T13:31:36Z</time>
      </trkpt>
      <trkpt lat="47.1472" lon="-1.64748">
        <ele>69</ele>
        <time>2022-10-29T13:31:38Z</time>
      </trkpt>
      <trkpt lat="47.14724" lon="-1.64731">
        <ele>69</ele>
        <time>2022-10-29T13:31:40Z</time>
      </trkpt>
      <trkpt lat="47.14727" lon="-1.64715">
        <ele>70</ele>
        <time>2022-10-29T13:31:42Z</time>
      </trkpt>
      <trkpt lat="47.1473" lon="-1.64698">
        <ele>70</ele>
        <time>2022-10-29T13:31:44Z</time>
      </trkpt>
      <trkpt lat="47.14733" lon="-1.64681">
        <ele>70</ele>
        <time>2022-10-29T13:31:46Z</time>
      </trkpt>
      <trkpt lat="47.14736" lon="-1.64665">
        <ele>70</ele>
        <time>2022-10-29T13:31:48Z</time>
      </trkpt>
      <trkpt lat="47.14739" lon="-1.64649">
        <ele>70</ele>
        <time>2022-10-29T13:31:50Z</time>
      </trkpt>
      <trkpt lat="47.14742" lon="-1.64633">
        <ele>71</ele>
        <time>2022-10-29T13:31:52Z</time>
      </trkpt>
      <trkpt lat="47.14744" lon="-1.64617">
        <ele>71</ele>
        <time>2022-10-29T13:31:54Z</time>
      </trkpt>
      <trkpt lat="47.14746" lon="-1.646">
        <ele>71</ele>
        <time>2022-10-29T13:31:56Z</time>
      </trkpt>
      <trkpt lat="47.14749" lon="-1.64584">
        <ele>71</ele>
        <time>2022-10-29T13:31:58Z</time>
      </trkpt>
      <trkpt lat="47.14751" lon="-1.64568">
        <ele>71</ele>
        <time>2022-10-29T13:32:00Z</time>
      </trkpt>
      <trkpt lat="47.14753" lon="-1.64552">
        <ele>71</ele>
        <time>2022-10-29T13:32:02Z</time>
      </trkpt>
      <trkpt lat="47.14756" lon="-1.64536">
        <ele>72</ele>
        <time>2022-10-29T13:32:04Z</time>
      </trkpt>
      <trkpt lat="47.14759" lon="-1.64519">
        <ele>71</ele>
        <time>2022-10-29T13:32:06Z</time>
      </trkpt>
      <trkpt lat="47.14761" lon="-1.64502">
        <ele>71</ele>
        <time>2022-10-29T13:32:08Z</time>
      </trkpt>
      <trkpt lat="47.14764" lon="-1.64485">
        <ele>71</ele>
        <time>2022-10-29T13:32:10Z</time>
      </trkpt>
      <trkpt lat="47.14767" lon="-1.64469">
        <ele>72</ele>
        <time>2022-10-29T13:32:12Z</time>
      </trkpt>
      <trkpt lat="47.1477" lon="-1.64452">
        <ele>72</ele>
        <time>2022-10-29T13:32:14Z</time>
      </trkpt>
      <trkpt lat="47.14773" lon="-1.64435">
        <ele>72</ele>
        <time>2022-10-29T13:32:16Z</time>
      </trkpt>
      <trkpt lat="47.14776" lon="-1.64419">
        <ele>72</ele>
        <time>2022-10-29T13:32:18Z</time>
      </trkpt>
      <trkpt lat="47.14779" lon="-1.64403">
        <ele>72</ele>
        <time>2022-10-29T13:32:20Z</time>
      </trkpt>
      <trkpt lat="47.14783" lon="-1.64386">
        <ele>72</ele>
        <time>2022-10-29T13:32:22Z</time>
      </trkpt>
      <trkpt lat="47.14787" lon="-1.6437">
        <ele>72</ele>
        <time>2022-10-29T13:32:24Z</time>
      </trkpt>
      <trkpt lat="47.1479" lon="-1.64353">
        <ele>72</ele>
        <time>2022-10-29T13:32:26Z</time>
      </trkpt>
      <trkpt lat="47.14795" lon="-1.64335">
        <ele>72</ele>
        <time>2022-10-29T13:32:28Z</time>
      </trkpt>
      <trkpt lat="47.14799" lon="-1.64318">
        <ele>72</ele>
        <time>2022-10-29T13:32:30Z</time>
      </trkpt>
      <trkpt lat="47.14803" lon="-1.64301">
        <ele>72</ele>
        <time>2022-10-29T13:32:32Z</time>
      </trkpt>
      <trkpt lat="47.14808" lon="-1.64284">
        <ele>73</ele>
        <time>2022-10-29T13:32:34Z</time>
      </trkpt>
      <trkpt lat="47.14813" lon="-1.64267">
        <ele>73</ele>
        <time>2022-10-29T13:32:36Z</time>
      </trkpt>
      <trkpt lat="47.14818" lon="-1.64251">
        <ele>73</ele>
        <time>2022-10-29T13:32:38Z</time>
      </trkpt>
      <trkpt lat="47.14823" lon="-1.64234">
        <ele>73</ele>
        <time>2022-10-29T13:32:40Z</time>
      </trkpt>
      <trkpt lat="47.14829" lon="-1.64217">
        <ele>73</ele>
        <time>2022-10-29T13:32:42Z</time>
      </trkpt>
      <trkpt lat="47.14834" lon="-1.64199">
        <ele>73</ele>
        <time>2022-10-29T13:32:44Z</time>
      </trkpt>
      <trkpt lat="47.14839" lon="-1.64183">
        <ele>73</ele>
        <time>2022-10-29T13:32:46Z</time>
      </trkpt>
      <trkpt lat="47.14844" lon="-1.64166">
        <ele>73</ele>
        <time>2022-10-29T13:32:48Z</time>
      </trkpt>
      <trkpt lat="47.1485" lon="-1.6415">
        <ele>73</ele>
        <time>2022-10-29T13:32:50Z</time>
      </trkpt>
      <trkpt lat="47.14855" lon="-1.64133">
        <ele>73</ele>
        <time>2022-10-29T13:32:52Z</time>
      </trkpt>
      <trkpt lat="47.14862" lon="-1.64117">
        <ele>73</ele>
        <time>2022-10-29T13:32:54Z</time>
      </trkpt>
      <trkpt lat="47.14868" lon="-1.64101">
        <ele>73</ele>
        <time>2022-10-29T13:32:56Z</time>
      </trkpt>
      <trkpt lat="47.14873" lon="-1.64086">
        <ele>73</ele>
        <time>2022-10-29T13:32:58Z</time>
      </trkpt>
      <trkpt lat="47.14878" lon="-1.6407">
        <ele>73</ele>
        <time>2022-10-29T13:33:00Z</time>
      </trkpt>
      <trkpt lat="47.1488" lon="-1.64055">
        <ele>74</ele>
        <time>2022-10-29T13:33:02Z</time>
      </trkpt>
      <trkpt lat="47.14882" lon="-1.64039">
        <ele>74</ele>
        <time>2022-10-29T13:33:04Z</time>
      </trkpt>
      <trkpt lat="47.14887" lon="-1.64026">
        <ele>74</ele>
        <time>2022-10-29T13:33:06Z</time>
      </trkpt>
      <trkpt lat="47.14896" lon="-1.64018">
        <ele>74</ele>
        <time>2022-10-29T13:33:08Z</time>
      </trkpt>
      <trkpt lat="47.14906" lon="-1.64013">
        <ele>73</ele>
        <time>2022-10-29T13:33:10Z</time>
      </trkpt>
      <trkpt lat="47.14914" lon="-1.63997">
        <ele>73</ele>
        <time>2022-10-29T13:33:12Z</time>
      </trkpt>
      <trkpt lat="47.14921" lon="-1.6398">
        <ele>73</ele>
        <time>2022-10-29T13:33:14Z</time>
      </trkpt>
      <trkpt lat="47.14929" lon="-1.63964">
        <ele>72</ele>
        <time>2022-10-29T13:33:16Z</time>
      </trkpt>
      <trkpt lat="47.14937" lon="-1.6395">
        <ele>73</ele>
        <time>2022-10-29T13:33:18Z</time>
      </trkpt>
      <trkpt lat="47.14946" lon="-1.63936">
        <ele>73</ele>
        <time>2022-10-29T13:33:20Z</time>
      </trkpt>
      <trkpt lat="47.14956" lon="-1.63922">
        <ele>73</ele>
        <time>2022-10-29T13:33:22Z</time>
      </trkpt>
      <trkpt lat="47.14965" lon="-1.63908">
        <ele>73</ele>
        <time>2022-10-29T13:33:24Z</time>
      </trkpt>
      <trkpt lat="47.14975" lon="-1.63894">
        <ele>73</ele>
        <time>2022-10-29T13:33:26Z</time>
      </trkpt>
      <trkpt lat="47.14985" lon="-1.6388">
        <ele>72</ele>
        <time>2022-10-29T13:33:28Z</time>
      </trkpt>
      <trkpt lat="47.14995" lon="-1.63866">
        <ele>72</ele>
        <time>2022-10-29T13:33:30Z</time>
      </trkpt>
      <trkpt lat="47.15005" lon="-1.63853">
        <ele>72</ele>
        <time>2022-10-29T13:33:32Z</time>
      </trkpt>
      <trkpt lat="47.15015" lon="-1.63839">
        <ele>72</ele>
        <time>2022-10-29T13:33:34Z</time>
      </trkpt>
      <trkpt lat="47.15026" lon="-1.63826">
        <ele>72</ele>
        <time>2022-10-29T13:33:36Z</time>
      </trkpt>
      <trkpt lat="47.15037" lon="-1.63812">
        <ele>72</ele>
        <time>2022-10-29T13:33:38Z</time>
      </trkpt>
      <trkpt lat="47.15047" lon="-1.63799">
        <ele>72</ele>
        <time>2022-10-29T13:33:40Z</time>
      </trkpt>
      <trkpt lat="47.15057" lon="-1.63786">
        <ele>72</ele>
        <time>2022-10-29T13:33:42Z</time>
      </trkpt>
      <trkpt lat="47.15068" lon="-1.63773">
        <ele>71</ele>
        <time>2022-10-29T13:33:44Z</time>
      </trkpt>
      <trkpt lat="47.15079" lon="-1.6376">
        <ele>71</ele>
        <time>2022-10-29T13:33:46Z</time>
      </trkpt>
      <trkpt lat="47.15095" lon="-1.63742">
        <ele>71</ele>
        <time>2022-10-29T13:33:49Z</time>
      </trkpt>
      <trkpt lat="47.15107" lon="-1.63729">
        <ele>72</ele>
        <time>2022-10-29T13:33:51Z</time>
      </trkpt>
      <trkpt lat="47.15124" lon="-1.63711">
        <ele>71</ele>
        <time>2022-10-29T13:33:54Z</time>
      </trkpt>
      <trkpt lat="47.15135" lon="-1.637">
        <ele>71</ele>
        <time>2022-10-29T13:33:56Z</time>
      </trkpt>
      <trkpt lat="47.15146" lon="-1.63689">
        <ele>71</ele>
        <time>2022-10-29T13:33:58Z</time>
      </trkpt>
      <trkpt lat="47.15157" lon="-1.63679">
        <ele>72</ele>
        <time>2022-10-29T13:34:00Z</time>
      </trkpt>
      <trkpt lat="47.15174" lon="-1.63663">
        <ele>72</ele>
        <time>2022-10-29T13:34:03Z</time>
      </trkpt>
      <trkpt lat="47.15186" lon="-1.63652">
        <ele>72</ele>
        <time>2022-10-29T13:34:05Z</time>
      </trkpt>
      <trkpt lat="47.15197" lon="-1.63642">
        <ele>72</ele>
        <time>2022-10-29T13:34:07Z</time>
      </trkpt>
      <trkpt lat="47.15208" lon="-1.63632">
        <ele>71</ele>
        <time>2022-10-29T13:34:09Z</time>
      </trkpt>
      <trkpt lat="47.15219" lon="-1.63621">
        <ele>72</ele>
        <time>2022-10-29T13:34:11Z</time>
      </trkpt>
      <trkpt lat="47.15229" lon="-1.63611">
        <ele>72</ele>
        <time>2022-10-29T13:34:13Z</time>
      </trkpt>
      <trkpt lat="47.15247" lon="-1.63596">
        <ele>72</ele>
        <time>2022-10-29T13:34:16Z</time>
      </trkpt>
      <trkpt lat="47.15258" lon="-1.63585">
        <ele>72</ele>
        <time>2022-10-29T13:34:18Z</time>
      </trkpt>
      <trkpt lat="47.15269" lon="-1.63575">
        <ele>72</ele>
        <time>2022-10-29T13:34:20Z</time>
      </trkpt>
      <trkpt lat="47.1528" lon="-1.63565">
        <ele>72</ele>
        <time>2022-10-29T13:34:22Z</time>
      </trkpt>
      <trkpt lat="47.15291" lon="-1.63554">
        <ele>72</ele>
        <time>2022-10-29T13:34:24Z</time>
      </trkpt>
      <trkpt lat="47.15302" lon="-1.63544">
        <ele>72</ele>
        <time>2022-10-29T13:34:26Z</time>
      </trkpt>
      <trkpt lat="47.15314" lon="-1.63534">
        <ele>72</ele>
        <time>2022-10-29T13:34:28Z</time>
      </trkpt>
      <trkpt lat="47.15326" lon="-1.63523">
        <ele>72</ele>
        <time>2022-10-29T13:34:30Z</time>
      </trkpt>
      <trkpt lat="47.15338" lon="-1.63513">
        <ele>72</ele>
        <time>2022-10-29T13:34:32Z</time>
      </trkpt>
      <trkpt lat="47.1535" lon="-1.63502">
        <ele>71</ele>
        <time>2022-10-29T13:34:34Z</time>
      </trkpt>
      <trkpt lat="47.15361" lon="-1.63493">
        <ele>71</ele>
        <time>2022-10-29T13:34:36Z</time>
      </trkpt>
      <trkpt lat="47.15372" lon="-1.63483">
        <ele>71</ele>
        <time>2022-10-29T13:34:38Z</time>
      </trkpt>
      <trkpt lat="47.15384" lon="-1.63473">
        <ele>71</ele>
        <time>2022-10-29T13:34:40Z</time>
      </trkpt>
      <trkpt lat="47.15395" lon="-1.63462">
        <ele>71</ele>
        <time>2022-10-29T13:34:42Z</time>
      </trkpt>
      <trkpt lat="47.15407" lon="-1.63453">
        <ele>70</ele>
        <time>2022-10-29T13:34:44Z</time>
      </trkpt>
      <trkpt lat="47.15419" lon="-1.63442">
        <ele>70</ele>
        <time>2022-10-29T13:34:46Z</time>
      </trkpt>
      <trkpt lat="47.1543" lon="-1.63432">
        <ele>70</ele>
        <time>2022-10-29T13:34:48Z</time>
      </trkpt>
      <trkpt lat="47.15441" lon="-1.6342">
        <ele>70</ele>
        <time>2022-10-29T13:34:50Z</time>
      </trkpt>
      <trkpt lat="47.15453" lon="-1.63408">
        <ele>69</ele>
        <time>2022-10-29T13:34:52Z</time>
      </trkpt>
      <trkpt lat="47.15466" lon="-1.63397">
        <ele>69</ele>
        <time>2022-10-29T13:34:54Z</time>
      </trkpt>
      <trkpt lat="47.15479" lon="-1.63387">
        <ele>69</ele>
        <time>2022-10-29T13:34:56Z</time>
      </trkpt>
      <trkpt lat="47.15493" lon="-1.63379">
        <ele>69</ele>
        <time>2022-10-29T13:34:58Z</time>
      </trkpt>
      <trkpt lat="47.15505" lon="-1.63368">
        <ele>68</ele>
        <time>2022-10-29T13:35:00Z</time>
      </trkpt>
      <trkpt lat="47.15519" lon="-1.63357">
        <ele>68</ele>
        <time>2022-10-29T13:35:02Z</time>
      </trkpt>
      <trkpt lat="47.15532" lon="-1.63345">
        <ele>67</ele>
        <time>2022-10-29T13:35:04Z</time>
      </trkpt>
      <trkpt lat="47.15545" lon="-1.63333">
        <ele>67</ele>
        <time>2022-10-29T13:35:06Z</time>
      </trkpt>
      <trkpt lat="47.15559" lon="-1.63321">
        <ele>66</ele>
        <time>2022-10-29T13:35:08Z</time>
      </trkpt>
      <trkpt lat="47.15573" lon="-1.63309">
        <ele>66</ele>
        <time>2022-10-29T13:35:10Z</time>
      </trkpt>
      <trkpt lat="47.15586" lon="-1.63296">
        <ele>65</ele>
        <time>2022-10-29T13:35:12Z</time>
      </trkpt>
      <trkpt lat="47.156" lon="-1.63284">
        <ele>65</ele>
        <time>2022-10-29T13:35:14Z</time>
      </trkpt>
      <trkpt lat="47.15613" lon="-1.63272">
        <ele>64</ele>
        <time>2022-10-29T13:35:16Z</time>
      </trkpt>
      <trkpt lat="47.15626" lon="-1.63261">
        <ele>64</ele>
        <time>2022-10-29T13:35:18Z</time>
      </trkpt>
      <trkpt lat="47.15639" lon="-1.63249">
        <ele>64</ele>
        <time>2022-10-29T13:35:20Z</time>
      </trkpt>
      <trkpt lat="47.15652" lon="-1.63238">
        <ele>64</ele>
        <time>2022-10-29T13:35:22Z</time>
      </trkpt>
      <trkpt lat="47.15665" lon="-1.63226">
        <ele>64</ele>
        <time>2022-10-29T13:35:24Z</time>
      </trkpt>
      <trkpt lat="47.15678" lon="-1.63215">
        <ele>64</ele>
        <time>2022-10-29T13:35:26Z</time>
      </trkpt>
      <trkpt lat="47.1569" lon="-1.63204">
        <ele>64</ele>
        <time>2022-10-29T13:35:28Z</time>
      </trkpt>
      <trkpt lat="47.15702" lon="-1.63193">
        <ele>64</ele>
        <time>2022-10-29T13:35:30Z</time>
      </trkpt>
      <trkpt lat="47.15714" lon="-1.63183">
        <ele>64</ele>
        <time>2022-10-29T13:35:32Z</time>
      </trkpt>
      <trkpt lat="47.15727" lon="-1.63172">
        <ele>64</ele>
        <time>2022-10-29T13:35:34Z</time>
      </trkpt>
      <trkpt lat="47.15738" lon="-1.63161">
        <ele>64</ele>
        <time>2022-10-29T13:35:36Z</time>
      </trkpt>
      <trkpt lat="47.15747" lon="-1.63147">
        <ele>64</ele>
        <time>2022-10-29T13:35:38Z</time>
      </trkpt>
      <trkpt lat="47.15758" lon="-1.63141">
        <ele>64</ele>
        <time>2022-10-29T13:35:40Z</time>
      </trkpt>
      <trkpt lat="47.1577" lon="-1.63133">
        <ele>64</ele>
        <time>2022-10-29T13:35:42Z</time>
      </trkpt>
      <trkpt lat="47.15782" lon="-1.63123">
        <ele>64</ele>
        <time>2022-10-29T13:35:44Z</time>
      </trkpt>
      <trkpt lat="47.15793" lon="-1.63113">
        <ele>63</ele>
        <time>2022-10-29T13:35:46Z</time>
      </trkpt>
      <trkpt lat="47.15805" lon="-1.63102">
        <ele>63</ele>
        <time>2022-10-29T13:35:48Z</time>
      </trkpt>
      <trkpt lat="47.15818" lon="-1.63091">
        <ele>62</ele>
        <time>2022-10-29T13:35:50Z</time>
      </trkpt>
      <trkpt lat="47.1583" lon="-1.6308">
        <ele>62</ele>
        <time>2022-10-29T13:35:52Z</time>
      </trkpt>
      <trkpt lat="47.15843" lon="-1.63068">
        <ele>61</ele>
        <time>2022-10-29T13:35:54Z</time>
      </trkpt>
      <trkpt lat="47.15856" lon="-1.63057">
        <ele>60</ele>
        <time>2022-10-29T13:35:56Z</time>
      </trkpt>
      <trkpt lat="47.15869" lon="-1.63045">
        <ele>60</ele>
        <time>2022-10-29T13:35:58Z</time>
      </trkpt>
      <trkpt lat="47.15883" lon="-1.63034">
        <ele>59</ele>
        <time>2022-10-29T13:36:00Z</time>
      </trkpt>
      <trkpt lat="47.15896" lon="-1.63022">
        <ele>59</ele>
        <time>2022-10-29T13:36:02Z</time>
      </trkpt>
      <trkpt lat="47.15909" lon="-1.6301">
        <ele>59</ele>
        <time>2022-10-29T13:36:04Z</time>
      </trkpt>
      <trkpt lat="47.15922" lon="-1.62999">
        <ele>60</ele>
        <time>2022-10-29T13:36:06Z</time>
      </trkpt>
      <trkpt lat="47.15934" lon="-1.62988">
        <ele>61</ele>
        <time>2022-10-29T13:36:08Z</time>
      </trkpt>
      <trkpt lat="47.15945" lon="-1.62977">
        <ele>61</ele>
        <time>2022-10-29T13:36:10Z</time>
      </trkpt>
      <trkpt lat="47.15956" lon="-1.62967">
        <ele>62</ele>
        <time>2022-10-29T13:36:12Z</time>
      </trkpt>
      <trkpt lat="47.15968" lon="-1.62957">
        <ele>63</ele>
        <time>2022-10-29T13:36:14Z</time>
      </trkpt>
      <trkpt lat="47.15979" lon="-1.62947">
        <ele>64</ele>
        <time>2022-10-29T13:36:16Z</time>
      </trkpt>
      <trkpt lat="47.1599" lon="-1.62937">
        <ele>65</ele>
        <time>2022-10-29T13:36:18Z</time>
      </trkpt>
      <trkpt lat="47.16002" lon="-1.62927">
        <ele>65</ele>
        <time>2022-10-29T13:36:20Z</time>
      </trkpt>
      <trkpt lat="47.16013" lon="-1.62918">
        <ele>66</ele>
        <time>2022-10-29T13:36:22Z</time>
      </trkpt>
      <trkpt lat="47.16024" lon="-1.62907">
        <ele>66</ele>
        <time>2022-10-29T13:36:24Z</time>
      </trkpt>
      <trkpt lat="47.16035" lon="-1.62897">
        <ele>66</ele>
        <time>2022-10-29T13:36:26Z</time>
      </trkpt>
      <trkpt lat="47.16047" lon="-1.62887">
        <ele>67</ele>
        <time>2022-10-29T13:36:28Z</time>
      </trkpt>
      <trkpt lat="47.16058" lon="-1.62878">
        <ele>68</ele>
        <time>2022-10-29T13:36:30Z</time>
      </trkpt>
      <trkpt lat="47.16069" lon="-1.62868">
        <ele>69</ele>
        <time>2022-10-29T13:36:32Z</time>
      </trkpt>
      <trkpt lat="47.1608" lon="-1.62858">
        <ele>69</ele>
        <time>2022-10-29T13:36:34Z</time>
      </trkpt>
      <trkpt lat="47.16091" lon="-1.62847">
        <ele>70</ele>
        <time>2022-10-29T13:36:36Z</time>
      </trkpt>
      <trkpt lat="47.16103" lon="-1.62837">
        <ele>70</ele>
        <time>2022-10-29T13:36:38Z</time>
      </trkpt>
      <trkpt lat="47.16114" lon="-1.62826">
        <ele>71</ele>
        <time>2022-10-29T13:36:40Z</time>
      </trkpt>
      <trkpt lat="47.16126" lon="-1.62816">
        <ele>71</ele>
        <time>2022-10-29T13:36:42Z</time>
      </trkpt>
      <trkpt lat="47.16137" lon="-1.62807">
        <ele>71</ele>
        <time>2022-10-29T13:36:44Z</time>
      </trkpt>
      <trkpt lat="47.16149" lon="-1.62797">
        <ele>72</ele>
        <time>2022-10-29T13:36:46Z</time>
      </trkpt>
      <trkpt lat="47.1616" lon="-1.62787">
        <ele>72</ele>
        <time>2022-10-29T13:36:48Z</time>
      </trkpt>
      <trkpt lat="47.16172" lon="-1.62776">
        <ele>71</ele>
        <time>2022-10-29T13:36:50Z</time>
      </trkpt>
      <trkpt lat="47.16183" lon="-1.62766">
        <ele>71</ele>
        <time>2022-10-29T13:36:52Z</time>
      </trkpt>
      <trkpt lat="47.16194" lon="-1.62756">
        <ele>72</ele>
        <time>2022-10-29T13:36:54Z</time>
      </trkpt>
      <trkpt lat="47.16205" lon="-1.62746">
        <ele>72</ele>
        <time>2022-10-29T13:36:56Z</time>
      </trkpt>
      <trkpt lat="47.16215" lon="-1.62738">
        <ele>72</ele>
        <time>2022-10-29T13:36:58Z</time>
      </trkpt>
      <trkpt lat="47.16225" lon="-1.62729">
        <ele>73</ele>
        <time>2022-10-29T13:37:00Z</time>
      </trkpt>
      <trkpt lat="47.16235" lon="-1.62721">
        <ele>72</ele>
        <time>2022-10-29T13:37:02Z</time>
      </trkpt>
      <trkpt lat="47.16244" lon="-1.62714">
        <ele>72</ele>
        <time>2022-10-29T13:37:04Z</time>
      </trkpt>
      <trkpt lat="47.16253" lon="-1.62707">
        <ele>72</ele>
        <time>2022-10-29T13:37:06Z</time>
      </trkpt>
      <trkpt lat="47.16262" lon="-1.62699">
        <ele>72</ele>
        <time>2022-10-29T13:37:08Z</time>
      </trkpt>
      <trkpt lat="47.16271" lon="-1.62692">
        <ele>73</ele>
        <time>2022-10-29T13:37:10Z</time>
      </trkpt>
      <trkpt lat="47.16277" lon="-1.62681">
        <ele>73</ele>
        <time>2022-10-29T13:37:12Z</time>
      </trkpt>
      <trkpt lat="47.16276" lon="-1.62665">
        <ele>72</ele>
        <time>2022-10-29T13:37:14Z</time>
      </trkpt>
      <trkpt lat="47.16277" lon="-1.62649">
        <ele>72</ele>
        <time>2022-10-29T13:37:16Z</time>
      </trkpt>
      <trkpt lat="47.1628" lon="-1.62632">
        <ele>73</ele>
        <time>2022-10-29T13:37:18Z</time>
      </trkpt>
      <trkpt lat="47.16282" lon="-1.62616">
        <ele>73</ele>
        <time>2022-10-29T13:37:20Z</time>
      </trkpt>
      <trkpt lat="47.16286" lon="-1.62601">
        <ele>73</ele>
        <time>2022-10-29T13:37:22Z</time>
      </trkpt>
      <trkpt lat="47.16291" lon="-1.62588">
        <ele>73</ele>
        <time>2022-10-29T13:37:24Z</time>
      </trkpt>
      <trkpt lat="47.16297" lon="-1.62577">
        <ele>73</ele>
        <time>2022-10-29T13:37:26Z</time>
      </trkpt>
      <trkpt lat="47.16305" lon="-1.62571">
        <ele>73</ele>
        <time>2022-10-29T13:37:28Z</time>
      </trkpt>
      <trkpt lat="47.16315" lon="-1.62567">
        <ele>73</ele>
        <time>2022-10-29T13:37:30Z</time>
      </trkpt>
      <trkpt lat="47.16325" lon="-1.62567">
        <ele>74</ele>
        <time>2022-10-29T13:37:32Z</time>
      </trkpt>
      <trkpt lat="47.16336" lon="-1.62572">
        <ele>73</ele>
        <time>2022-10-29T13:37:34Z</time>
      </trkpt>
      <trkpt lat="47.16346" lon="-1.62577">
        <ele>73</ele>
        <time>2022-10-29T13:37:36Z</time>
      </trkpt>
      <trkpt lat="47.16357" lon="-1.6258">
        <ele>73</ele>
        <time>2022-10-29T13:37:38Z</time>
      </trkpt>
      <trkpt lat="47.16368" lon="-1.62581">
        <ele>73</ele>
        <time>2022-10-29T13:37:40Z</time>
      </trkpt>
      <trkpt lat="47.16379" lon="-1.62581">
        <ele>73</ele>
        <time>2022-10-29T13:37:42Z</time>
      </trkpt>
      <trkpt lat="47.16391" lon="-1.62576">
        <ele>73</ele>
        <time>2022-10-29T13:37:44Z</time>
      </trkpt>
      <trkpt lat="47.16402" lon="-1.62568">
        <ele>73</ele>
        <time>2022-10-29T13:37:46Z</time>
      </trkpt>
      <trkpt lat="47.16413" lon="-1.62558">
        <ele>74</ele>
        <time>2022-10-29T13:37:48Z</time>
      </trkpt>
      <trkpt lat="47.16423" lon="-1.62548">
        <ele>74</ele>
        <time>2022-10-29T13:37:50Z</time>
      </trkpt>
      <trkpt lat="47.16433" lon="-1.62539">
        <ele>74</ele>
        <time>2022-10-29T13:37:52Z</time>
      </trkpt>
      <trkpt lat="47.16443" lon="-1.62536">
        <ele>74</ele>
        <time>2022-10-29T13:37:54Z</time>
      </trkpt>
      <trkpt lat="47.16453" lon="-1.62538">
        <ele>74</ele>
        <time>2022-10-29T13:37:56Z</time>
      </trkpt>
      <trkpt lat="47.16464" lon="-1.62542">
        <ele>74</ele>
        <time>2022-10-29T13:37:58Z</time>
      </trkpt>
      <trkpt lat="47.16476" lon="-1.62546">
        <ele>74</ele>
        <time>2022-10-29T13:38:00Z</time>
      </trkpt>
      <trkpt lat="47.16487" lon="-1.6255">
        <ele>73</ele>
        <time>2022-10-29T13:38:02Z</time>
      </trkpt>
      <trkpt lat="47.16499" lon="-1.62554">
        <ele>73</ele>
        <time>2022-10-29T13:38:04Z</time>
      </trkpt>
      <trkpt lat="47.16511" lon="-1.62558">
        <ele>72</ele>
        <time>2022-10-29T13:38:06Z</time>
      </trkpt>
      <trkpt lat="47.16523" lon="-1.62561">
        <ele>72</ele>
        <time>2022-10-29T13:38:08Z</time>
      </trkpt>
      <trkpt lat="47.16535" lon="-1.62559">
        <ele>72</ele>
        <time>2022-10-29T13:38:10Z</time>
      </trkpt>
      <trkpt lat="47.16545" lon="-1.62551">
        <ele>72</ele>
        <time>2022-10-29T13:38:12Z</time>
      </trkpt>
      <trkpt lat="47.16555" lon="-1.62539">
        <ele>72</ele>
        <time>2022-10-29T13:38:14Z</time>
      </trkpt>
      <trkpt lat="47.16563" lon="-1.62525">
        <ele>72</ele>
        <time>2022-10-29T13:38:16Z</time>
      </trkpt>
      <trkpt lat="47.1657" lon="-1.62509">
        <ele>72</ele>
        <time>2022-10-29T13:38:18Z</time>
      </trkpt>
      <trkpt lat="47.16576" lon="-1.62492">
        <ele>72</ele>
        <time>2022-10-29T13:38:20Z</time>
      </trkpt>
      <trkpt lat="47.16582" lon="-1.62475">
        <ele>71</ele>
        <time>2022-10-29T13:38:22Z</time>
      </trkpt>
      <trkpt lat="47.1659" lon="-1.62458">
        <ele>71</ele>
        <time>2022-10-29T13:38:24Z</time>
      </trkpt>
      <trkpt lat="47.16597" lon="-1.6244">
        <ele>70</ele>
        <time>2022-10-29T13:38:26Z</time>
      </trkpt>
      <trkpt lat="47.16605" lon="-1.62424">
        <ele>70</ele>
        <time>2022-10-29T13:38:28Z</time>
      </trkpt>
      <trkpt lat="47.16614" lon="-1.62407">
        <ele>70</ele>
        <time>2022-10-29T13:38:30Z</time>
      </trkpt>
      <trkpt lat="47.16623" lon="-1.62392">
        <ele>70</ele>
        <time>2022-10-29T13:38:32Z</time>
      </trkpt>
      <trkpt lat="47.16633" lon="-1.62378">
        <ele>70</ele>
        <time>2022-10-29T13:38:34Z</time>
      </trkpt>
      <trkpt lat="47.16645" lon="-1.62367">
        <ele>70</ele>
        <time>2022-10-29T13:38:36Z</time>
      </trkpt>
      <trkpt lat="47.16658" lon="-1.62358">
        <ele>69</ele>
        <time>2022-10-29T13:38:38Z</time>
      </trkpt>
      <trkpt lat="47.16672" lon="-1.62353">
        <ele>69</ele>
        <time>2022-10-29T13:38:40Z</time>
      </trkpt>
      <trkpt lat="47.16685" lon="-1.62356">
        <ele>70</ele>
        <time>2022-10-29T13:38:42Z</time>
      </trkpt>
      <trkpt lat="47.16698" lon="-1.62366">
        <ele>69</ele>
        <time>2022-10-29T13:38:44Z</time>
      </trkpt>
      <trkpt lat="47.16708" lon="-1.62381">
        <ele>68</ele>
        <time>2022-10-29T13:38:46Z</time>
      </trkpt>
      <trkpt lat="47.16716" lon="-1.62397">
        <ele>68</ele>
        <time>2022-10-29T13:38:48Z</time>
      </trkpt>
      <trkpt lat="47.16724" lon="-1.6241">
        <ele>67</ele>
        <time>2022-10-29T13:38:50Z</time>
      </trkpt>
      <trkpt lat="47.16727" lon="-1.62425">
        <ele>67</ele>
        <time>2022-10-29T13:38:52Z</time>
      </trkpt>
      <trkpt lat="47.16726" lon="-1.6244">
        <ele>67</ele>
        <time>2022-10-29T13:38:54Z</time>
      </trkpt>
      <trkpt lat="47.16721" lon="-1.62454">
        <ele>66</ele>
        <time>2022-10-29T13:38:56Z</time>
      </trkpt>
      <trkpt lat="47.16718" lon="-1.6247">
        <ele>66</ele>
        <time>2022-10-29T13:38:58Z</time>
      </trkpt>
      <trkpt lat="47.16717" lon="-1.62485">
        <ele>65</ele>
        <time>2022-10-29T13:39:00Z</time>
      </trkpt>
      <trkpt lat="47.16724" lon="-1.62495">
        <ele>65</ele>
        <time>2022-10-29T13:39:02Z</time>
      </trkpt>
      <trkpt lat="47.16734" lon="-1.625">
        <ele>64</ele>
        <time>2022-10-29T13:39:04Z</time>
      </trkpt>
      <trkpt lat="47.16744" lon="-1.62504">
        <ele>64</ele>
        <time>2022-10-29T13:39:06Z</time>
      </trkpt>
      <trkpt lat="47.16754" lon="-1.62509">
        <ele>64</ele>
        <time>2022-10-29T13:39:08Z</time>
      </trkpt>
      <trkpt lat="47.16764" lon="-1.62515">
        <ele>65</ele>
        <time>2022-10-29T13:39:10Z</time>
      </trkpt>
      <trkpt lat="47.16774" lon="-1.62521">
        <ele>65</ele>
        <time>2022-10-29T13:39:12Z</time>
      </trkpt>
      <trkpt lat="47.16784" lon="-1.62528">
        <ele>65</ele>
        <time>2022-10-29T13:39:14Z</time>
      </trkpt>
      <trkpt lat="47.16793" lon="-1.62534">
        <ele>65</ele>
        <time>2022-10-29T13:39:16Z</time>
      </trkpt>
      <trkpt lat="47.16802" lon="-1.6254">
        <ele>66</ele>
        <time>2022-10-29T13:39:18Z</time>
      </trkpt>
      <trkpt lat="47.16811" lon="-1.62547">
        <ele>65</ele>
        <time>2022-10-29T13:39:20Z</time>
      </trkpt>
      <trkpt lat="47.16819" lon="-1.62555">
        <ele>66</ele>
        <time>2022-10-29T13:39:22Z</time>
      </trkpt>
      <trkpt lat="47.16827" lon="-1.62565">
        <ele>66</ele>
        <time>2022-10-29T13:39:24Z</time>
      </trkpt>
      <trkpt lat="47.16832" lon="-1.62576">
        <ele>66</ele>
        <time>2022-10-29T13:39:26Z</time>
      </trkpt>
      <trkpt lat="47.16828" lon="-1.62589">
        <ele>66</ele>
        <time>2022-10-29T13:39:28Z</time>
      </trkpt>
      <trkpt lat="47.16821" lon="-1.62599">
        <ele>66</ele>
        <time>2022-10-29T13:39:30Z</time>
      </trkpt>
      <trkpt lat="47.16815" lon="-1.62609">
        <ele>65</ele>
        <time>2022-10-29T13:39:32Z</time>
      </trkpt>
      <trkpt lat="47.16809" lon="-1.6262">
        <ele>65</ele>
        <time>2022-10-29T13:39:34Z</time>
      </trkpt>
      <trkpt lat="47.16802" lon="-1.6263">
        <ele>65</ele>
        <time>2022-10-29T13:39:36Z</time>
      </trkpt>
      <trkpt lat="47.16796" lon="-1.6264">
        <ele>65</ele>
        <time>2022-10-29T13:39:38Z</time>
      </trkpt>
      <trkpt lat="47.16788" lon="-1.62654">
        <ele>65</ele>
        <time>2022-10-29T13:39:41Z</time>
      </trkpt>
      <trkpt lat="47.16777" lon="-1.62651">
        <ele>65</ele>
        <time>2022-10-29T13:39:46Z</time>
      </trkpt>
    </trkseg>
  </trk>
</gpx>